<?xml version="1.0" encoding="UTF-8" standalone="no" ?>
<gpx xmlns="http://www.topografix.com/GPX/1/1" xmlns:xsi="http://www.w3.org/2001/XMLSchema-instance" xsi:schemaLocation="http://www.topografix.com/GPX/1/1 http://www.topografix.com/GPX/1/1/gpx.xsd" version="1.1" creator="VisuGPX - https://www.visugpx.com">
  <metadata>
    <name>2021-05-28 12:38:08 [Suunto App]</name>
  </metadata>
  <trk>
    <name><![CDATA[2021-05-28 12:38:08 [Suunto App]_1]]></name>
    <trkseg>
      <trkpt lat="45.61964" lon="6.77243">
        <ele>808.5</ele>
        <time>2021-05-28T10:38:08Z</time>
      </trkpt>
      <trkpt lat="45.61961" lon="6.7724">
        <ele>808.3</ele>
        <time>2021-05-28T10:38:10Z</time>
      </trkpt>
      <trkpt lat="45.61959" lon="6.77237">
        <ele>808.3</ele>
        <time>2021-05-28T10:38:11Z</time>
      </trkpt>
      <trkpt lat="45.61956" lon="6.77234">
        <ele>808.2</ele>
        <time>2021-05-28T10:38:13Z</time>
      </trkpt>
      <trkpt lat="45.61955" lon="6.77232">
        <ele>808.2</ele>
        <time>2021-05-28T10:38:14Z</time>
      </trkpt>
      <trkpt lat="45.61953" lon="6.7723">
        <ele>778</ele>
        <time>2021-05-28T10:38:15Z</time>
      </trkpt>
      <trkpt lat="45.61952" lon="6.77228">
        <ele>778</ele>
        <time>2021-05-28T10:38:16Z</time>
      </trkpt>
      <trkpt lat="45.61949" lon="6.77226">
        <ele>778.2</ele>
        <time>2021-05-28T10:38:17Z</time>
      </trkpt>
      <trkpt lat="45.61947" lon="6.77225">
        <ele>778.2</ele>
        <time>2021-05-28T10:38:18Z</time>
      </trkpt>
      <trkpt lat="45.61944" lon="6.77225">
        <ele>778.6</ele>
        <time>2021-05-28T10:38:19Z</time>
      </trkpt>
      <trkpt lat="45.61941" lon="6.77226">
        <ele>778.8</ele>
        <time>2021-05-28T10:38:20Z</time>
      </trkpt>
      <trkpt lat="45.61938" lon="6.77228">
        <ele>779.2</ele>
        <time>2021-05-28T10:38:21Z</time>
      </trkpt>
      <trkpt lat="45.61935" lon="6.77232">
        <ele>779</ele>
        <time>2021-05-28T10:38:22Z</time>
      </trkpt>
      <trkpt lat="45.61931" lon="6.77235">
        <ele>778.8</ele>
        <time>2021-05-28T10:38:23Z</time>
      </trkpt>
      <trkpt lat="45.61928" lon="6.77238">
        <ele>779.4</ele>
        <time>2021-05-28T10:38:24Z</time>
      </trkpt>
      <trkpt lat="45.61924" lon="6.77241">
        <ele>779</ele>
        <time>2021-05-28T10:38:25Z</time>
      </trkpt>
      <trkpt lat="45.6192" lon="6.77245">
        <ele>779</ele>
        <time>2021-05-28T10:38:26Z</time>
      </trkpt>
      <trkpt lat="45.61916" lon="6.7725">
        <ele>779.4</ele>
        <time>2021-05-28T10:38:27Z</time>
      </trkpt>
      <trkpt lat="45.61912" lon="6.77255">
        <ele>779.6</ele>
        <time>2021-05-28T10:38:28Z</time>
      </trkpt>
      <trkpt lat="45.61908" lon="6.7726">
        <ele>780</ele>
        <time>2021-05-28T10:38:29Z</time>
      </trkpt>
      <trkpt lat="45.61904" lon="6.77265">
        <ele>779.8</ele>
        <time>2021-05-28T10:38:30Z</time>
      </trkpt>
      <trkpt lat="45.61899" lon="6.77269">
        <ele>779.8</ele>
        <time>2021-05-28T10:38:31Z</time>
      </trkpt>
      <trkpt lat="45.61894" lon="6.77272">
        <ele>779.6</ele>
        <time>2021-05-28T10:38:32Z</time>
      </trkpt>
      <trkpt lat="45.61889" lon="6.77274">
        <ele>779.8</ele>
        <time>2021-05-28T10:38:33Z</time>
      </trkpt>
      <trkpt lat="45.61884" lon="6.77275">
        <ele>780</ele>
        <time>2021-05-28T10:38:34Z</time>
      </trkpt>
      <trkpt lat="45.61878" lon="6.77276">
        <ele>779.8</ele>
        <time>2021-05-28T10:38:35Z</time>
      </trkpt>
      <trkpt lat="45.61872" lon="6.77277">
        <ele>780.2</ele>
        <time>2021-05-28T10:38:36Z</time>
      </trkpt>
      <trkpt lat="45.61866" lon="6.77278">
        <ele>780.6</ele>
        <time>2021-05-28T10:38:37Z</time>
      </trkpt>
      <trkpt lat="45.6186" lon="6.77278">
        <ele>781.8</ele>
        <time>2021-05-28T10:38:38Z</time>
      </trkpt>
      <trkpt lat="45.61854" lon="6.77279">
        <ele>782.6</ele>
        <time>2021-05-28T10:38:39Z</time>
      </trkpt>
      <trkpt lat="45.61848" lon="6.7728">
        <ele>783.6</ele>
        <time>2021-05-28T10:38:40Z</time>
      </trkpt>
      <trkpt lat="45.61843" lon="6.77281">
        <ele>784.4</ele>
        <time>2021-05-28T10:38:41Z</time>
      </trkpt>
      <trkpt lat="45.61837" lon="6.77283">
        <ele>784.8</ele>
        <time>2021-05-28T10:38:42Z</time>
      </trkpt>
      <trkpt lat="45.61831" lon="6.77284">
        <ele>785.6</ele>
        <time>2021-05-28T10:38:43Z</time>
      </trkpt>
      <trkpt lat="45.61825" lon="6.77286">
        <ele>786</ele>
        <time>2021-05-28T10:38:44Z</time>
      </trkpt>
      <trkpt lat="45.61819" lon="6.77287">
        <ele>786.4</ele>
        <time>2021-05-28T10:38:45Z</time>
      </trkpt>
      <trkpt lat="45.61813" lon="6.77288">
        <ele>786.6</ele>
        <time>2021-05-28T10:38:46Z</time>
      </trkpt>
      <trkpt lat="45.61808" lon="6.77289">
        <ele>787</ele>
        <time>2021-05-28T10:38:47Z</time>
      </trkpt>
      <trkpt lat="45.61802" lon="6.7729">
        <ele>787.2</ele>
        <time>2021-05-28T10:38:48Z</time>
      </trkpt>
      <trkpt lat="45.61796" lon="6.77292">
        <ele>787.4</ele>
        <time>2021-05-28T10:38:49Z</time>
      </trkpt>
      <trkpt lat="45.6179" lon="6.77293">
        <ele>787.6</ele>
        <time>2021-05-28T10:38:50Z</time>
      </trkpt>
      <trkpt lat="45.61784" lon="6.77295">
        <ele>788</ele>
        <time>2021-05-28T10:38:51Z</time>
      </trkpt>
      <trkpt lat="45.61778" lon="6.77296">
        <ele>788</ele>
        <time>2021-05-28T10:38:52Z</time>
      </trkpt>
      <trkpt lat="45.61771" lon="6.77297">
        <ele>788.2</ele>
        <time>2021-05-28T10:38:53Z</time>
      </trkpt>
      <trkpt lat="45.61765" lon="6.77299">
        <ele>788.4</ele>
        <time>2021-05-28T10:38:54Z</time>
      </trkpt>
      <trkpt lat="45.6176" lon="6.773">
        <ele>788.6</ele>
        <time>2021-05-28T10:38:55Z</time>
      </trkpt>
      <trkpt lat="45.61754" lon="6.77302">
        <ele>788.6</ele>
        <time>2021-05-28T10:38:56Z</time>
      </trkpt>
      <trkpt lat="45.61748" lon="6.77303">
        <ele>788.4</ele>
        <time>2021-05-28T10:38:57Z</time>
      </trkpt>
      <trkpt lat="45.61742" lon="6.77305">
        <ele>788.4</ele>
        <time>2021-05-28T10:38:58Z</time>
      </trkpt>
      <trkpt lat="45.61735" lon="6.77307">
        <ele>788.4</ele>
        <time>2021-05-28T10:38:59Z</time>
      </trkpt>
      <trkpt lat="45.61729" lon="6.77308">
        <ele>788.6</ele>
        <time>2021-05-28T10:39:00Z</time>
      </trkpt>
      <trkpt lat="45.61723" lon="6.7731">
        <ele>788.8</ele>
        <time>2021-05-28T10:39:01Z</time>
      </trkpt>
      <trkpt lat="45.61717" lon="6.77312">
        <ele>788.8</ele>
        <time>2021-05-28T10:39:02Z</time>
      </trkpt>
      <trkpt lat="45.6171" lon="6.77314">
        <ele>788.8</ele>
        <time>2021-05-28T10:39:03Z</time>
      </trkpt>
      <trkpt lat="45.61704" lon="6.77316">
        <ele>788.8</ele>
        <time>2021-05-28T10:39:04Z</time>
      </trkpt>
      <trkpt lat="45.61698" lon="6.77319">
        <ele>788.8</ele>
        <time>2021-05-28T10:39:05Z</time>
      </trkpt>
      <trkpt lat="45.61693" lon="6.77321">
        <ele>788.8</ele>
        <time>2021-05-28T10:39:06Z</time>
      </trkpt>
      <trkpt lat="45.61686" lon="6.77323">
        <ele>789</ele>
        <time>2021-05-28T10:39:07Z</time>
      </trkpt>
      <trkpt lat="45.6168" lon="6.77324">
        <ele>789</ele>
        <time>2021-05-28T10:39:08Z</time>
      </trkpt>
      <trkpt lat="45.61674" lon="6.77326">
        <ele>789</ele>
        <time>2021-05-28T10:39:09Z</time>
      </trkpt>
      <trkpt lat="45.61667" lon="6.77326">
        <ele>789.2</ele>
        <time>2021-05-28T10:39:10Z</time>
      </trkpt>
      <trkpt lat="45.61661" lon="6.77327">
        <ele>789.4</ele>
        <time>2021-05-28T10:39:11Z</time>
      </trkpt>
      <trkpt lat="45.61655" lon="6.77328">
        <ele>789.4</ele>
        <time>2021-05-28T10:39:12Z</time>
      </trkpt>
      <trkpt lat="45.61647" lon="6.7733">
        <ele>789.8</ele>
        <time>2021-05-28T10:39:13Z</time>
      </trkpt>
      <trkpt lat="45.61641" lon="6.77333">
        <ele>790.2</ele>
        <time>2021-05-28T10:39:14Z</time>
      </trkpt>
      <trkpt lat="45.61635" lon="6.77335">
        <ele>790.2</ele>
        <time>2021-05-28T10:39:15Z</time>
      </trkpt>
      <trkpt lat="45.6163" lon="6.77336">
        <ele>790.2</ele>
        <time>2021-05-28T10:39:16Z</time>
      </trkpt>
      <trkpt lat="45.61624" lon="6.77337">
        <ele>790</ele>
        <time>2021-05-28T10:39:17Z</time>
      </trkpt>
      <trkpt lat="45.61616" lon="6.77338">
        <ele>789.6</ele>
        <time>2021-05-28T10:39:18Z</time>
      </trkpt>
      <trkpt lat="45.6161" lon="6.77339">
        <ele>789.4</ele>
        <time>2021-05-28T10:39:19Z</time>
      </trkpt>
      <trkpt lat="45.61604" lon="6.7734">
        <ele>789.2</ele>
        <time>2021-05-28T10:39:20Z</time>
      </trkpt>
      <trkpt lat="45.61597" lon="6.77341">
        <ele>789.2</ele>
        <time>2021-05-28T10:39:21Z</time>
      </trkpt>
      <trkpt lat="45.61591" lon="6.77342">
        <ele>789.4</ele>
        <time>2021-05-28T10:39:22Z</time>
      </trkpt>
      <trkpt lat="45.61585" lon="6.77344">
        <ele>789.4</ele>
        <time>2021-05-28T10:39:23Z</time>
      </trkpt>
      <trkpt lat="45.61578" lon="6.77345">
        <ele>789.6</ele>
        <time>2021-05-28T10:39:24Z</time>
      </trkpt>
      <trkpt lat="45.61572" lon="6.77346">
        <ele>789.6</ele>
        <time>2021-05-28T10:39:25Z</time>
      </trkpt>
      <trkpt lat="45.61565" lon="6.77347">
        <ele>789.6</ele>
        <time>2021-05-28T10:39:26Z</time>
      </trkpt>
      <trkpt lat="45.61558" lon="6.77348">
        <ele>789.6</ele>
        <time>2021-05-28T10:39:27Z</time>
      </trkpt>
      <trkpt lat="45.61554" lon="6.77348">
        <ele>789.8</ele>
        <time>2021-05-28T10:39:28Z</time>
      </trkpt>
      <trkpt lat="45.61548" lon="6.77351">
        <ele>790</ele>
        <time>2021-05-28T10:39:29Z</time>
      </trkpt>
      <trkpt lat="45.61541" lon="6.77353">
        <ele>790.2</ele>
        <time>2021-05-28T10:39:30Z</time>
      </trkpt>
      <trkpt lat="45.61535" lon="6.77354">
        <ele>790.6</ele>
        <time>2021-05-28T10:39:31Z</time>
      </trkpt>
      <trkpt lat="45.6153" lon="6.77355">
        <ele>790.4</ele>
        <time>2021-05-28T10:39:32Z</time>
      </trkpt>
      <trkpt lat="45.61524" lon="6.77356">
        <ele>790.6</ele>
        <time>2021-05-28T10:39:33Z</time>
      </trkpt>
      <trkpt lat="45.61517" lon="6.77358">
        <ele>790.6</ele>
        <time>2021-05-28T10:39:34Z</time>
      </trkpt>
      <trkpt lat="45.61511" lon="6.77359">
        <ele>790.8</ele>
        <time>2021-05-28T10:39:35Z</time>
      </trkpt>
      <trkpt lat="45.61504" lon="6.7736">
        <ele>791</ele>
        <time>2021-05-28T10:39:36Z</time>
      </trkpt>
      <trkpt lat="45.61498" lon="6.7736">
        <ele>791.2</ele>
        <time>2021-05-28T10:39:37Z</time>
      </trkpt>
      <trkpt lat="45.61492" lon="6.77361">
        <ele>791.4</ele>
        <time>2021-05-28T10:39:38Z</time>
      </trkpt>
      <trkpt lat="45.61484" lon="6.77362">
        <ele>791.6</ele>
        <time>2021-05-28T10:39:39Z</time>
      </trkpt>
      <trkpt lat="45.61477" lon="6.77362">
        <ele>791.6</ele>
        <time>2021-05-28T10:39:40Z</time>
      </trkpt>
      <trkpt lat="45.61471" lon="6.77362">
        <ele>791.6</ele>
        <time>2021-05-28T10:39:41Z</time>
      </trkpt>
      <trkpt lat="45.61465" lon="6.77361">
        <ele>792</ele>
        <time>2021-05-28T10:39:42Z</time>
      </trkpt>
      <trkpt lat="45.6146" lon="6.7736">
        <ele>792.8</ele>
        <time>2021-05-28T10:39:43Z</time>
      </trkpt>
      <trkpt lat="45.61454" lon="6.77358">
        <ele>793.4</ele>
        <time>2021-05-28T10:39:44Z</time>
      </trkpt>
      <trkpt lat="45.61446" lon="6.77354">
        <ele>794</ele>
        <time>2021-05-28T10:39:45Z</time>
      </trkpt>
      <trkpt lat="45.61441" lon="6.77351">
        <ele>794.6</ele>
        <time>2021-05-28T10:39:46Z</time>
      </trkpt>
      <trkpt lat="45.61435" lon="6.77348">
        <ele>795</ele>
        <time>2021-05-28T10:39:47Z</time>
      </trkpt>
      <trkpt lat="45.61429" lon="6.77345">
        <ele>795.4</ele>
        <time>2021-05-28T10:39:48Z</time>
      </trkpt>
      <trkpt lat="45.61424" lon="6.77341">
        <ele>795</ele>
        <time>2021-05-28T10:39:49Z</time>
      </trkpt>
      <trkpt lat="45.61419" lon="6.77337">
        <ele>794.8</ele>
        <time>2021-05-28T10:39:50Z</time>
      </trkpt>
      <trkpt lat="45.61413" lon="6.77333">
        <ele>794.8</ele>
        <time>2021-05-28T10:39:51Z</time>
      </trkpt>
      <trkpt lat="45.61408" lon="6.7733">
        <ele>795</ele>
        <time>2021-05-28T10:39:52Z</time>
      </trkpt>
      <trkpt lat="45.61403" lon="6.77326">
        <ele>795.2</ele>
        <time>2021-05-28T10:39:53Z</time>
      </trkpt>
      <trkpt lat="45.61397" lon="6.77323">
        <ele>795.8</ele>
        <time>2021-05-28T10:39:54Z</time>
      </trkpt>
      <trkpt lat="45.61392" lon="6.7732">
        <ele>796.2</ele>
        <time>2021-05-28T10:39:55Z</time>
      </trkpt>
      <trkpt lat="45.61387" lon="6.77316">
        <ele>796.4</ele>
        <time>2021-05-28T10:39:56Z</time>
      </trkpt>
      <trkpt lat="45.61381" lon="6.77312">
        <ele>796.6</ele>
        <time>2021-05-28T10:39:57Z</time>
      </trkpt>
      <trkpt lat="45.61377" lon="6.77308">
        <ele>796.8</ele>
        <time>2021-05-28T10:39:58Z</time>
      </trkpt>
      <trkpt lat="45.61371" lon="6.77304">
        <ele>797.2</ele>
        <time>2021-05-28T10:39:59Z</time>
      </trkpt>
      <trkpt lat="45.61366" lon="6.773">
        <ele>797.2</ele>
        <time>2021-05-28T10:40:00Z</time>
      </trkpt>
      <trkpt lat="45.61361" lon="6.77297">
        <ele>797.8</ele>
        <time>2021-05-28T10:40:01Z</time>
      </trkpt>
      <trkpt lat="45.61355" lon="6.77294">
        <ele>798</ele>
        <time>2021-05-28T10:40:02Z</time>
      </trkpt>
      <trkpt lat="45.61349" lon="6.77291">
        <ele>798</ele>
        <time>2021-05-28T10:40:03Z</time>
      </trkpt>
      <trkpt lat="45.61344" lon="6.77289">
        <ele>798.2</ele>
        <time>2021-05-28T10:40:04Z</time>
      </trkpt>
      <trkpt lat="45.61338" lon="6.77288">
        <ele>798.2</ele>
        <time>2021-05-28T10:40:05Z</time>
      </trkpt>
      <trkpt lat="45.61331" lon="6.77287">
        <ele>798.4</ele>
        <time>2021-05-28T10:40:06Z</time>
      </trkpt>
      <trkpt lat="45.61325" lon="6.77287">
        <ele>798.4</ele>
        <time>2021-05-28T10:40:07Z</time>
      </trkpt>
      <trkpt lat="45.61319" lon="6.77287">
        <ele>798.4</ele>
        <time>2021-05-28T10:40:08Z</time>
      </trkpt>
      <trkpt lat="45.61312" lon="6.77287">
        <ele>799.4</ele>
        <time>2021-05-28T10:40:09Z</time>
      </trkpt>
      <trkpt lat="45.61305" lon="6.77287">
        <ele>800.2</ele>
        <time>2021-05-28T10:40:10Z</time>
      </trkpt>
      <trkpt lat="45.61298" lon="6.77287">
        <ele>800.8</ele>
        <time>2021-05-28T10:40:11Z</time>
      </trkpt>
      <trkpt lat="45.6129" lon="6.77288">
        <ele>801</ele>
        <time>2021-05-28T10:40:12Z</time>
      </trkpt>
      <trkpt lat="45.61282" lon="6.77291">
        <ele>801</ele>
        <time>2021-05-28T10:40:13Z</time>
      </trkpt>
      <trkpt lat="45.61274" lon="6.77295">
        <ele>801</ele>
        <time>2021-05-28T10:40:14Z</time>
      </trkpt>
      <trkpt lat="45.61265" lon="6.77298">
        <ele>800.8</ele>
        <time>2021-05-28T10:40:15Z</time>
      </trkpt>
      <trkpt lat="45.61257" lon="6.773">
        <ele>800.6</ele>
        <time>2021-05-28T10:40:16Z</time>
      </trkpt>
      <trkpt lat="45.6125" lon="6.77299">
        <ele>800.4</ele>
        <time>2021-05-28T10:40:17Z</time>
      </trkpt>
      <trkpt lat="45.61244" lon="6.77297">
        <ele>799.8</ele>
        <time>2021-05-28T10:40:18Z</time>
      </trkpt>
      <trkpt lat="45.61238" lon="6.77296">
        <ele>799</ele>
        <time>2021-05-28T10:40:19Z</time>
      </trkpt>
      <trkpt lat="45.61234" lon="6.77296">
        <ele>798.6</ele>
        <time>2021-05-28T10:40:20Z</time>
      </trkpt>
      <trkpt lat="45.61229" lon="6.773">
        <ele>798.4</ele>
        <time>2021-05-28T10:40:21Z</time>
      </trkpt>
      <trkpt lat="45.61225" lon="6.77304">
        <ele>798</ele>
        <time>2021-05-28T10:40:22Z</time>
      </trkpt>
      <trkpt lat="45.6122" lon="6.77309">
        <ele>798</ele>
        <time>2021-05-28T10:40:23Z</time>
      </trkpt>
      <trkpt lat="45.61216" lon="6.77312">
        <ele>798.2</ele>
        <time>2021-05-28T10:40:24Z</time>
      </trkpt>
      <trkpt lat="45.61211" lon="6.77315">
        <ele>798.4</ele>
        <time>2021-05-28T10:40:25Z</time>
      </trkpt>
      <trkpt lat="45.61205" lon="6.77317">
        <ele>798.6</ele>
        <time>2021-05-28T10:40:26Z</time>
      </trkpt>
      <trkpt lat="45.612" lon="6.77318">
        <ele>799.2</ele>
        <time>2021-05-28T10:40:27Z</time>
      </trkpt>
      <trkpt lat="45.61194" lon="6.77319">
        <ele>799.6</ele>
        <time>2021-05-28T10:40:28Z</time>
      </trkpt>
      <trkpt lat="45.61189" lon="6.77319">
        <ele>800</ele>
        <time>2021-05-28T10:40:29Z</time>
      </trkpt>
      <trkpt lat="45.61183" lon="6.7732">
        <ele>800</ele>
        <time>2021-05-28T10:40:30Z</time>
      </trkpt>
      <trkpt lat="45.61178" lon="6.77319">
        <ele>800.2</ele>
        <time>2021-05-28T10:40:31Z</time>
      </trkpt>
      <trkpt lat="45.61173" lon="6.77317">
        <ele>800.2</ele>
        <time>2021-05-28T10:40:32Z</time>
      </trkpt>
      <trkpt lat="45.61168" lon="6.77314">
        <ele>800.2</ele>
        <time>2021-05-28T10:40:33Z</time>
      </trkpt>
      <trkpt lat="45.61163" lon="6.77311">
        <ele>800</ele>
        <time>2021-05-28T10:40:34Z</time>
      </trkpt>
      <trkpt lat="45.61158" lon="6.77309">
        <ele>799.6</ele>
        <time>2021-05-28T10:40:35Z</time>
      </trkpt>
      <trkpt lat="45.61154" lon="6.77308">
        <ele>799.2</ele>
        <time>2021-05-28T10:40:36Z</time>
      </trkpt>
      <trkpt lat="45.6115" lon="6.77308">
        <ele>799.4</ele>
        <time>2021-05-28T10:40:37Z</time>
      </trkpt>
      <trkpt lat="45.61146" lon="6.77306">
        <ele>799.2</ele>
        <time>2021-05-28T10:40:38Z</time>
      </trkpt>
      <trkpt lat="45.61142" lon="6.77303">
        <ele>798.6</ele>
        <time>2021-05-28T10:40:39Z</time>
      </trkpt>
      <trkpt lat="45.61139" lon="6.77299">
        <ele>798.2</ele>
        <time>2021-05-28T10:40:40Z</time>
      </trkpt>
      <trkpt lat="45.61136" lon="6.77295">
        <ele>798</ele>
        <time>2021-05-28T10:40:41Z</time>
      </trkpt>
      <trkpt lat="45.61132" lon="6.7729">
        <ele>798</ele>
        <time>2021-05-28T10:40:42Z</time>
      </trkpt>
      <trkpt lat="45.61129" lon="6.77286">
        <ele>797.8</ele>
        <time>2021-05-28T10:40:43Z</time>
      </trkpt>
      <trkpt lat="45.61125" lon="6.77282">
        <ele>797.8</ele>
        <time>2021-05-28T10:40:44Z</time>
      </trkpt>
      <trkpt lat="45.61121" lon="6.77277">
        <ele>797.8</ele>
        <time>2021-05-28T10:40:45Z</time>
      </trkpt>
      <trkpt lat="45.61117" lon="6.77273">
        <ele>797.8</ele>
        <time>2021-05-28T10:40:46Z</time>
      </trkpt>
      <trkpt lat="45.61113" lon="6.77268">
        <ele>797.8</ele>
        <time>2021-05-28T10:40:47Z</time>
      </trkpt>
      <trkpt lat="45.61109" lon="6.77263">
        <ele>798</ele>
        <time>2021-05-28T10:40:48Z</time>
      </trkpt>
      <trkpt lat="45.61104" lon="6.77259">
        <ele>797.8</ele>
        <time>2021-05-28T10:40:49Z</time>
      </trkpt>
      <trkpt lat="45.611" lon="6.77255">
        <ele>797.6</ele>
        <time>2021-05-28T10:40:50Z</time>
      </trkpt>
      <trkpt lat="45.61095" lon="6.77251">
        <ele>797.4</ele>
        <time>2021-05-28T10:40:51Z</time>
      </trkpt>
      <trkpt lat="45.61089" lon="6.77247">
        <ele>797.2</ele>
        <time>2021-05-28T10:40:52Z</time>
      </trkpt>
      <trkpt lat="45.61084" lon="6.77244">
        <ele>797</ele>
        <time>2021-05-28T10:40:53Z</time>
      </trkpt>
      <trkpt lat="45.61079" lon="6.7724">
        <ele>796.8</ele>
        <time>2021-05-28T10:40:54Z</time>
      </trkpt>
      <trkpt lat="45.61074" lon="6.77235">
        <ele>796.6</ele>
        <time>2021-05-28T10:40:55Z</time>
      </trkpt>
      <trkpt lat="45.61068" lon="6.77231">
        <ele>796.4</ele>
        <time>2021-05-28T10:40:56Z</time>
      </trkpt>
      <trkpt lat="45.61063" lon="6.77227">
        <ele>796.4</ele>
        <time>2021-05-28T10:40:57Z</time>
      </trkpt>
      <trkpt lat="45.61058" lon="6.77224">
        <ele>796.4</ele>
        <time>2021-05-28T10:40:58Z</time>
      </trkpt>
      <trkpt lat="45.61053" lon="6.77221">
        <ele>796.6</ele>
        <time>2021-05-28T10:40:59Z</time>
      </trkpt>
      <trkpt lat="45.61047" lon="6.77218">
        <ele>796.8</ele>
        <time>2021-05-28T10:41:00Z</time>
      </trkpt>
      <trkpt lat="45.61042" lon="6.77214">
        <ele>797</ele>
        <time>2021-05-28T10:41:01Z</time>
      </trkpt>
      <trkpt lat="45.61037" lon="6.77211">
        <ele>796.8</ele>
        <time>2021-05-28T10:41:02Z</time>
      </trkpt>
      <trkpt lat="45.61031" lon="6.77208">
        <ele>796.8</ele>
        <time>2021-05-28T10:41:03Z</time>
      </trkpt>
      <trkpt lat="45.61024" lon="6.77205">
        <ele>796.6</ele>
        <time>2021-05-28T10:41:04Z</time>
      </trkpt>
      <trkpt lat="45.61018" lon="6.77203">
        <ele>796.8</ele>
        <time>2021-05-28T10:41:05Z</time>
      </trkpt>
      <trkpt lat="45.61012" lon="6.77201">
        <ele>796.6</ele>
        <time>2021-05-28T10:41:06Z</time>
      </trkpt>
      <trkpt lat="45.61006" lon="6.772">
        <ele>797</ele>
        <time>2021-05-28T10:41:07Z</time>
      </trkpt>
      <trkpt lat="45.60999" lon="6.77199">
        <ele>796.8</ele>
        <time>2021-05-28T10:41:08Z</time>
      </trkpt>
      <trkpt lat="45.60992" lon="6.77198">
        <ele>798</ele>
        <time>2021-05-28T10:41:09Z</time>
      </trkpt>
      <trkpt lat="45.60985" lon="6.77196">
        <ele>798.8</ele>
        <time>2021-05-28T10:41:10Z</time>
      </trkpt>
      <trkpt lat="45.60978" lon="6.77194">
        <ele>799.6</ele>
        <time>2021-05-28T10:41:11Z</time>
      </trkpt>
      <trkpt lat="45.60972" lon="6.77192">
        <ele>800</ele>
        <time>2021-05-28T10:41:12Z</time>
      </trkpt>
      <trkpt lat="45.60965" lon="6.77189">
        <ele>800.2</ele>
        <time>2021-05-28T10:41:13Z</time>
      </trkpt>
      <trkpt lat="45.60958" lon="6.77187">
        <ele>800.6</ele>
        <time>2021-05-28T10:41:14Z</time>
      </trkpt>
      <trkpt lat="45.60952" lon="6.77184">
        <ele>800.6</ele>
        <time>2021-05-28T10:41:15Z</time>
      </trkpt>
      <trkpt lat="45.60946" lon="6.77182">
        <ele>800.8</ele>
        <time>2021-05-28T10:41:16Z</time>
      </trkpt>
      <trkpt lat="45.6094" lon="6.77179">
        <ele>800.8</ele>
        <time>2021-05-28T10:41:17Z</time>
      </trkpt>
      <trkpt lat="45.60932" lon="6.77177">
        <ele>800.8</ele>
        <time>2021-05-28T10:41:18Z</time>
      </trkpt>
      <trkpt lat="45.60926" lon="6.77174">
        <ele>800.8</ele>
        <time>2021-05-28T10:41:19Z</time>
      </trkpt>
      <trkpt lat="45.60919" lon="6.77172">
        <ele>800.6</ele>
        <time>2021-05-28T10:41:20Z</time>
      </trkpt>
      <trkpt lat="45.60912" lon="6.7717">
        <ele>800.6</ele>
        <time>2021-05-28T10:41:21Z</time>
      </trkpt>
      <trkpt lat="45.60905" lon="6.77167">
        <ele>800.4</ele>
        <time>2021-05-28T10:41:22Z</time>
      </trkpt>
      <trkpt lat="45.60897" lon="6.77164">
        <ele>800.4</ele>
        <time>2021-05-28T10:41:23Z</time>
      </trkpt>
      <trkpt lat="45.60889" lon="6.77162">
        <ele>799.8</ele>
        <time>2021-05-28T10:41:24Z</time>
      </trkpt>
      <trkpt lat="45.60881" lon="6.77159">
        <ele>799.2</ele>
        <time>2021-05-28T10:41:25Z</time>
      </trkpt>
      <trkpt lat="45.60873" lon="6.77156">
        <ele>798.8</ele>
        <time>2021-05-28T10:41:26Z</time>
      </trkpt>
      <trkpt lat="45.60866" lon="6.77154">
        <ele>798.6</ele>
        <time>2021-05-28T10:41:27Z</time>
      </trkpt>
      <trkpt lat="45.60858" lon="6.77152">
        <ele>798.6</ele>
        <time>2021-05-28T10:41:28Z</time>
      </trkpt>
      <trkpt lat="45.60851" lon="6.7715">
        <ele>798.4</ele>
        <time>2021-05-28T10:41:29Z</time>
      </trkpt>
      <trkpt lat="45.60843" lon="6.77148">
        <ele>798.4</ele>
        <time>2021-05-28T10:41:30Z</time>
      </trkpt>
      <trkpt lat="45.60836" lon="6.77145">
        <ele>798</ele>
        <time>2021-05-28T10:41:31Z</time>
      </trkpt>
      <trkpt lat="45.60828" lon="6.77143">
        <ele>797.6</ele>
        <time>2021-05-28T10:41:32Z</time>
      </trkpt>
      <trkpt lat="45.60821" lon="6.77141">
        <ele>797.2</ele>
        <time>2021-05-28T10:41:33Z</time>
      </trkpt>
      <trkpt lat="45.60813" lon="6.77138">
        <ele>796.4</ele>
        <time>2021-05-28T10:41:34Z</time>
      </trkpt>
      <trkpt lat="45.60806" lon="6.77136">
        <ele>796.2</ele>
        <time>2021-05-28T10:41:35Z</time>
      </trkpt>
      <trkpt lat="45.60799" lon="6.77132">
        <ele>796</ele>
        <time>2021-05-28T10:41:36Z</time>
      </trkpt>
      <trkpt lat="45.60791" lon="6.77129">
        <ele>796</ele>
        <time>2021-05-28T10:41:37Z</time>
      </trkpt>
      <trkpt lat="45.60784" lon="6.77124">
        <ele>796</ele>
        <time>2021-05-28T10:41:38Z</time>
      </trkpt>
      <trkpt lat="45.60777" lon="6.7712">
        <ele>795.8</ele>
        <time>2021-05-28T10:41:39Z</time>
      </trkpt>
      <trkpt lat="45.60771" lon="6.77115">
        <ele>796</ele>
        <time>2021-05-28T10:41:40Z</time>
      </trkpt>
      <trkpt lat="45.60763" lon="6.7711">
        <ele>795.8</ele>
        <time>2021-05-28T10:41:41Z</time>
      </trkpt>
      <trkpt lat="45.60756" lon="6.77104">
        <ele>795.6</ele>
        <time>2021-05-28T10:41:42Z</time>
      </trkpt>
      <trkpt lat="45.60749" lon="6.77099">
        <ele>795.4</ele>
        <time>2021-05-28T10:41:43Z</time>
      </trkpt>
      <trkpt lat="45.60742" lon="6.77095">
        <ele>795.2</ele>
        <time>2021-05-28T10:41:44Z</time>
      </trkpt>
      <trkpt lat="45.60735" lon="6.7709">
        <ele>795.2</ele>
        <time>2021-05-28T10:41:45Z</time>
      </trkpt>
      <trkpt lat="45.60728" lon="6.77086">
        <ele>794.8</ele>
        <time>2021-05-28T10:41:46Z</time>
      </trkpt>
      <trkpt lat="45.60721" lon="6.77082">
        <ele>794.6</ele>
        <time>2021-05-28T10:41:47Z</time>
      </trkpt>
      <trkpt lat="45.60713" lon="6.77078">
        <ele>794.2</ele>
        <time>2021-05-28T10:41:48Z</time>
      </trkpt>
      <trkpt lat="45.60706" lon="6.77074">
        <ele>794</ele>
        <time>2021-05-28T10:41:49Z</time>
      </trkpt>
      <trkpt lat="45.60698" lon="6.77071">
        <ele>793.8</ele>
        <time>2021-05-28T10:41:50Z</time>
      </trkpt>
      <trkpt lat="45.60692" lon="6.77068">
        <ele>793.6</ele>
        <time>2021-05-28T10:41:51Z</time>
      </trkpt>
      <trkpt lat="45.60684" lon="6.77066">
        <ele>793.2</ele>
        <time>2021-05-28T10:41:52Z</time>
      </trkpt>
      <trkpt lat="45.60677" lon="6.77063">
        <ele>793.4</ele>
        <time>2021-05-28T10:41:53Z</time>
      </trkpt>
      <trkpt lat="45.60671" lon="6.77061">
        <ele>793.4</ele>
        <time>2021-05-28T10:41:54Z</time>
      </trkpt>
      <trkpt lat="45.60664" lon="6.77058">
        <ele>793.4</ele>
        <time>2021-05-28T10:41:55Z</time>
      </trkpt>
      <trkpt lat="45.60658" lon="6.77056">
        <ele>793.4</ele>
        <time>2021-05-28T10:41:56Z</time>
      </trkpt>
      <trkpt lat="45.60652" lon="6.77053">
        <ele>793.2</ele>
        <time>2021-05-28T10:41:57Z</time>
      </trkpt>
      <trkpt lat="45.60648" lon="6.7705">
        <ele>793</ele>
        <time>2021-05-28T10:41:58Z</time>
      </trkpt>
      <trkpt lat="45.60643" lon="6.77048">
        <ele>792.8</ele>
        <time>2021-05-28T10:41:59Z</time>
      </trkpt>
      <trkpt lat="45.6064" lon="6.77046">
        <ele>792.4</ele>
        <time>2021-05-28T10:42:00Z</time>
      </trkpt>
      <trkpt lat="45.60637" lon="6.77042">
        <ele>792</ele>
        <time>2021-05-28T10:42:01Z</time>
      </trkpt>
      <trkpt lat="45.60634" lon="6.77038">
        <ele>791.6</ele>
        <time>2021-05-28T10:42:02Z</time>
      </trkpt>
      <trkpt lat="45.6063" lon="6.77034">
        <ele>791.4</ele>
        <time>2021-05-28T10:42:03Z</time>
      </trkpt>
      <trkpt lat="45.60627" lon="6.7703">
        <ele>791.4</ele>
        <time>2021-05-28T10:42:04Z</time>
      </trkpt>
      <trkpt lat="45.60623" lon="6.77026">
        <ele>791.2</ele>
        <time>2021-05-28T10:42:05Z</time>
      </trkpt>
      <trkpt lat="45.60619" lon="6.77021">
        <ele>791.2</ele>
        <time>2021-05-28T10:42:06Z</time>
      </trkpt>
      <trkpt lat="45.60616" lon="6.77015">
        <ele>791</ele>
        <time>2021-05-28T10:42:07Z</time>
      </trkpt>
      <trkpt lat="45.60612" lon="6.7701">
        <ele>791</ele>
        <time>2021-05-28T10:42:08Z</time>
      </trkpt>
      <trkpt lat="45.60609" lon="6.77004">
        <ele>790.8</ele>
        <time>2021-05-28T10:42:09Z</time>
      </trkpt>
      <trkpt lat="45.60605" lon="6.77">
        <ele>790.8</ele>
        <time>2021-05-28T10:42:10Z</time>
      </trkpt>
      <trkpt lat="45.60602" lon="6.76997">
        <ele>790.4</ele>
        <time>2021-05-28T10:42:11Z</time>
      </trkpt>
      <trkpt lat="45.60598" lon="6.76994">
        <ele>790.2</ele>
        <time>2021-05-28T10:42:12Z</time>
      </trkpt>
      <trkpt lat="45.60593" lon="6.76992">
        <ele>790.2</ele>
        <time>2021-05-28T10:42:13Z</time>
      </trkpt>
      <trkpt lat="45.60588" lon="6.7699">
        <ele>790</ele>
        <time>2021-05-28T10:42:14Z</time>
      </trkpt>
      <trkpt lat="45.60581" lon="6.76988">
        <ele>789.8</ele>
        <time>2021-05-28T10:42:15Z</time>
      </trkpt>
      <trkpt lat="45.60574" lon="6.76984">
        <ele>789.2</ele>
        <time>2021-05-28T10:42:16Z</time>
      </trkpt>
      <trkpt lat="45.60567" lon="6.7698">
        <ele>788.6</ele>
        <time>2021-05-28T10:42:17Z</time>
      </trkpt>
      <trkpt lat="45.60559" lon="6.76974">
        <ele>788</ele>
        <time>2021-05-28T10:42:18Z</time>
      </trkpt>
      <trkpt lat="45.60552" lon="6.76966">
        <ele>787.4</ele>
        <time>2021-05-28T10:42:19Z</time>
      </trkpt>
      <trkpt lat="45.60546" lon="6.76958">
        <ele>786.8</ele>
        <time>2021-05-28T10:42:20Z</time>
      </trkpt>
      <trkpt lat="45.6054" lon="6.76949">
        <ele>786.4</ele>
        <time>2021-05-28T10:42:21Z</time>
      </trkpt>
      <trkpt lat="45.60534" lon="6.76939">
        <ele>786.2</ele>
        <time>2021-05-28T10:42:22Z</time>
      </trkpt>
      <trkpt lat="45.60529" lon="6.76928">
        <ele>786.2</ele>
        <time>2021-05-28T10:42:23Z</time>
      </trkpt>
      <trkpt lat="45.60525" lon="6.76916">
        <ele>786</ele>
        <time>2021-05-28T10:42:24Z</time>
      </trkpt>
      <trkpt lat="45.60522" lon="6.76905">
        <ele>786.2</ele>
        <time>2021-05-28T10:42:25Z</time>
      </trkpt>
      <trkpt lat="45.60518" lon="6.76893">
        <ele>786</ele>
        <time>2021-05-28T10:42:26Z</time>
      </trkpt>
      <trkpt lat="45.60514" lon="6.76882">
        <ele>785.8</ele>
        <time>2021-05-28T10:42:27Z</time>
      </trkpt>
      <trkpt lat="45.60509" lon="6.76871">
        <ele>785.8</ele>
        <time>2021-05-28T10:42:28Z</time>
      </trkpt>
      <trkpt lat="45.60504" lon="6.76861">
        <ele>786</ele>
        <time>2021-05-28T10:42:29Z</time>
      </trkpt>
      <trkpt lat="45.60498" lon="6.76852">
        <ele>785.4</ele>
        <time>2021-05-28T10:42:30Z</time>
      </trkpt>
      <trkpt lat="45.60491" lon="6.76844">
        <ele>785.6</ele>
        <time>2021-05-28T10:42:31Z</time>
      </trkpt>
      <trkpt lat="45.60484" lon="6.76836">
        <ele>785.6</ele>
        <time>2021-05-28T10:42:32Z</time>
      </trkpt>
      <trkpt lat="45.60478" lon="6.76829">
        <ele>786</ele>
        <time>2021-05-28T10:42:33Z</time>
      </trkpt>
      <trkpt lat="45.60471" lon="6.76821">
        <ele>786.2</ele>
        <time>2021-05-28T10:42:34Z</time>
      </trkpt>
      <trkpt lat="45.60465" lon="6.76814">
        <ele>786.2</ele>
        <time>2021-05-28T10:42:35Z</time>
      </trkpt>
      <trkpt lat="45.60458" lon="6.76806">
        <ele>785.6</ele>
        <time>2021-05-28T10:42:36Z</time>
      </trkpt>
      <trkpt lat="45.60452" lon="6.76798">
        <ele>785.2</ele>
        <time>2021-05-28T10:42:37Z</time>
      </trkpt>
      <trkpt lat="45.60445" lon="6.76791">
        <ele>785</ele>
        <time>2021-05-28T10:42:38Z</time>
      </trkpt>
      <trkpt lat="45.60438" lon="6.76784">
        <ele>785</ele>
        <time>2021-05-28T10:42:39Z</time>
      </trkpt>
      <trkpt lat="45.60431" lon="6.76777">
        <ele>784.8</ele>
        <time>2021-05-28T10:42:40Z</time>
      </trkpt>
      <trkpt lat="45.60424" lon="6.76771">
        <ele>784.6</ele>
        <time>2021-05-28T10:42:41Z</time>
      </trkpt>
      <trkpt lat="45.60417" lon="6.76765">
        <ele>784.6</ele>
        <time>2021-05-28T10:42:42Z</time>
      </trkpt>
      <trkpt lat="45.6041" lon="6.76759">
        <ele>784.4</ele>
        <time>2021-05-28T10:42:43Z</time>
      </trkpt>
      <trkpt lat="45.60404" lon="6.76754">
        <ele>784.2</ele>
        <time>2021-05-28T10:42:44Z</time>
      </trkpt>
      <trkpt lat="45.60397" lon="6.76748">
        <ele>784</ele>
        <time>2021-05-28T10:42:45Z</time>
      </trkpt>
      <trkpt lat="45.60391" lon="6.7674">
        <ele>784</ele>
        <time>2021-05-28T10:42:46Z</time>
      </trkpt>
      <trkpt lat="45.60386" lon="6.76732">
        <ele>783.8</ele>
        <time>2021-05-28T10:42:47Z</time>
      </trkpt>
      <trkpt lat="45.60381" lon="6.76724">
        <ele>784</ele>
        <time>2021-05-28T10:42:48Z</time>
      </trkpt>
      <trkpt lat="45.60378" lon="6.76716">
        <ele>784</ele>
        <time>2021-05-28T10:42:49Z</time>
      </trkpt>
      <trkpt lat="45.60375" lon="6.76708">
        <ele>783.8</ele>
        <time>2021-05-28T10:42:50Z</time>
      </trkpt>
      <trkpt lat="45.60372" lon="6.76701">
        <ele>784.2</ele>
        <time>2021-05-28T10:42:51Z</time>
      </trkpt>
      <trkpt lat="45.6037" lon="6.76694">
        <ele>784.4</ele>
        <time>2021-05-28T10:42:52Z</time>
      </trkpt>
      <trkpt lat="45.60366" lon="6.76688">
        <ele>785</ele>
        <time>2021-05-28T10:42:53Z</time>
      </trkpt>
      <trkpt lat="45.60363" lon="6.76681">
        <ele>785.2</ele>
        <time>2021-05-28T10:42:54Z</time>
      </trkpt>
      <trkpt lat="45.60359" lon="6.76675">
        <ele>785.6</ele>
        <time>2021-05-28T10:42:55Z</time>
      </trkpt>
      <trkpt lat="45.60355" lon="6.76668">
        <ele>785.8</ele>
        <time>2021-05-28T10:42:56Z</time>
      </trkpt>
      <trkpt lat="45.6035" lon="6.76662">
        <ele>785.8</ele>
        <time>2021-05-28T10:42:57Z</time>
      </trkpt>
      <trkpt lat="45.60345" lon="6.76655">
        <ele>785.6</ele>
        <time>2021-05-28T10:42:58Z</time>
      </trkpt>
      <trkpt lat="45.6034" lon="6.76649">
        <ele>785.4</ele>
        <time>2021-05-28T10:42:59Z</time>
      </trkpt>
      <trkpt lat="45.60334" lon="6.76643">
        <ele>785.2</ele>
        <time>2021-05-28T10:43:00Z</time>
      </trkpt>
      <trkpt lat="45.60329" lon="6.76637">
        <ele>784.8</ele>
        <time>2021-05-28T10:43:01Z</time>
      </trkpt>
      <trkpt lat="45.60324" lon="6.76631">
        <ele>784.4</ele>
        <time>2021-05-28T10:43:02Z</time>
      </trkpt>
      <trkpt lat="45.60319" lon="6.76625">
        <ele>783.8</ele>
        <time>2021-05-28T10:43:03Z</time>
      </trkpt>
      <trkpt lat="45.60315" lon="6.7662">
        <ele>783.2</ele>
        <time>2021-05-28T10:43:04Z</time>
      </trkpt>
      <trkpt lat="45.60311" lon="6.76616">
        <ele>782.6</ele>
        <time>2021-05-28T10:43:05Z</time>
      </trkpt>
      <trkpt lat="45.60307" lon="6.76613">
        <ele>781.8</ele>
        <time>2021-05-28T10:43:06Z</time>
      </trkpt>
      <trkpt lat="45.60301" lon="6.76612">
        <ele>781.6</ele>
        <time>2021-05-28T10:43:07Z</time>
      </trkpt>
      <trkpt lat="45.60297" lon="6.76614">
        <ele>781.2</ele>
        <time>2021-05-28T10:43:08Z</time>
      </trkpt>
      <trkpt lat="45.60294" lon="6.7662">
        <ele>781.2</ele>
        <time>2021-05-28T10:43:09Z</time>
      </trkpt>
      <trkpt lat="45.60291" lon="6.76626">
        <ele>781</ele>
        <time>2021-05-28T10:43:10Z</time>
      </trkpt>
      <trkpt lat="45.60287" lon="6.76632">
        <ele>780.8</ele>
        <time>2021-05-28T10:43:11Z</time>
      </trkpt>
      <trkpt lat="45.60285" lon="6.76638">
        <ele>780.8</ele>
        <time>2021-05-28T10:43:12Z</time>
      </trkpt>
      <trkpt lat="45.60282" lon="6.76644">
        <ele>780.6</ele>
        <time>2021-05-28T10:43:13Z</time>
      </trkpt>
      <trkpt lat="45.60279" lon="6.76651">
        <ele>780.8</ele>
        <time>2021-05-28T10:43:14Z</time>
      </trkpt>
      <trkpt lat="45.60276" lon="6.76657">
        <ele>780.8</ele>
        <time>2021-05-28T10:43:15Z</time>
      </trkpt>
      <trkpt lat="45.60274" lon="6.76664">
        <ele>780.6</ele>
        <time>2021-05-28T10:43:16Z</time>
      </trkpt>
      <trkpt lat="45.60272" lon="6.7667">
        <ele>780.4</ele>
        <time>2021-05-28T10:43:17Z</time>
      </trkpt>
      <trkpt lat="45.60272" lon="6.76674">
        <ele>779.8</ele>
        <time>2021-05-28T10:43:18Z</time>
      </trkpt>
      <trkpt lat="45.60273" lon="6.76679">
        <ele>779.6</ele>
        <time>2021-05-28T10:43:19Z</time>
      </trkpt>
      <trkpt lat="45.60275" lon="6.76682">
        <ele>779.6</ele>
        <time>2021-05-28T10:43:20Z</time>
      </trkpt>
      <trkpt lat="45.60279" lon="6.76686">
        <ele>779.4</ele>
        <time>2021-05-28T10:43:21Z</time>
      </trkpt>
      <trkpt lat="45.60284" lon="6.76688">
        <ele>779.2</ele>
        <time>2021-05-28T10:43:22Z</time>
      </trkpt>
      <trkpt lat="45.60289" lon="6.76691">
        <ele>778.8</ele>
        <time>2021-05-28T10:43:23Z</time>
      </trkpt>
      <trkpt lat="45.60292" lon="6.76694">
        <ele>778.6</ele>
        <time>2021-05-28T10:43:24Z</time>
      </trkpt>
      <trkpt lat="45.60295" lon="6.76698">
        <ele>778.4</ele>
        <time>2021-05-28T10:43:25Z</time>
      </trkpt>
      <trkpt lat="45.60297" lon="6.76699">
        <ele>778</ele>
        <time>2021-05-28T10:43:26Z</time>
      </trkpt>
      <trkpt lat="45.60295" lon="6.76699">
        <ele>777.2</ele>
        <time>2021-05-28T10:43:29Z</time>
      </trkpt>
      <trkpt lat="45.60291" lon="6.76697">
        <ele>777</ele>
        <time>2021-05-28T10:43:31Z</time>
      </trkpt>
      <trkpt lat="45.60289" lon="6.76695">
        <ele>776.8</ele>
        <time>2021-05-28T10:43:32Z</time>
      </trkpt>
      <trkpt lat="45.60285" lon="6.76694">
        <ele>776.4</ele>
        <time>2021-05-28T10:43:33Z</time>
      </trkpt>
      <trkpt lat="45.60281" lon="6.76691">
        <ele>776.2</ele>
        <time>2021-05-28T10:43:34Z</time>
      </trkpt>
      <trkpt lat="45.60277" lon="6.76689">
        <ele>775.8</ele>
        <time>2021-05-28T10:43:35Z</time>
      </trkpt>
      <trkpt lat="45.60273" lon="6.76686">
        <ele>775.4</ele>
        <time>2021-05-28T10:43:36Z</time>
      </trkpt>
      <trkpt lat="45.60232" lon="6.76658">
        <ele>774.8</ele>
        <time>2021-05-28T10:43:42Z</time>
      </trkpt>
      <trkpt lat="45.60228" lon="6.76655">
        <ele>775</ele>
        <time>2021-05-28T10:43:43Z</time>
      </trkpt>
      <trkpt lat="45.60221" lon="6.76653">
        <ele>775.2</ele>
        <time>2021-05-28T10:43:44Z</time>
      </trkpt>
      <trkpt lat="45.60216" lon="6.76649">
        <ele>775.2</ele>
        <time>2021-05-28T10:43:45Z</time>
      </trkpt>
      <trkpt lat="45.60208" lon="6.76643">
        <ele>774.6</ele>
        <time>2021-05-28T10:43:46Z</time>
      </trkpt>
      <trkpt lat="45.60202" lon="6.7664">
        <ele>774</ele>
        <time>2021-05-28T10:43:47Z</time>
      </trkpt>
      <trkpt lat="45.60195" lon="6.76636">
        <ele>773.8</ele>
        <time>2021-05-28T10:43:48Z</time>
      </trkpt>
      <trkpt lat="45.60188" lon="6.76631">
        <ele>773.4</ele>
        <time>2021-05-28T10:43:49Z</time>
      </trkpt>
      <trkpt lat="45.60181" lon="6.76625">
        <ele>773.2</ele>
        <time>2021-05-28T10:43:50Z</time>
      </trkpt>
      <trkpt lat="45.60176" lon="6.76619">
        <ele>773</ele>
        <time>2021-05-28T10:43:51Z</time>
      </trkpt>
      <trkpt lat="45.6017" lon="6.76612">
        <ele>773.4</ele>
        <time>2021-05-28T10:43:52Z</time>
      </trkpt>
      <trkpt lat="45.60166" lon="6.76605">
        <ele>774</ele>
        <time>2021-05-28T10:43:53Z</time>
      </trkpt>
      <trkpt lat="45.60163" lon="6.76598">
        <ele>774.2</ele>
        <time>2021-05-28T10:43:54Z</time>
      </trkpt>
      <trkpt lat="45.6016" lon="6.76591">
        <ele>774.6</ele>
        <time>2021-05-28T10:43:55Z</time>
      </trkpt>
      <trkpt lat="45.60158" lon="6.76583">
        <ele>775</ele>
        <time>2021-05-28T10:43:56Z</time>
      </trkpt>
      <trkpt lat="45.60155" lon="6.76574">
        <ele>775.4</ele>
        <time>2021-05-28T10:43:57Z</time>
      </trkpt>
      <trkpt lat="45.6015" lon="6.76567">
        <ele>775.8</ele>
        <time>2021-05-28T10:43:58Z</time>
      </trkpt>
      <trkpt lat="45.60146" lon="6.76559">
        <ele>776</ele>
        <time>2021-05-28T10:43:59Z</time>
      </trkpt>
      <trkpt lat="45.60142" lon="6.76552">
        <ele>776.4</ele>
        <time>2021-05-28T10:44:00Z</time>
      </trkpt>
      <trkpt lat="45.60137" lon="6.76545">
        <ele>776.6</ele>
        <time>2021-05-28T10:44:01Z</time>
      </trkpt>
      <trkpt lat="45.60132" lon="6.76538">
        <ele>777.8</ele>
        <time>2021-05-28T10:44:02Z</time>
      </trkpt>
      <trkpt lat="45.60128" lon="6.7653">
        <ele>778.6</ele>
        <time>2021-05-28T10:44:03Z</time>
      </trkpt>
      <trkpt lat="45.60123" lon="6.76523">
        <ele>779.2</ele>
        <time>2021-05-28T10:44:04Z</time>
      </trkpt>
      <trkpt lat="45.60118" lon="6.76515">
        <ele>779.6</ele>
        <time>2021-05-28T10:44:05Z</time>
      </trkpt>
      <trkpt lat="45.60113" lon="6.76506">
        <ele>779.6</ele>
        <time>2021-05-28T10:44:06Z</time>
      </trkpt>
      <trkpt lat="45.60108" lon="6.76497">
        <ele>779.4</ele>
        <time>2021-05-28T10:44:07Z</time>
      </trkpt>
      <trkpt lat="45.60102" lon="6.76488">
        <ele>779.6</ele>
        <time>2021-05-28T10:44:08Z</time>
      </trkpt>
      <trkpt lat="45.60097" lon="6.76478">
        <ele>779.4</ele>
        <time>2021-05-28T10:44:09Z</time>
      </trkpt>
      <trkpt lat="45.60092" lon="6.76468">
        <ele>779.2</ele>
        <time>2021-05-28T10:44:10Z</time>
      </trkpt>
      <trkpt lat="45.6009" lon="6.76456">
        <ele>779.2</ele>
        <time>2021-05-28T10:44:11Z</time>
      </trkpt>
      <trkpt lat="45.60089" lon="6.76444">
        <ele>779</ele>
        <time>2021-05-28T10:44:12Z</time>
      </trkpt>
      <trkpt lat="45.60087" lon="6.76433">
        <ele>778.8</ele>
        <time>2021-05-28T10:44:13Z</time>
      </trkpt>
      <trkpt lat="45.60086" lon="6.76421">
        <ele>778.4</ele>
        <time>2021-05-28T10:44:14Z</time>
      </trkpt>
      <trkpt lat="45.60084" lon="6.76409">
        <ele>778</ele>
        <time>2021-05-28T10:44:15Z</time>
      </trkpt>
      <trkpt lat="45.60083" lon="6.76397">
        <ele>777.6</ele>
        <time>2021-05-28T10:44:16Z</time>
      </trkpt>
      <trkpt lat="45.60082" lon="6.76385">
        <ele>777.4</ele>
        <time>2021-05-28T10:44:17Z</time>
      </trkpt>
      <trkpt lat="45.60082" lon="6.76372">
        <ele>777</ele>
        <time>2021-05-28T10:44:18Z</time>
      </trkpt>
      <trkpt lat="45.60083" lon="6.7636">
        <ele>776.6</ele>
        <time>2021-05-28T10:44:19Z</time>
      </trkpt>
      <trkpt lat="45.60083" lon="6.76348">
        <ele>776</ele>
        <time>2021-05-28T10:44:20Z</time>
      </trkpt>
      <trkpt lat="45.60082" lon="6.76336">
        <ele>775.8</ele>
        <time>2021-05-28T10:44:21Z</time>
      </trkpt>
      <trkpt lat="45.6008" lon="6.76324">
        <ele>775.6</ele>
        <time>2021-05-28T10:44:22Z</time>
      </trkpt>
      <trkpt lat="45.6008" lon="6.76313">
        <ele>775.2</ele>
        <time>2021-05-28T10:44:23Z</time>
      </trkpt>
      <trkpt lat="45.6008" lon="6.76302">
        <ele>775</ele>
        <time>2021-05-28T10:44:24Z</time>
      </trkpt>
      <trkpt lat="45.60081" lon="6.7629">
        <ele>774.8</ele>
        <time>2021-05-28T10:44:25Z</time>
      </trkpt>
      <trkpt lat="45.60083" lon="6.76279">
        <ele>774.4</ele>
        <time>2021-05-28T10:44:26Z</time>
      </trkpt>
      <trkpt lat="45.60084" lon="6.76267">
        <ele>774</ele>
        <time>2021-05-28T10:44:27Z</time>
      </trkpt>
      <trkpt lat="45.60085" lon="6.76256">
        <ele>773.6</ele>
        <time>2021-05-28T10:44:28Z</time>
      </trkpt>
      <trkpt lat="45.60085" lon="6.76244">
        <ele>773</ele>
        <time>2021-05-28T10:44:29Z</time>
      </trkpt>
      <trkpt lat="45.60083" lon="6.76233">
        <ele>772.8</ele>
        <time>2021-05-28T10:44:30Z</time>
      </trkpt>
      <trkpt lat="45.60081" lon="6.76222">
        <ele>772.4</ele>
        <time>2021-05-28T10:44:31Z</time>
      </trkpt>
      <trkpt lat="45.60078" lon="6.76211">
        <ele>772</ele>
        <time>2021-05-28T10:44:32Z</time>
      </trkpt>
      <trkpt lat="45.60076" lon="6.762">
        <ele>772</ele>
        <time>2021-05-28T10:44:33Z</time>
      </trkpt>
      <trkpt lat="45.60074" lon="6.76189">
        <ele>771.6</ele>
        <time>2021-05-28T10:44:34Z</time>
      </trkpt>
      <trkpt lat="45.60073" lon="6.76178">
        <ele>771.6</ele>
        <time>2021-05-28T10:44:35Z</time>
      </trkpt>
      <trkpt lat="45.60072" lon="6.76167">
        <ele>771.4</ele>
        <time>2021-05-28T10:44:36Z</time>
      </trkpt>
      <trkpt lat="45.6007" lon="6.76156">
        <ele>771.4</ele>
        <time>2021-05-28T10:44:37Z</time>
      </trkpt>
      <trkpt lat="45.6007" lon="6.76145">
        <ele>771</ele>
        <time>2021-05-28T10:44:38Z</time>
      </trkpt>
      <trkpt lat="45.6007" lon="6.76134">
        <ele>770.6</ele>
        <time>2021-05-28T10:44:39Z</time>
      </trkpt>
      <trkpt lat="45.6007" lon="6.76122">
        <ele>770.4</ele>
        <time>2021-05-28T10:44:40Z</time>
      </trkpt>
      <trkpt lat="45.60071" lon="6.7611">
        <ele>770.2</ele>
        <time>2021-05-28T10:44:41Z</time>
      </trkpt>
      <trkpt lat="45.60071" lon="6.76098">
        <ele>769.6</ele>
        <time>2021-05-28T10:44:42Z</time>
      </trkpt>
      <trkpt lat="45.6007" lon="6.76086">
        <ele>769.2</ele>
        <time>2021-05-28T10:44:43Z</time>
      </trkpt>
      <trkpt lat="45.60068" lon="6.76075">
        <ele>769</ele>
        <time>2021-05-28T10:44:44Z</time>
      </trkpt>
      <trkpt lat="45.60066" lon="6.76064">
        <ele>769</ele>
        <time>2021-05-28T10:44:45Z</time>
      </trkpt>
      <trkpt lat="45.60062" lon="6.76055">
        <ele>769.2</ele>
        <time>2021-05-28T10:44:46Z</time>
      </trkpt>
      <trkpt lat="45.60058" lon="6.76045">
        <ele>769.6</ele>
        <time>2021-05-28T10:44:47Z</time>
      </trkpt>
      <trkpt lat="45.60054" lon="6.76036">
        <ele>769.6</ele>
        <time>2021-05-28T10:44:48Z</time>
      </trkpt>
      <trkpt lat="45.60049" lon="6.76027">
        <ele>769.8</ele>
        <time>2021-05-28T10:44:49Z</time>
      </trkpt>
      <trkpt lat="45.60043" lon="6.76019">
        <ele>769.8</ele>
        <time>2021-05-28T10:44:50Z</time>
      </trkpt>
      <trkpt lat="45.60037" lon="6.7601">
        <ele>769.6</ele>
        <time>2021-05-28T10:44:51Z</time>
      </trkpt>
      <trkpt lat="45.60031" lon="6.76003">
        <ele>769.8</ele>
        <time>2021-05-28T10:44:52Z</time>
      </trkpt>
      <trkpt lat="45.60024" lon="6.75996">
        <ele>769.8</ele>
        <time>2021-05-28T10:44:53Z</time>
      </trkpt>
      <trkpt lat="45.60018" lon="6.7599">
        <ele>769.8</ele>
        <time>2021-05-28T10:44:54Z</time>
      </trkpt>
      <trkpt lat="45.60012" lon="6.75983">
        <ele>769.8</ele>
        <time>2021-05-28T10:44:55Z</time>
      </trkpt>
      <trkpt lat="45.60005" lon="6.75976">
        <ele>769.8</ele>
        <time>2021-05-28T10:44:56Z</time>
      </trkpt>
      <trkpt lat="45.59999" lon="6.75968">
        <ele>770</ele>
        <time>2021-05-28T10:44:57Z</time>
      </trkpt>
      <trkpt lat="45.59993" lon="6.75961">
        <ele>770.2</ele>
        <time>2021-05-28T10:44:58Z</time>
      </trkpt>
      <trkpt lat="45.59987" lon="6.75955">
        <ele>770.2</ele>
        <time>2021-05-28T10:44:59Z</time>
      </trkpt>
      <trkpt lat="45.59981" lon="6.75949">
        <ele>770</ele>
        <time>2021-05-28T10:45:00Z</time>
      </trkpt>
      <trkpt lat="45.59974" lon="6.75945">
        <ele>770.2</ele>
        <time>2021-05-28T10:45:01Z</time>
      </trkpt>
      <trkpt lat="45.59968" lon="6.7594">
        <ele>770</ele>
        <time>2021-05-28T10:45:02Z</time>
      </trkpt>
      <trkpt lat="45.59962" lon="6.75935">
        <ele>769.6</ele>
        <time>2021-05-28T10:45:03Z</time>
      </trkpt>
      <trkpt lat="45.59957" lon="6.75928">
        <ele>769.8</ele>
        <time>2021-05-28T10:45:04Z</time>
      </trkpt>
      <trkpt lat="45.59955" lon="6.7592">
        <ele>769.2</ele>
        <time>2021-05-28T10:45:05Z</time>
      </trkpt>
      <trkpt lat="45.59951" lon="6.75912">
        <ele>769.2</ele>
        <time>2021-05-28T10:45:06Z</time>
      </trkpt>
      <trkpt lat="45.59946" lon="6.75903">
        <ele>768.4</ele>
        <time>2021-05-28T10:45:07Z</time>
      </trkpt>
      <trkpt lat="45.5994" lon="6.75894">
        <ele>767.6</ele>
        <time>2021-05-28T10:45:08Z</time>
      </trkpt>
      <trkpt lat="45.59933" lon="6.75887">
        <ele>767</ele>
        <time>2021-05-28T10:45:09Z</time>
      </trkpt>
      <trkpt lat="45.59927" lon="6.75882">
        <ele>766.6</ele>
        <time>2021-05-28T10:45:10Z</time>
      </trkpt>
      <trkpt lat="45.59921" lon="6.7588">
        <ele>766.4</ele>
        <time>2021-05-28T10:45:11Z</time>
      </trkpt>
      <trkpt lat="45.59914" lon="6.7588">
        <ele>766.4</ele>
        <time>2021-05-28T10:45:12Z</time>
      </trkpt>
      <trkpt lat="45.59907" lon="6.7588">
        <ele>766.4</ele>
        <time>2021-05-28T10:45:13Z</time>
      </trkpt>
      <trkpt lat="45.599" lon="6.75879">
        <ele>766.6</ele>
        <time>2021-05-28T10:45:14Z</time>
      </trkpt>
      <trkpt lat="45.59894" lon="6.75875">
        <ele>766.4</ele>
        <time>2021-05-28T10:45:15Z</time>
      </trkpt>
      <trkpt lat="45.5989" lon="6.75868">
        <ele>766.2</ele>
        <time>2021-05-28T10:45:16Z</time>
      </trkpt>
      <trkpt lat="45.59886" lon="6.75859">
        <ele>765.8</ele>
        <time>2021-05-28T10:45:17Z</time>
      </trkpt>
      <trkpt lat="45.59883" lon="6.75849">
        <ele>765.4</ele>
        <time>2021-05-28T10:45:18Z</time>
      </trkpt>
      <trkpt lat="45.59878" lon="6.75839">
        <ele>765.2</ele>
        <time>2021-05-28T10:45:19Z</time>
      </trkpt>
      <trkpt lat="45.59873" lon="6.7583">
        <ele>765</ele>
        <time>2021-05-28T10:45:20Z</time>
      </trkpt>
      <trkpt lat="45.59868" lon="6.75821">
        <ele>764.8</ele>
        <time>2021-05-28T10:45:21Z</time>
      </trkpt>
      <trkpt lat="45.59861" lon="6.75812">
        <ele>764.6</ele>
        <time>2021-05-28T10:45:22Z</time>
      </trkpt>
      <trkpt lat="45.59854" lon="6.75804">
        <ele>764.6</ele>
        <time>2021-05-28T10:45:23Z</time>
      </trkpt>
      <trkpt lat="45.59847" lon="6.75798">
        <ele>764.4</ele>
        <time>2021-05-28T10:45:24Z</time>
      </trkpt>
      <trkpt lat="45.5984" lon="6.7579">
        <ele>764.6</ele>
        <time>2021-05-28T10:45:25Z</time>
      </trkpt>
      <trkpt lat="45.59835" lon="6.7578">
        <ele>764.2</ele>
        <time>2021-05-28T10:45:26Z</time>
      </trkpt>
      <trkpt lat="45.59831" lon="6.75768">
        <ele>763.8</ele>
        <time>2021-05-28T10:45:27Z</time>
      </trkpt>
      <trkpt lat="45.59828" lon="6.75756">
        <ele>763.4</ele>
        <time>2021-05-28T10:45:28Z</time>
      </trkpt>
      <trkpt lat="45.59823" lon="6.75745">
        <ele>763.4</ele>
        <time>2021-05-28T10:45:29Z</time>
      </trkpt>
      <trkpt lat="45.59817" lon="6.75735">
        <ele>763.4</ele>
        <time>2021-05-28T10:45:30Z</time>
      </trkpt>
      <trkpt lat="45.5981" lon="6.75725">
        <ele>763.2</ele>
        <time>2021-05-28T10:45:31Z</time>
      </trkpt>
      <trkpt lat="45.59805" lon="6.75715">
        <ele>763</ele>
        <time>2021-05-28T10:45:32Z</time>
      </trkpt>
      <trkpt lat="45.59802" lon="6.75703">
        <ele>762.8</ele>
        <time>2021-05-28T10:45:33Z</time>
      </trkpt>
      <trkpt lat="45.598" lon="6.7569">
        <ele>762.8</ele>
        <time>2021-05-28T10:45:34Z</time>
      </trkpt>
      <trkpt lat="45.59799" lon="6.75677">
        <ele>763</ele>
        <time>2021-05-28T10:45:35Z</time>
      </trkpt>
      <trkpt lat="45.59799" lon="6.75664">
        <ele>762.8</ele>
        <time>2021-05-28T10:45:36Z</time>
      </trkpt>
      <trkpt lat="45.59799" lon="6.7565">
        <ele>762.6</ele>
        <time>2021-05-28T10:45:37Z</time>
      </trkpt>
      <trkpt lat="45.59798" lon="6.75637">
        <ele>762.2</ele>
        <time>2021-05-28T10:45:38Z</time>
      </trkpt>
      <trkpt lat="45.59796" lon="6.75624">
        <ele>762.2</ele>
        <time>2021-05-28T10:45:39Z</time>
      </trkpt>
      <trkpt lat="45.59792" lon="6.75612">
        <ele>762</ele>
        <time>2021-05-28T10:45:40Z</time>
      </trkpt>
      <trkpt lat="45.59788" lon="6.756">
        <ele>762</ele>
        <time>2021-05-28T10:45:41Z</time>
      </trkpt>
      <trkpt lat="45.59783" lon="6.75589">
        <ele>761.8</ele>
        <time>2021-05-28T10:45:42Z</time>
      </trkpt>
      <trkpt lat="45.59779" lon="6.75577">
        <ele>761.8</ele>
        <time>2021-05-28T10:45:43Z</time>
      </trkpt>
      <trkpt lat="45.59774" lon="6.75565">
        <ele>761.8</ele>
        <time>2021-05-28T10:45:44Z</time>
      </trkpt>
      <trkpt lat="45.59769" lon="6.75554">
        <ele>761.6</ele>
        <time>2021-05-28T10:45:45Z</time>
      </trkpt>
      <trkpt lat="45.59764" lon="6.75542">
        <ele>761.4</ele>
        <time>2021-05-28T10:45:46Z</time>
      </trkpt>
      <trkpt lat="45.59759" lon="6.75531">
        <ele>761.2</ele>
        <time>2021-05-28T10:45:47Z</time>
      </trkpt>
      <trkpt lat="45.59753" lon="6.7552">
        <ele>760.8</ele>
        <time>2021-05-28T10:45:48Z</time>
      </trkpt>
      <trkpt lat="45.59747" lon="6.75511">
        <ele>760.8</ele>
        <time>2021-05-28T10:45:49Z</time>
      </trkpt>
      <trkpt lat="45.5974" lon="6.75501">
        <ele>760.6</ele>
        <time>2021-05-28T10:45:50Z</time>
      </trkpt>
      <trkpt lat="45.59734" lon="6.75492">
        <ele>760.4</ele>
        <time>2021-05-28T10:45:51Z</time>
      </trkpt>
      <trkpt lat="45.59727" lon="6.75484">
        <ele>760.4</ele>
        <time>2021-05-28T10:45:52Z</time>
      </trkpt>
      <trkpt lat="45.5972" lon="6.75479">
        <ele>760.6</ele>
        <time>2021-05-28T10:45:53Z</time>
      </trkpt>
      <trkpt lat="45.59715" lon="6.75475">
        <ele>760.8</ele>
        <time>2021-05-28T10:45:54Z</time>
      </trkpt>
      <trkpt lat="45.59708" lon="6.75473">
        <ele>760.6</ele>
        <time>2021-05-28T10:45:55Z</time>
      </trkpt>
      <trkpt lat="45.59701" lon="6.7547">
        <ele>760.4</ele>
        <time>2021-05-28T10:45:56Z</time>
      </trkpt>
      <trkpt lat="45.59692" lon="6.75466">
        <ele>760.4</ele>
        <time>2021-05-28T10:45:57Z</time>
      </trkpt>
      <trkpt lat="45.59684" lon="6.7546">
        <ele>760.4</ele>
        <time>2021-05-28T10:45:58Z</time>
      </trkpt>
      <trkpt lat="45.59675" lon="6.75455">
        <ele>759.8</ele>
        <time>2021-05-28T10:45:59Z</time>
      </trkpt>
      <trkpt lat="45.59666" lon="6.7545">
        <ele>759.6</ele>
        <time>2021-05-28T10:46:00Z</time>
      </trkpt>
      <trkpt lat="45.59657" lon="6.75445">
        <ele>759.6</ele>
        <time>2021-05-28T10:46:01Z</time>
      </trkpt>
      <trkpt lat="45.59649" lon="6.7544">
        <ele>759</ele>
        <time>2021-05-28T10:46:02Z</time>
      </trkpt>
      <trkpt lat="45.59641" lon="6.75436">
        <ele>758.8</ele>
        <time>2021-05-28T10:46:03Z</time>
      </trkpt>
      <trkpt lat="45.59632" lon="6.75432">
        <ele>758.6</ele>
        <time>2021-05-28T10:46:04Z</time>
      </trkpt>
      <trkpt lat="45.59625" lon="6.75428">
        <ele>758.2</ele>
        <time>2021-05-28T10:46:05Z</time>
      </trkpt>
      <trkpt lat="45.59616" lon="6.75424">
        <ele>758.2</ele>
        <time>2021-05-28T10:46:06Z</time>
      </trkpt>
      <trkpt lat="45.59608" lon="6.7542">
        <ele>758.4</ele>
        <time>2021-05-28T10:46:07Z</time>
      </trkpt>
      <trkpt lat="45.596" lon="6.75417">
        <ele>758.6</ele>
        <time>2021-05-28T10:46:08Z</time>
      </trkpt>
      <trkpt lat="45.59592" lon="6.75414">
        <ele>758.8</ele>
        <time>2021-05-28T10:46:09Z</time>
      </trkpt>
      <trkpt lat="45.59584" lon="6.75411">
        <ele>758.8</ele>
        <time>2021-05-28T10:46:10Z</time>
      </trkpt>
      <trkpt lat="45.59578" lon="6.75406">
        <ele>759</ele>
        <time>2021-05-28T10:46:11Z</time>
      </trkpt>
      <trkpt lat="45.59572" lon="6.75398">
        <ele>758.8</ele>
        <time>2021-05-28T10:46:12Z</time>
      </trkpt>
      <trkpt lat="45.59564" lon="6.75391">
        <ele>758.8</ele>
        <time>2021-05-28T10:46:13Z</time>
      </trkpt>
      <trkpt lat="45.59558" lon="6.75385">
        <ele>759</ele>
        <time>2021-05-28T10:46:14Z</time>
      </trkpt>
      <trkpt lat="45.5955" lon="6.7538">
        <ele>759.2</ele>
        <time>2021-05-28T10:46:15Z</time>
      </trkpt>
      <trkpt lat="45.59543" lon="6.75374">
        <ele>759</ele>
        <time>2021-05-28T10:46:16Z</time>
      </trkpt>
      <trkpt lat="45.59536" lon="6.75368">
        <ele>758.8</ele>
        <time>2021-05-28T10:46:17Z</time>
      </trkpt>
      <trkpt lat="45.5953" lon="6.75362">
        <ele>758.4</ele>
        <time>2021-05-28T10:46:18Z</time>
      </trkpt>
      <trkpt lat="45.59523" lon="6.75354">
        <ele>758.2</ele>
        <time>2021-05-28T10:46:19Z</time>
      </trkpt>
      <trkpt lat="45.59516" lon="6.75346">
        <ele>758.2</ele>
        <time>2021-05-28T10:46:20Z</time>
      </trkpt>
      <trkpt lat="45.5951" lon="6.75337">
        <ele>758.2</ele>
        <time>2021-05-28T10:46:21Z</time>
      </trkpt>
      <trkpt lat="45.59504" lon="6.75329">
        <ele>758</ele>
        <time>2021-05-28T10:46:22Z</time>
      </trkpt>
      <trkpt lat="45.59498" lon="6.7532">
        <ele>758.2</ele>
        <time>2021-05-28T10:46:23Z</time>
      </trkpt>
      <trkpt lat="45.5949" lon="6.75312">
        <ele>758</ele>
        <time>2021-05-28T10:46:24Z</time>
      </trkpt>
      <trkpt lat="45.59483" lon="6.75304">
        <ele>758</ele>
        <time>2021-05-28T10:46:25Z</time>
      </trkpt>
      <trkpt lat="45.59476" lon="6.75297">
        <ele>758.2</ele>
        <time>2021-05-28T10:46:26Z</time>
      </trkpt>
      <trkpt lat="45.59469" lon="6.7529">
        <ele>758.2</ele>
        <time>2021-05-28T10:46:27Z</time>
      </trkpt>
      <trkpt lat="45.59462" lon="6.75282">
        <ele>758</ele>
        <time>2021-05-28T10:46:28Z</time>
      </trkpt>
      <trkpt lat="45.59455" lon="6.75275">
        <ele>758.2</ele>
        <time>2021-05-28T10:46:29Z</time>
      </trkpt>
      <trkpt lat="45.59449" lon="6.75267">
        <ele>758</ele>
        <time>2021-05-28T10:46:30Z</time>
      </trkpt>
      <trkpt lat="45.59443" lon="6.75258">
        <ele>758</ele>
        <time>2021-05-28T10:46:31Z</time>
      </trkpt>
      <trkpt lat="45.59437" lon="6.7525">
        <ele>757.6</ele>
        <time>2021-05-28T10:46:32Z</time>
      </trkpt>
      <trkpt lat="45.59433" lon="6.7524">
        <ele>757</ele>
        <time>2021-05-28T10:46:33Z</time>
      </trkpt>
      <trkpt lat="45.59428" lon="6.7523">
        <ele>756.6</ele>
        <time>2021-05-28T10:46:34Z</time>
      </trkpt>
      <trkpt lat="45.59423" lon="6.75221">
        <ele>756.4</ele>
        <time>2021-05-28T10:46:35Z</time>
      </trkpt>
      <trkpt lat="45.59417" lon="6.75212">
        <ele>756.2</ele>
        <time>2021-05-28T10:46:36Z</time>
      </trkpt>
      <trkpt lat="45.59411" lon="6.75203">
        <ele>755.8</ele>
        <time>2021-05-28T10:46:37Z</time>
      </trkpt>
      <trkpt lat="45.59404" lon="6.75196">
        <ele>755.8</ele>
        <time>2021-05-28T10:46:38Z</time>
      </trkpt>
      <trkpt lat="45.59397" lon="6.75191">
        <ele>755.8</ele>
        <time>2021-05-28T10:46:39Z</time>
      </trkpt>
      <trkpt lat="45.5939" lon="6.75187">
        <ele>756.2</ele>
        <time>2021-05-28T10:46:40Z</time>
      </trkpt>
      <trkpt lat="45.59383" lon="6.75184">
        <ele>756.6</ele>
        <time>2021-05-28T10:46:41Z</time>
      </trkpt>
      <trkpt lat="45.59375" lon="6.75183">
        <ele>757</ele>
        <time>2021-05-28T10:46:42Z</time>
      </trkpt>
      <trkpt lat="45.59367" lon="6.75181">
        <ele>757.6</ele>
        <time>2021-05-28T10:46:43Z</time>
      </trkpt>
      <trkpt lat="45.5936" lon="6.75178">
        <ele>757.6</ele>
        <time>2021-05-28T10:46:44Z</time>
      </trkpt>
      <trkpt lat="45.59353" lon="6.75175">
        <ele>757.6</ele>
        <time>2021-05-28T10:46:45Z</time>
      </trkpt>
      <trkpt lat="45.59345" lon="6.75172">
        <ele>756.6</ele>
        <time>2021-05-28T10:46:46Z</time>
      </trkpt>
      <trkpt lat="45.59337" lon="6.75168">
        <ele>755.6</ele>
        <time>2021-05-28T10:46:47Z</time>
      </trkpt>
      <trkpt lat="45.5933" lon="6.75164">
        <ele>755</ele>
        <time>2021-05-28T10:46:48Z</time>
      </trkpt>
      <trkpt lat="45.59322" lon="6.7516">
        <ele>754.4</ele>
        <time>2021-05-28T10:46:49Z</time>
      </trkpt>
      <trkpt lat="45.59314" lon="6.75157">
        <ele>754</ele>
        <time>2021-05-28T10:46:50Z</time>
      </trkpt>
      <trkpt lat="45.59307" lon="6.75154">
        <ele>753.2</ele>
        <time>2021-05-28T10:46:51Z</time>
      </trkpt>
      <trkpt lat="45.59299" lon="6.75152">
        <ele>752.8</ele>
        <time>2021-05-28T10:46:52Z</time>
      </trkpt>
      <trkpt lat="45.59292" lon="6.7515">
        <ele>752.6</ele>
        <time>2021-05-28T10:46:53Z</time>
      </trkpt>
      <trkpt lat="45.59284" lon="6.75148">
        <ele>752.6</ele>
        <time>2021-05-28T10:46:54Z</time>
      </trkpt>
      <trkpt lat="45.59277" lon="6.75145">
        <ele>752.4</ele>
        <time>2021-05-28T10:46:55Z</time>
      </trkpt>
      <trkpt lat="45.5927" lon="6.7514">
        <ele>751.8</ele>
        <time>2021-05-28T10:46:56Z</time>
      </trkpt>
      <trkpt lat="45.59263" lon="6.75134">
        <ele>751.6</ele>
        <time>2021-05-28T10:46:57Z</time>
      </trkpt>
      <trkpt lat="45.59258" lon="6.75126">
        <ele>751.6</ele>
        <time>2021-05-28T10:46:58Z</time>
      </trkpt>
      <trkpt lat="45.59252" lon="6.75118">
        <ele>751.6</ele>
        <time>2021-05-28T10:46:59Z</time>
      </trkpt>
      <trkpt lat="45.59247" lon="6.75108">
        <ele>751.6</ele>
        <time>2021-05-28T10:47:00Z</time>
      </trkpt>
      <trkpt lat="45.59242" lon="6.75099">
        <ele>751.6</ele>
        <time>2021-05-28T10:47:01Z</time>
      </trkpt>
      <trkpt lat="45.59236" lon="6.75091">
        <ele>751.4</ele>
        <time>2021-05-28T10:47:02Z</time>
      </trkpt>
      <trkpt lat="45.5923" lon="6.75082">
        <ele>751.4</ele>
        <time>2021-05-28T10:47:03Z</time>
      </trkpt>
      <trkpt lat="45.59224" lon="6.75074">
        <ele>751.4</ele>
        <time>2021-05-28T10:47:04Z</time>
      </trkpt>
      <trkpt lat="45.59218" lon="6.75066">
        <ele>751</ele>
        <time>2021-05-28T10:47:05Z</time>
      </trkpt>
      <trkpt lat="45.59211" lon="6.75059">
        <ele>750.6</ele>
        <time>2021-05-28T10:47:06Z</time>
      </trkpt>
      <trkpt lat="45.59204" lon="6.75052">
        <ele>750.4</ele>
        <time>2021-05-28T10:47:07Z</time>
      </trkpt>
      <trkpt lat="45.59197" lon="6.75044">
        <ele>750.2</ele>
        <time>2021-05-28T10:47:08Z</time>
      </trkpt>
      <trkpt lat="45.59191" lon="6.75036">
        <ele>750.4</ele>
        <time>2021-05-28T10:47:09Z</time>
      </trkpt>
      <trkpt lat="45.59185" lon="6.75028">
        <ele>750.4</ele>
        <time>2021-05-28T10:47:10Z</time>
      </trkpt>
      <trkpt lat="45.59178" lon="6.75021">
        <ele>750</ele>
        <time>2021-05-28T10:47:11Z</time>
      </trkpt>
      <trkpt lat="45.5917" lon="6.75016">
        <ele>749.8</ele>
        <time>2021-05-28T10:47:12Z</time>
      </trkpt>
      <trkpt lat="45.59162" lon="6.75011">
        <ele>750</ele>
        <time>2021-05-28T10:47:13Z</time>
      </trkpt>
      <trkpt lat="45.59154" lon="6.75008">
        <ele>749.6</ele>
        <time>2021-05-28T10:47:14Z</time>
      </trkpt>
      <trkpt lat="45.59146" lon="6.75006">
        <ele>750</ele>
        <time>2021-05-28T10:47:15Z</time>
      </trkpt>
      <trkpt lat="45.59137" lon="6.75006">
        <ele>749.8</ele>
        <time>2021-05-28T10:47:16Z</time>
      </trkpt>
      <trkpt lat="45.59128" lon="6.75005">
        <ele>749.8</ele>
        <time>2021-05-28T10:47:17Z</time>
      </trkpt>
      <trkpt lat="45.5912" lon="6.75003">
        <ele>749.8</ele>
        <time>2021-05-28T10:47:18Z</time>
      </trkpt>
      <trkpt lat="45.59112" lon="6.75002">
        <ele>750</ele>
        <time>2021-05-28T10:47:19Z</time>
      </trkpt>
      <trkpt lat="45.59103" lon="6.75001">
        <ele>750</ele>
        <time>2021-05-28T10:47:20Z</time>
      </trkpt>
      <trkpt lat="45.59095" lon="6.75">
        <ele>750</ele>
        <time>2021-05-28T10:47:21Z</time>
      </trkpt>
      <trkpt lat="45.59087" lon="6.74999">
        <ele>750.2</ele>
        <time>2021-05-28T10:47:22Z</time>
      </trkpt>
      <trkpt lat="45.59079" lon="6.75">
        <ele>750.8</ele>
        <time>2021-05-28T10:47:23Z</time>
      </trkpt>
      <trkpt lat="45.59069" lon="6.75">
        <ele>752</ele>
        <time>2021-05-28T10:47:24Z</time>
      </trkpt>
      <trkpt lat="45.59061" lon="6.74998">
        <ele>753</ele>
        <time>2021-05-28T10:47:25Z</time>
      </trkpt>
      <trkpt lat="45.59055" lon="6.74992">
        <ele>753.6</ele>
        <time>2021-05-28T10:47:26Z</time>
      </trkpt>
      <trkpt lat="45.59049" lon="6.74985">
        <ele>754</ele>
        <time>2021-05-28T10:47:27Z</time>
      </trkpt>
      <trkpt lat="45.59044" lon="6.74977">
        <ele>754.4</ele>
        <time>2021-05-28T10:47:28Z</time>
      </trkpt>
      <trkpt lat="45.59036" lon="6.74971">
        <ele>755</ele>
        <time>2021-05-28T10:47:29Z</time>
      </trkpt>
      <trkpt lat="45.59029" lon="6.74967">
        <ele>755.4</ele>
        <time>2021-05-28T10:47:30Z</time>
      </trkpt>
      <trkpt lat="45.59022" lon="6.74963">
        <ele>755.4</ele>
        <time>2021-05-28T10:47:31Z</time>
      </trkpt>
      <trkpt lat="45.59016" lon="6.7496">
        <ele>755.6</ele>
        <time>2021-05-28T10:47:32Z</time>
      </trkpt>
      <trkpt lat="45.59009" lon="6.74956">
        <ele>756</ele>
        <time>2021-05-28T10:47:33Z</time>
      </trkpt>
      <trkpt lat="45.59001" lon="6.74953">
        <ele>756.2</ele>
        <time>2021-05-28T10:47:34Z</time>
      </trkpt>
      <trkpt lat="45.58994" lon="6.7495">
        <ele>756.4</ele>
        <time>2021-05-28T10:47:35Z</time>
      </trkpt>
      <trkpt lat="45.58987" lon="6.74948">
        <ele>756.4</ele>
        <time>2021-05-28T10:47:36Z</time>
      </trkpt>
      <trkpt lat="45.5898" lon="6.74944">
        <ele>756.4</ele>
        <time>2021-05-28T10:47:37Z</time>
      </trkpt>
      <trkpt lat="45.58972" lon="6.7494">
        <ele>756.4</ele>
        <time>2021-05-28T10:47:38Z</time>
      </trkpt>
      <trkpt lat="45.58964" lon="6.74935">
        <ele>756.4</ele>
        <time>2021-05-28T10:47:39Z</time>
      </trkpt>
      <trkpt lat="45.58957" lon="6.7493">
        <ele>756.4</ele>
        <time>2021-05-28T10:47:40Z</time>
      </trkpt>
      <trkpt lat="45.5895" lon="6.74925">
        <ele>755.8</ele>
        <time>2021-05-28T10:47:41Z</time>
      </trkpt>
      <trkpt lat="45.58942" lon="6.74921">
        <ele>755.8</ele>
        <time>2021-05-28T10:47:42Z</time>
      </trkpt>
      <trkpt lat="45.58935" lon="6.74917">
        <ele>756</ele>
        <time>2021-05-28T10:47:43Z</time>
      </trkpt>
      <trkpt lat="45.58927" lon="6.74915">
        <ele>755.8</ele>
        <time>2021-05-28T10:47:44Z</time>
      </trkpt>
      <trkpt lat="45.5892" lon="6.74914">
        <ele>755.8</ele>
        <time>2021-05-28T10:47:45Z</time>
      </trkpt>
      <trkpt lat="45.58911" lon="6.74912">
        <ele>755.6</ele>
        <time>2021-05-28T10:47:46Z</time>
      </trkpt>
      <trkpt lat="45.58903" lon="6.7491">
        <ele>755</ele>
        <time>2021-05-28T10:47:47Z</time>
      </trkpt>
      <trkpt lat="45.58895" lon="6.74908">
        <ele>754.6</ele>
        <time>2021-05-28T10:47:48Z</time>
      </trkpt>
      <trkpt lat="45.58887" lon="6.74908">
        <ele>754.2</ele>
        <time>2021-05-28T10:47:49Z</time>
      </trkpt>
      <trkpt lat="45.58879" lon="6.74909">
        <ele>754</ele>
        <time>2021-05-28T10:47:50Z</time>
      </trkpt>
      <trkpt lat="45.58871" lon="6.7491">
        <ele>753.6</ele>
        <time>2021-05-28T10:47:51Z</time>
      </trkpt>
      <trkpt lat="45.58863" lon="6.74911">
        <ele>753.6</ele>
        <time>2021-05-28T10:47:52Z</time>
      </trkpt>
      <trkpt lat="45.58855" lon="6.7491">
        <ele>753.6</ele>
        <time>2021-05-28T10:47:53Z</time>
      </trkpt>
      <trkpt lat="45.58847" lon="6.7491">
        <ele>753.4</ele>
        <time>2021-05-28T10:47:54Z</time>
      </trkpt>
      <trkpt lat="45.58839" lon="6.7491">
        <ele>753.4</ele>
        <time>2021-05-28T10:47:55Z</time>
      </trkpt>
      <trkpt lat="45.5883" lon="6.7491">
        <ele>753.4</ele>
        <time>2021-05-28T10:47:56Z</time>
      </trkpt>
      <trkpt lat="45.58822" lon="6.7491">
        <ele>753.4</ele>
        <time>2021-05-28T10:47:57Z</time>
      </trkpt>
      <trkpt lat="45.58814" lon="6.74911">
        <ele>753.2</ele>
        <time>2021-05-28T10:47:58Z</time>
      </trkpt>
      <trkpt lat="45.58807" lon="6.74912">
        <ele>753.4</ele>
        <time>2021-05-28T10:47:59Z</time>
      </trkpt>
      <trkpt lat="45.58799" lon="6.74912">
        <ele>753.4</ele>
        <time>2021-05-28T10:48:00Z</time>
      </trkpt>
      <trkpt lat="45.58791" lon="6.74913">
        <ele>753.4</ele>
        <time>2021-05-28T10:48:01Z</time>
      </trkpt>
      <trkpt lat="45.58783" lon="6.74914">
        <ele>753.2</ele>
        <time>2021-05-28T10:48:02Z</time>
      </trkpt>
      <trkpt lat="45.58775" lon="6.74914">
        <ele>753.4</ele>
        <time>2021-05-28T10:48:03Z</time>
      </trkpt>
      <trkpt lat="45.58767" lon="6.74913">
        <ele>753.2</ele>
        <time>2021-05-28T10:48:04Z</time>
      </trkpt>
      <trkpt lat="45.58758" lon="6.74911">
        <ele>753</ele>
        <time>2021-05-28T10:48:05Z</time>
      </trkpt>
      <trkpt lat="45.5875" lon="6.74908">
        <ele>752.6</ele>
        <time>2021-05-28T10:48:06Z</time>
      </trkpt>
      <trkpt lat="45.58742" lon="6.74905">
        <ele>752</ele>
        <time>2021-05-28T10:48:07Z</time>
      </trkpt>
      <trkpt lat="45.58734" lon="6.74903">
        <ele>751.6</ele>
        <time>2021-05-28T10:48:08Z</time>
      </trkpt>
      <trkpt lat="45.58726" lon="6.74902">
        <ele>751.2</ele>
        <time>2021-05-28T10:48:09Z</time>
      </trkpt>
      <trkpt lat="45.58719" lon="6.74902">
        <ele>751</ele>
        <time>2021-05-28T10:48:10Z</time>
      </trkpt>
      <trkpt lat="45.58711" lon="6.74902">
        <ele>750.6</ele>
        <time>2021-05-28T10:48:11Z</time>
      </trkpt>
      <trkpt lat="45.58703" lon="6.74902">
        <ele>750.6</ele>
        <time>2021-05-28T10:48:12Z</time>
      </trkpt>
      <trkpt lat="45.58695" lon="6.74901">
        <ele>750.8</ele>
        <time>2021-05-28T10:48:13Z</time>
      </trkpt>
      <trkpt lat="45.58687" lon="6.749">
        <ele>750.8</ele>
        <time>2021-05-28T10:48:14Z</time>
      </trkpt>
      <trkpt lat="45.58678" lon="6.74899">
        <ele>750.8</ele>
        <time>2021-05-28T10:48:15Z</time>
      </trkpt>
      <trkpt lat="45.5867" lon="6.74898">
        <ele>751</ele>
        <time>2021-05-28T10:48:16Z</time>
      </trkpt>
      <trkpt lat="45.58663" lon="6.74897">
        <ele>751</ele>
        <time>2021-05-28T10:48:17Z</time>
      </trkpt>
      <trkpt lat="45.58655" lon="6.74898">
        <ele>751.2</ele>
        <time>2021-05-28T10:48:18Z</time>
      </trkpt>
      <trkpt lat="45.58647" lon="6.74897">
        <ele>751.2</ele>
        <time>2021-05-28T10:48:19Z</time>
      </trkpt>
      <trkpt lat="45.58639" lon="6.74897">
        <ele>751</ele>
        <time>2021-05-28T10:48:20Z</time>
      </trkpt>
      <trkpt lat="45.58631" lon="6.74896">
        <ele>751.2</ele>
        <time>2021-05-28T10:48:21Z</time>
      </trkpt>
      <trkpt lat="45.58623" lon="6.74895">
        <ele>751.4</ele>
        <time>2021-05-28T10:48:22Z</time>
      </trkpt>
      <trkpt lat="45.58615" lon="6.74893">
        <ele>751.4</ele>
        <time>2021-05-28T10:48:23Z</time>
      </trkpt>
      <trkpt lat="45.58608" lon="6.74891">
        <ele>751.2</ele>
        <time>2021-05-28T10:48:24Z</time>
      </trkpt>
      <trkpt lat="45.58601" lon="6.74888">
        <ele>751.4</ele>
        <time>2021-05-28T10:48:25Z</time>
      </trkpt>
      <trkpt lat="45.58594" lon="6.74883">
        <ele>751.4</ele>
        <time>2021-05-28T10:48:26Z</time>
      </trkpt>
      <trkpt lat="45.58587" lon="6.74877">
        <ele>751</ele>
        <time>2021-05-28T10:48:27Z</time>
      </trkpt>
      <trkpt lat="45.58581" lon="6.74871">
        <ele>750.8</ele>
        <time>2021-05-28T10:48:28Z</time>
      </trkpt>
      <trkpt lat="45.58574" lon="6.74865">
        <ele>750.4</ele>
        <time>2021-05-28T10:48:29Z</time>
      </trkpt>
      <trkpt lat="45.58567" lon="6.7486">
        <ele>749.8</ele>
        <time>2021-05-28T10:48:30Z</time>
      </trkpt>
      <trkpt lat="45.5856" lon="6.74856">
        <ele>749.4</ele>
        <time>2021-05-28T10:48:31Z</time>
      </trkpt>
      <trkpt lat="45.58552" lon="6.74852">
        <ele>749.2</ele>
        <time>2021-05-28T10:48:32Z</time>
      </trkpt>
      <trkpt lat="45.58545" lon="6.74849">
        <ele>749.4</ele>
        <time>2021-05-28T10:48:33Z</time>
      </trkpt>
      <trkpt lat="45.58537" lon="6.74846">
        <ele>749.6</ele>
        <time>2021-05-28T10:48:34Z</time>
      </trkpt>
      <trkpt lat="45.58529" lon="6.74842">
        <ele>749.6</ele>
        <time>2021-05-28T10:48:35Z</time>
      </trkpt>
      <trkpt lat="45.58522" lon="6.74838">
        <ele>749.8</ele>
        <time>2021-05-28T10:48:36Z</time>
      </trkpt>
      <trkpt lat="45.58515" lon="6.74832">
        <ele>750</ele>
        <time>2021-05-28T10:48:37Z</time>
      </trkpt>
      <trkpt lat="45.5851" lon="6.74825">
        <ele>750.6</ele>
        <time>2021-05-28T10:48:38Z</time>
      </trkpt>
      <trkpt lat="45.58505" lon="6.74817">
        <ele>750.6</ele>
        <time>2021-05-28T10:48:39Z</time>
      </trkpt>
      <trkpt lat="45.58499" lon="6.7481">
        <ele>750.8</ele>
        <time>2021-05-28T10:48:40Z</time>
      </trkpt>
      <trkpt lat="45.58492" lon="6.74805">
        <ele>750.8</ele>
        <time>2021-05-28T10:48:41Z</time>
      </trkpt>
      <trkpt lat="45.58484" lon="6.74801">
        <ele>750.8</ele>
        <time>2021-05-28T10:48:42Z</time>
      </trkpt>
      <trkpt lat="45.58476" lon="6.74798">
        <ele>751</ele>
        <time>2021-05-28T10:48:43Z</time>
      </trkpt>
      <trkpt lat="45.58468" lon="6.74796">
        <ele>750.6</ele>
        <time>2021-05-28T10:48:44Z</time>
      </trkpt>
      <trkpt lat="45.5846" lon="6.74794">
        <ele>750.4</ele>
        <time>2021-05-28T10:48:45Z</time>
      </trkpt>
      <trkpt lat="45.58452" lon="6.74793">
        <ele>750.2</ele>
        <time>2021-05-28T10:48:46Z</time>
      </trkpt>
      <trkpt lat="45.58443" lon="6.74792">
        <ele>750.2</ele>
        <time>2021-05-28T10:48:47Z</time>
      </trkpt>
      <trkpt lat="45.58435" lon="6.7479">
        <ele>750</ele>
        <time>2021-05-28T10:48:48Z</time>
      </trkpt>
      <trkpt lat="45.58427" lon="6.74788">
        <ele>749.6</ele>
        <time>2021-05-28T10:48:49Z</time>
      </trkpt>
      <trkpt lat="45.58419" lon="6.74786">
        <ele>749.4</ele>
        <time>2021-05-28T10:48:50Z</time>
      </trkpt>
      <trkpt lat="45.58411" lon="6.74784">
        <ele>749.4</ele>
        <time>2021-05-28T10:48:51Z</time>
      </trkpt>
      <trkpt lat="45.58402" lon="6.74783">
        <ele>749</ele>
        <time>2021-05-28T10:48:52Z</time>
      </trkpt>
      <trkpt lat="45.58394" lon="6.74782">
        <ele>749</ele>
        <time>2021-05-28T10:48:53Z</time>
      </trkpt>
      <trkpt lat="45.58385" lon="6.7478">
        <ele>749</ele>
        <time>2021-05-28T10:48:54Z</time>
      </trkpt>
      <trkpt lat="45.58377" lon="6.74779">
        <ele>749</ele>
        <time>2021-05-28T10:48:55Z</time>
      </trkpt>
      <trkpt lat="45.58369" lon="6.74776">
        <ele>749.2</ele>
        <time>2021-05-28T10:48:56Z</time>
      </trkpt>
      <trkpt lat="45.58361" lon="6.74772">
        <ele>749.2</ele>
        <time>2021-05-28T10:48:57Z</time>
      </trkpt>
      <trkpt lat="45.58354" lon="6.74768">
        <ele>748.8</ele>
        <time>2021-05-28T10:48:58Z</time>
      </trkpt>
      <trkpt lat="45.58347" lon="6.74763">
        <ele>748.6</ele>
        <time>2021-05-28T10:48:59Z</time>
      </trkpt>
      <trkpt lat="45.5834" lon="6.74758">
        <ele>748.8</ele>
        <time>2021-05-28T10:49:00Z</time>
      </trkpt>
      <trkpt lat="45.58333" lon="6.74754">
        <ele>748.6</ele>
        <time>2021-05-28T10:49:01Z</time>
      </trkpt>
      <trkpt lat="45.58325" lon="6.74749">
        <ele>748.6</ele>
        <time>2021-05-28T10:49:02Z</time>
      </trkpt>
      <trkpt lat="45.58318" lon="6.74745">
        <ele>748.4</ele>
        <time>2021-05-28T10:49:03Z</time>
      </trkpt>
      <trkpt lat="45.58311" lon="6.7474">
        <ele>748.4</ele>
        <time>2021-05-28T10:49:04Z</time>
      </trkpt>
      <trkpt lat="45.58305" lon="6.74734">
        <ele>748.2</ele>
        <time>2021-05-28T10:49:05Z</time>
      </trkpt>
      <trkpt lat="45.58298" lon="6.74728">
        <ele>748</ele>
        <time>2021-05-28T10:49:06Z</time>
      </trkpt>
      <trkpt lat="45.58292" lon="6.74721">
        <ele>748.2</ele>
        <time>2021-05-28T10:49:07Z</time>
      </trkpt>
      <trkpt lat="45.58285" lon="6.74714">
        <ele>748</ele>
        <time>2021-05-28T10:49:08Z</time>
      </trkpt>
      <trkpt lat="45.58279" lon="6.74706">
        <ele>748.2</ele>
        <time>2021-05-28T10:49:09Z</time>
      </trkpt>
      <trkpt lat="45.58272" lon="6.74699">
        <ele>748.2</ele>
        <time>2021-05-28T10:49:10Z</time>
      </trkpt>
      <trkpt lat="45.58266" lon="6.74692">
        <ele>748.2</ele>
        <time>2021-05-28T10:49:11Z</time>
      </trkpt>
      <trkpt lat="45.58259" lon="6.74685">
        <ele>747.4</ele>
        <time>2021-05-28T10:49:12Z</time>
      </trkpt>
      <trkpt lat="45.58252" lon="6.74678">
        <ele>747</ele>
        <time>2021-05-28T10:49:13Z</time>
      </trkpt>
      <trkpt lat="45.58246" lon="6.74671">
        <ele>746.4</ele>
        <time>2021-05-28T10:49:14Z</time>
      </trkpt>
      <trkpt lat="45.58239" lon="6.74664">
        <ele>746.4</ele>
        <time>2021-05-28T10:49:15Z</time>
      </trkpt>
      <trkpt lat="45.58233" lon="6.74656">
        <ele>746</ele>
        <time>2021-05-28T10:49:16Z</time>
      </trkpt>
      <trkpt lat="45.58228" lon="6.74647">
        <ele>745.8</ele>
        <time>2021-05-28T10:49:17Z</time>
      </trkpt>
      <trkpt lat="45.58223" lon="6.74638">
        <ele>745.8</ele>
        <time>2021-05-28T10:49:18Z</time>
      </trkpt>
      <trkpt lat="45.5822" lon="6.74628">
        <ele>745.6</ele>
        <time>2021-05-28T10:49:19Z</time>
      </trkpt>
      <trkpt lat="45.58216" lon="6.74617">
        <ele>745.2</ele>
        <time>2021-05-28T10:49:20Z</time>
      </trkpt>
      <trkpt lat="45.58213" lon="6.74606">
        <ele>745</ele>
        <time>2021-05-28T10:49:21Z</time>
      </trkpt>
      <trkpt lat="45.5821" lon="6.74596">
        <ele>744.8</ele>
        <time>2021-05-28T10:49:22Z</time>
      </trkpt>
      <trkpt lat="45.58207" lon="6.74586">
        <ele>744.2</ele>
        <time>2021-05-28T10:49:23Z</time>
      </trkpt>
      <trkpt lat="45.58203" lon="6.74575">
        <ele>744</ele>
        <time>2021-05-28T10:49:24Z</time>
      </trkpt>
      <trkpt lat="45.58199" lon="6.74564">
        <ele>743.6</ele>
        <time>2021-05-28T10:49:25Z</time>
      </trkpt>
      <trkpt lat="45.58196" lon="6.74553">
        <ele>743.4</ele>
        <time>2021-05-28T10:49:26Z</time>
      </trkpt>
      <trkpt lat="45.58194" lon="6.74543">
        <ele>743.2</ele>
        <time>2021-05-28T10:49:27Z</time>
      </trkpt>
      <trkpt lat="45.58191" lon="6.74531">
        <ele>742.8</ele>
        <time>2021-05-28T10:49:28Z</time>
      </trkpt>
      <trkpt lat="45.58189" lon="6.7452">
        <ele>742.6</ele>
        <time>2021-05-28T10:49:29Z</time>
      </trkpt>
      <trkpt lat="45.58188" lon="6.74508">
        <ele>742.4</ele>
        <time>2021-05-28T10:49:30Z</time>
      </trkpt>
      <trkpt lat="45.58188" lon="6.74496">
        <ele>742.4</ele>
        <time>2021-05-28T10:49:31Z</time>
      </trkpt>
      <trkpt lat="45.58188" lon="6.74483">
        <ele>742.2</ele>
        <time>2021-05-28T10:49:32Z</time>
      </trkpt>
      <trkpt lat="45.58187" lon="6.74471">
        <ele>742.4</ele>
        <time>2021-05-28T10:49:33Z</time>
      </trkpt>
      <trkpt lat="45.58185" lon="6.74459">
        <ele>742.4</ele>
        <time>2021-05-28T10:49:34Z</time>
      </trkpt>
      <trkpt lat="45.58181" lon="6.74448">
        <ele>742.4</ele>
        <time>2021-05-28T10:49:35Z</time>
      </trkpt>
      <trkpt lat="45.58177" lon="6.74438">
        <ele>742.4</ele>
        <time>2021-05-28T10:49:36Z</time>
      </trkpt>
      <trkpt lat="45.58172" lon="6.74428">
        <ele>742.4</ele>
        <time>2021-05-28T10:49:37Z</time>
      </trkpt>
      <trkpt lat="45.58168" lon="6.74419">
        <ele>742.8</ele>
        <time>2021-05-28T10:49:38Z</time>
      </trkpt>
      <trkpt lat="45.58163" lon="6.74409">
        <ele>743</ele>
        <time>2021-05-28T10:49:39Z</time>
      </trkpt>
      <trkpt lat="45.58158" lon="6.74399">
        <ele>742.8</ele>
        <time>2021-05-28T10:49:40Z</time>
      </trkpt>
      <trkpt lat="45.58154" lon="6.74388">
        <ele>743</ele>
        <time>2021-05-28T10:49:41Z</time>
      </trkpt>
      <trkpt lat="45.5815" lon="6.74378">
        <ele>743.2</ele>
        <time>2021-05-28T10:49:42Z</time>
      </trkpt>
      <trkpt lat="45.58145" lon="6.74367">
        <ele>743.2</ele>
        <time>2021-05-28T10:49:43Z</time>
      </trkpt>
      <trkpt lat="45.58141" lon="6.74357">
        <ele>743.2</ele>
        <time>2021-05-28T10:49:44Z</time>
      </trkpt>
      <trkpt lat="45.58136" lon="6.74347">
        <ele>743.6</ele>
        <time>2021-05-28T10:49:45Z</time>
      </trkpt>
      <trkpt lat="45.58132" lon="6.74336">
        <ele>743.6</ele>
        <time>2021-05-28T10:49:46Z</time>
      </trkpt>
      <trkpt lat="45.58128" lon="6.74326">
        <ele>743.2</ele>
        <time>2021-05-28T10:49:47Z</time>
      </trkpt>
      <trkpt lat="45.58123" lon="6.74316">
        <ele>742.6</ele>
        <time>2021-05-28T10:49:48Z</time>
      </trkpt>
      <trkpt lat="45.58119" lon="6.74306">
        <ele>743</ele>
        <time>2021-05-28T10:49:49Z</time>
      </trkpt>
      <trkpt lat="45.58116" lon="6.74296">
        <ele>743</ele>
        <time>2021-05-28T10:49:50Z</time>
      </trkpt>
      <trkpt lat="45.58115" lon="6.74286">
        <ele>743</ele>
        <time>2021-05-28T10:49:51Z</time>
      </trkpt>
      <trkpt lat="45.58115" lon="6.74277">
        <ele>742.8</ele>
        <time>2021-05-28T10:49:52Z</time>
      </trkpt>
      <trkpt lat="45.58115" lon="6.74267">
        <ele>742.6</ele>
        <time>2021-05-28T10:49:53Z</time>
      </trkpt>
      <trkpt lat="45.58114" lon="6.74258">
        <ele>742.6</ele>
        <time>2021-05-28T10:49:54Z</time>
      </trkpt>
      <trkpt lat="45.58112" lon="6.74247">
        <ele>742.6</ele>
        <time>2021-05-28T10:49:55Z</time>
      </trkpt>
      <trkpt lat="45.58109" lon="6.74236">
        <ele>742.4</ele>
        <time>2021-05-28T10:49:56Z</time>
      </trkpt>
      <trkpt lat="45.58106" lon="6.74224">
        <ele>742.6</ele>
        <time>2021-05-28T10:49:57Z</time>
      </trkpt>
      <trkpt lat="45.58102" lon="6.74213">
        <ele>742.6</ele>
        <time>2021-05-28T10:49:58Z</time>
      </trkpt>
      <trkpt lat="45.58098" lon="6.74203">
        <ele>742.6</ele>
        <time>2021-05-28T10:49:59Z</time>
      </trkpt>
      <trkpt lat="45.58094" lon="6.74192">
        <ele>742.6</ele>
        <time>2021-05-28T10:50:00Z</time>
      </trkpt>
      <trkpt lat="45.58091" lon="6.7418">
        <ele>742.4</ele>
        <time>2021-05-28T10:50:01Z</time>
      </trkpt>
      <trkpt lat="45.58087" lon="6.74169">
        <ele>742</ele>
        <time>2021-05-28T10:50:02Z</time>
      </trkpt>
      <trkpt lat="45.58083" lon="6.74158">
        <ele>742.2</ele>
        <time>2021-05-28T10:50:03Z</time>
      </trkpt>
      <trkpt lat="45.58078" lon="6.74147">
        <ele>742.4</ele>
        <time>2021-05-28T10:50:04Z</time>
      </trkpt>
      <trkpt lat="45.58073" lon="6.74137">
        <ele>742.6</ele>
        <time>2021-05-28T10:50:05Z</time>
      </trkpt>
      <trkpt lat="45.58067" lon="6.74129">
        <ele>742.6</ele>
        <time>2021-05-28T10:50:06Z</time>
      </trkpt>
      <trkpt lat="45.5806" lon="6.74123">
        <ele>742.6</ele>
        <time>2021-05-28T10:50:07Z</time>
      </trkpt>
      <trkpt lat="45.58053" lon="6.74118">
        <ele>742.6</ele>
        <time>2021-05-28T10:50:08Z</time>
      </trkpt>
      <trkpt lat="45.58045" lon="6.74114">
        <ele>742.6</ele>
        <time>2021-05-28T10:50:09Z</time>
      </trkpt>
      <trkpt lat="45.58036" lon="6.7411">
        <ele>742.8</ele>
        <time>2021-05-28T10:50:10Z</time>
      </trkpt>
      <trkpt lat="45.58028" lon="6.74107">
        <ele>742.8</ele>
        <time>2021-05-28T10:50:11Z</time>
      </trkpt>
      <trkpt lat="45.58019" lon="6.74105">
        <ele>743</ele>
        <time>2021-05-28T10:50:12Z</time>
      </trkpt>
      <trkpt lat="45.5801" lon="6.74103">
        <ele>743</ele>
        <time>2021-05-28T10:50:13Z</time>
      </trkpt>
      <trkpt lat="45.58001" lon="6.74102">
        <ele>743</ele>
        <time>2021-05-28T10:50:14Z</time>
      </trkpt>
      <trkpt lat="45.57992" lon="6.741">
        <ele>743.2</ele>
        <time>2021-05-28T10:50:15Z</time>
      </trkpt>
      <trkpt lat="45.57984" lon="6.74098">
        <ele>743.2</ele>
        <time>2021-05-28T10:50:16Z</time>
      </trkpt>
      <trkpt lat="45.57976" lon="6.74096">
        <ele>743.4</ele>
        <time>2021-05-28T10:50:17Z</time>
      </trkpt>
      <trkpt lat="45.57967" lon="6.74095">
        <ele>743</ele>
        <time>2021-05-28T10:50:18Z</time>
      </trkpt>
      <trkpt lat="45.57958" lon="6.74095">
        <ele>742.8</ele>
        <time>2021-05-28T10:50:19Z</time>
      </trkpt>
      <trkpt lat="45.57949" lon="6.74096">
        <ele>742.6</ele>
        <time>2021-05-28T10:50:20Z</time>
      </trkpt>
      <trkpt lat="45.57941" lon="6.74099">
        <ele>742.4</ele>
        <time>2021-05-28T10:50:21Z</time>
      </trkpt>
      <trkpt lat="45.57931" lon="6.74103">
        <ele>742.4</ele>
        <time>2021-05-28T10:50:22Z</time>
      </trkpt>
      <trkpt lat="45.57921" lon="6.74107">
        <ele>742.6</ele>
        <time>2021-05-28T10:50:23Z</time>
      </trkpt>
      <trkpt lat="45.57913" lon="6.74111">
        <ele>742.8</ele>
        <time>2021-05-28T10:50:24Z</time>
      </trkpt>
      <trkpt lat="45.57907" lon="6.74115">
        <ele>743</ele>
        <time>2021-05-28T10:50:25Z</time>
      </trkpt>
      <trkpt lat="45.57899" lon="6.7412">
        <ele>743</ele>
        <time>2021-05-28T10:50:26Z</time>
      </trkpt>
      <trkpt lat="45.57892" lon="6.74125">
        <ele>743</ele>
        <time>2021-05-28T10:50:27Z</time>
      </trkpt>
      <trkpt lat="45.57884" lon="6.74129">
        <ele>742.8</ele>
        <time>2021-05-28T10:50:28Z</time>
      </trkpt>
      <trkpt lat="45.57875" lon="6.74133">
        <ele>742.8</ele>
        <time>2021-05-28T10:50:29Z</time>
      </trkpt>
      <trkpt lat="45.57867" lon="6.74137">
        <ele>742.8</ele>
        <time>2021-05-28T10:50:30Z</time>
      </trkpt>
      <trkpt lat="45.57859" lon="6.7414">
        <ele>742.8</ele>
        <time>2021-05-28T10:50:31Z</time>
      </trkpt>
      <trkpt lat="45.57852" lon="6.74143">
        <ele>742.6</ele>
        <time>2021-05-28T10:50:32Z</time>
      </trkpt>
      <trkpt lat="45.57843" lon="6.74146">
        <ele>742.4</ele>
        <time>2021-05-28T10:50:33Z</time>
      </trkpt>
      <trkpt lat="45.57835" lon="6.74148">
        <ele>742.2</ele>
        <time>2021-05-28T10:50:34Z</time>
      </trkpt>
      <trkpt lat="45.57826" lon="6.74151">
        <ele>742.2</ele>
        <time>2021-05-28T10:50:35Z</time>
      </trkpt>
      <trkpt lat="45.57818" lon="6.74154">
        <ele>742.2</ele>
        <time>2021-05-28T10:50:36Z</time>
      </trkpt>
      <trkpt lat="45.5781" lon="6.74156">
        <ele>742.4</ele>
        <time>2021-05-28T10:50:37Z</time>
      </trkpt>
      <trkpt lat="45.57804" lon="6.74151">
        <ele>742.6</ele>
        <time>2021-05-28T10:50:38Z</time>
      </trkpt>
      <trkpt lat="45.57798" lon="6.74147">
        <ele>743</ele>
        <time>2021-05-28T10:50:39Z</time>
      </trkpt>
      <trkpt lat="45.57793" lon="6.74143">
        <ele>743.8</ele>
        <time>2021-05-28T10:50:40Z</time>
      </trkpt>
      <trkpt lat="45.57787" lon="6.74139">
        <ele>744</ele>
        <time>2021-05-28T10:50:41Z</time>
      </trkpt>
      <trkpt lat="45.57782" lon="6.74135">
        <ele>744.4</ele>
        <time>2021-05-28T10:50:42Z</time>
      </trkpt>
      <trkpt lat="45.57776" lon="6.74132">
        <ele>745.2</ele>
        <time>2021-05-28T10:50:43Z</time>
      </trkpt>
      <trkpt lat="45.57771" lon="6.74129">
        <ele>745.8</ele>
        <time>2021-05-28T10:50:44Z</time>
      </trkpt>
      <trkpt lat="45.57765" lon="6.74126">
        <ele>746.8</ele>
        <time>2021-05-28T10:50:45Z</time>
      </trkpt>
      <trkpt lat="45.5776" lon="6.74123">
        <ele>747.8</ele>
        <time>2021-05-28T10:50:46Z</time>
      </trkpt>
      <trkpt lat="45.57754" lon="6.7412">
        <ele>747.6</ele>
        <time>2021-05-28T10:50:47Z</time>
      </trkpt>
      <trkpt lat="45.57747" lon="6.74118">
        <ele>747.4</ele>
        <time>2021-05-28T10:50:48Z</time>
      </trkpt>
      <trkpt lat="45.57739" lon="6.74116">
        <ele>747</ele>
        <time>2021-05-28T10:50:49Z</time>
      </trkpt>
      <trkpt lat="45.57732" lon="6.74114">
        <ele>746.6</ele>
        <time>2021-05-28T10:50:50Z</time>
      </trkpt>
      <trkpt lat="45.57724" lon="6.74111">
        <ele>746</ele>
        <time>2021-05-28T10:50:51Z</time>
      </trkpt>
      <trkpt lat="45.57717" lon="6.74107">
        <ele>745.6</ele>
        <time>2021-05-28T10:50:52Z</time>
      </trkpt>
      <trkpt lat="45.5771" lon="6.74102">
        <ele>745.2</ele>
        <time>2021-05-28T10:50:53Z</time>
      </trkpt>
      <trkpt lat="45.57703" lon="6.74095">
        <ele>744.8</ele>
        <time>2021-05-28T10:50:54Z</time>
      </trkpt>
      <trkpt lat="45.57696" lon="6.74088">
        <ele>744.6</ele>
        <time>2021-05-28T10:50:55Z</time>
      </trkpt>
      <trkpt lat="45.5769" lon="6.74079">
        <ele>744.2</ele>
        <time>2021-05-28T10:50:56Z</time>
      </trkpt>
      <trkpt lat="45.57684" lon="6.7407">
        <ele>744</ele>
        <time>2021-05-28T10:50:57Z</time>
      </trkpt>
      <trkpt lat="45.57679" lon="6.74059">
        <ele>743.4</ele>
        <time>2021-05-28T10:50:58Z</time>
      </trkpt>
      <trkpt lat="45.57675" lon="6.74046">
        <ele>743</ele>
        <time>2021-05-28T10:50:59Z</time>
      </trkpt>
      <trkpt lat="45.57672" lon="6.74034">
        <ele>742.6</ele>
        <time>2021-05-28T10:51:00Z</time>
      </trkpt>
      <trkpt lat="45.57669" lon="6.7402">
        <ele>742.2</ele>
        <time>2021-05-28T10:51:01Z</time>
      </trkpt>
      <trkpt lat="45.57665" lon="6.74006">
        <ele>742</ele>
        <time>2021-05-28T10:51:02Z</time>
      </trkpt>
      <trkpt lat="45.57661" lon="6.73993">
        <ele>741.6</ele>
        <time>2021-05-28T10:51:03Z</time>
      </trkpt>
      <trkpt lat="45.57658" lon="6.7398">
        <ele>741.6</ele>
        <time>2021-05-28T10:51:04Z</time>
      </trkpt>
      <trkpt lat="45.57655" lon="6.73967">
        <ele>741.6</ele>
        <time>2021-05-28T10:51:05Z</time>
      </trkpt>
      <trkpt lat="45.57652" lon="6.73954">
        <ele>741.4</ele>
        <time>2021-05-28T10:51:06Z</time>
      </trkpt>
      <trkpt lat="45.57651" lon="6.7394">
        <ele>741.8</ele>
        <time>2021-05-28T10:51:07Z</time>
      </trkpt>
      <trkpt lat="45.5765" lon="6.73927">
        <ele>741.4</ele>
        <time>2021-05-28T10:51:08Z</time>
      </trkpt>
      <trkpt lat="45.5765" lon="6.73914">
        <ele>741</ele>
        <time>2021-05-28T10:51:09Z</time>
      </trkpt>
      <trkpt lat="45.57649" lon="6.73901">
        <ele>740.8</ele>
        <time>2021-05-28T10:51:10Z</time>
      </trkpt>
      <trkpt lat="45.57649" lon="6.73888">
        <ele>740.6</ele>
        <time>2021-05-28T10:51:11Z</time>
      </trkpt>
      <trkpt lat="45.57649" lon="6.73876">
        <ele>740.6</ele>
        <time>2021-05-28T10:51:12Z</time>
      </trkpt>
      <trkpt lat="45.5765" lon="6.73864">
        <ele>740.6</ele>
        <time>2021-05-28T10:51:13Z</time>
      </trkpt>
      <trkpt lat="45.57651" lon="6.73852">
        <ele>740.2</ele>
        <time>2021-05-28T10:51:14Z</time>
      </trkpt>
      <trkpt lat="45.57652" lon="6.7384">
        <ele>740.4</ele>
        <time>2021-05-28T10:51:15Z</time>
      </trkpt>
      <trkpt lat="45.57654" lon="6.73829">
        <ele>740</ele>
        <time>2021-05-28T10:51:16Z</time>
      </trkpt>
      <trkpt lat="45.57656" lon="6.73818">
        <ele>739.8</ele>
        <time>2021-05-28T10:51:17Z</time>
      </trkpt>
      <trkpt lat="45.57658" lon="6.73806">
        <ele>739.6</ele>
        <time>2021-05-28T10:51:18Z</time>
      </trkpt>
      <trkpt lat="45.57661" lon="6.73796">
        <ele>739.6</ele>
        <time>2021-05-28T10:51:19Z</time>
      </trkpt>
      <trkpt lat="45.57663" lon="6.73785">
        <ele>739.6</ele>
        <time>2021-05-28T10:51:20Z</time>
      </trkpt>
      <trkpt lat="45.57667" lon="6.73774">
        <ele>739.4</ele>
        <time>2021-05-28T10:51:21Z</time>
      </trkpt>
      <trkpt lat="45.5767" lon="6.73765">
        <ele>739.4</ele>
        <time>2021-05-28T10:51:22Z</time>
      </trkpt>
      <trkpt lat="45.57673" lon="6.73755">
        <ele>739.2</ele>
        <time>2021-05-28T10:51:23Z</time>
      </trkpt>
      <trkpt lat="45.57675" lon="6.73746">
        <ele>739.2</ele>
        <time>2021-05-28T10:51:24Z</time>
      </trkpt>
      <trkpt lat="45.57675" lon="6.73736">
        <ele>739.4</ele>
        <time>2021-05-28T10:51:25Z</time>
      </trkpt>
      <trkpt lat="45.57674" lon="6.73728">
        <ele>739.6</ele>
        <time>2021-05-28T10:51:26Z</time>
      </trkpt>
      <trkpt lat="45.57674" lon="6.7372">
        <ele>739.6</ele>
        <time>2021-05-28T10:51:27Z</time>
      </trkpt>
      <trkpt lat="45.57675" lon="6.73714">
        <ele>739.4</ele>
        <time>2021-05-28T10:51:28Z</time>
      </trkpt>
      <trkpt lat="45.57677" lon="6.7371">
        <ele>739.4</ele>
        <time>2021-05-28T10:51:29Z</time>
      </trkpt>
      <trkpt lat="45.57682" lon="6.73706">
        <ele>739.4</ele>
        <time>2021-05-28T10:51:30Z</time>
      </trkpt>
      <trkpt lat="45.57687" lon="6.73701">
        <ele>739.2</ele>
        <time>2021-05-28T10:51:31Z</time>
      </trkpt>
      <trkpt lat="45.57692" lon="6.73694">
        <ele>739.2</ele>
        <time>2021-05-28T10:51:32Z</time>
      </trkpt>
      <trkpt lat="45.57697" lon="6.73688">
        <ele>739</ele>
        <time>2021-05-28T10:51:33Z</time>
      </trkpt>
      <trkpt lat="45.57699" lon="6.73678">
        <ele>738.8</ele>
        <time>2021-05-28T10:51:34Z</time>
      </trkpt>
      <trkpt lat="45.57701" lon="6.73667">
        <ele>738.6</ele>
        <time>2021-05-28T10:51:35Z</time>
      </trkpt>
      <trkpt lat="45.57702" lon="6.73655">
        <ele>738.4</ele>
        <time>2021-05-28T10:51:36Z</time>
      </trkpt>
      <trkpt lat="45.57703" lon="6.73644">
        <ele>738.4</ele>
        <time>2021-05-28T10:51:37Z</time>
      </trkpt>
      <trkpt lat="45.57703" lon="6.73632">
        <ele>738.4</ele>
        <time>2021-05-28T10:51:38Z</time>
      </trkpt>
      <trkpt lat="45.57704" lon="6.7362">
        <ele>738</ele>
        <time>2021-05-28T10:51:39Z</time>
      </trkpt>
      <trkpt lat="45.57703" lon="6.73608">
        <ele>738</ele>
        <time>2021-05-28T10:51:40Z</time>
      </trkpt>
      <trkpt lat="45.57703" lon="6.73598">
        <ele>737.6</ele>
        <time>2021-05-28T10:51:41Z</time>
      </trkpt>
      <trkpt lat="45.57702" lon="6.73587">
        <ele>737.6</ele>
        <time>2021-05-28T10:51:42Z</time>
      </trkpt>
      <trkpt lat="45.577" lon="6.73575">
        <ele>737.6</ele>
        <time>2021-05-28T10:51:43Z</time>
      </trkpt>
      <trkpt lat="45.57698" lon="6.73563">
        <ele>737</ele>
        <time>2021-05-28T10:51:44Z</time>
      </trkpt>
      <trkpt lat="45.57695" lon="6.73551">
        <ele>737</ele>
        <time>2021-05-28T10:51:45Z</time>
      </trkpt>
      <trkpt lat="45.57691" lon="6.73539">
        <ele>737</ele>
        <time>2021-05-28T10:51:46Z</time>
      </trkpt>
      <trkpt lat="45.57687" lon="6.73528">
        <ele>737</ele>
        <time>2021-05-28T10:51:47Z</time>
      </trkpt>
      <trkpt lat="45.57684" lon="6.73518">
        <ele>737</ele>
        <time>2021-05-28T10:51:48Z</time>
      </trkpt>
      <trkpt lat="45.5768" lon="6.73508">
        <ele>737</ele>
        <time>2021-05-28T10:51:49Z</time>
      </trkpt>
      <trkpt lat="45.57676" lon="6.73498">
        <ele>736.8</ele>
        <time>2021-05-28T10:51:50Z</time>
      </trkpt>
      <trkpt lat="45.57672" lon="6.73488">
        <ele>736.8</ele>
        <time>2021-05-28T10:51:51Z</time>
      </trkpt>
      <trkpt lat="45.57668" lon="6.73478">
        <ele>737</ele>
        <time>2021-05-28T10:51:52Z</time>
      </trkpt>
      <trkpt lat="45.57665" lon="6.73467">
        <ele>737</ele>
        <time>2021-05-28T10:51:53Z</time>
      </trkpt>
      <trkpt lat="45.57663" lon="6.73457">
        <ele>737</ele>
        <time>2021-05-28T10:51:54Z</time>
      </trkpt>
      <trkpt lat="45.57663" lon="6.73446">
        <ele>736.6</ele>
        <time>2021-05-28T10:51:55Z</time>
      </trkpt>
      <trkpt lat="45.57663" lon="6.73435">
        <ele>736.4</ele>
        <time>2021-05-28T10:51:56Z</time>
      </trkpt>
      <trkpt lat="45.57664" lon="6.73424">
        <ele>736.2</ele>
        <time>2021-05-28T10:51:57Z</time>
      </trkpt>
      <trkpt lat="45.57665" lon="6.73412">
        <ele>736.2</ele>
        <time>2021-05-28T10:51:58Z</time>
      </trkpt>
      <trkpt lat="45.57663" lon="6.73401">
        <ele>736.2</ele>
        <time>2021-05-28T10:51:59Z</time>
      </trkpt>
      <trkpt lat="45.57659" lon="6.73392">
        <ele>736.2</ele>
        <time>2021-05-28T10:52:00Z</time>
      </trkpt>
      <trkpt lat="45.57656" lon="6.73382">
        <ele>736.4</ele>
        <time>2021-05-28T10:52:01Z</time>
      </trkpt>
      <trkpt lat="45.57653" lon="6.73371">
        <ele>736.6</ele>
        <time>2021-05-28T10:52:02Z</time>
      </trkpt>
      <trkpt lat="45.57648" lon="6.73362">
        <ele>736.8</ele>
        <time>2021-05-28T10:52:03Z</time>
      </trkpt>
      <trkpt lat="45.57642" lon="6.73353">
        <ele>736.8</ele>
        <time>2021-05-28T10:52:04Z</time>
      </trkpt>
      <trkpt lat="45.57638" lon="6.73343">
        <ele>736.6</ele>
        <time>2021-05-28T10:52:05Z</time>
      </trkpt>
      <trkpt lat="45.57632" lon="6.73334">
        <ele>736.6</ele>
        <time>2021-05-28T10:52:06Z</time>
      </trkpt>
      <trkpt lat="45.57626" lon="6.73325">
        <ele>736.2</ele>
        <time>2021-05-28T10:52:07Z</time>
      </trkpt>
      <trkpt lat="45.5762" lon="6.73316">
        <ele>736.2</ele>
        <time>2021-05-28T10:52:08Z</time>
      </trkpt>
      <trkpt lat="45.57614" lon="6.73308">
        <ele>736</ele>
        <time>2021-05-28T10:52:09Z</time>
      </trkpt>
      <trkpt lat="45.57608" lon="6.733">
        <ele>735.8</ele>
        <time>2021-05-28T10:52:10Z</time>
      </trkpt>
      <trkpt lat="45.57601" lon="6.73292">
        <ele>735.8</ele>
        <time>2021-05-28T10:52:11Z</time>
      </trkpt>
      <trkpt lat="45.57595" lon="6.73285">
        <ele>735.6</ele>
        <time>2021-05-28T10:52:12Z</time>
      </trkpt>
      <trkpt lat="45.57588" lon="6.73277">
        <ele>735.4</ele>
        <time>2021-05-28T10:52:13Z</time>
      </trkpt>
      <trkpt lat="45.57581" lon="6.7327">
        <ele>735.4</ele>
        <time>2021-05-28T10:52:14Z</time>
      </trkpt>
      <trkpt lat="45.57574" lon="6.73263">
        <ele>735.2</ele>
        <time>2021-05-28T10:52:15Z</time>
      </trkpt>
      <trkpt lat="45.57567" lon="6.73257">
        <ele>734.8</ele>
        <time>2021-05-28T10:52:16Z</time>
      </trkpt>
      <trkpt lat="45.5756" lon="6.73252">
        <ele>734.8</ele>
        <time>2021-05-28T10:52:17Z</time>
      </trkpt>
      <trkpt lat="45.57552" lon="6.73246">
        <ele>734.4</ele>
        <time>2021-05-28T10:52:18Z</time>
      </trkpt>
      <trkpt lat="45.57545" lon="6.7324">
        <ele>734.2</ele>
        <time>2021-05-28T10:52:19Z</time>
      </trkpt>
      <trkpt lat="45.57538" lon="6.73234">
        <ele>734</ele>
        <time>2021-05-28T10:52:20Z</time>
      </trkpt>
      <trkpt lat="45.5753" lon="6.73228">
        <ele>733.8</ele>
        <time>2021-05-28T10:52:21Z</time>
      </trkpt>
      <trkpt lat="45.57523" lon="6.73222">
        <ele>733.6</ele>
        <time>2021-05-28T10:52:22Z</time>
      </trkpt>
      <trkpt lat="45.57516" lon="6.73216">
        <ele>733.6</ele>
        <time>2021-05-28T10:52:23Z</time>
      </trkpt>
      <trkpt lat="45.57508" lon="6.73211">
        <ele>733.6</ele>
        <time>2021-05-28T10:52:24Z</time>
      </trkpt>
      <trkpt lat="45.57501" lon="6.73206">
        <ele>734</ele>
        <time>2021-05-28T10:52:25Z</time>
      </trkpt>
      <trkpt lat="45.57494" lon="6.73201">
        <ele>734.2</ele>
        <time>2021-05-28T10:52:26Z</time>
      </trkpt>
      <trkpt lat="45.57487" lon="6.73196">
        <ele>734.4</ele>
        <time>2021-05-28T10:52:27Z</time>
      </trkpt>
      <trkpt lat="45.57479" lon="6.7319">
        <ele>734.4</ele>
        <time>2021-05-28T10:52:28Z</time>
      </trkpt>
      <trkpt lat="45.57473" lon="6.73183">
        <ele>734.4</ele>
        <time>2021-05-28T10:52:29Z</time>
      </trkpt>
      <trkpt lat="45.57467" lon="6.73175">
        <ele>734.4</ele>
        <time>2021-05-28T10:52:30Z</time>
      </trkpt>
      <trkpt lat="45.5746" lon="6.73168">
        <ele>734.2</ele>
        <time>2021-05-28T10:52:31Z</time>
      </trkpt>
      <trkpt lat="45.57454" lon="6.73159">
        <ele>734.2</ele>
        <time>2021-05-28T10:52:32Z</time>
      </trkpt>
      <trkpt lat="45.57449" lon="6.7315">
        <ele>734.2</ele>
        <time>2021-05-28T10:52:33Z</time>
      </trkpt>
      <trkpt lat="45.57444" lon="6.7314">
        <ele>734.2</ele>
        <time>2021-05-28T10:52:34Z</time>
      </trkpt>
      <trkpt lat="45.5744" lon="6.73129">
        <ele>734</ele>
        <time>2021-05-28T10:52:35Z</time>
      </trkpt>
      <trkpt lat="45.57436" lon="6.73118">
        <ele>734</ele>
        <time>2021-05-28T10:52:36Z</time>
      </trkpt>
      <trkpt lat="45.57433" lon="6.73108">
        <ele>734</ele>
        <time>2021-05-28T10:52:37Z</time>
      </trkpt>
      <trkpt lat="45.57431" lon="6.73097">
        <ele>734.6</ele>
        <time>2021-05-28T10:52:38Z</time>
      </trkpt>
      <trkpt lat="45.57427" lon="6.73086">
        <ele>734.8</ele>
        <time>2021-05-28T10:52:39Z</time>
      </trkpt>
      <trkpt lat="45.57424" lon="6.73076">
        <ele>735.2</ele>
        <time>2021-05-28T10:52:40Z</time>
      </trkpt>
      <trkpt lat="45.5742" lon="6.73065">
        <ele>735.4</ele>
        <time>2021-05-28T10:52:41Z</time>
      </trkpt>
      <trkpt lat="45.57416" lon="6.73054">
        <ele>735</ele>
        <time>2021-05-28T10:52:42Z</time>
      </trkpt>
      <trkpt lat="45.57413" lon="6.73042">
        <ele>734.8</ele>
        <time>2021-05-28T10:52:43Z</time>
      </trkpt>
      <trkpt lat="45.57412" lon="6.7303">
        <ele>735</ele>
        <time>2021-05-28T10:52:44Z</time>
      </trkpt>
      <trkpt lat="45.57411" lon="6.73018">
        <ele>735</ele>
        <time>2021-05-28T10:52:45Z</time>
      </trkpt>
      <trkpt lat="45.57409" lon="6.73006">
        <ele>735</ele>
        <time>2021-05-28T10:52:46Z</time>
      </trkpt>
      <trkpt lat="45.57408" lon="6.72995">
        <ele>734.8</ele>
        <time>2021-05-28T10:52:47Z</time>
      </trkpt>
      <trkpt lat="45.57407" lon="6.72983">
        <ele>734.6</ele>
        <time>2021-05-28T10:52:48Z</time>
      </trkpt>
      <trkpt lat="45.57408" lon="6.72972">
        <ele>734.8</ele>
        <time>2021-05-28T10:52:49Z</time>
      </trkpt>
      <trkpt lat="45.5741" lon="6.72961">
        <ele>734.8</ele>
        <time>2021-05-28T10:52:50Z</time>
      </trkpt>
      <trkpt lat="45.57411" lon="6.7295">
        <ele>734.6</ele>
        <time>2021-05-28T10:52:51Z</time>
      </trkpt>
      <trkpt lat="45.57412" lon="6.72939">
        <ele>734.2</ele>
        <time>2021-05-28T10:52:52Z</time>
      </trkpt>
      <trkpt lat="45.57414" lon="6.72927">
        <ele>734.4</ele>
        <time>2021-05-28T10:52:53Z</time>
      </trkpt>
      <trkpt lat="45.57415" lon="6.72915">
        <ele>734.2</ele>
        <time>2021-05-28T10:52:54Z</time>
      </trkpt>
      <trkpt lat="45.57415" lon="6.72903">
        <ele>733.6</ele>
        <time>2021-05-28T10:52:55Z</time>
      </trkpt>
      <trkpt lat="45.57414" lon="6.72891">
        <ele>733.2</ele>
        <time>2021-05-28T10:52:56Z</time>
      </trkpt>
      <trkpt lat="45.57412" lon="6.72879">
        <ele>733.2</ele>
        <time>2021-05-28T10:52:57Z</time>
      </trkpt>
      <trkpt lat="45.57408" lon="6.72868">
        <ele>733</ele>
        <time>2021-05-28T10:52:58Z</time>
      </trkpt>
      <trkpt lat="45.57404" lon="6.72859">
        <ele>732.2</ele>
        <time>2021-05-28T10:52:59Z</time>
      </trkpt>
      <trkpt lat="45.57397" lon="6.72851">
        <ele>732</ele>
        <time>2021-05-28T10:53:00Z</time>
      </trkpt>
      <trkpt lat="45.57389" lon="6.72844">
        <ele>731.8</ele>
        <time>2021-05-28T10:53:01Z</time>
      </trkpt>
      <trkpt lat="45.57381" lon="6.72839">
        <ele>731.8</ele>
        <time>2021-05-28T10:53:02Z</time>
      </trkpt>
      <trkpt lat="45.57372" lon="6.72834">
        <ele>732.2</ele>
        <time>2021-05-28T10:53:03Z</time>
      </trkpt>
      <trkpt lat="45.57363" lon="6.72831">
        <ele>731.6</ele>
        <time>2021-05-28T10:53:04Z</time>
      </trkpt>
      <trkpt lat="45.57354" lon="6.72826">
        <ele>732</ele>
        <time>2021-05-28T10:53:05Z</time>
      </trkpt>
      <trkpt lat="45.57346" lon="6.72823">
        <ele>732</ele>
        <time>2021-05-28T10:53:06Z</time>
      </trkpt>
      <trkpt lat="45.57338" lon="6.72819">
        <ele>732</ele>
        <time>2021-05-28T10:53:07Z</time>
      </trkpt>
      <trkpt lat="45.5733" lon="6.72816">
        <ele>732.2</ele>
        <time>2021-05-28T10:53:08Z</time>
      </trkpt>
      <trkpt lat="45.57322" lon="6.72812">
        <ele>732.2</ele>
        <time>2021-05-28T10:53:09Z</time>
      </trkpt>
      <trkpt lat="45.57314" lon="6.72809">
        <ele>732.4</ele>
        <time>2021-05-28T10:53:10Z</time>
      </trkpt>
      <trkpt lat="45.57306" lon="6.72806">
        <ele>732.2</ele>
        <time>2021-05-28T10:53:11Z</time>
      </trkpt>
      <trkpt lat="45.57298" lon="6.72802">
        <ele>732</ele>
        <time>2021-05-28T10:53:12Z</time>
      </trkpt>
      <trkpt lat="45.5729" lon="6.72798">
        <ele>732</ele>
        <time>2021-05-28T10:53:13Z</time>
      </trkpt>
      <trkpt lat="45.57282" lon="6.72794">
        <ele>732.4</ele>
        <time>2021-05-28T10:53:14Z</time>
      </trkpt>
      <trkpt lat="45.57274" lon="6.72789">
        <ele>732.4</ele>
        <time>2021-05-28T10:53:15Z</time>
      </trkpt>
      <trkpt lat="45.57267" lon="6.72783">
        <ele>732.4</ele>
        <time>2021-05-28T10:53:16Z</time>
      </trkpt>
      <trkpt lat="45.5726" lon="6.72776">
        <ele>732.6</ele>
        <time>2021-05-28T10:53:17Z</time>
      </trkpt>
      <trkpt lat="45.57253" lon="6.72769">
        <ele>732.6</ele>
        <time>2021-05-28T10:53:18Z</time>
      </trkpt>
      <trkpt lat="45.57247" lon="6.72761">
        <ele>732.4</ele>
        <time>2021-05-28T10:53:19Z</time>
      </trkpt>
      <trkpt lat="45.57241" lon="6.72753">
        <ele>732.2</ele>
        <time>2021-05-28T10:53:20Z</time>
      </trkpt>
      <trkpt lat="45.57235" lon="6.72744">
        <ele>732.4</ele>
        <time>2021-05-28T10:53:21Z</time>
      </trkpt>
      <trkpt lat="45.5723" lon="6.72734">
        <ele>732.6</ele>
        <time>2021-05-28T10:53:22Z</time>
      </trkpt>
      <trkpt lat="45.57225" lon="6.72724">
        <ele>732.6</ele>
        <time>2021-05-28T10:53:23Z</time>
      </trkpt>
      <trkpt lat="45.5722" lon="6.72714">
        <ele>732.6</ele>
        <time>2021-05-28T10:53:24Z</time>
      </trkpt>
      <trkpt lat="45.57214" lon="6.72705">
        <ele>732.4</ele>
        <time>2021-05-28T10:53:25Z</time>
      </trkpt>
      <trkpt lat="45.57209" lon="6.72696">
        <ele>732</ele>
        <time>2021-05-28T10:53:26Z</time>
      </trkpt>
      <trkpt lat="45.57203" lon="6.72687">
        <ele>731.8</ele>
        <time>2021-05-28T10:53:27Z</time>
      </trkpt>
      <trkpt lat="45.57197" lon="6.72679">
        <ele>731.4</ele>
        <time>2021-05-28T10:53:28Z</time>
      </trkpt>
      <trkpt lat="45.57191" lon="6.7267">
        <ele>731.2</ele>
        <time>2021-05-28T10:53:29Z</time>
      </trkpt>
      <trkpt lat="45.57185" lon="6.72662">
        <ele>731</ele>
        <time>2021-05-28T10:53:30Z</time>
      </trkpt>
      <trkpt lat="45.5718" lon="6.72653">
        <ele>730.6</ele>
        <time>2021-05-28T10:53:31Z</time>
      </trkpt>
      <trkpt lat="45.57175" lon="6.72643">
        <ele>730.6</ele>
        <time>2021-05-28T10:53:32Z</time>
      </trkpt>
      <trkpt lat="45.57171" lon="6.72632">
        <ele>730.6</ele>
        <time>2021-05-28T10:53:33Z</time>
      </trkpt>
      <trkpt lat="45.57167" lon="6.72621">
        <ele>730.4</ele>
        <time>2021-05-28T10:53:34Z</time>
      </trkpt>
      <trkpt lat="45.57164" lon="6.7261">
        <ele>730.4</ele>
        <time>2021-05-28T10:53:35Z</time>
      </trkpt>
      <trkpt lat="45.5716" lon="6.72599">
        <ele>730.2</ele>
        <time>2021-05-28T10:53:36Z</time>
      </trkpt>
      <trkpt lat="45.57155" lon="6.72588">
        <ele>729.8</ele>
        <time>2021-05-28T10:53:37Z</time>
      </trkpt>
      <trkpt lat="45.57149" lon="6.72579">
        <ele>729.6</ele>
        <time>2021-05-28T10:53:38Z</time>
      </trkpt>
      <trkpt lat="45.57143" lon="6.72572">
        <ele>729.6</ele>
        <time>2021-05-28T10:53:39Z</time>
      </trkpt>
      <trkpt lat="45.57135" lon="6.72567">
        <ele>729</ele>
        <time>2021-05-28T10:53:40Z</time>
      </trkpt>
      <trkpt lat="45.57127" lon="6.72563">
        <ele>729</ele>
        <time>2021-05-28T10:53:41Z</time>
      </trkpt>
      <trkpt lat="45.57119" lon="6.72558">
        <ele>729</ele>
        <time>2021-05-28T10:53:42Z</time>
      </trkpt>
      <trkpt lat="45.57111" lon="6.72553">
        <ele>729</ele>
        <time>2021-05-28T10:53:43Z</time>
      </trkpt>
      <trkpt lat="45.57104" lon="6.72547">
        <ele>729</ele>
        <time>2021-05-28T10:53:44Z</time>
      </trkpt>
      <trkpt lat="45.57097" lon="6.72539">
        <ele>729</ele>
        <time>2021-05-28T10:53:45Z</time>
      </trkpt>
      <trkpt lat="45.57091" lon="6.72531">
        <ele>729</ele>
        <time>2021-05-28T10:53:46Z</time>
      </trkpt>
      <trkpt lat="45.57085" lon="6.72523">
        <ele>729</ele>
        <time>2021-05-28T10:53:47Z</time>
      </trkpt>
      <trkpt lat="45.57079" lon="6.72514">
        <ele>728.8</ele>
        <time>2021-05-28T10:53:48Z</time>
      </trkpt>
      <trkpt lat="45.57074" lon="6.72505">
        <ele>728.8</ele>
        <time>2021-05-28T10:53:49Z</time>
      </trkpt>
      <trkpt lat="45.5707" lon="6.72494">
        <ele>728.8</ele>
        <time>2021-05-28T10:53:50Z</time>
      </trkpt>
      <trkpt lat="45.57066" lon="6.72484">
        <ele>728.4</ele>
        <time>2021-05-28T10:53:51Z</time>
      </trkpt>
      <trkpt lat="45.57061" lon="6.72475">
        <ele>728.2</ele>
        <time>2021-05-28T10:53:52Z</time>
      </trkpt>
      <trkpt lat="45.57055" lon="6.72466">
        <ele>728</ele>
        <time>2021-05-28T10:53:53Z</time>
      </trkpt>
      <trkpt lat="45.57048" lon="6.72459">
        <ele>727.4</ele>
        <time>2021-05-28T10:53:54Z</time>
      </trkpt>
      <trkpt lat="45.57041" lon="6.72453">
        <ele>727.4</ele>
        <time>2021-05-28T10:53:55Z</time>
      </trkpt>
      <trkpt lat="45.57034" lon="6.72447">
        <ele>727.2</ele>
        <time>2021-05-28T10:53:56Z</time>
      </trkpt>
      <trkpt lat="45.57026" lon="6.72441">
        <ele>727.2</ele>
        <time>2021-05-28T10:53:57Z</time>
      </trkpt>
      <trkpt lat="45.57019" lon="6.72434">
        <ele>727.2</ele>
        <time>2021-05-28T10:53:58Z</time>
      </trkpt>
      <trkpt lat="45.57012" lon="6.72428">
        <ele>726.8</ele>
        <time>2021-05-28T10:53:59Z</time>
      </trkpt>
      <trkpt lat="45.57004" lon="6.72422">
        <ele>726.8</ele>
        <time>2021-05-28T10:54:00Z</time>
      </trkpt>
      <trkpt lat="45.56997" lon="6.72416">
        <ele>726.6</ele>
        <time>2021-05-28T10:54:01Z</time>
      </trkpt>
      <trkpt lat="45.5699" lon="6.72409">
        <ele>726.4</ele>
        <time>2021-05-28T10:54:02Z</time>
      </trkpt>
      <trkpt lat="45.56983" lon="6.72402">
        <ele>726.4</ele>
        <time>2021-05-28T10:54:03Z</time>
      </trkpt>
      <trkpt lat="45.56976" lon="6.72396">
        <ele>726.4</ele>
        <time>2021-05-28T10:54:04Z</time>
      </trkpt>
      <trkpt lat="45.56968" lon="6.7239">
        <ele>726.4</ele>
        <time>2021-05-28T10:54:05Z</time>
      </trkpt>
      <trkpt lat="45.56961" lon="6.72384">
        <ele>726.6</ele>
        <time>2021-05-28T10:54:06Z</time>
      </trkpt>
      <trkpt lat="45.56953" lon="6.72379">
        <ele>726.6</ele>
        <time>2021-05-28T10:54:07Z</time>
      </trkpt>
      <trkpt lat="45.56946" lon="6.72373">
        <ele>726.8</ele>
        <time>2021-05-28T10:54:08Z</time>
      </trkpt>
      <trkpt lat="45.56938" lon="6.72367">
        <ele>726.8</ele>
        <time>2021-05-28T10:54:09Z</time>
      </trkpt>
      <trkpt lat="45.5693" lon="6.72362">
        <ele>726.6</ele>
        <time>2021-05-28T10:54:10Z</time>
      </trkpt>
      <trkpt lat="45.56922" lon="6.72358">
        <ele>726.6</ele>
        <time>2021-05-28T10:54:11Z</time>
      </trkpt>
      <trkpt lat="45.56913" lon="6.72354">
        <ele>726.6</ele>
        <time>2021-05-28T10:54:12Z</time>
      </trkpt>
      <trkpt lat="45.56905" lon="6.7235">
        <ele>726.6</ele>
        <time>2021-05-28T10:54:13Z</time>
      </trkpt>
      <trkpt lat="45.56897" lon="6.72346">
        <ele>726.6</ele>
        <time>2021-05-28T10:54:14Z</time>
      </trkpt>
      <trkpt lat="45.56889" lon="6.72342">
        <ele>726.6</ele>
        <time>2021-05-28T10:54:15Z</time>
      </trkpt>
      <trkpt lat="45.56881" lon="6.72338">
        <ele>726.4</ele>
        <time>2021-05-28T10:54:16Z</time>
      </trkpt>
      <trkpt lat="45.56873" lon="6.72333">
        <ele>726.2</ele>
        <time>2021-05-28T10:54:17Z</time>
      </trkpt>
      <trkpt lat="45.56866" lon="6.72328">
        <ele>726.4</ele>
        <time>2021-05-28T10:54:18Z</time>
      </trkpt>
      <trkpt lat="45.56859" lon="6.72323">
        <ele>726.4</ele>
        <time>2021-05-28T10:54:19Z</time>
      </trkpt>
      <trkpt lat="45.56852" lon="6.72317">
        <ele>726.6</ele>
        <time>2021-05-28T10:54:20Z</time>
      </trkpt>
      <trkpt lat="45.56846" lon="6.7231">
        <ele>726.4</ele>
        <time>2021-05-28T10:54:21Z</time>
      </trkpt>
      <trkpt lat="45.56841" lon="6.72302">
        <ele>725.8</ele>
        <time>2021-05-28T10:54:22Z</time>
      </trkpt>
      <trkpt lat="45.56837" lon="6.72293">
        <ele>725.6</ele>
        <time>2021-05-28T10:54:23Z</time>
      </trkpt>
      <trkpt lat="45.56834" lon="6.72283">
        <ele>725.4</ele>
        <time>2021-05-28T10:54:24Z</time>
      </trkpt>
      <trkpt lat="45.5683" lon="6.72272">
        <ele>725.2</ele>
        <time>2021-05-28T10:54:25Z</time>
      </trkpt>
      <trkpt lat="45.56827" lon="6.72261">
        <ele>725.6</ele>
        <time>2021-05-28T10:54:26Z</time>
      </trkpt>
      <trkpt lat="45.56824" lon="6.72251">
        <ele>726</ele>
        <time>2021-05-28T10:54:27Z</time>
      </trkpt>
      <trkpt lat="45.56822" lon="6.7224">
        <ele>726.2</ele>
        <time>2021-05-28T10:54:28Z</time>
      </trkpt>
      <trkpt lat="45.5682" lon="6.72229">
        <ele>726.2</ele>
        <time>2021-05-28T10:54:29Z</time>
      </trkpt>
      <trkpt lat="45.56818" lon="6.72218">
        <ele>726.4</ele>
        <time>2021-05-28T10:54:30Z</time>
      </trkpt>
      <trkpt lat="45.56816" lon="6.72207">
        <ele>726.6</ele>
        <time>2021-05-28T10:54:31Z</time>
      </trkpt>
      <trkpt lat="45.56814" lon="6.72196">
        <ele>726.4</ele>
        <time>2021-05-28T10:54:32Z</time>
      </trkpt>
      <trkpt lat="45.56813" lon="6.72184">
        <ele>726.6</ele>
        <time>2021-05-28T10:54:33Z</time>
      </trkpt>
      <trkpt lat="45.56811" lon="6.72172">
        <ele>726</ele>
        <time>2021-05-28T10:54:34Z</time>
      </trkpt>
      <trkpt lat="45.5681" lon="6.7216">
        <ele>725.2</ele>
        <time>2021-05-28T10:54:35Z</time>
      </trkpt>
      <trkpt lat="45.56808" lon="6.72148">
        <ele>724.8</ele>
        <time>2021-05-28T10:54:36Z</time>
      </trkpt>
      <trkpt lat="45.56807" lon="6.72136">
        <ele>724.6</ele>
        <time>2021-05-28T10:54:37Z</time>
      </trkpt>
      <trkpt lat="45.56806" lon="6.72124">
        <ele>724.2</ele>
        <time>2021-05-28T10:54:38Z</time>
      </trkpt>
      <trkpt lat="45.56805" lon="6.72112">
        <ele>724.2</ele>
        <time>2021-05-28T10:54:39Z</time>
      </trkpt>
      <trkpt lat="45.56805" lon="6.72101">
        <ele>724</ele>
        <time>2021-05-28T10:54:40Z</time>
      </trkpt>
      <trkpt lat="45.56805" lon="6.72089">
        <ele>723.6</ele>
        <time>2021-05-28T10:54:41Z</time>
      </trkpt>
      <trkpt lat="45.56806" lon="6.72078">
        <ele>723.6</ele>
        <time>2021-05-28T10:54:42Z</time>
      </trkpt>
      <trkpt lat="45.56807" lon="6.72066">
        <ele>723.8</ele>
        <time>2021-05-28T10:54:43Z</time>
      </trkpt>
      <trkpt lat="45.56808" lon="6.72055">
        <ele>724</ele>
        <time>2021-05-28T10:54:44Z</time>
      </trkpt>
      <trkpt lat="45.56809" lon="6.72044">
        <ele>724.2</ele>
        <time>2021-05-28T10:54:45Z</time>
      </trkpt>
      <trkpt lat="45.5681" lon="6.72032">
        <ele>724.2</ele>
        <time>2021-05-28T10:54:46Z</time>
      </trkpt>
      <trkpt lat="45.56812" lon="6.72022">
        <ele>724.6</ele>
        <time>2021-05-28T10:54:47Z</time>
      </trkpt>
      <trkpt lat="45.56812" lon="6.72011">
        <ele>724.6</ele>
        <time>2021-05-28T10:54:48Z</time>
      </trkpt>
      <trkpt lat="45.56813" lon="6.72">
        <ele>724.8</ele>
        <time>2021-05-28T10:54:49Z</time>
      </trkpt>
      <trkpt lat="45.56813" lon="6.71989">
        <ele>725</ele>
        <time>2021-05-28T10:54:50Z</time>
      </trkpt>
      <trkpt lat="45.56813" lon="6.71978">
        <ele>725.2</ele>
        <time>2021-05-28T10:54:51Z</time>
      </trkpt>
      <trkpt lat="45.56813" lon="6.71967">
        <ele>725.4</ele>
        <time>2021-05-28T10:54:52Z</time>
      </trkpt>
      <trkpt lat="45.56813" lon="6.71956">
        <ele>725.4</ele>
        <time>2021-05-28T10:54:53Z</time>
      </trkpt>
      <trkpt lat="45.56813" lon="6.71945">
        <ele>725.6</ele>
        <time>2021-05-28T10:54:54Z</time>
      </trkpt>
      <trkpt lat="45.56813" lon="6.71934">
        <ele>725.8</ele>
        <time>2021-05-28T10:54:55Z</time>
      </trkpt>
      <trkpt lat="45.56812" lon="6.71922">
        <ele>726</ele>
        <time>2021-05-28T10:54:56Z</time>
      </trkpt>
      <trkpt lat="45.56812" lon="6.7191">
        <ele>726</ele>
        <time>2021-05-28T10:54:57Z</time>
      </trkpt>
      <trkpt lat="45.56811" lon="6.71899">
        <ele>726</ele>
        <time>2021-05-28T10:54:58Z</time>
      </trkpt>
      <trkpt lat="45.56809" lon="6.71888">
        <ele>726.2</ele>
        <time>2021-05-28T10:54:59Z</time>
      </trkpt>
      <trkpt lat="45.56806" lon="6.71875">
        <ele>725.8</ele>
        <time>2021-05-28T10:55:00Z</time>
      </trkpt>
      <trkpt lat="45.56804" lon="6.71864">
        <ele>725.6</ele>
        <time>2021-05-28T10:55:01Z</time>
      </trkpt>
      <trkpt lat="45.56802" lon="6.71853">
        <ele>725.6</ele>
        <time>2021-05-28T10:55:02Z</time>
      </trkpt>
      <trkpt lat="45.56801" lon="6.71842">
        <ele>725.6</ele>
        <time>2021-05-28T10:55:03Z</time>
      </trkpt>
      <trkpt lat="45.568" lon="6.7183">
        <ele>726</ele>
        <time>2021-05-28T10:55:04Z</time>
      </trkpt>
      <trkpt lat="45.56797" lon="6.71818">
        <ele>726</ele>
        <time>2021-05-28T10:55:05Z</time>
      </trkpt>
      <trkpt lat="45.56794" lon="6.71807">
        <ele>726</ele>
        <time>2021-05-28T10:55:06Z</time>
      </trkpt>
      <trkpt lat="45.5679" lon="6.71795">
        <ele>726</ele>
        <time>2021-05-28T10:55:07Z</time>
      </trkpt>
      <trkpt lat="45.56786" lon="6.71783">
        <ele>725.8</ele>
        <time>2021-05-28T10:55:08Z</time>
      </trkpt>
      <trkpt lat="45.56781" lon="6.71773">
        <ele>725.6</ele>
        <time>2021-05-28T10:55:09Z</time>
      </trkpt>
      <trkpt lat="45.56776" lon="6.71763">
        <ele>725.6</ele>
        <time>2021-05-28T10:55:10Z</time>
      </trkpt>
      <trkpt lat="45.5677" lon="6.71753">
        <ele>725.4</ele>
        <time>2021-05-28T10:55:11Z</time>
      </trkpt>
      <trkpt lat="45.56763" lon="6.71745">
        <ele>725.2</ele>
        <time>2021-05-28T10:55:12Z</time>
      </trkpt>
      <trkpt lat="45.56756" lon="6.71737">
        <ele>725.2</ele>
        <time>2021-05-28T10:55:13Z</time>
      </trkpt>
      <trkpt lat="45.5675" lon="6.71728">
        <ele>725</ele>
        <time>2021-05-28T10:55:14Z</time>
      </trkpt>
      <trkpt lat="45.56744" lon="6.7172">
        <ele>724.8</ele>
        <time>2021-05-28T10:55:15Z</time>
      </trkpt>
      <trkpt lat="45.56738" lon="6.71713">
        <ele>724.4</ele>
        <time>2021-05-28T10:55:16Z</time>
      </trkpt>
      <trkpt lat="45.56732" lon="6.71704">
        <ele>724.4</ele>
        <time>2021-05-28T10:55:17Z</time>
      </trkpt>
      <trkpt lat="45.56727" lon="6.71695">
        <ele>724.6</ele>
        <time>2021-05-28T10:55:18Z</time>
      </trkpt>
      <trkpt lat="45.56721" lon="6.71685">
        <ele>725</ele>
        <time>2021-05-28T10:55:19Z</time>
      </trkpt>
      <trkpt lat="45.56715" lon="6.71678">
        <ele>725</ele>
        <time>2021-05-28T10:55:20Z</time>
      </trkpt>
      <trkpt lat="45.56709" lon="6.71669">
        <ele>725</ele>
        <time>2021-05-28T10:55:21Z</time>
      </trkpt>
      <trkpt lat="45.56703" lon="6.7166">
        <ele>725.4</ele>
        <time>2021-05-28T10:55:22Z</time>
      </trkpt>
      <trkpt lat="45.56697" lon="6.71653">
        <ele>725.4</ele>
        <time>2021-05-28T10:55:23Z</time>
      </trkpt>
      <trkpt lat="45.56691" lon="6.71645">
        <ele>725.6</ele>
        <time>2021-05-28T10:55:24Z</time>
      </trkpt>
      <trkpt lat="45.56685" lon="6.71637">
        <ele>725.6</ele>
        <time>2021-05-28T10:55:25Z</time>
      </trkpt>
      <trkpt lat="45.56681" lon="6.71628">
        <ele>725.8</ele>
        <time>2021-05-28T10:55:26Z</time>
      </trkpt>
      <trkpt lat="45.56678" lon="6.71619">
        <ele>725.8</ele>
        <time>2021-05-28T10:55:27Z</time>
      </trkpt>
      <trkpt lat="45.56677" lon="6.71609">
        <ele>726.2</ele>
        <time>2021-05-28T10:55:28Z</time>
      </trkpt>
      <trkpt lat="45.56676" lon="6.71601">
        <ele>726.6</ele>
        <time>2021-05-28T10:55:29Z</time>
      </trkpt>
      <trkpt lat="45.56676" lon="6.7159">
        <ele>727.2</ele>
        <time>2021-05-28T10:55:30Z</time>
      </trkpt>
      <trkpt lat="45.56675" lon="6.71582">
        <ele>727.8</ele>
        <time>2021-05-28T10:55:31Z</time>
      </trkpt>
      <trkpt lat="45.56673" lon="6.71574">
        <ele>728.4</ele>
        <time>2021-05-28T10:55:32Z</time>
      </trkpt>
      <trkpt lat="45.56671" lon="6.71567">
        <ele>729</ele>
        <time>2021-05-28T10:55:33Z</time>
      </trkpt>
      <trkpt lat="45.56669" lon="6.7156">
        <ele>729.2</ele>
        <time>2021-05-28T10:55:34Z</time>
      </trkpt>
      <trkpt lat="45.56667" lon="6.71553">
        <ele>729.8</ele>
        <time>2021-05-28T10:55:35Z</time>
      </trkpt>
      <trkpt lat="45.56666" lon="6.71545">
        <ele>730</ele>
        <time>2021-05-28T10:55:36Z</time>
      </trkpt>
      <trkpt lat="45.56664" lon="6.71538">
        <ele>730.2</ele>
        <time>2021-05-28T10:55:37Z</time>
      </trkpt>
      <trkpt lat="45.56663" lon="6.7153">
        <ele>730.8</ele>
        <time>2021-05-28T10:55:38Z</time>
      </trkpt>
      <trkpt lat="45.56662" lon="6.71523">
        <ele>731.4</ele>
        <time>2021-05-28T10:55:39Z</time>
      </trkpt>
      <trkpt lat="45.5666" lon="6.71515">
        <ele>732</ele>
        <time>2021-05-28T10:55:40Z</time>
      </trkpt>
      <trkpt lat="45.56658" lon="6.71507">
        <ele>732.4</ele>
        <time>2021-05-28T10:55:41Z</time>
      </trkpt>
      <trkpt lat="45.56655" lon="6.71498">
        <ele>732.8</ele>
        <time>2021-05-28T10:55:42Z</time>
      </trkpt>
      <trkpt lat="45.56653" lon="6.7149">
        <ele>732.6</ele>
        <time>2021-05-28T10:55:43Z</time>
      </trkpt>
      <trkpt lat="45.56651" lon="6.71481">
        <ele>732.6</ele>
        <time>2021-05-28T10:55:44Z</time>
      </trkpt>
      <trkpt lat="45.56649" lon="6.71472">
        <ele>732.4</ele>
        <time>2021-05-28T10:55:45Z</time>
      </trkpt>
      <trkpt lat="45.56646" lon="6.71462">
        <ele>732.4</ele>
        <time>2021-05-28T10:55:46Z</time>
      </trkpt>
      <trkpt lat="45.56643" lon="6.71452">
        <ele>732.2</ele>
        <time>2021-05-28T10:55:47Z</time>
      </trkpt>
      <trkpt lat="45.56641" lon="6.71441">
        <ele>732</ele>
        <time>2021-05-28T10:55:48Z</time>
      </trkpt>
      <trkpt lat="45.5664" lon="6.71429">
        <ele>731.8</ele>
        <time>2021-05-28T10:55:49Z</time>
      </trkpt>
      <trkpt lat="45.56639" lon="6.71418">
        <ele>731.6</ele>
        <time>2021-05-28T10:55:50Z</time>
      </trkpt>
      <trkpt lat="45.56641" lon="6.71406">
        <ele>731.2</ele>
        <time>2021-05-28T10:55:51Z</time>
      </trkpt>
      <trkpt lat="45.56644" lon="6.71394">
        <ele>730.8</ele>
        <time>2021-05-28T10:55:52Z</time>
      </trkpt>
      <trkpt lat="45.56645" lon="6.71381">
        <ele>730.2</ele>
        <time>2021-05-28T10:55:53Z</time>
      </trkpt>
      <trkpt lat="45.56645" lon="6.7137">
        <ele>729.6</ele>
        <time>2021-05-28T10:55:54Z</time>
      </trkpt>
      <trkpt lat="45.56643" lon="6.7136">
        <ele>729</ele>
        <time>2021-05-28T10:55:55Z</time>
      </trkpt>
      <trkpt lat="45.56643" lon="6.7135">
        <ele>728.4</ele>
        <time>2021-05-28T10:55:56Z</time>
      </trkpt>
      <trkpt lat="45.56643" lon="6.7134">
        <ele>728.2</ele>
        <time>2021-05-28T10:55:57Z</time>
      </trkpt>
      <trkpt lat="45.56645" lon="6.7133">
        <ele>727.4</ele>
        <time>2021-05-28T10:55:58Z</time>
      </trkpt>
      <trkpt lat="45.56648" lon="6.7132">
        <ele>727</ele>
        <time>2021-05-28T10:55:59Z</time>
      </trkpt>
      <trkpt lat="45.56651" lon="6.71309">
        <ele>726.6</ele>
        <time>2021-05-28T10:56:00Z</time>
      </trkpt>
      <trkpt lat="45.56652" lon="6.71301">
        <ele>726</ele>
        <time>2021-05-28T10:56:01Z</time>
      </trkpt>
      <trkpt lat="45.56652" lon="6.71294">
        <ele>725.8</ele>
        <time>2021-05-28T10:56:02Z</time>
      </trkpt>
      <trkpt lat="45.56649" lon="6.71288">
        <ele>726</ele>
        <time>2021-05-28T10:56:03Z</time>
      </trkpt>
      <trkpt lat="45.56644" lon="6.71281">
        <ele>725.8</ele>
        <time>2021-05-28T10:56:04Z</time>
      </trkpt>
      <trkpt lat="45.56637" lon="6.71275">
        <ele>725.8</ele>
        <time>2021-05-28T10:56:05Z</time>
      </trkpt>
      <trkpt lat="45.56629" lon="6.71268">
        <ele>725.8</ele>
        <time>2021-05-28T10:56:06Z</time>
      </trkpt>
      <trkpt lat="45.56621" lon="6.71261">
        <ele>726.2</ele>
        <time>2021-05-28T10:56:07Z</time>
      </trkpt>
      <trkpt lat="45.56615" lon="6.71253">
        <ele>726.8</ele>
        <time>2021-05-28T10:56:08Z</time>
      </trkpt>
      <trkpt lat="45.56611" lon="6.71243">
        <ele>727.4</ele>
        <time>2021-05-28T10:56:09Z</time>
      </trkpt>
      <trkpt lat="45.56605" lon="6.71234">
        <ele>727.2</ele>
        <time>2021-05-28T10:56:10Z</time>
      </trkpt>
      <trkpt lat="45.56601" lon="6.71225">
        <ele>726.6</ele>
        <time>2021-05-28T10:56:11Z</time>
      </trkpt>
      <trkpt lat="45.56596" lon="6.71216">
        <ele>726.6</ele>
        <time>2021-05-28T10:56:12Z</time>
      </trkpt>
      <trkpt lat="45.56592" lon="6.71206">
        <ele>725.8</ele>
        <time>2021-05-28T10:56:13Z</time>
      </trkpt>
      <trkpt lat="45.56588" lon="6.71196">
        <ele>724.8</ele>
        <time>2021-05-28T10:56:14Z</time>
      </trkpt>
      <trkpt lat="45.56585" lon="6.71186">
        <ele>724.4</ele>
        <time>2021-05-28T10:56:15Z</time>
      </trkpt>
      <trkpt lat="45.56583" lon="6.71178">
        <ele>723.8</ele>
        <time>2021-05-28T10:56:16Z</time>
      </trkpt>
      <trkpt lat="45.5658" lon="6.71167">
        <ele>723.4</ele>
        <time>2021-05-28T10:56:17Z</time>
      </trkpt>
      <trkpt lat="45.56577" lon="6.71154">
        <ele>723.2</ele>
        <time>2021-05-28T10:56:18Z</time>
      </trkpt>
      <trkpt lat="45.56574" lon="6.71143">
        <ele>723</ele>
        <time>2021-05-28T10:56:19Z</time>
      </trkpt>
      <trkpt lat="45.56572" lon="6.71135">
        <ele>722.6</ele>
        <time>2021-05-28T10:56:20Z</time>
      </trkpt>
      <trkpt lat="45.56569" lon="6.71124">
        <ele>722.6</ele>
        <time>2021-05-28T10:56:21Z</time>
      </trkpt>
      <trkpt lat="45.56566" lon="6.71111">
        <ele>722.6</ele>
        <time>2021-05-28T10:56:22Z</time>
      </trkpt>
      <trkpt lat="45.56564" lon="6.711">
        <ele>722.8</ele>
        <time>2021-05-28T10:56:23Z</time>
      </trkpt>
      <trkpt lat="45.56563" lon="6.71091">
        <ele>723</ele>
        <time>2021-05-28T10:56:24Z</time>
      </trkpt>
      <trkpt lat="45.56562" lon="6.7108">
        <ele>722.8</ele>
        <time>2021-05-28T10:56:25Z</time>
      </trkpt>
      <trkpt lat="45.56561" lon="6.71067">
        <ele>723</ele>
        <time>2021-05-28T10:56:26Z</time>
      </trkpt>
      <trkpt lat="45.5656" lon="6.71058">
        <ele>722.8</ele>
        <time>2021-05-28T10:56:27Z</time>
      </trkpt>
      <trkpt lat="45.56558" lon="6.71046">
        <ele>723</ele>
        <time>2021-05-28T10:56:28Z</time>
      </trkpt>
      <trkpt lat="45.56556" lon="6.71033">
        <ele>723</ele>
        <time>2021-05-28T10:56:29Z</time>
      </trkpt>
      <trkpt lat="45.56554" lon="6.71021">
        <ele>723.2</ele>
        <time>2021-05-28T10:56:30Z</time>
      </trkpt>
      <trkpt lat="45.56551" lon="6.71009">
        <ele>723</ele>
        <time>2021-05-28T10:56:31Z</time>
      </trkpt>
      <trkpt lat="45.56549" lon="6.70998">
        <ele>722.6</ele>
        <time>2021-05-28T10:56:32Z</time>
      </trkpt>
      <trkpt lat="45.56547" lon="6.70987">
        <ele>722.4</ele>
        <time>2021-05-28T10:56:33Z</time>
      </trkpt>
      <trkpt lat="45.56546" lon="6.70975">
        <ele>721.8</ele>
        <time>2021-05-28T10:56:34Z</time>
      </trkpt>
      <trkpt lat="45.56545" lon="6.70963">
        <ele>721.6</ele>
        <time>2021-05-28T10:56:35Z</time>
      </trkpt>
      <trkpt lat="45.56544" lon="6.70952">
        <ele>721.4</ele>
        <time>2021-05-28T10:56:36Z</time>
      </trkpt>
      <trkpt lat="45.56544" lon="6.7094">
        <ele>721.4</ele>
        <time>2021-05-28T10:56:37Z</time>
      </trkpt>
      <trkpt lat="45.56545" lon="6.70931">
        <ele>721.2</ele>
        <time>2021-05-28T10:56:38Z</time>
      </trkpt>
      <trkpt lat="45.56545" lon="6.70918">
        <ele>721.2</ele>
        <time>2021-05-28T10:56:39Z</time>
      </trkpt>
      <trkpt lat="45.56547" lon="6.70906">
        <ele>721</ele>
        <time>2021-05-28T10:56:40Z</time>
      </trkpt>
      <trkpt lat="45.56548" lon="6.70894">
        <ele>721</ele>
        <time>2021-05-28T10:56:41Z</time>
      </trkpt>
      <trkpt lat="45.56549" lon="6.70883">
        <ele>721</ele>
        <time>2021-05-28T10:56:42Z</time>
      </trkpt>
      <trkpt lat="45.5655" lon="6.70871">
        <ele>720.8</ele>
        <time>2021-05-28T10:56:43Z</time>
      </trkpt>
      <trkpt lat="45.56552" lon="6.7086">
        <ele>720.8</ele>
        <time>2021-05-28T10:56:44Z</time>
      </trkpt>
      <trkpt lat="45.56554" lon="6.70848">
        <ele>720.6</ele>
        <time>2021-05-28T10:56:45Z</time>
      </trkpt>
      <trkpt lat="45.56556" lon="6.70836">
        <ele>720.6</ele>
        <time>2021-05-28T10:56:46Z</time>
      </trkpt>
      <trkpt lat="45.56559" lon="6.70826">
        <ele>720.2</ele>
        <time>2021-05-28T10:56:47Z</time>
      </trkpt>
      <trkpt lat="45.56562" lon="6.70816">
        <ele>720.6</ele>
        <time>2021-05-28T10:56:48Z</time>
      </trkpt>
      <trkpt lat="45.56567" lon="6.70807">
        <ele>720.6</ele>
        <time>2021-05-28T10:56:49Z</time>
      </trkpt>
      <trkpt lat="45.56572" lon="6.70798">
        <ele>720.6</ele>
        <time>2021-05-28T10:56:50Z</time>
      </trkpt>
      <trkpt lat="45.56577" lon="6.70789">
        <ele>720.4</ele>
        <time>2021-05-28T10:56:51Z</time>
      </trkpt>
      <trkpt lat="45.56583" lon="6.70781">
        <ele>720.2</ele>
        <time>2021-05-28T10:56:52Z</time>
      </trkpt>
      <trkpt lat="45.56589" lon="6.70774">
        <ele>720.8</ele>
        <time>2021-05-28T10:56:53Z</time>
      </trkpt>
      <trkpt lat="45.56596" lon="6.70767">
        <ele>721.4</ele>
        <time>2021-05-28T10:56:54Z</time>
      </trkpt>
      <trkpt lat="45.56603" lon="6.70762">
        <ele>721.6</ele>
        <time>2021-05-28T10:56:55Z</time>
      </trkpt>
      <trkpt lat="45.56609" lon="6.70757">
        <ele>721.8</ele>
        <time>2021-05-28T10:56:56Z</time>
      </trkpt>
      <trkpt lat="45.56615" lon="6.70753">
        <ele>722</ele>
        <time>2021-05-28T10:56:57Z</time>
      </trkpt>
      <trkpt lat="45.56622" lon="6.70749">
        <ele>722.4</ele>
        <time>2021-05-28T10:56:58Z</time>
      </trkpt>
      <trkpt lat="45.56629" lon="6.70744">
        <ele>722.4</ele>
        <time>2021-05-28T10:56:59Z</time>
      </trkpt>
      <trkpt lat="45.56636" lon="6.70738">
        <ele>722.6</ele>
        <time>2021-05-28T10:57:00Z</time>
      </trkpt>
      <trkpt lat="45.56643" lon="6.70733">
        <ele>722.6</ele>
        <time>2021-05-28T10:57:01Z</time>
      </trkpt>
      <trkpt lat="45.5665" lon="6.70727">
        <ele>722.8</ele>
        <time>2021-05-28T10:57:02Z</time>
      </trkpt>
      <trkpt lat="45.56656" lon="6.70721">
        <ele>722.8</ele>
        <time>2021-05-28T10:57:03Z</time>
      </trkpt>
      <trkpt lat="45.56662" lon="6.70714">
        <ele>722.6</ele>
        <time>2021-05-28T10:57:04Z</time>
      </trkpt>
      <trkpt lat="45.56668" lon="6.70706">
        <ele>722.4</ele>
        <time>2021-05-28T10:57:05Z</time>
      </trkpt>
      <trkpt lat="45.56673" lon="6.70697">
        <ele>722.4</ele>
        <time>2021-05-28T10:57:06Z</time>
      </trkpt>
      <trkpt lat="45.56676" lon="6.70687">
        <ele>722.2</ele>
        <time>2021-05-28T10:57:07Z</time>
      </trkpt>
      <trkpt lat="45.56679" lon="6.70678">
        <ele>722.4</ele>
        <time>2021-05-28T10:57:08Z</time>
      </trkpt>
      <trkpt lat="45.5668" lon="6.70668">
        <ele>722.4</ele>
        <time>2021-05-28T10:57:09Z</time>
      </trkpt>
      <trkpt lat="45.56682" lon="6.70657">
        <ele>722.6</ele>
        <time>2021-05-28T10:57:10Z</time>
      </trkpt>
      <trkpt lat="45.56684" lon="6.70645">
        <ele>722.8</ele>
        <time>2021-05-28T10:57:11Z</time>
      </trkpt>
      <trkpt lat="45.56685" lon="6.70633">
        <ele>722.8</ele>
        <time>2021-05-28T10:57:12Z</time>
      </trkpt>
      <trkpt lat="45.56686" lon="6.70621">
        <ele>722.4</ele>
        <time>2021-05-28T10:57:13Z</time>
      </trkpt>
      <trkpt lat="45.56686" lon="6.70609">
        <ele>722.2</ele>
        <time>2021-05-28T10:57:14Z</time>
      </trkpt>
      <trkpt lat="45.56685" lon="6.70596">
        <ele>722</ele>
        <time>2021-05-28T10:57:15Z</time>
      </trkpt>
      <trkpt lat="45.56683" lon="6.70585">
        <ele>721.6</ele>
        <time>2021-05-28T10:57:16Z</time>
      </trkpt>
      <trkpt lat="45.56679" lon="6.70574">
        <ele>721.8</ele>
        <time>2021-05-28T10:57:17Z</time>
      </trkpt>
      <trkpt lat="45.56674" lon="6.70564">
        <ele>721.6</ele>
        <time>2021-05-28T10:57:18Z</time>
      </trkpt>
      <trkpt lat="45.56669" lon="6.70553">
        <ele>721.4</ele>
        <time>2021-05-28T10:57:19Z</time>
      </trkpt>
      <trkpt lat="45.56663" lon="6.70544">
        <ele>721.2</ele>
        <time>2021-05-28T10:57:20Z</time>
      </trkpt>
      <trkpt lat="45.56658" lon="6.70535">
        <ele>721.2</ele>
        <time>2021-05-28T10:57:21Z</time>
      </trkpt>
      <trkpt lat="45.56652" lon="6.70529">
        <ele>721.2</ele>
        <time>2021-05-28T10:57:22Z</time>
      </trkpt>
      <trkpt lat="45.56645" lon="6.70522">
        <ele>721</ele>
        <time>2021-05-28T10:57:23Z</time>
      </trkpt>
      <trkpt lat="45.56639" lon="6.70515">
        <ele>721</ele>
        <time>2021-05-28T10:57:24Z</time>
      </trkpt>
      <trkpt lat="45.56631" lon="6.70509">
        <ele>720.8</ele>
        <time>2021-05-28T10:57:25Z</time>
      </trkpt>
      <trkpt lat="45.56624" lon="6.70505">
        <ele>720.8</ele>
        <time>2021-05-28T10:57:26Z</time>
      </trkpt>
      <trkpt lat="45.56617" lon="6.70501">
        <ele>720.8</ele>
        <time>2021-05-28T10:57:27Z</time>
      </trkpt>
      <trkpt lat="45.56609" lon="6.70497">
        <ele>721</ele>
        <time>2021-05-28T10:57:28Z</time>
      </trkpt>
      <trkpt lat="45.56601" lon="6.70493">
        <ele>721.4</ele>
        <time>2021-05-28T10:57:29Z</time>
      </trkpt>
      <trkpt lat="45.56594" lon="6.70488">
        <ele>721.4</ele>
        <time>2021-05-28T10:57:30Z</time>
      </trkpt>
      <trkpt lat="45.56587" lon="6.70483">
        <ele>721</ele>
        <time>2021-05-28T10:57:31Z</time>
      </trkpt>
      <trkpt lat="45.5658" lon="6.7048">
        <ele>721</ele>
        <time>2021-05-28T10:57:32Z</time>
      </trkpt>
      <trkpt lat="45.56572" lon="6.70476">
        <ele>721</ele>
        <time>2021-05-28T10:57:33Z</time>
      </trkpt>
      <trkpt lat="45.56564" lon="6.70473">
        <ele>720.8</ele>
        <time>2021-05-28T10:57:34Z</time>
      </trkpt>
      <trkpt lat="45.56557" lon="6.7047">
        <ele>720.8</ele>
        <time>2021-05-28T10:57:35Z</time>
      </trkpt>
      <trkpt lat="45.5655" lon="6.70465">
        <ele>720.6</ele>
        <time>2021-05-28T10:57:36Z</time>
      </trkpt>
      <trkpt lat="45.56543" lon="6.70459">
        <ele>720.6</ele>
        <time>2021-05-28T10:57:37Z</time>
      </trkpt>
      <trkpt lat="45.56537" lon="6.70451">
        <ele>720.8</ele>
        <time>2021-05-28T10:57:38Z</time>
      </trkpt>
      <trkpt lat="45.5653" lon="6.70444">
        <ele>720.8</ele>
        <time>2021-05-28T10:57:39Z</time>
      </trkpt>
      <trkpt lat="45.56524" lon="6.70437">
        <ele>720.6</ele>
        <time>2021-05-28T10:57:40Z</time>
      </trkpt>
      <trkpt lat="45.56517" lon="6.70429">
        <ele>720.6</ele>
        <time>2021-05-28T10:57:41Z</time>
      </trkpt>
      <trkpt lat="45.5651" lon="6.7042">
        <ele>720.4</ele>
        <time>2021-05-28T10:57:42Z</time>
      </trkpt>
      <trkpt lat="45.56505" lon="6.70412">
        <ele>720.2</ele>
        <time>2021-05-28T10:57:43Z</time>
      </trkpt>
      <trkpt lat="45.56499" lon="6.70403">
        <ele>720.2</ele>
        <time>2021-05-28T10:57:44Z</time>
      </trkpt>
      <trkpt lat="45.56492" lon="6.70395">
        <ele>720</ele>
        <time>2021-05-28T10:57:45Z</time>
      </trkpt>
      <trkpt lat="45.56486" lon="6.70386">
        <ele>720</ele>
        <time>2021-05-28T10:57:46Z</time>
      </trkpt>
      <trkpt lat="45.5648" lon="6.70377">
        <ele>719.6</ele>
        <time>2021-05-28T10:57:47Z</time>
      </trkpt>
      <trkpt lat="45.56474" lon="6.70369">
        <ele>719.8</ele>
        <time>2021-05-28T10:57:48Z</time>
      </trkpt>
      <trkpt lat="45.56468" lon="6.70361">
        <ele>719.6</ele>
        <time>2021-05-28T10:57:49Z</time>
      </trkpt>
      <trkpt lat="45.56462" lon="6.70353">
        <ele>719.2</ele>
        <time>2021-05-28T10:57:50Z</time>
      </trkpt>
      <trkpt lat="45.56456" lon="6.70345">
        <ele>718.8</ele>
        <time>2021-05-28T10:57:51Z</time>
      </trkpt>
      <trkpt lat="45.56451" lon="6.70336">
        <ele>718.4</ele>
        <time>2021-05-28T10:57:52Z</time>
      </trkpt>
      <trkpt lat="45.56444" lon="6.70328">
        <ele>718.4</ele>
        <time>2021-05-28T10:57:53Z</time>
      </trkpt>
      <trkpt lat="45.56437" lon="6.7032">
        <ele>718.6</ele>
        <time>2021-05-28T10:57:54Z</time>
      </trkpt>
      <trkpt lat="45.5643" lon="6.70312">
        <ele>718.4</ele>
        <time>2021-05-28T10:57:55Z</time>
      </trkpt>
      <trkpt lat="45.56424" lon="6.70303">
        <ele>718.2</ele>
        <time>2021-05-28T10:57:56Z</time>
      </trkpt>
      <trkpt lat="45.56418" lon="6.70295">
        <ele>717.8</ele>
        <time>2021-05-28T10:57:57Z</time>
      </trkpt>
      <trkpt lat="45.56412" lon="6.70287">
        <ele>717.4</ele>
        <time>2021-05-28T10:57:58Z</time>
      </trkpt>
      <trkpt lat="45.56406" lon="6.70278">
        <ele>717.2</ele>
        <time>2021-05-28T10:57:59Z</time>
      </trkpt>
      <trkpt lat="45.56401" lon="6.70268">
        <ele>717</ele>
        <time>2021-05-28T10:58:00Z</time>
      </trkpt>
      <trkpt lat="45.56395" lon="6.70258">
        <ele>716.4</ele>
        <time>2021-05-28T10:58:01Z</time>
      </trkpt>
      <trkpt lat="45.5639" lon="6.70247">
        <ele>716.2</ele>
        <time>2021-05-28T10:58:02Z</time>
      </trkpt>
      <trkpt lat="45.56387" lon="6.70235">
        <ele>716</ele>
        <time>2021-05-28T10:58:03Z</time>
      </trkpt>
      <trkpt lat="45.56385" lon="6.70222">
        <ele>715.8</ele>
        <time>2021-05-28T10:58:04Z</time>
      </trkpt>
      <trkpt lat="45.56384" lon="6.70208">
        <ele>715.4</ele>
        <time>2021-05-28T10:58:05Z</time>
      </trkpt>
      <trkpt lat="45.56383" lon="6.70194">
        <ele>714.8</ele>
        <time>2021-05-28T10:58:06Z</time>
      </trkpt>
      <trkpt lat="45.56382" lon="6.70181">
        <ele>714.4</ele>
        <time>2021-05-28T10:58:07Z</time>
      </trkpt>
      <trkpt lat="45.56381" lon="6.70167">
        <ele>714</ele>
        <time>2021-05-28T10:58:08Z</time>
      </trkpt>
      <trkpt lat="45.5638" lon="6.70154">
        <ele>713.6</ele>
        <time>2021-05-28T10:58:09Z</time>
      </trkpt>
      <trkpt lat="45.56378" lon="6.70141">
        <ele>713.2</ele>
        <time>2021-05-28T10:58:10Z</time>
      </trkpt>
      <trkpt lat="45.56375" lon="6.70128">
        <ele>712.8</ele>
        <time>2021-05-28T10:58:11Z</time>
      </trkpt>
      <trkpt lat="45.56372" lon="6.70116">
        <ele>712.6</ele>
        <time>2021-05-28T10:58:12Z</time>
      </trkpt>
      <trkpt lat="45.56368" lon="6.70105">
        <ele>712.2</ele>
        <time>2021-05-28T10:58:13Z</time>
      </trkpt>
      <trkpt lat="45.56365" lon="6.70093">
        <ele>712.4</ele>
        <time>2021-05-28T10:58:14Z</time>
      </trkpt>
      <trkpt lat="45.56361" lon="6.70082">
        <ele>712.2</ele>
        <time>2021-05-28T10:58:15Z</time>
      </trkpt>
      <trkpt lat="45.56358" lon="6.7007">
        <ele>712.4</ele>
        <time>2021-05-28T10:58:16Z</time>
      </trkpt>
      <trkpt lat="45.56356" lon="6.70058">
        <ele>712.2</ele>
        <time>2021-05-28T10:58:17Z</time>
      </trkpt>
      <trkpt lat="45.56354" lon="6.70046">
        <ele>712</ele>
        <time>2021-05-28T10:58:18Z</time>
      </trkpt>
      <trkpt lat="45.56352" lon="6.70034">
        <ele>712</ele>
        <time>2021-05-28T10:58:19Z</time>
      </trkpt>
      <trkpt lat="45.5635" lon="6.70023">
        <ele>711.8</ele>
        <time>2021-05-28T10:58:20Z</time>
      </trkpt>
      <trkpt lat="45.56349" lon="6.70011">
        <ele>710.8</ele>
        <time>2021-05-28T10:58:21Z</time>
      </trkpt>
      <trkpt lat="45.56348" lon="6.69999">
        <ele>710</ele>
        <time>2021-05-28T10:58:22Z</time>
      </trkpt>
      <trkpt lat="45.56346" lon="6.69987">
        <ele>709.8</ele>
        <time>2021-05-28T10:58:23Z</time>
      </trkpt>
      <trkpt lat="45.56345" lon="6.69975">
        <ele>709.2</ele>
        <time>2021-05-28T10:58:24Z</time>
      </trkpt>
      <trkpt lat="45.56343" lon="6.69964">
        <ele>708.4</ele>
        <time>2021-05-28T10:58:25Z</time>
      </trkpt>
      <trkpt lat="45.56341" lon="6.69951">
        <ele>708</ele>
        <time>2021-05-28T10:58:26Z</time>
      </trkpt>
      <trkpt lat="45.56339" lon="6.69939">
        <ele>708</ele>
        <time>2021-05-28T10:58:27Z</time>
      </trkpt>
      <trkpt lat="45.56338" lon="6.69928">
        <ele>708</ele>
        <time>2021-05-28T10:58:28Z</time>
      </trkpt>
      <trkpt lat="45.56336" lon="6.69916">
        <ele>707.8</ele>
        <time>2021-05-28T10:58:29Z</time>
      </trkpt>
      <trkpt lat="45.56334" lon="6.69905">
        <ele>708</ele>
        <time>2021-05-28T10:58:30Z</time>
      </trkpt>
      <trkpt lat="45.56333" lon="6.69893">
        <ele>708</ele>
        <time>2021-05-28T10:58:31Z</time>
      </trkpt>
      <trkpt lat="45.56332" lon="6.69881">
        <ele>708.2</ele>
        <time>2021-05-28T10:58:32Z</time>
      </trkpt>
      <trkpt lat="45.56331" lon="6.69869">
        <ele>708.2</ele>
        <time>2021-05-28T10:58:33Z</time>
      </trkpt>
      <trkpt lat="45.56331" lon="6.69857">
        <ele>708.6</ele>
        <time>2021-05-28T10:58:34Z</time>
      </trkpt>
      <trkpt lat="45.5633" lon="6.69845">
        <ele>708.8</ele>
        <time>2021-05-28T10:58:35Z</time>
      </trkpt>
      <trkpt lat="45.56329" lon="6.69833">
        <ele>709.2</ele>
        <time>2021-05-28T10:58:36Z</time>
      </trkpt>
      <trkpt lat="45.56329" lon="6.69821">
        <ele>709.4</ele>
        <time>2021-05-28T10:58:37Z</time>
      </trkpt>
      <trkpt lat="45.56328" lon="6.69809">
        <ele>709.6</ele>
        <time>2021-05-28T10:58:38Z</time>
      </trkpt>
      <trkpt lat="45.56327" lon="6.69797">
        <ele>710</ele>
        <time>2021-05-28T10:58:39Z</time>
      </trkpt>
      <trkpt lat="45.56327" lon="6.69784">
        <ele>710</ele>
        <time>2021-05-28T10:58:40Z</time>
      </trkpt>
      <trkpt lat="45.56327" lon="6.69772">
        <ele>710</ele>
        <time>2021-05-28T10:58:41Z</time>
      </trkpt>
      <trkpt lat="45.56327" lon="6.6976">
        <ele>710</ele>
        <time>2021-05-28T10:58:42Z</time>
      </trkpt>
      <trkpt lat="45.56327" lon="6.69747">
        <ele>709.8</ele>
        <time>2021-05-28T10:58:43Z</time>
      </trkpt>
      <trkpt lat="45.56328" lon="6.69735">
        <ele>709.8</ele>
        <time>2021-05-28T10:58:44Z</time>
      </trkpt>
      <trkpt lat="45.56329" lon="6.69724">
        <ele>709.8</ele>
        <time>2021-05-28T10:58:45Z</time>
      </trkpt>
      <trkpt lat="45.5633" lon="6.69713">
        <ele>710</ele>
        <time>2021-05-28T10:58:46Z</time>
      </trkpt>
      <trkpt lat="45.56332" lon="6.69702">
        <ele>710</ele>
        <time>2021-05-28T10:58:47Z</time>
      </trkpt>
      <trkpt lat="45.56332" lon="6.69691">
        <ele>710.2</ele>
        <time>2021-05-28T10:58:48Z</time>
      </trkpt>
      <trkpt lat="45.56335" lon="6.69679">
        <ele>710.4</ele>
        <time>2021-05-28T10:58:49Z</time>
      </trkpt>
      <trkpt lat="45.56337" lon="6.69668">
        <ele>710.2</ele>
        <time>2021-05-28T10:58:50Z</time>
      </trkpt>
      <trkpt lat="45.5634" lon="6.69657">
        <ele>710</ele>
        <time>2021-05-28T10:58:51Z</time>
      </trkpt>
      <trkpt lat="45.56342" lon="6.69647">
        <ele>710</ele>
        <time>2021-05-28T10:58:52Z</time>
      </trkpt>
      <trkpt lat="45.56346" lon="6.69636">
        <ele>710</ele>
        <time>2021-05-28T10:58:53Z</time>
      </trkpt>
      <trkpt lat="45.5635" lon="6.69624">
        <ele>710.2</ele>
        <time>2021-05-28T10:58:54Z</time>
      </trkpt>
      <trkpt lat="45.56352" lon="6.69614">
        <ele>710.2</ele>
        <time>2021-05-28T10:58:55Z</time>
      </trkpt>
      <trkpt lat="45.56353" lon="6.69603">
        <ele>710</ele>
        <time>2021-05-28T10:58:56Z</time>
      </trkpt>
      <trkpt lat="45.56354" lon="6.69594">
        <ele>709.6</ele>
        <time>2021-05-28T10:58:57Z</time>
      </trkpt>
      <trkpt lat="45.56355" lon="6.69585">
        <ele>709.8</ele>
        <time>2021-05-28T10:58:58Z</time>
      </trkpt>
      <trkpt lat="45.56352" lon="6.69574">
        <ele>710.2</ele>
        <time>2021-05-28T10:58:59Z</time>
      </trkpt>
      <trkpt lat="45.56349" lon="6.69563">
        <ele>710.2</ele>
        <time>2021-05-28T10:59:00Z</time>
      </trkpt>
      <trkpt lat="45.56348" lon="6.69553">
        <ele>710.4</ele>
        <time>2021-05-28T10:59:01Z</time>
      </trkpt>
      <trkpt lat="45.56346" lon="6.69542">
        <ele>710.6</ele>
        <time>2021-05-28T10:59:02Z</time>
      </trkpt>
      <trkpt lat="45.56344" lon="6.6953">
        <ele>710.6</ele>
        <time>2021-05-28T10:59:03Z</time>
      </trkpt>
      <trkpt lat="45.56341" lon="6.69519">
        <ele>710.4</ele>
        <time>2021-05-28T10:59:04Z</time>
      </trkpt>
      <trkpt lat="45.5634" lon="6.69507">
        <ele>710.6</ele>
        <time>2021-05-28T10:59:05Z</time>
      </trkpt>
      <trkpt lat="45.56337" lon="6.69495">
        <ele>710.8</ele>
        <time>2021-05-28T10:59:06Z</time>
      </trkpt>
      <trkpt lat="45.56335" lon="6.69484">
        <ele>710.8</ele>
        <time>2021-05-28T10:59:07Z</time>
      </trkpt>
      <trkpt lat="45.56333" lon="6.69472">
        <ele>711</ele>
        <time>2021-05-28T10:59:08Z</time>
      </trkpt>
      <trkpt lat="45.56331" lon="6.69461">
        <ele>711</ele>
        <time>2021-05-28T10:59:09Z</time>
      </trkpt>
      <trkpt lat="45.56329" lon="6.69451">
        <ele>712.4</ele>
        <time>2021-05-28T10:59:10Z</time>
      </trkpt>
      <trkpt lat="45.56327" lon="6.69441">
        <ele>713.2</ele>
        <time>2021-05-28T10:59:11Z</time>
      </trkpt>
      <trkpt lat="45.56323" lon="6.69431">
        <ele>713.6</ele>
        <time>2021-05-28T10:59:12Z</time>
      </trkpt>
      <trkpt lat="45.56319" lon="6.69422">
        <ele>714.2</ele>
        <time>2021-05-28T10:59:13Z</time>
      </trkpt>
      <trkpt lat="45.56315" lon="6.69412">
        <ele>714.2</ele>
        <time>2021-05-28T10:59:14Z</time>
      </trkpt>
      <trkpt lat="45.56313" lon="6.69401">
        <ele>714.2</ele>
        <time>2021-05-28T10:59:15Z</time>
      </trkpt>
      <trkpt lat="45.56311" lon="6.69389">
        <ele>714.4</ele>
        <time>2021-05-28T10:59:16Z</time>
      </trkpt>
      <trkpt lat="45.56311" lon="6.69378">
        <ele>714.2</ele>
        <time>2021-05-28T10:59:17Z</time>
      </trkpt>
      <trkpt lat="45.5631" lon="6.69366">
        <ele>713.8</ele>
        <time>2021-05-28T10:59:18Z</time>
      </trkpt>
      <trkpt lat="45.56309" lon="6.69354">
        <ele>713.8</ele>
        <time>2021-05-28T10:59:19Z</time>
      </trkpt>
      <trkpt lat="45.56309" lon="6.69342">
        <ele>713.6</ele>
        <time>2021-05-28T10:59:20Z</time>
      </trkpt>
      <trkpt lat="45.56308" lon="6.6933">
        <ele>713.4</ele>
        <time>2021-05-28T10:59:21Z</time>
      </trkpt>
      <trkpt lat="45.56308" lon="6.69317">
        <ele>713.4</ele>
        <time>2021-05-28T10:59:22Z</time>
      </trkpt>
      <trkpt lat="45.56309" lon="6.69306">
        <ele>713.2</ele>
        <time>2021-05-28T10:59:23Z</time>
      </trkpt>
      <trkpt lat="45.56309" lon="6.69294">
        <ele>713.2</ele>
        <time>2021-05-28T10:59:24Z</time>
      </trkpt>
      <trkpt lat="45.56309" lon="6.69282">
        <ele>713.2</ele>
        <time>2021-05-28T10:59:25Z</time>
      </trkpt>
      <trkpt lat="45.56308" lon="6.69271">
        <ele>713</ele>
        <time>2021-05-28T10:59:26Z</time>
      </trkpt>
      <trkpt lat="45.56304" lon="6.69261">
        <ele>712.6</ele>
        <time>2021-05-28T10:59:27Z</time>
      </trkpt>
      <trkpt lat="45.56301" lon="6.69251">
        <ele>712.8</ele>
        <time>2021-05-28T10:59:28Z</time>
      </trkpt>
      <trkpt lat="45.56299" lon="6.6924">
        <ele>712.8</ele>
        <time>2021-05-28T10:59:29Z</time>
      </trkpt>
      <trkpt lat="45.56297" lon="6.69229">
        <ele>712.8</ele>
        <time>2021-05-28T10:59:30Z</time>
      </trkpt>
      <trkpt lat="45.56295" lon="6.69218">
        <ele>712.8</ele>
        <time>2021-05-28T10:59:31Z</time>
      </trkpt>
      <trkpt lat="45.56292" lon="6.69209">
        <ele>712.6</ele>
        <time>2021-05-28T10:59:32Z</time>
      </trkpt>
      <trkpt lat="45.56288" lon="6.69199">
        <ele>712.6</ele>
        <time>2021-05-28T10:59:33Z</time>
      </trkpt>
      <trkpt lat="45.56285" lon="6.6919">
        <ele>712.8</ele>
        <time>2021-05-28T10:59:34Z</time>
      </trkpt>
      <trkpt lat="45.56282" lon="6.69179">
        <ele>713</ele>
        <time>2021-05-28T10:59:35Z</time>
      </trkpt>
      <trkpt lat="45.56278" lon="6.6917">
        <ele>713</ele>
        <time>2021-05-28T10:59:36Z</time>
      </trkpt>
      <trkpt lat="45.56274" lon="6.6916">
        <ele>713.2</ele>
        <time>2021-05-28T10:59:37Z</time>
      </trkpt>
      <trkpt lat="45.56269" lon="6.69152">
        <ele>713</ele>
        <time>2021-05-28T10:59:38Z</time>
      </trkpt>
      <trkpt lat="45.56263" lon="6.69144">
        <ele>713.2</ele>
        <time>2021-05-28T10:59:39Z</time>
      </trkpt>
      <trkpt lat="45.56257" lon="6.69136">
        <ele>713.2</ele>
        <time>2021-05-28T10:59:40Z</time>
      </trkpt>
      <trkpt lat="45.56251" lon="6.69129">
        <ele>713.4</ele>
        <time>2021-05-28T10:59:41Z</time>
      </trkpt>
      <trkpt lat="45.56245" lon="6.69121">
        <ele>713.6</ele>
        <time>2021-05-28T10:59:42Z</time>
      </trkpt>
      <trkpt lat="45.5624" lon="6.69111">
        <ele>713.6</ele>
        <time>2021-05-28T10:59:43Z</time>
      </trkpt>
      <trkpt lat="45.56236" lon="6.69101">
        <ele>713.8</ele>
        <time>2021-05-28T10:59:44Z</time>
      </trkpt>
      <trkpt lat="45.5623" lon="6.69092">
        <ele>713.6</ele>
        <time>2021-05-28T10:59:45Z</time>
      </trkpt>
      <trkpt lat="45.56226" lon="6.69083">
        <ele>713.6</ele>
        <time>2021-05-28T10:59:46Z</time>
      </trkpt>
      <trkpt lat="45.56221" lon="6.69074">
        <ele>713.4</ele>
        <time>2021-05-28T10:59:47Z</time>
      </trkpt>
      <trkpt lat="45.56217" lon="6.69064">
        <ele>713.4</ele>
        <time>2021-05-28T10:59:48Z</time>
      </trkpt>
      <trkpt lat="45.56213" lon="6.69054">
        <ele>713.2</ele>
        <time>2021-05-28T10:59:49Z</time>
      </trkpt>
      <trkpt lat="45.5621" lon="6.69044">
        <ele>712.8</ele>
        <time>2021-05-28T10:59:50Z</time>
      </trkpt>
      <trkpt lat="45.56207" lon="6.69033">
        <ele>712.6</ele>
        <time>2021-05-28T10:59:51Z</time>
      </trkpt>
      <trkpt lat="45.56206" lon="6.69022">
        <ele>712.6</ele>
        <time>2021-05-28T10:59:52Z</time>
      </trkpt>
      <trkpt lat="45.56204" lon="6.6901">
        <ele>712.6</ele>
        <time>2021-05-28T10:59:53Z</time>
      </trkpt>
      <trkpt lat="45.56203" lon="6.68998">
        <ele>712.4</ele>
        <time>2021-05-28T10:59:54Z</time>
      </trkpt>
      <trkpt lat="45.56201" lon="6.68988">
        <ele>712.4</ele>
        <time>2021-05-28T10:59:55Z</time>
      </trkpt>
      <trkpt lat="45.56201" lon="6.68976">
        <ele>712.2</ele>
        <time>2021-05-28T10:59:56Z</time>
      </trkpt>
      <trkpt lat="45.56198" lon="6.68964">
        <ele>712.2</ele>
        <time>2021-05-28T10:59:57Z</time>
      </trkpt>
      <trkpt lat="45.56196" lon="6.68953">
        <ele>712.2</ele>
        <time>2021-05-28T10:59:58Z</time>
      </trkpt>
      <trkpt lat="45.56194" lon="6.68942">
        <ele>712.2</ele>
        <time>2021-05-28T10:59:59Z</time>
      </trkpt>
      <trkpt lat="45.56192" lon="6.68931">
        <ele>712.2</ele>
        <time>2021-05-28T11:00:00Z</time>
      </trkpt>
      <trkpt lat="45.56189" lon="6.6892">
        <ele>712.4</ele>
        <time>2021-05-28T11:00:01Z</time>
      </trkpt>
      <trkpt lat="45.56188" lon="6.68908">
        <ele>712.4</ele>
        <time>2021-05-28T11:00:02Z</time>
      </trkpt>
      <trkpt lat="45.56188" lon="6.68895">
        <ele>712.4</ele>
        <time>2021-05-28T11:00:03Z</time>
      </trkpt>
      <trkpt lat="45.56188" lon="6.68883">
        <ele>712.2</ele>
        <time>2021-05-28T11:00:04Z</time>
      </trkpt>
      <trkpt lat="45.56187" lon="6.6887">
        <ele>712.2</ele>
        <time>2021-05-28T11:00:05Z</time>
      </trkpt>
      <trkpt lat="45.56186" lon="6.68858">
        <ele>712.2</ele>
        <time>2021-05-28T11:00:06Z</time>
      </trkpt>
      <trkpt lat="45.56187" lon="6.68846">
        <ele>712.2</ele>
        <time>2021-05-28T11:00:07Z</time>
      </trkpt>
      <trkpt lat="45.56188" lon="6.68832">
        <ele>712.2</ele>
        <time>2021-05-28T11:00:08Z</time>
      </trkpt>
      <trkpt lat="45.5619" lon="6.6882">
        <ele>712.2</ele>
        <time>2021-05-28T11:00:09Z</time>
      </trkpt>
      <trkpt lat="45.56193" lon="6.68807">
        <ele>711.8</ele>
        <time>2021-05-28T11:00:10Z</time>
      </trkpt>
      <trkpt lat="45.56195" lon="6.68793">
        <ele>711.8</ele>
        <time>2021-05-28T11:00:11Z</time>
      </trkpt>
      <trkpt lat="45.56196" lon="6.68779">
        <ele>711.6</ele>
        <time>2021-05-28T11:00:12Z</time>
      </trkpt>
      <trkpt lat="45.56197" lon="6.68766">
        <ele>711.6</ele>
        <time>2021-05-28T11:00:13Z</time>
      </trkpt>
      <trkpt lat="45.56199" lon="6.68753">
        <ele>711.6</ele>
        <time>2021-05-28T11:00:14Z</time>
      </trkpt>
      <trkpt lat="45.56201" lon="6.68741">
        <ele>711.4</ele>
        <time>2021-05-28T11:00:15Z</time>
      </trkpt>
      <trkpt lat="45.56204" lon="6.68728">
        <ele>711.2</ele>
        <time>2021-05-28T11:00:16Z</time>
      </trkpt>
      <trkpt lat="45.56208" lon="6.68716">
        <ele>711</ele>
        <time>2021-05-28T11:00:17Z</time>
      </trkpt>
      <trkpt lat="45.56212" lon="6.68704">
        <ele>710.8</ele>
        <time>2021-05-28T11:00:18Z</time>
      </trkpt>
      <trkpt lat="45.56215" lon="6.68692">
        <ele>710.4</ele>
        <time>2021-05-28T11:00:19Z</time>
      </trkpt>
      <trkpt lat="45.56219" lon="6.68681">
        <ele>710.4</ele>
        <time>2021-05-28T11:00:20Z</time>
      </trkpt>
      <trkpt lat="45.56224" lon="6.68669">
        <ele>710.2</ele>
        <time>2021-05-28T11:00:21Z</time>
      </trkpt>
      <trkpt lat="45.56228" lon="6.68658">
        <ele>710</ele>
        <time>2021-05-28T11:00:22Z</time>
      </trkpt>
      <trkpt lat="45.56232" lon="6.68646">
        <ele>709.8</ele>
        <time>2021-05-28T11:00:23Z</time>
      </trkpt>
      <trkpt lat="45.56237" lon="6.68634">
        <ele>709.6</ele>
        <time>2021-05-28T11:00:24Z</time>
      </trkpt>
      <trkpt lat="45.56242" lon="6.68621">
        <ele>709.6</ele>
        <time>2021-05-28T11:00:25Z</time>
      </trkpt>
      <trkpt lat="45.56246" lon="6.6861">
        <ele>709.8</ele>
        <time>2021-05-28T11:00:26Z</time>
      </trkpt>
      <trkpt lat="45.5625" lon="6.68598">
        <ele>709.8</ele>
        <time>2021-05-28T11:00:27Z</time>
      </trkpt>
      <trkpt lat="45.56255" lon="6.68587">
        <ele>709.8</ele>
        <time>2021-05-28T11:00:28Z</time>
      </trkpt>
      <trkpt lat="45.56259" lon="6.68576">
        <ele>709.8</ele>
        <time>2021-05-28T11:00:29Z</time>
      </trkpt>
      <trkpt lat="45.56264" lon="6.68565">
        <ele>709.6</ele>
        <time>2021-05-28T11:00:30Z</time>
      </trkpt>
      <trkpt lat="45.56268" lon="6.68554">
        <ele>709.2</ele>
        <time>2021-05-28T11:00:31Z</time>
      </trkpt>
      <trkpt lat="45.56273" lon="6.68543">
        <ele>709.2</ele>
        <time>2021-05-28T11:00:32Z</time>
      </trkpt>
      <trkpt lat="45.56278" lon="6.68532">
        <ele>709</ele>
        <time>2021-05-28T11:00:33Z</time>
      </trkpt>
      <trkpt lat="45.56283" lon="6.68522">
        <ele>709</ele>
        <time>2021-05-28T11:00:34Z</time>
      </trkpt>
      <trkpt lat="45.56288" lon="6.68512">
        <ele>708.6</ele>
        <time>2021-05-28T11:00:35Z</time>
      </trkpt>
      <trkpt lat="45.56293" lon="6.68503">
        <ele>708.6</ele>
        <time>2021-05-28T11:00:36Z</time>
      </trkpt>
      <trkpt lat="45.563" lon="6.68494">
        <ele>708.4</ele>
        <time>2021-05-28T11:00:37Z</time>
      </trkpt>
      <trkpt lat="45.56307" lon="6.68485">
        <ele>708.2</ele>
        <time>2021-05-28T11:00:38Z</time>
      </trkpt>
      <trkpt lat="45.56313" lon="6.68477">
        <ele>708</ele>
        <time>2021-05-28T11:00:39Z</time>
      </trkpt>
      <trkpt lat="45.56321" lon="6.6847">
        <ele>707.6</ele>
        <time>2021-05-28T11:00:40Z</time>
      </trkpt>
      <trkpt lat="45.56328" lon="6.68464">
        <ele>707.4</ele>
        <time>2021-05-28T11:00:41Z</time>
      </trkpt>
      <trkpt lat="45.56334" lon="6.68457">
        <ele>707</ele>
        <time>2021-05-28T11:00:42Z</time>
      </trkpt>
      <trkpt lat="45.56341" lon="6.68449">
        <ele>706.8</ele>
        <time>2021-05-28T11:00:43Z</time>
      </trkpt>
      <trkpt lat="45.56347" lon="6.6844">
        <ele>706.6</ele>
        <time>2021-05-28T11:00:44Z</time>
      </trkpt>
      <trkpt lat="45.56351" lon="6.68431">
        <ele>706.4</ele>
        <time>2021-05-28T11:00:45Z</time>
      </trkpt>
      <trkpt lat="45.56353" lon="6.68421">
        <ele>706.4</ele>
        <time>2021-05-28T11:00:46Z</time>
      </trkpt>
      <trkpt lat="45.56353" lon="6.68409">
        <ele>706.6</ele>
        <time>2021-05-28T11:00:47Z</time>
      </trkpt>
      <trkpt lat="45.56353" lon="6.68398">
        <ele>706.8</ele>
        <time>2021-05-28T11:00:48Z</time>
      </trkpt>
      <trkpt lat="45.56352" lon="6.68387">
        <ele>707</ele>
        <time>2021-05-28T11:00:49Z</time>
      </trkpt>
      <trkpt lat="45.56351" lon="6.68375">
        <ele>707.4</ele>
        <time>2021-05-28T11:00:50Z</time>
      </trkpt>
      <trkpt lat="45.56352" lon="6.68363">
        <ele>707.6</ele>
        <time>2021-05-28T11:00:51Z</time>
      </trkpt>
      <trkpt lat="45.56352" lon="6.68353">
        <ele>707.8</ele>
        <time>2021-05-28T11:00:52Z</time>
      </trkpt>
      <trkpt lat="45.56353" lon="6.68341">
        <ele>707.8</ele>
        <time>2021-05-28T11:00:53Z</time>
      </trkpt>
      <trkpt lat="45.56355" lon="6.6833">
        <ele>707.8</ele>
        <time>2021-05-28T11:00:54Z</time>
      </trkpt>
      <trkpt lat="45.56357" lon="6.68319">
        <ele>707.8</ele>
        <time>2021-05-28T11:00:55Z</time>
      </trkpt>
      <trkpt lat="45.56359" lon="6.68309">
        <ele>707.8</ele>
        <time>2021-05-28T11:00:56Z</time>
      </trkpt>
      <trkpt lat="45.56363" lon="6.68299">
        <ele>707.8</ele>
        <time>2021-05-28T11:00:57Z</time>
      </trkpt>
      <trkpt lat="45.56365" lon="6.68289">
        <ele>707.8</ele>
        <time>2021-05-28T11:00:58Z</time>
      </trkpt>
      <trkpt lat="45.56368" lon="6.68279">
        <ele>707.6</ele>
        <time>2021-05-28T11:00:59Z</time>
      </trkpt>
      <trkpt lat="45.56371" lon="6.68267">
        <ele>707.4</ele>
        <time>2021-05-28T11:01:00Z</time>
      </trkpt>
      <trkpt lat="45.56373" lon="6.68256">
        <ele>707.2</ele>
        <time>2021-05-28T11:01:01Z</time>
      </trkpt>
      <trkpt lat="45.56376" lon="6.68245">
        <ele>707.2</ele>
        <time>2021-05-28T11:01:02Z</time>
      </trkpt>
      <trkpt lat="45.56377" lon="6.68232">
        <ele>707</ele>
        <time>2021-05-28T11:01:03Z</time>
      </trkpt>
      <trkpt lat="45.56378" lon="6.68223">
        <ele>707</ele>
        <time>2021-05-28T11:01:04Z</time>
      </trkpt>
      <trkpt lat="45.56379" lon="6.68214">
        <ele>706.6</ele>
        <time>2021-05-28T11:01:05Z</time>
      </trkpt>
      <trkpt lat="45.5638" lon="6.68206">
        <ele>706.4</ele>
        <time>2021-05-28T11:01:06Z</time>
      </trkpt>
      <trkpt lat="45.56379" lon="6.68197">
        <ele>706.2</ele>
        <time>2021-05-28T11:01:07Z</time>
      </trkpt>
      <trkpt lat="45.56379" lon="6.68186">
        <ele>706</ele>
        <time>2021-05-28T11:01:08Z</time>
      </trkpt>
      <trkpt lat="45.56377" lon="6.68175">
        <ele>705.8</ele>
        <time>2021-05-28T11:01:09Z</time>
      </trkpt>
      <trkpt lat="45.56374" lon="6.68162">
        <ele>705.6</ele>
        <time>2021-05-28T11:01:10Z</time>
      </trkpt>
      <trkpt lat="45.5637" lon="6.68147">
        <ele>705.2</ele>
        <time>2021-05-28T11:01:11Z</time>
      </trkpt>
      <trkpt lat="45.56365" lon="6.68132">
        <ele>705</ele>
        <time>2021-05-28T11:01:12Z</time>
      </trkpt>
      <trkpt lat="45.56361" lon="6.68116">
        <ele>704.8</ele>
        <time>2021-05-28T11:01:13Z</time>
      </trkpt>
      <trkpt lat="45.56357" lon="6.68102">
        <ele>704.6</ele>
        <time>2021-05-28T11:01:14Z</time>
      </trkpt>
      <trkpt lat="45.56351" lon="6.68086">
        <ele>704</ele>
        <time>2021-05-28T11:01:15Z</time>
      </trkpt>
      <trkpt lat="45.56346" lon="6.68072">
        <ele>703.4</ele>
        <time>2021-05-28T11:01:16Z</time>
      </trkpt>
      <trkpt lat="45.56341" lon="6.68058">
        <ele>703</ele>
        <time>2021-05-28T11:01:17Z</time>
      </trkpt>
      <trkpt lat="45.56337" lon="6.68045">
        <ele>702.8</ele>
        <time>2021-05-28T11:01:18Z</time>
      </trkpt>
      <trkpt lat="45.56333" lon="6.68032">
        <ele>702.6</ele>
        <time>2021-05-28T11:01:19Z</time>
      </trkpt>
      <trkpt lat="45.56331" lon="6.68019">
        <ele>702.6</ele>
        <time>2021-05-28T11:01:20Z</time>
      </trkpt>
      <trkpt lat="45.56327" lon="6.68006">
        <ele>702.6</ele>
        <time>2021-05-28T11:01:21Z</time>
      </trkpt>
      <trkpt lat="45.56324" lon="6.67993">
        <ele>702.4</ele>
        <time>2021-05-28T11:01:22Z</time>
      </trkpt>
      <trkpt lat="45.56321" lon="6.67981">
        <ele>702.4</ele>
        <time>2021-05-28T11:01:23Z</time>
      </trkpt>
      <trkpt lat="45.56317" lon="6.67969">
        <ele>702.6</ele>
        <time>2021-05-28T11:01:24Z</time>
      </trkpt>
      <trkpt lat="45.56314" lon="6.67959">
        <ele>702.8</ele>
        <time>2021-05-28T11:01:25Z</time>
      </trkpt>
      <trkpt lat="45.5631" lon="6.6795">
        <ele>703</ele>
        <time>2021-05-28T11:01:26Z</time>
      </trkpt>
      <trkpt lat="45.56305" lon="6.67939">
        <ele>702.8</ele>
        <time>2021-05-28T11:01:27Z</time>
      </trkpt>
      <trkpt lat="45.56301" lon="6.67929">
        <ele>703</ele>
        <time>2021-05-28T11:01:28Z</time>
      </trkpt>
      <trkpt lat="45.56299" lon="6.67918">
        <ele>703.2</ele>
        <time>2021-05-28T11:01:29Z</time>
      </trkpt>
      <trkpt lat="45.56296" lon="6.67907">
        <ele>703.2</ele>
        <time>2021-05-28T11:01:30Z</time>
      </trkpt>
      <trkpt lat="45.56293" lon="6.67896">
        <ele>703.2</ele>
        <time>2021-05-28T11:01:31Z</time>
      </trkpt>
      <trkpt lat="45.56289" lon="6.67884">
        <ele>703.2</ele>
        <time>2021-05-28T11:01:32Z</time>
      </trkpt>
      <trkpt lat="45.56287" lon="6.67871">
        <ele>703.4</ele>
        <time>2021-05-28T11:01:33Z</time>
      </trkpt>
      <trkpt lat="45.56285" lon="6.67859">
        <ele>703.4</ele>
        <time>2021-05-28T11:01:34Z</time>
      </trkpt>
      <trkpt lat="45.56283" lon="6.67845">
        <ele>703.4</ele>
        <time>2021-05-28T11:01:35Z</time>
      </trkpt>
      <trkpt lat="45.56281" lon="6.67831">
        <ele>703.2</ele>
        <time>2021-05-28T11:01:36Z</time>
      </trkpt>
      <trkpt lat="45.56278" lon="6.67815">
        <ele>703</ele>
        <time>2021-05-28T11:01:37Z</time>
      </trkpt>
      <trkpt lat="45.56275" lon="6.67801">
        <ele>703</ele>
        <time>2021-05-28T11:01:38Z</time>
      </trkpt>
      <trkpt lat="45.5627" lon="6.67787">
        <ele>702.8</ele>
        <time>2021-05-28T11:01:39Z</time>
      </trkpt>
      <trkpt lat="45.56265" lon="6.67773">
        <ele>702.8</ele>
        <time>2021-05-28T11:01:40Z</time>
      </trkpt>
      <trkpt lat="45.5626" lon="6.67759">
        <ele>702.4</ele>
        <time>2021-05-28T11:01:41Z</time>
      </trkpt>
      <trkpt lat="45.56255" lon="6.67745">
        <ele>701.8</ele>
        <time>2021-05-28T11:01:42Z</time>
      </trkpt>
      <trkpt lat="45.56249" lon="6.67731">
        <ele>701.4</ele>
        <time>2021-05-28T11:01:43Z</time>
      </trkpt>
      <trkpt lat="45.56244" lon="6.67718">
        <ele>701</ele>
        <time>2021-05-28T11:01:44Z</time>
      </trkpt>
      <trkpt lat="45.56237" lon="6.67705">
        <ele>700.6</ele>
        <time>2021-05-28T11:01:45Z</time>
      </trkpt>
      <trkpt lat="45.56232" lon="6.67693">
        <ele>700</ele>
        <time>2021-05-28T11:01:46Z</time>
      </trkpt>
      <trkpt lat="45.56225" lon="6.67682">
        <ele>699.4</ele>
        <time>2021-05-28T11:01:47Z</time>
      </trkpt>
      <trkpt lat="45.56217" lon="6.67671">
        <ele>699.2</ele>
        <time>2021-05-28T11:01:48Z</time>
      </trkpt>
      <trkpt lat="45.56209" lon="6.67661">
        <ele>698.8</ele>
        <time>2021-05-28T11:01:49Z</time>
      </trkpt>
      <trkpt lat="45.562" lon="6.67652">
        <ele>698.6</ele>
        <time>2021-05-28T11:01:50Z</time>
      </trkpt>
      <trkpt lat="45.56192" lon="6.67643">
        <ele>698.2</ele>
        <time>2021-05-28T11:01:51Z</time>
      </trkpt>
      <trkpt lat="45.56184" lon="6.67634">
        <ele>698</ele>
        <time>2021-05-28T11:01:52Z</time>
      </trkpt>
      <trkpt lat="45.56176" lon="6.67627">
        <ele>697.8</ele>
        <time>2021-05-28T11:01:53Z</time>
      </trkpt>
      <trkpt lat="45.56167" lon="6.67618">
        <ele>697.2</ele>
        <time>2021-05-28T11:01:54Z</time>
      </trkpt>
      <trkpt lat="45.56159" lon="6.6761">
        <ele>697</ele>
        <time>2021-05-28T11:01:55Z</time>
      </trkpt>
      <trkpt lat="45.56151" lon="6.67602">
        <ele>696.8</ele>
        <time>2021-05-28T11:01:56Z</time>
      </trkpt>
      <trkpt lat="45.56143" lon="6.67595">
        <ele>696.4</ele>
        <time>2021-05-28T11:01:57Z</time>
      </trkpt>
      <trkpt lat="45.56135" lon="6.67586">
        <ele>696</ele>
        <time>2021-05-28T11:01:58Z</time>
      </trkpt>
      <trkpt lat="45.56128" lon="6.67575">
        <ele>695.8</ele>
        <time>2021-05-28T11:01:59Z</time>
      </trkpt>
      <trkpt lat="45.56122" lon="6.67565">
        <ele>695.6</ele>
        <time>2021-05-28T11:02:00Z</time>
      </trkpt>
      <trkpt lat="45.56115" lon="6.67554">
        <ele>695.4</ele>
        <time>2021-05-28T11:02:01Z</time>
      </trkpt>
      <trkpt lat="45.5611" lon="6.67542">
        <ele>695.4</ele>
        <time>2021-05-28T11:02:02Z</time>
      </trkpt>
      <trkpt lat="45.56104" lon="6.67531">
        <ele>695.4</ele>
        <time>2021-05-28T11:02:03Z</time>
      </trkpt>
      <trkpt lat="45.56099" lon="6.67519">
        <ele>695.4</ele>
        <time>2021-05-28T11:02:04Z</time>
      </trkpt>
      <trkpt lat="45.56094" lon="6.67506">
        <ele>695</ele>
        <time>2021-05-28T11:02:05Z</time>
      </trkpt>
      <trkpt lat="45.5609" lon="6.67492">
        <ele>694.6</ele>
        <time>2021-05-28T11:02:06Z</time>
      </trkpt>
      <trkpt lat="45.56087" lon="6.6748">
        <ele>694.4</ele>
        <time>2021-05-28T11:02:07Z</time>
      </trkpt>
      <trkpt lat="45.56083" lon="6.67467">
        <ele>694.2</ele>
        <time>2021-05-28T11:02:08Z</time>
      </trkpt>
      <trkpt lat="45.56079" lon="6.67454">
        <ele>694.4</ele>
        <time>2021-05-28T11:02:09Z</time>
      </trkpt>
      <trkpt lat="45.56075" lon="6.67442">
        <ele>694.4</ele>
        <time>2021-05-28T11:02:10Z</time>
      </trkpt>
      <trkpt lat="45.5607" lon="6.67429">
        <ele>694.2</ele>
        <time>2021-05-28T11:02:11Z</time>
      </trkpt>
      <trkpt lat="45.56066" lon="6.67416">
        <ele>694.2</ele>
        <time>2021-05-28T11:02:12Z</time>
      </trkpt>
      <trkpt lat="45.56061" lon="6.67403">
        <ele>694.2</ele>
        <time>2021-05-28T11:02:13Z</time>
      </trkpt>
      <trkpt lat="45.56057" lon="6.6739">
        <ele>694</ele>
        <time>2021-05-28T11:02:14Z</time>
      </trkpt>
      <trkpt lat="45.56053" lon="6.67377">
        <ele>693.8</ele>
        <time>2021-05-28T11:02:15Z</time>
      </trkpt>
      <trkpt lat="45.56049" lon="6.67365">
        <ele>693.8</ele>
        <time>2021-05-28T11:02:16Z</time>
      </trkpt>
      <trkpt lat="45.56046" lon="6.67351">
        <ele>693.4</ele>
        <time>2021-05-28T11:02:17Z</time>
      </trkpt>
      <trkpt lat="45.56043" lon="6.67339">
        <ele>693.2</ele>
        <time>2021-05-28T11:02:18Z</time>
      </trkpt>
      <trkpt lat="45.56041" lon="6.67327">
        <ele>693.2</ele>
        <time>2021-05-28T11:02:19Z</time>
      </trkpt>
      <trkpt lat="45.56039" lon="6.67315">
        <ele>693.6</ele>
        <time>2021-05-28T11:02:20Z</time>
      </trkpt>
      <trkpt lat="45.56037" lon="6.67303">
        <ele>693.2</ele>
        <time>2021-05-28T11:02:21Z</time>
      </trkpt>
      <trkpt lat="45.56035" lon="6.6729">
        <ele>693.2</ele>
        <time>2021-05-28T11:02:22Z</time>
      </trkpt>
      <trkpt lat="45.56033" lon="6.67277">
        <ele>692.8</ele>
        <time>2021-05-28T11:02:23Z</time>
      </trkpt>
      <trkpt lat="45.56032" lon="6.67265">
        <ele>692.6</ele>
        <time>2021-05-28T11:02:24Z</time>
      </trkpt>
      <trkpt lat="45.56031" lon="6.67252">
        <ele>692.8</ele>
        <time>2021-05-28T11:02:25Z</time>
      </trkpt>
      <trkpt lat="45.56029" lon="6.67239">
        <ele>692.8</ele>
        <time>2021-05-28T11:02:26Z</time>
      </trkpt>
      <trkpt lat="45.56028" lon="6.67225">
        <ele>692.4</ele>
        <time>2021-05-28T11:02:27Z</time>
      </trkpt>
      <trkpt lat="45.56029" lon="6.67212">
        <ele>692</ele>
        <time>2021-05-28T11:02:28Z</time>
      </trkpt>
      <trkpt lat="45.5603" lon="6.67198">
        <ele>692</ele>
        <time>2021-05-28T11:02:29Z</time>
      </trkpt>
      <trkpt lat="45.56033" lon="6.67184">
        <ele>691.6</ele>
        <time>2021-05-28T11:02:30Z</time>
      </trkpt>
      <trkpt lat="45.56037" lon="6.67172">
        <ele>691.2</ele>
        <time>2021-05-28T11:02:31Z</time>
      </trkpt>
      <trkpt lat="45.56041" lon="6.67159">
        <ele>691</ele>
        <time>2021-05-28T11:02:32Z</time>
      </trkpt>
      <trkpt lat="45.56043" lon="6.67147">
        <ele>690.8</ele>
        <time>2021-05-28T11:02:33Z</time>
      </trkpt>
      <trkpt lat="45.56043" lon="6.67135">
        <ele>690.4</ele>
        <time>2021-05-28T11:02:34Z</time>
      </trkpt>
      <trkpt lat="45.56041" lon="6.67122">
        <ele>689.6</ele>
        <time>2021-05-28T11:02:35Z</time>
      </trkpt>
      <trkpt lat="45.56038" lon="6.6711">
        <ele>689.4</ele>
        <time>2021-05-28T11:02:36Z</time>
      </trkpt>
      <trkpt lat="45.56035" lon="6.67098">
        <ele>689.6</ele>
        <time>2021-05-28T11:02:37Z</time>
      </trkpt>
      <trkpt lat="45.56031" lon="6.67086">
        <ele>689.6</ele>
        <time>2021-05-28T11:02:38Z</time>
      </trkpt>
      <trkpt lat="45.56026" lon="6.67073">
        <ele>689.6</ele>
        <time>2021-05-28T11:02:39Z</time>
      </trkpt>
      <trkpt lat="45.5602" lon="6.67063">
        <ele>689.6</ele>
        <time>2021-05-28T11:02:40Z</time>
      </trkpt>
      <trkpt lat="45.56015" lon="6.67053">
        <ele>689.6</ele>
        <time>2021-05-28T11:02:41Z</time>
      </trkpt>
      <trkpt lat="45.56011" lon="6.67043">
        <ele>689.8</ele>
        <time>2021-05-28T11:02:42Z</time>
      </trkpt>
      <trkpt lat="45.56007" lon="6.67033">
        <ele>689.8</ele>
        <time>2021-05-28T11:02:43Z</time>
      </trkpt>
      <trkpt lat="45.56003" lon="6.67023">
        <ele>689.8</ele>
        <time>2021-05-28T11:02:44Z</time>
      </trkpt>
      <trkpt lat="45.55998" lon="6.67013">
        <ele>689.8</ele>
        <time>2021-05-28T11:02:45Z</time>
      </trkpt>
      <trkpt lat="45.55995" lon="6.67003">
        <ele>689.6</ele>
        <time>2021-05-28T11:02:46Z</time>
      </trkpt>
      <trkpt lat="45.55992" lon="6.66992">
        <ele>689.6</ele>
        <time>2021-05-28T11:02:47Z</time>
      </trkpt>
      <trkpt lat="45.55989" lon="6.6698">
        <ele>689.8</ele>
        <time>2021-05-28T11:02:48Z</time>
      </trkpt>
      <trkpt lat="45.55985" lon="6.66969">
        <ele>689.8</ele>
        <time>2021-05-28T11:02:49Z</time>
      </trkpt>
      <trkpt lat="45.55982" lon="6.66958">
        <ele>689.8</ele>
        <time>2021-05-28T11:02:50Z</time>
      </trkpt>
      <trkpt lat="45.55978" lon="6.66947">
        <ele>689.6</ele>
        <time>2021-05-28T11:02:51Z</time>
      </trkpt>
      <trkpt lat="45.55973" lon="6.66937">
        <ele>689</ele>
        <time>2021-05-28T11:02:52Z</time>
      </trkpt>
      <trkpt lat="45.55968" lon="6.66927">
        <ele>688.2</ele>
        <time>2021-05-28T11:02:53Z</time>
      </trkpt>
      <trkpt lat="45.55964" lon="6.66917">
        <ele>687.8</ele>
        <time>2021-05-28T11:02:54Z</time>
      </trkpt>
      <trkpt lat="45.55958" lon="6.66905">
        <ele>687.4</ele>
        <time>2021-05-28T11:02:55Z</time>
      </trkpt>
      <trkpt lat="45.55953" lon="6.66895">
        <ele>687.2</ele>
        <time>2021-05-28T11:02:56Z</time>
      </trkpt>
      <trkpt lat="45.55948" lon="6.66885">
        <ele>686.8</ele>
        <time>2021-05-28T11:02:57Z</time>
      </trkpt>
      <trkpt lat="45.55944" lon="6.66873">
        <ele>686.6</ele>
        <time>2021-05-28T11:02:58Z</time>
      </trkpt>
      <trkpt lat="45.5594" lon="6.66862">
        <ele>686.4</ele>
        <time>2021-05-28T11:02:59Z</time>
      </trkpt>
      <trkpt lat="45.55935" lon="6.66851">
        <ele>686.2</ele>
        <time>2021-05-28T11:03:00Z</time>
      </trkpt>
      <trkpt lat="45.55931" lon="6.66839">
        <ele>686</ele>
        <time>2021-05-28T11:03:01Z</time>
      </trkpt>
      <trkpt lat="45.55927" lon="6.66828">
        <ele>685.8</ele>
        <time>2021-05-28T11:03:02Z</time>
      </trkpt>
      <trkpt lat="45.55924" lon="6.66816">
        <ele>685.4</ele>
        <time>2021-05-28T11:03:03Z</time>
      </trkpt>
      <trkpt lat="45.55922" lon="6.66803">
        <ele>685.2</ele>
        <time>2021-05-28T11:03:04Z</time>
      </trkpt>
      <trkpt lat="45.55919" lon="6.66791">
        <ele>685</ele>
        <time>2021-05-28T11:03:05Z</time>
      </trkpt>
      <trkpt lat="45.55916" lon="6.66778">
        <ele>684.8</ele>
        <time>2021-05-28T11:03:06Z</time>
      </trkpt>
      <trkpt lat="45.55915" lon="6.66767">
        <ele>684.6</ele>
        <time>2021-05-28T11:03:07Z</time>
      </trkpt>
      <trkpt lat="45.55913" lon="6.66754">
        <ele>684.6</ele>
        <time>2021-05-28T11:03:08Z</time>
      </trkpt>
      <trkpt lat="45.55912" lon="6.66742">
        <ele>684.2</ele>
        <time>2021-05-28T11:03:09Z</time>
      </trkpt>
      <trkpt lat="45.5591" lon="6.66729">
        <ele>684</ele>
        <time>2021-05-28T11:03:10Z</time>
      </trkpt>
      <trkpt lat="45.55908" lon="6.66717">
        <ele>683.8</ele>
        <time>2021-05-28T11:03:11Z</time>
      </trkpt>
      <trkpt lat="45.55906" lon="6.66705">
        <ele>683.4</ele>
        <time>2021-05-28T11:03:12Z</time>
      </trkpt>
      <trkpt lat="45.55904" lon="6.66693">
        <ele>683.4</ele>
        <time>2021-05-28T11:03:13Z</time>
      </trkpt>
      <trkpt lat="45.55901" lon="6.66681">
        <ele>683.2</ele>
        <time>2021-05-28T11:03:14Z</time>
      </trkpt>
      <trkpt lat="45.55898" lon="6.6667">
        <ele>683.2</ele>
        <time>2021-05-28T11:03:15Z</time>
      </trkpt>
      <trkpt lat="45.55893" lon="6.6666">
        <ele>683.2</ele>
        <time>2021-05-28T11:03:16Z</time>
      </trkpt>
      <trkpt lat="45.55888" lon="6.6665">
        <ele>683.8</ele>
        <time>2021-05-28T11:03:17Z</time>
      </trkpt>
      <trkpt lat="45.55882" lon="6.66642">
        <ele>684.2</ele>
        <time>2021-05-28T11:03:18Z</time>
      </trkpt>
      <trkpt lat="45.55875" lon="6.66636">
        <ele>684.2</ele>
        <time>2021-05-28T11:03:19Z</time>
      </trkpt>
      <trkpt lat="45.55868" lon="6.6663">
        <ele>684.4</ele>
        <time>2021-05-28T11:03:20Z</time>
      </trkpt>
      <trkpt lat="45.55861" lon="6.66623">
        <ele>684.2</ele>
        <time>2021-05-28T11:03:21Z</time>
      </trkpt>
      <trkpt lat="45.55854" lon="6.66615">
        <ele>684</ele>
        <time>2021-05-28T11:03:22Z</time>
      </trkpt>
      <trkpt lat="45.55847" lon="6.66608">
        <ele>683.8</ele>
        <time>2021-05-28T11:03:23Z</time>
      </trkpt>
      <trkpt lat="45.5584" lon="6.66601">
        <ele>683.8</ele>
        <time>2021-05-28T11:03:24Z</time>
      </trkpt>
      <trkpt lat="45.55833" lon="6.66595">
        <ele>683.6</ele>
        <time>2021-05-28T11:03:25Z</time>
      </trkpt>
      <trkpt lat="45.55827" lon="6.66588">
        <ele>683.6</ele>
        <time>2021-05-28T11:03:26Z</time>
      </trkpt>
      <trkpt lat="45.5582" lon="6.66582">
        <ele>683.2</ele>
        <time>2021-05-28T11:03:27Z</time>
      </trkpt>
      <trkpt lat="45.55814" lon="6.66574">
        <ele>683.2</ele>
        <time>2021-05-28T11:03:28Z</time>
      </trkpt>
      <trkpt lat="45.55809" lon="6.66567">
        <ele>683</ele>
        <time>2021-05-28T11:03:29Z</time>
      </trkpt>
      <trkpt lat="45.55804" lon="6.66559">
        <ele>682.8</ele>
        <time>2021-05-28T11:03:30Z</time>
      </trkpt>
      <trkpt lat="45.55797" lon="6.66552">
        <ele>682.8</ele>
        <time>2021-05-28T11:03:31Z</time>
      </trkpt>
      <trkpt lat="45.5579" lon="6.66546">
        <ele>682.6</ele>
        <time>2021-05-28T11:03:32Z</time>
      </trkpt>
      <trkpt lat="45.55785" lon="6.66538">
        <ele>682.4</ele>
        <time>2021-05-28T11:03:33Z</time>
      </trkpt>
      <trkpt lat="45.55778" lon="6.66529">
        <ele>682.2</ele>
        <time>2021-05-28T11:03:34Z</time>
      </trkpt>
      <trkpt lat="45.55773" lon="6.66519">
        <ele>682</ele>
        <time>2021-05-28T11:03:35Z</time>
      </trkpt>
      <trkpt lat="45.55767" lon="6.66509">
        <ele>681.8</ele>
        <time>2021-05-28T11:03:36Z</time>
      </trkpt>
      <trkpt lat="45.55761" lon="6.665">
        <ele>681.6</ele>
        <time>2021-05-28T11:03:37Z</time>
      </trkpt>
      <trkpt lat="45.55756" lon="6.6649">
        <ele>681.4</ele>
        <time>2021-05-28T11:03:38Z</time>
      </trkpt>
      <trkpt lat="45.55751" lon="6.66483">
        <ele>681.2</ele>
        <time>2021-05-28T11:03:39Z</time>
      </trkpt>
      <trkpt lat="45.55745" lon="6.66473">
        <ele>681</ele>
        <time>2021-05-28T11:03:40Z</time>
      </trkpt>
      <trkpt lat="45.55739" lon="6.66464">
        <ele>681</ele>
        <time>2021-05-28T11:03:41Z</time>
      </trkpt>
      <trkpt lat="45.55733" lon="6.66456">
        <ele>681</ele>
        <time>2021-05-28T11:03:42Z</time>
      </trkpt>
      <trkpt lat="45.55728" lon="6.66447">
        <ele>680.8</ele>
        <time>2021-05-28T11:03:43Z</time>
      </trkpt>
      <trkpt lat="45.55723" lon="6.66437">
        <ele>680.4</ele>
        <time>2021-05-28T11:03:44Z</time>
      </trkpt>
      <trkpt lat="45.55718" lon="6.66427">
        <ele>680.2</ele>
        <time>2021-05-28T11:03:45Z</time>
      </trkpt>
      <trkpt lat="45.55714" lon="6.66418">
        <ele>680</ele>
        <time>2021-05-28T11:03:46Z</time>
      </trkpt>
      <trkpt lat="45.5571" lon="6.66409">
        <ele>679.4</ele>
        <time>2021-05-28T11:03:47Z</time>
      </trkpt>
      <trkpt lat="45.55708" lon="6.66402">
        <ele>678.8</ele>
        <time>2021-05-28T11:03:48Z</time>
      </trkpt>
      <trkpt lat="45.55705" lon="6.66396">
        <ele>678.4</ele>
        <time>2021-05-28T11:03:49Z</time>
      </trkpt>
      <trkpt lat="45.55701" lon="6.66392">
        <ele>678.4</ele>
        <time>2021-05-28T11:03:50Z</time>
      </trkpt>
      <trkpt lat="45.55698" lon="6.66387">
        <ele>678.2</ele>
        <time>2021-05-28T11:03:51Z</time>
      </trkpt>
      <trkpt lat="45.55695" lon="6.66381">
        <ele>678</ele>
        <time>2021-05-28T11:03:52Z</time>
      </trkpt>
      <trkpt lat="45.55694" lon="6.66374">
        <ele>678</ele>
        <time>2021-05-28T11:03:53Z</time>
      </trkpt>
      <trkpt lat="45.55692" lon="6.66366">
        <ele>677.4</ele>
        <time>2021-05-28T11:03:54Z</time>
      </trkpt>
      <trkpt lat="45.55691" lon="6.66358">
        <ele>677.2</ele>
        <time>2021-05-28T11:03:55Z</time>
      </trkpt>
      <trkpt lat="45.5569" lon="6.66349">
        <ele>677.2</ele>
        <time>2021-05-28T11:03:56Z</time>
      </trkpt>
      <trkpt lat="45.55688" lon="6.6634">
        <ele>676.6</ele>
        <time>2021-05-28T11:03:57Z</time>
      </trkpt>
      <trkpt lat="45.55686" lon="6.66331">
        <ele>676.4</ele>
        <time>2021-05-28T11:03:58Z</time>
      </trkpt>
      <trkpt lat="45.55685" lon="6.66321">
        <ele>676.2</ele>
        <time>2021-05-28T11:03:59Z</time>
      </trkpt>
      <trkpt lat="45.55683" lon="6.66312">
        <ele>676.2</ele>
        <time>2021-05-28T11:04:00Z</time>
      </trkpt>
      <trkpt lat="45.55681" lon="6.66302">
        <ele>675.6</ele>
        <time>2021-05-28T11:04:01Z</time>
      </trkpt>
      <trkpt lat="45.55679" lon="6.66292">
        <ele>675.6</ele>
        <time>2021-05-28T11:04:02Z</time>
      </trkpt>
      <trkpt lat="45.55677" lon="6.66282">
        <ele>675.4</ele>
        <time>2021-05-28T11:04:03Z</time>
      </trkpt>
      <trkpt lat="45.55675" lon="6.66272">
        <ele>675</ele>
        <time>2021-05-28T11:04:04Z</time>
      </trkpt>
      <trkpt lat="45.55673" lon="6.66261">
        <ele>674.2</ele>
        <time>2021-05-28T11:04:05Z</time>
      </trkpt>
      <trkpt lat="45.55671" lon="6.66251">
        <ele>674.4</ele>
        <time>2021-05-28T11:04:06Z</time>
      </trkpt>
      <trkpt lat="45.55669" lon="6.6624">
        <ele>674.6</ele>
        <time>2021-05-28T11:04:07Z</time>
      </trkpt>
      <trkpt lat="45.55666" lon="6.66229">
        <ele>674.6</ele>
        <time>2021-05-28T11:04:08Z</time>
      </trkpt>
      <trkpt lat="45.55663" lon="6.66218">
        <ele>674.4</ele>
        <time>2021-05-28T11:04:09Z</time>
      </trkpt>
      <trkpt lat="45.5566" lon="6.66207">
        <ele>674.4</ele>
        <time>2021-05-28T11:04:10Z</time>
      </trkpt>
      <trkpt lat="45.55656" lon="6.66197">
        <ele>674.2</ele>
        <time>2021-05-28T11:04:11Z</time>
      </trkpt>
      <trkpt lat="45.55652" lon="6.66187">
        <ele>673.8</ele>
        <time>2021-05-28T11:04:12Z</time>
      </trkpt>
      <trkpt lat="45.55646" lon="6.66178">
        <ele>673.6</ele>
        <time>2021-05-28T11:04:13Z</time>
      </trkpt>
      <trkpt lat="45.55642" lon="6.66169">
        <ele>673.8</ele>
        <time>2021-05-28T11:04:14Z</time>
      </trkpt>
      <trkpt lat="45.55636" lon="6.6616">
        <ele>673.6</ele>
        <time>2021-05-28T11:04:15Z</time>
      </trkpt>
      <trkpt lat="45.55632" lon="6.66151">
        <ele>674</ele>
        <time>2021-05-28T11:04:16Z</time>
      </trkpt>
      <trkpt lat="45.55628" lon="6.66141">
        <ele>674</ele>
        <time>2021-05-28T11:04:17Z</time>
      </trkpt>
      <trkpt lat="45.55624" lon="6.66132">
        <ele>674</ele>
        <time>2021-05-28T11:04:18Z</time>
      </trkpt>
      <trkpt lat="45.5562" lon="6.66123">
        <ele>673.6</ele>
        <time>2021-05-28T11:04:19Z</time>
      </trkpt>
      <trkpt lat="45.55615" lon="6.66114">
        <ele>673.4</ele>
        <time>2021-05-28T11:04:20Z</time>
      </trkpt>
      <trkpt lat="45.55611" lon="6.66107">
        <ele>673.6</ele>
        <time>2021-05-28T11:04:21Z</time>
      </trkpt>
      <trkpt lat="45.55605" lon="6.661">
        <ele>673.6</ele>
        <time>2021-05-28T11:04:22Z</time>
      </trkpt>
      <trkpt lat="45.556" lon="6.66094">
        <ele>673.8</ele>
        <time>2021-05-28T11:04:23Z</time>
      </trkpt>
      <trkpt lat="45.55594" lon="6.66089">
        <ele>673.6</ele>
        <time>2021-05-28T11:04:24Z</time>
      </trkpt>
      <trkpt lat="45.5559" lon="6.66083">
        <ele>673.4</ele>
        <time>2021-05-28T11:04:25Z</time>
      </trkpt>
      <trkpt lat="45.55587" lon="6.66076">
        <ele>673.6</ele>
        <time>2021-05-28T11:04:26Z</time>
      </trkpt>
      <trkpt lat="45.55586" lon="6.66068">
        <ele>673.6</ele>
        <time>2021-05-28T11:04:27Z</time>
      </trkpt>
      <trkpt lat="45.55588" lon="6.6606">
        <ele>673.6</ele>
        <time>2021-05-28T11:04:28Z</time>
      </trkpt>
      <trkpt lat="45.5559" lon="6.66053">
        <ele>673.4</ele>
        <time>2021-05-28T11:04:29Z</time>
      </trkpt>
      <trkpt lat="45.55592" lon="6.66046">
        <ele>673.4</ele>
        <time>2021-05-28T11:04:30Z</time>
      </trkpt>
      <trkpt lat="45.55596" lon="6.6604">
        <ele>673.2</ele>
        <time>2021-05-28T11:04:31Z</time>
      </trkpt>
      <trkpt lat="45.556" lon="6.66034">
        <ele>673.2</ele>
        <time>2021-05-28T11:04:32Z</time>
      </trkpt>
      <trkpt lat="45.55605" lon="6.66029">
        <ele>673.2</ele>
        <time>2021-05-28T11:04:33Z</time>
      </trkpt>
      <trkpt lat="45.55611" lon="6.66025">
        <ele>673.4</ele>
        <time>2021-05-28T11:04:34Z</time>
      </trkpt>
      <trkpt lat="45.55616" lon="6.66022">
        <ele>673.6</ele>
        <time>2021-05-28T11:04:35Z</time>
      </trkpt>
      <trkpt lat="45.55622" lon="6.66019">
        <ele>673.2</ele>
        <time>2021-05-28T11:04:36Z</time>
      </trkpt>
      <trkpt lat="45.55628" lon="6.66016">
        <ele>673.2</ele>
        <time>2021-05-28T11:04:37Z</time>
      </trkpt>
      <trkpt lat="45.55633" lon="6.66013">
        <ele>673</ele>
        <time>2021-05-28T11:04:38Z</time>
      </trkpt>
      <trkpt lat="45.55638" lon="6.66009">
        <ele>673.2</ele>
        <time>2021-05-28T11:04:39Z</time>
      </trkpt>
      <trkpt lat="45.55644" lon="6.66005">
        <ele>673.2</ele>
        <time>2021-05-28T11:04:40Z</time>
      </trkpt>
      <trkpt lat="45.5565" lon="6.65999">
        <ele>673</ele>
        <time>2021-05-28T11:04:41Z</time>
      </trkpt>
      <trkpt lat="45.55654" lon="6.65991">
        <ele>673.2</ele>
        <time>2021-05-28T11:04:42Z</time>
      </trkpt>
      <trkpt lat="45.55657" lon="6.65983">
        <ele>672.8</ele>
        <time>2021-05-28T11:04:43Z</time>
      </trkpt>
      <trkpt lat="45.55658" lon="6.65973">
        <ele>672.4</ele>
        <time>2021-05-28T11:04:44Z</time>
      </trkpt>
      <trkpt lat="45.55659" lon="6.65964">
        <ele>672.4</ele>
        <time>2021-05-28T11:04:45Z</time>
      </trkpt>
      <trkpt lat="45.5566" lon="6.65954">
        <ele>672.8</ele>
        <time>2021-05-28T11:04:46Z</time>
      </trkpt>
      <trkpt lat="45.5566" lon="6.65944">
        <ele>673.2</ele>
        <time>2021-05-28T11:04:47Z</time>
      </trkpt>
      <trkpt lat="45.5566" lon="6.65935">
        <ele>673.4</ele>
        <time>2021-05-28T11:04:48Z</time>
      </trkpt>
      <trkpt lat="45.55661" lon="6.65926">
        <ele>673.6</ele>
        <time>2021-05-28T11:04:49Z</time>
      </trkpt>
      <trkpt lat="45.5566" lon="6.65918">
        <ele>673.8</ele>
        <time>2021-05-28T11:04:50Z</time>
      </trkpt>
      <trkpt lat="45.5566" lon="6.65909">
        <ele>674</ele>
        <time>2021-05-28T11:04:51Z</time>
      </trkpt>
      <trkpt lat="45.5566" lon="6.65901">
        <ele>674.2</ele>
        <time>2021-05-28T11:04:52Z</time>
      </trkpt>
      <trkpt lat="45.5566" lon="6.65892">
        <ele>674.4</ele>
        <time>2021-05-28T11:04:53Z</time>
      </trkpt>
      <trkpt lat="45.5566" lon="6.65883">
        <ele>674.6</ele>
        <time>2021-05-28T11:04:54Z</time>
      </trkpt>
      <trkpt lat="45.5566" lon="6.65874">
        <ele>675</ele>
        <time>2021-05-28T11:04:55Z</time>
      </trkpt>
      <trkpt lat="45.55659" lon="6.65866">
        <ele>675</ele>
        <time>2021-05-28T11:04:56Z</time>
      </trkpt>
      <trkpt lat="45.55659" lon="6.65857">
        <ele>675.2</ele>
        <time>2021-05-28T11:04:57Z</time>
      </trkpt>
      <trkpt lat="45.55659" lon="6.65849">
        <ele>675.4</ele>
        <time>2021-05-28T11:04:58Z</time>
      </trkpt>
      <trkpt lat="45.5566" lon="6.65841">
        <ele>675.4</ele>
        <time>2021-05-28T11:04:59Z</time>
      </trkpt>
      <trkpt lat="45.5566" lon="6.65833">
        <ele>675.8</ele>
        <time>2021-05-28T11:05:00Z</time>
      </trkpt>
      <trkpt lat="45.5566" lon="6.65825">
        <ele>676</ele>
        <time>2021-05-28T11:05:01Z</time>
      </trkpt>
      <trkpt lat="45.5566" lon="6.65817">
        <ele>676.2</ele>
        <time>2021-05-28T11:05:02Z</time>
      </trkpt>
      <trkpt lat="45.55661" lon="6.6581">
        <ele>676.2</ele>
        <time>2021-05-28T11:05:03Z</time>
      </trkpt>
      <trkpt lat="45.55661" lon="6.65803">
        <ele>676.2</ele>
        <time>2021-05-28T11:05:04Z</time>
      </trkpt>
      <trkpt lat="45.55662" lon="6.65795">
        <ele>676.4</ele>
        <time>2021-05-28T11:05:05Z</time>
      </trkpt>
      <trkpt lat="45.55663" lon="6.65787">
        <ele>676.4</ele>
        <time>2021-05-28T11:05:06Z</time>
      </trkpt>
      <trkpt lat="45.55664" lon="6.65779">
        <ele>676.8</ele>
        <time>2021-05-28T11:05:07Z</time>
      </trkpt>
      <trkpt lat="45.55666" lon="6.65771">
        <ele>677</ele>
        <time>2021-05-28T11:05:08Z</time>
      </trkpt>
      <trkpt lat="45.55667" lon="6.65764">
        <ele>677.2</ele>
        <time>2021-05-28T11:05:09Z</time>
      </trkpt>
      <trkpt lat="45.55668" lon="6.65756">
        <ele>677.4</ele>
        <time>2021-05-28T11:05:10Z</time>
      </trkpt>
      <trkpt lat="45.55669" lon="6.65749">
        <ele>677.6</ele>
        <time>2021-05-28T11:05:11Z</time>
      </trkpt>
      <trkpt lat="45.55669" lon="6.65741">
        <ele>677.8</ele>
        <time>2021-05-28T11:05:12Z</time>
      </trkpt>
      <trkpt lat="45.5567" lon="6.65734">
        <ele>678</ele>
        <time>2021-05-28T11:05:13Z</time>
      </trkpt>
      <trkpt lat="45.5567" lon="6.65727">
        <ele>678.2</ele>
        <time>2021-05-28T11:05:14Z</time>
      </trkpt>
      <trkpt lat="45.55671" lon="6.6572">
        <ele>678</ele>
        <time>2021-05-28T11:05:15Z</time>
      </trkpt>
      <trkpt lat="45.55672" lon="6.65714">
        <ele>678</ele>
        <time>2021-05-28T11:05:16Z</time>
      </trkpt>
      <trkpt lat="45.55673" lon="6.65707">
        <ele>678.2</ele>
        <time>2021-05-28T11:05:17Z</time>
      </trkpt>
      <trkpt lat="45.55674" lon="6.657">
        <ele>678.4</ele>
        <time>2021-05-28T11:05:18Z</time>
      </trkpt>
      <trkpt lat="45.55675" lon="6.65694">
        <ele>678.4</ele>
        <time>2021-05-28T11:05:19Z</time>
      </trkpt>
      <trkpt lat="45.55676" lon="6.65687">
        <ele>678.4</ele>
        <time>2021-05-28T11:05:20Z</time>
      </trkpt>
      <trkpt lat="45.55677" lon="6.65681">
        <ele>678.6</ele>
        <time>2021-05-28T11:05:21Z</time>
      </trkpt>
      <trkpt lat="45.55679" lon="6.65675">
        <ele>678.8</ele>
        <time>2021-05-28T11:05:22Z</time>
      </trkpt>
      <trkpt lat="45.55682" lon="6.6567">
        <ele>679</ele>
        <time>2021-05-28T11:05:23Z</time>
      </trkpt>
      <trkpt lat="45.55686" lon="6.65666">
        <ele>679.2</ele>
        <time>2021-05-28T11:05:24Z</time>
      </trkpt>
      <trkpt lat="45.5569" lon="6.65664">
        <ele>679.4</ele>
        <time>2021-05-28T11:05:25Z</time>
      </trkpt>
      <trkpt lat="45.55694" lon="6.65663">
        <ele>679.8</ele>
        <time>2021-05-28T11:05:26Z</time>
      </trkpt>
      <trkpt lat="45.55698" lon="6.65662">
        <ele>680</ele>
        <time>2021-05-28T11:05:27Z</time>
      </trkpt>
      <trkpt lat="45.55702" lon="6.6566">
        <ele>680.2</ele>
        <time>2021-05-28T11:05:28Z</time>
      </trkpt>
      <trkpt lat="45.55706" lon="6.65658">
        <ele>680.6</ele>
        <time>2021-05-28T11:05:29Z</time>
      </trkpt>
      <trkpt lat="45.55709" lon="6.65656">
        <ele>680.6</ele>
        <time>2021-05-28T11:05:30Z</time>
      </trkpt>
      <trkpt lat="45.55713" lon="6.65651">
        <ele>680.4</ele>
        <time>2021-05-28T11:05:31Z</time>
      </trkpt>
      <trkpt lat="45.55716" lon="6.65646">
        <ele>680.4</ele>
        <time>2021-05-28T11:05:32Z</time>
      </trkpt>
      <trkpt lat="45.55719" lon="6.6564">
        <ele>680.2</ele>
        <time>2021-05-28T11:05:33Z</time>
      </trkpt>
      <trkpt lat="45.55722" lon="6.65634">
        <ele>680.4</ele>
        <time>2021-05-28T11:05:34Z</time>
      </trkpt>
      <trkpt lat="45.55724" lon="6.65627">
        <ele>680.4</ele>
        <time>2021-05-28T11:05:35Z</time>
      </trkpt>
      <trkpt lat="45.55726" lon="6.65619">
        <ele>680.6</ele>
        <time>2021-05-28T11:05:36Z</time>
      </trkpt>
      <trkpt lat="45.55729" lon="6.65612">
        <ele>680.6</ele>
        <time>2021-05-28T11:05:37Z</time>
      </trkpt>
      <trkpt lat="45.55731" lon="6.65604">
        <ele>680.8</ele>
        <time>2021-05-28T11:05:38Z</time>
      </trkpt>
      <trkpt lat="45.55732" lon="6.65596">
        <ele>681</ele>
        <time>2021-05-28T11:05:39Z</time>
      </trkpt>
      <trkpt lat="45.55734" lon="6.65588">
        <ele>681.2</ele>
        <time>2021-05-28T11:05:40Z</time>
      </trkpt>
      <trkpt lat="45.55736" lon="6.6558">
        <ele>681.4</ele>
        <time>2021-05-28T11:05:41Z</time>
      </trkpt>
      <trkpt lat="45.55737" lon="6.65572">
        <ele>681.6</ele>
        <time>2021-05-28T11:05:42Z</time>
      </trkpt>
      <trkpt lat="45.55739" lon="6.65563">
        <ele>681.6</ele>
        <time>2021-05-28T11:05:43Z</time>
      </trkpt>
      <trkpt lat="45.55741" lon="6.65555">
        <ele>681.6</ele>
        <time>2021-05-28T11:05:44Z</time>
      </trkpt>
      <trkpt lat="45.55743" lon="6.65547">
        <ele>681.8</ele>
        <time>2021-05-28T11:05:45Z</time>
      </trkpt>
      <trkpt lat="45.55744" lon="6.65539">
        <ele>681.8</ele>
        <time>2021-05-28T11:05:46Z</time>
      </trkpt>
      <trkpt lat="45.55745" lon="6.65531">
        <ele>682</ele>
        <time>2021-05-28T11:05:47Z</time>
      </trkpt>
      <trkpt lat="45.55747" lon="6.65522">
        <ele>682</ele>
        <time>2021-05-28T11:05:48Z</time>
      </trkpt>
      <trkpt lat="45.55747" lon="6.65514">
        <ele>682.2</ele>
        <time>2021-05-28T11:05:49Z</time>
      </trkpt>
      <trkpt lat="45.55748" lon="6.65505">
        <ele>682.2</ele>
        <time>2021-05-28T11:05:50Z</time>
      </trkpt>
      <trkpt lat="45.55748" lon="6.65496">
        <ele>682.2</ele>
        <time>2021-05-28T11:05:51Z</time>
      </trkpt>
      <trkpt lat="45.55749" lon="6.65487">
        <ele>682.4</ele>
        <time>2021-05-28T11:05:52Z</time>
      </trkpt>
      <trkpt lat="45.55748" lon="6.65479">
        <ele>682.4</ele>
        <time>2021-05-28T11:05:53Z</time>
      </trkpt>
      <trkpt lat="45.55748" lon="6.65471">
        <ele>682.4</ele>
        <time>2021-05-28T11:05:54Z</time>
      </trkpt>
      <trkpt lat="45.55747" lon="6.65463">
        <ele>682.6</ele>
        <time>2021-05-28T11:05:55Z</time>
      </trkpt>
      <trkpt lat="45.55746" lon="6.65455">
        <ele>682.6</ele>
        <time>2021-05-28T11:05:56Z</time>
      </trkpt>
      <trkpt lat="45.55745" lon="6.65447">
        <ele>682.8</ele>
        <time>2021-05-28T11:05:57Z</time>
      </trkpt>
      <trkpt lat="45.55744" lon="6.65439">
        <ele>683</ele>
        <time>2021-05-28T11:05:58Z</time>
      </trkpt>
      <trkpt lat="45.55743" lon="6.65431">
        <ele>683</ele>
        <time>2021-05-28T11:05:59Z</time>
      </trkpt>
      <trkpt lat="45.5574" lon="6.65424">
        <ele>683.4</ele>
        <time>2021-05-28T11:06:00Z</time>
      </trkpt>
      <trkpt lat="45.55739" lon="6.65417">
        <ele>683.4</ele>
        <time>2021-05-28T11:06:01Z</time>
      </trkpt>
      <trkpt lat="45.55736" lon="6.65409">
        <ele>683.6</ele>
        <time>2021-05-28T11:06:02Z</time>
      </trkpt>
      <trkpt lat="45.55734" lon="6.65402">
        <ele>684</ele>
        <time>2021-05-28T11:06:03Z</time>
      </trkpt>
      <trkpt lat="45.55732" lon="6.65394">
        <ele>684.4</ele>
        <time>2021-05-28T11:06:04Z</time>
      </trkpt>
      <trkpt lat="45.55731" lon="6.65387">
        <ele>683.8</ele>
        <time>2021-05-28T11:06:05Z</time>
      </trkpt>
      <trkpt lat="45.55728" lon="6.6538">
        <ele>683.4</ele>
        <time>2021-05-28T11:06:06Z</time>
      </trkpt>
      <trkpt lat="45.55725" lon="6.65373">
        <ele>683.2</ele>
        <time>2021-05-28T11:06:07Z</time>
      </trkpt>
      <trkpt lat="45.55723" lon="6.65366">
        <ele>683.2</ele>
        <time>2021-05-28T11:06:08Z</time>
      </trkpt>
      <trkpt lat="45.55719" lon="6.65359">
        <ele>683.4</ele>
        <time>2021-05-28T11:06:09Z</time>
      </trkpt>
      <trkpt lat="45.55716" lon="6.65352">
        <ele>683.6</ele>
        <time>2021-05-28T11:06:10Z</time>
      </trkpt>
      <trkpt lat="45.55714" lon="6.65345">
        <ele>683.8</ele>
        <time>2021-05-28T11:06:11Z</time>
      </trkpt>
      <trkpt lat="45.55711" lon="6.65338">
        <ele>683.6</ele>
        <time>2021-05-28T11:06:12Z</time>
      </trkpt>
      <trkpt lat="45.55708" lon="6.65331">
        <ele>683.8</ele>
        <time>2021-05-28T11:06:13Z</time>
      </trkpt>
      <trkpt lat="45.55704" lon="6.65325">
        <ele>683.8</ele>
        <time>2021-05-28T11:06:14Z</time>
      </trkpt>
      <trkpt lat="45.55699" lon="6.65319">
        <ele>683.8</ele>
        <time>2021-05-28T11:06:15Z</time>
      </trkpt>
      <trkpt lat="45.55695" lon="6.65314">
        <ele>684.2</ele>
        <time>2021-05-28T11:06:16Z</time>
      </trkpt>
      <trkpt lat="45.5569" lon="6.65308">
        <ele>684</ele>
        <time>2021-05-28T11:06:17Z</time>
      </trkpt>
      <trkpt lat="45.55686" lon="6.65303">
        <ele>684.2</ele>
        <time>2021-05-28T11:06:18Z</time>
      </trkpt>
      <trkpt lat="45.55681" lon="6.65297">
        <ele>684.4</ele>
        <time>2021-05-28T11:06:19Z</time>
      </trkpt>
      <trkpt lat="45.55676" lon="6.65291">
        <ele>684.2</ele>
        <time>2021-05-28T11:06:20Z</time>
      </trkpt>
      <trkpt lat="45.55671" lon="6.65284">
        <ele>684.4</ele>
        <time>2021-05-28T11:06:21Z</time>
      </trkpt>
      <trkpt lat="45.55666" lon="6.65278">
        <ele>684.2</ele>
        <time>2021-05-28T11:06:22Z</time>
      </trkpt>
      <trkpt lat="45.55661" lon="6.65272">
        <ele>684.2</ele>
        <time>2021-05-28T11:06:23Z</time>
      </trkpt>
      <trkpt lat="45.55656" lon="6.65265">
        <ele>684.2</ele>
        <time>2021-05-28T11:06:24Z</time>
      </trkpt>
      <trkpt lat="45.5565" lon="6.65258">
        <ele>685</ele>
        <time>2021-05-28T11:06:25Z</time>
      </trkpt>
      <trkpt lat="45.55644" lon="6.65251">
        <ele>685.6</ele>
        <time>2021-05-28T11:06:26Z</time>
      </trkpt>
      <trkpt lat="45.55639" lon="6.65243">
        <ele>685.8</ele>
        <time>2021-05-28T11:06:27Z</time>
      </trkpt>
      <trkpt lat="45.55634" lon="6.65235">
        <ele>686.2</ele>
        <time>2021-05-28T11:06:28Z</time>
      </trkpt>
      <trkpt lat="45.55628" lon="6.65227">
        <ele>686.4</ele>
        <time>2021-05-28T11:06:29Z</time>
      </trkpt>
      <trkpt lat="45.55624" lon="6.65218">
        <ele>686.4</ele>
        <time>2021-05-28T11:06:30Z</time>
      </trkpt>
      <trkpt lat="45.5562" lon="6.65208">
        <ele>686.6</ele>
        <time>2021-05-28T11:06:31Z</time>
      </trkpt>
      <trkpt lat="45.55616" lon="6.65198">
        <ele>686.6</ele>
        <time>2021-05-28T11:06:32Z</time>
      </trkpt>
      <trkpt lat="45.55612" lon="6.65189">
        <ele>686.4</ele>
        <time>2021-05-28T11:06:33Z</time>
      </trkpt>
      <trkpt lat="45.55608" lon="6.65179">
        <ele>686.2</ele>
        <time>2021-05-28T11:06:34Z</time>
      </trkpt>
      <trkpt lat="45.55604" lon="6.6517">
        <ele>686</ele>
        <time>2021-05-28T11:06:35Z</time>
      </trkpt>
      <trkpt lat="45.55599" lon="6.6516">
        <ele>686</ele>
        <time>2021-05-28T11:06:36Z</time>
      </trkpt>
      <trkpt lat="45.55596" lon="6.65149">
        <ele>685.8</ele>
        <time>2021-05-28T11:06:37Z</time>
      </trkpt>
      <trkpt lat="45.55592" lon="6.65138">
        <ele>685.6</ele>
        <time>2021-05-28T11:06:38Z</time>
      </trkpt>
      <trkpt lat="45.55589" lon="6.65126">
        <ele>685.2</ele>
        <time>2021-05-28T11:06:39Z</time>
      </trkpt>
      <trkpt lat="45.55587" lon="6.65113">
        <ele>684.8</ele>
        <time>2021-05-28T11:06:40Z</time>
      </trkpt>
      <trkpt lat="45.55584" lon="6.65101">
        <ele>684.4</ele>
        <time>2021-05-28T11:06:41Z</time>
      </trkpt>
      <trkpt lat="45.55583" lon="6.65089">
        <ele>684.2</ele>
        <time>2021-05-28T11:06:42Z</time>
      </trkpt>
      <trkpt lat="45.55581" lon="6.65076">
        <ele>683.8</ele>
        <time>2021-05-28T11:06:43Z</time>
      </trkpt>
      <trkpt lat="45.5558" lon="6.65064">
        <ele>683.4</ele>
        <time>2021-05-28T11:06:44Z</time>
      </trkpt>
      <trkpt lat="45.55578" lon="6.65051">
        <ele>683</ele>
        <time>2021-05-28T11:06:45Z</time>
      </trkpt>
      <trkpt lat="45.55577" lon="6.65038">
        <ele>682.8</ele>
        <time>2021-05-28T11:06:46Z</time>
      </trkpt>
      <trkpt lat="45.55575" lon="6.65026">
        <ele>682.8</ele>
        <time>2021-05-28T11:06:47Z</time>
      </trkpt>
      <trkpt lat="45.55574" lon="6.65014">
        <ele>682.4</ele>
        <time>2021-05-28T11:06:48Z</time>
      </trkpt>
      <trkpt lat="45.55572" lon="6.65001">
        <ele>682.4</ele>
        <time>2021-05-28T11:06:49Z</time>
      </trkpt>
      <trkpt lat="45.55572" lon="6.64989">
        <ele>681.8</ele>
        <time>2021-05-28T11:06:50Z</time>
      </trkpt>
      <trkpt lat="45.5557" lon="6.64976">
        <ele>681.4</ele>
        <time>2021-05-28T11:06:51Z</time>
      </trkpt>
      <trkpt lat="45.55569" lon="6.64964">
        <ele>681.4</ele>
        <time>2021-05-28T11:06:52Z</time>
      </trkpt>
      <trkpt lat="45.55567" lon="6.64951">
        <ele>681.4</ele>
        <time>2021-05-28T11:06:53Z</time>
      </trkpt>
      <trkpt lat="45.55566" lon="6.64939">
        <ele>681.6</ele>
        <time>2021-05-28T11:06:54Z</time>
      </trkpt>
      <trkpt lat="45.55565" lon="6.64926">
        <ele>681.4</ele>
        <time>2021-05-28T11:06:55Z</time>
      </trkpt>
      <trkpt lat="45.55564" lon="6.64914">
        <ele>681</ele>
        <time>2021-05-28T11:06:56Z</time>
      </trkpt>
      <trkpt lat="45.55563" lon="6.64901">
        <ele>681</ele>
        <time>2021-05-28T11:06:57Z</time>
      </trkpt>
      <trkpt lat="45.55562" lon="6.64889">
        <ele>680.8</ele>
        <time>2021-05-28T11:06:58Z</time>
      </trkpt>
      <trkpt lat="45.5556" lon="6.64876">
        <ele>680.6</ele>
        <time>2021-05-28T11:06:59Z</time>
      </trkpt>
      <trkpt lat="45.55559" lon="6.64864">
        <ele>680.2</ele>
        <time>2021-05-28T11:07:00Z</time>
      </trkpt>
      <trkpt lat="45.55557" lon="6.64851">
        <ele>680.2</ele>
        <time>2021-05-28T11:07:01Z</time>
      </trkpt>
      <trkpt lat="45.55556" lon="6.64839">
        <ele>680.2</ele>
        <time>2021-05-28T11:07:02Z</time>
      </trkpt>
      <trkpt lat="45.55555" lon="6.64826">
        <ele>680</ele>
        <time>2021-05-28T11:07:03Z</time>
      </trkpt>
      <trkpt lat="45.55553" lon="6.64814">
        <ele>680</ele>
        <time>2021-05-28T11:07:04Z</time>
      </trkpt>
      <trkpt lat="45.55552" lon="6.64801">
        <ele>679.6</ele>
        <time>2021-05-28T11:07:05Z</time>
      </trkpt>
      <trkpt lat="45.55551" lon="6.64789">
        <ele>679</ele>
        <time>2021-05-28T11:07:06Z</time>
      </trkpt>
      <trkpt lat="45.55549" lon="6.64776">
        <ele>678.8</ele>
        <time>2021-05-28T11:07:07Z</time>
      </trkpt>
      <trkpt lat="45.55548" lon="6.64763">
        <ele>678.4</ele>
        <time>2021-05-28T11:07:08Z</time>
      </trkpt>
      <trkpt lat="45.55547" lon="6.6475">
        <ele>677.8</ele>
        <time>2021-05-28T11:07:09Z</time>
      </trkpt>
      <trkpt lat="45.55545" lon="6.64737">
        <ele>677</ele>
        <time>2021-05-28T11:07:10Z</time>
      </trkpt>
      <trkpt lat="45.55544" lon="6.64724">
        <ele>676.6</ele>
        <time>2021-05-28T11:07:11Z</time>
      </trkpt>
      <trkpt lat="45.55542" lon="6.64711">
        <ele>676.4</ele>
        <time>2021-05-28T11:07:12Z</time>
      </trkpt>
      <trkpt lat="45.55541" lon="6.64697">
        <ele>676.4</ele>
        <time>2021-05-28T11:07:13Z</time>
      </trkpt>
      <trkpt lat="45.55539" lon="6.64683">
        <ele>675.8</ele>
        <time>2021-05-28T11:07:14Z</time>
      </trkpt>
      <trkpt lat="45.55538" lon="6.64669">
        <ele>675.8</ele>
        <time>2021-05-28T11:07:15Z</time>
      </trkpt>
      <trkpt lat="45.55537" lon="6.64656">
        <ele>676</ele>
        <time>2021-05-28T11:07:16Z</time>
      </trkpt>
      <trkpt lat="45.55535" lon="6.64643">
        <ele>675.6</ele>
        <time>2021-05-28T11:07:17Z</time>
      </trkpt>
      <trkpt lat="45.55534" lon="6.64629">
        <ele>675.4</ele>
        <time>2021-05-28T11:07:18Z</time>
      </trkpt>
      <trkpt lat="45.55533" lon="6.64615">
        <ele>675.2</ele>
        <time>2021-05-28T11:07:19Z</time>
      </trkpt>
      <trkpt lat="45.55531" lon="6.64602">
        <ele>674.6</ele>
        <time>2021-05-28T11:07:20Z</time>
      </trkpt>
      <trkpt lat="45.55529" lon="6.64589">
        <ele>674</ele>
        <time>2021-05-28T11:07:21Z</time>
      </trkpt>
      <trkpt lat="45.55528" lon="6.64576">
        <ele>673.6</ele>
        <time>2021-05-28T11:07:22Z</time>
      </trkpt>
      <trkpt lat="45.55526" lon="6.64562">
        <ele>673.4</ele>
        <time>2021-05-28T11:07:23Z</time>
      </trkpt>
      <trkpt lat="45.55525" lon="6.64549">
        <ele>673.2</ele>
        <time>2021-05-28T11:07:24Z</time>
      </trkpt>
      <trkpt lat="45.55523" lon="6.64536">
        <ele>672.6</ele>
        <time>2021-05-28T11:07:25Z</time>
      </trkpt>
      <trkpt lat="45.55521" lon="6.64523">
        <ele>672.2</ele>
        <time>2021-05-28T11:07:26Z</time>
      </trkpt>
      <trkpt lat="45.5552" lon="6.6451">
        <ele>671.4</ele>
        <time>2021-05-28T11:07:27Z</time>
      </trkpt>
      <trkpt lat="45.55518" lon="6.64497">
        <ele>671</ele>
        <time>2021-05-28T11:07:28Z</time>
      </trkpt>
      <trkpt lat="45.55517" lon="6.64484">
        <ele>670.8</ele>
        <time>2021-05-28T11:07:29Z</time>
      </trkpt>
      <trkpt lat="45.55515" lon="6.64471">
        <ele>670.6</ele>
        <time>2021-05-28T11:07:30Z</time>
      </trkpt>
      <trkpt lat="45.55514" lon="6.64458">
        <ele>670.4</ele>
        <time>2021-05-28T11:07:31Z</time>
      </trkpt>
      <trkpt lat="45.55514" lon="6.64445">
        <ele>669.8</ele>
        <time>2021-05-28T11:07:32Z</time>
      </trkpt>
      <trkpt lat="45.55516" lon="6.64433">
        <ele>669.8</ele>
        <time>2021-05-28T11:07:33Z</time>
      </trkpt>
      <trkpt lat="45.55516" lon="6.6442">
        <ele>669.4</ele>
        <time>2021-05-28T11:07:34Z</time>
      </trkpt>
      <trkpt lat="45.55516" lon="6.64408">
        <ele>669</ele>
        <time>2021-05-28T11:07:35Z</time>
      </trkpt>
      <trkpt lat="45.55513" lon="6.64397">
        <ele>668.6</ele>
        <time>2021-05-28T11:07:36Z</time>
      </trkpt>
      <trkpt lat="45.55509" lon="6.64386">
        <ele>668.4</ele>
        <time>2021-05-28T11:07:37Z</time>
      </trkpt>
      <trkpt lat="45.55507" lon="6.64374">
        <ele>668</ele>
        <time>2021-05-28T11:07:38Z</time>
      </trkpt>
      <trkpt lat="45.55505" lon="6.64362">
        <ele>667.8</ele>
        <time>2021-05-28T11:07:39Z</time>
      </trkpt>
      <trkpt lat="45.55503" lon="6.6435">
        <ele>667.4</ele>
        <time>2021-05-28T11:07:40Z</time>
      </trkpt>
      <trkpt lat="45.55502" lon="6.64337">
        <ele>667.2</ele>
        <time>2021-05-28T11:07:41Z</time>
      </trkpt>
      <trkpt lat="45.55501" lon="6.64325">
        <ele>667.4</ele>
        <time>2021-05-28T11:07:42Z</time>
      </trkpt>
      <trkpt lat="45.555" lon="6.64313">
        <ele>667.4</ele>
        <time>2021-05-28T11:07:43Z</time>
      </trkpt>
      <trkpt lat="45.55499" lon="6.64301">
        <ele>667.4</ele>
        <time>2021-05-28T11:07:44Z</time>
      </trkpt>
      <trkpt lat="45.55498" lon="6.6429">
        <ele>667.4</ele>
        <time>2021-05-28T11:07:45Z</time>
      </trkpt>
      <trkpt lat="45.55497" lon="6.64279">
        <ele>667.4</ele>
        <time>2021-05-28T11:07:46Z</time>
      </trkpt>
      <trkpt lat="45.55495" lon="6.64268">
        <ele>667.6</ele>
        <time>2021-05-28T11:07:47Z</time>
      </trkpt>
      <trkpt lat="45.55493" lon="6.64258">
        <ele>667.6</ele>
        <time>2021-05-28T11:07:48Z</time>
      </trkpt>
      <trkpt lat="45.55491" lon="6.64247">
        <ele>667.2</ele>
        <time>2021-05-28T11:07:49Z</time>
      </trkpt>
      <trkpt lat="45.55489" lon="6.64237">
        <ele>667.2</ele>
        <time>2021-05-28T11:07:50Z</time>
      </trkpt>
      <trkpt lat="45.55487" lon="6.64226">
        <ele>667.2</ele>
        <time>2021-05-28T11:07:51Z</time>
      </trkpt>
      <trkpt lat="45.55484" lon="6.64216">
        <ele>667.4</ele>
        <time>2021-05-28T11:07:52Z</time>
      </trkpt>
      <trkpt lat="45.55482" lon="6.64206">
        <ele>667.6</ele>
        <time>2021-05-28T11:07:53Z</time>
      </trkpt>
      <trkpt lat="45.55479" lon="6.64195">
        <ele>667.8</ele>
        <time>2021-05-28T11:07:54Z</time>
      </trkpt>
      <trkpt lat="45.55477" lon="6.64186">
        <ele>667.8</ele>
        <time>2021-05-28T11:07:55Z</time>
      </trkpt>
      <trkpt lat="45.55474" lon="6.64176">
        <ele>667.8</ele>
        <time>2021-05-28T11:07:56Z</time>
      </trkpt>
      <trkpt lat="45.55471" lon="6.64166">
        <ele>667.8</ele>
        <time>2021-05-28T11:07:57Z</time>
      </trkpt>
      <trkpt lat="45.55468" lon="6.64156">
        <ele>667.6</ele>
        <time>2021-05-28T11:07:58Z</time>
      </trkpt>
      <trkpt lat="45.55464" lon="6.64147">
        <ele>667.6</ele>
        <time>2021-05-28T11:07:59Z</time>
      </trkpt>
      <trkpt lat="45.5546" lon="6.64138">
        <ele>667.8</ele>
        <time>2021-05-28T11:08:00Z</time>
      </trkpt>
      <trkpt lat="45.55457" lon="6.64129">
        <ele>668</ele>
        <time>2021-05-28T11:08:01Z</time>
      </trkpt>
      <trkpt lat="45.55453" lon="6.64121">
        <ele>668</ele>
        <time>2021-05-28T11:08:02Z</time>
      </trkpt>
      <trkpt lat="45.55449" lon="6.64113">
        <ele>668.2</ele>
        <time>2021-05-28T11:08:03Z</time>
      </trkpt>
      <trkpt lat="45.55445" lon="6.64104">
        <ele>668.6</ele>
        <time>2021-05-28T11:08:04Z</time>
      </trkpt>
      <trkpt lat="45.55441" lon="6.64096">
        <ele>668.6</ele>
        <time>2021-05-28T11:08:05Z</time>
      </trkpt>
      <trkpt lat="45.55437" lon="6.64088">
        <ele>669</ele>
        <time>2021-05-28T11:08:06Z</time>
      </trkpt>
      <trkpt lat="45.55433" lon="6.6408">
        <ele>669</ele>
        <time>2021-05-28T11:08:07Z</time>
      </trkpt>
      <trkpt lat="45.55429" lon="6.64072">
        <ele>669</ele>
        <time>2021-05-28T11:08:08Z</time>
      </trkpt>
      <trkpt lat="45.55425" lon="6.64064">
        <ele>669.4</ele>
        <time>2021-05-28T11:08:09Z</time>
      </trkpt>
      <trkpt lat="45.55421" lon="6.64056">
        <ele>669.4</ele>
        <time>2021-05-28T11:08:10Z</time>
      </trkpt>
      <trkpt lat="45.55417" lon="6.64048">
        <ele>669.6</ele>
        <time>2021-05-28T11:08:11Z</time>
      </trkpt>
      <trkpt lat="45.55413" lon="6.6404">
        <ele>669.6</ele>
        <time>2021-05-28T11:08:12Z</time>
      </trkpt>
      <trkpt lat="45.5541" lon="6.64032">
        <ele>669.6</ele>
        <time>2021-05-28T11:08:13Z</time>
      </trkpt>
      <trkpt lat="45.55406" lon="6.64023">
        <ele>669.8</ele>
        <time>2021-05-28T11:08:14Z</time>
      </trkpt>
      <trkpt lat="45.55402" lon="6.64015">
        <ele>669.6</ele>
        <time>2021-05-28T11:08:15Z</time>
      </trkpt>
      <trkpt lat="45.55398" lon="6.64007">
        <ele>670</ele>
        <time>2021-05-28T11:08:16Z</time>
      </trkpt>
      <trkpt lat="45.55395" lon="6.63999">
        <ele>670.2</ele>
        <time>2021-05-28T11:08:17Z</time>
      </trkpt>
      <trkpt lat="45.55391" lon="6.63991">
        <ele>670.2</ele>
        <time>2021-05-28T11:08:18Z</time>
      </trkpt>
      <trkpt lat="45.55387" lon="6.63983">
        <ele>669.8</ele>
        <time>2021-05-28T11:08:19Z</time>
      </trkpt>
      <trkpt lat="45.55383" lon="6.63975">
        <ele>669.8</ele>
        <time>2021-05-28T11:08:20Z</time>
      </trkpt>
      <trkpt lat="45.55379" lon="6.63967">
        <ele>669.4</ele>
        <time>2021-05-28T11:08:21Z</time>
      </trkpt>
      <trkpt lat="45.55375" lon="6.63958">
        <ele>669.4</ele>
        <time>2021-05-28T11:08:22Z</time>
      </trkpt>
      <trkpt lat="45.55371" lon="6.6395">
        <ele>669</ele>
        <time>2021-05-28T11:08:23Z</time>
      </trkpt>
      <trkpt lat="45.55367" lon="6.63942">
        <ele>669</ele>
        <time>2021-05-28T11:08:24Z</time>
      </trkpt>
      <trkpt lat="45.55363" lon="6.63934">
        <ele>669.2</ele>
        <time>2021-05-28T11:08:25Z</time>
      </trkpt>
      <trkpt lat="45.55359" lon="6.63926">
        <ele>669.6</ele>
        <time>2021-05-28T11:08:26Z</time>
      </trkpt>
      <trkpt lat="45.55355" lon="6.63917">
        <ele>670.8</ele>
        <time>2021-05-28T11:08:27Z</time>
      </trkpt>
      <trkpt lat="45.55351" lon="6.63909">
        <ele>670.4</ele>
        <time>2021-05-28T11:08:28Z</time>
      </trkpt>
      <trkpt lat="45.55348" lon="6.63901">
        <ele>670.4</ele>
        <time>2021-05-28T11:08:29Z</time>
      </trkpt>
      <trkpt lat="45.55344" lon="6.63892">
        <ele>670.2</ele>
        <time>2021-05-28T11:08:30Z</time>
      </trkpt>
      <trkpt lat="45.55341" lon="6.63883">
        <ele>669.8</ele>
        <time>2021-05-28T11:08:31Z</time>
      </trkpt>
      <trkpt lat="45.55339" lon="6.63875">
        <ele>669.8</ele>
        <time>2021-05-28T11:08:32Z</time>
      </trkpt>
      <trkpt lat="45.55336" lon="6.63866">
        <ele>669.6</ele>
        <time>2021-05-28T11:08:33Z</time>
      </trkpt>
      <trkpt lat="45.55334" lon="6.63857">
        <ele>669.6</ele>
        <time>2021-05-28T11:08:34Z</time>
      </trkpt>
      <trkpt lat="45.55332" lon="6.63848">
        <ele>670.8</ele>
        <time>2021-05-28T11:08:35Z</time>
      </trkpt>
      <trkpt lat="45.55332" lon="6.63838">
        <ele>670.4</ele>
        <time>2021-05-28T11:08:36Z</time>
      </trkpt>
      <trkpt lat="45.5533" lon="6.63829">
        <ele>670.4</ele>
        <time>2021-05-28T11:08:37Z</time>
      </trkpt>
      <trkpt lat="45.5533" lon="6.63818">
        <ele>670.8</ele>
        <time>2021-05-28T11:08:38Z</time>
      </trkpt>
      <trkpt lat="45.55328" lon="6.63808">
        <ele>670.6</ele>
        <time>2021-05-28T11:08:39Z</time>
      </trkpt>
      <trkpt lat="45.55327" lon="6.63797">
        <ele>670.8</ele>
        <time>2021-05-28T11:08:40Z</time>
      </trkpt>
      <trkpt lat="45.55326" lon="6.63786">
        <ele>671.2</ele>
        <time>2021-05-28T11:08:41Z</time>
      </trkpt>
      <trkpt lat="45.55325" lon="6.63775">
        <ele>671.6</ele>
        <time>2021-05-28T11:08:42Z</time>
      </trkpt>
      <trkpt lat="45.55324" lon="6.63764">
        <ele>671.6</ele>
        <time>2021-05-28T11:08:43Z</time>
      </trkpt>
      <trkpt lat="45.55322" lon="6.63753">
        <ele>671.8</ele>
        <time>2021-05-28T11:08:44Z</time>
      </trkpt>
      <trkpt lat="45.5532" lon="6.63742">
        <ele>671.8</ele>
        <time>2021-05-28T11:08:45Z</time>
      </trkpt>
      <trkpt lat="45.55317" lon="6.63731">
        <ele>671.8</ele>
        <time>2021-05-28T11:08:46Z</time>
      </trkpt>
      <trkpt lat="45.55314" lon="6.6372">
        <ele>671.6</ele>
        <time>2021-05-28T11:08:47Z</time>
      </trkpt>
      <trkpt lat="45.55311" lon="6.63709">
        <ele>671.6</ele>
        <time>2021-05-28T11:08:48Z</time>
      </trkpt>
      <trkpt lat="45.55308" lon="6.63699">
        <ele>671.4</ele>
        <time>2021-05-28T11:08:49Z</time>
      </trkpt>
      <trkpt lat="45.55304" lon="6.63689">
        <ele>671.8</ele>
        <time>2021-05-28T11:08:50Z</time>
      </trkpt>
      <trkpt lat="45.553" lon="6.6368">
        <ele>671.2</ele>
        <time>2021-05-28T11:08:51Z</time>
      </trkpt>
      <trkpt lat="45.55296" lon="6.6367">
        <ele>671.2</ele>
        <time>2021-05-28T11:08:52Z</time>
      </trkpt>
      <trkpt lat="45.55292" lon="6.63661">
        <ele>671.2</ele>
        <time>2021-05-28T11:08:53Z</time>
      </trkpt>
      <trkpt lat="45.55288" lon="6.63653">
        <ele>671.2</ele>
        <time>2021-05-28T11:08:54Z</time>
      </trkpt>
      <trkpt lat="45.55284" lon="6.63646">
        <ele>671.2</ele>
        <time>2021-05-28T11:08:55Z</time>
      </trkpt>
      <trkpt lat="45.5528" lon="6.63638">
        <ele>671.4</ele>
        <time>2021-05-28T11:08:56Z</time>
      </trkpt>
      <trkpt lat="45.55275" lon="6.63631">
        <ele>671.4</ele>
        <time>2021-05-28T11:08:57Z</time>
      </trkpt>
      <trkpt lat="45.55271" lon="6.63624">
        <ele>671.6</ele>
        <time>2021-05-28T11:08:58Z</time>
      </trkpt>
      <trkpt lat="45.55267" lon="6.63617">
        <ele>671.8</ele>
        <time>2021-05-28T11:08:59Z</time>
      </trkpt>
      <trkpt lat="45.55263" lon="6.6361">
        <ele>672</ele>
        <time>2021-05-28T11:09:00Z</time>
      </trkpt>
      <trkpt lat="45.55258" lon="6.63603">
        <ele>672.4</ele>
        <time>2021-05-28T11:09:01Z</time>
      </trkpt>
      <trkpt lat="45.55254" lon="6.63596">
        <ele>672.6</ele>
        <time>2021-05-28T11:09:02Z</time>
      </trkpt>
      <trkpt lat="45.5525" lon="6.6359">
        <ele>672.8</ele>
        <time>2021-05-28T11:09:03Z</time>
      </trkpt>
      <trkpt lat="45.55246" lon="6.63583">
        <ele>673</ele>
        <time>2021-05-28T11:09:04Z</time>
      </trkpt>
      <trkpt lat="45.55242" lon="6.63576">
        <ele>673.4</ele>
        <time>2021-05-28T11:09:05Z</time>
      </trkpt>
      <trkpt lat="45.55238" lon="6.63569">
        <ele>673.6</ele>
        <time>2021-05-28T11:09:06Z</time>
      </trkpt>
      <trkpt lat="45.55234" lon="6.63563">
        <ele>674</ele>
        <time>2021-05-28T11:09:07Z</time>
      </trkpt>
      <trkpt lat="45.5523" lon="6.63556">
        <ele>674.2</ele>
        <time>2021-05-28T11:09:08Z</time>
      </trkpt>
      <trkpt lat="45.55226" lon="6.63549">
        <ele>674.4</ele>
        <time>2021-05-28T11:09:09Z</time>
      </trkpt>
      <trkpt lat="45.55222" lon="6.63543">
        <ele>674.8</ele>
        <time>2021-05-28T11:09:10Z</time>
      </trkpt>
      <trkpt lat="45.55218" lon="6.63536">
        <ele>675</ele>
        <time>2021-05-28T11:09:11Z</time>
      </trkpt>
      <trkpt lat="45.55214" lon="6.63529">
        <ele>675.2</ele>
        <time>2021-05-28T11:09:12Z</time>
      </trkpt>
      <trkpt lat="45.5521" lon="6.63522">
        <ele>675.2</ele>
        <time>2021-05-28T11:09:13Z</time>
      </trkpt>
      <trkpt lat="45.55206" lon="6.63515">
        <ele>675.8</ele>
        <time>2021-05-28T11:09:14Z</time>
      </trkpt>
      <trkpt lat="45.55203" lon="6.63507">
        <ele>675.8</ele>
        <time>2021-05-28T11:09:15Z</time>
      </trkpt>
      <trkpt lat="45.55199" lon="6.635">
        <ele>676</ele>
        <time>2021-05-28T11:09:16Z</time>
      </trkpt>
      <trkpt lat="45.55195" lon="6.63492">
        <ele>676.2</ele>
        <time>2021-05-28T11:09:17Z</time>
      </trkpt>
      <trkpt lat="45.55191" lon="6.63485">
        <ele>676.4</ele>
        <time>2021-05-28T11:09:18Z</time>
      </trkpt>
      <trkpt lat="45.55188" lon="6.63477">
        <ele>676.6</ele>
        <time>2021-05-28T11:09:19Z</time>
      </trkpt>
      <trkpt lat="45.55185" lon="6.63469">
        <ele>676.6</ele>
        <time>2021-05-28T11:09:20Z</time>
      </trkpt>
      <trkpt lat="45.55181" lon="6.63461">
        <ele>676.6</ele>
        <time>2021-05-28T11:09:21Z</time>
      </trkpt>
      <trkpt lat="45.55179" lon="6.63453">
        <ele>676.4</ele>
        <time>2021-05-28T11:09:22Z</time>
      </trkpt>
      <trkpt lat="45.55175" lon="6.63445">
        <ele>676.4</ele>
        <time>2021-05-28T11:09:23Z</time>
      </trkpt>
      <trkpt lat="45.55172" lon="6.63436">
        <ele>676.4</ele>
        <time>2021-05-28T11:09:24Z</time>
      </trkpt>
      <trkpt lat="45.5517" lon="6.63427">
        <ele>676.4</ele>
        <time>2021-05-28T11:09:25Z</time>
      </trkpt>
      <trkpt lat="45.55167" lon="6.63418">
        <ele>676.4</ele>
        <time>2021-05-28T11:09:26Z</time>
      </trkpt>
      <trkpt lat="45.55164" lon="6.63409">
        <ele>676.4</ele>
        <time>2021-05-28T11:09:27Z</time>
      </trkpt>
      <trkpt lat="45.55162" lon="6.634">
        <ele>676.4</ele>
        <time>2021-05-28T11:09:28Z</time>
      </trkpt>
      <trkpt lat="45.5516" lon="6.6339">
        <ele>676.4</ele>
        <time>2021-05-28T11:09:29Z</time>
      </trkpt>
      <trkpt lat="45.55158" lon="6.6338">
        <ele>676.2</ele>
        <time>2021-05-28T11:09:30Z</time>
      </trkpt>
      <trkpt lat="45.55156" lon="6.63371">
        <ele>676.4</ele>
        <time>2021-05-28T11:09:31Z</time>
      </trkpt>
      <trkpt lat="45.55155" lon="6.63361">
        <ele>676.2</ele>
        <time>2021-05-28T11:09:32Z</time>
      </trkpt>
      <trkpt lat="45.55154" lon="6.63351">
        <ele>676</ele>
        <time>2021-05-28T11:09:33Z</time>
      </trkpt>
      <trkpt lat="45.55153" lon="6.63341">
        <ele>676</ele>
        <time>2021-05-28T11:09:34Z</time>
      </trkpt>
      <trkpt lat="45.55152" lon="6.6333">
        <ele>676</ele>
        <time>2021-05-28T11:09:35Z</time>
      </trkpt>
      <trkpt lat="45.55151" lon="6.6332">
        <ele>676.2</ele>
        <time>2021-05-28T11:09:36Z</time>
      </trkpt>
      <trkpt lat="45.55151" lon="6.6331">
        <ele>676.2</ele>
        <time>2021-05-28T11:09:37Z</time>
      </trkpt>
      <trkpt lat="45.5515" lon="6.63299">
        <ele>676.4</ele>
        <time>2021-05-28T11:09:38Z</time>
      </trkpt>
      <trkpt lat="45.5515" lon="6.63289">
        <ele>676.6</ele>
        <time>2021-05-28T11:09:39Z</time>
      </trkpt>
      <trkpt lat="45.5515" lon="6.63278">
        <ele>676.6</ele>
        <time>2021-05-28T11:09:40Z</time>
      </trkpt>
      <trkpt lat="45.55151" lon="6.63268">
        <ele>676.6</ele>
        <time>2021-05-28T11:09:41Z</time>
      </trkpt>
      <trkpt lat="45.55151" lon="6.63258">
        <ele>676.4</ele>
        <time>2021-05-28T11:09:42Z</time>
      </trkpt>
      <trkpt lat="45.55152" lon="6.63248">
        <ele>676.6</ele>
        <time>2021-05-28T11:09:43Z</time>
      </trkpt>
      <trkpt lat="45.55153" lon="6.63237">
        <ele>676.6</ele>
        <time>2021-05-28T11:09:44Z</time>
      </trkpt>
      <trkpt lat="45.55153" lon="6.63227">
        <ele>677</ele>
        <time>2021-05-28T11:09:45Z</time>
      </trkpt>
      <trkpt lat="45.55155" lon="6.63217">
        <ele>677.2</ele>
        <time>2021-05-28T11:09:46Z</time>
      </trkpt>
      <trkpt lat="45.55155" lon="6.63207">
        <ele>677.2</ele>
        <time>2021-05-28T11:09:47Z</time>
      </trkpt>
      <trkpt lat="45.55156" lon="6.63196">
        <ele>677.4</ele>
        <time>2021-05-28T11:09:48Z</time>
      </trkpt>
      <trkpt lat="45.55157" lon="6.63186">
        <ele>677.4</ele>
        <time>2021-05-28T11:09:49Z</time>
      </trkpt>
      <trkpt lat="45.55158" lon="6.63176">
        <ele>677.4</ele>
        <time>2021-05-28T11:09:50Z</time>
      </trkpt>
      <trkpt lat="45.55159" lon="6.63166">
        <ele>677.6</ele>
        <time>2021-05-28T11:09:51Z</time>
      </trkpt>
      <trkpt lat="45.55161" lon="6.63156">
        <ele>677.6</ele>
        <time>2021-05-28T11:09:52Z</time>
      </trkpt>
      <trkpt lat="45.55161" lon="6.63145">
        <ele>678</ele>
        <time>2021-05-28T11:09:53Z</time>
      </trkpt>
      <trkpt lat="45.55162" lon="6.63135">
        <ele>678.2</ele>
        <time>2021-05-28T11:09:54Z</time>
      </trkpt>
      <trkpt lat="45.55163" lon="6.63125">
        <ele>678.4</ele>
        <time>2021-05-28T11:09:55Z</time>
      </trkpt>
      <trkpt lat="45.55164" lon="6.63115">
        <ele>678.4</ele>
        <time>2021-05-28T11:09:56Z</time>
      </trkpt>
      <trkpt lat="45.55164" lon="6.63105">
        <ele>678.4</ele>
        <time>2021-05-28T11:09:57Z</time>
      </trkpt>
      <trkpt lat="45.55165" lon="6.63095">
        <ele>678.4</ele>
        <time>2021-05-28T11:09:58Z</time>
      </trkpt>
      <trkpt lat="45.55165" lon="6.63085">
        <ele>678.4</ele>
        <time>2021-05-28T11:09:59Z</time>
      </trkpt>
      <trkpt lat="45.55166" lon="6.63075">
        <ele>678.4</ele>
        <time>2021-05-28T11:10:00Z</time>
      </trkpt>
      <trkpt lat="45.55166" lon="6.63065">
        <ele>678.6</ele>
        <time>2021-05-28T11:10:01Z</time>
      </trkpt>
      <trkpt lat="45.55166" lon="6.63055">
        <ele>678.6</ele>
        <time>2021-05-28T11:10:02Z</time>
      </trkpt>
      <trkpt lat="45.55165" lon="6.63045">
        <ele>678.6</ele>
        <time>2021-05-28T11:10:03Z</time>
      </trkpt>
      <trkpt lat="45.55165" lon="6.63035">
        <ele>678.4</ele>
        <time>2021-05-28T11:10:04Z</time>
      </trkpt>
      <trkpt lat="45.55165" lon="6.63025">
        <ele>678.2</ele>
        <time>2021-05-28T11:10:05Z</time>
      </trkpt>
      <trkpt lat="45.55165" lon="6.63015">
        <ele>678.4</ele>
        <time>2021-05-28T11:10:06Z</time>
      </trkpt>
      <trkpt lat="45.55164" lon="6.63005">
        <ele>678.4</ele>
        <time>2021-05-28T11:10:07Z</time>
      </trkpt>
      <trkpt lat="45.55163" lon="6.62995">
        <ele>678.2</ele>
        <time>2021-05-28T11:10:08Z</time>
      </trkpt>
      <trkpt lat="45.55162" lon="6.62986">
        <ele>677.4</ele>
        <time>2021-05-28T11:10:09Z</time>
      </trkpt>
      <trkpt lat="45.55161" lon="6.62977">
        <ele>676.4</ele>
        <time>2021-05-28T11:10:10Z</time>
      </trkpt>
      <trkpt lat="45.55159" lon="6.62967">
        <ele>675.8</ele>
        <time>2021-05-28T11:10:11Z</time>
      </trkpt>
      <trkpt lat="45.55158" lon="6.62958">
        <ele>675.8</ele>
        <time>2021-05-28T11:10:12Z</time>
      </trkpt>
      <trkpt lat="45.55156" lon="6.62949">
        <ele>676.2</ele>
        <time>2021-05-28T11:10:13Z</time>
      </trkpt>
      <trkpt lat="45.55155" lon="6.6294">
        <ele>676.2</ele>
        <time>2021-05-28T11:10:14Z</time>
      </trkpt>
      <trkpt lat="45.55153" lon="6.62931">
        <ele>676</ele>
        <time>2021-05-28T11:10:15Z</time>
      </trkpt>
      <trkpt lat="45.5515" lon="6.62922">
        <ele>676.4</ele>
        <time>2021-05-28T11:10:16Z</time>
      </trkpt>
      <trkpt lat="45.55148" lon="6.62913">
        <ele>676.8</ele>
        <time>2021-05-28T11:10:17Z</time>
      </trkpt>
      <trkpt lat="45.55145" lon="6.62905">
        <ele>676.8</ele>
        <time>2021-05-28T11:10:18Z</time>
      </trkpt>
      <trkpt lat="45.55142" lon="6.62896">
        <ele>677.4</ele>
        <time>2021-05-28T11:10:19Z</time>
      </trkpt>
      <trkpt lat="45.5514" lon="6.62887">
        <ele>677.4</ele>
        <time>2021-05-28T11:10:20Z</time>
      </trkpt>
      <trkpt lat="45.55137" lon="6.62879">
        <ele>677.6</ele>
        <time>2021-05-28T11:10:21Z</time>
      </trkpt>
      <trkpt lat="45.55134" lon="6.6287">
        <ele>678.2</ele>
        <time>2021-05-28T11:10:22Z</time>
      </trkpt>
      <trkpt lat="45.55131" lon="6.62862">
        <ele>678.6</ele>
        <time>2021-05-28T11:10:23Z</time>
      </trkpt>
      <trkpt lat="45.55128" lon="6.62853">
        <ele>678.8</ele>
        <time>2021-05-28T11:10:24Z</time>
      </trkpt>
      <trkpt lat="45.55125" lon="6.62845">
        <ele>679.4</ele>
        <time>2021-05-28T11:10:25Z</time>
      </trkpt>
      <trkpt lat="45.55121" lon="6.62836">
        <ele>679.4</ele>
        <time>2021-05-28T11:10:26Z</time>
      </trkpt>
      <trkpt lat="45.55117" lon="6.62828">
        <ele>679.4</ele>
        <time>2021-05-28T11:10:27Z</time>
      </trkpt>
      <trkpt lat="45.55114" lon="6.62819">
        <ele>679.8</ele>
        <time>2021-05-28T11:10:28Z</time>
      </trkpt>
      <trkpt lat="45.5511" lon="6.62811">
        <ele>680</ele>
        <time>2021-05-28T11:10:29Z</time>
      </trkpt>
      <trkpt lat="45.55106" lon="6.62802">
        <ele>680.4</ele>
        <time>2021-05-28T11:10:30Z</time>
      </trkpt>
      <trkpt lat="45.55102" lon="6.62793">
        <ele>681.2</ele>
        <time>2021-05-28T11:10:31Z</time>
      </trkpt>
      <trkpt lat="45.55099" lon="6.62784">
        <ele>681.4</ele>
        <time>2021-05-28T11:10:32Z</time>
      </trkpt>
      <trkpt lat="45.55094" lon="6.62775">
        <ele>681</ele>
        <time>2021-05-28T11:10:33Z</time>
      </trkpt>
      <trkpt lat="45.55091" lon="6.62766">
        <ele>681</ele>
        <time>2021-05-28T11:10:34Z</time>
      </trkpt>
      <trkpt lat="45.55087" lon="6.62756">
        <ele>680.8</ele>
        <time>2021-05-28T11:10:35Z</time>
      </trkpt>
      <trkpt lat="45.55083" lon="6.62747">
        <ele>681.2</ele>
        <time>2021-05-28T11:10:36Z</time>
      </trkpt>
      <trkpt lat="45.55079" lon="6.62737">
        <ele>681.4</ele>
        <time>2021-05-28T11:10:37Z</time>
      </trkpt>
      <trkpt lat="45.55075" lon="6.62728">
        <ele>681.4</ele>
        <time>2021-05-28T11:10:38Z</time>
      </trkpt>
      <trkpt lat="45.55071" lon="6.62718">
        <ele>681.6</ele>
        <time>2021-05-28T11:10:39Z</time>
      </trkpt>
      <trkpt lat="45.55067" lon="6.62708">
        <ele>681.4</ele>
        <time>2021-05-28T11:10:40Z</time>
      </trkpt>
      <trkpt lat="45.55062" lon="6.62698">
        <ele>682.2</ele>
        <time>2021-05-28T11:10:41Z</time>
      </trkpt>
      <trkpt lat="45.55058" lon="6.62688">
        <ele>682.4</ele>
        <time>2021-05-28T11:10:42Z</time>
      </trkpt>
      <trkpt lat="45.55053" lon="6.62678">
        <ele>682.8</ele>
        <time>2021-05-28T11:10:43Z</time>
      </trkpt>
      <trkpt lat="45.55049" lon="6.62668">
        <ele>683</ele>
        <time>2021-05-28T11:10:44Z</time>
      </trkpt>
      <trkpt lat="45.55044" lon="6.62657">
        <ele>683</ele>
        <time>2021-05-28T11:10:45Z</time>
      </trkpt>
      <trkpt lat="45.5504" lon="6.62646">
        <ele>683.2</ele>
        <time>2021-05-28T11:10:46Z</time>
      </trkpt>
      <trkpt lat="45.55036" lon="6.62635">
        <ele>683</ele>
        <time>2021-05-28T11:10:47Z</time>
      </trkpt>
      <trkpt lat="45.55031" lon="6.62624">
        <ele>682.8</ele>
        <time>2021-05-28T11:10:48Z</time>
      </trkpt>
      <trkpt lat="45.55027" lon="6.62612">
        <ele>682.6</ele>
        <time>2021-05-28T11:10:49Z</time>
      </trkpt>
      <trkpt lat="45.55024" lon="6.626">
        <ele>682.2</ele>
        <time>2021-05-28T11:10:50Z</time>
      </trkpt>
      <trkpt lat="45.5502" lon="6.62589">
        <ele>682</ele>
        <time>2021-05-28T11:10:51Z</time>
      </trkpt>
      <trkpt lat="45.55018" lon="6.62578">
        <ele>682</ele>
        <time>2021-05-28T11:10:52Z</time>
      </trkpt>
      <trkpt lat="45.55016" lon="6.62568">
        <ele>681.6</ele>
        <time>2021-05-28T11:10:53Z</time>
      </trkpt>
      <trkpt lat="45.55013" lon="6.62558">
        <ele>681.2</ele>
        <time>2021-05-28T11:10:54Z</time>
      </trkpt>
      <trkpt lat="45.5501" lon="6.62547">
        <ele>680.6</ele>
        <time>2021-05-28T11:10:55Z</time>
      </trkpt>
      <trkpt lat="45.55008" lon="6.62537">
        <ele>680.2</ele>
        <time>2021-05-28T11:10:56Z</time>
      </trkpt>
      <trkpt lat="45.55006" lon="6.62526">
        <ele>679.6</ele>
        <time>2021-05-28T11:10:57Z</time>
      </trkpt>
      <trkpt lat="45.55004" lon="6.62515">
        <ele>679.4</ele>
        <time>2021-05-28T11:10:58Z</time>
      </trkpt>
      <trkpt lat="45.55001" lon="6.62504">
        <ele>679.2</ele>
        <time>2021-05-28T11:10:59Z</time>
      </trkpt>
      <trkpt lat="45.54998" lon="6.62494">
        <ele>679</ele>
        <time>2021-05-28T11:11:00Z</time>
      </trkpt>
      <trkpt lat="45.54994" lon="6.62484">
        <ele>678.6</ele>
        <time>2021-05-28T11:11:01Z</time>
      </trkpt>
      <trkpt lat="45.5499" lon="6.62473">
        <ele>678.2</ele>
        <time>2021-05-28T11:11:02Z</time>
      </trkpt>
      <trkpt lat="45.54987" lon="6.62462">
        <ele>677.8</ele>
        <time>2021-05-28T11:11:03Z</time>
      </trkpt>
      <trkpt lat="45.54984" lon="6.62451">
        <ele>677.6</ele>
        <time>2021-05-28T11:11:04Z</time>
      </trkpt>
      <trkpt lat="45.54981" lon="6.6244">
        <ele>677.4</ele>
        <time>2021-05-28T11:11:05Z</time>
      </trkpt>
      <trkpt lat="45.54978" lon="6.62428">
        <ele>677.2</ele>
        <time>2021-05-28T11:11:06Z</time>
      </trkpt>
      <trkpt lat="45.54975" lon="6.62416">
        <ele>676.8</ele>
        <time>2021-05-28T11:11:07Z</time>
      </trkpt>
      <trkpt lat="45.54973" lon="6.62404">
        <ele>676.8</ele>
        <time>2021-05-28T11:11:08Z</time>
      </trkpt>
      <trkpt lat="45.54971" lon="6.62393">
        <ele>676.8</ele>
        <time>2021-05-28T11:11:09Z</time>
      </trkpt>
      <trkpt lat="45.54969" lon="6.62381">
        <ele>677</ele>
        <time>2021-05-28T11:11:10Z</time>
      </trkpt>
      <trkpt lat="45.54968" lon="6.62369">
        <ele>676.6</ele>
        <time>2021-05-28T11:11:11Z</time>
      </trkpt>
      <trkpt lat="45.54967" lon="6.62357">
        <ele>676.6</ele>
        <time>2021-05-28T11:11:12Z</time>
      </trkpt>
      <trkpt lat="45.54967" lon="6.62345">
        <ele>676.6</ele>
        <time>2021-05-28T11:11:13Z</time>
      </trkpt>
      <trkpt lat="45.54966" lon="6.62332">
        <ele>676.8</ele>
        <time>2021-05-28T11:11:14Z</time>
      </trkpt>
      <trkpt lat="45.54965" lon="6.6232">
        <ele>676.2</ele>
        <time>2021-05-28T11:11:15Z</time>
      </trkpt>
      <trkpt lat="45.54965" lon="6.62308">
        <ele>676</ele>
        <time>2021-05-28T11:11:16Z</time>
      </trkpt>
      <trkpt lat="45.54963" lon="6.62295">
        <ele>675.6</ele>
        <time>2021-05-28T11:11:17Z</time>
      </trkpt>
      <trkpt lat="45.54962" lon="6.62283">
        <ele>675.8</ele>
        <time>2021-05-28T11:11:18Z</time>
      </trkpt>
      <trkpt lat="45.5496" lon="6.62271">
        <ele>675.2</ele>
        <time>2021-05-28T11:11:19Z</time>
      </trkpt>
      <trkpt lat="45.54958" lon="6.62259">
        <ele>674.8</ele>
        <time>2021-05-28T11:11:20Z</time>
      </trkpt>
      <trkpt lat="45.54957" lon="6.62248">
        <ele>674.6</ele>
        <time>2021-05-28T11:11:21Z</time>
      </trkpt>
      <trkpt lat="45.54957" lon="6.62236">
        <ele>674.2</ele>
        <time>2021-05-28T11:11:22Z</time>
      </trkpt>
      <trkpt lat="45.54958" lon="6.62223">
        <ele>674.2</ele>
        <time>2021-05-28T11:11:23Z</time>
      </trkpt>
      <trkpt lat="45.5496" lon="6.62211">
        <ele>674.6</ele>
        <time>2021-05-28T11:11:24Z</time>
      </trkpt>
      <trkpt lat="45.54963" lon="6.62199">
        <ele>674.6</ele>
        <time>2021-05-28T11:11:25Z</time>
      </trkpt>
      <trkpt lat="45.54966" lon="6.62188">
        <ele>674.4</ele>
        <time>2021-05-28T11:11:26Z</time>
      </trkpt>
      <trkpt lat="45.54971" lon="6.62177">
        <ele>674.2</ele>
        <time>2021-05-28T11:11:27Z</time>
      </trkpt>
      <trkpt lat="45.54977" lon="6.62167">
        <ele>674</ele>
        <time>2021-05-28T11:11:28Z</time>
      </trkpt>
      <trkpt lat="45.54982" lon="6.62157">
        <ele>673.4</ele>
        <time>2021-05-28T11:11:29Z</time>
      </trkpt>
      <trkpt lat="45.54988" lon="6.62148">
        <ele>673.4</ele>
        <time>2021-05-28T11:11:30Z</time>
      </trkpt>
      <trkpt lat="45.54995" lon="6.62139">
        <ele>672.8</ele>
        <time>2021-05-28T11:11:31Z</time>
      </trkpt>
      <trkpt lat="45.55001" lon="6.6213">
        <ele>672.4</ele>
        <time>2021-05-28T11:11:32Z</time>
      </trkpt>
      <trkpt lat="45.55007" lon="6.62121">
        <ele>672.2</ele>
        <time>2021-05-28T11:11:33Z</time>
      </trkpt>
      <trkpt lat="45.55013" lon="6.62111">
        <ele>672</ele>
        <time>2021-05-28T11:11:34Z</time>
      </trkpt>
      <trkpt lat="45.55019" lon="6.62101">
        <ele>672.2</ele>
        <time>2021-05-28T11:11:35Z</time>
      </trkpt>
      <trkpt lat="45.55024" lon="6.62091">
        <ele>672</ele>
        <time>2021-05-28T11:11:36Z</time>
      </trkpt>
      <trkpt lat="45.55029" lon="6.6208">
        <ele>672.4</ele>
        <time>2021-05-28T11:11:37Z</time>
      </trkpt>
      <trkpt lat="45.55033" lon="6.6207">
        <ele>672.4</ele>
        <time>2021-05-28T11:11:38Z</time>
      </trkpt>
      <trkpt lat="45.55036" lon="6.62057">
        <ele>672.4</ele>
        <time>2021-05-28T11:11:39Z</time>
      </trkpt>
      <trkpt lat="45.5504" lon="6.62045">
        <ele>672.8</ele>
        <time>2021-05-28T11:11:40Z</time>
      </trkpt>
      <trkpt lat="45.55043" lon="6.62033">
        <ele>672.8</ele>
        <time>2021-05-28T11:11:41Z</time>
      </trkpt>
      <trkpt lat="45.55045" lon="6.6202">
        <ele>673.2</ele>
        <time>2021-05-28T11:11:42Z</time>
      </trkpt>
      <trkpt lat="45.55047" lon="6.62008">
        <ele>673.2</ele>
        <time>2021-05-28T11:11:43Z</time>
      </trkpt>
      <trkpt lat="45.5505" lon="6.61996">
        <ele>673.8</ele>
        <time>2021-05-28T11:11:44Z</time>
      </trkpt>
      <trkpt lat="45.55051" lon="6.61983">
        <ele>673.6</ele>
        <time>2021-05-28T11:11:45Z</time>
      </trkpt>
      <trkpt lat="45.55051" lon="6.61971">
        <ele>673.4</ele>
        <time>2021-05-28T11:11:46Z</time>
      </trkpt>
      <trkpt lat="45.5505" lon="6.61959">
        <ele>673</ele>
        <time>2021-05-28T11:11:47Z</time>
      </trkpt>
      <trkpt lat="45.55048" lon="6.61947">
        <ele>671.6</ele>
        <time>2021-05-28T11:11:48Z</time>
      </trkpt>
      <trkpt lat="45.55045" lon="6.61936">
        <ele>670.8</ele>
        <time>2021-05-28T11:11:49Z</time>
      </trkpt>
      <trkpt lat="45.55042" lon="6.61925">
        <ele>671</ele>
        <time>2021-05-28T11:11:50Z</time>
      </trkpt>
      <trkpt lat="45.55037" lon="6.61914">
        <ele>671.4</ele>
        <time>2021-05-28T11:11:51Z</time>
      </trkpt>
      <trkpt lat="45.55032" lon="6.61905">
        <ele>671.6</ele>
        <time>2021-05-28T11:11:52Z</time>
      </trkpt>
      <trkpt lat="45.55026" lon="6.61897">
        <ele>671.6</ele>
        <time>2021-05-28T11:11:53Z</time>
      </trkpt>
      <trkpt lat="45.5502" lon="6.61889">
        <ele>671.8</ele>
        <time>2021-05-28T11:11:54Z</time>
      </trkpt>
      <trkpt lat="45.55013" lon="6.61881">
        <ele>672</ele>
        <time>2021-05-28T11:11:55Z</time>
      </trkpt>
      <trkpt lat="45.55006" lon="6.61873">
        <ele>672</ele>
        <time>2021-05-28T11:11:56Z</time>
      </trkpt>
      <trkpt lat="45.55" lon="6.61865">
        <ele>672.4</ele>
        <time>2021-05-28T11:11:57Z</time>
      </trkpt>
      <trkpt lat="45.54994" lon="6.61857">
        <ele>672.8</ele>
        <time>2021-05-28T11:11:58Z</time>
      </trkpt>
      <trkpt lat="45.54988" lon="6.61847">
        <ele>672.4</ele>
        <time>2021-05-28T11:11:59Z</time>
      </trkpt>
      <trkpt lat="45.54982" lon="6.61838">
        <ele>672.4</ele>
        <time>2021-05-28T11:12:00Z</time>
      </trkpt>
      <trkpt lat="45.54977" lon="6.61828">
        <ele>671.4</ele>
        <time>2021-05-28T11:12:01Z</time>
      </trkpt>
      <trkpt lat="45.54972" lon="6.61817">
        <ele>671.8</ele>
        <time>2021-05-28T11:12:02Z</time>
      </trkpt>
      <trkpt lat="45.54967" lon="6.61806">
        <ele>672.6</ele>
        <time>2021-05-28T11:12:03Z</time>
      </trkpt>
      <trkpt lat="45.54962" lon="6.61795">
        <ele>672.2</ele>
        <time>2021-05-28T11:12:04Z</time>
      </trkpt>
      <trkpt lat="45.54957" lon="6.61784">
        <ele>671.8</ele>
        <time>2021-05-28T11:12:05Z</time>
      </trkpt>
      <trkpt lat="45.54953" lon="6.61772">
        <ele>671.2</ele>
        <time>2021-05-28T11:12:06Z</time>
      </trkpt>
      <trkpt lat="45.54948" lon="6.6176">
        <ele>670</ele>
        <time>2021-05-28T11:12:07Z</time>
      </trkpt>
      <trkpt lat="45.54944" lon="6.61748">
        <ele>670.4</ele>
        <time>2021-05-28T11:12:08Z</time>
      </trkpt>
      <trkpt lat="45.5494" lon="6.61736">
        <ele>670.6</ele>
        <time>2021-05-28T11:12:09Z</time>
      </trkpt>
      <trkpt lat="45.54935" lon="6.61724">
        <ele>670.4</ele>
        <time>2021-05-28T11:12:10Z</time>
      </trkpt>
      <trkpt lat="45.5493" lon="6.61712">
        <ele>669.8</ele>
        <time>2021-05-28T11:12:11Z</time>
      </trkpt>
      <trkpt lat="45.54925" lon="6.61701">
        <ele>669.6</ele>
        <time>2021-05-28T11:12:12Z</time>
      </trkpt>
      <trkpt lat="45.54919" lon="6.61689">
        <ele>669</ele>
        <time>2021-05-28T11:12:13Z</time>
      </trkpt>
      <trkpt lat="45.54913" lon="6.61679">
        <ele>668.8</ele>
        <time>2021-05-28T11:12:14Z</time>
      </trkpt>
      <trkpt lat="45.54906" lon="6.61668">
        <ele>668.2</ele>
        <time>2021-05-28T11:12:15Z</time>
      </trkpt>
      <trkpt lat="45.54899" lon="6.61658">
        <ele>668</ele>
        <time>2021-05-28T11:12:16Z</time>
      </trkpt>
      <trkpt lat="45.54891" lon="6.61649">
        <ele>668.4</ele>
        <time>2021-05-28T11:12:17Z</time>
      </trkpt>
      <trkpt lat="45.54883" lon="6.61641">
        <ele>668</ele>
        <time>2021-05-28T11:12:18Z</time>
      </trkpt>
      <trkpt lat="45.54874" lon="6.61633">
        <ele>667.6</ele>
        <time>2021-05-28T11:12:19Z</time>
      </trkpt>
      <trkpt lat="45.54865" lon="6.61626">
        <ele>667.8</ele>
        <time>2021-05-28T11:12:20Z</time>
      </trkpt>
      <trkpt lat="45.54856" lon="6.6162">
        <ele>667.8</ele>
        <time>2021-05-28T11:12:21Z</time>
      </trkpt>
      <trkpt lat="45.54846" lon="6.61613">
        <ele>668.4</ele>
        <time>2021-05-28T11:12:22Z</time>
      </trkpt>
      <trkpt lat="45.54837" lon="6.61607">
        <ele>668.6</ele>
        <time>2021-05-28T11:12:23Z</time>
      </trkpt>
      <trkpt lat="45.54828" lon="6.61601">
        <ele>668.8</ele>
        <time>2021-05-28T11:12:24Z</time>
      </trkpt>
      <trkpt lat="45.54817" lon="6.61596">
        <ele>668.2</ele>
        <time>2021-05-28T11:12:25Z</time>
      </trkpt>
      <trkpt lat="45.54808" lon="6.61589">
        <ele>667.6</ele>
        <time>2021-05-28T11:12:26Z</time>
      </trkpt>
      <trkpt lat="45.54798" lon="6.61583">
        <ele>667</ele>
        <time>2021-05-28T11:12:27Z</time>
      </trkpt>
      <trkpt lat="45.54788" lon="6.61577">
        <ele>666.8</ele>
        <time>2021-05-28T11:12:28Z</time>
      </trkpt>
      <trkpt lat="45.54779" lon="6.6157">
        <ele>666.8</ele>
        <time>2021-05-28T11:12:29Z</time>
      </trkpt>
      <trkpt lat="45.5477" lon="6.61563">
        <ele>666.6</ele>
        <time>2021-05-28T11:12:30Z</time>
      </trkpt>
      <trkpt lat="45.5476" lon="6.61557">
        <ele>666.6</ele>
        <time>2021-05-28T11:12:31Z</time>
      </trkpt>
      <trkpt lat="45.5475" lon="6.61551">
        <ele>666.6</ele>
        <time>2021-05-28T11:12:32Z</time>
      </trkpt>
      <trkpt lat="45.5474" lon="6.61546">
        <ele>666.6</ele>
        <time>2021-05-28T11:12:33Z</time>
      </trkpt>
      <trkpt lat="45.5473" lon="6.6154">
        <ele>666.2</ele>
        <time>2021-05-28T11:12:34Z</time>
      </trkpt>
      <trkpt lat="45.54719" lon="6.61536">
        <ele>665.6</ele>
        <time>2021-05-28T11:12:35Z</time>
      </trkpt>
      <trkpt lat="45.54709" lon="6.61533">
        <ele>665</ele>
        <time>2021-05-28T11:12:36Z</time>
      </trkpt>
      <trkpt lat="45.54698" lon="6.61532">
        <ele>665</ele>
        <time>2021-05-28T11:12:37Z</time>
      </trkpt>
      <trkpt lat="45.54687" lon="6.61533">
        <ele>665.6</ele>
        <time>2021-05-28T11:12:38Z</time>
      </trkpt>
      <trkpt lat="45.54676" lon="6.61536">
        <ele>665.6</ele>
        <time>2021-05-28T11:12:39Z</time>
      </trkpt>
      <trkpt lat="45.54665" lon="6.61541">
        <ele>665.2</ele>
        <time>2021-05-28T11:12:40Z</time>
      </trkpt>
      <trkpt lat="45.54655" lon="6.61546">
        <ele>665.2</ele>
        <time>2021-05-28T11:12:41Z</time>
      </trkpt>
      <trkpt lat="45.54645" lon="6.61553">
        <ele>664.6</ele>
        <time>2021-05-28T11:12:42Z</time>
      </trkpt>
      <trkpt lat="45.54635" lon="6.6156">
        <ele>664.4</ele>
        <time>2021-05-28T11:12:43Z</time>
      </trkpt>
      <trkpt lat="45.54624" lon="6.61566">
        <ele>664.4</ele>
        <time>2021-05-28T11:12:44Z</time>
      </trkpt>
      <trkpt lat="45.54613" lon="6.61572">
        <ele>664.4</ele>
        <time>2021-05-28T11:12:45Z</time>
      </trkpt>
      <trkpt lat="45.54601" lon="6.61577">
        <ele>664</ele>
        <time>2021-05-28T11:12:46Z</time>
      </trkpt>
      <trkpt lat="45.54591" lon="6.6158">
        <ele>663.8</ele>
        <time>2021-05-28T11:12:47Z</time>
      </trkpt>
      <trkpt lat="45.5458" lon="6.6158">
        <ele>664</ele>
        <time>2021-05-28T11:12:48Z</time>
      </trkpt>
      <trkpt lat="45.5457" lon="6.61578">
        <ele>663.8</ele>
        <time>2021-05-28T11:12:49Z</time>
      </trkpt>
      <trkpt lat="45.54559" lon="6.61575">
        <ele>664.2</ele>
        <time>2021-05-28T11:12:50Z</time>
      </trkpt>
      <trkpt lat="45.54547" lon="6.61571">
        <ele>664</ele>
        <time>2021-05-28T11:12:51Z</time>
      </trkpt>
      <trkpt lat="45.54536" lon="6.61567">
        <ele>663.6</ele>
        <time>2021-05-28T11:12:52Z</time>
      </trkpt>
      <trkpt lat="45.54524" lon="6.61561">
        <ele>663.4</ele>
        <time>2021-05-28T11:12:53Z</time>
      </trkpt>
      <trkpt lat="45.54514" lon="6.61556">
        <ele>662.8</ele>
        <time>2021-05-28T11:12:54Z</time>
      </trkpt>
      <trkpt lat="45.54502" lon="6.61551">
        <ele>663</ele>
        <time>2021-05-28T11:12:55Z</time>
      </trkpt>
      <trkpt lat="45.54491" lon="6.61546">
        <ele>662.2</ele>
        <time>2021-05-28T11:12:56Z</time>
      </trkpt>
      <trkpt lat="45.5448" lon="6.61542">
        <ele>662</ele>
        <time>2021-05-28T11:12:57Z</time>
      </trkpt>
      <trkpt lat="45.54468" lon="6.61538">
        <ele>661.4</ele>
        <time>2021-05-28T11:12:58Z</time>
      </trkpt>
      <trkpt lat="45.54458" lon="6.61535">
        <ele>660.8</ele>
        <time>2021-05-28T11:12:59Z</time>
      </trkpt>
      <trkpt lat="45.54446" lon="6.61532">
        <ele>660.6</ele>
        <time>2021-05-28T11:13:00Z</time>
      </trkpt>
      <trkpt lat="45.54436" lon="6.61529">
        <ele>660.8</ele>
        <time>2021-05-28T11:13:01Z</time>
      </trkpt>
      <trkpt lat="45.54425" lon="6.61526">
        <ele>660.8</ele>
        <time>2021-05-28T11:13:02Z</time>
      </trkpt>
      <trkpt lat="45.54414" lon="6.61524">
        <ele>660</ele>
        <time>2021-05-28T11:13:03Z</time>
      </trkpt>
      <trkpt lat="45.54402" lon="6.61521">
        <ele>659.8</ele>
        <time>2021-05-28T11:13:04Z</time>
      </trkpt>
      <trkpt lat="45.54391" lon="6.61518">
        <ele>659.6</ele>
        <time>2021-05-28T11:13:05Z</time>
      </trkpt>
      <trkpt lat="45.5438" lon="6.61515">
        <ele>660</ele>
        <time>2021-05-28T11:13:06Z</time>
      </trkpt>
      <trkpt lat="45.54369" lon="6.61511">
        <ele>660</ele>
        <time>2021-05-28T11:13:07Z</time>
      </trkpt>
      <trkpt lat="45.54358" lon="6.61508">
        <ele>660.6</ele>
        <time>2021-05-28T11:13:08Z</time>
      </trkpt>
      <trkpt lat="45.54346" lon="6.61504">
        <ele>660</ele>
        <time>2021-05-28T11:13:09Z</time>
      </trkpt>
      <trkpt lat="45.54335" lon="6.61497">
        <ele>659.4</ele>
        <time>2021-05-28T11:13:10Z</time>
      </trkpt>
      <trkpt lat="45.54325" lon="6.6149">
        <ele>659.8</ele>
        <time>2021-05-28T11:13:11Z</time>
      </trkpt>
      <trkpt lat="45.54315" lon="6.61483">
        <ele>660.2</ele>
        <time>2021-05-28T11:13:12Z</time>
      </trkpt>
      <trkpt lat="45.54305" lon="6.61474">
        <ele>660</ele>
        <time>2021-05-28T11:13:13Z</time>
      </trkpt>
      <trkpt lat="45.54295" lon="6.61464">
        <ele>660</ele>
        <time>2021-05-28T11:13:14Z</time>
      </trkpt>
      <trkpt lat="45.54286" lon="6.61455">
        <ele>660</ele>
        <time>2021-05-28T11:13:15Z</time>
      </trkpt>
      <trkpt lat="45.54277" lon="6.61445">
        <ele>660</ele>
        <time>2021-05-28T11:13:16Z</time>
      </trkpt>
      <trkpt lat="45.54269" lon="6.61434">
        <ele>660.2</ele>
        <time>2021-05-28T11:13:17Z</time>
      </trkpt>
      <trkpt lat="45.54261" lon="6.61423">
        <ele>660.8</ele>
        <time>2021-05-28T11:13:18Z</time>
      </trkpt>
      <trkpt lat="45.54254" lon="6.61411">
        <ele>660.6</ele>
        <time>2021-05-28T11:13:19Z</time>
      </trkpt>
      <trkpt lat="45.54248" lon="6.61397">
        <ele>660</ele>
        <time>2021-05-28T11:13:20Z</time>
      </trkpt>
      <trkpt lat="45.54243" lon="6.61383">
        <ele>659.4</ele>
        <time>2021-05-28T11:13:21Z</time>
      </trkpt>
      <trkpt lat="45.5424" lon="6.61368">
        <ele>659.8</ele>
        <time>2021-05-28T11:13:22Z</time>
      </trkpt>
      <trkpt lat="45.54237" lon="6.61352">
        <ele>659.6</ele>
        <time>2021-05-28T11:13:23Z</time>
      </trkpt>
      <trkpt lat="45.54236" lon="6.61337">
        <ele>659.6</ele>
        <time>2021-05-28T11:13:24Z</time>
      </trkpt>
      <trkpt lat="45.54236" lon="6.61322">
        <ele>659.4</ele>
        <time>2021-05-28T11:13:25Z</time>
      </trkpt>
      <trkpt lat="45.54236" lon="6.61307">
        <ele>660.2</ele>
        <time>2021-05-28T11:13:26Z</time>
      </trkpt>
      <trkpt lat="45.54236" lon="6.61292">
        <ele>660</ele>
        <time>2021-05-28T11:13:27Z</time>
      </trkpt>
      <trkpt lat="45.53948" lon="6.60299">
        <ele>643.8</ele>
        <time>2021-05-28T11:14:52Z</time>
      </trkpt>
      <trkpt lat="45.53941" lon="6.60291">
        <ele>643.8</ele>
        <time>2021-05-28T11:14:53Z</time>
      </trkpt>
      <trkpt lat="45.53935" lon="6.60282">
        <ele>643.2</ele>
        <time>2021-05-28T11:14:54Z</time>
      </trkpt>
      <trkpt lat="45.53929" lon="6.60273">
        <ele>643.4</ele>
        <time>2021-05-28T11:14:55Z</time>
      </trkpt>
      <trkpt lat="45.53924" lon="6.60263">
        <ele>643.4</ele>
        <time>2021-05-28T11:14:56Z</time>
      </trkpt>
      <trkpt lat="45.53919" lon="6.60252">
        <ele>643.4</ele>
        <time>2021-05-28T11:14:57Z</time>
      </trkpt>
      <trkpt lat="45.53914" lon="6.60242">
        <ele>643.2</ele>
        <time>2021-05-28T11:14:58Z</time>
      </trkpt>
      <trkpt lat="45.53909" lon="6.60231">
        <ele>643.2</ele>
        <time>2021-05-28T11:14:59Z</time>
      </trkpt>
      <trkpt lat="45.53904" lon="6.6022">
        <ele>643.2</ele>
        <time>2021-05-28T11:15:00Z</time>
      </trkpt>
      <trkpt lat="45.539" lon="6.6021">
        <ele>643</ele>
        <time>2021-05-28T11:15:01Z</time>
      </trkpt>
      <trkpt lat="45.53896" lon="6.60199">
        <ele>642.8</ele>
        <time>2021-05-28T11:15:02Z</time>
      </trkpt>
      <trkpt lat="45.53892" lon="6.60188">
        <ele>642.8</ele>
        <time>2021-05-28T11:15:03Z</time>
      </trkpt>
      <trkpt lat="45.53888" lon="6.60177">
        <ele>642.8</ele>
        <time>2021-05-28T11:15:04Z</time>
      </trkpt>
      <trkpt lat="45.53884" lon="6.60166">
        <ele>642.8</ele>
        <time>2021-05-28T11:15:05Z</time>
      </trkpt>
      <trkpt lat="45.5388" lon="6.60156">
        <ele>642.6</ele>
        <time>2021-05-28T11:15:06Z</time>
      </trkpt>
      <trkpt lat="45.53877" lon="6.60145">
        <ele>644</ele>
        <time>2021-05-28T11:15:07Z</time>
      </trkpt>
      <trkpt lat="45.53875" lon="6.60134">
        <ele>645</ele>
        <time>2021-05-28T11:15:08Z</time>
      </trkpt>
      <trkpt lat="45.53874" lon="6.60121">
        <ele>645.8</ele>
        <time>2021-05-28T11:15:09Z</time>
      </trkpt>
      <trkpt lat="45.5387" lon="6.6011">
        <ele>646.4</ele>
        <time>2021-05-28T11:15:10Z</time>
      </trkpt>
      <trkpt lat="45.53867" lon="6.60099">
        <ele>646.2</ele>
        <time>2021-05-28T11:15:11Z</time>
      </trkpt>
      <trkpt lat="45.53863" lon="6.60087">
        <ele>646.4</ele>
        <time>2021-05-28T11:15:12Z</time>
      </trkpt>
      <trkpt lat="45.53859" lon="6.60076">
        <ele>646.8</ele>
        <time>2021-05-28T11:15:13Z</time>
      </trkpt>
      <trkpt lat="45.53856" lon="6.60064">
        <ele>647</ele>
        <time>2021-05-28T11:15:14Z</time>
      </trkpt>
      <trkpt lat="45.53854" lon="6.60052">
        <ele>647</ele>
        <time>2021-05-28T11:15:15Z</time>
      </trkpt>
      <trkpt lat="45.53852" lon="6.6004">
        <ele>647</ele>
        <time>2021-05-28T11:15:16Z</time>
      </trkpt>
      <trkpt lat="45.5385" lon="6.60027">
        <ele>646.8</ele>
        <time>2021-05-28T11:15:17Z</time>
      </trkpt>
      <trkpt lat="45.53848" lon="6.60014">
        <ele>646.6</ele>
        <time>2021-05-28T11:15:18Z</time>
      </trkpt>
      <trkpt lat="45.53847" lon="6.60002">
        <ele>646.4</ele>
        <time>2021-05-28T11:15:19Z</time>
      </trkpt>
      <trkpt lat="45.53845" lon="6.59989">
        <ele>646.4</ele>
        <time>2021-05-28T11:15:20Z</time>
      </trkpt>
      <trkpt lat="45.53843" lon="6.59975">
        <ele>646.2</ele>
        <time>2021-05-28T11:15:21Z</time>
      </trkpt>
      <trkpt lat="45.53842" lon="6.59965">
        <ele>646.4</ele>
        <time>2021-05-28T11:15:22Z</time>
      </trkpt>
      <trkpt lat="45.53841" lon="6.59953">
        <ele>646.6</ele>
        <time>2021-05-28T11:15:23Z</time>
      </trkpt>
      <trkpt lat="45.5384" lon="6.59941">
        <ele>646.2</ele>
        <time>2021-05-28T11:15:24Z</time>
      </trkpt>
      <trkpt lat="45.53839" lon="6.59929">
        <ele>645.8</ele>
        <time>2021-05-28T11:15:25Z</time>
      </trkpt>
      <trkpt lat="45.53839" lon="6.59917">
        <ele>645.6</ele>
        <time>2021-05-28T11:15:26Z</time>
      </trkpt>
      <trkpt lat="45.53838" lon="6.59905">
        <ele>645.4</ele>
        <time>2021-05-28T11:15:27Z</time>
      </trkpt>
      <trkpt lat="45.53838" lon="6.59894">
        <ele>645</ele>
        <time>2021-05-28T11:15:28Z</time>
      </trkpt>
      <trkpt lat="45.53837" lon="6.59882">
        <ele>645</ele>
        <time>2021-05-28T11:15:29Z</time>
      </trkpt>
      <trkpt lat="45.53836" lon="6.59872">
        <ele>644.8</ele>
        <time>2021-05-28T11:15:30Z</time>
      </trkpt>
      <trkpt lat="45.53833" lon="6.59863">
        <ele>645</ele>
        <time>2021-05-28T11:15:31Z</time>
      </trkpt>
      <trkpt lat="45.53829" lon="6.59856">
        <ele>645</ele>
        <time>2021-05-28T11:15:32Z</time>
      </trkpt>
      <trkpt lat="45.53823" lon="6.59853">
        <ele>645</ele>
        <time>2021-05-28T11:15:33Z</time>
      </trkpt>
      <trkpt lat="45.53816" lon="6.59854">
        <ele>644.6</ele>
        <time>2021-05-28T11:15:34Z</time>
      </trkpt>
      <trkpt lat="45.53809" lon="6.59858">
        <ele>644.4</ele>
        <time>2021-05-28T11:15:35Z</time>
      </trkpt>
      <trkpt lat="45.53801" lon="6.59865">
        <ele>643.8</ele>
        <time>2021-05-28T11:15:36Z</time>
      </trkpt>
      <trkpt lat="45.53795" lon="6.59872">
        <ele>643.6</ele>
        <time>2021-05-28T11:15:37Z</time>
      </trkpt>
      <trkpt lat="45.53789" lon="6.59882">
        <ele>643.2</ele>
        <time>2021-05-28T11:15:38Z</time>
      </trkpt>
      <trkpt lat="45.53785" lon="6.59894">
        <ele>642.6</ele>
        <time>2021-05-28T11:15:39Z</time>
      </trkpt>
      <trkpt lat="45.53781" lon="6.59908">
        <ele>641.8</ele>
        <time>2021-05-28T11:15:40Z</time>
      </trkpt>
      <trkpt lat="45.5378" lon="6.59922">
        <ele>641.2</ele>
        <time>2021-05-28T11:15:41Z</time>
      </trkpt>
      <trkpt lat="45.53779" lon="6.59937">
        <ele>640.8</ele>
        <time>2021-05-28T11:15:42Z</time>
      </trkpt>
      <trkpt lat="45.53779" lon="6.59952">
        <ele>640.4</ele>
        <time>2021-05-28T11:15:43Z</time>
      </trkpt>
      <trkpt lat="45.53777" lon="6.59968">
        <ele>639.8</ele>
        <time>2021-05-28T11:15:44Z</time>
      </trkpt>
      <trkpt lat="45.53776" lon="6.59983">
        <ele>639.4</ele>
        <time>2021-05-28T11:15:45Z</time>
      </trkpt>
      <trkpt lat="45.53775" lon="6.59997">
        <ele>639</ele>
        <time>2021-05-28T11:15:46Z</time>
      </trkpt>
      <trkpt lat="45.53772" lon="6.6001">
        <ele>638.2</ele>
        <time>2021-05-28T11:15:47Z</time>
      </trkpt>
      <trkpt lat="45.53766" lon="6.60021">
        <ele>637.2</ele>
        <time>2021-05-28T11:15:48Z</time>
      </trkpt>
      <trkpt lat="45.53759" lon="6.60029">
        <ele>636.8</ele>
        <time>2021-05-28T11:15:49Z</time>
      </trkpt>
      <trkpt lat="45.53751" lon="6.60033">
        <ele>636</ele>
        <time>2021-05-28T11:15:50Z</time>
      </trkpt>
      <trkpt lat="45.53742" lon="6.60034">
        <ele>635.4</ele>
        <time>2021-05-28T11:15:51Z</time>
      </trkpt>
      <trkpt lat="45.53733" lon="6.60032">
        <ele>635</ele>
        <time>2021-05-28T11:15:52Z</time>
      </trkpt>
      <trkpt lat="45.53725" lon="6.60026">
        <ele>634.4</ele>
        <time>2021-05-28T11:15:53Z</time>
      </trkpt>
      <trkpt lat="45.53719" lon="6.60018">
        <ele>634</ele>
        <time>2021-05-28T11:15:54Z</time>
      </trkpt>
      <trkpt lat="45.53713" lon="6.60008">
        <ele>633.6</ele>
        <time>2021-05-28T11:15:55Z</time>
      </trkpt>
      <trkpt lat="45.53708" lon="6.59997">
        <ele>633.8</ele>
        <time>2021-05-28T11:15:56Z</time>
      </trkpt>
      <trkpt lat="45.53704" lon="6.59985">
        <ele>633.2</ele>
        <time>2021-05-28T11:15:57Z</time>
      </trkpt>
      <trkpt lat="45.53699" lon="6.59975">
        <ele>632.4</ele>
        <time>2021-05-28T11:15:58Z</time>
      </trkpt>
      <trkpt lat="45.53694" lon="6.59963">
        <ele>631.8</ele>
        <time>2021-05-28T11:15:59Z</time>
      </trkpt>
      <trkpt lat="45.53689" lon="6.59951">
        <ele>631</ele>
        <time>2021-05-28T11:16:00Z</time>
      </trkpt>
      <trkpt lat="45.53684" lon="6.59939">
        <ele>630.4</ele>
        <time>2021-05-28T11:16:01Z</time>
      </trkpt>
      <trkpt lat="45.53679" lon="6.59927">
        <ele>629.4</ele>
        <time>2021-05-28T11:16:02Z</time>
      </trkpt>
      <trkpt lat="45.53675" lon="6.59915">
        <ele>629</ele>
        <time>2021-05-28T11:16:03Z</time>
      </trkpt>
      <trkpt lat="45.5367" lon="6.59903">
        <ele>628.2</ele>
        <time>2021-05-28T11:16:04Z</time>
      </trkpt>
      <trkpt lat="45.53665" lon="6.59891">
        <ele>627.6</ele>
        <time>2021-05-28T11:16:05Z</time>
      </trkpt>
      <trkpt lat="45.5366" lon="6.59879">
        <ele>627.2</ele>
        <time>2021-05-28T11:16:06Z</time>
      </trkpt>
      <trkpt lat="45.53654" lon="6.59867">
        <ele>626.6</ele>
        <time>2021-05-28T11:16:07Z</time>
      </trkpt>
      <trkpt lat="45.5365" lon="6.59854">
        <ele>626.2</ele>
        <time>2021-05-28T11:16:08Z</time>
      </trkpt>
      <trkpt lat="45.53644" lon="6.59842">
        <ele>625.8</ele>
        <time>2021-05-28T11:16:09Z</time>
      </trkpt>
      <trkpt lat="45.53638" lon="6.59829">
        <ele>625.6</ele>
        <time>2021-05-28T11:16:10Z</time>
      </trkpt>
      <trkpt lat="45.53633" lon="6.59817">
        <ele>625</ele>
        <time>2021-05-28T11:16:11Z</time>
      </trkpt>
      <trkpt lat="45.53627" lon="6.59804">
        <ele>624.2</ele>
        <time>2021-05-28T11:16:12Z</time>
      </trkpt>
      <trkpt lat="45.53621" lon="6.59792">
        <ele>623.8</ele>
        <time>2021-05-28T11:16:13Z</time>
      </trkpt>
      <trkpt lat="45.53615" lon="6.5978">
        <ele>623</ele>
        <time>2021-05-28T11:16:14Z</time>
      </trkpt>
      <trkpt lat="45.53608" lon="6.59769">
        <ele>622.6</ele>
        <time>2021-05-28T11:16:15Z</time>
      </trkpt>
      <trkpt lat="45.53602" lon="6.59757">
        <ele>621</ele>
        <time>2021-05-28T11:16:16Z</time>
      </trkpt>
      <trkpt lat="45.53595" lon="6.59746">
        <ele>620.6</ele>
        <time>2021-05-28T11:16:17Z</time>
      </trkpt>
      <trkpt lat="45.53587" lon="6.59734">
        <ele>620.2</ele>
        <time>2021-05-28T11:16:18Z</time>
      </trkpt>
      <trkpt lat="45.5358" lon="6.59723">
        <ele>619</ele>
        <time>2021-05-28T11:16:19Z</time>
      </trkpt>
      <trkpt lat="45.53572" lon="6.59711">
        <ele>618.2</ele>
        <time>2021-05-28T11:16:20Z</time>
      </trkpt>
      <trkpt lat="45.53565" lon="6.59699">
        <ele>617.6</ele>
        <time>2021-05-28T11:16:21Z</time>
      </trkpt>
      <trkpt lat="45.53557" lon="6.59687">
        <ele>616.6</ele>
        <time>2021-05-28T11:16:22Z</time>
      </trkpt>
      <trkpt lat="45.5355" lon="6.59675">
        <ele>616.2</ele>
        <time>2021-05-28T11:16:23Z</time>
      </trkpt>
      <trkpt lat="45.53543" lon="6.59662">
        <ele>615.6</ele>
        <time>2021-05-28T11:16:24Z</time>
      </trkpt>
      <trkpt lat="45.53536" lon="6.59649">
        <ele>615.2</ele>
        <time>2021-05-28T11:16:25Z</time>
      </trkpt>
      <trkpt lat="45.5353" lon="6.59636">
        <ele>614.2</ele>
        <time>2021-05-28T11:16:26Z</time>
      </trkpt>
      <trkpt lat="45.53524" lon="6.59622">
        <ele>613.4</ele>
        <time>2021-05-28T11:16:27Z</time>
      </trkpt>
      <trkpt lat="45.53519" lon="6.59608">
        <ele>612.8</ele>
        <time>2021-05-28T11:16:28Z</time>
      </trkpt>
      <trkpt lat="45.53515" lon="6.59593">
        <ele>611.8</ele>
        <time>2021-05-28T11:16:29Z</time>
      </trkpt>
      <trkpt lat="45.53511" lon="6.59579">
        <ele>611.6</ele>
        <time>2021-05-28T11:16:30Z</time>
      </trkpt>
      <trkpt lat="45.53508" lon="6.59564">
        <ele>610.8</ele>
        <time>2021-05-28T11:16:31Z</time>
      </trkpt>
      <trkpt lat="45.53505" lon="6.5955">
        <ele>609</ele>
        <time>2021-05-28T11:16:32Z</time>
      </trkpt>
      <trkpt lat="45.53502" lon="6.59536">
        <ele>608</ele>
        <time>2021-05-28T11:16:33Z</time>
      </trkpt>
      <trkpt lat="45.535" lon="6.59523">
        <ele>607.6</ele>
        <time>2021-05-28T11:16:34Z</time>
      </trkpt>
      <trkpt lat="45.53498" lon="6.59512">
        <ele>607</ele>
        <time>2021-05-28T11:16:35Z</time>
      </trkpt>
      <trkpt lat="45.53497" lon="6.59502">
        <ele>606.4</ele>
        <time>2021-05-28T11:16:36Z</time>
      </trkpt>
      <trkpt lat="45.53495" lon="6.59493">
        <ele>605.8</ele>
        <time>2021-05-28T11:16:37Z</time>
      </trkpt>
      <trkpt lat="45.53495" lon="6.59487">
        <ele>605.4</ele>
        <time>2021-05-28T11:16:38Z</time>
      </trkpt>
      <trkpt lat="45.53494" lon="6.59482">
        <ele>605</ele>
        <time>2021-05-28T11:16:39Z</time>
      </trkpt>
      <trkpt lat="45.53493" lon="6.5948">
        <ele>604.8</ele>
        <time>2021-05-28T11:16:40Z</time>
      </trkpt>
      <trkpt lat="45.53491" lon="6.59477">
        <ele>604</ele>
        <time>2021-05-28T11:16:41Z</time>
      </trkpt>
      <trkpt lat="45.53489" lon="6.59475">
        <ele>603.6</ele>
        <time>2021-05-28T11:16:42Z</time>
      </trkpt>
      <trkpt lat="45.53486" lon="6.59474">
        <ele>603</ele>
        <time>2021-05-28T11:16:43Z</time>
      </trkpt>
      <trkpt lat="45.53482" lon="6.59475">
        <ele>602.8</ele>
        <time>2021-05-28T11:16:44Z</time>
      </trkpt>
      <trkpt lat="45.53477" lon="6.59477">
        <ele>602.8</ele>
        <time>2021-05-28T11:16:45Z</time>
      </trkpt>
      <trkpt lat="45.53473" lon="6.59478">
        <ele>603</ele>
        <time>2021-05-28T11:16:46Z</time>
      </trkpt>
      <trkpt lat="45.53468" lon="6.5948">
        <ele>603.4</ele>
        <time>2021-05-28T11:16:47Z</time>
      </trkpt>
      <trkpt lat="45.53463" lon="6.5948">
        <ele>602.8</ele>
        <time>2021-05-28T11:16:48Z</time>
      </trkpt>
      <trkpt lat="45.53456" lon="6.59478">
        <ele>602.6</ele>
        <time>2021-05-28T11:16:49Z</time>
      </trkpt>
      <trkpt lat="45.5345" lon="6.59472">
        <ele>601.6</ele>
        <time>2021-05-28T11:16:50Z</time>
      </trkpt>
      <trkpt lat="45.53447" lon="6.59464">
        <ele>600.8</ele>
        <time>2021-05-28T11:16:51Z</time>
      </trkpt>
      <trkpt lat="45.53444" lon="6.59456">
        <ele>600.4</ele>
        <time>2021-05-28T11:16:52Z</time>
      </trkpt>
      <trkpt lat="45.53442" lon="6.59447">
        <ele>599.8</ele>
        <time>2021-05-28T11:16:53Z</time>
      </trkpt>
      <trkpt lat="45.53439" lon="6.59438">
        <ele>599.2</ele>
        <time>2021-05-28T11:16:54Z</time>
      </trkpt>
      <trkpt lat="45.53437" lon="6.59429">
        <ele>598.6</ele>
        <time>2021-05-28T11:16:55Z</time>
      </trkpt>
      <trkpt lat="45.53434" lon="6.5942">
        <ele>598.2</ele>
        <time>2021-05-28T11:16:56Z</time>
      </trkpt>
      <trkpt lat="45.53431" lon="6.59411">
        <ele>597.2</ele>
        <time>2021-05-28T11:16:57Z</time>
      </trkpt>
      <trkpt lat="45.53428" lon="6.59402">
        <ele>597</ele>
        <time>2021-05-28T11:16:58Z</time>
      </trkpt>
      <trkpt lat="45.53425" lon="6.59394">
        <ele>597.4</ele>
        <time>2021-05-28T11:16:59Z</time>
      </trkpt>
      <trkpt lat="45.53422" lon="6.59385">
        <ele>597.2</ele>
        <time>2021-05-28T11:17:00Z</time>
      </trkpt>
      <trkpt lat="45.53418" lon="6.59377">
        <ele>597.2</ele>
        <time>2021-05-28T11:17:01Z</time>
      </trkpt>
      <trkpt lat="45.53415" lon="6.59369">
        <ele>597.4</ele>
        <time>2021-05-28T11:17:02Z</time>
      </trkpt>
      <trkpt lat="45.53411" lon="6.59361">
        <ele>596.8</ele>
        <time>2021-05-28T11:17:03Z</time>
      </trkpt>
      <trkpt lat="45.53407" lon="6.59352">
        <ele>596.6</ele>
        <time>2021-05-28T11:17:04Z</time>
      </trkpt>
      <trkpt lat="45.53403" lon="6.59344">
        <ele>596.8</ele>
        <time>2021-05-28T11:17:05Z</time>
      </trkpt>
      <trkpt lat="45.53398" lon="6.59337">
        <ele>596.8</ele>
        <time>2021-05-28T11:17:06Z</time>
      </trkpt>
      <trkpt lat="45.53393" lon="6.59329">
        <ele>596.6</ele>
        <time>2021-05-28T11:17:07Z</time>
      </trkpt>
      <trkpt lat="45.53388" lon="6.59321">
        <ele>596.8</ele>
        <time>2021-05-28T11:17:08Z</time>
      </trkpt>
      <trkpt lat="45.53384" lon="6.59313">
        <ele>596.6</ele>
        <time>2021-05-28T11:17:09Z</time>
      </trkpt>
      <trkpt lat="45.53379" lon="6.59305">
        <ele>596.4</ele>
        <time>2021-05-28T11:17:10Z</time>
      </trkpt>
      <trkpt lat="45.53373" lon="6.59297">
        <ele>597</ele>
        <time>2021-05-28T11:17:11Z</time>
      </trkpt>
      <trkpt lat="45.53369" lon="6.59288">
        <ele>597.8</ele>
        <time>2021-05-28T11:17:12Z</time>
      </trkpt>
      <trkpt lat="45.53364" lon="6.59279">
        <ele>598.4</ele>
        <time>2021-05-28T11:17:13Z</time>
      </trkpt>
      <trkpt lat="45.53358" lon="6.59271">
        <ele>598.6</ele>
        <time>2021-05-28T11:17:14Z</time>
      </trkpt>
      <trkpt lat="45.53353" lon="6.59263">
        <ele>598.6</ele>
        <time>2021-05-28T11:17:15Z</time>
      </trkpt>
      <trkpt lat="45.53347" lon="6.59255">
        <ele>598.8</ele>
        <time>2021-05-28T11:17:16Z</time>
      </trkpt>
      <trkpt lat="45.5334" lon="6.59248">
        <ele>599</ele>
        <time>2021-05-28T11:17:17Z</time>
      </trkpt>
      <trkpt lat="45.53333" lon="6.59241">
        <ele>599</ele>
        <time>2021-05-28T11:17:18Z</time>
      </trkpt>
      <trkpt lat="45.53326" lon="6.59234">
        <ele>599</ele>
        <time>2021-05-28T11:17:19Z</time>
      </trkpt>
      <trkpt lat="45.53317" lon="6.59228">
        <ele>598.8</ele>
        <time>2021-05-28T11:17:20Z</time>
      </trkpt>
      <trkpt lat="45.53308" lon="6.59222">
        <ele>598.6</ele>
        <time>2021-05-28T11:17:21Z</time>
      </trkpt>
      <trkpt lat="45.53298" lon="6.59217">
        <ele>598.4</ele>
        <time>2021-05-28T11:17:22Z</time>
      </trkpt>
      <trkpt lat="45.53289" lon="6.59211">
        <ele>598.2</ele>
        <time>2021-05-28T11:17:23Z</time>
      </trkpt>
      <trkpt lat="45.53278" lon="6.59205">
        <ele>597.8</ele>
        <time>2021-05-28T11:17:24Z</time>
      </trkpt>
      <trkpt lat="45.53268" lon="6.592">
        <ele>597.2</ele>
        <time>2021-05-28T11:17:25Z</time>
      </trkpt>
      <trkpt lat="45.53258" lon="6.59193">
        <ele>596.4</ele>
        <time>2021-05-28T11:17:26Z</time>
      </trkpt>
      <trkpt lat="45.53248" lon="6.59187">
        <ele>596.2</ele>
        <time>2021-05-28T11:17:27Z</time>
      </trkpt>
      <trkpt lat="45.53238" lon="6.5918">
        <ele>595.8</ele>
        <time>2021-05-28T11:17:28Z</time>
      </trkpt>
      <trkpt lat="45.53229" lon="6.59172">
        <ele>595.2</ele>
        <time>2021-05-28T11:17:29Z</time>
      </trkpt>
      <trkpt lat="45.5322" lon="6.59164">
        <ele>594.8</ele>
        <time>2021-05-28T11:17:30Z</time>
      </trkpt>
      <trkpt lat="45.53211" lon="6.59157">
        <ele>594.6</ele>
        <time>2021-05-28T11:17:31Z</time>
      </trkpt>
      <trkpt lat="45.53202" lon="6.59149">
        <ele>594.4</ele>
        <time>2021-05-28T11:17:32Z</time>
      </trkpt>
      <trkpt lat="45.53194" lon="6.5914">
        <ele>594.6</ele>
        <time>2021-05-28T11:17:33Z</time>
      </trkpt>
      <trkpt lat="45.53186" lon="6.59131">
        <ele>594.4</ele>
        <time>2021-05-28T11:17:34Z</time>
      </trkpt>
      <trkpt lat="45.53179" lon="6.59123">
        <ele>594</ele>
        <time>2021-05-28T11:17:35Z</time>
      </trkpt>
      <trkpt lat="45.53172" lon="6.59115">
        <ele>593.4</ele>
        <time>2021-05-28T11:17:36Z</time>
      </trkpt>
      <trkpt lat="45.53165" lon="6.59106">
        <ele>593</ele>
        <time>2021-05-28T11:17:37Z</time>
      </trkpt>
      <trkpt lat="45.53158" lon="6.59098">
        <ele>592.8</ele>
        <time>2021-05-28T11:17:38Z</time>
      </trkpt>
      <trkpt lat="45.53152" lon="6.5909">
        <ele>593</ele>
        <time>2021-05-28T11:17:39Z</time>
      </trkpt>
      <trkpt lat="45.53146" lon="6.59082">
        <ele>592.8</ele>
        <time>2021-05-28T11:17:40Z</time>
      </trkpt>
      <trkpt lat="45.5314" lon="6.59074">
        <ele>592.6</ele>
        <time>2021-05-28T11:17:41Z</time>
      </trkpt>
      <trkpt lat="45.53133" lon="6.59067">
        <ele>592</ele>
        <time>2021-05-28T11:17:42Z</time>
      </trkpt>
      <trkpt lat="45.53126" lon="6.59061">
        <ele>592</ele>
        <time>2021-05-28T11:17:43Z</time>
      </trkpt>
      <trkpt lat="45.53119" lon="6.59054">
        <ele>592</ele>
        <time>2021-05-28T11:17:44Z</time>
      </trkpt>
      <trkpt lat="45.53113" lon="6.59046">
        <ele>592.2</ele>
        <time>2021-05-28T11:17:45Z</time>
      </trkpt>
      <trkpt lat="45.53107" lon="6.59038">
        <ele>592.4</ele>
        <time>2021-05-28T11:17:46Z</time>
      </trkpt>
      <trkpt lat="45.531" lon="6.5903">
        <ele>592.4</ele>
        <time>2021-05-28T11:17:47Z</time>
      </trkpt>
      <trkpt lat="45.53093" lon="6.59023">
        <ele>592.4</ele>
        <time>2021-05-28T11:17:48Z</time>
      </trkpt>
      <trkpt lat="45.53086" lon="6.59016">
        <ele>592.2</ele>
        <time>2021-05-28T11:17:49Z</time>
      </trkpt>
      <trkpt lat="45.53078" lon="6.59009">
        <ele>592.2</ele>
        <time>2021-05-28T11:17:50Z</time>
      </trkpt>
      <trkpt lat="45.53071" lon="6.59003">
        <ele>592.2</ele>
        <time>2021-05-28T11:17:51Z</time>
      </trkpt>
      <trkpt lat="45.53062" lon="6.58997">
        <ele>592.2</ele>
        <time>2021-05-28T11:17:52Z</time>
      </trkpt>
      <trkpt lat="45.53054" lon="6.58992">
        <ele>591.6</ele>
        <time>2021-05-28T11:17:53Z</time>
      </trkpt>
      <trkpt lat="45.53044" lon="6.58988">
        <ele>590.8</ele>
        <time>2021-05-28T11:17:54Z</time>
      </trkpt>
      <trkpt lat="45.53035" lon="6.58985">
        <ele>590.6</ele>
        <time>2021-05-28T11:17:55Z</time>
      </trkpt>
      <trkpt lat="45.53025" lon="6.58982">
        <ele>590.2</ele>
        <time>2021-05-28T11:17:56Z</time>
      </trkpt>
      <trkpt lat="45.53016" lon="6.58979">
        <ele>589.6</ele>
        <time>2021-05-28T11:17:57Z</time>
      </trkpt>
      <trkpt lat="45.53007" lon="6.58976">
        <ele>589.6</ele>
        <time>2021-05-28T11:17:58Z</time>
      </trkpt>
      <trkpt lat="45.52998" lon="6.58972">
        <ele>589.4</ele>
        <time>2021-05-28T11:17:59Z</time>
      </trkpt>
      <trkpt lat="45.52989" lon="6.58967">
        <ele>589</ele>
        <time>2021-05-28T11:18:00Z</time>
      </trkpt>
      <trkpt lat="45.52981" lon="6.58961">
        <ele>588.8</ele>
        <time>2021-05-28T11:18:01Z</time>
      </trkpt>
      <trkpt lat="45.52973" lon="6.58953">
        <ele>588.4</ele>
        <time>2021-05-28T11:18:02Z</time>
      </trkpt>
      <trkpt lat="45.52967" lon="6.58945">
        <ele>588.4</ele>
        <time>2021-05-28T11:18:03Z</time>
      </trkpt>
      <trkpt lat="45.52961" lon="6.58935">
        <ele>588</ele>
        <time>2021-05-28T11:18:04Z</time>
      </trkpt>
      <trkpt lat="45.52956" lon="6.58926">
        <ele>587.6</ele>
        <time>2021-05-28T11:18:05Z</time>
      </trkpt>
      <trkpt lat="45.52951" lon="6.58916">
        <ele>587.2</ele>
        <time>2021-05-28T11:18:06Z</time>
      </trkpt>
      <trkpt lat="45.52947" lon="6.58906">
        <ele>587.2</ele>
        <time>2021-05-28T11:18:07Z</time>
      </trkpt>
      <trkpt lat="45.52943" lon="6.58895">
        <ele>587.4</ele>
        <time>2021-05-28T11:18:08Z</time>
      </trkpt>
      <trkpt lat="45.5294" lon="6.58884">
        <ele>587.6</ele>
        <time>2021-05-28T11:18:09Z</time>
      </trkpt>
      <trkpt lat="45.52938" lon="6.58872">
        <ele>587.6</ele>
        <time>2021-05-28T11:18:10Z</time>
      </trkpt>
      <trkpt lat="45.52935" lon="6.58861">
        <ele>587</ele>
        <time>2021-05-28T11:18:11Z</time>
      </trkpt>
      <trkpt lat="45.52933" lon="6.5885">
        <ele>586.6</ele>
        <time>2021-05-28T11:18:12Z</time>
      </trkpt>
      <trkpt lat="45.52931" lon="6.58839">
        <ele>586.6</ele>
        <time>2021-05-28T11:18:13Z</time>
      </trkpt>
      <trkpt lat="45.52928" lon="6.58829">
        <ele>586.4</ele>
        <time>2021-05-28T11:18:14Z</time>
      </trkpt>
      <trkpt lat="45.52924" lon="6.5882">
        <ele>586.4</ele>
        <time>2021-05-28T11:18:15Z</time>
      </trkpt>
      <trkpt lat="45.52921" lon="6.5881">
        <ele>586.4</ele>
        <time>2021-05-28T11:18:16Z</time>
      </trkpt>
      <trkpt lat="45.52917" lon="6.58802">
        <ele>586.4</ele>
        <time>2021-05-28T11:18:17Z</time>
      </trkpt>
      <trkpt lat="45.52912" lon="6.58794">
        <ele>586.4</ele>
        <time>2021-05-28T11:18:18Z</time>
      </trkpt>
      <trkpt lat="45.52907" lon="6.58787">
        <ele>586.2</ele>
        <time>2021-05-28T11:18:19Z</time>
      </trkpt>
      <trkpt lat="45.52902" lon="6.5878">
        <ele>586.2</ele>
        <time>2021-05-28T11:18:20Z</time>
      </trkpt>
      <trkpt lat="45.52897" lon="6.58774">
        <ele>586</ele>
        <time>2021-05-28T11:18:21Z</time>
      </trkpt>
      <trkpt lat="45.52892" lon="6.58768">
        <ele>586.2</ele>
        <time>2021-05-28T11:18:22Z</time>
      </trkpt>
      <trkpt lat="45.52887" lon="6.58761">
        <ele>586.6</ele>
        <time>2021-05-28T11:18:23Z</time>
      </trkpt>
      <trkpt lat="45.52882" lon="6.58754">
        <ele>587</ele>
        <time>2021-05-28T11:18:24Z</time>
      </trkpt>
      <trkpt lat="45.52878" lon="6.58747">
        <ele>587.4</ele>
        <time>2021-05-28T11:18:25Z</time>
      </trkpt>
      <trkpt lat="45.52873" lon="6.5874">
        <ele>587.6</ele>
        <time>2021-05-28T11:18:26Z</time>
      </trkpt>
      <trkpt lat="45.52868" lon="6.58734">
        <ele>588.2</ele>
        <time>2021-05-28T11:18:27Z</time>
      </trkpt>
      <trkpt lat="45.52862" lon="6.58727">
        <ele>588</ele>
        <time>2021-05-28T11:18:28Z</time>
      </trkpt>
      <trkpt lat="45.52856" lon="6.58721">
        <ele>587.2</ele>
        <time>2021-05-28T11:18:29Z</time>
      </trkpt>
      <trkpt lat="45.5285" lon="6.58716">
        <ele>586.6</ele>
        <time>2021-05-28T11:18:30Z</time>
      </trkpt>
      <trkpt lat="45.52844" lon="6.58711">
        <ele>586</ele>
        <time>2021-05-28T11:18:31Z</time>
      </trkpt>
      <trkpt lat="45.52837" lon="6.58706">
        <ele>585.6</ele>
        <time>2021-05-28T11:18:32Z</time>
      </trkpt>
      <trkpt lat="45.5283" lon="6.58701">
        <ele>584.8</ele>
        <time>2021-05-28T11:18:33Z</time>
      </trkpt>
      <trkpt lat="45.52824" lon="6.58696">
        <ele>584.4</ele>
        <time>2021-05-28T11:18:34Z</time>
      </trkpt>
      <trkpt lat="45.52817" lon="6.58692">
        <ele>583.6</ele>
        <time>2021-05-28T11:18:35Z</time>
      </trkpt>
      <trkpt lat="45.5281" lon="6.58687">
        <ele>583.2</ele>
        <time>2021-05-28T11:18:36Z</time>
      </trkpt>
      <trkpt lat="45.52802" lon="6.58682">
        <ele>583</ele>
        <time>2021-05-28T11:18:37Z</time>
      </trkpt>
      <trkpt lat="45.52795" lon="6.58678">
        <ele>582.4</ele>
        <time>2021-05-28T11:18:38Z</time>
      </trkpt>
      <trkpt lat="45.52788" lon="6.58673">
        <ele>582</ele>
        <time>2021-05-28T11:18:39Z</time>
      </trkpt>
      <trkpt lat="45.52782" lon="6.58668">
        <ele>582.2</ele>
        <time>2021-05-28T11:18:40Z</time>
      </trkpt>
      <trkpt lat="45.52775" lon="6.58663">
        <ele>582</ele>
        <time>2021-05-28T11:18:41Z</time>
      </trkpt>
      <trkpt lat="45.52768" lon="6.58658">
        <ele>582.6</ele>
        <time>2021-05-28T11:18:42Z</time>
      </trkpt>
      <trkpt lat="45.52762" lon="6.58652">
        <ele>582.2</ele>
        <time>2021-05-28T11:18:43Z</time>
      </trkpt>
      <trkpt lat="45.52755" lon="6.58645">
        <ele>582</ele>
        <time>2021-05-28T11:18:44Z</time>
      </trkpt>
      <trkpt lat="45.5275" lon="6.58638">
        <ele>581.2</ele>
        <time>2021-05-28T11:18:45Z</time>
      </trkpt>
      <trkpt lat="45.52745" lon="6.5863">
        <ele>581</ele>
        <time>2021-05-28T11:18:46Z</time>
      </trkpt>
      <trkpt lat="45.52739" lon="6.58621">
        <ele>580.6</ele>
        <time>2021-05-28T11:18:47Z</time>
      </trkpt>
      <trkpt lat="45.52735" lon="6.58612">
        <ele>580.2</ele>
        <time>2021-05-28T11:18:48Z</time>
      </trkpt>
      <trkpt lat="45.52731" lon="6.58602">
        <ele>580.6</ele>
        <time>2021-05-28T11:18:49Z</time>
      </trkpt>
      <trkpt lat="45.52727" lon="6.58592">
        <ele>580.4</ele>
        <time>2021-05-28T11:18:50Z</time>
      </trkpt>
      <trkpt lat="45.52723" lon="6.58582">
        <ele>580.2</ele>
        <time>2021-05-28T11:18:51Z</time>
      </trkpt>
      <trkpt lat="45.52719" lon="6.58572">
        <ele>580.2</ele>
        <time>2021-05-28T11:18:52Z</time>
      </trkpt>
      <trkpt lat="45.52715" lon="6.58562">
        <ele>580</ele>
        <time>2021-05-28T11:18:53Z</time>
      </trkpt>
      <trkpt lat="45.52712" lon="6.58552">
        <ele>579.8</ele>
        <time>2021-05-28T11:18:54Z</time>
      </trkpt>
      <trkpt lat="45.52708" lon="6.58542">
        <ele>579.6</ele>
        <time>2021-05-28T11:18:55Z</time>
      </trkpt>
      <trkpt lat="45.52704" lon="6.58532">
        <ele>579.6</ele>
        <time>2021-05-28T11:18:56Z</time>
      </trkpt>
      <trkpt lat="45.52701" lon="6.58522">
        <ele>579.4</ele>
        <time>2021-05-28T11:18:57Z</time>
      </trkpt>
      <trkpt lat="45.52697" lon="6.58512">
        <ele>579.2</ele>
        <time>2021-05-28T11:18:58Z</time>
      </trkpt>
      <trkpt lat="45.52693" lon="6.58502">
        <ele>579.4</ele>
        <time>2021-05-28T11:18:59Z</time>
      </trkpt>
      <trkpt lat="45.52689" lon="6.58493">
        <ele>579.6</ele>
        <time>2021-05-28T11:19:00Z</time>
      </trkpt>
      <trkpt lat="45.52684" lon="6.58483">
        <ele>579.8</ele>
        <time>2021-05-28T11:19:01Z</time>
      </trkpt>
      <trkpt lat="45.5268" lon="6.58474">
        <ele>579.8</ele>
        <time>2021-05-28T11:19:02Z</time>
      </trkpt>
      <trkpt lat="45.52675" lon="6.58465">
        <ele>581</ele>
        <time>2021-05-28T11:19:03Z</time>
      </trkpt>
      <trkpt lat="45.5267" lon="6.58457">
        <ele>582.4</ele>
        <time>2021-05-28T11:19:04Z</time>
      </trkpt>
      <trkpt lat="45.52665" lon="6.58449">
        <ele>583.4</ele>
        <time>2021-05-28T11:19:05Z</time>
      </trkpt>
      <trkpt lat="45.5266" lon="6.5844">
        <ele>584</ele>
        <time>2021-05-28T11:19:06Z</time>
      </trkpt>
      <trkpt lat="45.52654" lon="6.58432">
        <ele>584</ele>
        <time>2021-05-28T11:19:07Z</time>
      </trkpt>
      <trkpt lat="45.52648" lon="6.58424">
        <ele>584.2</ele>
        <time>2021-05-28T11:19:08Z</time>
      </trkpt>
      <trkpt lat="45.52643" lon="6.58417">
        <ele>584.4</ele>
        <time>2021-05-28T11:19:09Z</time>
      </trkpt>
      <trkpt lat="45.52636" lon="6.58411">
        <ele>584.6</ele>
        <time>2021-05-28T11:19:10Z</time>
      </trkpt>
      <trkpt lat="45.5263" lon="6.58404">
        <ele>584.8</ele>
        <time>2021-05-28T11:19:11Z</time>
      </trkpt>
      <trkpt lat="45.52623" lon="6.58398">
        <ele>584.8</ele>
        <time>2021-05-28T11:19:12Z</time>
      </trkpt>
      <trkpt lat="45.52617" lon="6.58392">
        <ele>584.8</ele>
        <time>2021-05-28T11:19:13Z</time>
      </trkpt>
      <trkpt lat="45.5261" lon="6.58386">
        <ele>584.4</ele>
        <time>2021-05-28T11:19:14Z</time>
      </trkpt>
      <trkpt lat="45.52603" lon="6.5838">
        <ele>584.6</ele>
        <time>2021-05-28T11:19:15Z</time>
      </trkpt>
      <trkpt lat="45.52596" lon="6.58374">
        <ele>584.4</ele>
        <time>2021-05-28T11:19:16Z</time>
      </trkpt>
      <trkpt lat="45.5259" lon="6.58368">
        <ele>584.2</ele>
        <time>2021-05-28T11:19:17Z</time>
      </trkpt>
      <trkpt lat="45.52583" lon="6.58362">
        <ele>584</ele>
        <time>2021-05-28T11:19:18Z</time>
      </trkpt>
      <trkpt lat="45.52577" lon="6.58355">
        <ele>583.8</ele>
        <time>2021-05-28T11:19:19Z</time>
      </trkpt>
      <trkpt lat="45.5257" lon="6.58349">
        <ele>583.8</ele>
        <time>2021-05-28T11:19:20Z</time>
      </trkpt>
      <trkpt lat="45.52564" lon="6.58343">
        <ele>583.8</ele>
        <time>2021-05-28T11:19:21Z</time>
      </trkpt>
      <trkpt lat="45.52557" lon="6.58336">
        <ele>583.8</ele>
        <time>2021-05-28T11:19:22Z</time>
      </trkpt>
      <trkpt lat="45.52551" lon="6.5833">
        <ele>583.6</ele>
        <time>2021-05-28T11:19:23Z</time>
      </trkpt>
      <trkpt lat="45.52545" lon="6.58324">
        <ele>583.4</ele>
        <time>2021-05-28T11:19:24Z</time>
      </trkpt>
      <trkpt lat="45.52538" lon="6.58317">
        <ele>583</ele>
        <time>2021-05-28T11:19:25Z</time>
      </trkpt>
      <trkpt lat="45.52532" lon="6.5831">
        <ele>582.8</ele>
        <time>2021-05-28T11:19:26Z</time>
      </trkpt>
      <trkpt lat="45.52526" lon="6.58303">
        <ele>583</ele>
        <time>2021-05-28T11:19:27Z</time>
      </trkpt>
      <trkpt lat="45.52522" lon="6.58295">
        <ele>582.8</ele>
        <time>2021-05-28T11:19:28Z</time>
      </trkpt>
      <trkpt lat="45.52518" lon="6.58286">
        <ele>582.6</ele>
        <time>2021-05-28T11:19:29Z</time>
      </trkpt>
      <trkpt lat="45.52516" lon="6.58276">
        <ele>583</ele>
        <time>2021-05-28T11:19:30Z</time>
      </trkpt>
      <trkpt lat="45.52512" lon="6.58267">
        <ele>583.2</ele>
        <time>2021-05-28T11:19:31Z</time>
      </trkpt>
      <trkpt lat="45.52509" lon="6.58258">
        <ele>583.6</ele>
        <time>2021-05-28T11:19:32Z</time>
      </trkpt>
      <trkpt lat="45.52507" lon="6.58249">
        <ele>583.6</ele>
        <time>2021-05-28T11:19:33Z</time>
      </trkpt>
      <trkpt lat="45.52505" lon="6.5824">
        <ele>583.4</ele>
        <time>2021-05-28T11:19:34Z</time>
      </trkpt>
      <trkpt lat="45.52504" lon="6.58231">
        <ele>583.4</ele>
        <time>2021-05-28T11:19:35Z</time>
      </trkpt>
      <trkpt lat="45.52506" lon="6.58222">
        <ele>583.4</ele>
        <time>2021-05-28T11:19:36Z</time>
      </trkpt>
      <trkpt lat="45.52508" lon="6.58215">
        <ele>583.2</ele>
        <time>2021-05-28T11:19:37Z</time>
      </trkpt>
      <trkpt lat="45.52511" lon="6.5821">
        <ele>583.2</ele>
        <time>2021-05-28T11:19:38Z</time>
      </trkpt>
      <trkpt lat="45.52514" lon="6.58207">
        <ele>583.2</ele>
        <time>2021-05-28T11:19:39Z</time>
      </trkpt>
      <trkpt lat="45.52518" lon="6.58209">
        <ele>583.2</ele>
        <time>2021-05-28T11:19:40Z</time>
      </trkpt>
      <trkpt lat="45.52522" lon="6.58212">
        <ele>583.4</ele>
        <time>2021-05-28T11:19:41Z</time>
      </trkpt>
      <trkpt lat="45.52525" lon="6.58218">
        <ele>583.6</ele>
        <time>2021-05-28T11:19:42Z</time>
      </trkpt>
      <trkpt lat="45.5253" lon="6.58226">
        <ele>583.8</ele>
        <time>2021-05-28T11:19:43Z</time>
      </trkpt>
      <trkpt lat="45.52532" lon="6.58233">
        <ele>583.8</ele>
        <time>2021-05-28T11:19:44Z</time>
      </trkpt>
      <trkpt lat="45.52535" lon="6.58239">
        <ele>583.6</ele>
        <time>2021-05-28T11:19:45Z</time>
      </trkpt>
      <trkpt lat="45.52537" lon="6.58245">
        <ele>583.6</ele>
        <time>2021-05-28T11:19:46Z</time>
      </trkpt>
      <trkpt lat="45.5254" lon="6.5825">
        <ele>583.6</ele>
        <time>2021-05-28T11:19:47Z</time>
      </trkpt>
      <trkpt lat="45.52542" lon="6.58255">
        <ele>583.8</ele>
        <time>2021-05-28T11:19:48Z</time>
      </trkpt>
      <trkpt lat="45.52545" lon="6.58261">
        <ele>583.8</ele>
        <time>2021-05-28T11:19:49Z</time>
      </trkpt>
      <trkpt lat="45.52548" lon="6.58266">
        <ele>583.8</ele>
        <time>2021-05-28T11:19:50Z</time>
      </trkpt>
      <trkpt lat="45.52549" lon="6.5827">
        <ele>584</ele>
        <time>2021-05-28T11:19:51Z</time>
      </trkpt>
      <trkpt lat="45.52552" lon="6.58276">
        <ele>584.2</ele>
        <time>2021-05-28T11:19:52Z</time>
      </trkpt>
      <trkpt lat="45.52554" lon="6.5828">
        <ele>584.4</ele>
        <time>2021-05-28T11:19:53Z</time>
      </trkpt>
      <trkpt lat="45.52557" lon="6.58284">
        <ele>584.6</ele>
        <time>2021-05-28T11:19:54Z</time>
      </trkpt>
      <trkpt lat="45.52562" lon="6.58287">
        <ele>584.6</ele>
        <time>2021-05-28T11:19:55Z</time>
      </trkpt>
      <trkpt lat="45.52565" lon="6.58291">
        <ele>584.8</ele>
        <time>2021-05-28T11:19:56Z</time>
      </trkpt>
      <trkpt lat="45.52569" lon="6.58293">
        <ele>585.2</ele>
        <time>2021-05-28T11:19:57Z</time>
      </trkpt>
      <trkpt lat="45.52573" lon="6.58296">
        <ele>585.2</ele>
        <time>2021-05-28T11:19:58Z</time>
      </trkpt>
      <trkpt lat="45.52576" lon="6.58298">
        <ele>585.2</ele>
        <time>2021-05-28T11:19:59Z</time>
      </trkpt>
      <trkpt lat="45.52579" lon="6.58301">
        <ele>585.2</ele>
        <time>2021-05-28T11:20:00Z</time>
      </trkpt>
      <trkpt lat="45.52582" lon="6.58303">
        <ele>585.4</ele>
        <time>2021-05-28T11:20:01Z</time>
      </trkpt>
      <trkpt lat="45.52585" lon="6.58305">
        <ele>585.6</ele>
        <time>2021-05-28T11:20:02Z</time>
      </trkpt>
      <trkpt lat="45.52588" lon="6.58307">
        <ele>586</ele>
        <time>2021-05-28T11:20:03Z</time>
      </trkpt>
      <trkpt lat="45.52591" lon="6.58309">
        <ele>586.4</ele>
        <time>2021-05-28T11:20:04Z</time>
      </trkpt>
      <trkpt lat="45.52595" lon="6.5831">
        <ele>587</ele>
        <time>2021-05-28T11:20:05Z</time>
      </trkpt>
      <trkpt lat="45.52598" lon="6.58312">
        <ele>587.2</ele>
        <time>2021-05-28T11:20:06Z</time>
      </trkpt>
      <trkpt lat="45.52602" lon="6.58313">
        <ele>587.6</ele>
        <time>2021-05-28T11:20:07Z</time>
      </trkpt>
      <trkpt lat="45.52605" lon="6.58315">
        <ele>587.6</ele>
        <time>2021-05-28T11:20:08Z</time>
      </trkpt>
      <trkpt lat="45.52609" lon="6.58316">
        <ele>588</ele>
        <time>2021-05-28T11:20:09Z</time>
      </trkpt>
      <trkpt lat="45.52612" lon="6.58317">
        <ele>588.2</ele>
        <time>2021-05-28T11:20:10Z</time>
      </trkpt>
      <trkpt lat="45.52616" lon="6.58319">
        <ele>588.4</ele>
        <time>2021-05-28T11:20:11Z</time>
      </trkpt>
      <trkpt lat="45.52619" lon="6.5832">
        <ele>588.8</ele>
        <time>2021-05-28T11:20:12Z</time>
      </trkpt>
      <trkpt lat="45.52622" lon="6.58322">
        <ele>589</ele>
        <time>2021-05-28T11:20:13Z</time>
      </trkpt>
      <trkpt lat="45.52626" lon="6.58324">
        <ele>589.4</ele>
        <time>2021-05-28T11:20:14Z</time>
      </trkpt>
      <trkpt lat="45.52629" lon="6.58326">
        <ele>589.6</ele>
        <time>2021-05-28T11:20:15Z</time>
      </trkpt>
      <trkpt lat="45.52632" lon="6.58328">
        <ele>590</ele>
        <time>2021-05-28T11:20:16Z</time>
      </trkpt>
      <trkpt lat="45.52635" lon="6.58331">
        <ele>590.6</ele>
        <time>2021-05-28T11:20:17Z</time>
      </trkpt>
      <trkpt lat="45.52638" lon="6.58334">
        <ele>590.8</ele>
        <time>2021-05-28T11:20:18Z</time>
      </trkpt>
      <trkpt lat="45.52641" lon="6.58337">
        <ele>591.2</ele>
        <time>2021-05-28T11:20:19Z</time>
      </trkpt>
      <trkpt lat="45.52644" lon="6.5834">
        <ele>591.6</ele>
        <time>2021-05-28T11:20:20Z</time>
      </trkpt>
      <trkpt lat="45.52647" lon="6.58343">
        <ele>592</ele>
        <time>2021-05-28T11:20:21Z</time>
      </trkpt>
      <trkpt lat="45.52651" lon="6.58346">
        <ele>592.4</ele>
        <time>2021-05-28T11:20:22Z</time>
      </trkpt>
      <trkpt lat="45.52655" lon="6.58348">
        <ele>592.8</ele>
        <time>2021-05-28T11:20:23Z</time>
      </trkpt>
      <trkpt lat="45.52659" lon="6.58349">
        <ele>593.2</ele>
        <time>2021-05-28T11:20:24Z</time>
      </trkpt>
      <trkpt lat="45.52663" lon="6.58351">
        <ele>593.6</ele>
        <time>2021-05-28T11:20:25Z</time>
      </trkpt>
      <trkpt lat="45.52667" lon="6.58352">
        <ele>594</ele>
        <time>2021-05-28T11:20:26Z</time>
      </trkpt>
      <trkpt lat="45.52671" lon="6.58354">
        <ele>594.4</ele>
        <time>2021-05-28T11:20:27Z</time>
      </trkpt>
      <trkpt lat="45.52675" lon="6.58355">
        <ele>594.6</ele>
        <time>2021-05-28T11:20:28Z</time>
      </trkpt>
      <trkpt lat="45.52678" lon="6.58358">
        <ele>594.8</ele>
        <time>2021-05-28T11:20:29Z</time>
      </trkpt>
      <trkpt lat="45.52681" lon="6.58361">
        <ele>595.2</ele>
        <time>2021-05-28T11:20:30Z</time>
      </trkpt>
      <trkpt lat="45.52685" lon="6.58364">
        <ele>595.6</ele>
        <time>2021-05-28T11:20:31Z</time>
      </trkpt>
      <trkpt lat="45.52688" lon="6.58369">
        <ele>596</ele>
        <time>2021-05-28T11:20:32Z</time>
      </trkpt>
      <trkpt lat="45.52691" lon="6.58372">
        <ele>596.4</ele>
        <time>2021-05-28T11:20:33Z</time>
      </trkpt>
      <trkpt lat="45.52694" lon="6.58376">
        <ele>596.8</ele>
        <time>2021-05-28T11:20:34Z</time>
      </trkpt>
      <trkpt lat="45.52697" lon="6.58381">
        <ele>597.2</ele>
        <time>2021-05-28T11:20:35Z</time>
      </trkpt>
      <trkpt lat="45.527" lon="6.58385">
        <ele>597.4</ele>
        <time>2021-05-28T11:20:36Z</time>
      </trkpt>
      <trkpt lat="45.52702" lon="6.58388">
        <ele>598</ele>
        <time>2021-05-28T11:20:37Z</time>
      </trkpt>
      <trkpt lat="45.52705" lon="6.58392">
        <ele>598.4</ele>
        <time>2021-05-28T11:20:38Z</time>
      </trkpt>
      <trkpt lat="45.52707" lon="6.58394">
        <ele>599</ele>
        <time>2021-05-28T11:20:39Z</time>
      </trkpt>
      <trkpt lat="45.5271" lon="6.58397">
        <ele>599.6</ele>
        <time>2021-05-28T11:20:40Z</time>
      </trkpt>
      <trkpt lat="45.52713" lon="6.584">
        <ele>600</ele>
        <time>2021-05-28T11:20:41Z</time>
      </trkpt>
      <trkpt lat="45.52715" lon="6.58403">
        <ele>600.6</ele>
        <time>2021-05-28T11:20:42Z</time>
      </trkpt>
      <trkpt lat="45.52718" lon="6.58407">
        <ele>601</ele>
        <time>2021-05-28T11:20:43Z</time>
      </trkpt>
      <trkpt lat="45.52721" lon="6.5841">
        <ele>601.4</ele>
        <time>2021-05-28T11:20:44Z</time>
      </trkpt>
      <trkpt lat="45.52724" lon="6.58413">
        <ele>601.8</ele>
        <time>2021-05-28T11:20:45Z</time>
      </trkpt>
      <trkpt lat="45.52727" lon="6.58416">
        <ele>602.2</ele>
        <time>2021-05-28T11:20:46Z</time>
      </trkpt>
      <trkpt lat="45.5273" lon="6.58419">
        <ele>602.8</ele>
        <time>2021-05-28T11:20:47Z</time>
      </trkpt>
      <trkpt lat="45.52733" lon="6.58421">
        <ele>603.2</ele>
        <time>2021-05-28T11:20:48Z</time>
      </trkpt>
      <trkpt lat="45.52737" lon="6.58421">
        <ele>603.8</ele>
        <time>2021-05-28T11:20:49Z</time>
      </trkpt>
      <trkpt lat="45.5274" lon="6.5842">
        <ele>604.4</ele>
        <time>2021-05-28T11:20:50Z</time>
      </trkpt>
      <trkpt lat="45.52744" lon="6.58419">
        <ele>604.6</ele>
        <time>2021-05-28T11:20:51Z</time>
      </trkpt>
      <trkpt lat="45.52747" lon="6.58417">
        <ele>605.2</ele>
        <time>2021-05-28T11:20:52Z</time>
      </trkpt>
      <trkpt lat="45.52748" lon="6.58415">
        <ele>605.8</ele>
        <time>2021-05-28T11:20:53Z</time>
      </trkpt>
      <trkpt lat="45.52747" lon="6.58412">
        <ele>606.2</ele>
        <time>2021-05-28T11:20:54Z</time>
      </trkpt>
      <trkpt lat="45.52743" lon="6.58408">
        <ele>606.8</ele>
        <time>2021-05-28T11:20:55Z</time>
      </trkpt>
      <trkpt lat="45.5274" lon="6.58404">
        <ele>607</ele>
        <time>2021-05-28T11:20:56Z</time>
      </trkpt>
      <trkpt lat="45.52738" lon="6.58399">
        <ele>607.4</ele>
        <time>2021-05-28T11:20:57Z</time>
      </trkpt>
      <trkpt lat="45.52735" lon="6.58396">
        <ele>607.8</ele>
        <time>2021-05-28T11:20:58Z</time>
      </trkpt>
      <trkpt lat="45.52733" lon="6.58393">
        <ele>608.4</ele>
        <time>2021-05-28T11:20:59Z</time>
      </trkpt>
      <trkpt lat="45.5273" lon="6.58389">
        <ele>608.8</ele>
        <time>2021-05-28T11:21:00Z</time>
      </trkpt>
      <trkpt lat="45.52728" lon="6.58384">
        <ele>608.8</ele>
        <time>2021-05-28T11:21:01Z</time>
      </trkpt>
      <trkpt lat="45.52726" lon="6.5838">
        <ele>609</ele>
        <time>2021-05-28T11:21:02Z</time>
      </trkpt>
      <trkpt lat="45.52724" lon="6.58375">
        <ele>608.8</ele>
        <time>2021-05-28T11:21:03Z</time>
      </trkpt>
      <trkpt lat="45.52723" lon="6.5837">
        <ele>608.6</ele>
        <time>2021-05-28T11:21:04Z</time>
      </trkpt>
      <trkpt lat="45.52721" lon="6.58365">
        <ele>608.6</ele>
        <time>2021-05-28T11:21:05Z</time>
      </trkpt>
      <trkpt lat="45.52719" lon="6.58361">
        <ele>608.6</ele>
        <time>2021-05-28T11:21:06Z</time>
      </trkpt>
      <trkpt lat="45.52717" lon="6.58357">
        <ele>608.4</ele>
        <time>2021-05-28T11:21:07Z</time>
      </trkpt>
      <trkpt lat="45.52715" lon="6.58352">
        <ele>608.4</ele>
        <time>2021-05-28T11:21:08Z</time>
      </trkpt>
      <trkpt lat="45.52713" lon="6.58347">
        <ele>608.6</ele>
        <time>2021-05-28T11:21:09Z</time>
      </trkpt>
      <trkpt lat="45.52709" lon="6.58343">
        <ele>608.8</ele>
        <time>2021-05-28T11:21:10Z</time>
      </trkpt>
      <trkpt lat="45.52706" lon="6.58339">
        <ele>609</ele>
        <time>2021-05-28T11:21:11Z</time>
      </trkpt>
      <trkpt lat="45.52702" lon="6.58335">
        <ele>609.4</ele>
        <time>2021-05-28T11:21:12Z</time>
      </trkpt>
      <trkpt lat="45.527" lon="6.5833">
        <ele>610</ele>
        <time>2021-05-28T11:21:13Z</time>
      </trkpt>
      <trkpt lat="45.52697" lon="6.58327">
        <ele>610.4</ele>
        <time>2021-05-28T11:21:14Z</time>
      </trkpt>
      <trkpt lat="45.52693" lon="6.58323">
        <ele>611</ele>
        <time>2021-05-28T11:21:15Z</time>
      </trkpt>
      <trkpt lat="45.52691" lon="6.58319">
        <ele>611.4</ele>
        <time>2021-05-28T11:21:16Z</time>
      </trkpt>
      <trkpt lat="45.52687" lon="6.58315">
        <ele>612</ele>
        <time>2021-05-28T11:21:17Z</time>
      </trkpt>
      <trkpt lat="45.52684" lon="6.58311">
        <ele>612.6</ele>
        <time>2021-05-28T11:21:18Z</time>
      </trkpt>
      <trkpt lat="45.5268" lon="6.58308">
        <ele>613</ele>
        <time>2021-05-28T11:21:19Z</time>
      </trkpt>
      <trkpt lat="45.52676" lon="6.58304">
        <ele>613.6</ele>
        <time>2021-05-28T11:21:20Z</time>
      </trkpt>
      <trkpt lat="45.52673" lon="6.583">
        <ele>614</ele>
        <time>2021-05-28T11:21:21Z</time>
      </trkpt>
      <trkpt lat="45.5267" lon="6.58296">
        <ele>614.2</ele>
        <time>2021-05-28T11:21:22Z</time>
      </trkpt>
      <trkpt lat="45.52667" lon="6.58292">
        <ele>614.4</ele>
        <time>2021-05-28T11:21:23Z</time>
      </trkpt>
      <trkpt lat="45.52664" lon="6.58288">
        <ele>614.8</ele>
        <time>2021-05-28T11:21:24Z</time>
      </trkpt>
      <trkpt lat="45.52661" lon="6.58284">
        <ele>615</ele>
        <time>2021-05-28T11:21:25Z</time>
      </trkpt>
      <trkpt lat="45.52659" lon="6.5828">
        <ele>615.6</ele>
        <time>2021-05-28T11:21:26Z</time>
      </trkpt>
      <trkpt lat="45.52655" lon="6.58276">
        <ele>615.8</ele>
        <time>2021-05-28T11:21:27Z</time>
      </trkpt>
      <trkpt lat="45.52652" lon="6.58272">
        <ele>616.2</ele>
        <time>2021-05-28T11:21:28Z</time>
      </trkpt>
      <trkpt lat="45.52649" lon="6.5827">
        <ele>616.8</ele>
        <time>2021-05-28T11:21:29Z</time>
      </trkpt>
      <trkpt lat="45.52646" lon="6.58266">
        <ele>617.2</ele>
        <time>2021-05-28T11:21:30Z</time>
      </trkpt>
      <trkpt lat="45.52643" lon="6.58262">
        <ele>617.6</ele>
        <time>2021-05-28T11:21:31Z</time>
      </trkpt>
      <trkpt lat="45.52641" lon="6.58258">
        <ele>618.2</ele>
        <time>2021-05-28T11:21:32Z</time>
      </trkpt>
      <trkpt lat="45.52641" lon="6.58254">
        <ele>618.6</ele>
        <time>2021-05-28T11:21:33Z</time>
      </trkpt>
      <trkpt lat="45.52643" lon="6.58251">
        <ele>619</ele>
        <time>2021-05-28T11:21:34Z</time>
      </trkpt>
      <trkpt lat="45.52645" lon="6.58252">
        <ele>619.4</ele>
        <time>2021-05-28T11:21:35Z</time>
      </trkpt>
      <trkpt lat="45.52648" lon="6.58254">
        <ele>620</ele>
        <time>2021-05-28T11:21:36Z</time>
      </trkpt>
      <trkpt lat="45.52651" lon="6.58256">
        <ele>620.2</ele>
        <time>2021-05-28T11:21:37Z</time>
      </trkpt>
      <trkpt lat="45.52654" lon="6.58259">
        <ele>620.2</ele>
        <time>2021-05-28T11:21:38Z</time>
      </trkpt>
      <trkpt lat="45.52657" lon="6.58264">
        <ele>620</ele>
        <time>2021-05-28T11:21:39Z</time>
      </trkpt>
      <trkpt lat="45.5266" lon="6.58267">
        <ele>619.6</ele>
        <time>2021-05-28T11:21:40Z</time>
      </trkpt>
      <trkpt lat="45.52663" lon="6.58272">
        <ele>619.2</ele>
        <time>2021-05-28T11:21:41Z</time>
      </trkpt>
      <trkpt lat="45.52666" lon="6.58276">
        <ele>619</ele>
        <time>2021-05-28T11:21:42Z</time>
      </trkpt>
      <trkpt lat="45.52669" lon="6.58281">
        <ele>618.6</ele>
        <time>2021-05-28T11:21:43Z</time>
      </trkpt>
      <trkpt lat="45.52673" lon="6.58284">
        <ele>618.6</ele>
        <time>2021-05-28T11:21:44Z</time>
      </trkpt>
      <trkpt lat="45.52676" lon="6.58288">
        <ele>618.6</ele>
        <time>2021-05-28T11:21:45Z</time>
      </trkpt>
      <trkpt lat="45.52679" lon="6.58292">
        <ele>618.8</ele>
        <time>2021-05-28T11:21:46Z</time>
      </trkpt>
      <trkpt lat="45.52683" lon="6.58296">
        <ele>618.8</ele>
        <time>2021-05-28T11:21:47Z</time>
      </trkpt>
      <trkpt lat="45.52686" lon="6.58299">
        <ele>618.6</ele>
        <time>2021-05-28T11:21:48Z</time>
      </trkpt>
      <trkpt lat="45.5269" lon="6.58303">
        <ele>618.4</ele>
        <time>2021-05-28T11:21:49Z</time>
      </trkpt>
      <trkpt lat="45.52694" lon="6.58307">
        <ele>618.2</ele>
        <time>2021-05-28T11:21:50Z</time>
      </trkpt>
      <trkpt lat="45.52698" lon="6.58311">
        <ele>618</ele>
        <time>2021-05-28T11:21:51Z</time>
      </trkpt>
      <trkpt lat="45.52701" lon="6.58316">
        <ele>617.8</ele>
        <time>2021-05-28T11:21:52Z</time>
      </trkpt>
      <trkpt lat="45.52705" lon="6.5832">
        <ele>617.8</ele>
        <time>2021-05-28T11:21:53Z</time>
      </trkpt>
      <trkpt lat="45.52709" lon="6.58324">
        <ele>617.4</ele>
        <time>2021-05-28T11:21:54Z</time>
      </trkpt>
      <trkpt lat="45.52713" lon="6.58328">
        <ele>617.4</ele>
        <time>2021-05-28T11:21:55Z</time>
      </trkpt>
      <trkpt lat="45.52716" lon="6.58332">
        <ele>617.6</ele>
        <time>2021-05-28T11:21:56Z</time>
      </trkpt>
      <trkpt lat="45.52719" lon="6.58336">
        <ele>617.6</ele>
        <time>2021-05-28T11:21:57Z</time>
      </trkpt>
      <trkpt lat="45.52723" lon="6.58341">
        <ele>617.8</ele>
        <time>2021-05-28T11:21:58Z</time>
      </trkpt>
      <trkpt lat="45.52727" lon="6.58346">
        <ele>618.2</ele>
        <time>2021-05-28T11:21:59Z</time>
      </trkpt>
      <trkpt lat="45.52731" lon="6.58351">
        <ele>618.2</ele>
        <time>2021-05-28T11:22:00Z</time>
      </trkpt>
      <trkpt lat="45.52735" lon="6.58356">
        <ele>618.6</ele>
        <time>2021-05-28T11:22:01Z</time>
      </trkpt>
      <trkpt lat="45.52739" lon="6.58361">
        <ele>619</ele>
        <time>2021-05-28T11:22:02Z</time>
      </trkpt>
      <trkpt lat="45.52743" lon="6.58366">
        <ele>619.4</ele>
        <time>2021-05-28T11:22:03Z</time>
      </trkpt>
      <trkpt lat="45.52747" lon="6.58371">
        <ele>619.8</ele>
        <time>2021-05-28T11:22:04Z</time>
      </trkpt>
      <trkpt lat="45.5275" lon="6.58376">
        <ele>620.2</ele>
        <time>2021-05-28T11:22:05Z</time>
      </trkpt>
      <trkpt lat="45.52753" lon="6.58382">
        <ele>620.4</ele>
        <time>2021-05-28T11:22:06Z</time>
      </trkpt>
      <trkpt lat="45.52756" lon="6.58387">
        <ele>620.6</ele>
        <time>2021-05-28T11:22:07Z</time>
      </trkpt>
      <trkpt lat="45.52759" lon="6.58393">
        <ele>621</ele>
        <time>2021-05-28T11:22:08Z</time>
      </trkpt>
      <trkpt lat="45.52762" lon="6.58399">
        <ele>621.2</ele>
        <time>2021-05-28T11:22:09Z</time>
      </trkpt>
      <trkpt lat="45.52764" lon="6.58406">
        <ele>621.4</ele>
        <time>2021-05-28T11:22:10Z</time>
      </trkpt>
      <trkpt lat="45.52767" lon="6.58411">
        <ele>621.8</ele>
        <time>2021-05-28T11:22:11Z</time>
      </trkpt>
      <trkpt lat="45.52771" lon="6.58418">
        <ele>622</ele>
        <time>2021-05-28T11:22:12Z</time>
      </trkpt>
      <trkpt lat="45.52774" lon="6.58424">
        <ele>622</ele>
        <time>2021-05-28T11:22:13Z</time>
      </trkpt>
      <trkpt lat="45.52777" lon="6.5843">
        <ele>622.2</ele>
        <time>2021-05-28T11:22:14Z</time>
      </trkpt>
      <trkpt lat="45.52779" lon="6.58436">
        <ele>622.6</ele>
        <time>2021-05-28T11:22:15Z</time>
      </trkpt>
      <trkpt lat="45.52781" lon="6.58442">
        <ele>622.8</ele>
        <time>2021-05-28T11:22:16Z</time>
      </trkpt>
      <trkpt lat="45.52784" lon="6.58448">
        <ele>623</ele>
        <time>2021-05-28T11:22:17Z</time>
      </trkpt>
      <trkpt lat="45.52786" lon="6.58454">
        <ele>623.2</ele>
        <time>2021-05-28T11:22:18Z</time>
      </trkpt>
      <trkpt lat="45.52789" lon="6.58459">
        <ele>623.4</ele>
        <time>2021-05-28T11:22:19Z</time>
      </trkpt>
      <trkpt lat="45.52793" lon="6.5846">
        <ele>623.8</ele>
        <time>2021-05-28T11:22:20Z</time>
      </trkpt>
      <trkpt lat="45.52797" lon="6.58457">
        <ele>624</ele>
        <time>2021-05-28T11:22:21Z</time>
      </trkpt>
      <trkpt lat="45.528" lon="6.58453">
        <ele>624.2</ele>
        <time>2021-05-28T11:22:22Z</time>
      </trkpt>
      <trkpt lat="45.51922" lon="6.57077">
        <ele>635.6</ele>
        <time>2021-05-28T11:25:06Z</time>
      </trkpt>
      <trkpt lat="45.51914" lon="6.57063">
        <ele>635.2</ele>
        <time>2021-05-28T11:25:07Z</time>
      </trkpt>
      <trkpt lat="45.51908" lon="6.57053">
        <ele>635</ele>
        <time>2021-05-28T11:25:08Z</time>
      </trkpt>
      <trkpt lat="45.51903" lon="6.57047">
        <ele>634.4</ele>
        <time>2021-05-28T11:25:09Z</time>
      </trkpt>
      <trkpt lat="45.51897" lon="6.57042">
        <ele>634</ele>
        <time>2021-05-28T11:25:10Z</time>
      </trkpt>
      <trkpt lat="45.51889" lon="6.57034">
        <ele>633.8</ele>
        <time>2021-05-28T11:25:11Z</time>
      </trkpt>
      <trkpt lat="45.51881" lon="6.57025">
        <ele>633.4</ele>
        <time>2021-05-28T11:25:12Z</time>
      </trkpt>
      <trkpt lat="45.51873" lon="6.57016">
        <ele>632.8</ele>
        <time>2021-05-28T11:25:13Z</time>
      </trkpt>
      <trkpt lat="45.51866" lon="6.57008">
        <ele>632.2</ele>
        <time>2021-05-28T11:25:14Z</time>
      </trkpt>
      <trkpt lat="45.51858" lon="6.57">
        <ele>631.8</ele>
        <time>2021-05-28T11:25:15Z</time>
      </trkpt>
      <trkpt lat="45.5185" lon="6.56991">
        <ele>631.2</ele>
        <time>2021-05-28T11:25:16Z</time>
      </trkpt>
      <trkpt lat="45.51842" lon="6.56984">
        <ele>630.4</ele>
        <time>2021-05-28T11:25:17Z</time>
      </trkpt>
      <trkpt lat="45.51835" lon="6.56975">
        <ele>629.8</ele>
        <time>2021-05-28T11:25:18Z</time>
      </trkpt>
      <trkpt lat="45.51826" lon="6.56968">
        <ele>629.2</ele>
        <time>2021-05-28T11:25:19Z</time>
      </trkpt>
      <trkpt lat="45.51817" lon="6.56962">
        <ele>628.4</ele>
        <time>2021-05-28T11:25:20Z</time>
      </trkpt>
      <trkpt lat="45.51807" lon="6.56956">
        <ele>627.6</ele>
        <time>2021-05-28T11:25:21Z</time>
      </trkpt>
      <trkpt lat="45.51797" lon="6.56952">
        <ele>627</ele>
        <time>2021-05-28T11:25:22Z</time>
      </trkpt>
      <trkpt lat="45.51788" lon="6.56949">
        <ele>626.4</ele>
        <time>2021-05-28T11:25:23Z</time>
      </trkpt>
      <trkpt lat="45.51777" lon="6.56947">
        <ele>626</ele>
        <time>2021-05-28T11:25:24Z</time>
      </trkpt>
      <trkpt lat="45.51768" lon="6.56945">
        <ele>625.4</ele>
        <time>2021-05-28T11:25:25Z</time>
      </trkpt>
      <trkpt lat="45.51759" lon="6.56943">
        <ele>625</ele>
        <time>2021-05-28T11:25:26Z</time>
      </trkpt>
      <trkpt lat="45.51748" lon="6.5694">
        <ele>624.2</ele>
        <time>2021-05-28T11:25:27Z</time>
      </trkpt>
      <trkpt lat="45.5174" lon="6.56939">
        <ele>624</ele>
        <time>2021-05-28T11:25:28Z</time>
      </trkpt>
      <trkpt lat="45.5173" lon="6.56937">
        <ele>623.4</ele>
        <time>2021-05-28T11:25:29Z</time>
      </trkpt>
      <trkpt lat="45.51721" lon="6.56934">
        <ele>623</ele>
        <time>2021-05-28T11:25:30Z</time>
      </trkpt>
      <trkpt lat="45.51712" lon="6.56931">
        <ele>622.4</ele>
        <time>2021-05-28T11:25:31Z</time>
      </trkpt>
      <trkpt lat="45.51703" lon="6.56926">
        <ele>622</ele>
        <time>2021-05-28T11:25:32Z</time>
      </trkpt>
      <trkpt lat="45.51694" lon="6.56922">
        <ele>620.4</ele>
        <time>2021-05-28T11:25:33Z</time>
      </trkpt>
      <trkpt lat="45.51684" lon="6.56918">
        <ele>618.8</ele>
        <time>2021-05-28T11:25:34Z</time>
      </trkpt>
      <trkpt lat="45.51676" lon="6.56913">
        <ele>618</ele>
        <time>2021-05-28T11:25:35Z</time>
      </trkpt>
      <trkpt lat="45.51667" lon="6.56907">
        <ele>617.4</ele>
        <time>2021-05-28T11:25:36Z</time>
      </trkpt>
      <trkpt lat="45.51658" lon="6.56901">
        <ele>616.8</ele>
        <time>2021-05-28T11:25:37Z</time>
      </trkpt>
      <trkpt lat="45.51649" lon="6.56896">
        <ele>616.4</ele>
        <time>2021-05-28T11:25:38Z</time>
      </trkpt>
      <trkpt lat="45.51639" lon="6.5689">
        <ele>616.4</ele>
        <time>2021-05-28T11:25:39Z</time>
      </trkpt>
      <trkpt lat="45.5163" lon="6.56885">
        <ele>615.8</ele>
        <time>2021-05-28T11:25:40Z</time>
      </trkpt>
      <trkpt lat="45.51621" lon="6.56879">
        <ele>615.4</ele>
        <time>2021-05-28T11:25:41Z</time>
      </trkpt>
      <trkpt lat="45.51612" lon="6.56875">
        <ele>614.8</ele>
        <time>2021-05-28T11:25:42Z</time>
      </trkpt>
      <trkpt lat="45.51603" lon="6.5687">
        <ele>614.2</ele>
        <time>2021-05-28T11:25:43Z</time>
      </trkpt>
      <trkpt lat="45.51594" lon="6.56865">
        <ele>613.8</ele>
        <time>2021-05-28T11:25:44Z</time>
      </trkpt>
      <trkpt lat="45.51585" lon="6.56861">
        <ele>613</ele>
        <time>2021-05-28T11:25:45Z</time>
      </trkpt>
      <trkpt lat="45.51575" lon="6.56857">
        <ele>612.2</ele>
        <time>2021-05-28T11:25:46Z</time>
      </trkpt>
      <trkpt lat="45.51565" lon="6.56854">
        <ele>611.8</ele>
        <time>2021-05-28T11:25:47Z</time>
      </trkpt>
      <trkpt lat="45.51556" lon="6.5685">
        <ele>611</ele>
        <time>2021-05-28T11:25:48Z</time>
      </trkpt>
      <trkpt lat="45.51547" lon="6.56847">
        <ele>610.2</ele>
        <time>2021-05-28T11:25:49Z</time>
      </trkpt>
      <trkpt lat="45.51537" lon="6.56844">
        <ele>610</ele>
        <time>2021-05-28T11:25:50Z</time>
      </trkpt>
      <trkpt lat="45.51528" lon="6.5684">
        <ele>609.6</ele>
        <time>2021-05-28T11:25:51Z</time>
      </trkpt>
      <trkpt lat="45.51519" lon="6.56837">
        <ele>609.2</ele>
        <time>2021-05-28T11:25:52Z</time>
      </trkpt>
      <trkpt lat="45.51509" lon="6.56832">
        <ele>609.2</ele>
        <time>2021-05-28T11:25:53Z</time>
      </trkpt>
      <trkpt lat="45.515" lon="6.56827">
        <ele>608.8</ele>
        <time>2021-05-28T11:25:54Z</time>
      </trkpt>
      <trkpt lat="45.51491" lon="6.56821">
        <ele>608.2</ele>
        <time>2021-05-28T11:25:55Z</time>
      </trkpt>
      <trkpt lat="45.51483" lon="6.56815">
        <ele>607.8</ele>
        <time>2021-05-28T11:25:56Z</time>
      </trkpt>
      <trkpt lat="45.51476" lon="6.56809">
        <ele>606.8</ele>
        <time>2021-05-28T11:25:57Z</time>
      </trkpt>
      <trkpt lat="45.51469" lon="6.56805">
        <ele>606.8</ele>
        <time>2021-05-28T11:25:58Z</time>
      </trkpt>
      <trkpt lat="45.51463" lon="6.56803">
        <ele>606.6</ele>
        <time>2021-05-28T11:25:59Z</time>
      </trkpt>
      <trkpt lat="45.51458" lon="6.56803">
        <ele>606.2</ele>
        <time>2021-05-28T11:26:00Z</time>
      </trkpt>
      <trkpt lat="45.51452" lon="6.56804">
        <ele>606.4</ele>
        <time>2021-05-28T11:26:01Z</time>
      </trkpt>
      <trkpt lat="45.51447" lon="6.56804">
        <ele>606.6</ele>
        <time>2021-05-28T11:26:02Z</time>
      </trkpt>
      <trkpt lat="45.51443" lon="6.56804">
        <ele>606.6</ele>
        <time>2021-05-28T11:26:03Z</time>
      </trkpt>
      <trkpt lat="45.51439" lon="6.56803">
        <ele>606.6</ele>
        <time>2021-05-28T11:26:04Z</time>
      </trkpt>
      <trkpt lat="45.51436" lon="6.56802">
        <ele>606.8</ele>
        <time>2021-05-28T11:26:05Z</time>
      </trkpt>
      <trkpt lat="45.51432" lon="6.56801">
        <ele>606.8</ele>
        <time>2021-05-28T11:26:06Z</time>
      </trkpt>
      <trkpt lat="45.51429" lon="6.56802">
        <ele>606.8</ele>
        <time>2021-05-28T11:26:07Z</time>
      </trkpt>
      <trkpt lat="45.51426" lon="6.56803">
        <ele>606.8</ele>
        <time>2021-05-28T11:26:08Z</time>
      </trkpt>
      <trkpt lat="45.51424" lon="6.56806">
        <ele>606.6</ele>
        <time>2021-05-28T11:26:09Z</time>
      </trkpt>
      <trkpt lat="45.5142" lon="6.5681">
        <ele>607</ele>
        <time>2021-05-28T11:26:10Z</time>
      </trkpt>
      <trkpt lat="45.51418" lon="6.56815">
        <ele>607.2</ele>
        <time>2021-05-28T11:26:11Z</time>
      </trkpt>
      <trkpt lat="45.51414" lon="6.5682">
        <ele>607.4</ele>
        <time>2021-05-28T11:26:12Z</time>
      </trkpt>
      <trkpt lat="45.5141" lon="6.56826">
        <ele>607.8</ele>
        <time>2021-05-28T11:26:13Z</time>
      </trkpt>
      <trkpt lat="45.51406" lon="6.56832">
        <ele>608</ele>
        <time>2021-05-28T11:26:14Z</time>
      </trkpt>
      <trkpt lat="45.51402" lon="6.56837">
        <ele>608</ele>
        <time>2021-05-28T11:26:15Z</time>
      </trkpt>
      <trkpt lat="45.51397" lon="6.56838">
        <ele>608</ele>
        <time>2021-05-28T11:26:16Z</time>
      </trkpt>
      <trkpt lat="45.51392" lon="6.56835">
        <ele>608</ele>
        <time>2021-05-28T11:26:17Z</time>
      </trkpt>
      <trkpt lat="45.51387" lon="6.56832">
        <ele>608</ele>
        <time>2021-05-28T11:26:18Z</time>
      </trkpt>
      <trkpt lat="45.51382" lon="6.56828">
        <ele>608</ele>
        <time>2021-05-28T11:26:19Z</time>
      </trkpt>
      <trkpt lat="45.51378" lon="6.56823">
        <ele>607.8</ele>
        <time>2021-05-28T11:26:20Z</time>
      </trkpt>
      <trkpt lat="45.51372" lon="6.5682">
        <ele>607.6</ele>
        <time>2021-05-28T11:26:21Z</time>
      </trkpt>
      <trkpt lat="45.51367" lon="6.56816">
        <ele>607.6</ele>
        <time>2021-05-28T11:26:22Z</time>
      </trkpt>
      <trkpt lat="45.51362" lon="6.56813">
        <ele>607.4</ele>
        <time>2021-05-28T11:26:23Z</time>
      </trkpt>
      <trkpt lat="45.51356" lon="6.56811">
        <ele>607.6</ele>
        <time>2021-05-28T11:26:24Z</time>
      </trkpt>
      <trkpt lat="45.5135" lon="6.56808">
        <ele>607.6</ele>
        <time>2021-05-28T11:26:25Z</time>
      </trkpt>
      <trkpt lat="45.51344" lon="6.56805">
        <ele>607.6</ele>
        <time>2021-05-28T11:26:26Z</time>
      </trkpt>
      <trkpt lat="45.51338" lon="6.56803">
        <ele>607.6</ele>
        <time>2021-05-28T11:26:27Z</time>
      </trkpt>
      <trkpt lat="45.51332" lon="6.568">
        <ele>607.6</ele>
        <time>2021-05-28T11:26:28Z</time>
      </trkpt>
      <trkpt lat="45.51326" lon="6.56797">
        <ele>607.6</ele>
        <time>2021-05-28T11:26:29Z</time>
      </trkpt>
      <trkpt lat="45.51321" lon="6.56793">
        <ele>607.6</ele>
        <time>2021-05-28T11:26:30Z</time>
      </trkpt>
      <trkpt lat="45.51315" lon="6.56789">
        <ele>607.2</ele>
        <time>2021-05-28T11:26:31Z</time>
      </trkpt>
      <trkpt lat="45.51311" lon="6.56785">
        <ele>607.2</ele>
        <time>2021-05-28T11:26:32Z</time>
      </trkpt>
      <trkpt lat="45.51307" lon="6.56779">
        <ele>607.2</ele>
        <time>2021-05-28T11:26:33Z</time>
      </trkpt>
      <trkpt lat="45.51304" lon="6.56773">
        <ele>607</ele>
        <time>2021-05-28T11:26:34Z</time>
      </trkpt>
      <trkpt lat="45.51302" lon="6.56766">
        <ele>607</ele>
        <time>2021-05-28T11:26:35Z</time>
      </trkpt>
      <trkpt lat="45.51301" lon="6.56759">
        <ele>607</ele>
        <time>2021-05-28T11:26:36Z</time>
      </trkpt>
      <trkpt lat="45.51301" lon="6.56752">
        <ele>607.2</ele>
        <time>2021-05-28T11:26:37Z</time>
      </trkpt>
      <trkpt lat="45.51301" lon="6.56746">
        <ele>607.2</ele>
        <time>2021-05-28T11:26:38Z</time>
      </trkpt>
      <trkpt lat="45.51301" lon="6.56739">
        <ele>607.4</ele>
        <time>2021-05-28T11:26:39Z</time>
      </trkpt>
      <trkpt lat="45.51303" lon="6.56734">
        <ele>607.2</ele>
        <time>2021-05-28T11:26:40Z</time>
      </trkpt>
      <trkpt lat="45.51305" lon="6.56728">
        <ele>607.2</ele>
        <time>2021-05-28T11:26:41Z</time>
      </trkpt>
      <trkpt lat="45.51307" lon="6.56722">
        <ele>607.2</ele>
        <time>2021-05-28T11:26:42Z</time>
      </trkpt>
      <trkpt lat="45.51309" lon="6.56716">
        <ele>607.4</ele>
        <time>2021-05-28T11:26:43Z</time>
      </trkpt>
      <trkpt lat="45.51311" lon="6.56711">
        <ele>607.4</ele>
        <time>2021-05-28T11:26:44Z</time>
      </trkpt>
      <trkpt lat="45.51313" lon="6.56705">
        <ele>607.6</ele>
        <time>2021-05-28T11:26:45Z</time>
      </trkpt>
      <trkpt lat="45.51315" lon="6.56699">
        <ele>607.8</ele>
        <time>2021-05-28T11:26:46Z</time>
      </trkpt>
      <trkpt lat="45.51317" lon="6.56694">
        <ele>607.8</ele>
        <time>2021-05-28T11:26:47Z</time>
      </trkpt>
      <trkpt lat="45.5132" lon="6.56688">
        <ele>608</ele>
        <time>2021-05-28T11:26:48Z</time>
      </trkpt>
      <trkpt lat="45.51323" lon="6.56682">
        <ele>608.2</ele>
        <time>2021-05-28T11:26:49Z</time>
      </trkpt>
      <trkpt lat="45.51325" lon="6.56676">
        <ele>608.4</ele>
        <time>2021-05-28T11:26:50Z</time>
      </trkpt>
      <trkpt lat="45.51327" lon="6.5667">
        <ele>608.6</ele>
        <time>2021-05-28T11:26:51Z</time>
      </trkpt>
      <trkpt lat="45.51329" lon="6.56665">
        <ele>608.8</ele>
        <time>2021-05-28T11:26:52Z</time>
      </trkpt>
      <trkpt lat="45.51331" lon="6.56658">
        <ele>608.8</ele>
        <time>2021-05-28T11:26:53Z</time>
      </trkpt>
      <trkpt lat="45.51332" lon="6.56652">
        <ele>609</ele>
        <time>2021-05-28T11:26:54Z</time>
      </trkpt>
      <trkpt lat="45.51331" lon="6.56645">
        <ele>609.2</ele>
        <time>2021-05-28T11:26:55Z</time>
      </trkpt>
      <trkpt lat="45.51329" lon="6.56639">
        <ele>609.6</ele>
        <time>2021-05-28T11:26:56Z</time>
      </trkpt>
      <trkpt lat="45.51324" lon="6.56635">
        <ele>609.6</ele>
        <time>2021-05-28T11:26:57Z</time>
      </trkpt>
      <trkpt lat="45.51319" lon="6.56631">
        <ele>609.6</ele>
        <time>2021-05-28T11:26:58Z</time>
      </trkpt>
      <trkpt lat="45.51314" lon="6.56627">
        <ele>609.8</ele>
        <time>2021-05-28T11:26:59Z</time>
      </trkpt>
      <trkpt lat="45.51309" lon="6.56623">
        <ele>609.8</ele>
        <time>2021-05-28T11:27:00Z</time>
      </trkpt>
      <trkpt lat="45.51303" lon="6.56619">
        <ele>610.2</ele>
        <time>2021-05-28T11:27:01Z</time>
      </trkpt>
      <trkpt lat="45.51297" lon="6.56615">
        <ele>610.4</ele>
        <time>2021-05-28T11:27:02Z</time>
      </trkpt>
      <trkpt lat="45.5129" lon="6.56611">
        <ele>610.4</ele>
        <time>2021-05-28T11:27:03Z</time>
      </trkpt>
      <trkpt lat="45.51283" lon="6.56606">
        <ele>610.6</ele>
        <time>2021-05-28T11:27:04Z</time>
      </trkpt>
      <trkpt lat="45.51276" lon="6.56601">
        <ele>610.4</ele>
        <time>2021-05-28T11:27:05Z</time>
      </trkpt>
      <trkpt lat="45.51268" lon="6.56597">
        <ele>610.4</ele>
        <time>2021-05-28T11:27:06Z</time>
      </trkpt>
      <trkpt lat="45.5126" lon="6.56592">
        <ele>610.4</ele>
        <time>2021-05-28T11:27:07Z</time>
      </trkpt>
      <trkpt lat="45.51251" lon="6.56588">
        <ele>610</ele>
        <time>2021-05-28T11:27:08Z</time>
      </trkpt>
      <trkpt lat="45.51242" lon="6.56582">
        <ele>609.8</ele>
        <time>2021-05-28T11:27:09Z</time>
      </trkpt>
      <trkpt lat="45.51233" lon="6.56575">
        <ele>609.8</ele>
        <time>2021-05-28T11:27:10Z</time>
      </trkpt>
      <trkpt lat="45.51223" lon="6.56568">
        <ele>608.6</ele>
        <time>2021-05-28T11:27:11Z</time>
      </trkpt>
      <trkpt lat="45.51214" lon="6.56561">
        <ele>607.8</ele>
        <time>2021-05-28T11:27:12Z</time>
      </trkpt>
      <trkpt lat="45.51204" lon="6.56553">
        <ele>606.6</ele>
        <time>2021-05-28T11:27:13Z</time>
      </trkpt>
      <trkpt lat="45.51195" lon="6.56545">
        <ele>605.8</ele>
        <time>2021-05-28T11:27:14Z</time>
      </trkpt>
      <trkpt lat="45.51185" lon="6.56537">
        <ele>604.8</ele>
        <time>2021-05-28T11:27:15Z</time>
      </trkpt>
      <trkpt lat="45.51174" lon="6.5653">
        <ele>604</ele>
        <time>2021-05-28T11:27:16Z</time>
      </trkpt>
      <trkpt lat="45.51162" lon="6.56523">
        <ele>603.2</ele>
        <time>2021-05-28T11:27:17Z</time>
      </trkpt>
      <trkpt lat="45.5115" lon="6.56517">
        <ele>602.6</ele>
        <time>2021-05-28T11:27:18Z</time>
      </trkpt>
      <trkpt lat="45.51137" lon="6.56512">
        <ele>601.8</ele>
        <time>2021-05-28T11:27:19Z</time>
      </trkpt>
      <trkpt lat="45.51124" lon="6.56509">
        <ele>600.8</ele>
        <time>2021-05-28T11:27:20Z</time>
      </trkpt>
      <trkpt lat="45.51109" lon="6.56505">
        <ele>599.6</ele>
        <time>2021-05-28T11:27:21Z</time>
      </trkpt>
      <trkpt lat="45.51095" lon="6.56501">
        <ele>598.2</ele>
        <time>2021-05-28T11:27:22Z</time>
      </trkpt>
      <trkpt lat="45.51082" lon="6.56497">
        <ele>597.4</ele>
        <time>2021-05-28T11:27:23Z</time>
      </trkpt>
      <trkpt lat="45.51067" lon="6.56496">
        <ele>596.6</ele>
        <time>2021-05-28T11:27:24Z</time>
      </trkpt>
      <trkpt lat="45.51054" lon="6.56494">
        <ele>595.8</ele>
        <time>2021-05-28T11:27:25Z</time>
      </trkpt>
      <trkpt lat="45.51041" lon="6.56492">
        <ele>595</ele>
        <time>2021-05-28T11:27:26Z</time>
      </trkpt>
      <trkpt lat="45.51027" lon="6.56492">
        <ele>594.4</ele>
        <time>2021-05-28T11:27:27Z</time>
      </trkpt>
      <trkpt lat="45.51013" lon="6.56494">
        <ele>594.4</ele>
        <time>2021-05-28T11:27:28Z</time>
      </trkpt>
      <trkpt lat="45.50999" lon="6.56495">
        <ele>593.8</ele>
        <time>2021-05-28T11:27:29Z</time>
      </trkpt>
      <trkpt lat="45.50985" lon="6.56497">
        <ele>593.6</ele>
        <time>2021-05-28T11:27:30Z</time>
      </trkpt>
      <trkpt lat="45.5097" lon="6.56499">
        <ele>592.6</ele>
        <time>2021-05-28T11:27:31Z</time>
      </trkpt>
      <trkpt lat="45.50956" lon="6.56501">
        <ele>591.6</ele>
        <time>2021-05-28T11:27:32Z</time>
      </trkpt>
      <trkpt lat="45.50942" lon="6.56503">
        <ele>590.6</ele>
        <time>2021-05-28T11:27:33Z</time>
      </trkpt>
      <trkpt lat="45.50927" lon="6.56505">
        <ele>589.8</ele>
        <time>2021-05-28T11:27:34Z</time>
      </trkpt>
      <trkpt lat="45.50914" lon="6.56506">
        <ele>588.8</ele>
        <time>2021-05-28T11:27:35Z</time>
      </trkpt>
      <trkpt lat="45.509" lon="6.56507">
        <ele>588</ele>
        <time>2021-05-28T11:27:36Z</time>
      </trkpt>
      <trkpt lat="45.50885" lon="6.56507">
        <ele>586.8</ele>
        <time>2021-05-28T11:27:37Z</time>
      </trkpt>
      <trkpt lat="45.50871" lon="6.56507">
        <ele>585.8</ele>
        <time>2021-05-28T11:27:38Z</time>
      </trkpt>
      <trkpt lat="45.50856" lon="6.56505">
        <ele>584.6</ele>
        <time>2021-05-28T11:27:39Z</time>
      </trkpt>
      <trkpt lat="45.50842" lon="6.56502">
        <ele>583.6</ele>
        <time>2021-05-28T11:27:40Z</time>
      </trkpt>
      <trkpt lat="45.50828" lon="6.56497">
        <ele>582.6</ele>
        <time>2021-05-28T11:27:41Z</time>
      </trkpt>
      <trkpt lat="45.50814" lon="6.56492">
        <ele>581.8</ele>
        <time>2021-05-28T11:27:42Z</time>
      </trkpt>
      <trkpt lat="45.508" lon="6.56486">
        <ele>580.8</ele>
        <time>2021-05-28T11:27:43Z</time>
      </trkpt>
      <trkpt lat="45.50787" lon="6.56478">
        <ele>579.8</ele>
        <time>2021-05-28T11:27:44Z</time>
      </trkpt>
      <trkpt lat="45.50774" lon="6.56469">
        <ele>579</ele>
        <time>2021-05-28T11:27:45Z</time>
      </trkpt>
      <trkpt lat="45.50762" lon="6.56459">
        <ele>578.6</ele>
        <time>2021-05-28T11:27:46Z</time>
      </trkpt>
      <trkpt lat="45.50749" lon="6.56449">
        <ele>577.6</ele>
        <time>2021-05-28T11:27:47Z</time>
      </trkpt>
      <trkpt lat="45.50738" lon="6.56438">
        <ele>576.8</ele>
        <time>2021-05-28T11:27:48Z</time>
      </trkpt>
      <trkpt lat="45.50726" lon="6.56427">
        <ele>575.8</ele>
        <time>2021-05-28T11:27:49Z</time>
      </trkpt>
      <trkpt lat="45.50715" lon="6.56416">
        <ele>575.2</ele>
        <time>2021-05-28T11:27:50Z</time>
      </trkpt>
      <trkpt lat="45.50704" lon="6.56405">
        <ele>574.6</ele>
        <time>2021-05-28T11:27:51Z</time>
      </trkpt>
      <trkpt lat="45.50693" lon="6.56394">
        <ele>574</ele>
        <time>2021-05-28T11:27:52Z</time>
      </trkpt>
      <trkpt lat="45.50682" lon="6.56385">
        <ele>573.8</ele>
        <time>2021-05-28T11:27:53Z</time>
      </trkpt>
      <trkpt lat="45.50671" lon="6.56377">
        <ele>573.6</ele>
        <time>2021-05-28T11:27:54Z</time>
      </trkpt>
      <trkpt lat="45.50661" lon="6.56369">
        <ele>573.6</ele>
        <time>2021-05-28T11:27:55Z</time>
      </trkpt>
      <trkpt lat="45.50651" lon="6.56361">
        <ele>573</ele>
        <time>2021-05-28T11:27:56Z</time>
      </trkpt>
      <trkpt lat="45.50641" lon="6.56355">
        <ele>572.2</ele>
        <time>2021-05-28T11:27:57Z</time>
      </trkpt>
      <trkpt lat="45.50631" lon="6.5635">
        <ele>572.6</ele>
        <time>2021-05-28T11:27:58Z</time>
      </trkpt>
      <trkpt lat="45.5062" lon="6.56346">
        <ele>572.2</ele>
        <time>2021-05-28T11:27:59Z</time>
      </trkpt>
      <trkpt lat="45.5061" lon="6.56343">
        <ele>572</ele>
        <time>2021-05-28T11:28:00Z</time>
      </trkpt>
      <trkpt lat="45.506" lon="6.5634">
        <ele>572</ele>
        <time>2021-05-28T11:28:01Z</time>
      </trkpt>
      <trkpt lat="45.5059" lon="6.56337">
        <ele>572</ele>
        <time>2021-05-28T11:28:02Z</time>
      </trkpt>
      <trkpt lat="45.5058" lon="6.56335">
        <ele>572.4</ele>
        <time>2021-05-28T11:28:03Z</time>
      </trkpt>
      <trkpt lat="45.50569" lon="6.56334">
        <ele>572.8</ele>
        <time>2021-05-28T11:28:04Z</time>
      </trkpt>
      <trkpt lat="45.5056" lon="6.56333">
        <ele>573</ele>
        <time>2021-05-28T11:28:05Z</time>
      </trkpt>
      <trkpt lat="45.5055" lon="6.56332">
        <ele>573</ele>
        <time>2021-05-28T11:28:06Z</time>
      </trkpt>
      <trkpt lat="45.50541" lon="6.5633">
        <ele>572.8</ele>
        <time>2021-05-28T11:28:07Z</time>
      </trkpt>
      <trkpt lat="45.50532" lon="6.56329">
        <ele>572.8</ele>
        <time>2021-05-28T11:28:08Z</time>
      </trkpt>
      <trkpt lat="45.50523" lon="6.56327">
        <ele>572.4</ele>
        <time>2021-05-28T11:28:09Z</time>
      </trkpt>
      <trkpt lat="45.50514" lon="6.56326">
        <ele>573.2</ele>
        <time>2021-05-28T11:28:10Z</time>
      </trkpt>
      <trkpt lat="45.50505" lon="6.56325">
        <ele>573</ele>
        <time>2021-05-28T11:28:11Z</time>
      </trkpt>
      <trkpt lat="45.50495" lon="6.56324">
        <ele>572.8</ele>
        <time>2021-05-28T11:28:12Z</time>
      </trkpt>
      <trkpt lat="45.50487" lon="6.56323">
        <ele>572.8</ele>
        <time>2021-05-28T11:28:13Z</time>
      </trkpt>
      <trkpt lat="45.50478" lon="6.56322">
        <ele>572.4</ele>
        <time>2021-05-28T11:28:14Z</time>
      </trkpt>
      <trkpt lat="45.50468" lon="6.56322">
        <ele>572</ele>
        <time>2021-05-28T11:28:15Z</time>
      </trkpt>
      <trkpt lat="45.50459" lon="6.56321">
        <ele>572</ele>
        <time>2021-05-28T11:28:16Z</time>
      </trkpt>
      <trkpt lat="45.5045" lon="6.56321">
        <ele>571.6</ele>
        <time>2021-05-28T11:28:17Z</time>
      </trkpt>
      <trkpt lat="45.50441" lon="6.5632">
        <ele>571.2</ele>
        <time>2021-05-28T11:28:18Z</time>
      </trkpt>
      <trkpt lat="45.50431" lon="6.56319">
        <ele>571.2</ele>
        <time>2021-05-28T11:28:19Z</time>
      </trkpt>
      <trkpt lat="45.50421" lon="6.56319">
        <ele>570.8</ele>
        <time>2021-05-28T11:28:20Z</time>
      </trkpt>
      <trkpt lat="45.50412" lon="6.56319">
        <ele>570.6</ele>
        <time>2021-05-28T11:28:21Z</time>
      </trkpt>
      <trkpt lat="45.50403" lon="6.56318">
        <ele>570</ele>
        <time>2021-05-28T11:28:22Z</time>
      </trkpt>
      <trkpt lat="45.50394" lon="6.56317">
        <ele>570</ele>
        <time>2021-05-28T11:28:23Z</time>
      </trkpt>
      <trkpt lat="45.50385" lon="6.56315">
        <ele>570</ele>
        <time>2021-05-28T11:28:24Z</time>
      </trkpt>
      <trkpt lat="45.50375" lon="6.56314">
        <ele>569.8</ele>
        <time>2021-05-28T11:28:25Z</time>
      </trkpt>
      <trkpt lat="45.50365" lon="6.56313">
        <ele>569.8</ele>
        <time>2021-05-28T11:28:26Z</time>
      </trkpt>
      <trkpt lat="45.50355" lon="6.56313">
        <ele>569.6</ele>
        <time>2021-05-28T11:28:27Z</time>
      </trkpt>
      <trkpt lat="45.50344" lon="6.56313">
        <ele>568.8</ele>
        <time>2021-05-28T11:28:28Z</time>
      </trkpt>
      <trkpt lat="45.50334" lon="6.56312">
        <ele>568.4</ele>
        <time>2021-05-28T11:28:29Z</time>
      </trkpt>
      <trkpt lat="45.50324" lon="6.5631">
        <ele>568.2</ele>
        <time>2021-05-28T11:28:30Z</time>
      </trkpt>
      <trkpt lat="45.50313" lon="6.56307">
        <ele>567.8</ele>
        <time>2021-05-28T11:28:31Z</time>
      </trkpt>
      <trkpt lat="45.50302" lon="6.56303">
        <ele>567.4</ele>
        <time>2021-05-28T11:28:32Z</time>
      </trkpt>
      <trkpt lat="45.50292" lon="6.56298">
        <ele>566.8</ele>
        <time>2021-05-28T11:28:33Z</time>
      </trkpt>
      <trkpt lat="45.50282" lon="6.56291">
        <ele>566.4</ele>
        <time>2021-05-28T11:28:34Z</time>
      </trkpt>
      <trkpt lat="45.5027" lon="6.56285">
        <ele>566</ele>
        <time>2021-05-28T11:28:35Z</time>
      </trkpt>
      <trkpt lat="45.5026" lon="6.56278">
        <ele>565.8</ele>
        <time>2021-05-28T11:28:36Z</time>
      </trkpt>
      <trkpt lat="45.50249" lon="6.5627">
        <ele>565.6</ele>
        <time>2021-05-28T11:28:37Z</time>
      </trkpt>
      <trkpt lat="45.50238" lon="6.5626">
        <ele>565</ele>
        <time>2021-05-28T11:28:38Z</time>
      </trkpt>
      <trkpt lat="45.50228" lon="6.5625">
        <ele>563</ele>
        <time>2021-05-28T11:28:39Z</time>
      </trkpt>
      <trkpt lat="45.50218" lon="6.56239">
        <ele>562</ele>
        <time>2021-05-28T11:28:40Z</time>
      </trkpt>
      <trkpt lat="45.50209" lon="6.56228">
        <ele>561.6</ele>
        <time>2021-05-28T11:28:41Z</time>
      </trkpt>
      <trkpt lat="45.50198" lon="6.56217">
        <ele>560.6</ele>
        <time>2021-05-28T11:28:42Z</time>
      </trkpt>
      <trkpt lat="45.50188" lon="6.56206">
        <ele>559.6</ele>
        <time>2021-05-28T11:28:43Z</time>
      </trkpt>
      <trkpt lat="45.50178" lon="6.56195">
        <ele>558.2</ele>
        <time>2021-05-28T11:28:44Z</time>
      </trkpt>
      <trkpt lat="45.50167" lon="6.56184">
        <ele>557.2</ele>
        <time>2021-05-28T11:28:45Z</time>
      </trkpt>
      <trkpt lat="45.50156" lon="6.56173">
        <ele>556.2</ele>
        <time>2021-05-28T11:28:46Z</time>
      </trkpt>
      <trkpt lat="45.50147" lon="6.56161">
        <ele>555.6</ele>
        <time>2021-05-28T11:28:47Z</time>
      </trkpt>
      <trkpt lat="45.50136" lon="6.5615">
        <ele>554.6</ele>
        <time>2021-05-28T11:28:48Z</time>
      </trkpt>
      <trkpt lat="45.50125" lon="6.56139">
        <ele>553.8</ele>
        <time>2021-05-28T11:28:49Z</time>
      </trkpt>
      <trkpt lat="45.50115" lon="6.56127">
        <ele>552.8</ele>
        <time>2021-05-28T11:28:50Z</time>
      </trkpt>
      <trkpt lat="45.50105" lon="6.56116">
        <ele>552.2</ele>
        <time>2021-05-28T11:28:51Z</time>
      </trkpt>
      <trkpt lat="45.50094" lon="6.56105">
        <ele>551</ele>
        <time>2021-05-28T11:28:52Z</time>
      </trkpt>
      <trkpt lat="45.50084" lon="6.56094">
        <ele>550</ele>
        <time>2021-05-28T11:28:53Z</time>
      </trkpt>
      <trkpt lat="45.50074" lon="6.56082">
        <ele>549</ele>
        <time>2021-05-28T11:28:54Z</time>
      </trkpt>
      <trkpt lat="45.50064" lon="6.5607">
        <ele>548</ele>
        <time>2021-05-28T11:28:55Z</time>
      </trkpt>
      <trkpt lat="45.50053" lon="6.56059">
        <ele>546.8</ele>
        <time>2021-05-28T11:28:56Z</time>
      </trkpt>
      <trkpt lat="45.50044" lon="6.56047">
        <ele>545.8</ele>
        <time>2021-05-28T11:28:57Z</time>
      </trkpt>
      <trkpt lat="45.50033" lon="6.56036">
        <ele>545.2</ele>
        <time>2021-05-28T11:28:58Z</time>
      </trkpt>
      <trkpt lat="45.50022" lon="6.56025">
        <ele>544.2</ele>
        <time>2021-05-28T11:28:59Z</time>
      </trkpt>
      <trkpt lat="45.50012" lon="6.56014">
        <ele>543.2</ele>
        <time>2021-05-28T11:29:00Z</time>
      </trkpt>
      <trkpt lat="45.50002" lon="6.56002">
        <ele>542.2</ele>
        <time>2021-05-28T11:29:01Z</time>
      </trkpt>
      <trkpt lat="45.49992" lon="6.55991">
        <ele>541.2</ele>
        <time>2021-05-28T11:29:02Z</time>
      </trkpt>
      <trkpt lat="45.49982" lon="6.55979">
        <ele>540.2</ele>
        <time>2021-05-28T11:29:03Z</time>
      </trkpt>
      <trkpt lat="45.49972" lon="6.55967">
        <ele>539.8</ele>
        <time>2021-05-28T11:29:04Z</time>
      </trkpt>
      <trkpt lat="45.49963" lon="6.55955">
        <ele>539</ele>
        <time>2021-05-28T11:29:05Z</time>
      </trkpt>
      <trkpt lat="45.49953" lon="6.55942">
        <ele>537.4</ele>
        <time>2021-05-28T11:29:06Z</time>
      </trkpt>
      <trkpt lat="45.49943" lon="6.5593">
        <ele>536</ele>
        <time>2021-05-28T11:29:07Z</time>
      </trkpt>
      <trkpt lat="45.49934" lon="6.55918">
        <ele>535.4</ele>
        <time>2021-05-28T11:29:08Z</time>
      </trkpt>
      <trkpt lat="45.49924" lon="6.55905">
        <ele>534.6</ele>
        <time>2021-05-28T11:29:09Z</time>
      </trkpt>
      <trkpt lat="45.49915" lon="6.55893">
        <ele>533.4</ele>
        <time>2021-05-28T11:29:10Z</time>
      </trkpt>
      <trkpt lat="45.49905" lon="6.5588">
        <ele>532.6</ele>
        <time>2021-05-28T11:29:11Z</time>
      </trkpt>
      <trkpt lat="45.49897" lon="6.55867">
        <ele>531.4</ele>
        <time>2021-05-28T11:29:12Z</time>
      </trkpt>
      <trkpt lat="45.49888" lon="6.55853">
        <ele>530.8</ele>
        <time>2021-05-28T11:29:13Z</time>
      </trkpt>
      <trkpt lat="45.49879" lon="6.5584">
        <ele>530</ele>
        <time>2021-05-28T11:29:14Z</time>
      </trkpt>
      <trkpt lat="45.49869" lon="6.55827">
        <ele>529</ele>
        <time>2021-05-28T11:29:15Z</time>
      </trkpt>
      <trkpt lat="45.49861" lon="6.55814">
        <ele>528</ele>
        <time>2021-05-28T11:29:16Z</time>
      </trkpt>
      <trkpt lat="45.49852" lon="6.558">
        <ele>527.4</ele>
        <time>2021-05-28T11:29:17Z</time>
      </trkpt>
      <trkpt lat="45.49843" lon="6.55786">
        <ele>526.2</ele>
        <time>2021-05-28T11:29:18Z</time>
      </trkpt>
      <trkpt lat="45.49835" lon="6.55773">
        <ele>525.8</ele>
        <time>2021-05-28T11:29:19Z</time>
      </trkpt>
      <trkpt lat="45.49826" lon="6.55759">
        <ele>524.8</ele>
        <time>2021-05-28T11:29:20Z</time>
      </trkpt>
      <trkpt lat="45.49817" lon="6.55746">
        <ele>524.2</ele>
        <time>2021-05-28T11:29:21Z</time>
      </trkpt>
      <trkpt lat="45.49808" lon="6.55732">
        <ele>523.4</ele>
        <time>2021-05-28T11:29:22Z</time>
      </trkpt>
      <trkpt lat="45.49799" lon="6.55718">
        <ele>522.2</ele>
        <time>2021-05-28T11:29:23Z</time>
      </trkpt>
      <trkpt lat="45.4979" lon="6.55705">
        <ele>521.8</ele>
        <time>2021-05-28T11:29:24Z</time>
      </trkpt>
      <trkpt lat="45.49781" lon="6.55691">
        <ele>520.8</ele>
        <time>2021-05-28T11:29:25Z</time>
      </trkpt>
      <trkpt lat="45.49772" lon="6.55678">
        <ele>520</ele>
        <time>2021-05-28T11:29:26Z</time>
      </trkpt>
      <trkpt lat="45.49763" lon="6.55664">
        <ele>519</ele>
        <time>2021-05-28T11:29:27Z</time>
      </trkpt>
      <trkpt lat="45.49754" lon="6.55651">
        <ele>518.6</ele>
        <time>2021-05-28T11:29:28Z</time>
      </trkpt>
      <trkpt lat="45.49745" lon="6.55638">
        <ele>517.4</ele>
        <time>2021-05-28T11:29:29Z</time>
      </trkpt>
      <trkpt lat="45.49736" lon="6.55624">
        <ele>516.6</ele>
        <time>2021-05-28T11:29:30Z</time>
      </trkpt>
      <trkpt lat="45.49727" lon="6.55612">
        <ele>515.8</ele>
        <time>2021-05-28T11:29:31Z</time>
      </trkpt>
      <trkpt lat="45.49718" lon="6.55599">
        <ele>515</ele>
        <time>2021-05-28T11:29:32Z</time>
      </trkpt>
      <trkpt lat="45.49709" lon="6.55588">
        <ele>514</ele>
        <time>2021-05-28T11:29:33Z</time>
      </trkpt>
      <trkpt lat="45.497" lon="6.55577">
        <ele>513.4</ele>
        <time>2021-05-28T11:29:34Z</time>
      </trkpt>
      <trkpt lat="45.49691" lon="6.55566">
        <ele>512.8</ele>
        <time>2021-05-28T11:29:35Z</time>
      </trkpt>
      <trkpt lat="45.49682" lon="6.55555">
        <ele>512</ele>
        <time>2021-05-28T11:29:36Z</time>
      </trkpt>
      <trkpt lat="45.49674" lon="6.55545">
        <ele>511.6</ele>
        <time>2021-05-28T11:29:37Z</time>
      </trkpt>
      <trkpt lat="45.49664" lon="6.55535">
        <ele>511</ele>
        <time>2021-05-28T11:29:38Z</time>
      </trkpt>
      <trkpt lat="45.49655" lon="6.55526">
        <ele>510.4</ele>
        <time>2021-05-28T11:29:39Z</time>
      </trkpt>
      <trkpt lat="45.49647" lon="6.55516">
        <ele>510.2</ele>
        <time>2021-05-28T11:29:40Z</time>
      </trkpt>
      <trkpt lat="45.49639" lon="6.55506">
        <ele>509.8</ele>
        <time>2021-05-28T11:29:41Z</time>
      </trkpt>
      <trkpt lat="45.4963" lon="6.55495">
        <ele>508</ele>
        <time>2021-05-28T11:29:42Z</time>
      </trkpt>
      <trkpt lat="45.49622" lon="6.55485">
        <ele>508.6</ele>
        <time>2021-05-28T11:29:43Z</time>
      </trkpt>
      <trkpt lat="45.49614" lon="6.55475">
        <ele>508.2</ele>
        <time>2021-05-28T11:29:44Z</time>
      </trkpt>
      <trkpt lat="45.49607" lon="6.55465">
        <ele>508</ele>
        <time>2021-05-28T11:29:45Z</time>
      </trkpt>
      <trkpt lat="45.496" lon="6.55454">
        <ele>508.2</ele>
        <time>2021-05-28T11:29:46Z</time>
      </trkpt>
      <trkpt lat="45.49594" lon="6.55443">
        <ele>508</ele>
        <time>2021-05-28T11:29:47Z</time>
      </trkpt>
      <trkpt lat="45.49588" lon="6.55433">
        <ele>508.2</ele>
        <time>2021-05-28T11:29:48Z</time>
      </trkpt>
      <trkpt lat="45.49581" lon="6.55422">
        <ele>508</ele>
        <time>2021-05-28T11:29:49Z</time>
      </trkpt>
      <trkpt lat="45.49575" lon="6.55412">
        <ele>507.8</ele>
        <time>2021-05-28T11:29:50Z</time>
      </trkpt>
      <trkpt lat="45.49569" lon="6.55401">
        <ele>507.6</ele>
        <time>2021-05-28T11:29:51Z</time>
      </trkpt>
      <trkpt lat="45.49563" lon="6.55392">
        <ele>507.2</ele>
        <time>2021-05-28T11:29:52Z</time>
      </trkpt>
      <trkpt lat="45.49557" lon="6.55383">
        <ele>506.8</ele>
        <time>2021-05-28T11:29:53Z</time>
      </trkpt>
      <trkpt lat="45.4955" lon="6.55374">
        <ele>507</ele>
        <time>2021-05-28T11:29:54Z</time>
      </trkpt>
      <trkpt lat="45.49543" lon="6.55366">
        <ele>506.6</ele>
        <time>2021-05-28T11:29:55Z</time>
      </trkpt>
      <trkpt lat="45.49536" lon="6.55359">
        <ele>506.6</ele>
        <time>2021-05-28T11:29:56Z</time>
      </trkpt>
      <trkpt lat="45.49529" lon="6.55352">
        <ele>506.4</ele>
        <time>2021-05-28T11:29:57Z</time>
      </trkpt>
      <trkpt lat="45.49521" lon="6.55345">
        <ele>506.6</ele>
        <time>2021-05-28T11:29:58Z</time>
      </trkpt>
      <trkpt lat="45.49514" lon="6.55338">
        <ele>506.8</ele>
        <time>2021-05-28T11:29:59Z</time>
      </trkpt>
      <trkpt lat="45.49506" lon="6.55331">
        <ele>506.8</ele>
        <time>2021-05-28T11:30:00Z</time>
      </trkpt>
      <trkpt lat="45.49498" lon="6.55324">
        <ele>506.6</ele>
        <time>2021-05-28T11:30:01Z</time>
      </trkpt>
      <trkpt lat="45.4949" lon="6.55317">
        <ele>506.4</ele>
        <time>2021-05-28T11:30:02Z</time>
      </trkpt>
      <trkpt lat="45.49482" lon="6.5531">
        <ele>506</ele>
        <time>2021-05-28T11:30:03Z</time>
      </trkpt>
      <trkpt lat="45.49475" lon="6.55302">
        <ele>505.8</ele>
        <time>2021-05-28T11:30:04Z</time>
      </trkpt>
      <trkpt lat="45.49468" lon="6.55295">
        <ele>505.4</ele>
        <time>2021-05-28T11:30:05Z</time>
      </trkpt>
      <trkpt lat="45.4946" lon="6.55288">
        <ele>505.4</ele>
        <time>2021-05-28T11:30:06Z</time>
      </trkpt>
      <trkpt lat="45.49452" lon="6.55281">
        <ele>505</ele>
        <time>2021-05-28T11:30:07Z</time>
      </trkpt>
      <trkpt lat="45.49444" lon="6.55273">
        <ele>504.6</ele>
        <time>2021-05-28T11:30:08Z</time>
      </trkpt>
      <trkpt lat="45.49436" lon="6.55266">
        <ele>504.2</ele>
        <time>2021-05-28T11:30:09Z</time>
      </trkpt>
      <trkpt lat="45.49428" lon="6.55259">
        <ele>503.6</ele>
        <time>2021-05-28T11:30:10Z</time>
      </trkpt>
      <trkpt lat="45.4942" lon="6.55251">
        <ele>503.6</ele>
        <time>2021-05-28T11:30:11Z</time>
      </trkpt>
      <trkpt lat="45.49412" lon="6.55244">
        <ele>503.2</ele>
        <time>2021-05-28T11:30:12Z</time>
      </trkpt>
      <trkpt lat="45.49405" lon="6.55237">
        <ele>502.4</ele>
        <time>2021-05-28T11:30:13Z</time>
      </trkpt>
      <trkpt lat="45.49397" lon="6.55229">
        <ele>502</ele>
        <time>2021-05-28T11:30:14Z</time>
      </trkpt>
      <trkpt lat="45.49389" lon="6.55222">
        <ele>501.6</ele>
        <time>2021-05-28T11:30:15Z</time>
      </trkpt>
      <trkpt lat="45.49381" lon="6.55215">
        <ele>500.8</ele>
        <time>2021-05-28T11:30:16Z</time>
      </trkpt>
      <trkpt lat="45.49373" lon="6.55208">
        <ele>500.8</ele>
        <time>2021-05-28T11:30:17Z</time>
      </trkpt>
      <trkpt lat="45.49365" lon="6.552">
        <ele>500.6</ele>
        <time>2021-05-28T11:30:18Z</time>
      </trkpt>
      <trkpt lat="45.49357" lon="6.55193">
        <ele>501</ele>
        <time>2021-05-28T11:30:19Z</time>
      </trkpt>
      <trkpt lat="45.49349" lon="6.55186">
        <ele>501</ele>
        <time>2021-05-28T11:30:20Z</time>
      </trkpt>
      <trkpt lat="45.49341" lon="6.55179">
        <ele>501.2</ele>
        <time>2021-05-28T11:30:21Z</time>
      </trkpt>
      <trkpt lat="45.49333" lon="6.55172">
        <ele>500.6</ele>
        <time>2021-05-28T11:30:22Z</time>
      </trkpt>
      <trkpt lat="45.49325" lon="6.55164">
        <ele>500.6</ele>
        <time>2021-05-28T11:30:23Z</time>
      </trkpt>
      <trkpt lat="45.49317" lon="6.55157">
        <ele>500.2</ele>
        <time>2021-05-28T11:30:24Z</time>
      </trkpt>
      <trkpt lat="45.4931" lon="6.5515">
        <ele>499.4</ele>
        <time>2021-05-28T11:30:25Z</time>
      </trkpt>
      <trkpt lat="45.49303" lon="6.55143">
        <ele>499.6</ele>
        <time>2021-05-28T11:30:26Z</time>
      </trkpt>
      <trkpt lat="45.49295" lon="6.55136">
        <ele>500.2</ele>
        <time>2021-05-28T11:30:27Z</time>
      </trkpt>
      <trkpt lat="45.49288" lon="6.55129">
        <ele>500.8</ele>
        <time>2021-05-28T11:30:28Z</time>
      </trkpt>
      <trkpt lat="45.49281" lon="6.55123">
        <ele>500.6</ele>
        <time>2021-05-28T11:30:29Z</time>
      </trkpt>
      <trkpt lat="45.49273" lon="6.55117">
        <ele>500.2</ele>
        <time>2021-05-28T11:30:30Z</time>
      </trkpt>
      <trkpt lat="45.49266" lon="6.5511">
        <ele>500.2</ele>
        <time>2021-05-28T11:30:31Z</time>
      </trkpt>
      <trkpt lat="45.49258" lon="6.55104">
        <ele>499.6</ele>
        <time>2021-05-28T11:30:32Z</time>
      </trkpt>
      <trkpt lat="45.49251" lon="6.55098">
        <ele>499.8</ele>
        <time>2021-05-28T11:30:33Z</time>
      </trkpt>
      <trkpt lat="45.49243" lon="6.55093">
        <ele>499.8</ele>
        <time>2021-05-28T11:30:34Z</time>
      </trkpt>
      <trkpt lat="45.49236" lon="6.55087">
        <ele>500.2</ele>
        <time>2021-05-28T11:30:35Z</time>
      </trkpt>
      <trkpt lat="45.49228" lon="6.55082">
        <ele>499.6</ele>
        <time>2021-05-28T11:30:36Z</time>
      </trkpt>
      <trkpt lat="45.4922" lon="6.55078">
        <ele>499.6</ele>
        <time>2021-05-28T11:30:37Z</time>
      </trkpt>
      <trkpt lat="45.49212" lon="6.55075">
        <ele>499.2</ele>
        <time>2021-05-28T11:30:38Z</time>
      </trkpt>
      <trkpt lat="45.49204" lon="6.55071">
        <ele>499.2</ele>
        <time>2021-05-28T11:30:39Z</time>
      </trkpt>
      <trkpt lat="45.49196" lon="6.55067">
        <ele>498.8</ele>
        <time>2021-05-28T11:30:40Z</time>
      </trkpt>
      <trkpt lat="45.49189" lon="6.55063">
        <ele>498.6</ele>
        <time>2021-05-28T11:30:41Z</time>
      </trkpt>
      <trkpt lat="45.49181" lon="6.5506">
        <ele>498.4</ele>
        <time>2021-05-28T11:30:42Z</time>
      </trkpt>
      <trkpt lat="45.49174" lon="6.55056">
        <ele>498.2</ele>
        <time>2021-05-28T11:30:43Z</time>
      </trkpt>
      <trkpt lat="45.49167" lon="6.55052">
        <ele>498.2</ele>
        <time>2021-05-28T11:30:44Z</time>
      </trkpt>
      <trkpt lat="45.4916" lon="6.55049">
        <ele>498.4</ele>
        <time>2021-05-28T11:30:45Z</time>
      </trkpt>
      <trkpt lat="45.49154" lon="6.55045">
        <ele>498.6</ele>
        <time>2021-05-28T11:30:46Z</time>
      </trkpt>
      <trkpt lat="45.49147" lon="6.55042">
        <ele>498.2</ele>
        <time>2021-05-28T11:30:47Z</time>
      </trkpt>
      <trkpt lat="45.4914" lon="6.55039">
        <ele>499.2</ele>
        <time>2021-05-28T11:30:48Z</time>
      </trkpt>
      <trkpt lat="45.49133" lon="6.55036">
        <ele>499.6</ele>
        <time>2021-05-28T11:30:49Z</time>
      </trkpt>
      <trkpt lat="45.49126" lon="6.55032">
        <ele>499.6</ele>
        <time>2021-05-28T11:30:50Z</time>
      </trkpt>
      <trkpt lat="45.4912" lon="6.55029">
        <ele>499.4</ele>
        <time>2021-05-28T11:30:51Z</time>
      </trkpt>
      <trkpt lat="45.49114" lon="6.55026">
        <ele>499.6</ele>
        <time>2021-05-28T11:30:52Z</time>
      </trkpt>
      <trkpt lat="45.49107" lon="6.55023">
        <ele>499.8</ele>
        <time>2021-05-28T11:30:53Z</time>
      </trkpt>
      <trkpt lat="45.491" lon="6.55019">
        <ele>500.2</ele>
        <time>2021-05-28T11:30:54Z</time>
      </trkpt>
      <trkpt lat="45.49094" lon="6.55015">
        <ele>500.4</ele>
        <time>2021-05-28T11:30:55Z</time>
      </trkpt>
      <trkpt lat="45.49088" lon="6.55011">
        <ele>500.4</ele>
        <time>2021-05-28T11:30:56Z</time>
      </trkpt>
      <trkpt lat="45.49082" lon="6.55006">
        <ele>500</ele>
        <time>2021-05-28T11:30:57Z</time>
      </trkpt>
      <trkpt lat="45.49076" lon="6.55001">
        <ele>500.4</ele>
        <time>2021-05-28T11:30:58Z</time>
      </trkpt>
      <trkpt lat="45.4907" lon="6.54996">
        <ele>500.6</ele>
        <time>2021-05-28T11:30:59Z</time>
      </trkpt>
      <trkpt lat="45.49065" lon="6.54991">
        <ele>500.6</ele>
        <time>2021-05-28T11:31:00Z</time>
      </trkpt>
      <trkpt lat="45.49059" lon="6.54986">
        <ele>501</ele>
        <time>2021-05-28T11:31:01Z</time>
      </trkpt>
      <trkpt lat="45.49054" lon="6.54981">
        <ele>500.8</ele>
        <time>2021-05-28T11:31:02Z</time>
      </trkpt>
      <trkpt lat="45.49049" lon="6.54975">
        <ele>501.2</ele>
        <time>2021-05-28T11:31:03Z</time>
      </trkpt>
      <trkpt lat="45.49044" lon="6.54969">
        <ele>501.6</ele>
        <time>2021-05-28T11:31:04Z</time>
      </trkpt>
      <trkpt lat="45.49038" lon="6.54962">
        <ele>501.8</ele>
        <time>2021-05-28T11:31:05Z</time>
      </trkpt>
      <trkpt lat="45.49033" lon="6.54956">
        <ele>501.6</ele>
        <time>2021-05-28T11:31:06Z</time>
      </trkpt>
      <trkpt lat="45.49029" lon="6.5495">
        <ele>502.2</ele>
        <time>2021-05-28T11:31:07Z</time>
      </trkpt>
      <trkpt lat="45.49024" lon="6.54943">
        <ele>503</ele>
        <time>2021-05-28T11:31:08Z</time>
      </trkpt>
      <trkpt lat="45.49019" lon="6.54937">
        <ele>503.2</ele>
        <time>2021-05-28T11:31:09Z</time>
      </trkpt>
      <trkpt lat="45.49013" lon="6.54931">
        <ele>503.4</ele>
        <time>2021-05-28T11:31:10Z</time>
      </trkpt>
      <trkpt lat="45.49009" lon="6.54924">
        <ele>503.6</ele>
        <time>2021-05-28T11:31:11Z</time>
      </trkpt>
      <trkpt lat="45.49004" lon="6.54917">
        <ele>503.6</ele>
        <time>2021-05-28T11:31:12Z</time>
      </trkpt>
      <trkpt lat="45.48999" lon="6.5491">
        <ele>504.4</ele>
        <time>2021-05-28T11:31:13Z</time>
      </trkpt>
      <trkpt lat="45.48994" lon="6.54903">
        <ele>503.8</ele>
        <time>2021-05-28T11:31:14Z</time>
      </trkpt>
      <trkpt lat="45.48989" lon="6.54896">
        <ele>504</ele>
        <time>2021-05-28T11:31:15Z</time>
      </trkpt>
      <trkpt lat="45.48983" lon="6.54889">
        <ele>503.6</ele>
        <time>2021-05-28T11:31:16Z</time>
      </trkpt>
      <trkpt lat="45.48978" lon="6.54882">
        <ele>503.8</ele>
        <time>2021-05-28T11:31:17Z</time>
      </trkpt>
      <trkpt lat="45.48972" lon="6.54875">
        <ele>503.6</ele>
        <time>2021-05-28T11:31:18Z</time>
      </trkpt>
      <trkpt lat="45.48966" lon="6.54867">
        <ele>504</ele>
        <time>2021-05-28T11:31:19Z</time>
      </trkpt>
      <trkpt lat="45.48961" lon="6.5486">
        <ele>503.6</ele>
        <time>2021-05-28T11:31:20Z</time>
      </trkpt>
      <trkpt lat="45.48955" lon="6.54852">
        <ele>503.8</ele>
        <time>2021-05-28T11:31:21Z</time>
      </trkpt>
      <trkpt lat="45.48949" lon="6.54845">
        <ele>504</ele>
        <time>2021-05-28T11:31:22Z</time>
      </trkpt>
      <trkpt lat="45.48943" lon="6.54838">
        <ele>504.4</ele>
        <time>2021-05-28T11:31:23Z</time>
      </trkpt>
      <trkpt lat="45.48938" lon="6.5483">
        <ele>504.6</ele>
        <time>2021-05-28T11:31:24Z</time>
      </trkpt>
      <trkpt lat="45.48932" lon="6.54822">
        <ele>504.6</ele>
        <time>2021-05-28T11:31:25Z</time>
      </trkpt>
      <trkpt lat="45.48926" lon="6.54815">
        <ele>504</ele>
        <time>2021-05-28T11:31:26Z</time>
      </trkpt>
      <trkpt lat="45.4892" lon="6.54808">
        <ele>504.4</ele>
        <time>2021-05-28T11:31:27Z</time>
      </trkpt>
      <trkpt lat="45.48914" lon="6.548">
        <ele>503.8</ele>
        <time>2021-05-28T11:31:28Z</time>
      </trkpt>
      <trkpt lat="45.48908" lon="6.54792">
        <ele>503.4</ele>
        <time>2021-05-28T11:31:29Z</time>
      </trkpt>
      <trkpt lat="45.48902" lon="6.54784">
        <ele>503.8</ele>
        <time>2021-05-28T11:31:30Z</time>
      </trkpt>
      <trkpt lat="45.48896" lon="6.54777">
        <ele>503</ele>
        <time>2021-05-28T11:31:31Z</time>
      </trkpt>
      <trkpt lat="45.48889" lon="6.5477">
        <ele>502.4</ele>
        <time>2021-05-28T11:31:32Z</time>
      </trkpt>
      <trkpt lat="45.48883" lon="6.54762">
        <ele>502.2</ele>
        <time>2021-05-28T11:31:33Z</time>
      </trkpt>
      <trkpt lat="45.48877" lon="6.54753">
        <ele>501.8</ele>
        <time>2021-05-28T11:31:34Z</time>
      </trkpt>
      <trkpt lat="45.48871" lon="6.54745">
        <ele>501.4</ele>
        <time>2021-05-28T11:31:35Z</time>
      </trkpt>
      <trkpt lat="45.48865" lon="6.54737">
        <ele>501.2</ele>
        <time>2021-05-28T11:31:36Z</time>
      </trkpt>
      <trkpt lat="45.48859" lon="6.54728">
        <ele>500.8</ele>
        <time>2021-05-28T11:31:37Z</time>
      </trkpt>
      <trkpt lat="45.48853" lon="6.54719">
        <ele>500.8</ele>
        <time>2021-05-28T11:31:38Z</time>
      </trkpt>
      <trkpt lat="45.48847" lon="6.54711">
        <ele>500.6</ele>
        <time>2021-05-28T11:31:39Z</time>
      </trkpt>
      <trkpt lat="45.48841" lon="6.54703">
        <ele>501</ele>
        <time>2021-05-28T11:31:40Z</time>
      </trkpt>
      <trkpt lat="45.48835" lon="6.54695">
        <ele>501.2</ele>
        <time>2021-05-28T11:31:41Z</time>
      </trkpt>
      <trkpt lat="45.48828" lon="6.54688">
        <ele>500</ele>
        <time>2021-05-28T11:31:42Z</time>
      </trkpt>
      <trkpt lat="45.48822" lon="6.54681">
        <ele>499.2</ele>
        <time>2021-05-28T11:31:43Z</time>
      </trkpt>
      <trkpt lat="45.48814" lon="6.54674">
        <ele>499</ele>
        <time>2021-05-28T11:31:44Z</time>
      </trkpt>
      <trkpt lat="45.48807" lon="6.54667">
        <ele>499</ele>
        <time>2021-05-28T11:31:45Z</time>
      </trkpt>
      <trkpt lat="45.48801" lon="6.5466">
        <ele>498.8</ele>
        <time>2021-05-28T11:31:46Z</time>
      </trkpt>
      <trkpt lat="45.48795" lon="6.54652">
        <ele>498.8</ele>
        <time>2021-05-28T11:31:47Z</time>
      </trkpt>
      <trkpt lat="45.48788" lon="6.54645">
        <ele>498.8</ele>
        <time>2021-05-28T11:31:48Z</time>
      </trkpt>
      <trkpt lat="45.48782" lon="6.54637">
        <ele>498.4</ele>
        <time>2021-05-28T11:31:49Z</time>
      </trkpt>
      <trkpt lat="45.48775" lon="6.5463">
        <ele>498</ele>
        <time>2021-05-28T11:31:50Z</time>
      </trkpt>
      <trkpt lat="45.48769" lon="6.54622">
        <ele>497.4</ele>
        <time>2021-05-28T11:31:51Z</time>
      </trkpt>
      <trkpt lat="45.48763" lon="6.54615">
        <ele>497</ele>
        <time>2021-05-28T11:31:52Z</time>
      </trkpt>
      <trkpt lat="45.48756" lon="6.54608">
        <ele>497.2</ele>
        <time>2021-05-28T11:31:53Z</time>
      </trkpt>
      <trkpt lat="45.48749" lon="6.54601">
        <ele>496.6</ele>
        <time>2021-05-28T11:31:54Z</time>
      </trkpt>
      <trkpt lat="45.48742" lon="6.54594">
        <ele>496</ele>
        <time>2021-05-28T11:31:55Z</time>
      </trkpt>
      <trkpt lat="45.48735" lon="6.54587">
        <ele>496.2</ele>
        <time>2021-05-28T11:31:56Z</time>
      </trkpt>
      <trkpt lat="45.48727" lon="6.5458">
        <ele>496.2</ele>
        <time>2021-05-28T11:31:57Z</time>
      </trkpt>
      <trkpt lat="45.4872" lon="6.54573">
        <ele>496.2</ele>
        <time>2021-05-28T11:31:58Z</time>
      </trkpt>
      <trkpt lat="45.48713" lon="6.54566">
        <ele>496.4</ele>
        <time>2021-05-28T11:31:59Z</time>
      </trkpt>
      <trkpt lat="45.48706" lon="6.5456">
        <ele>496</ele>
        <time>2021-05-28T11:32:00Z</time>
      </trkpt>
      <trkpt lat="45.48699" lon="6.54553">
        <ele>495.2</ele>
        <time>2021-05-28T11:32:01Z</time>
      </trkpt>
      <trkpt lat="45.48691" lon="6.54546">
        <ele>495</ele>
        <time>2021-05-28T11:32:02Z</time>
      </trkpt>
      <trkpt lat="45.48684" lon="6.54539">
        <ele>494.8</ele>
        <time>2021-05-28T11:32:03Z</time>
      </trkpt>
      <trkpt lat="45.48676" lon="6.54532">
        <ele>494.8</ele>
        <time>2021-05-28T11:32:04Z</time>
      </trkpt>
      <trkpt lat="45.48668" lon="6.54525">
        <ele>494.6</ele>
        <time>2021-05-28T11:32:05Z</time>
      </trkpt>
      <trkpt lat="45.48661" lon="6.54519">
        <ele>494.8</ele>
        <time>2021-05-28T11:32:06Z</time>
      </trkpt>
      <trkpt lat="45.48653" lon="6.54511">
        <ele>494.8</ele>
        <time>2021-05-28T11:32:07Z</time>
      </trkpt>
      <trkpt lat="45.48645" lon="6.54504">
        <ele>494.6</ele>
        <time>2021-05-28T11:32:08Z</time>
      </trkpt>
      <trkpt lat="45.48637" lon="6.54497">
        <ele>494.8</ele>
        <time>2021-05-28T11:32:09Z</time>
      </trkpt>
      <trkpt lat="45.4863" lon="6.54491">
        <ele>494.8</ele>
        <time>2021-05-28T11:32:10Z</time>
      </trkpt>
      <trkpt lat="45.48622" lon="6.54484">
        <ele>494.8</ele>
        <time>2021-05-28T11:32:11Z</time>
      </trkpt>
      <trkpt lat="45.48614" lon="6.54476">
        <ele>494.6</ele>
        <time>2021-05-28T11:32:12Z</time>
      </trkpt>
      <trkpt lat="45.48607" lon="6.54468">
        <ele>494.6</ele>
        <time>2021-05-28T11:32:13Z</time>
      </trkpt>
      <trkpt lat="45.48599" lon="6.54461">
        <ele>494.2</ele>
        <time>2021-05-28T11:32:14Z</time>
      </trkpt>
      <trkpt lat="45.48592" lon="6.54453">
        <ele>494</ele>
        <time>2021-05-28T11:32:15Z</time>
      </trkpt>
      <trkpt lat="45.48584" lon="6.54446">
        <ele>493.8</ele>
        <time>2021-05-28T11:32:16Z</time>
      </trkpt>
      <trkpt lat="45.48577" lon="6.54437">
        <ele>493.6</ele>
        <time>2021-05-28T11:32:17Z</time>
      </trkpt>
      <trkpt lat="45.4857" lon="6.54429">
        <ele>493.4</ele>
        <time>2021-05-28T11:32:18Z</time>
      </trkpt>
      <trkpt lat="45.48562" lon="6.54421">
        <ele>493</ele>
        <time>2021-05-28T11:32:19Z</time>
      </trkpt>
      <trkpt lat="45.48555" lon="6.54413">
        <ele>493.2</ele>
        <time>2021-05-28T11:32:20Z</time>
      </trkpt>
      <trkpt lat="45.48548" lon="6.54405">
        <ele>493.2</ele>
        <time>2021-05-28T11:32:21Z</time>
      </trkpt>
      <trkpt lat="45.4854" lon="6.54397">
        <ele>493.8</ele>
        <time>2021-05-28T11:32:22Z</time>
      </trkpt>
      <trkpt lat="45.48534" lon="6.54389">
        <ele>493.4</ele>
        <time>2021-05-28T11:32:23Z</time>
      </trkpt>
      <trkpt lat="45.48527" lon="6.54381">
        <ele>492.8</ele>
        <time>2021-05-28T11:32:24Z</time>
      </trkpt>
      <trkpt lat="45.48521" lon="6.54371">
        <ele>492.4</ele>
        <time>2021-05-28T11:32:25Z</time>
      </trkpt>
      <trkpt lat="45.48515" lon="6.54362">
        <ele>492.4</ele>
        <time>2021-05-28T11:32:26Z</time>
      </trkpt>
      <trkpt lat="45.48509" lon="6.54352">
        <ele>492.4</ele>
        <time>2021-05-28T11:32:27Z</time>
      </trkpt>
      <trkpt lat="45.48503" lon="6.54342">
        <ele>492.4</ele>
        <time>2021-05-28T11:32:28Z</time>
      </trkpt>
      <trkpt lat="45.48498" lon="6.54331">
        <ele>491.8</ele>
        <time>2021-05-28T11:32:29Z</time>
      </trkpt>
      <trkpt lat="45.48493" lon="6.54321">
        <ele>491.4</ele>
        <time>2021-05-28T11:32:30Z</time>
      </trkpt>
      <trkpt lat="45.48489" lon="6.5431">
        <ele>491.6</ele>
        <time>2021-05-28T11:32:31Z</time>
      </trkpt>
      <trkpt lat="45.48485" lon="6.54298">
        <ele>491.4</ele>
        <time>2021-05-28T11:32:32Z</time>
      </trkpt>
      <trkpt lat="45.48481" lon="6.54286">
        <ele>491.2</ele>
        <time>2021-05-28T11:32:33Z</time>
      </trkpt>
      <trkpt lat="45.48478" lon="6.54274">
        <ele>491.4</ele>
        <time>2021-05-28T11:32:34Z</time>
      </trkpt>
      <trkpt lat="45.48475" lon="6.54262">
        <ele>490.8</ele>
        <time>2021-05-28T11:32:35Z</time>
      </trkpt>
      <trkpt lat="45.48472" lon="6.5425">
        <ele>490</ele>
        <time>2021-05-28T11:32:36Z</time>
      </trkpt>
      <trkpt lat="45.4847" lon="6.54238">
        <ele>489</ele>
        <time>2021-05-28T11:32:37Z</time>
      </trkpt>
      <trkpt lat="45.48468" lon="6.54225">
        <ele>488.4</ele>
        <time>2021-05-28T11:32:38Z</time>
      </trkpt>
      <trkpt lat="45.48466" lon="6.54213">
        <ele>488.6</ele>
        <time>2021-05-28T11:32:39Z</time>
      </trkpt>
      <trkpt lat="45.48465" lon="6.542">
        <ele>488.4</ele>
        <time>2021-05-28T11:32:40Z</time>
      </trkpt>
      <trkpt lat="45.48463" lon="6.54188">
        <ele>487.2</ele>
        <time>2021-05-28T11:32:41Z</time>
      </trkpt>
      <trkpt lat="45.48463" lon="6.54175">
        <ele>486.2</ele>
        <time>2021-05-28T11:32:42Z</time>
      </trkpt>
      <trkpt lat="45.48463" lon="6.54161">
        <ele>485.8</ele>
        <time>2021-05-28T11:32:43Z</time>
      </trkpt>
      <trkpt lat="45.48463" lon="6.54147">
        <ele>485.8</ele>
        <time>2021-05-28T11:32:44Z</time>
      </trkpt>
      <trkpt lat="45.48464" lon="6.54134">
        <ele>486</ele>
        <time>2021-05-28T11:32:45Z</time>
      </trkpt>
      <trkpt lat="45.48465" lon="6.5412">
        <ele>486.6</ele>
        <time>2021-05-28T11:32:46Z</time>
      </trkpt>
      <trkpt lat="45.48466" lon="6.54105">
        <ele>487</ele>
        <time>2021-05-28T11:32:47Z</time>
      </trkpt>
      <trkpt lat="45.48468" lon="6.54091">
        <ele>486.8</ele>
        <time>2021-05-28T11:32:48Z</time>
      </trkpt>
      <trkpt lat="45.48469" lon="6.54077">
        <ele>486.2</ele>
        <time>2021-05-28T11:32:49Z</time>
      </trkpt>
      <trkpt lat="45.4847" lon="6.54064">
        <ele>486.8</ele>
        <time>2021-05-28T11:32:50Z</time>
      </trkpt>
      <trkpt lat="45.48471" lon="6.54049">
        <ele>487</ele>
        <time>2021-05-28T11:32:51Z</time>
      </trkpt>
      <trkpt lat="45.48472" lon="6.54035">
        <ele>487.2</ele>
        <time>2021-05-28T11:32:52Z</time>
      </trkpt>
      <trkpt lat="45.48473" lon="6.54019">
        <ele>487.4</ele>
        <time>2021-05-28T11:32:53Z</time>
      </trkpt>
      <trkpt lat="45.48472" lon="6.54004">
        <ele>487.6</ele>
        <time>2021-05-28T11:32:54Z</time>
      </trkpt>
      <trkpt lat="45.48471" lon="6.53988">
        <ele>487.6</ele>
        <time>2021-05-28T11:32:55Z</time>
      </trkpt>
      <trkpt lat="45.48469" lon="6.53973">
        <ele>487.4</ele>
        <time>2021-05-28T11:32:56Z</time>
      </trkpt>
      <trkpt lat="45.48467" lon="6.53958">
        <ele>487.4</ele>
        <time>2021-05-28T11:32:57Z</time>
      </trkpt>
      <trkpt lat="45.48463" lon="6.53944">
        <ele>487.6</ele>
        <time>2021-05-28T11:32:58Z</time>
      </trkpt>
      <trkpt lat="45.4846" lon="6.53931">
        <ele>487.4</ele>
        <time>2021-05-28T11:32:59Z</time>
      </trkpt>
      <trkpt lat="45.48455" lon="6.53918">
        <ele>487.2</ele>
        <time>2021-05-28T11:33:00Z</time>
      </trkpt>
      <trkpt lat="45.48451" lon="6.53905">
        <ele>487.8</ele>
        <time>2021-05-28T11:33:01Z</time>
      </trkpt>
      <trkpt lat="45.48446" lon="6.53893">
        <ele>487.6</ele>
        <time>2021-05-28T11:33:02Z</time>
      </trkpt>
      <trkpt lat="45.4844" lon="6.53882">
        <ele>487.4</ele>
        <time>2021-05-28T11:33:03Z</time>
      </trkpt>
      <trkpt lat="45.48434" lon="6.53871">
        <ele>486.8</ele>
        <time>2021-05-28T11:33:04Z</time>
      </trkpt>
      <trkpt lat="45.48427" lon="6.53862">
        <ele>486.6</ele>
        <time>2021-05-28T11:33:05Z</time>
      </trkpt>
      <trkpt lat="45.4842" lon="6.53853">
        <ele>486.8</ele>
        <time>2021-05-28T11:33:06Z</time>
      </trkpt>
      <trkpt lat="45.48412" lon="6.53844">
        <ele>486.6</ele>
        <time>2021-05-28T11:33:07Z</time>
      </trkpt>
      <trkpt lat="45.48404" lon="6.53837">
        <ele>486.6</ele>
        <time>2021-05-28T11:33:08Z</time>
      </trkpt>
      <trkpt lat="45.48397" lon="6.53829">
        <ele>486.4</ele>
        <time>2021-05-28T11:33:09Z</time>
      </trkpt>
      <trkpt lat="45.48389" lon="6.53821">
        <ele>486.4</ele>
        <time>2021-05-28T11:33:10Z</time>
      </trkpt>
      <trkpt lat="45.48382" lon="6.53813">
        <ele>486.2</ele>
        <time>2021-05-28T11:33:11Z</time>
      </trkpt>
      <trkpt lat="45.48375" lon="6.53804">
        <ele>486.8</ele>
        <time>2021-05-28T11:33:12Z</time>
      </trkpt>
      <trkpt lat="45.48369" lon="6.53795">
        <ele>486.8</ele>
        <time>2021-05-28T11:33:13Z</time>
      </trkpt>
      <trkpt lat="45.48362" lon="6.53787">
        <ele>486.6</ele>
        <time>2021-05-28T11:33:14Z</time>
      </trkpt>
      <trkpt lat="45.48356" lon="6.5378">
        <ele>486.4</ele>
        <time>2021-05-28T11:33:15Z</time>
      </trkpt>
      <trkpt lat="45.4835" lon="6.53772">
        <ele>486.4</ele>
        <time>2021-05-28T11:33:16Z</time>
      </trkpt>
      <trkpt lat="45.48344" lon="6.53764">
        <ele>486.8</ele>
        <time>2021-05-28T11:33:17Z</time>
      </trkpt>
      <trkpt lat="45.48339" lon="6.53755">
        <ele>486.2</ele>
        <time>2021-05-28T11:33:18Z</time>
      </trkpt>
      <trkpt lat="45.48334" lon="6.53746">
        <ele>485.8</ele>
        <time>2021-05-28T11:33:19Z</time>
      </trkpt>
      <trkpt lat="45.48328" lon="6.53736">
        <ele>485</ele>
        <time>2021-05-28T11:33:20Z</time>
      </trkpt>
      <trkpt lat="45.48324" lon="6.53727">
        <ele>484.8</ele>
        <time>2021-05-28T11:33:21Z</time>
      </trkpt>
      <trkpt lat="45.48318" lon="6.53718">
        <ele>484.4</ele>
        <time>2021-05-28T11:33:22Z</time>
      </trkpt>
      <trkpt lat="45.48314" lon="6.53708">
        <ele>484.4</ele>
        <time>2021-05-28T11:33:23Z</time>
      </trkpt>
      <trkpt lat="45.48309" lon="6.53697">
        <ele>484.2</ele>
        <time>2021-05-28T11:33:24Z</time>
      </trkpt>
      <trkpt lat="45.48306" lon="6.53687">
        <ele>484.4</ele>
        <time>2021-05-28T11:33:25Z</time>
      </trkpt>
      <trkpt lat="45.48301" lon="6.53676">
        <ele>484.2</ele>
        <time>2021-05-28T11:33:26Z</time>
      </trkpt>
      <trkpt lat="45.48298" lon="6.53666">
        <ele>482.8</ele>
        <time>2021-05-28T11:33:27Z</time>
      </trkpt>
      <trkpt lat="45.48294" lon="6.53655">
        <ele>482.6</ele>
        <time>2021-05-28T11:33:28Z</time>
      </trkpt>
      <trkpt lat="45.48291" lon="6.53643">
        <ele>482.6</ele>
        <time>2021-05-28T11:33:29Z</time>
      </trkpt>
      <trkpt lat="45.48288" lon="6.53631">
        <ele>482.2</ele>
        <time>2021-05-28T11:33:30Z</time>
      </trkpt>
      <trkpt lat="45.48285" lon="6.53619">
        <ele>482.2</ele>
        <time>2021-05-28T11:33:31Z</time>
      </trkpt>
      <trkpt lat="45.48283" lon="6.53607">
        <ele>482</ele>
        <time>2021-05-28T11:33:32Z</time>
      </trkpt>
      <trkpt lat="45.4828" lon="6.53594">
        <ele>481.4</ele>
        <time>2021-05-28T11:33:33Z</time>
      </trkpt>
      <trkpt lat="45.48278" lon="6.53582">
        <ele>481.4</ele>
        <time>2021-05-28T11:33:34Z</time>
      </trkpt>
      <trkpt lat="45.48276" lon="6.53569">
        <ele>481.2</ele>
        <time>2021-05-28T11:33:35Z</time>
      </trkpt>
      <trkpt lat="45.48274" lon="6.53557">
        <ele>480.8</ele>
        <time>2021-05-28T11:33:36Z</time>
      </trkpt>
      <trkpt lat="45.48273" lon="6.53544">
        <ele>480.4</ele>
        <time>2021-05-28T11:33:37Z</time>
      </trkpt>
      <trkpt lat="45.48271" lon="6.53531">
        <ele>480.4</ele>
        <time>2021-05-28T11:33:38Z</time>
      </trkpt>
      <trkpt lat="45.48269" lon="6.53518">
        <ele>480.2</ele>
        <time>2021-05-28T11:33:39Z</time>
      </trkpt>
      <trkpt lat="45.48268" lon="6.53506">
        <ele>479.8</ele>
        <time>2021-05-28T11:33:40Z</time>
      </trkpt>
      <trkpt lat="45.48266" lon="6.53493">
        <ele>479</ele>
        <time>2021-05-28T11:33:41Z</time>
      </trkpt>
      <trkpt lat="45.48264" lon="6.53482">
        <ele>478.6</ele>
        <time>2021-05-28T11:33:42Z</time>
      </trkpt>
      <trkpt lat="45.48262" lon="6.5347">
        <ele>478.2</ele>
        <time>2021-05-28T11:33:43Z</time>
      </trkpt>
      <trkpt lat="45.48261" lon="6.53458">
        <ele>478</ele>
        <time>2021-05-28T11:33:44Z</time>
      </trkpt>
      <trkpt lat="45.48259" lon="6.53446">
        <ele>477.8</ele>
        <time>2021-05-28T11:33:45Z</time>
      </trkpt>
      <trkpt lat="45.48258" lon="6.53433">
        <ele>478.4</ele>
        <time>2021-05-28T11:33:46Z</time>
      </trkpt>
      <trkpt lat="45.48256" lon="6.53422">
        <ele>478.8</ele>
        <time>2021-05-28T11:33:47Z</time>
      </trkpt>
      <trkpt lat="45.48254" lon="6.53412">
        <ele>479.2</ele>
        <time>2021-05-28T11:33:48Z</time>
      </trkpt>
      <trkpt lat="45.48253" lon="6.53402">
        <ele>479.2</ele>
        <time>2021-05-28T11:33:49Z</time>
      </trkpt>
      <trkpt lat="45.48252" lon="6.53392">
        <ele>479.2</ele>
        <time>2021-05-28T11:33:50Z</time>
      </trkpt>
      <trkpt lat="45.48251" lon="6.53381">
        <ele>479.2</ele>
        <time>2021-05-28T11:33:51Z</time>
      </trkpt>
      <trkpt lat="45.48249" lon="6.53371">
        <ele>479.2</ele>
        <time>2021-05-28T11:33:52Z</time>
      </trkpt>
      <trkpt lat="45.48248" lon="6.53361">
        <ele>479.2</ele>
        <time>2021-05-28T11:33:53Z</time>
      </trkpt>
      <trkpt lat="45.48246" lon="6.53351">
        <ele>479.6</ele>
        <time>2021-05-28T11:33:54Z</time>
      </trkpt>
      <trkpt lat="45.48245" lon="6.53341">
        <ele>479.8</ele>
        <time>2021-05-28T11:33:55Z</time>
      </trkpt>
      <trkpt lat="45.48244" lon="6.53331">
        <ele>480.2</ele>
        <time>2021-05-28T11:33:56Z</time>
      </trkpt>
      <trkpt lat="45.48243" lon="6.53321">
        <ele>480.4</ele>
        <time>2021-05-28T11:33:57Z</time>
      </trkpt>
      <trkpt lat="45.48241" lon="6.53311">
        <ele>480.4</ele>
        <time>2021-05-28T11:33:58Z</time>
      </trkpt>
      <trkpt lat="45.48234" lon="6.53243">
        <ele>479.2</ele>
        <time>2021-05-28T11:34:05Z</time>
      </trkpt>
      <trkpt lat="45.48233" lon="6.53233">
        <ele>479.4</ele>
        <time>2021-05-28T11:34:06Z</time>
      </trkpt>
      <trkpt lat="45.48231" lon="6.53223">
        <ele>479.4</ele>
        <time>2021-05-28T11:34:07Z</time>
      </trkpt>
      <trkpt lat="45.48231" lon="6.53214">
        <ele>479.6</ele>
        <time>2021-05-28T11:34:08Z</time>
      </trkpt>
      <trkpt lat="45.48229" lon="6.53205">
        <ele>479.4</ele>
        <time>2021-05-28T11:34:09Z</time>
      </trkpt>
      <trkpt lat="45.48228" lon="6.53195">
        <ele>479.6</ele>
        <time>2021-05-28T11:34:10Z</time>
      </trkpt>
      <trkpt lat="45.48226" lon="6.53186">
        <ele>479.2</ele>
        <time>2021-05-28T11:34:11Z</time>
      </trkpt>
      <trkpt lat="45.48224" lon="6.53175">
        <ele>479.4</ele>
        <time>2021-05-28T11:34:12Z</time>
      </trkpt>
      <trkpt lat="45.48222" lon="6.53165">
        <ele>480.4</ele>
        <time>2021-05-28T11:34:13Z</time>
      </trkpt>
      <trkpt lat="45.48221" lon="6.53155">
        <ele>480.8</ele>
        <time>2021-05-28T11:34:14Z</time>
      </trkpt>
      <trkpt lat="45.4822" lon="6.53144">
        <ele>481</ele>
        <time>2021-05-28T11:34:15Z</time>
      </trkpt>
      <trkpt lat="45.48219" lon="6.53133">
        <ele>481</ele>
        <time>2021-05-28T11:34:16Z</time>
      </trkpt>
      <trkpt lat="45.48218" lon="6.53122">
        <ele>480.4</ele>
        <time>2021-05-28T11:34:17Z</time>
      </trkpt>
      <trkpt lat="45.48217" lon="6.53112">
        <ele>480</ele>
        <time>2021-05-28T11:34:18Z</time>
      </trkpt>
      <trkpt lat="45.48215" lon="6.531">
        <ele>479.8</ele>
        <time>2021-05-28T11:34:19Z</time>
      </trkpt>
      <trkpt lat="45.48214" lon="6.53089">
        <ele>479.8</ele>
        <time>2021-05-28T11:34:20Z</time>
      </trkpt>
      <trkpt lat="45.48213" lon="6.53077">
        <ele>479.2</ele>
        <time>2021-05-28T11:34:21Z</time>
      </trkpt>
      <trkpt lat="45.48211" lon="6.53065">
        <ele>479</ele>
        <time>2021-05-28T11:34:22Z</time>
      </trkpt>
      <trkpt lat="45.48209" lon="6.53052">
        <ele>478.6</ele>
        <time>2021-05-28T11:34:23Z</time>
      </trkpt>
      <trkpt lat="45.48206" lon="6.5304">
        <ele>478.4</ele>
        <time>2021-05-28T11:34:24Z</time>
      </trkpt>
      <trkpt lat="45.48203" lon="6.53027">
        <ele>478</ele>
        <time>2021-05-28T11:34:25Z</time>
      </trkpt>
      <trkpt lat="45.48198" lon="6.53016">
        <ele>477.6</ele>
        <time>2021-05-28T11:34:26Z</time>
      </trkpt>
      <trkpt lat="45.48193" lon="6.53004">
        <ele>477</ele>
        <time>2021-05-28T11:34:27Z</time>
      </trkpt>
      <trkpt lat="45.48189" lon="6.52992">
        <ele>477</ele>
        <time>2021-05-28T11:34:28Z</time>
      </trkpt>
      <trkpt lat="45.48185" lon="6.52981">
        <ele>476.6</ele>
        <time>2021-05-28T11:34:29Z</time>
      </trkpt>
      <trkpt lat="45.48181" lon="6.52971">
        <ele>476.4</ele>
        <time>2021-05-28T11:34:30Z</time>
      </trkpt>
      <trkpt lat="45.48177" lon="6.52961">
        <ele>475.8</ele>
        <time>2021-05-28T11:34:31Z</time>
      </trkpt>
      <trkpt lat="45.48172" lon="6.52952">
        <ele>475.8</ele>
        <time>2021-05-28T11:34:32Z</time>
      </trkpt>
      <trkpt lat="45.48168" lon="6.52943">
        <ele>475.2</ele>
        <time>2021-05-28T11:34:33Z</time>
      </trkpt>
      <trkpt lat="45.48164" lon="6.52934">
        <ele>474.8</ele>
        <time>2021-05-28T11:34:34Z</time>
      </trkpt>
      <trkpt lat="45.48161" lon="6.52925">
        <ele>474.6</ele>
        <time>2021-05-28T11:34:35Z</time>
      </trkpt>
      <trkpt lat="45.48158" lon="6.52917">
        <ele>474.4</ele>
        <time>2021-05-28T11:34:36Z</time>
      </trkpt>
      <trkpt lat="45.48155" lon="6.52911">
        <ele>474.4</ele>
        <time>2021-05-28T11:34:37Z</time>
      </trkpt>
      <trkpt lat="45.48152" lon="6.52904">
        <ele>474.4</ele>
        <time>2021-05-28T11:34:38Z</time>
      </trkpt>
      <trkpt lat="45.48149" lon="6.52897">
        <ele>474.2</ele>
        <time>2021-05-28T11:34:39Z</time>
      </trkpt>
      <trkpt lat="45.48146" lon="6.52893">
        <ele>474.4</ele>
        <time>2021-05-28T11:34:40Z</time>
      </trkpt>
      <trkpt lat="45.48142" lon="6.52889">
        <ele>474.2</ele>
        <time>2021-05-28T11:34:41Z</time>
      </trkpt>
      <trkpt lat="45.48139" lon="6.52884">
        <ele>474</ele>
        <time>2021-05-28T11:34:42Z</time>
      </trkpt>
      <trkpt lat="45.48137" lon="6.52879">
        <ele>474</ele>
        <time>2021-05-28T11:34:43Z</time>
      </trkpt>
      <trkpt lat="45.48135" lon="6.52874">
        <ele>474</ele>
        <time>2021-05-28T11:34:44Z</time>
      </trkpt>
      <trkpt lat="45.48133" lon="6.52868">
        <ele>473.8</ele>
        <time>2021-05-28T11:34:45Z</time>
      </trkpt>
      <trkpt lat="45.4813" lon="6.52862">
        <ele>473.8</ele>
        <time>2021-05-28T11:34:46Z</time>
      </trkpt>
      <trkpt lat="45.48126" lon="6.52858">
        <ele>473.6</ele>
        <time>2021-05-28T11:34:47Z</time>
      </trkpt>
      <trkpt lat="45.48122" lon="6.52858">
        <ele>473.4</ele>
        <time>2021-05-28T11:34:48Z</time>
      </trkpt>
      <trkpt lat="45.48118" lon="6.5286">
        <ele>473.2</ele>
        <time>2021-05-28T11:34:49Z</time>
      </trkpt>
      <trkpt lat="45.48114" lon="6.52865">
        <ele>473</ele>
        <time>2021-05-28T11:34:50Z</time>
      </trkpt>
      <trkpt lat="45.48111" lon="6.52871">
        <ele>473</ele>
        <time>2021-05-28T11:34:51Z</time>
      </trkpt>
      <trkpt lat="45.48108" lon="6.52878">
        <ele>473.4</ele>
        <time>2021-05-28T11:34:52Z</time>
      </trkpt>
      <trkpt lat="45.48106" lon="6.52884">
        <ele>473.6</ele>
        <time>2021-05-28T11:34:53Z</time>
      </trkpt>
      <trkpt lat="45.48103" lon="6.5289">
        <ele>474</ele>
        <time>2021-05-28T11:34:54Z</time>
      </trkpt>
      <trkpt lat="45.48099" lon="6.52895">
        <ele>474.6</ele>
        <time>2021-05-28T11:34:55Z</time>
      </trkpt>
      <trkpt lat="45.48095" lon="6.52899">
        <ele>475.2</ele>
        <time>2021-05-28T11:34:56Z</time>
      </trkpt>
      <trkpt lat="45.48091" lon="6.52901">
        <ele>475.4</ele>
        <time>2021-05-28T11:34:57Z</time>
      </trkpt>
      <trkpt lat="45.48088" lon="6.52903">
        <ele>475.8</ele>
        <time>2021-05-28T11:34:58Z</time>
      </trkpt>
      <trkpt lat="45.48085" lon="6.52904">
        <ele>476.2</ele>
        <time>2021-05-28T11:34:59Z</time>
      </trkpt>
      <trkpt lat="45.48083" lon="6.52906">
        <ele>476.4</ele>
        <time>2021-05-28T11:35:00Z</time>
      </trkpt>
      <trkpt lat="45.48079" lon="6.52907">
        <ele>476.6</ele>
        <time>2021-05-28T11:35:01Z</time>
      </trkpt>
      <trkpt lat="45.48077" lon="6.52908">
        <ele>477</ele>
        <time>2021-05-28T11:35:02Z</time>
      </trkpt>
      <trkpt lat="45.48074" lon="6.52908">
        <ele>477.2</ele>
        <time>2021-05-28T11:35:03Z</time>
      </trkpt>
      <trkpt lat="45.48072" lon="6.52908">
        <ele>477.6</ele>
        <time>2021-05-28T11:35:04Z</time>
      </trkpt>
      <trkpt lat="45.48068" lon="6.52909">
        <ele>477.8</ele>
        <time>2021-05-28T11:35:05Z</time>
      </trkpt>
      <trkpt lat="45.48066" lon="6.52909">
        <ele>478</ele>
        <time>2021-05-28T11:35:06Z</time>
      </trkpt>
      <trkpt lat="45.48063" lon="6.52909">
        <ele>478.4</ele>
        <time>2021-05-28T11:35:07Z</time>
      </trkpt>
      <trkpt lat="45.4806" lon="6.52908">
        <ele>478.6</ele>
        <time>2021-05-28T11:35:08Z</time>
      </trkpt>
      <trkpt lat="45.48058" lon="6.52908">
        <ele>478.4</ele>
        <time>2021-05-28T11:35:09Z</time>
      </trkpt>
      <trkpt lat="45.48055" lon="6.52908">
        <ele>478.2</ele>
        <time>2021-05-28T11:35:10Z</time>
      </trkpt>
      <trkpt lat="45.48052" lon="6.52908">
        <ele>477.8</ele>
        <time>2021-05-28T11:35:11Z</time>
      </trkpt>
      <trkpt lat="45.48049" lon="6.52908">
        <ele>477.6</ele>
        <time>2021-05-28T11:35:12Z</time>
      </trkpt>
      <trkpt lat="45.48046" lon="6.52909">
        <ele>477.6</ele>
        <time>2021-05-28T11:35:13Z</time>
      </trkpt>
      <trkpt lat="45.48044" lon="6.52909">
        <ele>477.6</ele>
        <time>2021-05-28T11:35:14Z</time>
      </trkpt>
      <trkpt lat="45.48042" lon="6.52909">
        <ele>478</ele>
        <time>2021-05-28T11:35:15Z</time>
      </trkpt>
      <trkpt lat="45.4804" lon="6.52909">
        <ele>478.2</ele>
        <time>2021-05-28T11:35:16Z</time>
      </trkpt>
      <trkpt lat="45.48037" lon="6.52909">
        <ele>478.2</ele>
        <time>2021-05-28T11:35:17Z</time>
      </trkpt>
      <trkpt lat="45.48036" lon="6.52908">
        <ele>478.2</ele>
        <time>2021-05-28T11:35:18Z</time>
      </trkpt>
      <trkpt lat="45.48033" lon="6.52908">
        <ele>478.4</ele>
        <time>2021-05-28T11:35:19Z</time>
      </trkpt>
      <trkpt lat="45.48031" lon="6.52907">
        <ele>478.6</ele>
        <time>2021-05-28T11:35:20Z</time>
      </trkpt>
      <trkpt lat="45.48029" lon="6.52906">
        <ele>478.6</ele>
        <time>2021-05-28T11:35:21Z</time>
      </trkpt>
      <trkpt lat="45.48026" lon="6.52906">
        <ele>478.8</ele>
        <time>2021-05-28T11:35:22Z</time>
      </trkpt>
      <trkpt lat="45.48024" lon="6.52905">
        <ele>479</ele>
        <time>2021-05-28T11:35:23Z</time>
      </trkpt>
      <trkpt lat="45.48021" lon="6.52904">
        <ele>479</ele>
        <time>2021-05-28T11:35:24Z</time>
      </trkpt>
      <trkpt lat="45.4802" lon="6.52904">
        <ele>479.4</ele>
        <time>2021-05-28T11:35:25Z</time>
      </trkpt>
      <trkpt lat="45.48018" lon="6.52902">
        <ele>479.6</ele>
        <time>2021-05-28T11:35:26Z</time>
      </trkpt>
      <trkpt lat="45.48015" lon="6.52901">
        <ele>479.8</ele>
        <time>2021-05-28T11:35:27Z</time>
      </trkpt>
      <trkpt lat="45.48012" lon="6.529">
        <ele>480.4</ele>
        <time>2021-05-28T11:35:28Z</time>
      </trkpt>
      <trkpt lat="45.4801" lon="6.52899">
        <ele>480.6</ele>
        <time>2021-05-28T11:35:29Z</time>
      </trkpt>
      <trkpt lat="45.48007" lon="6.52898">
        <ele>480.8</ele>
        <time>2021-05-28T11:35:30Z</time>
      </trkpt>
      <trkpt lat="45.48005" lon="6.52898">
        <ele>481.2</ele>
        <time>2021-05-28T11:35:31Z</time>
      </trkpt>
      <trkpt lat="45.48002" lon="6.52898">
        <ele>481.4</ele>
        <time>2021-05-28T11:35:32Z</time>
      </trkpt>
      <trkpt lat="45.48" lon="6.52899">
        <ele>481.6</ele>
        <time>2021-05-28T11:35:33Z</time>
      </trkpt>
      <trkpt lat="45.47997" lon="6.52899">
        <ele>482.2</ele>
        <time>2021-05-28T11:35:34Z</time>
      </trkpt>
      <trkpt lat="45.47995" lon="6.52899">
        <ele>482.6</ele>
        <time>2021-05-28T11:35:35Z</time>
      </trkpt>
      <trkpt lat="45.47993" lon="6.52899">
        <ele>483.2</ele>
        <time>2021-05-28T11:35:36Z</time>
      </trkpt>
      <trkpt lat="45.47991" lon="6.52898">
        <ele>483.8</ele>
        <time>2021-05-28T11:35:37Z</time>
      </trkpt>
      <trkpt lat="45.47988" lon="6.52897">
        <ele>484.6</ele>
        <time>2021-05-28T11:35:38Z</time>
      </trkpt>
      <trkpt lat="45.47986" lon="6.52895">
        <ele>485.2</ele>
        <time>2021-05-28T11:35:39Z</time>
      </trkpt>
      <trkpt lat="45.47984" lon="6.52894">
        <ele>485.6</ele>
        <time>2021-05-28T11:35:40Z</time>
      </trkpt>
      <trkpt lat="45.4798" lon="6.52891">
        <ele>486</ele>
        <time>2021-05-28T11:35:41Z</time>
      </trkpt>
      <trkpt lat="45.47976" lon="6.52891">
        <ele>486.2</ele>
        <time>2021-05-28T11:35:42Z</time>
      </trkpt>
      <trkpt lat="45.47972" lon="6.5289">
        <ele>486.2</ele>
        <time>2021-05-28T11:35:43Z</time>
      </trkpt>
      <trkpt lat="45.47969" lon="6.5289">
        <ele>486.4</ele>
        <time>2021-05-28T11:35:44Z</time>
      </trkpt>
      <trkpt lat="45.47964" lon="6.5289">
        <ele>486.6</ele>
        <time>2021-05-28T11:35:45Z</time>
      </trkpt>
      <trkpt lat="45.47961" lon="6.5289">
        <ele>486.6</ele>
        <time>2021-05-28T11:35:46Z</time>
      </trkpt>
      <trkpt lat="45.47958" lon="6.52889">
        <ele>486.8</ele>
        <time>2021-05-28T11:35:47Z</time>
      </trkpt>
      <trkpt lat="45.47955" lon="6.52888">
        <ele>487</ele>
        <time>2021-05-28T11:35:48Z</time>
      </trkpt>
      <trkpt lat="45.47952" lon="6.52887">
        <ele>487.4</ele>
        <time>2021-05-28T11:35:49Z</time>
      </trkpt>
      <trkpt lat="45.47949" lon="6.52886">
        <ele>488</ele>
        <time>2021-05-28T11:35:50Z</time>
      </trkpt>
      <trkpt lat="45.47946" lon="6.52886">
        <ele>488.6</ele>
        <time>2021-05-28T11:35:51Z</time>
      </trkpt>
      <trkpt lat="45.47943" lon="6.52885">
        <ele>489.2</ele>
        <time>2021-05-28T11:35:52Z</time>
      </trkpt>
      <trkpt lat="45.4794" lon="6.52884">
        <ele>489.8</ele>
        <time>2021-05-28T11:35:53Z</time>
      </trkpt>
      <trkpt lat="45.47937" lon="6.52884">
        <ele>490.6</ele>
        <time>2021-05-28T11:35:54Z</time>
      </trkpt>
      <trkpt lat="45.47934" lon="6.52884">
        <ele>491.2</ele>
        <time>2021-05-28T11:35:55Z</time>
      </trkpt>
      <trkpt lat="45.47931" lon="6.52884">
        <ele>491.6</ele>
        <time>2021-05-28T11:35:56Z</time>
      </trkpt>
      <trkpt lat="45.47928" lon="6.52883">
        <ele>492</ele>
        <time>2021-05-28T11:35:57Z</time>
      </trkpt>
      <trkpt lat="45.47924" lon="6.52882">
        <ele>492.4</ele>
        <time>2021-05-28T11:35:58Z</time>
      </trkpt>
      <trkpt lat="45.47922" lon="6.52881">
        <ele>492.6</ele>
        <time>2021-05-28T11:35:59Z</time>
      </trkpt>
      <trkpt lat="45.47919" lon="6.5288">
        <ele>492.8</ele>
        <time>2021-05-28T11:36:00Z</time>
      </trkpt>
      <trkpt lat="45.47916" lon="6.5288">
        <ele>492.8</ele>
        <time>2021-05-28T11:36:01Z</time>
      </trkpt>
      <trkpt lat="45.47913" lon="6.52879">
        <ele>493.2</ele>
        <time>2021-05-28T11:36:02Z</time>
      </trkpt>
      <trkpt lat="45.4791" lon="6.52878">
        <ele>493.6</ele>
        <time>2021-05-28T11:36:03Z</time>
      </trkpt>
      <trkpt lat="45.47907" lon="6.52878">
        <ele>493.8</ele>
        <time>2021-05-28T11:36:04Z</time>
      </trkpt>
      <trkpt lat="45.47904" lon="6.52877">
        <ele>494.4</ele>
        <time>2021-05-28T11:36:05Z</time>
      </trkpt>
      <trkpt lat="45.47901" lon="6.52876">
        <ele>494.8</ele>
        <time>2021-05-28T11:36:06Z</time>
      </trkpt>
      <trkpt lat="45.47899" lon="6.52876">
        <ele>495.2</ele>
        <time>2021-05-28T11:36:07Z</time>
      </trkpt>
      <trkpt lat="45.47895" lon="6.52875">
        <ele>495.2</ele>
        <time>2021-05-28T11:36:08Z</time>
      </trkpt>
      <trkpt lat="45.47892" lon="6.52875">
        <ele>495.2</ele>
        <time>2021-05-28T11:36:09Z</time>
      </trkpt>
      <trkpt lat="45.47889" lon="6.52875">
        <ele>495.4</ele>
        <time>2021-05-28T11:36:10Z</time>
      </trkpt>
      <trkpt lat="45.47885" lon="6.52874">
        <ele>495.8</ele>
        <time>2021-05-28T11:36:11Z</time>
      </trkpt>
      <trkpt lat="45.47882" lon="6.52874">
        <ele>496.2</ele>
        <time>2021-05-28T11:36:12Z</time>
      </trkpt>
      <trkpt lat="45.47879" lon="6.52873">
        <ele>496.6</ele>
        <time>2021-05-28T11:36:13Z</time>
      </trkpt>
      <trkpt lat="45.47876" lon="6.52873">
        <ele>497</ele>
        <time>2021-05-28T11:36:14Z</time>
      </trkpt>
      <trkpt lat="45.47872" lon="6.52873">
        <ele>497.4</ele>
        <time>2021-05-28T11:36:15Z</time>
      </trkpt>
      <trkpt lat="45.47869" lon="6.52873">
        <ele>497.6</ele>
        <time>2021-05-28T11:36:16Z</time>
      </trkpt>
      <trkpt lat="45.47866" lon="6.52873">
        <ele>497.6</ele>
        <time>2021-05-28T11:36:17Z</time>
      </trkpt>
      <trkpt lat="45.47862" lon="6.52873">
        <ele>497.4</ele>
        <time>2021-05-28T11:36:18Z</time>
      </trkpt>
      <trkpt lat="45.47859" lon="6.52873">
        <ele>497.4</ele>
        <time>2021-05-28T11:36:19Z</time>
      </trkpt>
      <trkpt lat="45.47855" lon="6.52873">
        <ele>497.4</ele>
        <time>2021-05-28T11:36:20Z</time>
      </trkpt>
      <trkpt lat="45.47852" lon="6.52874">
        <ele>497.6</ele>
        <time>2021-05-28T11:36:21Z</time>
      </trkpt>
      <trkpt lat="45.47848" lon="6.52875">
        <ele>498</ele>
        <time>2021-05-28T11:36:22Z</time>
      </trkpt>
      <trkpt lat="45.47844" lon="6.52875">
        <ele>498.4</ele>
        <time>2021-05-28T11:36:23Z</time>
      </trkpt>
      <trkpt lat="45.47841" lon="6.52876">
        <ele>498.8</ele>
        <time>2021-05-28T11:36:24Z</time>
      </trkpt>
      <trkpt lat="45.47837" lon="6.52876">
        <ele>499</ele>
        <time>2021-05-28T11:36:25Z</time>
      </trkpt>
      <trkpt lat="45.47834" lon="6.52876">
        <ele>499.4</ele>
        <time>2021-05-28T11:36:26Z</time>
      </trkpt>
      <trkpt lat="45.47831" lon="6.52876">
        <ele>500</ele>
        <time>2021-05-28T11:36:27Z</time>
      </trkpt>
      <trkpt lat="45.47828" lon="6.52876">
        <ele>500.4</ele>
        <time>2021-05-28T11:36:28Z</time>
      </trkpt>
      <trkpt lat="45.47824" lon="6.52876">
        <ele>501</ele>
        <time>2021-05-28T11:36:29Z</time>
      </trkpt>
      <trkpt lat="45.47821" lon="6.52876">
        <ele>501.4</ele>
        <time>2021-05-28T11:36:30Z</time>
      </trkpt>
      <trkpt lat="45.47818" lon="6.52875">
        <ele>501.6</ele>
        <time>2021-05-28T11:36:31Z</time>
      </trkpt>
      <trkpt lat="45.47815" lon="6.52875">
        <ele>502</ele>
        <time>2021-05-28T11:36:32Z</time>
      </trkpt>
      <trkpt lat="45.47812" lon="6.52875">
        <ele>502.2</ele>
        <time>2021-05-28T11:36:33Z</time>
      </trkpt>
      <trkpt lat="45.47809" lon="6.52875">
        <ele>502.4</ele>
        <time>2021-05-28T11:36:34Z</time>
      </trkpt>
      <trkpt lat="45.47806" lon="6.52875">
        <ele>502.4</ele>
        <time>2021-05-28T11:36:35Z</time>
      </trkpt>
      <trkpt lat="45.47803" lon="6.52875">
        <ele>502.6</ele>
        <time>2021-05-28T11:36:36Z</time>
      </trkpt>
      <trkpt lat="45.478" lon="6.52875">
        <ele>502.8</ele>
        <time>2021-05-28T11:36:37Z</time>
      </trkpt>
      <trkpt lat="45.47796" lon="6.52875">
        <ele>503</ele>
        <time>2021-05-28T11:36:38Z</time>
      </trkpt>
      <trkpt lat="45.47793" lon="6.52875">
        <ele>503.2</ele>
        <time>2021-05-28T11:36:39Z</time>
      </trkpt>
      <trkpt lat="45.4779" lon="6.52875">
        <ele>503</ele>
        <time>2021-05-28T11:36:40Z</time>
      </trkpt>
      <trkpt lat="45.47788" lon="6.52875">
        <ele>502.8</ele>
        <time>2021-05-28T11:36:41Z</time>
      </trkpt>
      <trkpt lat="45.47785" lon="6.52875">
        <ele>502.6</ele>
        <time>2021-05-28T11:36:42Z</time>
      </trkpt>
      <trkpt lat="45.47782" lon="6.52875">
        <ele>502.6</ele>
        <time>2021-05-28T11:36:43Z</time>
      </trkpt>
      <trkpt lat="45.4778" lon="6.52874">
        <ele>502.4</ele>
        <time>2021-05-28T11:36:44Z</time>
      </trkpt>
      <trkpt lat="45.47777" lon="6.52875">
        <ele>502</ele>
        <time>2021-05-28T11:36:45Z</time>
      </trkpt>
      <trkpt lat="45.47774" lon="6.52875">
        <ele>501.8</ele>
        <time>2021-05-28T11:36:46Z</time>
      </trkpt>
      <trkpt lat="45.47771" lon="6.52875">
        <ele>501.8</ele>
        <time>2021-05-28T11:36:47Z</time>
      </trkpt>
      <trkpt lat="45.47768" lon="6.52875">
        <ele>501.6</ele>
        <time>2021-05-28T11:36:48Z</time>
      </trkpt>
      <trkpt lat="45.47765" lon="6.52875">
        <ele>501.6</ele>
        <time>2021-05-28T11:36:49Z</time>
      </trkpt>
      <trkpt lat="45.47762" lon="6.52875">
        <ele>501.6</ele>
        <time>2021-05-28T11:36:50Z</time>
      </trkpt>
      <trkpt lat="45.47759" lon="6.52875">
        <ele>501.6</ele>
        <time>2021-05-28T11:36:51Z</time>
      </trkpt>
      <trkpt lat="45.47756" lon="6.52875">
        <ele>501.6</ele>
        <time>2021-05-28T11:36:52Z</time>
      </trkpt>
      <trkpt lat="45.47753" lon="6.52875">
        <ele>501.8</ele>
        <time>2021-05-28T11:36:53Z</time>
      </trkpt>
      <trkpt lat="45.47749" lon="6.52874">
        <ele>501.8</ele>
        <time>2021-05-28T11:36:54Z</time>
      </trkpt>
      <trkpt lat="45.47746" lon="6.52874">
        <ele>502</ele>
        <time>2021-05-28T11:36:55Z</time>
      </trkpt>
      <trkpt lat="45.47743" lon="6.52874">
        <ele>502.2</ele>
        <time>2021-05-28T11:36:56Z</time>
      </trkpt>
      <trkpt lat="45.4774" lon="6.52875">
        <ele>502.4</ele>
        <time>2021-05-28T11:36:57Z</time>
      </trkpt>
      <trkpt lat="45.47736" lon="6.52874">
        <ele>502.4</ele>
        <time>2021-05-28T11:36:58Z</time>
      </trkpt>
      <trkpt lat="45.47733" lon="6.52874">
        <ele>502.6</ele>
        <time>2021-05-28T11:36:59Z</time>
      </trkpt>
      <trkpt lat="45.4773" lon="6.52875">
        <ele>502.6</ele>
        <time>2021-05-28T11:37:00Z</time>
      </trkpt>
      <trkpt lat="45.47726" lon="6.52874">
        <ele>502.6</ele>
        <time>2021-05-28T11:37:01Z</time>
      </trkpt>
      <trkpt lat="45.47724" lon="6.52874">
        <ele>503</ele>
        <time>2021-05-28T11:37:02Z</time>
      </trkpt>
      <trkpt lat="45.4772" lon="6.52875">
        <ele>503.4</ele>
        <time>2021-05-28T11:37:03Z</time>
      </trkpt>
      <trkpt lat="45.47717" lon="6.52874">
        <ele>503.8</ele>
        <time>2021-05-28T11:37:04Z</time>
      </trkpt>
      <trkpt lat="45.47714" lon="6.52875">
        <ele>504.2</ele>
        <time>2021-05-28T11:37:05Z</time>
      </trkpt>
      <trkpt lat="45.4771" lon="6.52874">
        <ele>504.2</ele>
        <time>2021-05-28T11:37:06Z</time>
      </trkpt>
      <trkpt lat="45.47708" lon="6.52874">
        <ele>504.6</ele>
        <time>2021-05-28T11:37:07Z</time>
      </trkpt>
      <trkpt lat="45.47704" lon="6.52874">
        <ele>504.8</ele>
        <time>2021-05-28T11:37:08Z</time>
      </trkpt>
      <trkpt lat="45.47701" lon="6.52874">
        <ele>505.4</ele>
        <time>2021-05-28T11:37:09Z</time>
      </trkpt>
      <trkpt lat="45.47698" lon="6.52873">
        <ele>506</ele>
        <time>2021-05-28T11:37:10Z</time>
      </trkpt>
      <trkpt lat="45.47695" lon="6.52874">
        <ele>506.6</ele>
        <time>2021-05-28T11:37:11Z</time>
      </trkpt>
      <trkpt lat="45.47692" lon="6.52874">
        <ele>507.2</ele>
        <time>2021-05-28T11:37:12Z</time>
      </trkpt>
      <trkpt lat="45.47689" lon="6.52875">
        <ele>508</ele>
        <time>2021-05-28T11:37:13Z</time>
      </trkpt>
      <trkpt lat="45.47686" lon="6.52875">
        <ele>508.6</ele>
        <time>2021-05-28T11:37:14Z</time>
      </trkpt>
      <trkpt lat="45.47683" lon="6.52875">
        <ele>509.4</ele>
        <time>2021-05-28T11:37:15Z</time>
      </trkpt>
      <trkpt lat="45.47679" lon="6.52876">
        <ele>510</ele>
        <time>2021-05-28T11:37:16Z</time>
      </trkpt>
      <trkpt lat="45.47676" lon="6.52877">
        <ele>510.6</ele>
        <time>2021-05-28T11:37:17Z</time>
      </trkpt>
      <trkpt lat="45.47672" lon="6.52878">
        <ele>511</ele>
        <time>2021-05-28T11:37:18Z</time>
      </trkpt>
      <trkpt lat="45.47669" lon="6.52878">
        <ele>511.2</ele>
        <time>2021-05-28T11:37:19Z</time>
      </trkpt>
      <trkpt lat="45.47665" lon="6.52879">
        <ele>511.6</ele>
        <time>2021-05-28T11:37:20Z</time>
      </trkpt>
      <trkpt lat="45.47662" lon="6.5288">
        <ele>512</ele>
        <time>2021-05-28T11:37:21Z</time>
      </trkpt>
      <trkpt lat="45.47659" lon="6.5288">
        <ele>512.4</ele>
        <time>2021-05-28T11:37:22Z</time>
      </trkpt>
      <trkpt lat="45.47655" lon="6.5288">
        <ele>513.2</ele>
        <time>2021-05-28T11:37:23Z</time>
      </trkpt>
      <trkpt lat="45.47652" lon="6.5288">
        <ele>513.8</ele>
        <time>2021-05-28T11:37:24Z</time>
      </trkpt>
      <trkpt lat="45.47649" lon="6.52881">
        <ele>514.4</ele>
        <time>2021-05-28T11:37:25Z</time>
      </trkpt>
      <trkpt lat="45.47645" lon="6.52881">
        <ele>514.8</ele>
        <time>2021-05-28T11:37:26Z</time>
      </trkpt>
      <trkpt lat="45.47642" lon="6.52882">
        <ele>514.8</ele>
        <time>2021-05-28T11:37:27Z</time>
      </trkpt>
      <trkpt lat="45.47638" lon="6.52883">
        <ele>515</ele>
        <time>2021-05-28T11:37:28Z</time>
      </trkpt>
      <trkpt lat="45.47635" lon="6.52884">
        <ele>515.2</ele>
        <time>2021-05-28T11:37:29Z</time>
      </trkpt>
      <trkpt lat="45.47632" lon="6.52884">
        <ele>515.4</ele>
        <time>2021-05-28T11:37:30Z</time>
      </trkpt>
      <trkpt lat="45.47629" lon="6.52885">
        <ele>515.2</ele>
        <time>2021-05-28T11:37:31Z</time>
      </trkpt>
      <trkpt lat="45.47625" lon="6.52885">
        <ele>515</ele>
        <time>2021-05-28T11:37:32Z</time>
      </trkpt>
      <trkpt lat="45.47622" lon="6.52885">
        <ele>514.8</ele>
        <time>2021-05-28T11:37:33Z</time>
      </trkpt>
      <trkpt lat="45.47619" lon="6.52886">
        <ele>514.8</ele>
        <time>2021-05-28T11:37:34Z</time>
      </trkpt>
      <trkpt lat="45.47615" lon="6.52887">
        <ele>515.2</ele>
        <time>2021-05-28T11:37:35Z</time>
      </trkpt>
      <trkpt lat="45.47611" lon="6.52887">
        <ele>515.6</ele>
        <time>2021-05-28T11:37:36Z</time>
      </trkpt>
      <trkpt lat="45.47608" lon="6.52888">
        <ele>516</ele>
        <time>2021-05-28T11:37:37Z</time>
      </trkpt>
      <trkpt lat="45.47604" lon="6.52889">
        <ele>516.2</ele>
        <time>2021-05-28T11:37:38Z</time>
      </trkpt>
      <trkpt lat="45.47601" lon="6.5289">
        <ele>516.6</ele>
        <time>2021-05-28T11:37:39Z</time>
      </trkpt>
      <trkpt lat="45.47597" lon="6.5289">
        <ele>516.8</ele>
        <time>2021-05-28T11:37:40Z</time>
      </trkpt>
      <trkpt lat="45.47594" lon="6.52891">
        <ele>517.4</ele>
        <time>2021-05-28T11:37:41Z</time>
      </trkpt>
      <trkpt lat="45.47591" lon="6.52891">
        <ele>518</ele>
        <time>2021-05-28T11:37:42Z</time>
      </trkpt>
      <trkpt lat="45.47587" lon="6.52892">
        <ele>518.4</ele>
        <time>2021-05-28T11:37:43Z</time>
      </trkpt>
      <trkpt lat="45.47584" lon="6.52892">
        <ele>518.8</ele>
        <time>2021-05-28T11:37:44Z</time>
      </trkpt>
      <trkpt lat="45.4758" lon="6.52893">
        <ele>518.8</ele>
        <time>2021-05-28T11:37:45Z</time>
      </trkpt>
      <trkpt lat="45.47577" lon="6.52893">
        <ele>518.6</ele>
        <time>2021-05-28T11:37:46Z</time>
      </trkpt>
      <trkpt lat="45.47573" lon="6.52894">
        <ele>518.2</ele>
        <time>2021-05-28T11:37:47Z</time>
      </trkpt>
      <trkpt lat="45.4757" lon="6.52895">
        <ele>518</ele>
        <time>2021-05-28T11:37:48Z</time>
      </trkpt>
      <trkpt lat="45.47566" lon="6.52896">
        <ele>517.6</ele>
        <time>2021-05-28T11:37:49Z</time>
      </trkpt>
      <trkpt lat="45.47563" lon="6.52897">
        <ele>517</ele>
        <time>2021-05-28T11:37:50Z</time>
      </trkpt>
      <trkpt lat="45.47558" lon="6.52898">
        <ele>516.6</ele>
        <time>2021-05-28T11:37:51Z</time>
      </trkpt>
      <trkpt lat="45.47554" lon="6.529">
        <ele>516.2</ele>
        <time>2021-05-28T11:37:52Z</time>
      </trkpt>
      <trkpt lat="45.4755" lon="6.52901">
        <ele>516.4</ele>
        <time>2021-05-28T11:37:53Z</time>
      </trkpt>
      <trkpt lat="45.47546" lon="6.52903">
        <ele>516.2</ele>
        <time>2021-05-28T11:37:54Z</time>
      </trkpt>
      <trkpt lat="45.47543" lon="6.52904">
        <ele>516.2</ele>
        <time>2021-05-28T11:37:55Z</time>
      </trkpt>
      <trkpt lat="45.47539" lon="6.52905">
        <ele>516.4</ele>
        <time>2021-05-28T11:37:56Z</time>
      </trkpt>
      <trkpt lat="45.47536" lon="6.52906">
        <ele>516.4</ele>
        <time>2021-05-28T11:37:57Z</time>
      </trkpt>
      <trkpt lat="45.47532" lon="6.52908">
        <ele>516.4</ele>
        <time>2021-05-28T11:37:58Z</time>
      </trkpt>
      <trkpt lat="45.47529" lon="6.52909">
        <ele>516.6</ele>
        <time>2021-05-28T11:37:59Z</time>
      </trkpt>
      <trkpt lat="45.47526" lon="6.5291">
        <ele>516.6</ele>
        <time>2021-05-28T11:38:00Z</time>
      </trkpt>
      <trkpt lat="45.47523" lon="6.52911">
        <ele>516.6</ele>
        <time>2021-05-28T11:38:01Z</time>
      </trkpt>
      <trkpt lat="45.4752" lon="6.52912">
        <ele>516.4</ele>
        <time>2021-05-28T11:38:02Z</time>
      </trkpt>
      <trkpt lat="45.47517" lon="6.52913">
        <ele>516.4</ele>
        <time>2021-05-28T11:38:03Z</time>
      </trkpt>
      <trkpt lat="45.47514" lon="6.52915">
        <ele>516.4</ele>
        <time>2021-05-28T11:38:04Z</time>
      </trkpt>
      <trkpt lat="45.47511" lon="6.52915">
        <ele>516.4</ele>
        <time>2021-05-28T11:38:05Z</time>
      </trkpt>
      <trkpt lat="45.47509" lon="6.52918">
        <ele>517</ele>
        <time>2021-05-28T11:38:06Z</time>
      </trkpt>
      <trkpt lat="45.47506" lon="6.5292">
        <ele>517.4</ele>
        <time>2021-05-28T11:38:07Z</time>
      </trkpt>
      <trkpt lat="45.47504" lon="6.52921">
        <ele>518</ele>
        <time>2021-05-28T11:38:08Z</time>
      </trkpt>
      <trkpt lat="45.475" lon="6.52923">
        <ele>518.2</ele>
        <time>2021-05-28T11:38:09Z</time>
      </trkpt>
      <trkpt lat="45.47497" lon="6.52924">
        <ele>518.4</ele>
        <time>2021-05-28T11:38:10Z</time>
      </trkpt>
      <trkpt lat="45.47493" lon="6.52926">
        <ele>518.6</ele>
        <time>2021-05-28T11:38:11Z</time>
      </trkpt>
      <trkpt lat="45.4749" lon="6.52927">
        <ele>518.6</ele>
        <time>2021-05-28T11:38:12Z</time>
      </trkpt>
      <trkpt lat="45.47487" lon="6.52928">
        <ele>518.4</ele>
        <time>2021-05-28T11:38:13Z</time>
      </trkpt>
      <trkpt lat="45.47484" lon="6.52929">
        <ele>518.4</ele>
        <time>2021-05-28T11:38:14Z</time>
      </trkpt>
      <trkpt lat="45.47481" lon="6.52931">
        <ele>518.6</ele>
        <time>2021-05-28T11:38:15Z</time>
      </trkpt>
      <trkpt lat="45.47478" lon="6.52933">
        <ele>519.4</ele>
        <time>2021-05-28T11:38:16Z</time>
      </trkpt>
      <trkpt lat="45.47475" lon="6.52934">
        <ele>520.2</ele>
        <time>2021-05-28T11:38:17Z</time>
      </trkpt>
      <trkpt lat="45.47472" lon="6.52936">
        <ele>521.2</ele>
        <time>2021-05-28T11:38:18Z</time>
      </trkpt>
      <trkpt lat="45.4747" lon="6.52937">
        <ele>522</ele>
        <time>2021-05-28T11:38:19Z</time>
      </trkpt>
      <trkpt lat="45.47467" lon="6.52939">
        <ele>522.8</ele>
        <time>2021-05-28T11:38:20Z</time>
      </trkpt>
      <trkpt lat="45.47464" lon="6.52941">
        <ele>523.6</ele>
        <time>2021-05-28T11:38:21Z</time>
      </trkpt>
      <trkpt lat="45.47462" lon="6.52942">
        <ele>524</ele>
        <time>2021-05-28T11:38:22Z</time>
      </trkpt>
      <trkpt lat="45.47459" lon="6.52944">
        <ele>524.2</ele>
        <time>2021-05-28T11:38:23Z</time>
      </trkpt>
      <trkpt lat="45.47456" lon="6.52946">
        <ele>524.6</ele>
        <time>2021-05-28T11:38:24Z</time>
      </trkpt>
      <trkpt lat="45.47453" lon="6.52947">
        <ele>525.2</ele>
        <time>2021-05-28T11:38:25Z</time>
      </trkpt>
      <trkpt lat="45.47451" lon="6.52949">
        <ele>525.4</ele>
        <time>2021-05-28T11:38:26Z</time>
      </trkpt>
      <trkpt lat="45.47448" lon="6.5295">
        <ele>525.6</ele>
        <time>2021-05-28T11:38:27Z</time>
      </trkpt>
      <trkpt lat="45.47445" lon="6.52952">
        <ele>525.8</ele>
        <time>2021-05-28T11:38:28Z</time>
      </trkpt>
      <trkpt lat="45.47443" lon="6.52954">
        <ele>526</ele>
        <time>2021-05-28T11:38:29Z</time>
      </trkpt>
      <trkpt lat="45.4744" lon="6.52955">
        <ele>526.4</ele>
        <time>2021-05-28T11:38:30Z</time>
      </trkpt>
      <trkpt lat="45.47438" lon="6.52956">
        <ele>526.8</ele>
        <time>2021-05-28T11:38:31Z</time>
      </trkpt>
      <trkpt lat="45.47436" lon="6.52957">
        <ele>527.2</ele>
        <time>2021-05-28T11:38:32Z</time>
      </trkpt>
      <trkpt lat="45.47434" lon="6.52958">
        <ele>527.2</ele>
        <time>2021-05-28T11:38:33Z</time>
      </trkpt>
      <trkpt lat="45.47431" lon="6.52959">
        <ele>527.6</ele>
        <time>2021-05-28T11:38:34Z</time>
      </trkpt>
      <trkpt lat="45.47429" lon="6.52961">
        <ele>528</ele>
        <time>2021-05-28T11:38:35Z</time>
      </trkpt>
      <trkpt lat="45.47426" lon="6.52963">
        <ele>528.4</ele>
        <time>2021-05-28T11:38:36Z</time>
      </trkpt>
      <trkpt lat="45.47424" lon="6.52964">
        <ele>529</ele>
        <time>2021-05-28T11:38:37Z</time>
      </trkpt>
      <trkpt lat="45.4742" lon="6.52966">
        <ele>529.4</ele>
        <time>2021-05-28T11:38:38Z</time>
      </trkpt>
      <trkpt lat="45.47418" lon="6.52968">
        <ele>529.6</ele>
        <time>2021-05-28T11:38:39Z</time>
      </trkpt>
      <trkpt lat="45.47415" lon="6.52969">
        <ele>530</ele>
        <time>2021-05-28T11:38:40Z</time>
      </trkpt>
      <trkpt lat="45.47412" lon="6.5297">
        <ele>530.6</ele>
        <time>2021-05-28T11:38:41Z</time>
      </trkpt>
      <trkpt lat="45.4741" lon="6.52971">
        <ele>531.2</ele>
        <time>2021-05-28T11:38:42Z</time>
      </trkpt>
      <trkpt lat="45.47407" lon="6.52973">
        <ele>531.8</ele>
        <time>2021-05-28T11:38:43Z</time>
      </trkpt>
      <trkpt lat="45.47404" lon="6.52974">
        <ele>532.2</ele>
        <time>2021-05-28T11:38:44Z</time>
      </trkpt>
      <trkpt lat="45.47401" lon="6.52976">
        <ele>532.4</ele>
        <time>2021-05-28T11:38:45Z</time>
      </trkpt>
      <trkpt lat="45.47399" lon="6.52978">
        <ele>532.6</ele>
        <time>2021-05-28T11:38:46Z</time>
      </trkpt>
      <trkpt lat="45.47396" lon="6.5298">
        <ele>532.6</ele>
        <time>2021-05-28T11:38:47Z</time>
      </trkpt>
      <trkpt lat="45.47394" lon="6.52983">
        <ele>532.6</ele>
        <time>2021-05-28T11:38:48Z</time>
      </trkpt>
      <trkpt lat="45.47391" lon="6.52985">
        <ele>532.4</ele>
        <time>2021-05-28T11:38:49Z</time>
      </trkpt>
      <trkpt lat="45.47388" lon="6.52987">
        <ele>532.2</ele>
        <time>2021-05-28T11:38:50Z</time>
      </trkpt>
      <trkpt lat="45.47385" lon="6.52989">
        <ele>531.8</ele>
        <time>2021-05-28T11:38:51Z</time>
      </trkpt>
      <trkpt lat="45.47383" lon="6.52992">
        <ele>531.4</ele>
        <time>2021-05-28T11:38:52Z</time>
      </trkpt>
      <trkpt lat="45.47381" lon="6.52994">
        <ele>531.2</ele>
        <time>2021-05-28T11:38:53Z</time>
      </trkpt>
      <trkpt lat="45.47378" lon="6.52997">
        <ele>530.8</ele>
        <time>2021-05-28T11:38:54Z</time>
      </trkpt>
      <trkpt lat="45.47375" lon="6.53">
        <ele>530.4</ele>
        <time>2021-05-28T11:38:55Z</time>
      </trkpt>
      <trkpt lat="45.47373" lon="6.53002">
        <ele>530.4</ele>
        <time>2021-05-28T11:38:56Z</time>
      </trkpt>
      <trkpt lat="45.47371" lon="6.53005">
        <ele>530.2</ele>
        <time>2021-05-28T11:38:57Z</time>
      </trkpt>
      <trkpt lat="45.47368" lon="6.53008">
        <ele>530.2</ele>
        <time>2021-05-28T11:38:58Z</time>
      </trkpt>
      <trkpt lat="45.47365" lon="6.5301">
        <ele>530.2</ele>
        <time>2021-05-28T11:38:59Z</time>
      </trkpt>
      <trkpt lat="45.47363" lon="6.53013">
        <ele>530.2</ele>
        <time>2021-05-28T11:39:00Z</time>
      </trkpt>
      <trkpt lat="45.47361" lon="6.53016">
        <ele>530.2</ele>
        <time>2021-05-28T11:39:01Z</time>
      </trkpt>
      <trkpt lat="45.47359" lon="6.53018">
        <ele>530.4</ele>
        <time>2021-05-28T11:39:02Z</time>
      </trkpt>
      <trkpt lat="45.47357" lon="6.53021">
        <ele>530.4</ele>
        <time>2021-05-28T11:39:03Z</time>
      </trkpt>
      <trkpt lat="45.47355" lon="6.53024">
        <ele>530.6</ele>
        <time>2021-05-28T11:39:04Z</time>
      </trkpt>
      <trkpt lat="45.47353" lon="6.53027">
        <ele>530.8</ele>
        <time>2021-05-28T11:39:05Z</time>
      </trkpt>
      <trkpt lat="45.47352" lon="6.53031">
        <ele>531.2</ele>
        <time>2021-05-28T11:39:06Z</time>
      </trkpt>
      <trkpt lat="45.4735" lon="6.53034">
        <ele>531.8</ele>
        <time>2021-05-28T11:39:07Z</time>
      </trkpt>
      <trkpt lat="45.47349" lon="6.53038">
        <ele>532.6</ele>
        <time>2021-05-28T11:39:08Z</time>
      </trkpt>
      <trkpt lat="45.47347" lon="6.53042">
        <ele>533.6</ele>
        <time>2021-05-28T11:39:09Z</time>
      </trkpt>
      <trkpt lat="45.47345" lon="6.53045">
        <ele>534.4</ele>
        <time>2021-05-28T11:39:10Z</time>
      </trkpt>
      <trkpt lat="45.47344" lon="6.53049">
        <ele>535.2</ele>
        <time>2021-05-28T11:39:11Z</time>
      </trkpt>
      <trkpt lat="45.47342" lon="6.53053">
        <ele>535.6</ele>
        <time>2021-05-28T11:39:12Z</time>
      </trkpt>
      <trkpt lat="45.4734" lon="6.53056">
        <ele>536.2</ele>
        <time>2021-05-28T11:39:13Z</time>
      </trkpt>
      <trkpt lat="45.47338" lon="6.53059">
        <ele>536.8</ele>
        <time>2021-05-28T11:39:14Z</time>
      </trkpt>
      <trkpt lat="45.47335" lon="6.53063">
        <ele>537.6</ele>
        <time>2021-05-28T11:39:15Z</time>
      </trkpt>
      <trkpt lat="45.47332" lon="6.53065">
        <ele>538.4</ele>
        <time>2021-05-28T11:39:16Z</time>
      </trkpt>
      <trkpt lat="45.47331" lon="6.53069">
        <ele>539.4</ele>
        <time>2021-05-28T11:39:17Z</time>
      </trkpt>
      <trkpt lat="45.47329" lon="6.53071">
        <ele>540</ele>
        <time>2021-05-28T11:39:18Z</time>
      </trkpt>
      <trkpt lat="45.47327" lon="6.53073">
        <ele>540.6</ele>
        <time>2021-05-28T11:39:19Z</time>
      </trkpt>
      <trkpt lat="45.47324" lon="6.53075">
        <ele>540.8</ele>
        <time>2021-05-28T11:39:20Z</time>
      </trkpt>
      <trkpt lat="45.47322" lon="6.53077">
        <ele>540.8</ele>
        <time>2021-05-28T11:39:21Z</time>
      </trkpt>
      <trkpt lat="45.47319" lon="6.53078">
        <ele>540.8</ele>
        <time>2021-05-28T11:39:22Z</time>
      </trkpt>
      <trkpt lat="45.47317" lon="6.5308">
        <ele>540.6</ele>
        <time>2021-05-28T11:39:23Z</time>
      </trkpt>
      <trkpt lat="45.47315" lon="6.53081">
        <ele>540.4</ele>
        <time>2021-05-28T11:39:24Z</time>
      </trkpt>
      <trkpt lat="45.47312" lon="6.53083">
        <ele>540</ele>
        <time>2021-05-28T11:39:25Z</time>
      </trkpt>
      <trkpt lat="45.47309" lon="6.53084">
        <ele>539.6</ele>
        <time>2021-05-28T11:39:26Z</time>
      </trkpt>
      <trkpt lat="45.47307" lon="6.53085">
        <ele>539.4</ele>
        <time>2021-05-28T11:39:27Z</time>
      </trkpt>
      <trkpt lat="45.47304" lon="6.53086">
        <ele>539.2</ele>
        <time>2021-05-28T11:39:28Z</time>
      </trkpt>
      <trkpt lat="45.47301" lon="6.53086">
        <ele>539.4</ele>
        <time>2021-05-28T11:39:29Z</time>
      </trkpt>
      <trkpt lat="45.47299" lon="6.53086">
        <ele>539.4</ele>
        <time>2021-05-28T11:39:30Z</time>
      </trkpt>
      <trkpt lat="45.47296" lon="6.53085">
        <ele>539.4</ele>
        <time>2021-05-28T11:39:31Z</time>
      </trkpt>
      <trkpt lat="45.47294" lon="6.53084">
        <ele>539.8</ele>
        <time>2021-05-28T11:39:32Z</time>
      </trkpt>
      <trkpt lat="45.47291" lon="6.53082">
        <ele>540.2</ele>
        <time>2021-05-28T11:39:33Z</time>
      </trkpt>
      <trkpt lat="45.47288" lon="6.53082">
        <ele>540.4</ele>
        <time>2021-05-28T11:39:34Z</time>
      </trkpt>
      <trkpt lat="45.47285" lon="6.53081">
        <ele>540.6</ele>
        <time>2021-05-28T11:39:35Z</time>
      </trkpt>
      <trkpt lat="45.47282" lon="6.53079">
        <ele>541.2</ele>
        <time>2021-05-28T11:39:36Z</time>
      </trkpt>
      <trkpt lat="45.47279" lon="6.53078">
        <ele>542</ele>
        <time>2021-05-28T11:39:37Z</time>
      </trkpt>
      <trkpt lat="45.47276" lon="6.53077">
        <ele>542.8</ele>
        <time>2021-05-28T11:39:38Z</time>
      </trkpt>
      <trkpt lat="45.47273" lon="6.53077">
        <ele>543.6</ele>
        <time>2021-05-28T11:39:39Z</time>
      </trkpt>
      <trkpt lat="45.4727" lon="6.53076">
        <ele>544.4</ele>
        <time>2021-05-28T11:39:40Z</time>
      </trkpt>
      <trkpt lat="45.47266" lon="6.53075">
        <ele>545.2</ele>
        <time>2021-05-28T11:39:41Z</time>
      </trkpt>
      <trkpt lat="45.47263" lon="6.53074">
        <ele>545.8</ele>
        <time>2021-05-28T11:39:42Z</time>
      </trkpt>
      <trkpt lat="45.4726" lon="6.53073">
        <ele>546.6</ele>
        <time>2021-05-28T11:39:43Z</time>
      </trkpt>
      <trkpt lat="45.47256" lon="6.53072">
        <ele>547.4</ele>
        <time>2021-05-28T11:39:44Z</time>
      </trkpt>
      <trkpt lat="45.47253" lon="6.5307">
        <ele>548</ele>
        <time>2021-05-28T11:39:45Z</time>
      </trkpt>
      <trkpt lat="45.4725" lon="6.53068">
        <ele>548.4</ele>
        <time>2021-05-28T11:39:46Z</time>
      </trkpt>
      <trkpt lat="45.47246" lon="6.53067">
        <ele>548.8</ele>
        <time>2021-05-28T11:39:47Z</time>
      </trkpt>
      <trkpt lat="45.47243" lon="6.53065">
        <ele>549.2</ele>
        <time>2021-05-28T11:39:48Z</time>
      </trkpt>
      <trkpt lat="45.4724" lon="6.53064">
        <ele>549.6</ele>
        <time>2021-05-28T11:39:49Z</time>
      </trkpt>
      <trkpt lat="45.47236" lon="6.53062">
        <ele>549.8</ele>
        <time>2021-05-28T11:39:50Z</time>
      </trkpt>
      <trkpt lat="45.47232" lon="6.5306">
        <ele>549.8</ele>
        <time>2021-05-28T11:39:51Z</time>
      </trkpt>
      <trkpt lat="45.47228" lon="6.53058">
        <ele>550.4</ele>
        <time>2021-05-28T11:39:52Z</time>
      </trkpt>
      <trkpt lat="45.47224" lon="6.53057">
        <ele>551</ele>
        <time>2021-05-28T11:39:53Z</time>
      </trkpt>
      <trkpt lat="45.47221" lon="6.53055">
        <ele>551.6</ele>
        <time>2021-05-28T11:39:54Z</time>
      </trkpt>
      <trkpt lat="45.47218" lon="6.53053">
        <ele>552</ele>
        <time>2021-05-28T11:39:55Z</time>
      </trkpt>
      <trkpt lat="45.47215" lon="6.53052">
        <ele>552.4</ele>
        <time>2021-05-28T11:39:56Z</time>
      </trkpt>
      <trkpt lat="45.47212" lon="6.53051">
        <ele>553</ele>
        <time>2021-05-28T11:39:57Z</time>
      </trkpt>
      <trkpt lat="45.47208" lon="6.53051">
        <ele>553.6</ele>
        <time>2021-05-28T11:39:58Z</time>
      </trkpt>
      <trkpt lat="45.47205" lon="6.53049">
        <ele>554.2</ele>
        <time>2021-05-28T11:39:59Z</time>
      </trkpt>
      <trkpt lat="45.47202" lon="6.53048">
        <ele>554.2</ele>
        <time>2021-05-28T11:40:00Z</time>
      </trkpt>
      <trkpt lat="45.47198" lon="6.53047">
        <ele>554.4</ele>
        <time>2021-05-28T11:40:01Z</time>
      </trkpt>
      <trkpt lat="45.47196" lon="6.53046">
        <ele>554.2</ele>
        <time>2021-05-28T11:40:02Z</time>
      </trkpt>
      <trkpt lat="45.47192" lon="6.53045">
        <ele>554</ele>
        <time>2021-05-28T11:40:03Z</time>
      </trkpt>
      <trkpt lat="45.47188" lon="6.53044">
        <ele>553.8</ele>
        <time>2021-05-28T11:40:04Z</time>
      </trkpt>
      <trkpt lat="45.47185" lon="6.53043">
        <ele>553.4</ele>
        <time>2021-05-28T11:40:05Z</time>
      </trkpt>
      <trkpt lat="45.47182" lon="6.53042">
        <ele>553</ele>
        <time>2021-05-28T11:40:06Z</time>
      </trkpt>
      <trkpt lat="45.47179" lon="6.53041">
        <ele>552.6</ele>
        <time>2021-05-28T11:40:07Z</time>
      </trkpt>
      <trkpt lat="45.47175" lon="6.53041">
        <ele>552.4</ele>
        <time>2021-05-28T11:40:08Z</time>
      </trkpt>
      <trkpt lat="45.47172" lon="6.5304">
        <ele>552.6</ele>
        <time>2021-05-28T11:40:09Z</time>
      </trkpt>
      <trkpt lat="45.47169" lon="6.5304">
        <ele>552.8</ele>
        <time>2021-05-28T11:40:10Z</time>
      </trkpt>
      <trkpt lat="45.47166" lon="6.53041">
        <ele>553.2</ele>
        <time>2021-05-28T11:40:11Z</time>
      </trkpt>
      <trkpt lat="45.47163" lon="6.53041">
        <ele>553.6</ele>
        <time>2021-05-28T11:40:12Z</time>
      </trkpt>
      <trkpt lat="45.4716" lon="6.53041">
        <ele>553.8</ele>
        <time>2021-05-28T11:40:13Z</time>
      </trkpt>
      <trkpt lat="45.47156" lon="6.53041">
        <ele>554</ele>
        <time>2021-05-28T11:40:14Z</time>
      </trkpt>
      <trkpt lat="45.47154" lon="6.53041">
        <ele>554.2</ele>
        <time>2021-05-28T11:40:15Z</time>
      </trkpt>
      <trkpt lat="45.47151" lon="6.53042">
        <ele>554.6</ele>
        <time>2021-05-28T11:40:16Z</time>
      </trkpt>
      <trkpt lat="45.47148" lon="6.53043">
        <ele>554.6</ele>
        <time>2021-05-28T11:40:17Z</time>
      </trkpt>
      <trkpt lat="45.47146" lon="6.53044">
        <ele>554.6</ele>
        <time>2021-05-28T11:40:18Z</time>
      </trkpt>
      <trkpt lat="45.47142" lon="6.53044">
        <ele>554.6</ele>
        <time>2021-05-28T11:40:19Z</time>
      </trkpt>
      <trkpt lat="45.47139" lon="6.53045">
        <ele>554.4</ele>
        <time>2021-05-28T11:40:20Z</time>
      </trkpt>
      <trkpt lat="45.47136" lon="6.53046">
        <ele>554.4</ele>
        <time>2021-05-28T11:40:21Z</time>
      </trkpt>
      <trkpt lat="45.47132" lon="6.53048">
        <ele>554.2</ele>
        <time>2021-05-28T11:40:22Z</time>
      </trkpt>
      <trkpt lat="45.47129" lon="6.53049">
        <ele>554.4</ele>
        <time>2021-05-28T11:40:23Z</time>
      </trkpt>
      <trkpt lat="45.47126" lon="6.53049">
        <ele>554.2</ele>
        <time>2021-05-28T11:40:24Z</time>
      </trkpt>
      <trkpt lat="45.47123" lon="6.5305">
        <ele>554</ele>
        <time>2021-05-28T11:40:25Z</time>
      </trkpt>
      <trkpt lat="45.4712" lon="6.53051">
        <ele>553.8</ele>
        <time>2021-05-28T11:40:26Z</time>
      </trkpt>
      <trkpt lat="45.47116" lon="6.53053">
        <ele>554.2</ele>
        <time>2021-05-28T11:40:27Z</time>
      </trkpt>
      <trkpt lat="45.47113" lon="6.53055">
        <ele>554.6</ele>
        <time>2021-05-28T11:40:28Z</time>
      </trkpt>
      <trkpt lat="45.4711" lon="6.53056">
        <ele>555</ele>
        <time>2021-05-28T11:40:29Z</time>
      </trkpt>
      <trkpt lat="45.47106" lon="6.53057">
        <ele>555.6</ele>
        <time>2021-05-28T11:40:30Z</time>
      </trkpt>
      <trkpt lat="45.47102" lon="6.53059">
        <ele>556.4</ele>
        <time>2021-05-28T11:40:31Z</time>
      </trkpt>
      <trkpt lat="45.47099" lon="6.5306">
        <ele>557.2</ele>
        <time>2021-05-28T11:40:32Z</time>
      </trkpt>
      <trkpt lat="45.47095" lon="6.53062">
        <ele>557.8</ele>
        <time>2021-05-28T11:40:33Z</time>
      </trkpt>
      <trkpt lat="45.4709" lon="6.53063">
        <ele>558.4</ele>
        <time>2021-05-28T11:40:34Z</time>
      </trkpt>
      <trkpt lat="45.47085" lon="6.53064">
        <ele>558.6</ele>
        <time>2021-05-28T11:40:35Z</time>
      </trkpt>
      <trkpt lat="45.47081" lon="6.53065">
        <ele>558.6</ele>
        <time>2021-05-28T11:40:36Z</time>
      </trkpt>
      <trkpt lat="45.47077" lon="6.53067">
        <ele>558.4</ele>
        <time>2021-05-28T11:40:37Z</time>
      </trkpt>
      <trkpt lat="45.47073" lon="6.53068">
        <ele>558.8</ele>
        <time>2021-05-28T11:40:38Z</time>
      </trkpt>
      <trkpt lat="45.47069" lon="6.53069">
        <ele>559</ele>
        <time>2021-05-28T11:40:39Z</time>
      </trkpt>
      <trkpt lat="45.47065" lon="6.53071">
        <ele>559.4</ele>
        <time>2021-05-28T11:40:40Z</time>
      </trkpt>
      <trkpt lat="45.4706" lon="6.53073">
        <ele>560</ele>
        <time>2021-05-28T11:40:41Z</time>
      </trkpt>
      <trkpt lat="45.47056" lon="6.53076">
        <ele>560.6</ele>
        <time>2021-05-28T11:40:42Z</time>
      </trkpt>
      <trkpt lat="45.47053" lon="6.53077">
        <ele>561.4</ele>
        <time>2021-05-28T11:40:43Z</time>
      </trkpt>
      <trkpt lat="45.47049" lon="6.53079">
        <ele>562</ele>
        <time>2021-05-28T11:40:44Z</time>
      </trkpt>
      <trkpt lat="45.47045" lon="6.5308">
        <ele>562.6</ele>
        <time>2021-05-28T11:40:45Z</time>
      </trkpt>
      <trkpt lat="45.47042" lon="6.53082">
        <ele>563.6</ele>
        <time>2021-05-28T11:40:46Z</time>
      </trkpt>
      <trkpt lat="45.47038" lon="6.53083">
        <ele>564.2</ele>
        <time>2021-05-28T11:40:47Z</time>
      </trkpt>
      <trkpt lat="45.47035" lon="6.53085">
        <ele>564.8</ele>
        <time>2021-05-28T11:40:48Z</time>
      </trkpt>
      <trkpt lat="45.47032" lon="6.53087">
        <ele>565.4</ele>
        <time>2021-05-28T11:40:49Z</time>
      </trkpt>
      <trkpt lat="45.47029" lon="6.53088">
        <ele>566.2</ele>
        <time>2021-05-28T11:40:50Z</time>
      </trkpt>
      <trkpt lat="45.47026" lon="6.5309">
        <ele>566.8</ele>
        <time>2021-05-28T11:40:51Z</time>
      </trkpt>
      <trkpt lat="45.47023" lon="6.53092">
        <ele>567.2</ele>
        <time>2021-05-28T11:40:52Z</time>
      </trkpt>
      <trkpt lat="45.4702" lon="6.53094">
        <ele>568</ele>
        <time>2021-05-28T11:40:53Z</time>
      </trkpt>
      <trkpt lat="45.47017" lon="6.53096">
        <ele>568.6</ele>
        <time>2021-05-28T11:40:54Z</time>
      </trkpt>
      <trkpt lat="45.47014" lon="6.53098">
        <ele>569</ele>
        <time>2021-05-28T11:40:55Z</time>
      </trkpt>
      <trkpt lat="45.47011" lon="6.53099">
        <ele>569.4</ele>
        <time>2021-05-28T11:40:56Z</time>
      </trkpt>
      <trkpt lat="45.47009" lon="6.53101">
        <ele>570</ele>
        <time>2021-05-28T11:40:57Z</time>
      </trkpt>
      <trkpt lat="45.47006" lon="6.53103">
        <ele>570.4</ele>
        <time>2021-05-28T11:40:58Z</time>
      </trkpt>
      <trkpt lat="45.47004" lon="6.53105">
        <ele>570.8</ele>
        <time>2021-05-28T11:40:59Z</time>
      </trkpt>
      <trkpt lat="45.47001" lon="6.53106">
        <ele>571.2</ele>
        <time>2021-05-28T11:41:00Z</time>
      </trkpt>
      <trkpt lat="45.46998" lon="6.53108">
        <ele>571.6</ele>
        <time>2021-05-28T11:41:01Z</time>
      </trkpt>
      <trkpt lat="45.46995" lon="6.5311">
        <ele>572</ele>
        <time>2021-05-28T11:41:02Z</time>
      </trkpt>
      <trkpt lat="45.46993" lon="6.53112">
        <ele>572</ele>
        <time>2021-05-28T11:41:03Z</time>
      </trkpt>
      <trkpt lat="45.4699" lon="6.53114">
        <ele>572.2</ele>
        <time>2021-05-28T11:41:04Z</time>
      </trkpt>
      <trkpt lat="45.46987" lon="6.53116">
        <ele>572.4</ele>
        <time>2021-05-28T11:41:05Z</time>
      </trkpt>
      <trkpt lat="45.46985" lon="6.53117">
        <ele>572.6</ele>
        <time>2021-05-28T11:41:06Z</time>
      </trkpt>
      <trkpt lat="45.46979" lon="6.53121">
        <ele>572.6</ele>
        <time>2021-05-28T11:41:08Z</time>
      </trkpt>
      <trkpt lat="45.46976" lon="6.53123">
        <ele>572.4</ele>
        <time>2021-05-28T11:41:09Z</time>
      </trkpt>
      <trkpt lat="45.46973" lon="6.53125">
        <ele>571.8</ele>
        <time>2021-05-28T11:41:10Z</time>
      </trkpt>
      <trkpt lat="45.4697" lon="6.53127">
        <ele>571.4</ele>
        <time>2021-05-28T11:41:11Z</time>
      </trkpt>
      <trkpt lat="45.46967" lon="6.53129">
        <ele>570.8</ele>
        <time>2021-05-28T11:41:12Z</time>
      </trkpt>
      <trkpt lat="45.46964" lon="6.53131">
        <ele>570.2</ele>
        <time>2021-05-28T11:41:13Z</time>
      </trkpt>
      <trkpt lat="45.46962" lon="6.53133">
        <ele>569.6</ele>
        <time>2021-05-28T11:41:14Z</time>
      </trkpt>
      <trkpt lat="45.4696" lon="6.53135">
        <ele>569</ele>
        <time>2021-05-28T11:41:15Z</time>
      </trkpt>
      <trkpt lat="45.46957" lon="6.53138">
        <ele>568.6</ele>
        <time>2021-05-28T11:41:16Z</time>
      </trkpt>
      <trkpt lat="45.46954" lon="6.5314">
        <ele>568</ele>
        <time>2021-05-28T11:41:17Z</time>
      </trkpt>
      <trkpt lat="45.46952" lon="6.53142">
        <ele>567.6</ele>
        <time>2021-05-28T11:41:18Z</time>
      </trkpt>
      <trkpt lat="45.46949" lon="6.53144">
        <ele>567</ele>
        <time>2021-05-28T11:41:19Z</time>
      </trkpt>
      <trkpt lat="45.46946" lon="6.53146">
        <ele>566.8</ele>
        <time>2021-05-28T11:41:20Z</time>
      </trkpt>
      <trkpt lat="45.46944" lon="6.53147">
        <ele>566.6</ele>
        <time>2021-05-28T11:41:21Z</time>
      </trkpt>
      <trkpt lat="45.46941" lon="6.5315">
        <ele>566.6</ele>
        <time>2021-05-28T11:41:22Z</time>
      </trkpt>
      <trkpt lat="45.46939" lon="6.53152">
        <ele>566.4</ele>
        <time>2021-05-28T11:41:23Z</time>
      </trkpt>
      <trkpt lat="45.46936" lon="6.53154">
        <ele>566.4</ele>
        <time>2021-05-28T11:41:24Z</time>
      </trkpt>
      <trkpt lat="45.46934" lon="6.53157">
        <ele>566.2</ele>
        <time>2021-05-28T11:41:25Z</time>
      </trkpt>
      <trkpt lat="45.46932" lon="6.53159">
        <ele>566.4</ele>
        <time>2021-05-28T11:41:26Z</time>
      </trkpt>
      <trkpt lat="45.46928" lon="6.53161">
        <ele>566.6</ele>
        <time>2021-05-28T11:41:27Z</time>
      </trkpt>
      <trkpt lat="45.46925" lon="6.53163">
        <ele>567</ele>
        <time>2021-05-28T11:41:28Z</time>
      </trkpt>
      <trkpt lat="45.46922" lon="6.53164">
        <ele>567.6</ele>
        <time>2021-05-28T11:41:29Z</time>
      </trkpt>
      <trkpt lat="45.46919" lon="6.53167">
        <ele>568</ele>
        <time>2021-05-28T11:41:30Z</time>
      </trkpt>
      <trkpt lat="45.46916" lon="6.53169">
        <ele>568.6</ele>
        <time>2021-05-28T11:41:31Z</time>
      </trkpt>
      <trkpt lat="45.46914" lon="6.53171">
        <ele>569</ele>
        <time>2021-05-28T11:41:32Z</time>
      </trkpt>
      <trkpt lat="45.4691" lon="6.53174">
        <ele>569.8</ele>
        <time>2021-05-28T11:41:33Z</time>
      </trkpt>
      <trkpt lat="45.46908" lon="6.53177">
        <ele>570.2</ele>
        <time>2021-05-28T11:41:34Z</time>
      </trkpt>
      <trkpt lat="45.46905" lon="6.5318">
        <ele>570.6</ele>
        <time>2021-05-28T11:41:35Z</time>
      </trkpt>
      <trkpt lat="45.46902" lon="6.53183">
        <ele>570.8</ele>
        <time>2021-05-28T11:41:36Z</time>
      </trkpt>
      <trkpt lat="45.46899" lon="6.53186">
        <ele>570.8</ele>
        <time>2021-05-28T11:41:37Z</time>
      </trkpt>
      <trkpt lat="45.46896" lon="6.53189">
        <ele>570.8</ele>
        <time>2021-05-28T11:41:38Z</time>
      </trkpt>
      <trkpt lat="45.46892" lon="6.53192">
        <ele>570.8</ele>
        <time>2021-05-28T11:41:39Z</time>
      </trkpt>
      <trkpt lat="45.4689" lon="6.53195">
        <ele>570.6</ele>
        <time>2021-05-28T11:41:40Z</time>
      </trkpt>
      <trkpt lat="45.46886" lon="6.53198">
        <ele>570.4</ele>
        <time>2021-05-28T11:41:41Z</time>
      </trkpt>
      <trkpt lat="45.46883" lon="6.53202">
        <ele>570</ele>
        <time>2021-05-28T11:41:42Z</time>
      </trkpt>
      <trkpt lat="45.46879" lon="6.53206">
        <ele>570</ele>
        <time>2021-05-28T11:41:43Z</time>
      </trkpt>
      <trkpt lat="45.46876" lon="6.53209">
        <ele>569.6</ele>
        <time>2021-05-28T11:41:44Z</time>
      </trkpt>
      <trkpt lat="45.46874" lon="6.53213">
        <ele>569.6</ele>
        <time>2021-05-28T11:41:45Z</time>
      </trkpt>
      <trkpt lat="45.4687" lon="6.53217">
        <ele>570.2</ele>
        <time>2021-05-28T11:41:46Z</time>
      </trkpt>
      <trkpt lat="45.46867" lon="6.53221">
        <ele>571</ele>
        <time>2021-05-28T11:41:47Z</time>
      </trkpt>
      <trkpt lat="45.46864" lon="6.53225">
        <ele>571.6</ele>
        <time>2021-05-28T11:41:48Z</time>
      </trkpt>
      <trkpt lat="45.46861" lon="6.53229">
        <ele>572.8</ele>
        <time>2021-05-28T11:41:49Z</time>
      </trkpt>
      <trkpt lat="45.46858" lon="6.53233">
        <ele>573.4</ele>
        <time>2021-05-28T11:41:50Z</time>
      </trkpt>
      <trkpt lat="45.46854" lon="6.53237">
        <ele>574.4</ele>
        <time>2021-05-28T11:41:51Z</time>
      </trkpt>
      <trkpt lat="45.4685" lon="6.53241">
        <ele>575.2</ele>
        <time>2021-05-28T11:41:52Z</time>
      </trkpt>
      <trkpt lat="45.46847" lon="6.53245">
        <ele>576.2</ele>
        <time>2021-05-28T11:41:53Z</time>
      </trkpt>
      <trkpt lat="45.46843" lon="6.53249">
        <ele>577.2</ele>
        <time>2021-05-28T11:41:54Z</time>
      </trkpt>
      <trkpt lat="45.4684" lon="6.53253">
        <ele>577.8</ele>
        <time>2021-05-28T11:41:55Z</time>
      </trkpt>
      <trkpt lat="45.46836" lon="6.53257">
        <ele>578.6</ele>
        <time>2021-05-28T11:41:56Z</time>
      </trkpt>
      <trkpt lat="45.46833" lon="6.53261">
        <ele>579</ele>
        <time>2021-05-28T11:41:57Z</time>
      </trkpt>
      <trkpt lat="45.4683" lon="6.53265">
        <ele>579</ele>
        <time>2021-05-28T11:41:58Z</time>
      </trkpt>
      <trkpt lat="45.46827" lon="6.53269">
        <ele>579.2</ele>
        <time>2021-05-28T11:41:59Z</time>
      </trkpt>
      <trkpt lat="45.46824" lon="6.53274">
        <ele>579.2</ele>
        <time>2021-05-28T11:42:00Z</time>
      </trkpt>
      <trkpt lat="45.4682" lon="6.53278">
        <ele>579.2</ele>
        <time>2021-05-28T11:42:01Z</time>
      </trkpt>
      <trkpt lat="45.46817" lon="6.53282">
        <ele>578.8</ele>
        <time>2021-05-28T11:42:02Z</time>
      </trkpt>
      <trkpt lat="45.46814" lon="6.53286">
        <ele>578.6</ele>
        <time>2021-05-28T11:42:03Z</time>
      </trkpt>
      <trkpt lat="45.46811" lon="6.5329">
        <ele>578.6</ele>
        <time>2021-05-28T11:42:04Z</time>
      </trkpt>
      <trkpt lat="45.46807" lon="6.53294">
        <ele>578.6</ele>
        <time>2021-05-28T11:42:05Z</time>
      </trkpt>
      <trkpt lat="45.46804" lon="6.53298">
        <ele>578.4</ele>
        <time>2021-05-28T11:42:06Z</time>
      </trkpt>
      <trkpt lat="45.46801" lon="6.53303">
        <ele>578.2</ele>
        <time>2021-05-28T11:42:07Z</time>
      </trkpt>
      <trkpt lat="45.46797" lon="6.53307">
        <ele>578</ele>
        <time>2021-05-28T11:42:08Z</time>
      </trkpt>
      <trkpt lat="45.46795" lon="6.53311">
        <ele>577.8</ele>
        <time>2021-05-28T11:42:09Z</time>
      </trkpt>
      <trkpt lat="45.46791" lon="6.53316">
        <ele>577.2</ele>
        <time>2021-05-28T11:42:10Z</time>
      </trkpt>
      <trkpt lat="45.46788" lon="6.53319">
        <ele>577.6</ele>
        <time>2021-05-28T11:42:11Z</time>
      </trkpt>
      <trkpt lat="45.46785" lon="6.53324">
        <ele>578.2</ele>
        <time>2021-05-28T11:42:12Z</time>
      </trkpt>
      <trkpt lat="45.46783" lon="6.53329">
        <ele>578.8</ele>
        <time>2021-05-28T11:42:13Z</time>
      </trkpt>
      <trkpt lat="45.4678" lon="6.53333">
        <ele>579.6</ele>
        <time>2021-05-28T11:42:14Z</time>
      </trkpt>
      <trkpt lat="45.46777" lon="6.53337">
        <ele>580.2</ele>
        <time>2021-05-28T11:42:15Z</time>
      </trkpt>
      <trkpt lat="45.46774" lon="6.53342">
        <ele>580.8</ele>
        <time>2021-05-28T11:42:16Z</time>
      </trkpt>
      <trkpt lat="45.46771" lon="6.53347">
        <ele>581.4</ele>
        <time>2021-05-28T11:42:17Z</time>
      </trkpt>
      <trkpt lat="45.46768" lon="6.53351">
        <ele>582.2</ele>
        <time>2021-05-28T11:42:18Z</time>
      </trkpt>
      <trkpt lat="45.46765" lon="6.53356">
        <ele>582.6</ele>
        <time>2021-05-28T11:42:19Z</time>
      </trkpt>
      <trkpt lat="45.46763" lon="6.5336">
        <ele>582.8</ele>
        <time>2021-05-28T11:42:20Z</time>
      </trkpt>
      <trkpt lat="45.4676" lon="6.53364">
        <ele>583</ele>
        <time>2021-05-28T11:42:21Z</time>
      </trkpt>
      <trkpt lat="45.46757" lon="6.53368">
        <ele>582.8</ele>
        <time>2021-05-28T11:42:22Z</time>
      </trkpt>
      <trkpt lat="45.46755" lon="6.53372">
        <ele>582.6</ele>
        <time>2021-05-28T11:42:23Z</time>
      </trkpt>
      <trkpt lat="45.46752" lon="6.53376">
        <ele>582.6</ele>
        <time>2021-05-28T11:42:24Z</time>
      </trkpt>
      <trkpt lat="45.46749" lon="6.5338">
        <ele>582.8</ele>
        <time>2021-05-28T11:42:25Z</time>
      </trkpt>
      <trkpt lat="45.46747" lon="6.53383">
        <ele>583</ele>
        <time>2021-05-28T11:42:26Z</time>
      </trkpt>
      <trkpt lat="45.46744" lon="6.53387">
        <ele>583</ele>
        <time>2021-05-28T11:42:27Z</time>
      </trkpt>
      <trkpt lat="45.46741" lon="6.53391">
        <ele>583.2</ele>
        <time>2021-05-28T11:42:28Z</time>
      </trkpt>
      <trkpt lat="45.46739" lon="6.53395">
        <ele>583.4</ele>
        <time>2021-05-28T11:42:29Z</time>
      </trkpt>
      <trkpt lat="45.46737" lon="6.53399">
        <ele>583.6</ele>
        <time>2021-05-28T11:42:30Z</time>
      </trkpt>
      <trkpt lat="45.46735" lon="6.53404">
        <ele>583.6</ele>
        <time>2021-05-28T11:42:31Z</time>
      </trkpt>
      <trkpt lat="45.46732" lon="6.53408">
        <ele>583.8</ele>
        <time>2021-05-28T11:42:32Z</time>
      </trkpt>
      <trkpt lat="45.4673" lon="6.53413">
        <ele>584</ele>
        <time>2021-05-28T11:42:33Z</time>
      </trkpt>
      <trkpt lat="45.46728" lon="6.53418">
        <ele>584.4</ele>
        <time>2021-05-28T11:42:34Z</time>
      </trkpt>
      <trkpt lat="45.46726" lon="6.53423">
        <ele>584.4</ele>
        <time>2021-05-28T11:42:35Z</time>
      </trkpt>
      <trkpt lat="45.46723" lon="6.53429">
        <ele>584.6</ele>
        <time>2021-05-28T11:42:36Z</time>
      </trkpt>
      <trkpt lat="45.46721" lon="6.53434">
        <ele>584.6</ele>
        <time>2021-05-28T11:42:37Z</time>
      </trkpt>
      <trkpt lat="45.46718" lon="6.5344">
        <ele>585</ele>
        <time>2021-05-28T11:42:38Z</time>
      </trkpt>
      <trkpt lat="45.46715" lon="6.53445">
        <ele>585.4</ele>
        <time>2021-05-28T11:42:39Z</time>
      </trkpt>
      <trkpt lat="45.46713" lon="6.53451">
        <ele>586.2</ele>
        <time>2021-05-28T11:42:40Z</time>
      </trkpt>
      <trkpt lat="45.46711" lon="6.53457">
        <ele>586.6</ele>
        <time>2021-05-28T11:42:41Z</time>
      </trkpt>
      <trkpt lat="45.46708" lon="6.53463">
        <ele>587</ele>
        <time>2021-05-28T11:42:42Z</time>
      </trkpt>
      <trkpt lat="45.46705" lon="6.5347">
        <ele>587.6</ele>
        <time>2021-05-28T11:42:43Z</time>
      </trkpt>
      <trkpt lat="45.46703" lon="6.53476">
        <ele>588</ele>
        <time>2021-05-28T11:42:44Z</time>
      </trkpt>
      <trkpt lat="45.467" lon="6.53482">
        <ele>588.4</ele>
        <time>2021-05-28T11:42:45Z</time>
      </trkpt>
      <trkpt lat="45.46698" lon="6.53488">
        <ele>588.8</ele>
        <time>2021-05-28T11:42:46Z</time>
      </trkpt>
      <trkpt lat="45.46696" lon="6.53495">
        <ele>589.2</ele>
        <time>2021-05-28T11:42:47Z</time>
      </trkpt>
      <trkpt lat="45.46693" lon="6.53501">
        <ele>589.6</ele>
        <time>2021-05-28T11:42:48Z</time>
      </trkpt>
      <trkpt lat="45.46692" lon="6.53507">
        <ele>589.8</ele>
        <time>2021-05-28T11:42:49Z</time>
      </trkpt>
      <trkpt lat="45.46689" lon="6.53512">
        <ele>589.8</ele>
        <time>2021-05-28T11:42:50Z</time>
      </trkpt>
      <trkpt lat="45.46687" lon="6.53518">
        <ele>589.8</ele>
        <time>2021-05-28T11:42:51Z</time>
      </trkpt>
      <trkpt lat="45.46685" lon="6.53525">
        <ele>590.2</ele>
        <time>2021-05-28T11:42:52Z</time>
      </trkpt>
      <trkpt lat="45.46682" lon="6.53531">
        <ele>590.6</ele>
        <time>2021-05-28T11:42:53Z</time>
      </trkpt>
      <trkpt lat="45.4668" lon="6.53537">
        <ele>590.8</ele>
        <time>2021-05-28T11:42:54Z</time>
      </trkpt>
      <trkpt lat="45.46678" lon="6.53543">
        <ele>591.4</ele>
        <time>2021-05-28T11:42:55Z</time>
      </trkpt>
      <trkpt lat="45.46675" lon="6.53549">
        <ele>592</ele>
        <time>2021-05-28T11:42:56Z</time>
      </trkpt>
      <trkpt lat="45.46672" lon="6.53555">
        <ele>592.8</ele>
        <time>2021-05-28T11:42:57Z</time>
      </trkpt>
      <trkpt lat="45.46669" lon="6.5356">
        <ele>593.2</ele>
        <time>2021-05-28T11:42:58Z</time>
      </trkpt>
      <trkpt lat="45.46666" lon="6.53566">
        <ele>593.6</ele>
        <time>2021-05-28T11:42:59Z</time>
      </trkpt>
      <trkpt lat="45.46664" lon="6.53571">
        <ele>594.2</ele>
        <time>2021-05-28T11:43:00Z</time>
      </trkpt>
      <trkpt lat="45.46661" lon="6.53576">
        <ele>594.6</ele>
        <time>2021-05-28T11:43:01Z</time>
      </trkpt>
      <trkpt lat="45.46658" lon="6.53582">
        <ele>595</ele>
        <time>2021-05-28T11:43:02Z</time>
      </trkpt>
      <trkpt lat="45.46656" lon="6.53588">
        <ele>595.4</ele>
        <time>2021-05-28T11:43:03Z</time>
      </trkpt>
      <trkpt lat="45.46654" lon="6.53594">
        <ele>595.6</ele>
        <time>2021-05-28T11:43:04Z</time>
      </trkpt>
      <trkpt lat="45.46652" lon="6.53599">
        <ele>595.8</ele>
        <time>2021-05-28T11:43:05Z</time>
      </trkpt>
      <trkpt lat="45.4665" lon="6.53606">
        <ele>596</ele>
        <time>2021-05-28T11:43:06Z</time>
      </trkpt>
      <trkpt lat="45.46648" lon="6.53612">
        <ele>596.2</ele>
        <time>2021-05-28T11:43:07Z</time>
      </trkpt>
      <trkpt lat="45.46647" lon="6.53619">
        <ele>596.6</ele>
        <time>2021-05-28T11:43:08Z</time>
      </trkpt>
      <trkpt lat="45.46645" lon="6.53626">
        <ele>597</ele>
        <time>2021-05-28T11:43:09Z</time>
      </trkpt>
      <trkpt lat="45.46644" lon="6.53633">
        <ele>597.2</ele>
        <time>2021-05-28T11:43:10Z</time>
      </trkpt>
      <trkpt lat="45.46643" lon="6.53641">
        <ele>597.4</ele>
        <time>2021-05-28T11:43:11Z</time>
      </trkpt>
      <trkpt lat="45.46642" lon="6.53649">
        <ele>597.6</ele>
        <time>2021-05-28T11:43:12Z</time>
      </trkpt>
      <trkpt lat="45.46641" lon="6.53656">
        <ele>597.8</ele>
        <time>2021-05-28T11:43:13Z</time>
      </trkpt>
      <trkpt lat="45.4664" lon="6.53664">
        <ele>598.2</ele>
        <time>2021-05-28T11:43:14Z</time>
      </trkpt>
      <trkpt lat="45.4664" lon="6.53672">
        <ele>598.4</ele>
        <time>2021-05-28T11:43:15Z</time>
      </trkpt>
      <trkpt lat="45.4664" lon="6.5368">
        <ele>598.8</ele>
        <time>2021-05-28T11:43:16Z</time>
      </trkpt>
      <trkpt lat="45.4664" lon="6.53688">
        <ele>599</ele>
        <time>2021-05-28T11:43:17Z</time>
      </trkpt>
      <trkpt lat="45.46638" lon="6.53696">
        <ele>599.4</ele>
        <time>2021-05-28T11:43:18Z</time>
      </trkpt>
      <trkpt lat="45.46636" lon="6.53703">
        <ele>600</ele>
        <time>2021-05-28T11:43:19Z</time>
      </trkpt>
      <trkpt lat="45.46634" lon="6.53711">
        <ele>600.4</ele>
        <time>2021-05-28T11:43:20Z</time>
      </trkpt>
      <trkpt lat="45.46632" lon="6.53719">
        <ele>600.6</ele>
        <time>2021-05-28T11:43:21Z</time>
      </trkpt>
      <trkpt lat="45.4663" lon="6.53726">
        <ele>601</ele>
        <time>2021-05-28T11:43:22Z</time>
      </trkpt>
      <trkpt lat="45.46629" lon="6.53733">
        <ele>601.4</ele>
        <time>2021-05-28T11:43:23Z</time>
      </trkpt>
      <trkpt lat="45.46628" lon="6.53741">
        <ele>602</ele>
        <time>2021-05-28T11:43:24Z</time>
      </trkpt>
      <trkpt lat="45.46627" lon="6.53748">
        <ele>602.6</ele>
        <time>2021-05-28T11:43:25Z</time>
      </trkpt>
      <trkpt lat="45.46626" lon="6.53756">
        <ele>602.8</ele>
        <time>2021-05-28T11:43:26Z</time>
      </trkpt>
      <trkpt lat="45.46626" lon="6.53763">
        <ele>603.2</ele>
        <time>2021-05-28T11:43:27Z</time>
      </trkpt>
      <trkpt lat="45.46624" lon="6.53771">
        <ele>603.6</ele>
        <time>2021-05-28T11:43:28Z</time>
      </trkpt>
      <trkpt lat="45.46623" lon="6.53779">
        <ele>603.8</ele>
        <time>2021-05-28T11:43:29Z</time>
      </trkpt>
      <trkpt lat="45.46622" lon="6.53786">
        <ele>604.2</ele>
        <time>2021-05-28T11:43:30Z</time>
      </trkpt>
      <trkpt lat="45.4662" lon="6.53793">
        <ele>604.4</ele>
        <time>2021-05-28T11:43:31Z</time>
      </trkpt>
      <trkpt lat="45.46619" lon="6.53799">
        <ele>604.6</ele>
        <time>2021-05-28T11:43:32Z</time>
      </trkpt>
      <trkpt lat="45.46618" lon="6.53806">
        <ele>604.8</ele>
        <time>2021-05-28T11:43:33Z</time>
      </trkpt>
      <trkpt lat="45.46616" lon="6.53813">
        <ele>605.2</ele>
        <time>2021-05-28T11:43:34Z</time>
      </trkpt>
      <trkpt lat="45.46615" lon="6.5382">
        <ele>605.4</ele>
        <time>2021-05-28T11:43:35Z</time>
      </trkpt>
      <trkpt lat="45.46614" lon="6.53827">
        <ele>606</ele>
        <time>2021-05-28T11:43:36Z</time>
      </trkpt>
      <trkpt lat="45.46614" lon="6.53833">
        <ele>606.4</ele>
        <time>2021-05-28T11:43:37Z</time>
      </trkpt>
      <trkpt lat="45.46614" lon="6.5384">
        <ele>606.6</ele>
        <time>2021-05-28T11:43:38Z</time>
      </trkpt>
      <trkpt lat="45.46613" lon="6.53847">
        <ele>606.8</ele>
        <time>2021-05-28T11:43:39Z</time>
      </trkpt>
      <trkpt lat="45.46613" lon="6.53854">
        <ele>607</ele>
        <time>2021-05-28T11:43:40Z</time>
      </trkpt>
      <trkpt lat="45.46613" lon="6.53861">
        <ele>607.2</ele>
        <time>2021-05-28T11:43:41Z</time>
      </trkpt>
      <trkpt lat="45.46613" lon="6.53868">
        <ele>607.8</ele>
        <time>2021-05-28T11:43:42Z</time>
      </trkpt>
      <trkpt lat="45.46614" lon="6.53875">
        <ele>608.4</ele>
        <time>2021-05-28T11:43:43Z</time>
      </trkpt>
      <trkpt lat="45.46614" lon="6.53883">
        <ele>609</ele>
        <time>2021-05-28T11:43:44Z</time>
      </trkpt>
      <trkpt lat="45.46615" lon="6.5389">
        <ele>609.6</ele>
        <time>2021-05-28T11:43:45Z</time>
      </trkpt>
      <trkpt lat="45.46616" lon="6.53897">
        <ele>610</ele>
        <time>2021-05-28T11:43:46Z</time>
      </trkpt>
      <trkpt lat="45.46617" lon="6.53904">
        <ele>610.6</ele>
        <time>2021-05-28T11:43:47Z</time>
      </trkpt>
      <trkpt lat="45.46618" lon="6.53911">
        <ele>611</ele>
        <time>2021-05-28T11:43:48Z</time>
      </trkpt>
      <trkpt lat="45.46619" lon="6.53918">
        <ele>611.4</ele>
        <time>2021-05-28T11:43:49Z</time>
      </trkpt>
      <trkpt lat="45.46619" lon="6.53926">
        <ele>611.8</ele>
        <time>2021-05-28T11:43:50Z</time>
      </trkpt>
      <trkpt lat="45.46619" lon="6.53933">
        <ele>612.2</ele>
        <time>2021-05-28T11:43:51Z</time>
      </trkpt>
      <trkpt lat="45.46619" lon="6.5394">
        <ele>612.6</ele>
        <time>2021-05-28T11:43:52Z</time>
      </trkpt>
      <trkpt lat="45.46617" lon="6.53947">
        <ele>612.8</ele>
        <time>2021-05-28T11:43:53Z</time>
      </trkpt>
      <trkpt lat="45.46615" lon="6.53955">
        <ele>613.2</ele>
        <time>2021-05-28T11:43:54Z</time>
      </trkpt>
      <trkpt lat="45.46613" lon="6.53961">
        <ele>613.4</ele>
        <time>2021-05-28T11:43:55Z</time>
      </trkpt>
      <trkpt lat="45.4661" lon="6.53967">
        <ele>613.6</ele>
        <time>2021-05-28T11:43:56Z</time>
      </trkpt>
      <trkpt lat="45.46608" lon="6.53973">
        <ele>614</ele>
        <time>2021-05-28T11:43:57Z</time>
      </trkpt>
      <trkpt lat="45.46605" lon="6.53978">
        <ele>614.2</ele>
        <time>2021-05-28T11:43:58Z</time>
      </trkpt>
      <trkpt lat="45.46603" lon="6.53983">
        <ele>614.4</ele>
        <time>2021-05-28T11:43:59Z</time>
      </trkpt>
      <trkpt lat="45.46602" lon="6.53988">
        <ele>614.6</ele>
        <time>2021-05-28T11:44:00Z</time>
      </trkpt>
      <trkpt lat="45.466" lon="6.53995">
        <ele>615</ele>
        <time>2021-05-28T11:44:01Z</time>
      </trkpt>
      <trkpt lat="45.466" lon="6.54001">
        <ele>615</ele>
        <time>2021-05-28T11:44:02Z</time>
      </trkpt>
      <trkpt lat="45.466" lon="6.54008">
        <ele>615.4</ele>
        <time>2021-05-28T11:44:03Z</time>
      </trkpt>
      <trkpt lat="45.46601" lon="6.54014">
        <ele>615.8</ele>
        <time>2021-05-28T11:44:04Z</time>
      </trkpt>
      <trkpt lat="45.46603" lon="6.54021">
        <ele>616.2</ele>
        <time>2021-05-28T11:44:05Z</time>
      </trkpt>
      <trkpt lat="45.46604" lon="6.54028">
        <ele>616.4</ele>
        <time>2021-05-28T11:44:06Z</time>
      </trkpt>
      <trkpt lat="45.46604" lon="6.54035">
        <ele>616.6</ele>
        <time>2021-05-28T11:44:07Z</time>
      </trkpt>
      <trkpt lat="45.46604" lon="6.54042">
        <ele>616.8</ele>
        <time>2021-05-28T11:44:08Z</time>
      </trkpt>
      <trkpt lat="45.46604" lon="6.54049">
        <ele>617.2</ele>
        <time>2021-05-28T11:44:09Z</time>
      </trkpt>
      <trkpt lat="45.46602" lon="6.54056">
        <ele>617.6</ele>
        <time>2021-05-28T11:44:10Z</time>
      </trkpt>
      <trkpt lat="45.466" lon="6.54062">
        <ele>618</ele>
        <time>2021-05-28T11:44:11Z</time>
      </trkpt>
      <trkpt lat="45.46598" lon="6.54068">
        <ele>618.2</ele>
        <time>2021-05-28T11:44:12Z</time>
      </trkpt>
      <trkpt lat="45.46596" lon="6.54072">
        <ele>618.8</ele>
        <time>2021-05-28T11:44:13Z</time>
      </trkpt>
      <trkpt lat="45.46594" lon="6.54077">
        <ele>619.4</ele>
        <time>2021-05-28T11:44:14Z</time>
      </trkpt>
      <trkpt lat="45.46592" lon="6.54082">
        <ele>619.6</ele>
        <time>2021-05-28T11:44:15Z</time>
      </trkpt>
      <trkpt lat="45.46591" lon="6.54087">
        <ele>619.6</ele>
        <time>2021-05-28T11:44:16Z</time>
      </trkpt>
      <trkpt lat="45.4659" lon="6.54092">
        <ele>619.4</ele>
        <time>2021-05-28T11:44:17Z</time>
      </trkpt>
      <trkpt lat="45.46588" lon="6.54097">
        <ele>619.4</ele>
        <time>2021-05-28T11:44:18Z</time>
      </trkpt>
      <trkpt lat="45.46586" lon="6.54102">
        <ele>619.6</ele>
        <time>2021-05-28T11:44:19Z</time>
      </trkpt>
      <trkpt lat="45.46584" lon="6.54107">
        <ele>619.6</ele>
        <time>2021-05-28T11:44:20Z</time>
      </trkpt>
      <trkpt lat="45.46582" lon="6.54113">
        <ele>620</ele>
        <time>2021-05-28T11:44:21Z</time>
      </trkpt>
      <trkpt lat="45.4658" lon="6.54118">
        <ele>620</ele>
        <time>2021-05-28T11:44:22Z</time>
      </trkpt>
      <trkpt lat="45.46578" lon="6.54124">
        <ele>620.2</ele>
        <time>2021-05-28T11:44:23Z</time>
      </trkpt>
      <trkpt lat="45.46574" lon="6.54129">
        <ele>620.2</ele>
        <time>2021-05-28T11:44:24Z</time>
      </trkpt>
      <trkpt lat="45.46572" lon="6.54134">
        <ele>620.4</ele>
        <time>2021-05-28T11:44:25Z</time>
      </trkpt>
      <trkpt lat="45.46569" lon="6.54139">
        <ele>621</ele>
        <time>2021-05-28T11:44:26Z</time>
      </trkpt>
      <trkpt lat="45.46567" lon="6.54144">
        <ele>621.2</ele>
        <time>2021-05-28T11:44:27Z</time>
      </trkpt>
      <trkpt lat="45.46565" lon="6.5415">
        <ele>621.6</ele>
        <time>2021-05-28T11:44:28Z</time>
      </trkpt>
      <trkpt lat="45.46564" lon="6.54155">
        <ele>622.2</ele>
        <time>2021-05-28T11:44:29Z</time>
      </trkpt>
      <trkpt lat="45.46564" lon="6.54162">
        <ele>622.4</ele>
        <time>2021-05-28T11:44:30Z</time>
      </trkpt>
      <trkpt lat="45.46564" lon="6.54167">
        <ele>622.6</ele>
        <time>2021-05-28T11:44:31Z</time>
      </trkpt>
      <trkpt lat="45.46564" lon="6.54173">
        <ele>623</ele>
        <time>2021-05-28T11:44:32Z</time>
      </trkpt>
      <trkpt lat="45.46564" lon="6.5418">
        <ele>623.4</ele>
        <time>2021-05-28T11:44:33Z</time>
      </trkpt>
      <trkpt lat="45.46564" lon="6.54186">
        <ele>623.6</ele>
        <time>2021-05-28T11:44:34Z</time>
      </trkpt>
      <trkpt lat="45.46564" lon="6.54192">
        <ele>623.8</ele>
        <time>2021-05-28T11:44:35Z</time>
      </trkpt>
      <trkpt lat="45.46563" lon="6.54198">
        <ele>624</ele>
        <time>2021-05-28T11:44:36Z</time>
      </trkpt>
      <trkpt lat="45.46563" lon="6.54204">
        <ele>624.4</ele>
        <time>2021-05-28T11:44:37Z</time>
      </trkpt>
      <trkpt lat="45.46562" lon="6.5421">
        <ele>624.8</ele>
        <time>2021-05-28T11:44:38Z</time>
      </trkpt>
      <trkpt lat="45.46561" lon="6.54216">
        <ele>625.2</ele>
        <time>2021-05-28T11:44:39Z</time>
      </trkpt>
      <trkpt lat="45.46561" lon="6.54222">
        <ele>625.4</ele>
        <time>2021-05-28T11:44:40Z</time>
      </trkpt>
      <trkpt lat="45.4656" lon="6.54228">
        <ele>625.8</ele>
        <time>2021-05-28T11:44:41Z</time>
      </trkpt>
      <trkpt lat="45.46558" lon="6.54234">
        <ele>626</ele>
        <time>2021-05-28T11:44:42Z</time>
      </trkpt>
      <trkpt lat="45.46556" lon="6.5424">
        <ele>626</ele>
        <time>2021-05-28T11:44:43Z</time>
      </trkpt>
      <trkpt lat="45.46555" lon="6.54245">
        <ele>626</ele>
        <time>2021-05-28T11:44:44Z</time>
      </trkpt>
      <trkpt lat="45.46554" lon="6.54251">
        <ele>626.4</ele>
        <time>2021-05-28T11:44:45Z</time>
      </trkpt>
      <trkpt lat="45.46553" lon="6.54257">
        <ele>626.6</ele>
        <time>2021-05-28T11:44:46Z</time>
      </trkpt>
      <trkpt lat="45.46551" lon="6.54263">
        <ele>627</ele>
        <time>2021-05-28T11:44:47Z</time>
      </trkpt>
      <trkpt lat="45.4655" lon="6.54268">
        <ele>627.4</ele>
        <time>2021-05-28T11:44:48Z</time>
      </trkpt>
      <trkpt lat="45.46548" lon="6.54274">
        <ele>628</ele>
        <time>2021-05-28T11:44:49Z</time>
      </trkpt>
      <trkpt lat="45.46547" lon="6.54279">
        <ele>628.2</ele>
        <time>2021-05-28T11:44:50Z</time>
      </trkpt>
      <trkpt lat="45.46545" lon="6.54285">
        <ele>628.4</ele>
        <time>2021-05-28T11:44:51Z</time>
      </trkpt>
      <trkpt lat="45.46543" lon="6.5429">
        <ele>628.4</ele>
        <time>2021-05-28T11:44:52Z</time>
      </trkpt>
      <trkpt lat="45.46541" lon="6.54295">
        <ele>628.6</ele>
        <time>2021-05-28T11:44:53Z</time>
      </trkpt>
      <trkpt lat="45.46539" lon="6.543">
        <ele>629</ele>
        <time>2021-05-28T11:44:54Z</time>
      </trkpt>
      <trkpt lat="45.46537" lon="6.54306">
        <ele>629.2</ele>
        <time>2021-05-28T11:44:55Z</time>
      </trkpt>
      <trkpt lat="45.46535" lon="6.54312">
        <ele>629.6</ele>
        <time>2021-05-28T11:44:56Z</time>
      </trkpt>
      <trkpt lat="45.46533" lon="6.54317">
        <ele>629.8</ele>
        <time>2021-05-28T11:44:57Z</time>
      </trkpt>
      <trkpt lat="45.46531" lon="6.54323">
        <ele>630</ele>
        <time>2021-05-28T11:44:58Z</time>
      </trkpt>
      <trkpt lat="45.46529" lon="6.54328">
        <ele>630.2</ele>
        <time>2021-05-28T11:44:59Z</time>
      </trkpt>
      <trkpt lat="45.46527" lon="6.54334">
        <ele>630.4</ele>
        <time>2021-05-28T11:45:00Z</time>
      </trkpt>
      <trkpt lat="45.46524" lon="6.5434">
        <ele>630.8</ele>
        <time>2021-05-28T11:45:01Z</time>
      </trkpt>
      <trkpt lat="45.46523" lon="6.54345">
        <ele>630.8</ele>
        <time>2021-05-28T11:45:02Z</time>
      </trkpt>
      <trkpt lat="45.46521" lon="6.5435">
        <ele>631</ele>
        <time>2021-05-28T11:45:03Z</time>
      </trkpt>
      <trkpt lat="45.46518" lon="6.54355">
        <ele>631.4</ele>
        <time>2021-05-28T11:45:04Z</time>
      </trkpt>
      <trkpt lat="45.46516" lon="6.5436">
        <ele>631.6</ele>
        <time>2021-05-28T11:45:05Z</time>
      </trkpt>
      <trkpt lat="45.46514" lon="6.54366">
        <ele>631.8</ele>
        <time>2021-05-28T11:45:06Z</time>
      </trkpt>
      <trkpt lat="45.46512" lon="6.54371">
        <ele>631.8</ele>
        <time>2021-05-28T11:45:07Z</time>
      </trkpt>
      <trkpt lat="45.4651" lon="6.54377">
        <ele>632.2</ele>
        <time>2021-05-28T11:45:08Z</time>
      </trkpt>
      <trkpt lat="45.46509" lon="6.54382">
        <ele>632.6</ele>
        <time>2021-05-28T11:45:09Z</time>
      </trkpt>
      <trkpt lat="45.46507" lon="6.54388">
        <ele>632.8</ele>
        <time>2021-05-28T11:45:10Z</time>
      </trkpt>
      <trkpt lat="45.46505" lon="6.54394">
        <ele>633.2</ele>
        <time>2021-05-28T11:45:11Z</time>
      </trkpt>
      <trkpt lat="45.46504" lon="6.544">
        <ele>633.6</ele>
        <time>2021-05-28T11:45:12Z</time>
      </trkpt>
      <trkpt lat="45.46502" lon="6.54405">
        <ele>633.8</ele>
        <time>2021-05-28T11:45:13Z</time>
      </trkpt>
      <trkpt lat="45.465" lon="6.54411">
        <ele>634</ele>
        <time>2021-05-28T11:45:14Z</time>
      </trkpt>
      <trkpt lat="45.46499" lon="6.54417">
        <ele>634.2</ele>
        <time>2021-05-28T11:45:15Z</time>
      </trkpt>
      <trkpt lat="45.46497" lon="6.54422">
        <ele>634.6</ele>
        <time>2021-05-28T11:45:16Z</time>
      </trkpt>
      <trkpt lat="45.46495" lon="6.54428">
        <ele>634.8</ele>
        <time>2021-05-28T11:45:17Z</time>
      </trkpt>
      <trkpt lat="45.46493" lon="6.54433">
        <ele>634.8</ele>
        <time>2021-05-28T11:45:18Z</time>
      </trkpt>
      <trkpt lat="45.46492" lon="6.54439">
        <ele>635</ele>
        <time>2021-05-28T11:45:19Z</time>
      </trkpt>
      <trkpt lat="45.4649" lon="6.54444">
        <ele>635.2</ele>
        <time>2021-05-28T11:45:20Z</time>
      </trkpt>
      <trkpt lat="45.46488" lon="6.5445">
        <ele>634.4</ele>
        <time>2021-05-28T11:45:21Z</time>
      </trkpt>
      <trkpt lat="45.46486" lon="6.54455">
        <ele>633.4</ele>
        <time>2021-05-28T11:45:22Z</time>
      </trkpt>
      <trkpt lat="45.46484" lon="6.54461">
        <ele>633</ele>
        <time>2021-05-28T11:45:23Z</time>
      </trkpt>
      <trkpt lat="45.46483" lon="6.54467">
        <ele>632.6</ele>
        <time>2021-05-28T11:45:24Z</time>
      </trkpt>
      <trkpt lat="45.46481" lon="6.54472">
        <ele>633</ele>
        <time>2021-05-28T11:45:25Z</time>
      </trkpt>
      <trkpt lat="45.46479" lon="6.54478">
        <ele>633</ele>
        <time>2021-05-28T11:45:26Z</time>
      </trkpt>
      <trkpt lat="45.46477" lon="6.54484">
        <ele>633</ele>
        <time>2021-05-28T11:45:27Z</time>
      </trkpt>
      <trkpt lat="45.46475" lon="6.5449">
        <ele>633.2</ele>
        <time>2021-05-28T11:45:28Z</time>
      </trkpt>
      <trkpt lat="45.46474" lon="6.54495">
        <ele>633.6</ele>
        <time>2021-05-28T11:45:29Z</time>
      </trkpt>
      <trkpt lat="45.46472" lon="6.54501">
        <ele>634</ele>
        <time>2021-05-28T11:45:30Z</time>
      </trkpt>
      <trkpt lat="45.4647" lon="6.54507">
        <ele>634.4</ele>
        <time>2021-05-28T11:45:31Z</time>
      </trkpt>
      <trkpt lat="45.46468" lon="6.54512">
        <ele>634.8</ele>
        <time>2021-05-28T11:45:32Z</time>
      </trkpt>
      <trkpt lat="45.46466" lon="6.54518">
        <ele>635.2</ele>
        <time>2021-05-28T11:45:33Z</time>
      </trkpt>
      <trkpt lat="45.46464" lon="6.54525">
        <ele>635.8</ele>
        <time>2021-05-28T11:45:34Z</time>
      </trkpt>
      <trkpt lat="45.46463" lon="6.5453">
        <ele>636.4</ele>
        <time>2021-05-28T11:45:35Z</time>
      </trkpt>
      <trkpt lat="45.46461" lon="6.54536">
        <ele>636.8</ele>
        <time>2021-05-28T11:45:36Z</time>
      </trkpt>
      <trkpt lat="45.46461" lon="6.54542">
        <ele>636.8</ele>
        <time>2021-05-28T11:45:37Z</time>
      </trkpt>
      <trkpt lat="45.4646" lon="6.54548">
        <ele>637</ele>
        <time>2021-05-28T11:45:38Z</time>
      </trkpt>
      <trkpt lat="45.4646" lon="6.54554">
        <ele>637.4</ele>
        <time>2021-05-28T11:45:39Z</time>
      </trkpt>
      <trkpt lat="45.46459" lon="6.5456">
        <ele>637.6</ele>
        <time>2021-05-28T11:45:40Z</time>
      </trkpt>
      <trkpt lat="45.46457" lon="6.54566">
        <ele>637.8</ele>
        <time>2021-05-28T11:45:41Z</time>
      </trkpt>
      <trkpt lat="45.46456" lon="6.54572">
        <ele>638</ele>
        <time>2021-05-28T11:45:42Z</time>
      </trkpt>
      <trkpt lat="45.46455" lon="6.54578">
        <ele>638.2</ele>
        <time>2021-05-28T11:45:43Z</time>
      </trkpt>
      <trkpt lat="45.46453" lon="6.54584">
        <ele>638.2</ele>
        <time>2021-05-28T11:45:44Z</time>
      </trkpt>
      <trkpt lat="45.46452" lon="6.5459">
        <ele>638.8</ele>
        <time>2021-05-28T11:45:45Z</time>
      </trkpt>
      <trkpt lat="45.46451" lon="6.54596">
        <ele>639.2</ele>
        <time>2021-05-28T11:45:46Z</time>
      </trkpt>
      <trkpt lat="45.4645" lon="6.54602">
        <ele>639.2</ele>
        <time>2021-05-28T11:45:47Z</time>
      </trkpt>
      <trkpt lat="45.46449" lon="6.54608">
        <ele>639.4</ele>
        <time>2021-05-28T11:45:48Z</time>
      </trkpt>
      <trkpt lat="45.46447" lon="6.54614">
        <ele>639.8</ele>
        <time>2021-05-28T11:45:49Z</time>
      </trkpt>
      <trkpt lat="45.46446" lon="6.54619">
        <ele>640.6</ele>
        <time>2021-05-28T11:45:50Z</time>
      </trkpt>
      <trkpt lat="45.46444" lon="6.54625">
        <ele>640.8</ele>
        <time>2021-05-28T11:45:51Z</time>
      </trkpt>
      <trkpt lat="45.46443" lon="6.54632">
        <ele>641.2</ele>
        <time>2021-05-28T11:45:52Z</time>
      </trkpt>
      <trkpt lat="45.46443" lon="6.54638">
        <ele>641.2</ele>
        <time>2021-05-28T11:45:53Z</time>
      </trkpt>
      <trkpt lat="45.46444" lon="6.54644">
        <ele>641.6</ele>
        <time>2021-05-28T11:45:54Z</time>
      </trkpt>
      <trkpt lat="45.46444" lon="6.54649">
        <ele>641.8</ele>
        <time>2021-05-28T11:45:55Z</time>
      </trkpt>
      <trkpt lat="45.46445" lon="6.54655">
        <ele>641.8</ele>
        <time>2021-05-28T11:45:56Z</time>
      </trkpt>
      <trkpt lat="45.46447" lon="6.54661">
        <ele>642.2</ele>
        <time>2021-05-28T11:45:57Z</time>
      </trkpt>
      <trkpt lat="45.46449" lon="6.54667">
        <ele>642.2</ele>
        <time>2021-05-28T11:45:58Z</time>
      </trkpt>
      <trkpt lat="45.4645" lon="6.54672">
        <ele>642.4</ele>
        <time>2021-05-28T11:45:59Z</time>
      </trkpt>
      <trkpt lat="45.46452" lon="6.54678">
        <ele>642.8</ele>
        <time>2021-05-28T11:46:00Z</time>
      </trkpt>
      <trkpt lat="45.46455" lon="6.54685">
        <ele>642.8</ele>
        <time>2021-05-28T11:46:01Z</time>
      </trkpt>
      <trkpt lat="45.46457" lon="6.54691">
        <ele>642.8</ele>
        <time>2021-05-28T11:46:02Z</time>
      </trkpt>
      <trkpt lat="45.46459" lon="6.54696">
        <ele>643</ele>
        <time>2021-05-28T11:46:03Z</time>
      </trkpt>
      <trkpt lat="45.46461" lon="6.54702">
        <ele>643.2</ele>
        <time>2021-05-28T11:46:04Z</time>
      </trkpt>
      <trkpt lat="45.46463" lon="6.54707">
        <ele>643.2</ele>
        <time>2021-05-28T11:46:05Z</time>
      </trkpt>
      <trkpt lat="45.46465" lon="6.54713">
        <ele>643.8</ele>
        <time>2021-05-28T11:46:06Z</time>
      </trkpt>
      <trkpt lat="45.46466" lon="6.54719">
        <ele>644.2</ele>
        <time>2021-05-28T11:46:07Z</time>
      </trkpt>
      <trkpt lat="45.46467" lon="6.54726">
        <ele>644.8</ele>
        <time>2021-05-28T11:46:08Z</time>
      </trkpt>
      <trkpt lat="45.46468" lon="6.54732">
        <ele>645.6</ele>
        <time>2021-05-28T11:46:09Z</time>
      </trkpt>
      <trkpt lat="45.46467" lon="6.54738">
        <ele>645.8</ele>
        <time>2021-05-28T11:46:10Z</time>
      </trkpt>
      <trkpt lat="45.46467" lon="6.54743">
        <ele>646</ele>
        <time>2021-05-28T11:46:11Z</time>
      </trkpt>
      <trkpt lat="45.46465" lon="6.54748">
        <ele>646.4</ele>
        <time>2021-05-28T11:46:12Z</time>
      </trkpt>
      <trkpt lat="45.46463" lon="6.54754">
        <ele>646.8</ele>
        <time>2021-05-28T11:46:13Z</time>
      </trkpt>
      <trkpt lat="45.46462" lon="6.54759">
        <ele>647</ele>
        <time>2021-05-28T11:46:14Z</time>
      </trkpt>
      <trkpt lat="45.46461" lon="6.54764">
        <ele>647.4</ele>
        <time>2021-05-28T11:46:15Z</time>
      </trkpt>
      <trkpt lat="45.46459" lon="6.54768">
        <ele>647.8</ele>
        <time>2021-05-28T11:46:16Z</time>
      </trkpt>
      <trkpt lat="45.46457" lon="6.54771">
        <ele>648.2</ele>
        <time>2021-05-28T11:46:17Z</time>
      </trkpt>
      <trkpt lat="45.46452" lon="6.54773">
        <ele>647.6</ele>
        <time>2021-05-28T11:46:19Z</time>
      </trkpt>
      <trkpt lat="45.46449" lon="6.54774">
        <ele>647.4</ele>
        <time>2021-05-28T11:46:20Z</time>
      </trkpt>
      <trkpt lat="45.46446" lon="6.54776">
        <ele>646.8</ele>
        <time>2021-05-28T11:46:21Z</time>
      </trkpt>
      <trkpt lat="45.46443" lon="6.54777">
        <ele>646.4</ele>
        <time>2021-05-28T11:46:22Z</time>
      </trkpt>
      <trkpt lat="45.46439" lon="6.54778">
        <ele>645.8</ele>
        <time>2021-05-28T11:46:23Z</time>
      </trkpt>
      <trkpt lat="45.46435" lon="6.54779">
        <ele>645.6</ele>
        <time>2021-05-28T11:46:24Z</time>
      </trkpt>
      <trkpt lat="45.46431" lon="6.5478">
        <ele>645.6</ele>
        <time>2021-05-28T11:46:25Z</time>
      </trkpt>
      <trkpt lat="45.46427" lon="6.54782">
        <ele>645.4</ele>
        <time>2021-05-28T11:46:26Z</time>
      </trkpt>
      <trkpt lat="45.46423" lon="6.54784">
        <ele>645</ele>
        <time>2021-05-28T11:46:27Z</time>
      </trkpt>
      <trkpt lat="45.46419" lon="6.54786">
        <ele>645</ele>
        <time>2021-05-28T11:46:28Z</time>
      </trkpt>
      <trkpt lat="45.46415" lon="6.54788">
        <ele>645.4</ele>
        <time>2021-05-28T11:46:29Z</time>
      </trkpt>
      <trkpt lat="45.46411" lon="6.54791">
        <ele>645.8</ele>
        <time>2021-05-28T11:46:30Z</time>
      </trkpt>
      <trkpt lat="45.46408" lon="6.54795">
        <ele>646.4</ele>
        <time>2021-05-28T11:46:31Z</time>
      </trkpt>
      <trkpt lat="45.46405" lon="6.54798">
        <ele>647</ele>
        <time>2021-05-28T11:46:32Z</time>
      </trkpt>
      <trkpt lat="45.46402" lon="6.54802">
        <ele>647.8</ele>
        <time>2021-05-28T11:46:33Z</time>
      </trkpt>
      <trkpt lat="45.464" lon="6.54807">
        <ele>648.6</ele>
        <time>2021-05-28T11:46:34Z</time>
      </trkpt>
      <trkpt lat="45.46398" lon="6.54812">
        <ele>649.4</ele>
        <time>2021-05-28T11:46:35Z</time>
      </trkpt>
      <trkpt lat="45.46396" lon="6.54817">
        <ele>650</ele>
        <time>2021-05-28T11:46:36Z</time>
      </trkpt>
      <trkpt lat="45.46395" lon="6.54822">
        <ele>650.2</ele>
        <time>2021-05-28T11:46:37Z</time>
      </trkpt>
      <trkpt lat="45.46394" lon="6.54827">
        <ele>650.4</ele>
        <time>2021-05-28T11:46:38Z</time>
      </trkpt>
      <trkpt lat="45.46393" lon="6.54833">
        <ele>650.6</ele>
        <time>2021-05-28T11:46:39Z</time>
      </trkpt>
      <trkpt lat="45.46392" lon="6.54838">
        <ele>650.8</ele>
        <time>2021-05-28T11:46:40Z</time>
      </trkpt>
      <trkpt lat="45.46392" lon="6.54843">
        <ele>650.8</ele>
        <time>2021-05-28T11:46:41Z</time>
      </trkpt>
      <trkpt lat="45.4639" lon="6.54847">
        <ele>651</ele>
        <time>2021-05-28T11:46:42Z</time>
      </trkpt>
      <trkpt lat="45.46389" lon="6.54852">
        <ele>651.2</ele>
        <time>2021-05-28T11:46:43Z</time>
      </trkpt>
      <trkpt lat="45.46388" lon="6.54858">
        <ele>651.4</ele>
        <time>2021-05-28T11:46:44Z</time>
      </trkpt>
      <trkpt lat="45.46387" lon="6.54863">
        <ele>651.8</ele>
        <time>2021-05-28T11:46:45Z</time>
      </trkpt>
      <trkpt lat="45.46386" lon="6.54868">
        <ele>652</ele>
        <time>2021-05-28T11:46:46Z</time>
      </trkpt>
      <trkpt lat="45.46384" lon="6.54872">
        <ele>652.2</ele>
        <time>2021-05-28T11:46:47Z</time>
      </trkpt>
      <trkpt lat="45.46382" lon="6.54877">
        <ele>652.4</ele>
        <time>2021-05-28T11:46:48Z</time>
      </trkpt>
      <trkpt lat="45.4638" lon="6.54882">
        <ele>652.6</ele>
        <time>2021-05-28T11:46:49Z</time>
      </trkpt>
      <trkpt lat="45.46378" lon="6.54886">
        <ele>652.6</ele>
        <time>2021-05-28T11:46:50Z</time>
      </trkpt>
      <trkpt lat="45.46376" lon="6.5489">
        <ele>653.2</ele>
        <time>2021-05-28T11:46:51Z</time>
      </trkpt>
      <trkpt lat="45.46373" lon="6.54893">
        <ele>653</ele>
        <time>2021-05-28T11:46:52Z</time>
      </trkpt>
      <trkpt lat="45.46371" lon="6.54897">
        <ele>653</ele>
        <time>2021-05-28T11:46:53Z</time>
      </trkpt>
      <trkpt lat="45.46368" lon="6.54901">
        <ele>653.2</ele>
        <time>2021-05-28T11:46:54Z</time>
      </trkpt>
      <trkpt lat="45.46366" lon="6.54904">
        <ele>653.6</ele>
        <time>2021-05-28T11:46:55Z</time>
      </trkpt>
      <trkpt lat="45.46363" lon="6.54907">
        <ele>653.8</ele>
        <time>2021-05-28T11:46:56Z</time>
      </trkpt>
      <trkpt lat="45.4636" lon="6.5491">
        <ele>654.2</ele>
        <time>2021-05-28T11:46:57Z</time>
      </trkpt>
      <trkpt lat="45.46356" lon="6.54912">
        <ele>655</ele>
        <time>2021-05-28T11:46:58Z</time>
      </trkpt>
      <trkpt lat="45.46354" lon="6.54915">
        <ele>655.6</ele>
        <time>2021-05-28T11:46:59Z</time>
      </trkpt>
      <trkpt lat="45.46352" lon="6.54919">
        <ele>656</ele>
        <time>2021-05-28T11:47:00Z</time>
      </trkpt>
      <trkpt lat="45.46349" lon="6.54922">
        <ele>656.4</ele>
        <time>2021-05-28T11:47:01Z</time>
      </trkpt>
      <trkpt lat="45.46347" lon="6.54926">
        <ele>656.6</ele>
        <time>2021-05-28T11:47:02Z</time>
      </trkpt>
      <trkpt lat="45.46346" lon="6.5493">
        <ele>657.2</ele>
        <time>2021-05-28T11:47:03Z</time>
      </trkpt>
      <trkpt lat="45.46343" lon="6.54933">
        <ele>657.6</ele>
        <time>2021-05-28T11:47:04Z</time>
      </trkpt>
      <trkpt lat="45.46342" lon="6.54937">
        <ele>658</ele>
        <time>2021-05-28T11:47:05Z</time>
      </trkpt>
      <trkpt lat="45.4634" lon="6.54941">
        <ele>658.4</ele>
        <time>2021-05-28T11:47:06Z</time>
      </trkpt>
      <trkpt lat="45.46338" lon="6.54945">
        <ele>658.6</ele>
        <time>2021-05-28T11:47:07Z</time>
      </trkpt>
      <trkpt lat="45.46336" lon="6.54949">
        <ele>659</ele>
        <time>2021-05-28T11:47:08Z</time>
      </trkpt>
      <trkpt lat="45.46335" lon="6.54954">
        <ele>659.4</ele>
        <time>2021-05-28T11:47:09Z</time>
      </trkpt>
      <trkpt lat="45.46334" lon="6.54959">
        <ele>659.6</ele>
        <time>2021-05-28T11:47:10Z</time>
      </trkpt>
      <trkpt lat="45.46333" lon="6.54963">
        <ele>660</ele>
        <time>2021-05-28T11:47:11Z</time>
      </trkpt>
      <trkpt lat="45.46331" lon="6.54968">
        <ele>660</ele>
        <time>2021-05-28T11:47:12Z</time>
      </trkpt>
      <trkpt lat="45.4633" lon="6.54973">
        <ele>660.4</ele>
        <time>2021-05-28T11:47:13Z</time>
      </trkpt>
      <trkpt lat="45.46328" lon="6.54977">
        <ele>661</ele>
        <time>2021-05-28T11:47:14Z</time>
      </trkpt>
      <trkpt lat="45.46327" lon="6.54982">
        <ele>661.4</ele>
        <time>2021-05-28T11:47:15Z</time>
      </trkpt>
      <trkpt lat="45.46326" lon="6.54986">
        <ele>661.4</ele>
        <time>2021-05-28T11:47:16Z</time>
      </trkpt>
      <trkpt lat="45.46324" lon="6.5499">
        <ele>662</ele>
        <time>2021-05-28T11:47:17Z</time>
      </trkpt>
      <trkpt lat="45.46323" lon="6.54994">
        <ele>662.4</ele>
        <time>2021-05-28T11:47:18Z</time>
      </trkpt>
      <trkpt lat="45.46321" lon="6.54999">
        <ele>662.8</ele>
        <time>2021-05-28T11:47:19Z</time>
      </trkpt>
      <trkpt lat="45.4632" lon="6.55003">
        <ele>663.2</ele>
        <time>2021-05-28T11:47:20Z</time>
      </trkpt>
      <trkpt lat="45.46318" lon="6.55012">
        <ele>663.8</ele>
        <time>2021-05-28T11:47:22Z</time>
      </trkpt>
      <trkpt lat="45.46316" lon="6.55017">
        <ele>664.2</ele>
        <time>2021-05-28T11:47:23Z</time>
      </trkpt>
      <trkpt lat="45.46152" lon="6.55283">
        <ele>678.8</ele>
        <time>2021-05-28T11:48:45Z</time>
      </trkpt>
      <trkpt lat="45.46151" lon="6.55287">
        <ele>679</ele>
        <time>2021-05-28T11:48:46Z</time>
      </trkpt>
      <trkpt lat="45.46139" lon="6.55314">
        <ele>681.2</ele>
        <time>2021-05-28T11:48:54Z</time>
      </trkpt>
      <trkpt lat="45.46138" lon="6.55317">
        <ele>681.6</ele>
        <time>2021-05-28T11:48:55Z</time>
      </trkpt>
      <trkpt lat="45.46137" lon="6.55321">
        <ele>682</ele>
        <time>2021-05-28T11:48:56Z</time>
      </trkpt>
      <trkpt lat="45.46136" lon="6.55325">
        <ele>682.4</ele>
        <time>2021-05-28T11:48:57Z</time>
      </trkpt>
      <trkpt lat="45.46136" lon="6.55329">
        <ele>682.8</ele>
        <time>2021-05-28T11:48:58Z</time>
      </trkpt>
      <trkpt lat="45.46135" lon="6.55332">
        <ele>683</ele>
        <time>2021-05-28T11:48:59Z</time>
      </trkpt>
      <trkpt lat="45.46133" lon="6.55335">
        <ele>683.2</ele>
        <time>2021-05-28T11:49:00Z</time>
      </trkpt>
      <trkpt lat="45.46132" lon="6.55339">
        <ele>683.4</ele>
        <time>2021-05-28T11:49:01Z</time>
      </trkpt>
      <trkpt lat="45.46131" lon="6.55343">
        <ele>683.6</ele>
        <time>2021-05-28T11:49:02Z</time>
      </trkpt>
      <trkpt lat="45.46129" lon="6.55346">
        <ele>683.8</ele>
        <time>2021-05-28T11:49:03Z</time>
      </trkpt>
      <trkpt lat="45.46127" lon="6.55349">
        <ele>684</ele>
        <time>2021-05-28T11:49:04Z</time>
      </trkpt>
      <trkpt lat="45.46125" lon="6.55352">
        <ele>684.2</ele>
        <time>2021-05-28T11:49:05Z</time>
      </trkpt>
      <trkpt lat="45.46122" lon="6.55355">
        <ele>684.6</ele>
        <time>2021-05-28T11:49:06Z</time>
      </trkpt>
      <trkpt lat="45.4612" lon="6.55358">
        <ele>684.8</ele>
        <time>2021-05-28T11:49:07Z</time>
      </trkpt>
      <trkpt lat="45.46118" lon="6.55361">
        <ele>685</ele>
        <time>2021-05-28T11:49:08Z</time>
      </trkpt>
      <trkpt lat="45.46116" lon="6.55363">
        <ele>685</ele>
        <time>2021-05-28T11:49:09Z</time>
      </trkpt>
      <trkpt lat="45.46113" lon="6.55366">
        <ele>685.2</ele>
        <time>2021-05-28T11:49:10Z</time>
      </trkpt>
      <trkpt lat="45.46111" lon="6.55369">
        <ele>685.2</ele>
        <time>2021-05-28T11:49:11Z</time>
      </trkpt>
      <trkpt lat="45.4611" lon="6.55373">
        <ele>685.4</ele>
        <time>2021-05-28T11:49:12Z</time>
      </trkpt>
      <trkpt lat="45.46108" lon="6.55376">
        <ele>685.4</ele>
        <time>2021-05-28T11:49:13Z</time>
      </trkpt>
      <trkpt lat="45.46108" lon="6.5538">
        <ele>685.6</ele>
        <time>2021-05-28T11:49:14Z</time>
      </trkpt>
      <trkpt lat="45.46108" lon="6.55383">
        <ele>686</ele>
        <time>2021-05-28T11:49:15Z</time>
      </trkpt>
      <trkpt lat="45.4611" lon="6.55382">
        <ele>687</ele>
        <time>2021-05-28T11:49:18Z</time>
      </trkpt>
      <trkpt lat="45.46112" lon="6.55379">
        <ele>687.4</ele>
        <time>2021-05-28T11:49:19Z</time>
      </trkpt>
      <trkpt lat="45.46113" lon="6.55376">
        <ele>687.8</ele>
        <time>2021-05-28T11:49:20Z</time>
      </trkpt>
      <trkpt lat="45.46115" lon="6.55374">
        <ele>688.2</ele>
        <time>2021-05-28T11:49:21Z</time>
      </trkpt>
      <trkpt lat="45.46116" lon="6.5537">
        <ele>688.4</ele>
        <time>2021-05-28T11:49:22Z</time>
      </trkpt>
      <trkpt lat="45.46118" lon="6.55366">
        <ele>688.6</ele>
        <time>2021-05-28T11:49:23Z</time>
      </trkpt>
      <trkpt lat="45.4612" lon="6.55363">
        <ele>688.8</ele>
        <time>2021-05-28T11:49:24Z</time>
      </trkpt>
      <trkpt lat="45.46122" lon="6.5536">
        <ele>689.6</ele>
        <time>2021-05-28T11:49:25Z</time>
      </trkpt>
      <trkpt lat="45.46124" lon="6.55356">
        <ele>690</ele>
        <time>2021-05-28T11:49:26Z</time>
      </trkpt>
      <trkpt lat="45.46126" lon="6.55352">
        <ele>690.4</ele>
        <time>2021-05-28T11:49:27Z</time>
      </trkpt>
      <trkpt lat="45.46127" lon="6.55348">
        <ele>690.8</ele>
        <time>2021-05-28T11:49:28Z</time>
      </trkpt>
      <trkpt lat="45.4613" lon="6.55345">
        <ele>691.2</ele>
        <time>2021-05-28T11:49:29Z</time>
      </trkpt>
      <trkpt lat="45.46132" lon="6.55342">
        <ele>691.4</ele>
        <time>2021-05-28T11:49:30Z</time>
      </trkpt>
      <trkpt lat="45.46135" lon="6.55339">
        <ele>691.4</ele>
        <time>2021-05-28T11:49:31Z</time>
      </trkpt>
      <trkpt lat="45.46136" lon="6.55336">
        <ele>691.2</ele>
        <time>2021-05-28T11:49:32Z</time>
      </trkpt>
      <trkpt lat="45.4614" lon="6.55335">
        <ele>690.8</ele>
        <time>2021-05-28T11:49:33Z</time>
      </trkpt>
      <trkpt lat="45.46142" lon="6.55334">
        <ele>690.6</ele>
        <time>2021-05-28T11:49:34Z</time>
      </trkpt>
      <trkpt lat="45.46145" lon="6.55332">
        <ele>690.6</ele>
        <time>2021-05-28T11:49:35Z</time>
      </trkpt>
      <trkpt lat="45.46146" lon="6.5533">
        <ele>690.8</ele>
        <time>2021-05-28T11:49:36Z</time>
      </trkpt>
      <trkpt lat="45.46148" lon="6.55329">
        <ele>690.4</ele>
        <time>2021-05-28T11:49:37Z</time>
      </trkpt>
      <trkpt lat="45.4615" lon="6.55327">
        <ele>689.4</ele>
        <time>2021-05-28T11:49:38Z</time>
      </trkpt>
      <trkpt lat="45.46153" lon="6.55326">
        <ele>688.2</ele>
        <time>2021-05-28T11:49:39Z</time>
      </trkpt>
      <trkpt lat="45.46155" lon="6.55322">
        <ele>686.8</ele>
        <time>2021-05-28T11:49:41Z</time>
      </trkpt>
      <trkpt lat="45.46156" lon="6.5532">
        <ele>686.6</ele>
        <time>2021-05-28T11:49:42Z</time>
      </trkpt>
      <trkpt lat="45.46158" lon="6.55318">
        <ele>686.6</ele>
        <time>2021-05-28T11:49:43Z</time>
      </trkpt>
      <trkpt lat="45.4616" lon="6.55317">
        <ele>686.2</ele>
        <time>2021-05-28T11:49:44Z</time>
      </trkpt>
      <trkpt lat="45.46163" lon="6.55315">
        <ele>686</ele>
        <time>2021-05-28T11:49:45Z</time>
      </trkpt>
      <trkpt lat="45.46165" lon="6.55314">
        <ele>685.8</ele>
        <time>2021-05-28T11:49:46Z</time>
      </trkpt>
      <trkpt lat="45.46168" lon="6.55313">
        <ele>685.8</ele>
        <time>2021-05-28T11:49:47Z</time>
      </trkpt>
      <trkpt lat="45.46171" lon="6.55311">
        <ele>685.8</ele>
        <time>2021-05-28T11:49:48Z</time>
      </trkpt>
      <trkpt lat="45.46173" lon="6.55309">
        <ele>686</ele>
        <time>2021-05-28T11:49:49Z</time>
      </trkpt>
      <trkpt lat="45.46175" lon="6.55308">
        <ele>686</ele>
        <time>2021-05-28T11:49:50Z</time>
      </trkpt>
      <trkpt lat="45.46177" lon="6.55306">
        <ele>686</ele>
        <time>2021-05-28T11:49:51Z</time>
      </trkpt>
      <trkpt lat="45.4618" lon="6.55305">
        <ele>686.2</ele>
        <time>2021-05-28T11:49:52Z</time>
      </trkpt>
      <trkpt lat="45.46182" lon="6.55304">
        <ele>686.4</ele>
        <time>2021-05-28T11:49:53Z</time>
      </trkpt>
      <trkpt lat="45.46185" lon="6.55302">
        <ele>686.2</ele>
        <time>2021-05-28T11:49:54Z</time>
      </trkpt>
      <trkpt lat="45.46187" lon="6.553">
        <ele>686.2</ele>
        <time>2021-05-28T11:49:55Z</time>
      </trkpt>
      <trkpt lat="45.46189" lon="6.55298">
        <ele>686.2</ele>
        <time>2021-05-28T11:49:56Z</time>
      </trkpt>
      <trkpt lat="45.46192" lon="6.55295">
        <ele>686.2</ele>
        <time>2021-05-28T11:49:57Z</time>
      </trkpt>
      <trkpt lat="45.46195" lon="6.55294">
        <ele>686.2</ele>
        <time>2021-05-28T11:49:58Z</time>
      </trkpt>
      <trkpt lat="45.46199" lon="6.55293">
        <ele>686.2</ele>
        <time>2021-05-28T11:49:59Z</time>
      </trkpt>
      <trkpt lat="45.46202" lon="6.55292">
        <ele>686.2</ele>
        <time>2021-05-28T11:50:00Z</time>
      </trkpt>
      <trkpt lat="45.46205" lon="6.5529">
        <ele>686.2</ele>
        <time>2021-05-28T11:50:01Z</time>
      </trkpt>
      <trkpt lat="45.46208" lon="6.55289">
        <ele>686</ele>
        <time>2021-05-28T11:50:02Z</time>
      </trkpt>
      <trkpt lat="45.46211" lon="6.55286">
        <ele>686.2</ele>
        <time>2021-05-28T11:50:03Z</time>
      </trkpt>
      <trkpt lat="45.46215" lon="6.55281">
        <ele>686.2</ele>
        <time>2021-05-28T11:50:04Z</time>
      </trkpt>
      <trkpt lat="45.46219" lon="6.55278">
        <ele>686.6</ele>
        <time>2021-05-28T11:50:05Z</time>
      </trkpt>
      <trkpt lat="45.46221" lon="6.55274">
        <ele>686.8</ele>
        <time>2021-05-28T11:50:06Z</time>
      </trkpt>
      <trkpt lat="45.46224" lon="6.5527">
        <ele>687</ele>
        <time>2021-05-28T11:50:07Z</time>
      </trkpt>
      <trkpt lat="45.46227" lon="6.55267">
        <ele>687.6</ele>
        <time>2021-05-28T11:50:08Z</time>
      </trkpt>
      <trkpt lat="45.46229" lon="6.55263">
        <ele>688.2</ele>
        <time>2021-05-28T11:50:09Z</time>
      </trkpt>
      <trkpt lat="45.46231" lon="6.5526">
        <ele>688.8</ele>
        <time>2021-05-28T11:50:10Z</time>
      </trkpt>
      <trkpt lat="45.46233" lon="6.55257">
        <ele>689.4</ele>
        <time>2021-05-28T11:50:11Z</time>
      </trkpt>
      <trkpt lat="45.46237" lon="6.55255">
        <ele>690.2</ele>
        <time>2021-05-28T11:50:12Z</time>
      </trkpt>
      <trkpt lat="45.46239" lon="6.55252">
        <ele>691</ele>
        <time>2021-05-28T11:50:13Z</time>
      </trkpt>
      <trkpt lat="45.46243" lon="6.55249">
        <ele>691.4</ele>
        <time>2021-05-28T11:50:14Z</time>
      </trkpt>
      <trkpt lat="45.46245" lon="6.55246">
        <ele>691.6</ele>
        <time>2021-05-28T11:50:15Z</time>
      </trkpt>
      <trkpt lat="45.46248" lon="6.55244">
        <ele>691.6</ele>
        <time>2021-05-28T11:50:16Z</time>
      </trkpt>
      <trkpt lat="45.46251" lon="6.55242">
        <ele>691.8</ele>
        <time>2021-05-28T11:50:17Z</time>
      </trkpt>
      <trkpt lat="45.46253" lon="6.5524">
        <ele>691.8</ele>
        <time>2021-05-28T11:50:18Z</time>
      </trkpt>
      <trkpt lat="45.46256" lon="6.55238">
        <ele>692</ele>
        <time>2021-05-28T11:50:19Z</time>
      </trkpt>
      <trkpt lat="45.46259" lon="6.55236">
        <ele>691.8</ele>
        <time>2021-05-28T11:50:20Z</time>
      </trkpt>
      <trkpt lat="45.46261" lon="6.55235">
        <ele>691.8</ele>
        <time>2021-05-28T11:50:21Z</time>
      </trkpt>
      <trkpt lat="45.46263" lon="6.55233">
        <ele>691.6</ele>
        <time>2021-05-28T11:50:22Z</time>
      </trkpt>
      <trkpt lat="45.46266" lon="6.55232">
        <ele>691.6</ele>
        <time>2021-05-28T11:50:23Z</time>
      </trkpt>
      <trkpt lat="45.46269" lon="6.55231">
        <ele>691.2</ele>
        <time>2021-05-28T11:50:24Z</time>
      </trkpt>
      <trkpt lat="45.46271" lon="6.55229">
        <ele>691.2</ele>
        <time>2021-05-28T11:50:25Z</time>
      </trkpt>
      <trkpt lat="45.46273" lon="6.55227">
        <ele>691</ele>
        <time>2021-05-28T11:50:26Z</time>
      </trkpt>
      <trkpt lat="45.46275" lon="6.55223">
        <ele>691</ele>
        <time>2021-05-28T11:50:27Z</time>
      </trkpt>
      <trkpt lat="45.46277" lon="6.5522">
        <ele>691</ele>
        <time>2021-05-28T11:50:28Z</time>
      </trkpt>
      <trkpt lat="45.46279" lon="6.55216">
        <ele>691.2</ele>
        <time>2021-05-28T11:50:29Z</time>
      </trkpt>
      <trkpt lat="45.46281" lon="6.55212">
        <ele>691.6</ele>
        <time>2021-05-28T11:50:30Z</time>
      </trkpt>
      <trkpt lat="45.46283" lon="6.55208">
        <ele>691.6</ele>
        <time>2021-05-28T11:50:31Z</time>
      </trkpt>
      <trkpt lat="45.46286" lon="6.55204">
        <ele>691.6</ele>
        <time>2021-05-28T11:50:32Z</time>
      </trkpt>
      <trkpt lat="45.46289" lon="6.55201">
        <ele>691.6</ele>
        <time>2021-05-28T11:50:33Z</time>
      </trkpt>
      <trkpt lat="45.46291" lon="6.55197">
        <ele>692.2</ele>
        <time>2021-05-28T11:50:34Z</time>
      </trkpt>
      <trkpt lat="45.46294" lon="6.55194">
        <ele>692.8</ele>
        <time>2021-05-28T11:50:35Z</time>
      </trkpt>
      <trkpt lat="45.46296" lon="6.5519">
        <ele>693.8</ele>
        <time>2021-05-28T11:50:36Z</time>
      </trkpt>
      <trkpt lat="45.463" lon="6.55188">
        <ele>694.6</ele>
        <time>2021-05-28T11:50:37Z</time>
      </trkpt>
      <trkpt lat="45.46303" lon="6.55185">
        <ele>695.8</ele>
        <time>2021-05-28T11:50:38Z</time>
      </trkpt>
      <trkpt lat="45.46306" lon="6.55182">
        <ele>697</ele>
        <time>2021-05-28T11:50:39Z</time>
      </trkpt>
      <trkpt lat="45.46309" lon="6.5518">
        <ele>698</ele>
        <time>2021-05-28T11:50:40Z</time>
      </trkpt>
      <trkpt lat="45.46312" lon="6.55178">
        <ele>699.2</ele>
        <time>2021-05-28T11:50:41Z</time>
      </trkpt>
      <trkpt lat="45.46315" lon="6.55176">
        <ele>700.2</ele>
        <time>2021-05-28T11:50:42Z</time>
      </trkpt>
      <trkpt lat="45.46318" lon="6.55174">
        <ele>701.4</ele>
        <time>2021-05-28T11:50:43Z</time>
      </trkpt>
      <trkpt lat="45.46321" lon="6.55173">
        <ele>702.4</ele>
        <time>2021-05-28T11:50:44Z</time>
      </trkpt>
      <trkpt lat="45.46324" lon="6.55171">
        <ele>703.4</ele>
        <time>2021-05-28T11:50:45Z</time>
      </trkpt>
      <trkpt lat="45.46326" lon="6.55169">
        <ele>704.4</ele>
        <time>2021-05-28T11:50:46Z</time>
      </trkpt>
      <trkpt lat="45.4633" lon="6.55167">
        <ele>705.4</ele>
        <time>2021-05-28T11:50:47Z</time>
      </trkpt>
      <trkpt lat="45.46332" lon="6.55165">
        <ele>706.4</ele>
        <time>2021-05-28T11:50:48Z</time>
      </trkpt>
      <trkpt lat="45.46335" lon="6.55163">
        <ele>706.8</ele>
        <time>2021-05-28T11:50:49Z</time>
      </trkpt>
      <trkpt lat="45.46338" lon="6.55161">
        <ele>707.4</ele>
        <time>2021-05-28T11:50:50Z</time>
      </trkpt>
      <trkpt lat="45.4634" lon="6.55159">
        <ele>708</ele>
        <time>2021-05-28T11:50:51Z</time>
      </trkpt>
      <trkpt lat="45.46343" lon="6.55157">
        <ele>708.4</ele>
        <time>2021-05-28T11:50:52Z</time>
      </trkpt>
      <trkpt lat="45.46346" lon="6.55154">
        <ele>709</ele>
        <time>2021-05-28T11:50:53Z</time>
      </trkpt>
      <trkpt lat="45.46348" lon="6.55152">
        <ele>709.4</ele>
        <time>2021-05-28T11:50:54Z</time>
      </trkpt>
      <trkpt lat="45.4635" lon="6.5515">
        <ele>709.8</ele>
        <time>2021-05-28T11:50:55Z</time>
      </trkpt>
      <trkpt lat="45.46352" lon="6.55148">
        <ele>710.2</ele>
        <time>2021-05-28T11:50:56Z</time>
      </trkpt>
      <trkpt lat="45.46354" lon="6.55146">
        <ele>710.6</ele>
        <time>2021-05-28T11:50:57Z</time>
      </trkpt>
      <trkpt lat="45.46356" lon="6.55144">
        <ele>710.6</ele>
        <time>2021-05-28T11:50:58Z</time>
      </trkpt>
      <trkpt lat="45.46357" lon="6.55139">
        <ele>709.8</ele>
        <time>2021-05-28T11:51:00Z</time>
      </trkpt>
      <trkpt lat="45.4636" lon="6.55136">
        <ele>708</ele>
        <time>2021-05-28T11:51:03Z</time>
      </trkpt>
      <trkpt lat="45.46363" lon="6.55135">
        <ele>706.6</ele>
        <time>2021-05-28T11:51:05Z</time>
      </trkpt>
      <trkpt lat="45.46365" lon="6.55134">
        <ele>706</ele>
        <time>2021-05-28T11:51:06Z</time>
      </trkpt>
      <trkpt lat="45.46367" lon="6.55132">
        <ele>705.4</ele>
        <time>2021-05-28T11:51:07Z</time>
      </trkpt>
      <trkpt lat="45.4637" lon="6.55131">
        <ele>704.8</ele>
        <time>2021-05-28T11:51:08Z</time>
      </trkpt>
      <trkpt lat="45.46372" lon="6.55129">
        <ele>704.2</ele>
        <time>2021-05-28T11:51:09Z</time>
      </trkpt>
      <trkpt lat="45.46373" lon="6.55127">
        <ele>703.8</ele>
        <time>2021-05-28T11:51:10Z</time>
      </trkpt>
      <trkpt lat="45.46374" lon="6.55124">
        <ele>703.2</ele>
        <time>2021-05-28T11:51:11Z</time>
      </trkpt>
      <trkpt lat="45.46374" lon="6.5512">
        <ele>703</ele>
        <time>2021-05-28T11:51:12Z</time>
      </trkpt>
      <trkpt lat="45.46374" lon="6.55116">
        <ele>702.6</ele>
        <time>2021-05-28T11:51:14Z</time>
      </trkpt>
      <trkpt lat="45.46374" lon="6.55112">
        <ele>703</ele>
        <time>2021-05-28T11:51:15Z</time>
      </trkpt>
      <trkpt lat="45.46374" lon="6.55107">
        <ele>703</ele>
        <time>2021-05-28T11:51:16Z</time>
      </trkpt>
      <trkpt lat="45.46374" lon="6.55103">
        <ele>703.2</ele>
        <time>2021-05-28T11:51:17Z</time>
      </trkpt>
      <trkpt lat="45.46375" lon="6.55099">
        <ele>703.6</ele>
        <time>2021-05-28T11:51:18Z</time>
      </trkpt>
      <trkpt lat="45.46376" lon="6.55096">
        <ele>703.8</ele>
        <time>2021-05-28T11:51:19Z</time>
      </trkpt>
      <trkpt lat="45.46377" lon="6.55093">
        <ele>704.2</ele>
        <time>2021-05-28T11:51:20Z</time>
      </trkpt>
      <trkpt lat="45.46379" lon="6.55089">
        <ele>704.4</ele>
        <time>2021-05-28T11:51:21Z</time>
      </trkpt>
      <trkpt lat="45.4638" lon="6.55085">
        <ele>704.6</ele>
        <time>2021-05-28T11:51:22Z</time>
      </trkpt>
      <trkpt lat="45.46382" lon="6.55081">
        <ele>704.6</ele>
        <time>2021-05-28T11:51:23Z</time>
      </trkpt>
      <trkpt lat="45.46384" lon="6.55077">
        <ele>704.6</ele>
        <time>2021-05-28T11:51:24Z</time>
      </trkpt>
      <trkpt lat="45.46386" lon="6.55074">
        <ele>704.8</ele>
        <time>2021-05-28T11:51:25Z</time>
      </trkpt>
      <trkpt lat="45.46389" lon="6.55071">
        <ele>705.6</ele>
        <time>2021-05-28T11:51:26Z</time>
      </trkpt>
      <trkpt lat="45.46392" lon="6.55069">
        <ele>706.6</ele>
        <time>2021-05-28T11:51:27Z</time>
      </trkpt>
      <trkpt lat="45.46395" lon="6.55067">
        <ele>707.6</ele>
        <time>2021-05-28T11:51:28Z</time>
      </trkpt>
      <trkpt lat="45.46397" lon="6.55064">
        <ele>709</ele>
        <time>2021-05-28T11:51:29Z</time>
      </trkpt>
      <trkpt lat="45.464" lon="6.55062">
        <ele>710.4</ele>
        <time>2021-05-28T11:51:30Z</time>
      </trkpt>
      <trkpt lat="45.46402" lon="6.5506">
        <ele>711.8</ele>
        <time>2021-05-28T11:51:31Z</time>
      </trkpt>
      <trkpt lat="45.46405" lon="6.55058">
        <ele>713</ele>
        <time>2021-05-28T11:51:32Z</time>
      </trkpt>
      <trkpt lat="45.46408" lon="6.55055">
        <ele>714.2</ele>
        <time>2021-05-28T11:51:33Z</time>
      </trkpt>
      <trkpt lat="45.46411" lon="6.55053">
        <ele>715.4</ele>
        <time>2021-05-28T11:51:34Z</time>
      </trkpt>
      <trkpt lat="45.46413" lon="6.5505">
        <ele>716.2</ele>
        <time>2021-05-28T11:51:35Z</time>
      </trkpt>
      <trkpt lat="45.46417" lon="6.55047">
        <ele>716.6</ele>
        <time>2021-05-28T11:51:36Z</time>
      </trkpt>
      <trkpt lat="45.46419" lon="6.55044">
        <ele>717.2</ele>
        <time>2021-05-28T11:51:37Z</time>
      </trkpt>
      <trkpt lat="45.46421" lon="6.5504">
        <ele>717.8</ele>
        <time>2021-05-28T11:51:38Z</time>
      </trkpt>
      <trkpt lat="45.46424" lon="6.55037">
        <ele>718.4</ele>
        <time>2021-05-28T11:51:39Z</time>
      </trkpt>
      <trkpt lat="45.46426" lon="6.55034">
        <ele>719</ele>
        <time>2021-05-28T11:51:40Z</time>
      </trkpt>
      <trkpt lat="45.46429" lon="6.55031">
        <ele>719.6</ele>
        <time>2021-05-28T11:51:41Z</time>
      </trkpt>
      <trkpt lat="45.46431" lon="6.55027">
        <ele>720.4</ele>
        <time>2021-05-28T11:51:42Z</time>
      </trkpt>
      <trkpt lat="45.46434" lon="6.55024">
        <ele>721</ele>
        <time>2021-05-28T11:51:43Z</time>
      </trkpt>
      <trkpt lat="45.46437" lon="6.55021">
        <ele>721.6</ele>
        <time>2021-05-28T11:51:44Z</time>
      </trkpt>
      <trkpt lat="45.46439" lon="6.55019">
        <ele>722.2</ele>
        <time>2021-05-28T11:51:45Z</time>
      </trkpt>
      <trkpt lat="45.46441" lon="6.55016">
        <ele>722.6</ele>
        <time>2021-05-28T11:51:46Z</time>
      </trkpt>
      <trkpt lat="45.46444" lon="6.55013">
        <ele>723.2</ele>
        <time>2021-05-28T11:51:47Z</time>
      </trkpt>
      <trkpt lat="45.46446" lon="6.55011">
        <ele>723.6</ele>
        <time>2021-05-28T11:51:48Z</time>
      </trkpt>
      <trkpt lat="45.46449" lon="6.55009">
        <ele>724.2</ele>
        <time>2021-05-28T11:51:49Z</time>
      </trkpt>
      <trkpt lat="45.46452" lon="6.55008">
        <ele>724.8</ele>
        <time>2021-05-28T11:51:50Z</time>
      </trkpt>
      <trkpt lat="45.46455" lon="6.55007">
        <ele>725.4</ele>
        <time>2021-05-28T11:51:51Z</time>
      </trkpt>
      <trkpt lat="45.46458" lon="6.55006">
        <ele>726</ele>
        <time>2021-05-28T11:51:52Z</time>
      </trkpt>
      <trkpt lat="45.46461" lon="6.55005">
        <ele>726.6</ele>
        <time>2021-05-28T11:51:53Z</time>
      </trkpt>
      <trkpt lat="45.46465" lon="6.55005">
        <ele>727.2</ele>
        <time>2021-05-28T11:51:54Z</time>
      </trkpt>
      <trkpt lat="45.46468" lon="6.55005">
        <ele>727.8</ele>
        <time>2021-05-28T11:51:55Z</time>
      </trkpt>
      <trkpt lat="45.46471" lon="6.55005">
        <ele>728.2</ele>
        <time>2021-05-28T11:51:56Z</time>
      </trkpt>
      <trkpt lat="45.46473" lon="6.55006">
        <ele>728.8</ele>
        <time>2021-05-28T11:51:57Z</time>
      </trkpt>
      <trkpt lat="45.46476" lon="6.55006">
        <ele>729.2</ele>
        <time>2021-05-28T11:51:58Z</time>
      </trkpt>
      <trkpt lat="45.46479" lon="6.55005">
        <ele>729.6</ele>
        <time>2021-05-28T11:51:59Z</time>
      </trkpt>
      <trkpt lat="45.46482" lon="6.55005">
        <ele>730.2</ele>
        <time>2021-05-28T11:52:00Z</time>
      </trkpt>
      <trkpt lat="45.46485" lon="6.55004">
        <ele>730.6</ele>
        <time>2021-05-28T11:52:01Z</time>
      </trkpt>
      <trkpt lat="45.46488" lon="6.55001">
        <ele>730.8</ele>
        <time>2021-05-28T11:52:02Z</time>
      </trkpt>
      <trkpt lat="45.4649" lon="6.54998">
        <ele>731.4</ele>
        <time>2021-05-28T11:52:03Z</time>
      </trkpt>
      <trkpt lat="45.46492" lon="6.54994">
        <ele>732</ele>
        <time>2021-05-28T11:52:04Z</time>
      </trkpt>
      <trkpt lat="45.46493" lon="6.5499">
        <ele>732.2</ele>
        <time>2021-05-28T11:52:05Z</time>
      </trkpt>
      <trkpt lat="45.46493" lon="6.54986">
        <ele>732.8</ele>
        <time>2021-05-28T11:52:06Z</time>
      </trkpt>
      <trkpt lat="45.46494" lon="6.54982">
        <ele>733</ele>
        <time>2021-05-28T11:52:07Z</time>
      </trkpt>
      <trkpt lat="45.46494" lon="6.54978">
        <ele>733.4</ele>
        <time>2021-05-28T11:52:08Z</time>
      </trkpt>
      <trkpt lat="45.46494" lon="6.54973">
        <ele>733.8</ele>
        <time>2021-05-28T11:52:09Z</time>
      </trkpt>
      <trkpt lat="45.46495" lon="6.54968">
        <ele>734</ele>
        <time>2021-05-28T11:52:10Z</time>
      </trkpt>
      <trkpt lat="45.46495" lon="6.54963">
        <ele>734.4</ele>
        <time>2021-05-28T11:52:11Z</time>
      </trkpt>
      <trkpt lat="45.46495" lon="6.54958">
        <ele>734.8</ele>
        <time>2021-05-28T11:52:12Z</time>
      </trkpt>
      <trkpt lat="45.46496" lon="6.54954">
        <ele>735.2</ele>
        <time>2021-05-28T11:52:13Z</time>
      </trkpt>
      <trkpt lat="45.46496" lon="6.54949">
        <ele>735.2</ele>
        <time>2021-05-28T11:52:14Z</time>
      </trkpt>
      <trkpt lat="45.46497" lon="6.54945">
        <ele>735.2</ele>
        <time>2021-05-28T11:52:15Z</time>
      </trkpt>
      <trkpt lat="45.46497" lon="6.54941">
        <ele>734.8</ele>
        <time>2021-05-28T11:52:16Z</time>
      </trkpt>
      <trkpt lat="45.46498" lon="6.54937">
        <ele>734.6</ele>
        <time>2021-05-28T11:52:17Z</time>
      </trkpt>
      <trkpt lat="45.46499" lon="6.54932">
        <ele>734.4</ele>
        <time>2021-05-28T11:52:18Z</time>
      </trkpt>
      <trkpt lat="45.46499" lon="6.54928">
        <ele>734.4</ele>
        <time>2021-05-28T11:52:19Z</time>
      </trkpt>
      <trkpt lat="45.465" lon="6.54923">
        <ele>734.6</ele>
        <time>2021-05-28T11:52:20Z</time>
      </trkpt>
      <trkpt lat="45.46501" lon="6.54919">
        <ele>734.8</ele>
        <time>2021-05-28T11:52:21Z</time>
      </trkpt>
      <trkpt lat="45.46503" lon="6.54915">
        <ele>734.8</ele>
        <time>2021-05-28T11:52:22Z</time>
      </trkpt>
      <trkpt lat="45.46505" lon="6.54913">
        <ele>735</ele>
        <time>2021-05-28T11:52:23Z</time>
      </trkpt>
      <trkpt lat="45.46508" lon="6.54912">
        <ele>735.2</ele>
        <time>2021-05-28T11:52:24Z</time>
      </trkpt>
      <trkpt lat="45.46511" lon="6.54913">
        <ele>735.2</ele>
        <time>2021-05-28T11:52:25Z</time>
      </trkpt>
      <trkpt lat="45.46513" lon="6.54916">
        <ele>735.2</ele>
        <time>2021-05-28T11:52:26Z</time>
      </trkpt>
      <trkpt lat="45.46513" lon="6.5492">
        <ele>735.4</ele>
        <time>2021-05-28T11:52:27Z</time>
      </trkpt>
      <trkpt lat="45.46512" lon="6.54924">
        <ele>735.6</ele>
        <time>2021-05-28T11:52:28Z</time>
      </trkpt>
      <trkpt lat="45.46509" lon="6.54926">
        <ele>735.8</ele>
        <time>2021-05-28T11:52:29Z</time>
      </trkpt>
      <trkpt lat="45.46508" lon="6.54929">
        <ele>735.8</ele>
        <time>2021-05-28T11:52:30Z</time>
      </trkpt>
      <trkpt lat="45.46505" lon="6.54934">
        <ele>735.4</ele>
        <time>2021-05-28T11:52:31Z</time>
      </trkpt>
      <trkpt lat="45.46503" lon="6.54939">
        <ele>735.4</ele>
        <time>2021-05-28T11:52:32Z</time>
      </trkpt>
      <trkpt lat="45.46501" lon="6.54943">
        <ele>735.8</ele>
        <time>2021-05-28T11:52:33Z</time>
      </trkpt>
      <trkpt lat="45.465" lon="6.54948">
        <ele>736</ele>
        <time>2021-05-28T11:52:34Z</time>
      </trkpt>
      <trkpt lat="45.465" lon="6.54953">
        <ele>736</ele>
        <time>2021-05-28T11:52:35Z</time>
      </trkpt>
      <trkpt lat="45.465" lon="6.54957">
        <ele>736</ele>
        <time>2021-05-28T11:52:36Z</time>
      </trkpt>
      <trkpt lat="45.46499" lon="6.54962">
        <ele>736</ele>
        <time>2021-05-28T11:52:37Z</time>
      </trkpt>
      <trkpt lat="45.46499" lon="6.54966">
        <ele>736</ele>
        <time>2021-05-28T11:52:38Z</time>
      </trkpt>
      <trkpt lat="45.46499" lon="6.5497">
        <ele>736.4</ele>
        <time>2021-05-28T11:52:39Z</time>
      </trkpt>
      <trkpt lat="45.46499" lon="6.54975">
        <ele>736.8</ele>
        <time>2021-05-28T11:52:40Z</time>
      </trkpt>
      <trkpt lat="45.46499" lon="6.54979">
        <ele>737.4</ele>
        <time>2021-05-28T11:52:41Z</time>
      </trkpt>
      <trkpt lat="45.46499" lon="6.54984">
        <ele>738</ele>
        <time>2021-05-28T11:52:42Z</time>
      </trkpt>
      <trkpt lat="45.46498" lon="6.54988">
        <ele>738.8</ele>
        <time>2021-05-28T11:52:43Z</time>
      </trkpt>
      <trkpt lat="45.46498" lon="6.54992">
        <ele>739</ele>
        <time>2021-05-28T11:52:44Z</time>
      </trkpt>
      <trkpt lat="45.46497" lon="6.54996">
        <ele>739.6</ele>
        <time>2021-05-28T11:52:45Z</time>
      </trkpt>
      <trkpt lat="45.46497" lon="6.55001">
        <ele>740</ele>
        <time>2021-05-28T11:52:46Z</time>
      </trkpt>
      <trkpt lat="45.46496" lon="6.55005">
        <ele>740.6</ele>
        <time>2021-05-28T11:52:47Z</time>
      </trkpt>
      <trkpt lat="45.46495" lon="6.55008">
        <ele>741.2</ele>
        <time>2021-05-28T11:52:48Z</time>
      </trkpt>
      <trkpt lat="45.46493" lon="6.55012">
        <ele>741.8</ele>
        <time>2021-05-28T11:52:49Z</time>
      </trkpt>
      <trkpt lat="45.46492" lon="6.55015">
        <ele>742.4</ele>
        <time>2021-05-28T11:52:50Z</time>
      </trkpt>
      <trkpt lat="45.4649" lon="6.55017">
        <ele>742.8</ele>
        <time>2021-05-28T11:52:51Z</time>
      </trkpt>
      <trkpt lat="45.46487" lon="6.55021">
        <ele>743.2</ele>
        <time>2021-05-28T11:52:52Z</time>
      </trkpt>
      <trkpt lat="45.46484" lon="6.55022">
        <ele>743.4</ele>
        <time>2021-05-28T11:52:53Z</time>
      </trkpt>
      <trkpt lat="45.46481" lon="6.55023">
        <ele>743.8</ele>
        <time>2021-05-28T11:52:54Z</time>
      </trkpt>
      <trkpt lat="45.46477" lon="6.55023">
        <ele>744.4</ele>
        <time>2021-05-28T11:52:55Z</time>
      </trkpt>
      <trkpt lat="45.46475" lon="6.55022">
        <ele>745</ele>
        <time>2021-05-28T11:52:56Z</time>
      </trkpt>
      <trkpt lat="45.46472" lon="6.55023">
        <ele>745.4</ele>
        <time>2021-05-28T11:52:57Z</time>
      </trkpt>
      <trkpt lat="45.4647" lon="6.55025">
        <ele>746</ele>
        <time>2021-05-28T11:52:58Z</time>
      </trkpt>
      <trkpt lat="45.46468" lon="6.55027">
        <ele>746.6</ele>
        <time>2021-05-28T11:52:59Z</time>
      </trkpt>
      <trkpt lat="45.46464" lon="6.55029">
        <ele>747.2</ele>
        <time>2021-05-28T11:53:00Z</time>
      </trkpt>
      <trkpt lat="45.46461" lon="6.55032">
        <ele>747.8</ele>
        <time>2021-05-28T11:53:01Z</time>
      </trkpt>
      <trkpt lat="45.46459" lon="6.55035">
        <ele>748.4</ele>
        <time>2021-05-28T11:53:02Z</time>
      </trkpt>
      <trkpt lat="45.46457" lon="6.55038">
        <ele>748.8</ele>
        <time>2021-05-28T11:53:03Z</time>
      </trkpt>
      <trkpt lat="45.46455" lon="6.55041">
        <ele>749.2</ele>
        <time>2021-05-28T11:53:04Z</time>
      </trkpt>
      <trkpt lat="45.46453" lon="6.55044">
        <ele>749.6</ele>
        <time>2021-05-28T11:53:05Z</time>
      </trkpt>
      <trkpt lat="45.46451" lon="6.55047">
        <ele>750</ele>
        <time>2021-05-28T11:53:06Z</time>
      </trkpt>
      <trkpt lat="45.46449" lon="6.55051">
        <ele>750.2</ele>
        <time>2021-05-28T11:53:07Z</time>
      </trkpt>
      <trkpt lat="45.46447" lon="6.55054">
        <ele>750.4</ele>
        <time>2021-05-28T11:53:08Z</time>
      </trkpt>
      <trkpt lat="45.46446" lon="6.55057">
        <ele>750.6</ele>
        <time>2021-05-28T11:53:09Z</time>
      </trkpt>
      <trkpt lat="45.46444" lon="6.5506">
        <ele>750.6</ele>
        <time>2021-05-28T11:53:10Z</time>
      </trkpt>
      <trkpt lat="45.46442" lon="6.55063">
        <ele>750.6</ele>
        <time>2021-05-28T11:53:11Z</time>
      </trkpt>
      <trkpt lat="45.4644" lon="6.55067">
        <ele>750.6</ele>
        <time>2021-05-28T11:53:12Z</time>
      </trkpt>
      <trkpt lat="45.46438" lon="6.55071">
        <ele>750.8</ele>
        <time>2021-05-28T11:53:13Z</time>
      </trkpt>
      <trkpt lat="45.46435" lon="6.55074">
        <ele>750.8</ele>
        <time>2021-05-28T11:53:14Z</time>
      </trkpt>
      <trkpt lat="45.46433" lon="6.55077">
        <ele>751</ele>
        <time>2021-05-28T11:53:15Z</time>
      </trkpt>
      <trkpt lat="45.4643" lon="6.5508">
        <ele>751</ele>
        <time>2021-05-28T11:53:16Z</time>
      </trkpt>
      <trkpt lat="45.46428" lon="6.55084">
        <ele>751.4</ele>
        <time>2021-05-28T11:53:17Z</time>
      </trkpt>
      <trkpt lat="45.46425" lon="6.55087">
        <ele>751.8</ele>
        <time>2021-05-28T11:53:18Z</time>
      </trkpt>
      <trkpt lat="45.46422" lon="6.55089">
        <ele>752</ele>
        <time>2021-05-28T11:53:19Z</time>
      </trkpt>
      <trkpt lat="45.46419" lon="6.55092">
        <ele>752.2</ele>
        <time>2021-05-28T11:53:20Z</time>
      </trkpt>
      <trkpt lat="45.46417" lon="6.55095">
        <ele>752.4</ele>
        <time>2021-05-28T11:53:21Z</time>
      </trkpt>
      <trkpt lat="45.46415" lon="6.55098">
        <ele>752.8</ele>
        <time>2021-05-28T11:53:22Z</time>
      </trkpt>
      <trkpt lat="45.46413" lon="6.55102">
        <ele>753.2</ele>
        <time>2021-05-28T11:53:23Z</time>
      </trkpt>
      <trkpt lat="45.46412" lon="6.55106">
        <ele>753.8</ele>
        <time>2021-05-28T11:53:24Z</time>
      </trkpt>
      <trkpt lat="45.4641" lon="6.55111">
        <ele>754.2</ele>
        <time>2021-05-28T11:53:25Z</time>
      </trkpt>
      <trkpt lat="45.4641" lon="6.55115">
        <ele>754.8</ele>
        <time>2021-05-28T11:53:26Z</time>
      </trkpt>
      <trkpt lat="45.46409" lon="6.5512">
        <ele>755.2</ele>
        <time>2021-05-28T11:53:27Z</time>
      </trkpt>
      <trkpt lat="45.46408" lon="6.55124">
        <ele>755.6</ele>
        <time>2021-05-28T11:53:28Z</time>
      </trkpt>
      <trkpt lat="45.46409" lon="6.55129">
        <ele>756.2</ele>
        <time>2021-05-28T11:53:29Z</time>
      </trkpt>
      <trkpt lat="45.4641" lon="6.55133">
        <ele>757</ele>
        <time>2021-05-28T11:53:30Z</time>
      </trkpt>
      <trkpt lat="45.46412" lon="6.55138">
        <ele>757.2</ele>
        <time>2021-05-28T11:53:31Z</time>
      </trkpt>
      <trkpt lat="45.46413" lon="6.55142">
        <ele>757.4</ele>
        <time>2021-05-28T11:53:32Z</time>
      </trkpt>
      <trkpt lat="45.46415" lon="6.55145">
        <ele>757.6</ele>
        <time>2021-05-28T11:53:33Z</time>
      </trkpt>
      <trkpt lat="45.46417" lon="6.55148">
        <ele>757.8</ele>
        <time>2021-05-28T11:53:34Z</time>
      </trkpt>
      <trkpt lat="45.46418" lon="6.55152">
        <ele>758</ele>
        <time>2021-05-28T11:53:35Z</time>
      </trkpt>
      <trkpt lat="45.46419" lon="6.55155">
        <ele>758.4</ele>
        <time>2021-05-28T11:53:36Z</time>
      </trkpt>
      <trkpt lat="45.4642" lon="6.55159">
        <ele>758.8</ele>
        <time>2021-05-28T11:53:37Z</time>
      </trkpt>
      <trkpt lat="45.4642" lon="6.55163">
        <ele>759</ele>
        <time>2021-05-28T11:53:38Z</time>
      </trkpt>
      <trkpt lat="45.4642" lon="6.55167">
        <ele>759.4</ele>
        <time>2021-05-28T11:53:39Z</time>
      </trkpt>
      <trkpt lat="45.4642" lon="6.55171">
        <ele>759.6</ele>
        <time>2021-05-28T11:53:40Z</time>
      </trkpt>
      <trkpt lat="45.46419" lon="6.55175">
        <ele>760</ele>
        <time>2021-05-28T11:53:41Z</time>
      </trkpt>
      <trkpt lat="45.46418" lon="6.55179">
        <ele>760.4</ele>
        <time>2021-05-28T11:53:42Z</time>
      </trkpt>
      <trkpt lat="45.46416" lon="6.55181">
        <ele>761</ele>
        <time>2021-05-28T11:53:43Z</time>
      </trkpt>
      <trkpt lat="45.46413" lon="6.55183">
        <ele>761.4</ele>
        <time>2021-05-28T11:53:44Z</time>
      </trkpt>
      <trkpt lat="45.4641" lon="6.55183">
        <ele>761.8</ele>
        <time>2021-05-28T11:53:45Z</time>
      </trkpt>
      <trkpt lat="45.46406" lon="6.55184">
        <ele>762.4</ele>
        <time>2021-05-28T11:53:46Z</time>
      </trkpt>
      <trkpt lat="45.46404" lon="6.55186">
        <ele>762.8</ele>
        <time>2021-05-28T11:53:47Z</time>
      </trkpt>
      <trkpt lat="45.46401" lon="6.55187">
        <ele>763.2</ele>
        <time>2021-05-28T11:53:48Z</time>
      </trkpt>
      <trkpt lat="45.46399" lon="6.55189">
        <ele>763.6</ele>
        <time>2021-05-28T11:53:49Z</time>
      </trkpt>
      <trkpt lat="45.46396" lon="6.5519">
        <ele>763.8</ele>
        <time>2021-05-28T11:53:50Z</time>
      </trkpt>
      <trkpt lat="45.46394" lon="6.55193">
        <ele>764.2</ele>
        <time>2021-05-28T11:53:51Z</time>
      </trkpt>
      <trkpt lat="45.4639" lon="6.55196">
        <ele>764.4</ele>
        <time>2021-05-28T11:53:52Z</time>
      </trkpt>
      <trkpt lat="45.46388" lon="6.55199">
        <ele>764.6</ele>
        <time>2021-05-28T11:53:53Z</time>
      </trkpt>
      <trkpt lat="45.46384" lon="6.55202">
        <ele>764.8</ele>
        <time>2021-05-28T11:53:54Z</time>
      </trkpt>
      <trkpt lat="45.46381" lon="6.55204">
        <ele>765.2</ele>
        <time>2021-05-28T11:53:55Z</time>
      </trkpt>
      <trkpt lat="45.46378" lon="6.55207">
        <ele>765.2</ele>
        <time>2021-05-28T11:53:56Z</time>
      </trkpt>
      <trkpt lat="45.46375" lon="6.55209">
        <ele>765.4</ele>
        <time>2021-05-28T11:53:57Z</time>
      </trkpt>
      <trkpt lat="45.46372" lon="6.55211">
        <ele>765.6</ele>
        <time>2021-05-28T11:53:58Z</time>
      </trkpt>
      <trkpt lat="45.4637" lon="6.55214">
        <ele>765.6</ele>
        <time>2021-05-28T11:53:59Z</time>
      </trkpt>
      <trkpt lat="45.46368" lon="6.55217">
        <ele>765.4</ele>
        <time>2021-05-28T11:54:00Z</time>
      </trkpt>
      <trkpt lat="45.46365" lon="6.55221">
        <ele>765.2</ele>
        <time>2021-05-28T11:54:01Z</time>
      </trkpt>
      <trkpt lat="45.46363" lon="6.55224">
        <ele>765</ele>
        <time>2021-05-28T11:54:02Z</time>
      </trkpt>
      <trkpt lat="45.4636" lon="6.55227">
        <ele>764.6</ele>
        <time>2021-05-28T11:54:03Z</time>
      </trkpt>
      <trkpt lat="45.46358" lon="6.55231">
        <ele>764.2</ele>
        <time>2021-05-28T11:54:04Z</time>
      </trkpt>
      <trkpt lat="45.46356" lon="6.55234">
        <ele>763.8</ele>
        <time>2021-05-28T11:54:05Z</time>
      </trkpt>
      <trkpt lat="45.46354" lon="6.55238">
        <ele>763.4</ele>
        <time>2021-05-28T11:54:06Z</time>
      </trkpt>
      <trkpt lat="45.46352" lon="6.55242">
        <ele>763</ele>
        <time>2021-05-28T11:54:07Z</time>
      </trkpt>
      <trkpt lat="45.46349" lon="6.55245">
        <ele>762.4</ele>
        <time>2021-05-28T11:54:08Z</time>
      </trkpt>
      <trkpt lat="45.46348" lon="6.55248">
        <ele>762</ele>
        <time>2021-05-28T11:54:09Z</time>
      </trkpt>
      <trkpt lat="45.46346" lon="6.55252">
        <ele>761.4</ele>
        <time>2021-05-28T11:54:10Z</time>
      </trkpt>
      <trkpt lat="45.46344" lon="6.55255">
        <ele>761.2</ele>
        <time>2021-05-28T11:54:11Z</time>
      </trkpt>
      <trkpt lat="45.46342" lon="6.55258">
        <ele>760.6</ele>
        <time>2021-05-28T11:54:12Z</time>
      </trkpt>
      <trkpt lat="45.4634" lon="6.55261">
        <ele>760.2</ele>
        <time>2021-05-28T11:54:13Z</time>
      </trkpt>
      <trkpt lat="45.46338" lon="6.55264">
        <ele>760</ele>
        <time>2021-05-28T11:54:14Z</time>
      </trkpt>
      <trkpt lat="45.46336" lon="6.55267">
        <ele>760</ele>
        <time>2021-05-28T11:54:15Z</time>
      </trkpt>
      <trkpt lat="45.46334" lon="6.5527">
        <ele>760.4</ele>
        <time>2021-05-28T11:54:16Z</time>
      </trkpt>
      <trkpt lat="45.46333" lon="6.55274">
        <ele>760.8</ele>
        <time>2021-05-28T11:54:17Z</time>
      </trkpt>
      <trkpt lat="45.46332" lon="6.55278">
        <ele>761</ele>
        <time>2021-05-28T11:54:18Z</time>
      </trkpt>
      <trkpt lat="45.46331" lon="6.55281">
        <ele>761</ele>
        <time>2021-05-28T11:54:19Z</time>
      </trkpt>
      <trkpt lat="45.4633" lon="6.55283">
        <ele>761.4</ele>
        <time>2021-05-28T11:54:20Z</time>
      </trkpt>
      <trkpt lat="45.4633" lon="6.55287">
        <ele>762</ele>
        <time>2021-05-28T11:54:21Z</time>
      </trkpt>
      <trkpt lat="45.46329" lon="6.55291">
        <ele>762</ele>
        <time>2021-05-28T11:54:22Z</time>
      </trkpt>
      <trkpt lat="45.46328" lon="6.55294">
        <ele>761.8</ele>
        <time>2021-05-28T11:54:23Z</time>
      </trkpt>
      <trkpt lat="45.46327" lon="6.55298">
        <ele>761.2</ele>
        <time>2021-05-28T11:54:24Z</time>
      </trkpt>
      <trkpt lat="45.46326" lon="6.55301">
        <ele>760.6</ele>
        <time>2021-05-28T11:54:25Z</time>
      </trkpt>
      <trkpt lat="45.46324" lon="6.55305">
        <ele>759.8</ele>
        <time>2021-05-28T11:54:26Z</time>
      </trkpt>
      <trkpt lat="45.46323" lon="6.5531">
        <ele>759.4</ele>
        <time>2021-05-28T11:54:27Z</time>
      </trkpt>
      <trkpt lat="45.4632" lon="6.55315">
        <ele>759.2</ele>
        <time>2021-05-28T11:54:28Z</time>
      </trkpt>
      <trkpt lat="45.46317" lon="6.55317">
        <ele>759</ele>
        <time>2021-05-28T11:54:29Z</time>
      </trkpt>
      <trkpt lat="45.46315" lon="6.55319">
        <ele>759</ele>
        <time>2021-05-28T11:54:30Z</time>
      </trkpt>
      <trkpt lat="45.46313" lon="6.55321">
        <ele>758.8</ele>
        <time>2021-05-28T11:54:31Z</time>
      </trkpt>
      <trkpt lat="45.46311" lon="6.55325">
        <ele>758.6</ele>
        <time>2021-05-28T11:54:32Z</time>
      </trkpt>
      <trkpt lat="45.46308" lon="6.55327">
        <ele>758.8</ele>
        <time>2021-05-28T11:54:33Z</time>
      </trkpt>
      <trkpt lat="45.46304" lon="6.55329">
        <ele>759</ele>
        <time>2021-05-28T11:54:34Z</time>
      </trkpt>
      <trkpt lat="45.46301" lon="6.55332">
        <ele>758.8</ele>
        <time>2021-05-28T11:54:35Z</time>
      </trkpt>
      <trkpt lat="45.46298" lon="6.55335">
        <ele>759</ele>
        <time>2021-05-28T11:54:36Z</time>
      </trkpt>
      <trkpt lat="45.46295" lon="6.55338">
        <ele>759.2</ele>
        <time>2021-05-28T11:54:37Z</time>
      </trkpt>
      <trkpt lat="45.46292" lon="6.55341">
        <ele>759.6</ele>
        <time>2021-05-28T11:54:38Z</time>
      </trkpt>
      <trkpt lat="45.4629" lon="6.55345">
        <ele>760</ele>
        <time>2021-05-28T11:54:39Z</time>
      </trkpt>
      <trkpt lat="45.46288" lon="6.55349">
        <ele>760.8</ele>
        <time>2021-05-28T11:54:40Z</time>
      </trkpt>
      <trkpt lat="45.46285" lon="6.55352">
        <ele>761</ele>
        <time>2021-05-28T11:54:41Z</time>
      </trkpt>
      <trkpt lat="45.46283" lon="6.55355">
        <ele>761.4</ele>
        <time>2021-05-28T11:54:42Z</time>
      </trkpt>
      <trkpt lat="45.4628" lon="6.55358">
        <ele>761.8</ele>
        <time>2021-05-28T11:54:43Z</time>
      </trkpt>
      <trkpt lat="45.46278" lon="6.55361">
        <ele>762.4</ele>
        <time>2021-05-28T11:54:44Z</time>
      </trkpt>
      <trkpt lat="45.46275" lon="6.55364">
        <ele>763</ele>
        <time>2021-05-28T11:54:45Z</time>
      </trkpt>
      <trkpt lat="45.46272" lon="6.55366">
        <ele>763.4</ele>
        <time>2021-05-28T11:54:46Z</time>
      </trkpt>
      <trkpt lat="45.46269" lon="6.55369">
        <ele>764.2</ele>
        <time>2021-05-28T11:54:47Z</time>
      </trkpt>
      <trkpt lat="45.46267" lon="6.55371">
        <ele>764.8</ele>
        <time>2021-05-28T11:54:48Z</time>
      </trkpt>
      <trkpt lat="45.46264" lon="6.55374">
        <ele>765.2</ele>
        <time>2021-05-28T11:54:49Z</time>
      </trkpt>
      <trkpt lat="45.46261" lon="6.55376">
        <ele>765.4</ele>
        <time>2021-05-28T11:54:50Z</time>
      </trkpt>
      <trkpt lat="45.46259" lon="6.5538">
        <ele>765.8</ele>
        <time>2021-05-28T11:54:51Z</time>
      </trkpt>
      <trkpt lat="45.46257" lon="6.55383">
        <ele>766</ele>
        <time>2021-05-28T11:54:52Z</time>
      </trkpt>
      <trkpt lat="45.46255" lon="6.55386">
        <ele>766</ele>
        <time>2021-05-28T11:54:53Z</time>
      </trkpt>
      <trkpt lat="45.46253" lon="6.55389">
        <ele>766.2</ele>
        <time>2021-05-28T11:54:54Z</time>
      </trkpt>
      <trkpt lat="45.46251" lon="6.55392">
        <ele>766.4</ele>
        <time>2021-05-28T11:54:55Z</time>
      </trkpt>
      <trkpt lat="45.46249" lon="6.55395">
        <ele>766.6</ele>
        <time>2021-05-28T11:54:56Z</time>
      </trkpt>
      <trkpt lat="45.46247" lon="6.55397">
        <ele>766.8</ele>
        <time>2021-05-28T11:54:57Z</time>
      </trkpt>
      <trkpt lat="45.46245" lon="6.55401">
        <ele>766.8</ele>
        <time>2021-05-28T11:54:58Z</time>
      </trkpt>
      <trkpt lat="45.46244" lon="6.55404">
        <ele>766.8</ele>
        <time>2021-05-28T11:54:59Z</time>
      </trkpt>
      <trkpt lat="45.46242" lon="6.55408">
        <ele>767</ele>
        <time>2021-05-28T11:55:00Z</time>
      </trkpt>
      <trkpt lat="45.46241" lon="6.55411">
        <ele>767</ele>
        <time>2021-05-28T11:55:01Z</time>
      </trkpt>
      <trkpt lat="45.46238" lon="6.55415">
        <ele>767</ele>
        <time>2021-05-28T11:55:02Z</time>
      </trkpt>
      <trkpt lat="45.46236" lon="6.55418">
        <ele>767</ele>
        <time>2021-05-28T11:55:03Z</time>
      </trkpt>
      <trkpt lat="45.46235" lon="6.5542">
        <ele>766.8</ele>
        <time>2021-05-28T11:55:04Z</time>
      </trkpt>
      <trkpt lat="45.46232" lon="6.55424">
        <ele>766.8</ele>
        <time>2021-05-28T11:55:05Z</time>
      </trkpt>
      <trkpt lat="45.4623" lon="6.55427">
        <ele>766.4</ele>
        <time>2021-05-28T11:55:06Z</time>
      </trkpt>
      <trkpt lat="45.46227" lon="6.5543">
        <ele>766.2</ele>
        <time>2021-05-28T11:55:07Z</time>
      </trkpt>
      <trkpt lat="45.46225" lon="6.55432">
        <ele>766.2</ele>
        <time>2021-05-28T11:55:08Z</time>
      </trkpt>
      <trkpt lat="45.46223" lon="6.55435">
        <ele>766.2</ele>
        <time>2021-05-28T11:55:09Z</time>
      </trkpt>
      <trkpt lat="45.4622" lon="6.55438">
        <ele>766.2</ele>
        <time>2021-05-28T11:55:10Z</time>
      </trkpt>
      <trkpt lat="45.46219" lon="6.55441">
        <ele>766.2</ele>
        <time>2021-05-28T11:55:11Z</time>
      </trkpt>
      <trkpt lat="45.46217" lon="6.55444">
        <ele>766.2</ele>
        <time>2021-05-28T11:55:12Z</time>
      </trkpt>
      <trkpt lat="45.46215" lon="6.55447">
        <ele>766</ele>
        <time>2021-05-28T11:55:13Z</time>
      </trkpt>
      <trkpt lat="45.46212" lon="6.5545">
        <ele>765.8</ele>
        <time>2021-05-28T11:55:14Z</time>
      </trkpt>
      <trkpt lat="45.46211" lon="6.55453">
        <ele>765.6</ele>
        <time>2021-05-28T11:55:15Z</time>
      </trkpt>
      <trkpt lat="45.46208" lon="6.55456">
        <ele>765.4</ele>
        <time>2021-05-28T11:55:16Z</time>
      </trkpt>
      <trkpt lat="45.46205" lon="6.55459">
        <ele>765.2</ele>
        <time>2021-05-28T11:55:17Z</time>
      </trkpt>
      <trkpt lat="45.46203" lon="6.55462">
        <ele>765</ele>
        <time>2021-05-28T11:55:18Z</time>
      </trkpt>
      <trkpt lat="45.46201" lon="6.55465">
        <ele>765.2</ele>
        <time>2021-05-28T11:55:19Z</time>
      </trkpt>
      <trkpt lat="45.46198" lon="6.55467">
        <ele>765</ele>
        <time>2021-05-28T11:55:20Z</time>
      </trkpt>
      <trkpt lat="45.46196" lon="6.55469">
        <ele>765.4</ele>
        <time>2021-05-28T11:55:21Z</time>
      </trkpt>
      <trkpt lat="45.46193" lon="6.55471">
        <ele>765.4</ele>
        <time>2021-05-28T11:55:22Z</time>
      </trkpt>
      <trkpt lat="45.4619" lon="6.55473">
        <ele>765.8</ele>
        <time>2021-05-28T11:55:23Z</time>
      </trkpt>
      <trkpt lat="45.46188" lon="6.55475">
        <ele>765.8</ele>
        <time>2021-05-28T11:55:24Z</time>
      </trkpt>
      <trkpt lat="45.46185" lon="6.55476">
        <ele>766</ele>
        <time>2021-05-28T11:55:25Z</time>
      </trkpt>
      <trkpt lat="45.46183" lon="6.55478">
        <ele>766.2</ele>
        <time>2021-05-28T11:55:26Z</time>
      </trkpt>
      <trkpt lat="45.4618" lon="6.55479">
        <ele>766.4</ele>
        <time>2021-05-28T11:55:27Z</time>
      </trkpt>
      <trkpt lat="45.46178" lon="6.55481">
        <ele>766.4</ele>
        <time>2021-05-28T11:55:28Z</time>
      </trkpt>
      <trkpt lat="45.46175" lon="6.55484">
        <ele>766.4</ele>
        <time>2021-05-28T11:55:29Z</time>
      </trkpt>
      <trkpt lat="45.46174" lon="6.55487">
        <ele>766.6</ele>
        <time>2021-05-28T11:55:30Z</time>
      </trkpt>
      <trkpt lat="45.46172" lon="6.55491">
        <ele>766.6</ele>
        <time>2021-05-28T11:55:31Z</time>
      </trkpt>
      <trkpt lat="45.4617" lon="6.55494">
        <ele>766.2</ele>
        <time>2021-05-28T11:55:32Z</time>
      </trkpt>
      <trkpt lat="45.46168" lon="6.55498">
        <ele>766.2</ele>
        <time>2021-05-28T11:55:33Z</time>
      </trkpt>
      <trkpt lat="45.46166" lon="6.55501">
        <ele>766.2</ele>
        <time>2021-05-28T11:55:34Z</time>
      </trkpt>
      <trkpt lat="45.46164" lon="6.55505">
        <ele>766.2</ele>
        <time>2021-05-28T11:55:35Z</time>
      </trkpt>
      <trkpt lat="45.46162" lon="6.55509">
        <ele>766.4</ele>
        <time>2021-05-28T11:55:36Z</time>
      </trkpt>
      <trkpt lat="45.46161" lon="6.55512">
        <ele>766.4</ele>
        <time>2021-05-28T11:55:37Z</time>
      </trkpt>
      <trkpt lat="45.46159" lon="6.55515">
        <ele>767</ele>
        <time>2021-05-28T11:55:38Z</time>
      </trkpt>
      <trkpt lat="45.46157" lon="6.55518">
        <ele>767.8</ele>
        <time>2021-05-28T11:55:39Z</time>
      </trkpt>
      <trkpt lat="45.46156" lon="6.55521">
        <ele>768.4</ele>
        <time>2021-05-28T11:55:40Z</time>
      </trkpt>
      <trkpt lat="45.46154" lon="6.55524">
        <ele>769.4</ele>
        <time>2021-05-28T11:55:41Z</time>
      </trkpt>
      <trkpt lat="45.46152" lon="6.55527">
        <ele>770.4</ele>
        <time>2021-05-28T11:55:42Z</time>
      </trkpt>
      <trkpt lat="45.4615" lon="6.5553">
        <ele>771.2</ele>
        <time>2021-05-28T11:55:43Z</time>
      </trkpt>
      <trkpt lat="45.46148" lon="6.55532">
        <ele>771.8</ele>
        <time>2021-05-28T11:55:44Z</time>
      </trkpt>
      <trkpt lat="45.46146" lon="6.55535">
        <ele>772.4</ele>
        <time>2021-05-28T11:55:45Z</time>
      </trkpt>
      <trkpt lat="45.46143" lon="6.55538">
        <ele>772.8</ele>
        <time>2021-05-28T11:55:46Z</time>
      </trkpt>
      <trkpt lat="45.46141" lon="6.55541">
        <ele>773.2</ele>
        <time>2021-05-28T11:55:47Z</time>
      </trkpt>
      <trkpt lat="45.46138" lon="6.55544">
        <ele>773.6</ele>
        <time>2021-05-28T11:55:48Z</time>
      </trkpt>
      <trkpt lat="45.46134" lon="6.55547">
        <ele>774.2</ele>
        <time>2021-05-28T11:55:49Z</time>
      </trkpt>
      <trkpt lat="45.46132" lon="6.55551">
        <ele>775.2</ele>
        <time>2021-05-28T11:55:50Z</time>
      </trkpt>
      <trkpt lat="45.46129" lon="6.55554">
        <ele>776.2</ele>
        <time>2021-05-28T11:55:51Z</time>
      </trkpt>
      <trkpt lat="45.46125" lon="6.55561">
        <ele>778.6</ele>
        <time>2021-05-28T11:55:53Z</time>
      </trkpt>
      <trkpt lat="45.46124" lon="6.55564">
        <ele>780</ele>
        <time>2021-05-28T11:55:54Z</time>
      </trkpt>
      <trkpt lat="45.46122" lon="6.55567">
        <ele>781.2</ele>
        <time>2021-05-28T11:55:55Z</time>
      </trkpt>
      <trkpt lat="45.4612" lon="6.55571">
        <ele>782.6</ele>
        <time>2021-05-28T11:55:56Z</time>
      </trkpt>
      <trkpt lat="45.46118" lon="6.55573">
        <ele>783.8</ele>
        <time>2021-05-28T11:55:57Z</time>
      </trkpt>
      <trkpt lat="45.46116" lon="6.55575">
        <ele>785</ele>
        <time>2021-05-28T11:55:58Z</time>
      </trkpt>
      <trkpt lat="45.46114" lon="6.55577">
        <ele>786.2</ele>
        <time>2021-05-28T11:55:59Z</time>
      </trkpt>
      <trkpt lat="45.46112" lon="6.55578">
        <ele>786.8</ele>
        <time>2021-05-28T11:56:00Z</time>
      </trkpt>
      <trkpt lat="45.4611" lon="6.5558">
        <ele>787.8</ele>
        <time>2021-05-28T11:56:01Z</time>
      </trkpt>
      <trkpt lat="45.46108" lon="6.55581">
        <ele>788.8</ele>
        <time>2021-05-28T11:56:02Z</time>
      </trkpt>
      <trkpt lat="45.46106" lon="6.55583">
        <ele>789.6</ele>
        <time>2021-05-28T11:56:03Z</time>
      </trkpt>
      <trkpt lat="45.46103" lon="6.55585">
        <ele>790.4</ele>
        <time>2021-05-28T11:56:04Z</time>
      </trkpt>
      <trkpt lat="45.46101" lon="6.55587">
        <ele>791</ele>
        <time>2021-05-28T11:56:05Z</time>
      </trkpt>
      <trkpt lat="45.46099" lon="6.55589">
        <ele>791.8</ele>
        <time>2021-05-28T11:56:06Z</time>
      </trkpt>
      <trkpt lat="45.46096" lon="6.5559">
        <ele>792.6</ele>
        <time>2021-05-28T11:56:07Z</time>
      </trkpt>
      <trkpt lat="45.46094" lon="6.55592">
        <ele>793.2</ele>
        <time>2021-05-28T11:56:08Z</time>
      </trkpt>
      <trkpt lat="45.46091" lon="6.55593">
        <ele>793.8</ele>
        <time>2021-05-28T11:56:09Z</time>
      </trkpt>
      <trkpt lat="45.46088" lon="6.55595">
        <ele>794.2</ele>
        <time>2021-05-28T11:56:10Z</time>
      </trkpt>
      <trkpt lat="45.46085" lon="6.55596">
        <ele>794.6</ele>
        <time>2021-05-28T11:56:11Z</time>
      </trkpt>
      <trkpt lat="45.46083" lon="6.55597">
        <ele>795</ele>
        <time>2021-05-28T11:56:12Z</time>
      </trkpt>
      <trkpt lat="45.4608" lon="6.55598">
        <ele>795.4</ele>
        <time>2021-05-28T11:56:13Z</time>
      </trkpt>
      <trkpt lat="45.46076" lon="6.55599">
        <ele>795.4</ele>
        <time>2021-05-28T11:56:14Z</time>
      </trkpt>
      <trkpt lat="45.46073" lon="6.556">
        <ele>795.2</ele>
        <time>2021-05-28T11:56:15Z</time>
      </trkpt>
      <trkpt lat="45.4607" lon="6.55601">
        <ele>794.8</ele>
        <time>2021-05-28T11:56:16Z</time>
      </trkpt>
      <trkpt lat="45.46066" lon="6.55601">
        <ele>794.6</ele>
        <time>2021-05-28T11:56:17Z</time>
      </trkpt>
      <trkpt lat="45.46063" lon="6.55602">
        <ele>794.2</ele>
        <time>2021-05-28T11:56:18Z</time>
      </trkpt>
      <trkpt lat="45.4606" lon="6.55602">
        <ele>793.8</ele>
        <time>2021-05-28T11:56:19Z</time>
      </trkpt>
      <trkpt lat="45.46056" lon="6.55603">
        <ele>793.6</ele>
        <time>2021-05-28T11:56:20Z</time>
      </trkpt>
      <trkpt lat="45.46053" lon="6.55604">
        <ele>793</ele>
        <time>2021-05-28T11:56:21Z</time>
      </trkpt>
      <trkpt lat="45.46051" lon="6.55605">
        <ele>792.4</ele>
        <time>2021-05-28T11:56:22Z</time>
      </trkpt>
      <trkpt lat="45.46048" lon="6.55607">
        <ele>792</ele>
        <time>2021-05-28T11:56:23Z</time>
      </trkpt>
      <trkpt lat="45.46046" lon="6.5561">
        <ele>791.8</ele>
        <time>2021-05-28T11:56:24Z</time>
      </trkpt>
      <trkpt lat="45.46046" lon="6.55612">
        <ele>791.6</ele>
        <time>2021-05-28T11:56:25Z</time>
      </trkpt>
      <trkpt lat="45.46044" lon="6.55615">
        <ele>791.4</ele>
        <time>2021-05-28T11:56:26Z</time>
      </trkpt>
      <trkpt lat="45.46043" lon="6.55619">
        <ele>791</ele>
        <time>2021-05-28T11:56:28Z</time>
      </trkpt>
      <trkpt lat="45.46042" lon="6.55622">
        <ele>790.8</ele>
        <time>2021-05-28T11:56:30Z</time>
      </trkpt>
      <trkpt lat="45.46042" lon="6.55626">
        <ele>791</ele>
        <time>2021-05-28T11:56:33Z</time>
      </trkpt>
      <trkpt lat="45.46044" lon="6.55628">
        <ele>791</ele>
        <time>2021-05-28T11:56:36Z</time>
      </trkpt>
      <trkpt lat="45.46046" lon="6.55631">
        <ele>791</ele>
        <time>2021-05-28T11:56:38Z</time>
      </trkpt>
      <trkpt lat="45.46047" lon="6.55635">
        <ele>792.6</ele>
        <time>2021-05-28T11:56:40Z</time>
      </trkpt>
      <trkpt lat="45.46048" lon="6.55637">
        <ele>793.6</ele>
        <time>2021-05-28T11:56:41Z</time>
      </trkpt>
      <trkpt lat="45.46051" lon="6.55641">
        <ele>795.4</ele>
        <time>2021-05-28T11:56:43Z</time>
      </trkpt>
      <trkpt lat="45.46052" lon="6.55643">
        <ele>795.8</ele>
        <time>2021-05-28T11:56:44Z</time>
      </trkpt>
      <trkpt lat="45.46053" lon="6.55645">
        <ele>796.2</ele>
        <time>2021-05-28T11:56:45Z</time>
      </trkpt>
      <trkpt lat="45.46054" lon="6.55648">
        <ele>796</ele>
        <time>2021-05-28T11:56:46Z</time>
      </trkpt>
      <trkpt lat="45.46056" lon="6.55651">
        <ele>795.8</ele>
        <time>2021-05-28T11:56:47Z</time>
      </trkpt>
      <trkpt lat="45.46058" lon="6.55654">
        <ele>795.6</ele>
        <time>2021-05-28T11:56:48Z</time>
      </trkpt>
      <trkpt lat="45.4606" lon="6.55657">
        <ele>795.4</ele>
        <time>2021-05-28T11:56:49Z</time>
      </trkpt>
      <trkpt lat="45.46062" lon="6.5566">
        <ele>794.8</ele>
        <time>2021-05-28T11:56:50Z</time>
      </trkpt>
      <trkpt lat="45.46064" lon="6.55662">
        <ele>794.4</ele>
        <time>2021-05-28T11:56:51Z</time>
      </trkpt>
      <trkpt lat="45.46066" lon="6.55665">
        <ele>794</ele>
        <time>2021-05-28T11:56:52Z</time>
      </trkpt>
      <trkpt lat="45.46067" lon="6.55668">
        <ele>793.8</ele>
        <time>2021-05-28T11:56:53Z</time>
      </trkpt>
      <trkpt lat="45.46068" lon="6.55672">
        <ele>793.6</ele>
        <time>2021-05-28T11:56:54Z</time>
      </trkpt>
      <trkpt lat="45.46068" lon="6.55675">
        <ele>793.2</ele>
        <time>2021-05-28T11:56:55Z</time>
      </trkpt>
      <trkpt lat="45.46068" lon="6.55678">
        <ele>793</ele>
        <time>2021-05-28T11:56:56Z</time>
      </trkpt>
      <trkpt lat="45.46068" lon="6.55682">
        <ele>793.2</ele>
        <time>2021-05-28T11:56:57Z</time>
      </trkpt>
      <trkpt lat="45.46067" lon="6.55685">
        <ele>793.4</ele>
        <time>2021-05-28T11:56:58Z</time>
      </trkpt>
      <trkpt lat="45.46065" lon="6.55687">
        <ele>793.8</ele>
        <time>2021-05-28T11:56:59Z</time>
      </trkpt>
      <trkpt lat="45.46063" lon="6.55689">
        <ele>794.2</ele>
        <time>2021-05-28T11:57:00Z</time>
      </trkpt>
      <trkpt lat="45.4606" lon="6.55691">
        <ele>794.4</ele>
        <time>2021-05-28T11:57:01Z</time>
      </trkpt>
      <trkpt lat="45.46058" lon="6.55693">
        <ele>795.2</ele>
        <time>2021-05-28T11:57:02Z</time>
      </trkpt>
      <trkpt lat="45.46054" lon="6.55696">
        <ele>795.6</ele>
        <time>2021-05-28T11:57:03Z</time>
      </trkpt>
      <trkpt lat="45.46051" lon="6.55698">
        <ele>796.6</ele>
        <time>2021-05-28T11:57:04Z</time>
      </trkpt>
      <trkpt lat="45.46048" lon="6.55701">
        <ele>797.4</ele>
        <time>2021-05-28T11:57:05Z</time>
      </trkpt>
      <trkpt lat="45.46044" lon="6.55703">
        <ele>798.2</ele>
        <time>2021-05-28T11:57:06Z</time>
      </trkpt>
      <trkpt lat="45.4604" lon="6.55705">
        <ele>798.8</ele>
        <time>2021-05-28T11:57:07Z</time>
      </trkpt>
      <trkpt lat="45.46037" lon="6.55709">
        <ele>799.2</ele>
        <time>2021-05-28T11:57:08Z</time>
      </trkpt>
      <trkpt lat="45.46035" lon="6.55712">
        <ele>799.6</ele>
        <time>2021-05-28T11:57:09Z</time>
      </trkpt>
      <trkpt lat="45.46033" lon="6.55716">
        <ele>799.8</ele>
        <time>2021-05-28T11:57:10Z</time>
      </trkpt>
      <trkpt lat="45.46031" lon="6.5572">
        <ele>800</ele>
        <time>2021-05-28T11:57:11Z</time>
      </trkpt>
      <trkpt lat="45.46029" lon="6.55724">
        <ele>800.6</ele>
        <time>2021-05-28T11:57:12Z</time>
      </trkpt>
      <trkpt lat="45.46028" lon="6.55729">
        <ele>801.2</ele>
        <time>2021-05-28T11:57:13Z</time>
      </trkpt>
      <trkpt lat="45.46026" lon="6.55733">
        <ele>801.8</ele>
        <time>2021-05-28T11:57:14Z</time>
      </trkpt>
      <trkpt lat="45.46026" lon="6.55739">
        <ele>802.4</ele>
        <time>2021-05-28T11:57:15Z</time>
      </trkpt>
      <trkpt lat="45.46024" lon="6.55744">
        <ele>803</ele>
        <time>2021-05-28T11:57:16Z</time>
      </trkpt>
      <trkpt lat="45.46024" lon="6.55749">
        <ele>803.2</ele>
        <time>2021-05-28T11:57:17Z</time>
      </trkpt>
      <trkpt lat="45.46024" lon="6.55754">
        <ele>803.4</ele>
        <time>2021-05-28T11:57:18Z</time>
      </trkpt>
      <trkpt lat="45.46023" lon="6.55759">
        <ele>803.4</ele>
        <time>2021-05-28T11:57:19Z</time>
      </trkpt>
      <trkpt lat="45.46023" lon="6.55764">
        <ele>803.4</ele>
        <time>2021-05-28T11:57:20Z</time>
      </trkpt>
      <trkpt lat="45.46024" lon="6.55769">
        <ele>803.4</ele>
        <time>2021-05-28T11:57:21Z</time>
      </trkpt>
      <trkpt lat="45.46025" lon="6.55774">
        <ele>803.2</ele>
        <time>2021-05-28T11:57:22Z</time>
      </trkpt>
      <trkpt lat="45.46027" lon="6.55778">
        <ele>803</ele>
        <time>2021-05-28T11:57:23Z</time>
      </trkpt>
      <trkpt lat="45.46028" lon="6.55783">
        <ele>803</ele>
        <time>2021-05-28T11:57:24Z</time>
      </trkpt>
      <trkpt lat="45.4603" lon="6.55787">
        <ele>803</ele>
        <time>2021-05-28T11:57:25Z</time>
      </trkpt>
      <trkpt lat="45.46032" lon="6.55791">
        <ele>803</ele>
        <time>2021-05-28T11:57:26Z</time>
      </trkpt>
      <trkpt lat="45.46034" lon="6.55795">
        <ele>803</ele>
        <time>2021-05-28T11:57:27Z</time>
      </trkpt>
      <trkpt lat="45.46036" lon="6.55798">
        <ele>803.2</ele>
        <time>2021-05-28T11:57:28Z</time>
      </trkpt>
      <trkpt lat="45.46038" lon="6.55801">
        <ele>803.6</ele>
        <time>2021-05-28T11:57:29Z</time>
      </trkpt>
      <trkpt lat="45.46039" lon="6.55805">
        <ele>804.2</ele>
        <time>2021-05-28T11:57:30Z</time>
      </trkpt>
      <trkpt lat="45.46041" lon="6.55809">
        <ele>804.8</ele>
        <time>2021-05-28T11:57:31Z</time>
      </trkpt>
      <trkpt lat="45.46043" lon="6.55813">
        <ele>805.2</ele>
        <time>2021-05-28T11:57:32Z</time>
      </trkpt>
      <trkpt lat="45.46044" lon="6.55817">
        <ele>805.8</ele>
        <time>2021-05-28T11:57:33Z</time>
      </trkpt>
      <trkpt lat="45.46046" lon="6.55821">
        <ele>806.4</ele>
        <time>2021-05-28T11:57:34Z</time>
      </trkpt>
      <trkpt lat="45.46048" lon="6.55825">
        <ele>807.2</ele>
        <time>2021-05-28T11:57:35Z</time>
      </trkpt>
      <trkpt lat="45.4605" lon="6.55828">
        <ele>808</ele>
        <time>2021-05-28T11:57:36Z</time>
      </trkpt>
      <trkpt lat="45.46052" lon="6.55832">
        <ele>809</ele>
        <time>2021-05-28T11:57:37Z</time>
      </trkpt>
      <trkpt lat="45.46053" lon="6.55836">
        <ele>809.8</ele>
        <time>2021-05-28T11:57:38Z</time>
      </trkpt>
      <trkpt lat="45.46054" lon="6.5584">
        <ele>810.8</ele>
        <time>2021-05-28T11:57:39Z</time>
      </trkpt>
      <trkpt lat="45.46056" lon="6.55844">
        <ele>811.6</ele>
        <time>2021-05-28T11:57:40Z</time>
      </trkpt>
      <trkpt lat="45.46058" lon="6.55848">
        <ele>812.2</ele>
        <time>2021-05-28T11:57:41Z</time>
      </trkpt>
      <trkpt lat="45.46059" lon="6.55851">
        <ele>812.8</ele>
        <time>2021-05-28T11:57:42Z</time>
      </trkpt>
      <trkpt lat="45.4606" lon="6.55856">
        <ele>813.6</ele>
        <time>2021-05-28T11:57:43Z</time>
      </trkpt>
      <trkpt lat="45.46062" lon="6.5586">
        <ele>814.4</ele>
        <time>2021-05-28T11:57:44Z</time>
      </trkpt>
      <trkpt lat="45.46063" lon="6.55864">
        <ele>815.2</ele>
        <time>2021-05-28T11:57:45Z</time>
      </trkpt>
      <trkpt lat="45.46064" lon="6.55868">
        <ele>815.8</ele>
        <time>2021-05-28T11:57:46Z</time>
      </trkpt>
      <trkpt lat="45.46065" lon="6.55873">
        <ele>816.6</ele>
        <time>2021-05-28T11:57:47Z</time>
      </trkpt>
      <trkpt lat="45.46066" lon="6.55878">
        <ele>817.2</ele>
        <time>2021-05-28T11:57:48Z</time>
      </trkpt>
      <trkpt lat="45.46066" lon="6.55883">
        <ele>817.8</ele>
        <time>2021-05-28T11:57:49Z</time>
      </trkpt>
      <trkpt lat="45.46068" lon="6.55887">
        <ele>818.4</ele>
        <time>2021-05-28T11:57:50Z</time>
      </trkpt>
      <trkpt lat="45.46068" lon="6.55891">
        <ele>819</ele>
        <time>2021-05-28T11:57:51Z</time>
      </trkpt>
      <trkpt lat="45.46068" lon="6.55895">
        <ele>819.6</ele>
        <time>2021-05-28T11:57:52Z</time>
      </trkpt>
      <trkpt lat="45.4607" lon="6.55898">
        <ele>820.2</ele>
        <time>2021-05-28T11:57:53Z</time>
      </trkpt>
      <trkpt lat="45.46071" lon="6.55902">
        <ele>820.8</ele>
        <time>2021-05-28T11:57:54Z</time>
      </trkpt>
      <trkpt lat="45.46072" lon="6.55906">
        <ele>821.4</ele>
        <time>2021-05-28T11:57:55Z</time>
      </trkpt>
      <trkpt lat="45.46074" lon="6.5591">
        <ele>822.2</ele>
        <time>2021-05-28T11:57:56Z</time>
      </trkpt>
      <trkpt lat="45.46076" lon="6.55913">
        <ele>823</ele>
        <time>2021-05-28T11:57:57Z</time>
      </trkpt>
      <trkpt lat="45.46077" lon="6.55917">
        <ele>823.6</ele>
        <time>2021-05-28T11:57:58Z</time>
      </trkpt>
      <trkpt lat="45.4608" lon="6.55921">
        <ele>824.2</ele>
        <time>2021-05-28T11:57:59Z</time>
      </trkpt>
      <trkpt lat="45.46081" lon="6.55925">
        <ele>824.6</ele>
        <time>2021-05-28T11:58:00Z</time>
      </trkpt>
      <trkpt lat="45.46082" lon="6.5593">
        <ele>825</ele>
        <time>2021-05-28T11:58:01Z</time>
      </trkpt>
      <trkpt lat="45.46083" lon="6.55934">
        <ele>825.6</ele>
        <time>2021-05-28T11:58:02Z</time>
      </trkpt>
      <trkpt lat="45.46083" lon="6.55938">
        <ele>826</ele>
        <time>2021-05-28T11:58:03Z</time>
      </trkpt>
      <trkpt lat="45.46083" lon="6.55943">
        <ele>826.4</ele>
        <time>2021-05-28T11:58:04Z</time>
      </trkpt>
      <trkpt lat="45.46083" lon="6.55946">
        <ele>827</ele>
        <time>2021-05-28T11:58:05Z</time>
      </trkpt>
      <trkpt lat="45.46081" lon="6.5595">
        <ele>827.4</ele>
        <time>2021-05-28T11:58:06Z</time>
      </trkpt>
      <trkpt lat="45.4608" lon="6.55953">
        <ele>828</ele>
        <time>2021-05-28T11:58:07Z</time>
      </trkpt>
      <trkpt lat="45.46077" lon="6.55956">
        <ele>828.4</ele>
        <time>2021-05-28T11:58:08Z</time>
      </trkpt>
      <trkpt lat="45.46075" lon="6.55958">
        <ele>828.8</ele>
        <time>2021-05-28T11:58:09Z</time>
      </trkpt>
      <trkpt lat="45.46073" lon="6.5596">
        <ele>829.2</ele>
        <time>2021-05-28T11:58:10Z</time>
      </trkpt>
      <trkpt lat="45.4607" lon="6.55961">
        <ele>829.6</ele>
        <time>2021-05-28T11:58:11Z</time>
      </trkpt>
      <trkpt lat="45.46068" lon="6.55963">
        <ele>830</ele>
        <time>2021-05-28T11:58:12Z</time>
      </trkpt>
      <trkpt lat="45.46065" lon="6.55965">
        <ele>830.4</ele>
        <time>2021-05-28T11:58:13Z</time>
      </trkpt>
      <trkpt lat="45.46062" lon="6.55966">
        <ele>831</ele>
        <time>2021-05-28T11:58:14Z</time>
      </trkpt>
      <trkpt lat="45.4606" lon="6.55968">
        <ele>831.4</ele>
        <time>2021-05-28T11:58:15Z</time>
      </trkpt>
      <trkpt lat="45.46057" lon="6.5597">
        <ele>831.8</ele>
        <time>2021-05-28T11:58:16Z</time>
      </trkpt>
      <trkpt lat="45.46054" lon="6.55972">
        <ele>832.2</ele>
        <time>2021-05-28T11:58:17Z</time>
      </trkpt>
      <trkpt lat="45.46052" lon="6.55975">
        <ele>832.6</ele>
        <time>2021-05-28T11:58:18Z</time>
      </trkpt>
      <trkpt lat="45.4605" lon="6.55978">
        <ele>833.2</ele>
        <time>2021-05-28T11:58:19Z</time>
      </trkpt>
      <trkpt lat="45.46048" lon="6.55982">
        <ele>833.4</ele>
        <time>2021-05-28T11:58:20Z</time>
      </trkpt>
      <trkpt lat="45.46048" lon="6.55986">
        <ele>833.6</ele>
        <time>2021-05-28T11:58:21Z</time>
      </trkpt>
      <trkpt lat="45.46047" lon="6.5599">
        <ele>834.2</ele>
        <time>2021-05-28T11:58:22Z</time>
      </trkpt>
      <trkpt lat="45.46048" lon="6.55994">
        <ele>834.8</ele>
        <time>2021-05-28T11:58:23Z</time>
      </trkpt>
      <trkpt lat="45.46049" lon="6.55998">
        <ele>835.2</ele>
        <time>2021-05-28T11:58:24Z</time>
      </trkpt>
      <trkpt lat="45.4605" lon="6.56002">
        <ele>835.8</ele>
        <time>2021-05-28T11:58:25Z</time>
      </trkpt>
      <trkpt lat="45.46051" lon="6.56006">
        <ele>836.2</ele>
        <time>2021-05-28T11:58:26Z</time>
      </trkpt>
      <trkpt lat="45.46052" lon="6.5601">
        <ele>836.6</ele>
        <time>2021-05-28T11:58:27Z</time>
      </trkpt>
      <trkpt lat="45.46053" lon="6.56015">
        <ele>836.8</ele>
        <time>2021-05-28T11:58:28Z</time>
      </trkpt>
      <trkpt lat="45.46055" lon="6.5602">
        <ele>836.4</ele>
        <time>2021-05-28T11:58:29Z</time>
      </trkpt>
      <trkpt lat="45.46056" lon="6.56024">
        <ele>836</ele>
        <time>2021-05-28T11:58:30Z</time>
      </trkpt>
      <trkpt lat="45.46057" lon="6.5603">
        <ele>835.6</ele>
        <time>2021-05-28T11:58:31Z</time>
      </trkpt>
      <trkpt lat="45.46058" lon="6.56034">
        <ele>835</ele>
        <time>2021-05-28T11:58:32Z</time>
      </trkpt>
      <trkpt lat="45.46058" lon="6.56038">
        <ele>834.6</ele>
        <time>2021-05-28T11:58:33Z</time>
      </trkpt>
      <trkpt lat="45.46058" lon="6.56043">
        <ele>834.2</ele>
        <time>2021-05-28T11:58:34Z</time>
      </trkpt>
      <trkpt lat="45.46058" lon="6.56047">
        <ele>833.8</ele>
        <time>2021-05-28T11:58:35Z</time>
      </trkpt>
      <trkpt lat="45.46058" lon="6.56052">
        <ele>833.4</ele>
        <time>2021-05-28T11:58:36Z</time>
      </trkpt>
      <trkpt lat="45.46058" lon="6.56056">
        <ele>832.8</ele>
        <time>2021-05-28T11:58:37Z</time>
      </trkpt>
      <trkpt lat="45.46057" lon="6.56061">
        <ele>832.4</ele>
        <time>2021-05-28T11:58:38Z</time>
      </trkpt>
      <trkpt lat="45.46056" lon="6.56064">
        <ele>832.2</ele>
        <time>2021-05-28T11:58:39Z</time>
      </trkpt>
      <trkpt lat="45.46055" lon="6.5607">
        <ele>831.8</ele>
        <time>2021-05-28T11:58:40Z</time>
      </trkpt>
      <trkpt lat="45.46054" lon="6.56074">
        <ele>831.6</ele>
        <time>2021-05-28T11:58:41Z</time>
      </trkpt>
      <trkpt lat="45.46053" lon="6.56078">
        <ele>831.4</ele>
        <time>2021-05-28T11:58:42Z</time>
      </trkpt>
      <trkpt lat="45.46051" lon="6.56082">
        <ele>831.4</ele>
        <time>2021-05-28T11:58:43Z</time>
      </trkpt>
      <trkpt lat="45.46049" lon="6.56086">
        <ele>831</ele>
        <time>2021-05-28T11:58:44Z</time>
      </trkpt>
      <trkpt lat="45.46046" lon="6.5609">
        <ele>830.8</ele>
        <time>2021-05-28T11:58:45Z</time>
      </trkpt>
      <trkpt lat="45.46043" lon="6.56093">
        <ele>830.8</ele>
        <time>2021-05-28T11:58:46Z</time>
      </trkpt>
      <trkpt lat="45.4604" lon="6.56095">
        <ele>830.6</ele>
        <time>2021-05-28T11:58:47Z</time>
      </trkpt>
      <trkpt lat="45.46037" lon="6.56097">
        <ele>830.8</ele>
        <time>2021-05-28T11:58:48Z</time>
      </trkpt>
      <trkpt lat="45.46034" lon="6.561">
        <ele>831.2</ele>
        <time>2021-05-28T11:58:49Z</time>
      </trkpt>
      <trkpt lat="45.4603" lon="6.56103">
        <ele>831.4</ele>
        <time>2021-05-28T11:58:50Z</time>
      </trkpt>
      <trkpt lat="45.46027" lon="6.56106">
        <ele>831.4</ele>
        <time>2021-05-28T11:58:51Z</time>
      </trkpt>
      <trkpt lat="45.46023" lon="6.56109">
        <ele>831.2</ele>
        <time>2021-05-28T11:58:52Z</time>
      </trkpt>
      <trkpt lat="45.4602" lon="6.56111">
        <ele>831.2</ele>
        <time>2021-05-28T11:58:53Z</time>
      </trkpt>
      <trkpt lat="45.46016" lon="6.56114">
        <ele>831</ele>
        <time>2021-05-28T11:58:54Z</time>
      </trkpt>
      <trkpt lat="45.46013" lon="6.56116">
        <ele>831</ele>
        <time>2021-05-28T11:58:55Z</time>
      </trkpt>
      <trkpt lat="45.46011" lon="6.5612">
        <ele>831</ele>
        <time>2021-05-28T11:58:56Z</time>
      </trkpt>
      <trkpt lat="45.46009" lon="6.56123">
        <ele>831</ele>
        <time>2021-05-28T11:58:57Z</time>
      </trkpt>
      <trkpt lat="45.46006" lon="6.56126">
        <ele>831.2</ele>
        <time>2021-05-28T11:58:58Z</time>
      </trkpt>
      <trkpt lat="45.46003" lon="6.56128">
        <ele>831</ele>
        <time>2021-05-28T11:58:59Z</time>
      </trkpt>
      <trkpt lat="45.46" lon="6.56131">
        <ele>831</ele>
        <time>2021-05-28T11:59:00Z</time>
      </trkpt>
      <trkpt lat="45.45997" lon="6.56134">
        <ele>831</ele>
        <time>2021-05-28T11:59:01Z</time>
      </trkpt>
      <trkpt lat="45.45995" lon="6.56137">
        <ele>831</ele>
        <time>2021-05-28T11:59:02Z</time>
      </trkpt>
      <trkpt lat="45.45992" lon="6.56141">
        <ele>831</ele>
        <time>2021-05-28T11:59:03Z</time>
      </trkpt>
      <trkpt lat="45.4599" lon="6.56144">
        <ele>831.2</ele>
        <time>2021-05-28T11:59:04Z</time>
      </trkpt>
      <trkpt lat="45.45988" lon="6.56148">
        <ele>831.2</ele>
        <time>2021-05-28T11:59:05Z</time>
      </trkpt>
      <trkpt lat="45.45986" lon="6.56151">
        <ele>831</ele>
        <time>2021-05-28T11:59:06Z</time>
      </trkpt>
      <trkpt lat="45.45983" lon="6.56156">
        <ele>831.2</ele>
        <time>2021-05-28T11:59:07Z</time>
      </trkpt>
      <trkpt lat="45.4598" lon="6.56159">
        <ele>831</ele>
        <time>2021-05-28T11:59:08Z</time>
      </trkpt>
      <trkpt lat="45.45978" lon="6.56164">
        <ele>831</ele>
        <time>2021-05-28T11:59:09Z</time>
      </trkpt>
      <trkpt lat="45.45976" lon="6.56168">
        <ele>830.8</ele>
        <time>2021-05-28T11:59:10Z</time>
      </trkpt>
      <trkpt lat="45.45974" lon="6.56171">
        <ele>830.8</ele>
        <time>2021-05-28T11:59:11Z</time>
      </trkpt>
      <trkpt lat="45.45972" lon="6.56175">
        <ele>830.8</ele>
        <time>2021-05-28T11:59:12Z</time>
      </trkpt>
      <trkpt lat="45.45972" lon="6.56179">
        <ele>830.6</ele>
        <time>2021-05-28T11:59:13Z</time>
      </trkpt>
      <trkpt lat="45.45971" lon="6.56183">
        <ele>830.6</ele>
        <time>2021-05-28T11:59:14Z</time>
      </trkpt>
      <trkpt lat="45.45971" lon="6.56187">
        <ele>830.6</ele>
        <time>2021-05-28T11:59:15Z</time>
      </trkpt>
      <trkpt lat="45.4597" lon="6.56191">
        <ele>831</ele>
        <time>2021-05-28T11:59:16Z</time>
      </trkpt>
      <trkpt lat="45.4597" lon="6.56196">
        <ele>831.2</ele>
        <time>2021-05-28T11:59:17Z</time>
      </trkpt>
      <trkpt lat="45.4597" lon="6.562">
        <ele>831.6</ele>
        <time>2021-05-28T11:59:18Z</time>
      </trkpt>
      <trkpt lat="45.45971" lon="6.56204">
        <ele>832.4</ele>
        <time>2021-05-28T11:59:19Z</time>
      </trkpt>
      <trkpt lat="45.45971" lon="6.56209">
        <ele>833</ele>
        <time>2021-05-28T11:59:20Z</time>
      </trkpt>
      <trkpt lat="45.45972" lon="6.56213">
        <ele>833.4</ele>
        <time>2021-05-28T11:59:21Z</time>
      </trkpt>
      <trkpt lat="45.45973" lon="6.56218">
        <ele>833.8</ele>
        <time>2021-05-28T11:59:22Z</time>
      </trkpt>
      <trkpt lat="45.45974" lon="6.56222">
        <ele>834.2</ele>
        <time>2021-05-28T11:59:23Z</time>
      </trkpt>
      <trkpt lat="45.45975" lon="6.56227">
        <ele>834.6</ele>
        <time>2021-05-28T11:59:24Z</time>
      </trkpt>
      <trkpt lat="45.45977" lon="6.56231">
        <ele>835</ele>
        <time>2021-05-28T11:59:25Z</time>
      </trkpt>
      <trkpt lat="45.45979" lon="6.56235">
        <ele>835.6</ele>
        <time>2021-05-28T11:59:26Z</time>
      </trkpt>
      <trkpt lat="45.4598" lon="6.56239">
        <ele>836.4</ele>
        <time>2021-05-28T11:59:27Z</time>
      </trkpt>
      <trkpt lat="45.45982" lon="6.56244">
        <ele>837.2</ele>
        <time>2021-05-28T11:59:28Z</time>
      </trkpt>
      <trkpt lat="45.45983" lon="6.56249">
        <ele>838</ele>
        <time>2021-05-28T11:59:29Z</time>
      </trkpt>
      <trkpt lat="45.45985" lon="6.56253">
        <ele>839</ele>
        <time>2021-05-28T11:59:30Z</time>
      </trkpt>
      <trkpt lat="45.45985" lon="6.56257">
        <ele>839.8</ele>
        <time>2021-05-28T11:59:31Z</time>
      </trkpt>
      <trkpt lat="45.45986" lon="6.56261">
        <ele>840.8</ele>
        <time>2021-05-28T11:59:32Z</time>
      </trkpt>
      <trkpt lat="45.45987" lon="6.56265">
        <ele>841.6</ele>
        <time>2021-05-28T11:59:33Z</time>
      </trkpt>
      <trkpt lat="45.45987" lon="6.5627">
        <ele>842.2</ele>
        <time>2021-05-28T11:59:34Z</time>
      </trkpt>
      <trkpt lat="45.45988" lon="6.56274">
        <ele>843.2</ele>
        <time>2021-05-28T11:59:35Z</time>
      </trkpt>
      <trkpt lat="45.45989" lon="6.56279">
        <ele>844.2</ele>
        <time>2021-05-28T11:59:36Z</time>
      </trkpt>
      <trkpt lat="45.4599" lon="6.56283">
        <ele>845</ele>
        <time>2021-05-28T11:59:37Z</time>
      </trkpt>
      <trkpt lat="45.45991" lon="6.56287">
        <ele>845.8</ele>
        <time>2021-05-28T11:59:38Z</time>
      </trkpt>
      <trkpt lat="45.45991" lon="6.56292">
        <ele>846.2</ele>
        <time>2021-05-28T11:59:39Z</time>
      </trkpt>
      <trkpt lat="45.45992" lon="6.56296">
        <ele>847</ele>
        <time>2021-05-28T11:59:40Z</time>
      </trkpt>
      <trkpt lat="45.45992" lon="6.56301">
        <ele>847.6</ele>
        <time>2021-05-28T11:59:41Z</time>
      </trkpt>
      <trkpt lat="45.45992" lon="6.56305">
        <ele>848.2</ele>
        <time>2021-05-28T11:59:42Z</time>
      </trkpt>
      <trkpt lat="45.45993" lon="6.5631">
        <ele>848.8</ele>
        <time>2021-05-28T11:59:43Z</time>
      </trkpt>
      <trkpt lat="45.45993" lon="6.56314">
        <ele>849</ele>
        <time>2021-05-28T11:59:44Z</time>
      </trkpt>
      <trkpt lat="45.45992" lon="6.56318">
        <ele>849.4</ele>
        <time>2021-05-28T11:59:45Z</time>
      </trkpt>
      <trkpt lat="45.45991" lon="6.56322">
        <ele>850</ele>
        <time>2021-05-28T11:59:46Z</time>
      </trkpt>
      <trkpt lat="45.4599" lon="6.56327">
        <ele>850.6</ele>
        <time>2021-05-28T11:59:47Z</time>
      </trkpt>
      <trkpt lat="45.45988" lon="6.5633">
        <ele>851.4</ele>
        <time>2021-05-28T11:59:48Z</time>
      </trkpt>
      <trkpt lat="45.45986" lon="6.56333">
        <ele>852.2</ele>
        <time>2021-05-28T11:59:49Z</time>
      </trkpt>
      <trkpt lat="45.45983" lon="6.56335">
        <ele>852.8</ele>
        <time>2021-05-28T11:59:50Z</time>
      </trkpt>
      <trkpt lat="45.45981" lon="6.56337">
        <ele>853.2</ele>
        <time>2021-05-28T11:59:51Z</time>
      </trkpt>
      <trkpt lat="45.45978" lon="6.56339">
        <ele>853.6</ele>
        <time>2021-05-28T11:59:52Z</time>
      </trkpt>
      <trkpt lat="45.45975" lon="6.56341">
        <ele>854</ele>
        <time>2021-05-28T11:59:53Z</time>
      </trkpt>
      <trkpt lat="45.45973" lon="6.56344">
        <ele>854.8</ele>
        <time>2021-05-28T11:59:54Z</time>
      </trkpt>
      <trkpt lat="45.4597" lon="6.56346">
        <ele>855.4</ele>
        <time>2021-05-28T11:59:55Z</time>
      </trkpt>
      <trkpt lat="45.45967" lon="6.56347">
        <ele>856</ele>
        <time>2021-05-28T11:59:56Z</time>
      </trkpt>
      <trkpt lat="45.45964" lon="6.56349">
        <ele>856.4</ele>
        <time>2021-05-28T11:59:57Z</time>
      </trkpt>
      <trkpt lat="45.45961" lon="6.5635">
        <ele>857</ele>
        <time>2021-05-28T11:59:58Z</time>
      </trkpt>
      <trkpt lat="45.45958" lon="6.56352">
        <ele>857.4</ele>
        <time>2021-05-28T11:59:59Z</time>
      </trkpt>
      <trkpt lat="45.45956" lon="6.56353">
        <ele>857.4</ele>
        <time>2021-05-28T12:00:00Z</time>
      </trkpt>
      <trkpt lat="45.45954" lon="6.56356">
        <ele>858</ele>
        <time>2021-05-28T12:00:01Z</time>
      </trkpt>
      <trkpt lat="45.45952" lon="6.56358">
        <ele>858.4</ele>
        <time>2021-05-28T12:00:02Z</time>
      </trkpt>
      <trkpt lat="45.45949" lon="6.5636">
        <ele>858.8</ele>
        <time>2021-05-28T12:00:03Z</time>
      </trkpt>
      <trkpt lat="45.45947" lon="6.56362">
        <ele>859.2</ele>
        <time>2021-05-28T12:00:04Z</time>
      </trkpt>
      <trkpt lat="45.45945" lon="6.56365">
        <ele>859.6</ele>
        <time>2021-05-28T12:00:05Z</time>
      </trkpt>
      <trkpt lat="45.45942" lon="6.56368">
        <ele>860.2</ele>
        <time>2021-05-28T12:00:06Z</time>
      </trkpt>
      <trkpt lat="45.4594" lon="6.56371">
        <ele>860.6</ele>
        <time>2021-05-28T12:00:07Z</time>
      </trkpt>
      <trkpt lat="45.45939" lon="6.56374">
        <ele>860.8</ele>
        <time>2021-05-28T12:00:08Z</time>
      </trkpt>
      <trkpt lat="45.45936" lon="6.56377">
        <ele>861.2</ele>
        <time>2021-05-28T12:00:09Z</time>
      </trkpt>
      <trkpt lat="45.45934" lon="6.56379">
        <ele>861.6</ele>
        <time>2021-05-28T12:00:10Z</time>
      </trkpt>
      <trkpt lat="45.45933" lon="6.56382">
        <ele>862</ele>
        <time>2021-05-28T12:00:11Z</time>
      </trkpt>
      <trkpt lat="45.45931" lon="6.56385">
        <ele>862.4</ele>
        <time>2021-05-28T12:00:12Z</time>
      </trkpt>
      <trkpt lat="45.45929" lon="6.56387">
        <ele>862.8</ele>
        <time>2021-05-28T12:00:13Z</time>
      </trkpt>
      <trkpt lat="45.45927" lon="6.5639">
        <ele>863.2</ele>
        <time>2021-05-28T12:00:14Z</time>
      </trkpt>
      <trkpt lat="45.45925" lon="6.56392">
        <ele>863.4</ele>
        <time>2021-05-28T12:00:15Z</time>
      </trkpt>
      <trkpt lat="45.45923" lon="6.56394">
        <ele>863.8</ele>
        <time>2021-05-28T12:00:16Z</time>
      </trkpt>
      <trkpt lat="45.4592" lon="6.56396">
        <ele>864</ele>
        <time>2021-05-28T12:00:17Z</time>
      </trkpt>
      <trkpt lat="45.45918" lon="6.56398">
        <ele>864.4</ele>
        <time>2021-05-28T12:00:18Z</time>
      </trkpt>
      <trkpt lat="45.45915" lon="6.564">
        <ele>864.8</ele>
        <time>2021-05-28T12:00:19Z</time>
      </trkpt>
      <trkpt lat="45.45913" lon="6.56402">
        <ele>865</ele>
        <time>2021-05-28T12:00:20Z</time>
      </trkpt>
      <trkpt lat="45.45911" lon="6.56404">
        <ele>865.2</ele>
        <time>2021-05-28T12:00:21Z</time>
      </trkpt>
      <trkpt lat="45.45908" lon="6.56405">
        <ele>865.2</ele>
        <time>2021-05-28T12:00:22Z</time>
      </trkpt>
      <trkpt lat="45.45906" lon="6.56407">
        <ele>865.2</ele>
        <time>2021-05-28T12:00:23Z</time>
      </trkpt>
      <trkpt lat="45.45903" lon="6.56408">
        <ele>865.2</ele>
        <time>2021-05-28T12:00:24Z</time>
      </trkpt>
      <trkpt lat="45.45901" lon="6.5641">
        <ele>865.4</ele>
        <time>2021-05-28T12:00:25Z</time>
      </trkpt>
      <trkpt lat="45.45899" lon="6.56411">
        <ele>865.6</ele>
        <time>2021-05-28T12:00:26Z</time>
      </trkpt>
      <trkpt lat="45.45896" lon="6.56413">
        <ele>865.6</ele>
        <time>2021-05-28T12:00:27Z</time>
      </trkpt>
      <trkpt lat="45.45893" lon="6.56414">
        <ele>866</ele>
        <time>2021-05-28T12:00:28Z</time>
      </trkpt>
      <trkpt lat="45.4589" lon="6.56415">
        <ele>866.2</ele>
        <time>2021-05-28T12:00:29Z</time>
      </trkpt>
      <trkpt lat="45.45888" lon="6.56416">
        <ele>866.2</ele>
        <time>2021-05-28T12:00:30Z</time>
      </trkpt>
      <trkpt lat="45.45885" lon="6.56418">
        <ele>866.2</ele>
        <time>2021-05-28T12:00:31Z</time>
      </trkpt>
      <trkpt lat="45.45883" lon="6.56419">
        <ele>866.2</ele>
        <time>2021-05-28T12:00:32Z</time>
      </trkpt>
      <trkpt lat="45.45879" lon="6.5642">
        <ele>865.8</ele>
        <time>2021-05-28T12:00:33Z</time>
      </trkpt>
      <trkpt lat="45.45877" lon="6.5642">
        <ele>865.4</ele>
        <time>2021-05-28T12:00:34Z</time>
      </trkpt>
      <trkpt lat="45.45874" lon="6.5642">
        <ele>865.6</ele>
        <time>2021-05-28T12:00:35Z</time>
      </trkpt>
      <trkpt lat="45.45871" lon="6.56419">
        <ele>865.2</ele>
        <time>2021-05-28T12:00:36Z</time>
      </trkpt>
      <trkpt lat="45.45869" lon="6.56418">
        <ele>864.8</ele>
        <time>2021-05-28T12:00:37Z</time>
      </trkpt>
      <trkpt lat="45.45866" lon="6.56417">
        <ele>864.2</ele>
        <time>2021-05-28T12:00:38Z</time>
      </trkpt>
      <trkpt lat="45.45863" lon="6.56416">
        <ele>863.8</ele>
        <time>2021-05-28T12:00:39Z</time>
      </trkpt>
      <trkpt lat="45.4586" lon="6.56415">
        <ele>863.4</ele>
        <time>2021-05-28T12:00:40Z</time>
      </trkpt>
      <trkpt lat="45.45857" lon="6.56414">
        <ele>863</ele>
        <time>2021-05-28T12:00:41Z</time>
      </trkpt>
      <trkpt lat="45.45854" lon="6.56413">
        <ele>862.8</ele>
        <time>2021-05-28T12:00:42Z</time>
      </trkpt>
      <trkpt lat="45.45852" lon="6.56414">
        <ele>862.4</ele>
        <time>2021-05-28T12:00:43Z</time>
      </trkpt>
      <trkpt lat="45.45849" lon="6.56414">
        <ele>862.2</ele>
        <time>2021-05-28T12:00:44Z</time>
      </trkpt>
      <trkpt lat="45.45846" lon="6.56415">
        <ele>863</ele>
        <time>2021-05-28T12:00:45Z</time>
      </trkpt>
      <trkpt lat="45.45844" lon="6.56415">
        <ele>863.8</ele>
        <time>2021-05-28T12:00:46Z</time>
      </trkpt>
      <trkpt lat="45.45841" lon="6.56416">
        <ele>864</ele>
        <time>2021-05-28T12:00:47Z</time>
      </trkpt>
      <trkpt lat="45.45838" lon="6.56417">
        <ele>863.8</ele>
        <time>2021-05-28T12:00:48Z</time>
      </trkpt>
      <trkpt lat="45.45836" lon="6.56418">
        <ele>863.8</ele>
        <time>2021-05-28T12:00:49Z</time>
      </trkpt>
      <trkpt lat="45.45834" lon="6.5642">
        <ele>863.8</ele>
        <time>2021-05-28T12:00:50Z</time>
      </trkpt>
      <trkpt lat="45.45832" lon="6.56421">
        <ele>863.6</ele>
        <time>2021-05-28T12:00:51Z</time>
      </trkpt>
      <trkpt lat="45.45831" lon="6.56423">
        <ele>863.2</ele>
        <time>2021-05-28T12:00:52Z</time>
      </trkpt>
      <trkpt lat="45.4583" lon="6.56425">
        <ele>862.4</ele>
        <time>2021-05-28T12:00:54Z</time>
      </trkpt>
      <trkpt lat="45.45828" lon="6.56427">
        <ele>861.8</ele>
        <time>2021-05-28T12:01:33Z</time>
      </trkpt>
      <trkpt lat="45.45828" lon="6.5643">
        <ele>862.2</ele>
        <time>2021-05-28T12:01:34Z</time>
      </trkpt>
      <trkpt lat="45.45828" lon="6.56433">
        <ele>862.8</ele>
        <time>2021-05-28T12:01:35Z</time>
      </trkpt>
      <trkpt lat="45.45828" lon="6.56438">
        <ele>862.8</ele>
        <time>2021-05-28T12:01:36Z</time>
      </trkpt>
      <trkpt lat="45.4583" lon="6.56442">
        <ele>863</ele>
        <time>2021-05-28T12:01:37Z</time>
      </trkpt>
      <trkpt lat="45.45831" lon="6.56447">
        <ele>863</ele>
        <time>2021-05-28T12:01:38Z</time>
      </trkpt>
      <trkpt lat="45.45832" lon="6.56452">
        <ele>862.8</ele>
        <time>2021-05-28T12:01:39Z</time>
      </trkpt>
      <trkpt lat="45.45833" lon="6.56457">
        <ele>862.4</ele>
        <time>2021-05-28T12:01:40Z</time>
      </trkpt>
      <trkpt lat="45.45834" lon="6.56462">
        <ele>862</ele>
        <time>2021-05-28T12:01:41Z</time>
      </trkpt>
      <trkpt lat="45.45836" lon="6.56467">
        <ele>861.8</ele>
        <time>2021-05-28T12:01:42Z</time>
      </trkpt>
      <trkpt lat="45.45837" lon="6.56472">
        <ele>861.6</ele>
        <time>2021-05-28T12:01:43Z</time>
      </trkpt>
      <trkpt lat="45.45838" lon="6.56478">
        <ele>861.2</ele>
        <time>2021-05-28T12:01:44Z</time>
      </trkpt>
      <trkpt lat="45.4584" lon="6.56483">
        <ele>861</ele>
        <time>2021-05-28T12:01:45Z</time>
      </trkpt>
      <trkpt lat="45.4584" lon="6.56489">
        <ele>861.4</ele>
        <time>2021-05-28T12:01:46Z</time>
      </trkpt>
      <trkpt lat="45.45842" lon="6.56494">
        <ele>861.2</ele>
        <time>2021-05-28T12:01:47Z</time>
      </trkpt>
      <trkpt lat="45.45843" lon="6.56499">
        <ele>861.4</ele>
        <time>2021-05-28T12:01:48Z</time>
      </trkpt>
      <trkpt lat="45.45844" lon="6.56504">
        <ele>861.2</ele>
        <time>2021-05-28T12:01:49Z</time>
      </trkpt>
      <trkpt lat="45.45845" lon="6.5651">
        <ele>861.2</ele>
        <time>2021-05-28T12:01:50Z</time>
      </trkpt>
      <trkpt lat="45.45847" lon="6.56515">
        <ele>861.2</ele>
        <time>2021-05-28T12:01:51Z</time>
      </trkpt>
      <trkpt lat="45.45849" lon="6.5652">
        <ele>861.4</ele>
        <time>2021-05-28T12:01:52Z</time>
      </trkpt>
      <trkpt lat="45.45851" lon="6.56525">
        <ele>861.4</ele>
        <time>2021-05-28T12:01:53Z</time>
      </trkpt>
      <trkpt lat="45.45853" lon="6.5653">
        <ele>861.4</ele>
        <time>2021-05-28T12:01:54Z</time>
      </trkpt>
      <trkpt lat="45.45855" lon="6.56535">
        <ele>861.6</ele>
        <time>2021-05-28T12:01:55Z</time>
      </trkpt>
      <trkpt lat="45.45858" lon="6.56541">
        <ele>861.8</ele>
        <time>2021-05-28T12:01:56Z</time>
      </trkpt>
      <trkpt lat="45.4586" lon="6.56546">
        <ele>862.2</ele>
        <time>2021-05-28T12:01:57Z</time>
      </trkpt>
      <trkpt lat="45.45862" lon="6.56552">
        <ele>863</ele>
        <time>2021-05-28T12:01:58Z</time>
      </trkpt>
      <trkpt lat="45.45864" lon="6.56558">
        <ele>863.6</ele>
        <time>2021-05-28T12:01:59Z</time>
      </trkpt>
      <trkpt lat="45.45865" lon="6.56563">
        <ele>864.2</ele>
        <time>2021-05-28T12:02:00Z</time>
      </trkpt>
      <trkpt lat="45.45866" lon="6.56569">
        <ele>864.8</ele>
        <time>2021-05-28T12:02:01Z</time>
      </trkpt>
      <trkpt lat="45.45866" lon="6.56575">
        <ele>865.6</ele>
        <time>2021-05-28T12:02:02Z</time>
      </trkpt>
      <trkpt lat="45.45867" lon="6.5658">
        <ele>866</ele>
        <time>2021-05-28T12:02:03Z</time>
      </trkpt>
      <trkpt lat="45.45867" lon="6.56586">
        <ele>866.6</ele>
        <time>2021-05-28T12:02:04Z</time>
      </trkpt>
      <trkpt lat="45.45867" lon="6.56592">
        <ele>867.4</ele>
        <time>2021-05-28T12:02:05Z</time>
      </trkpt>
      <trkpt lat="45.45868" lon="6.56597">
        <ele>867.8</ele>
        <time>2021-05-28T12:02:06Z</time>
      </trkpt>
      <trkpt lat="45.45869" lon="6.56603">
        <ele>868.2</ele>
        <time>2021-05-28T12:02:07Z</time>
      </trkpt>
      <trkpt lat="45.45869" lon="6.56608">
        <ele>868.6</ele>
        <time>2021-05-28T12:02:08Z</time>
      </trkpt>
      <trkpt lat="45.45869" lon="6.56614">
        <ele>869</ele>
        <time>2021-05-28T12:02:09Z</time>
      </trkpt>
      <trkpt lat="45.4587" lon="6.56619">
        <ele>869.2</ele>
        <time>2021-05-28T12:02:10Z</time>
      </trkpt>
      <trkpt lat="45.45871" lon="6.56625">
        <ele>869.4</ele>
        <time>2021-05-28T12:02:11Z</time>
      </trkpt>
      <trkpt lat="45.45871" lon="6.56631">
        <ele>870.6</ele>
        <time>2021-05-28T12:02:12Z</time>
      </trkpt>
      <trkpt lat="45.45871" lon="6.56637">
        <ele>871</ele>
        <time>2021-05-28T12:02:13Z</time>
      </trkpt>
      <trkpt lat="45.45872" lon="6.56642">
        <ele>871.4</ele>
        <time>2021-05-28T12:02:14Z</time>
      </trkpt>
      <trkpt lat="45.45873" lon="6.56648">
        <ele>872</ele>
        <time>2021-05-28T12:02:15Z</time>
      </trkpt>
      <trkpt lat="45.45874" lon="6.56653">
        <ele>872.8</ele>
        <time>2021-05-28T12:02:16Z</time>
      </trkpt>
      <trkpt lat="45.45874" lon="6.56659">
        <ele>873.4</ele>
        <time>2021-05-28T12:02:17Z</time>
      </trkpt>
      <trkpt lat="45.45875" lon="6.56664">
        <ele>874</ele>
        <time>2021-05-28T12:02:18Z</time>
      </trkpt>
      <trkpt lat="45.45876" lon="6.56669">
        <ele>874.8</ele>
        <time>2021-05-28T12:02:19Z</time>
      </trkpt>
      <trkpt lat="45.45876" lon="6.56674">
        <ele>875.8</ele>
        <time>2021-05-28T12:02:20Z</time>
      </trkpt>
      <trkpt lat="45.45877" lon="6.56678">
        <ele>876.6</ele>
        <time>2021-05-28T12:02:21Z</time>
      </trkpt>
      <trkpt lat="45.45878" lon="6.56682">
        <ele>877.6</ele>
        <time>2021-05-28T12:02:22Z</time>
      </trkpt>
      <trkpt lat="45.45879" lon="6.56686">
        <ele>878.4</ele>
        <time>2021-05-28T12:02:23Z</time>
      </trkpt>
      <trkpt lat="45.4588" lon="6.5669">
        <ele>879.2</ele>
        <time>2021-05-28T12:02:24Z</time>
      </trkpt>
      <trkpt lat="45.45881" lon="6.56694">
        <ele>879.8</ele>
        <time>2021-05-28T12:02:25Z</time>
      </trkpt>
      <trkpt lat="45.45883" lon="6.56697">
        <ele>880.4</ele>
        <time>2021-05-28T12:02:26Z</time>
      </trkpt>
      <trkpt lat="45.45883" lon="6.56701">
        <ele>880.8</ele>
        <time>2021-05-28T12:02:27Z</time>
      </trkpt>
      <trkpt lat="45.45884" lon="6.56705">
        <ele>881.4</ele>
        <time>2021-05-28T12:02:28Z</time>
      </trkpt>
      <trkpt lat="45.45886" lon="6.56709">
        <ele>882</ele>
        <time>2021-05-28T12:02:29Z</time>
      </trkpt>
      <trkpt lat="45.45887" lon="6.56712">
        <ele>882.4</ele>
        <time>2021-05-28T12:02:30Z</time>
      </trkpt>
      <trkpt lat="45.45889" lon="6.56715">
        <ele>883</ele>
        <time>2021-05-28T12:02:31Z</time>
      </trkpt>
      <trkpt lat="45.45891" lon="6.56719">
        <ele>883.4</ele>
        <time>2021-05-28T12:02:32Z</time>
      </trkpt>
      <trkpt lat="45.45892" lon="6.56722">
        <ele>884</ele>
        <time>2021-05-28T12:02:33Z</time>
      </trkpt>
      <trkpt lat="45.45893" lon="6.56726">
        <ele>884.6</ele>
        <time>2021-05-28T12:02:34Z</time>
      </trkpt>
      <trkpt lat="45.45895" lon="6.56729">
        <ele>885</ele>
        <time>2021-05-28T12:02:35Z</time>
      </trkpt>
      <trkpt lat="45.45897" lon="6.56732">
        <ele>885.6</ele>
        <time>2021-05-28T12:02:36Z</time>
      </trkpt>
      <trkpt lat="45.45898" lon="6.56735">
        <ele>886</ele>
        <time>2021-05-28T12:02:37Z</time>
      </trkpt>
      <trkpt lat="45.459" lon="6.56738">
        <ele>886.2</ele>
        <time>2021-05-28T12:02:38Z</time>
      </trkpt>
      <trkpt lat="45.45901" lon="6.56741">
        <ele>886.6</ele>
        <time>2021-05-28T12:02:39Z</time>
      </trkpt>
      <trkpt lat="45.45903" lon="6.56744">
        <ele>887.2</ele>
        <time>2021-05-28T12:02:40Z</time>
      </trkpt>
      <trkpt lat="45.45905" lon="6.56747">
        <ele>887.4</ele>
        <time>2021-05-28T12:02:41Z</time>
      </trkpt>
      <trkpt lat="45.45907" lon="6.5675">
        <ele>887.8</ele>
        <time>2021-05-28T12:02:42Z</time>
      </trkpt>
      <trkpt lat="45.45908" lon="6.56753">
        <ele>888.2</ele>
        <time>2021-05-28T12:02:43Z</time>
      </trkpt>
      <trkpt lat="45.45909" lon="6.56757">
        <ele>888.6</ele>
        <time>2021-05-28T12:02:44Z</time>
      </trkpt>
      <trkpt lat="45.45911" lon="6.5676">
        <ele>888.8</ele>
        <time>2021-05-28T12:02:45Z</time>
      </trkpt>
      <trkpt lat="45.45913" lon="6.56763">
        <ele>889.4</ele>
        <time>2021-05-28T12:02:46Z</time>
      </trkpt>
      <trkpt lat="45.45915" lon="6.56766">
        <ele>889.6</ele>
        <time>2021-05-28T12:02:47Z</time>
      </trkpt>
      <trkpt lat="45.45916" lon="6.5677">
        <ele>890</ele>
        <time>2021-05-28T12:02:48Z</time>
      </trkpt>
      <trkpt lat="45.45918" lon="6.56773">
        <ele>890.4</ele>
        <time>2021-05-28T12:02:49Z</time>
      </trkpt>
      <trkpt lat="45.4592" lon="6.56776">
        <ele>891</ele>
        <time>2021-05-28T12:02:50Z</time>
      </trkpt>
      <trkpt lat="45.45922" lon="6.56779">
        <ele>891.4</ele>
        <time>2021-05-28T12:02:51Z</time>
      </trkpt>
      <trkpt lat="45.45924" lon="6.56782">
        <ele>892</ele>
        <time>2021-05-28T12:02:52Z</time>
      </trkpt>
      <trkpt lat="45.45925" lon="6.56785">
        <ele>892.6</ele>
        <time>2021-05-28T12:02:53Z</time>
      </trkpt>
      <trkpt lat="45.45927" lon="6.56788">
        <ele>893</ele>
        <time>2021-05-28T12:02:54Z</time>
      </trkpt>
      <trkpt lat="45.45929" lon="6.56791">
        <ele>893.4</ele>
        <time>2021-05-28T12:02:55Z</time>
      </trkpt>
      <trkpt lat="45.45931" lon="6.56794">
        <ele>893.8</ele>
        <time>2021-05-28T12:02:56Z</time>
      </trkpt>
      <trkpt lat="45.45932" lon="6.56797">
        <ele>894.2</ele>
        <time>2021-05-28T12:02:57Z</time>
      </trkpt>
      <trkpt lat="45.45934" lon="6.56801">
        <ele>894.8</ele>
        <time>2021-05-28T12:02:58Z</time>
      </trkpt>
      <trkpt lat="45.45936" lon="6.56804">
        <ele>895.4</ele>
        <time>2021-05-28T12:02:59Z</time>
      </trkpt>
      <trkpt lat="45.45938" lon="6.56807">
        <ele>895.8</ele>
        <time>2021-05-28T12:03:00Z</time>
      </trkpt>
      <trkpt lat="45.4594" lon="6.5681">
        <ele>896.4</ele>
        <time>2021-05-28T12:03:01Z</time>
      </trkpt>
      <trkpt lat="45.45941" lon="6.56813">
        <ele>896.8</ele>
        <time>2021-05-28T12:03:02Z</time>
      </trkpt>
      <trkpt lat="45.45943" lon="6.56815">
        <ele>897.2</ele>
        <time>2021-05-28T12:03:03Z</time>
      </trkpt>
      <trkpt lat="45.45945" lon="6.56818">
        <ele>897.8</ele>
        <time>2021-05-28T12:03:04Z</time>
      </trkpt>
      <trkpt lat="45.45948" lon="6.56821">
        <ele>898.2</ele>
        <time>2021-05-28T12:03:05Z</time>
      </trkpt>
      <trkpt lat="45.45949" lon="6.56823">
        <ele>898.6</ele>
        <time>2021-05-28T12:03:06Z</time>
      </trkpt>
      <trkpt lat="45.45952" lon="6.56825">
        <ele>899</ele>
        <time>2021-05-28T12:03:07Z</time>
      </trkpt>
      <trkpt lat="45.45954" lon="6.56828">
        <ele>899.4</ele>
        <time>2021-05-28T12:03:08Z</time>
      </trkpt>
      <trkpt lat="45.45956" lon="6.56831">
        <ele>899.8</ele>
        <time>2021-05-28T12:03:09Z</time>
      </trkpt>
      <trkpt lat="45.45958" lon="6.56833">
        <ele>900.2</ele>
        <time>2021-05-28T12:03:10Z</time>
      </trkpt>
      <trkpt lat="45.45961" lon="6.56836">
        <ele>900.4</ele>
        <time>2021-05-28T12:03:11Z</time>
      </trkpt>
      <trkpt lat="45.45963" lon="6.56838">
        <ele>900.6</ele>
        <time>2021-05-28T12:03:12Z</time>
      </trkpt>
      <trkpt lat="45.45965" lon="6.56841">
        <ele>901</ele>
        <time>2021-05-28T12:03:13Z</time>
      </trkpt>
      <trkpt lat="45.45966" lon="6.56845">
        <ele>901.2</ele>
        <time>2021-05-28T12:03:14Z</time>
      </trkpt>
      <trkpt lat="45.45968" lon="6.56848">
        <ele>901.6</ele>
        <time>2021-05-28T12:03:15Z</time>
      </trkpt>
      <trkpt lat="45.45969" lon="6.56852">
        <ele>902</ele>
        <time>2021-05-28T12:03:16Z</time>
      </trkpt>
      <trkpt lat="45.4597" lon="6.56856">
        <ele>902.2</ele>
        <time>2021-05-28T12:03:17Z</time>
      </trkpt>
      <trkpt lat="45.45971" lon="6.5686">
        <ele>902.8</ele>
        <time>2021-05-28T12:03:18Z</time>
      </trkpt>
      <trkpt lat="45.4597" lon="6.56864">
        <ele>903.4</ele>
        <time>2021-05-28T12:03:19Z</time>
      </trkpt>
      <trkpt lat="45.4597" lon="6.56868">
        <ele>903.2</ele>
        <time>2021-05-28T12:03:20Z</time>
      </trkpt>
      <trkpt lat="45.45969" lon="6.56872">
        <ele>902.8</ele>
        <time>2021-05-28T12:03:21Z</time>
      </trkpt>
      <trkpt lat="45.45969" lon="6.56875">
        <ele>902</ele>
        <time>2021-05-28T12:03:22Z</time>
      </trkpt>
      <trkpt lat="45.45969" lon="6.56879">
        <ele>901.2</ele>
        <time>2021-05-28T12:03:23Z</time>
      </trkpt>
      <trkpt lat="45.45969" lon="6.56882">
        <ele>900.6</ele>
        <time>2021-05-28T12:03:24Z</time>
      </trkpt>
      <trkpt lat="45.45971" lon="6.56885">
        <ele>900.2</ele>
        <time>2021-05-28T12:03:25Z</time>
      </trkpt>
      <trkpt lat="45.45972" lon="6.56888">
        <ele>899.6</ele>
        <time>2021-05-28T12:03:26Z</time>
      </trkpt>
      <trkpt lat="45.45973" lon="6.5689">
        <ele>899</ele>
        <time>2021-05-28T12:03:27Z</time>
      </trkpt>
      <trkpt lat="45.45975" lon="6.56893">
        <ele>898.4</ele>
        <time>2021-05-28T12:03:28Z</time>
      </trkpt>
      <trkpt lat="45.45977" lon="6.56895">
        <ele>897.8</ele>
        <time>2021-05-28T12:03:29Z</time>
      </trkpt>
      <trkpt lat="45.45978" lon="6.56898">
        <ele>897.2</ele>
        <time>2021-05-28T12:03:30Z</time>
      </trkpt>
      <trkpt lat="45.4598" lon="6.569">
        <ele>896.6</ele>
        <time>2021-05-28T12:03:31Z</time>
      </trkpt>
      <trkpt lat="45.45981" lon="6.56902">
        <ele>896</ele>
        <time>2021-05-28T12:03:32Z</time>
      </trkpt>
      <trkpt lat="45.45983" lon="6.56904">
        <ele>895.4</ele>
        <time>2021-05-28T12:03:33Z</time>
      </trkpt>
      <trkpt lat="45.45985" lon="6.56907">
        <ele>894.8</ele>
        <time>2021-05-28T12:03:34Z</time>
      </trkpt>
      <trkpt lat="45.45987" lon="6.56908">
        <ele>894.2</ele>
        <time>2021-05-28T12:03:35Z</time>
      </trkpt>
      <trkpt lat="45.4599" lon="6.5691">
        <ele>893.8</ele>
        <time>2021-05-28T12:03:36Z</time>
      </trkpt>
      <trkpt lat="45.45991" lon="6.56912">
        <ele>893.4</ele>
        <time>2021-05-28T12:03:37Z</time>
      </trkpt>
      <trkpt lat="45.45993" lon="6.56914">
        <ele>892.8</ele>
        <time>2021-05-28T12:03:38Z</time>
      </trkpt>
      <trkpt lat="45.45995" lon="6.56916">
        <ele>892.6</ele>
        <time>2021-05-28T12:03:39Z</time>
      </trkpt>
      <trkpt lat="45.45997" lon="6.56919">
        <ele>892.2</ele>
        <time>2021-05-28T12:03:40Z</time>
      </trkpt>
      <trkpt lat="45.45998" lon="6.56921">
        <ele>892</ele>
        <time>2021-05-28T12:03:41Z</time>
      </trkpt>
      <trkpt lat="45.45999" lon="6.56925">
        <ele>891.8</ele>
        <time>2021-05-28T12:03:42Z</time>
      </trkpt>
      <trkpt lat="45.45999" lon="6.5693">
        <ele>891.8</ele>
        <time>2021-05-28T12:03:43Z</time>
      </trkpt>
      <trkpt lat="45.45998" lon="6.56935">
        <ele>891.6</ele>
        <time>2021-05-28T12:03:44Z</time>
      </trkpt>
      <trkpt lat="45.45997" lon="6.5694">
        <ele>891.6</ele>
        <time>2021-05-28T12:03:45Z</time>
      </trkpt>
      <trkpt lat="45.45996" lon="6.56945">
        <ele>891.4</ele>
        <time>2021-05-28T12:03:46Z</time>
      </trkpt>
      <trkpt lat="45.45995" lon="6.56949">
        <ele>891.4</ele>
        <time>2021-05-28T12:03:47Z</time>
      </trkpt>
      <trkpt lat="45.45994" lon="6.56952">
        <ele>891.4</ele>
        <time>2021-05-28T12:03:48Z</time>
      </trkpt>
      <trkpt lat="45.45994" lon="6.56957">
        <ele>891.6</ele>
        <time>2021-05-28T12:03:49Z</time>
      </trkpt>
      <trkpt lat="45.45993" lon="6.56961">
        <ele>891.6</ele>
        <time>2021-05-28T12:03:50Z</time>
      </trkpt>
      <trkpt lat="45.45993" lon="6.56965">
        <ele>891.8</ele>
        <time>2021-05-28T12:03:51Z</time>
      </trkpt>
      <trkpt lat="45.45994" lon="6.56969">
        <ele>892</ele>
        <time>2021-05-28T12:03:52Z</time>
      </trkpt>
      <trkpt lat="45.45996" lon="6.56973">
        <ele>892.8</ele>
        <time>2021-05-28T12:03:53Z</time>
      </trkpt>
      <trkpt lat="45.45998" lon="6.56975">
        <ele>893.6</ele>
        <time>2021-05-28T12:03:54Z</time>
      </trkpt>
      <trkpt lat="45.46001" lon="6.56975">
        <ele>894.2</ele>
        <time>2021-05-28T12:03:55Z</time>
      </trkpt>
      <trkpt lat="45.46003" lon="6.56974">
        <ele>895</ele>
        <time>2021-05-28T12:03:56Z</time>
      </trkpt>
      <trkpt lat="45.46006" lon="6.56972">
        <ele>895.4</ele>
        <time>2021-05-28T12:03:57Z</time>
      </trkpt>
      <trkpt lat="45.46008" lon="6.56969">
        <ele>896</ele>
        <time>2021-05-28T12:03:58Z</time>
      </trkpt>
      <trkpt lat="45.46009" lon="6.56966">
        <ele>896.2</ele>
        <time>2021-05-28T12:03:59Z</time>
      </trkpt>
      <trkpt lat="45.4601" lon="6.56962">
        <ele>896.6</ele>
        <time>2021-05-28T12:04:00Z</time>
      </trkpt>
      <trkpt lat="45.46011" lon="6.56958">
        <ele>896.6</ele>
        <time>2021-05-28T12:04:01Z</time>
      </trkpt>
      <trkpt lat="45.46012" lon="6.56954">
        <ele>897</ele>
        <time>2021-05-28T12:04:02Z</time>
      </trkpt>
      <trkpt lat="45.46013" lon="6.5695">
        <ele>897.2</ele>
        <time>2021-05-28T12:04:03Z</time>
      </trkpt>
      <trkpt lat="45.46014" lon="6.56946">
        <ele>897.6</ele>
        <time>2021-05-28T12:04:04Z</time>
      </trkpt>
      <trkpt lat="45.46015" lon="6.56941">
        <ele>897.8</ele>
        <time>2021-05-28T12:04:05Z</time>
      </trkpt>
      <trkpt lat="45.46016" lon="6.56938">
        <ele>897.8</ele>
        <time>2021-05-28T12:04:06Z</time>
      </trkpt>
      <trkpt lat="45.46017" lon="6.56933">
        <ele>897.6</ele>
        <time>2021-05-28T12:04:07Z</time>
      </trkpt>
      <trkpt lat="45.46018" lon="6.56929">
        <ele>897.6</ele>
        <time>2021-05-28T12:04:08Z</time>
      </trkpt>
      <trkpt lat="45.46018" lon="6.56925">
        <ele>897.2</ele>
        <time>2021-05-28T12:04:09Z</time>
      </trkpt>
      <trkpt lat="45.46017" lon="6.5692">
        <ele>897</ele>
        <time>2021-05-28T12:04:10Z</time>
      </trkpt>
      <trkpt lat="45.46016" lon="6.56916">
        <ele>896.8</ele>
        <time>2021-05-28T12:04:11Z</time>
      </trkpt>
      <trkpt lat="45.46016" lon="6.56912">
        <ele>896.8</ele>
        <time>2021-05-28T12:04:12Z</time>
      </trkpt>
      <trkpt lat="45.46014" lon="6.56907">
        <ele>896.6</ele>
        <time>2021-05-28T12:04:13Z</time>
      </trkpt>
      <trkpt lat="45.46013" lon="6.56903">
        <ele>896.4</ele>
        <time>2021-05-28T12:04:14Z</time>
      </trkpt>
      <trkpt lat="45.46012" lon="6.56899">
        <ele>896.4</ele>
        <time>2021-05-28T12:04:15Z</time>
      </trkpt>
      <trkpt lat="45.4601" lon="6.56896">
        <ele>896.2</ele>
        <time>2021-05-28T12:04:16Z</time>
      </trkpt>
      <trkpt lat="45.46009" lon="6.56892">
        <ele>896.2</ele>
        <time>2021-05-28T12:04:17Z</time>
      </trkpt>
      <trkpt lat="45.46007" lon="6.56889">
        <ele>896</ele>
        <time>2021-05-28T12:04:18Z</time>
      </trkpt>
      <trkpt lat="45.46006" lon="6.56885">
        <ele>895.8</ele>
        <time>2021-05-28T12:04:19Z</time>
      </trkpt>
      <trkpt lat="45.46004" lon="6.56881">
        <ele>895.4</ele>
        <time>2021-05-28T12:04:20Z</time>
      </trkpt>
      <trkpt lat="45.46003" lon="6.56878">
        <ele>895.2</ele>
        <time>2021-05-28T12:04:21Z</time>
      </trkpt>
      <trkpt lat="45.46003" lon="6.56874">
        <ele>895.2</ele>
        <time>2021-05-28T12:04:22Z</time>
      </trkpt>
      <trkpt lat="45.46003" lon="6.5687">
        <ele>895</ele>
        <time>2021-05-28T12:04:23Z</time>
      </trkpt>
      <trkpt lat="45.46003" lon="6.56866">
        <ele>895.2</ele>
        <time>2021-05-28T12:04:24Z</time>
      </trkpt>
      <trkpt lat="45.46003" lon="6.56863">
        <ele>895.2</ele>
        <time>2021-05-28T12:04:25Z</time>
      </trkpt>
      <trkpt lat="45.46004" lon="6.56859">
        <ele>895.2</ele>
        <time>2021-05-28T12:04:26Z</time>
      </trkpt>
      <trkpt lat="45.46004" lon="6.56856">
        <ele>895</ele>
        <time>2021-05-28T12:04:27Z</time>
      </trkpt>
      <trkpt lat="45.46005" lon="6.56853">
        <ele>895.2</ele>
        <time>2021-05-28T12:04:28Z</time>
      </trkpt>
      <trkpt lat="45.46005" lon="6.56849">
        <ele>895.2</ele>
        <time>2021-05-28T12:04:29Z</time>
      </trkpt>
      <trkpt lat="45.46004" lon="6.56845">
        <ele>895.2</ele>
        <time>2021-05-28T12:04:30Z</time>
      </trkpt>
      <trkpt lat="45.46004" lon="6.56841">
        <ele>895.4</ele>
        <time>2021-05-28T12:04:31Z</time>
      </trkpt>
      <trkpt lat="45.46003" lon="6.56838">
        <ele>895.4</ele>
        <time>2021-05-28T12:04:32Z</time>
      </trkpt>
      <trkpt lat="45.46003" lon="6.56834">
        <ele>895.4</ele>
        <time>2021-05-28T12:04:33Z</time>
      </trkpt>
      <trkpt lat="45.46002" lon="6.56829">
        <ele>895.4</ele>
        <time>2021-05-28T12:04:34Z</time>
      </trkpt>
      <trkpt lat="45.46" lon="6.56826">
        <ele>895.4</ele>
        <time>2021-05-28T12:04:35Z</time>
      </trkpt>
      <trkpt lat="45.45998" lon="6.56822">
        <ele>895.4</ele>
        <time>2021-05-28T12:04:36Z</time>
      </trkpt>
      <trkpt lat="45.45996" lon="6.56819">
        <ele>895.6</ele>
        <time>2021-05-28T12:04:37Z</time>
      </trkpt>
      <trkpt lat="45.45995" lon="6.56816">
        <ele>895.6</ele>
        <time>2021-05-28T12:04:38Z</time>
      </trkpt>
      <trkpt lat="45.45993" lon="6.56813">
        <ele>896</ele>
        <time>2021-05-28T12:04:39Z</time>
      </trkpt>
      <trkpt lat="45.45991" lon="6.5681">
        <ele>896.2</ele>
        <time>2021-05-28T12:04:40Z</time>
      </trkpt>
      <trkpt lat="45.45989" lon="6.56807">
        <ele>896.4</ele>
        <time>2021-05-28T12:04:41Z</time>
      </trkpt>
      <trkpt lat="45.45987" lon="6.56804">
        <ele>896.6</ele>
        <time>2021-05-28T12:04:42Z</time>
      </trkpt>
      <trkpt lat="45.45986" lon="6.56801">
        <ele>896.8</ele>
        <time>2021-05-28T12:04:43Z</time>
      </trkpt>
      <trkpt lat="45.45984" lon="6.56798">
        <ele>897</ele>
        <time>2021-05-28T12:04:44Z</time>
      </trkpt>
      <trkpt lat="45.45983" lon="6.56795">
        <ele>897.2</ele>
        <time>2021-05-28T12:04:45Z</time>
      </trkpt>
      <trkpt lat="45.45981" lon="6.56792">
        <ele>897.4</ele>
        <time>2021-05-28T12:04:46Z</time>
      </trkpt>
      <trkpt lat="45.4598" lon="6.56789">
        <ele>897.6</ele>
        <time>2021-05-28T12:04:47Z</time>
      </trkpt>
      <trkpt lat="45.45978" lon="6.56786">
        <ele>897.6</ele>
        <time>2021-05-28T12:04:48Z</time>
      </trkpt>
      <trkpt lat="45.45977" lon="6.56783">
        <ele>897.8</ele>
        <time>2021-05-28T12:04:49Z</time>
      </trkpt>
      <trkpt lat="45.45975" lon="6.5678">
        <ele>897.8</ele>
        <time>2021-05-28T12:04:50Z</time>
      </trkpt>
      <trkpt lat="45.45973" lon="6.56777">
        <ele>898.2</ele>
        <time>2021-05-28T12:04:51Z</time>
      </trkpt>
      <trkpt lat="45.45972" lon="6.56773">
        <ele>898.4</ele>
        <time>2021-05-28T12:04:52Z</time>
      </trkpt>
      <trkpt lat="45.45971" lon="6.56769">
        <ele>898.6</ele>
        <time>2021-05-28T12:04:53Z</time>
      </trkpt>
      <trkpt lat="45.4597" lon="6.56765">
        <ele>899</ele>
        <time>2021-05-28T12:04:54Z</time>
      </trkpt>
      <trkpt lat="45.45969" lon="6.56761">
        <ele>899.4</ele>
        <time>2021-05-28T12:04:55Z</time>
      </trkpt>
      <trkpt lat="45.45967" lon="6.56757">
        <ele>899.6</ele>
        <time>2021-05-28T12:04:56Z</time>
      </trkpt>
      <trkpt lat="45.45966" lon="6.56753">
        <ele>900</ele>
        <time>2021-05-28T12:04:57Z</time>
      </trkpt>
      <trkpt lat="45.45965" lon="6.56749">
        <ele>900.8</ele>
        <time>2021-05-28T12:04:58Z</time>
      </trkpt>
      <trkpt lat="45.45964" lon="6.56745">
        <ele>902.2</ele>
        <time>2021-05-28T12:04:59Z</time>
      </trkpt>
      <trkpt lat="45.45963" lon="6.56741">
        <ele>903.4</ele>
        <time>2021-05-28T12:05:00Z</time>
      </trkpt>
      <trkpt lat="45.45961" lon="6.56737">
        <ele>905</ele>
        <time>2021-05-28T12:05:01Z</time>
      </trkpt>
      <trkpt lat="45.45961" lon="6.56733">
        <ele>906.2</ele>
        <time>2021-05-28T12:05:02Z</time>
      </trkpt>
      <trkpt lat="45.4596" lon="6.56729">
        <ele>907.6</ele>
        <time>2021-05-28T12:05:03Z</time>
      </trkpt>
      <trkpt lat="45.45959" lon="6.56726">
        <ele>909</ele>
        <time>2021-05-28T12:05:04Z</time>
      </trkpt>
      <trkpt lat="45.45958" lon="6.56722">
        <ele>910.2</ele>
        <time>2021-05-28T12:05:05Z</time>
      </trkpt>
      <trkpt lat="45.45957" lon="6.56717">
        <ele>911.2</ele>
        <time>2021-05-28T12:05:06Z</time>
      </trkpt>
      <trkpt lat="45.45956" lon="6.56714">
        <ele>912.4</ele>
        <time>2021-05-28T12:05:07Z</time>
      </trkpt>
      <trkpt lat="45.45955" lon="6.5671">
        <ele>913.4</ele>
        <time>2021-05-28T12:05:08Z</time>
      </trkpt>
      <trkpt lat="45.45954" lon="6.56706">
        <ele>914.4</ele>
        <time>2021-05-28T12:05:09Z</time>
      </trkpt>
      <trkpt lat="45.45953" lon="6.56702">
        <ele>915.4</ele>
        <time>2021-05-28T12:05:10Z</time>
      </trkpt>
      <trkpt lat="45.45951" lon="6.56698">
        <ele>916.4</ele>
        <time>2021-05-28T12:05:11Z</time>
      </trkpt>
      <trkpt lat="45.4595" lon="6.56694">
        <ele>917</ele>
        <time>2021-05-28T12:05:12Z</time>
      </trkpt>
      <trkpt lat="45.45949" lon="6.5669">
        <ele>917.8</ele>
        <time>2021-05-28T12:05:13Z</time>
      </trkpt>
      <trkpt lat="45.45948" lon="6.56686">
        <ele>918.6</ele>
        <time>2021-05-28T12:05:14Z</time>
      </trkpt>
      <trkpt lat="45.45947" lon="6.56683">
        <ele>919.4</ele>
        <time>2021-05-28T12:05:15Z</time>
      </trkpt>
      <trkpt lat="45.45946" lon="6.56679">
        <ele>920</ele>
        <time>2021-05-28T12:05:16Z</time>
      </trkpt>
      <trkpt lat="45.45945" lon="6.56675">
        <ele>920.6</ele>
        <time>2021-05-28T12:05:17Z</time>
      </trkpt>
      <trkpt lat="45.45944" lon="6.56671">
        <ele>921</ele>
        <time>2021-05-28T12:05:18Z</time>
      </trkpt>
      <trkpt lat="45.45942" lon="6.56667">
        <ele>921.6</ele>
        <time>2021-05-28T12:05:19Z</time>
      </trkpt>
      <trkpt lat="45.45941" lon="6.56664">
        <ele>922.4</ele>
        <time>2021-05-28T12:05:20Z</time>
      </trkpt>
      <trkpt lat="45.4594" lon="6.5666">
        <ele>923</ele>
        <time>2021-05-28T12:05:21Z</time>
      </trkpt>
      <trkpt lat="45.45939" lon="6.56656">
        <ele>923.6</ele>
        <time>2021-05-28T12:05:22Z</time>
      </trkpt>
      <trkpt lat="45.45938" lon="6.56652">
        <ele>924.2</ele>
        <time>2021-05-28T12:05:23Z</time>
      </trkpt>
      <trkpt lat="45.45937" lon="6.56648">
        <ele>924.6</ele>
        <time>2021-05-28T12:05:24Z</time>
      </trkpt>
      <trkpt lat="45.45936" lon="6.56644">
        <ele>925.2</ele>
        <time>2021-05-28T12:05:25Z</time>
      </trkpt>
      <trkpt lat="45.45935" lon="6.56641">
        <ele>925.6</ele>
        <time>2021-05-28T12:05:26Z</time>
      </trkpt>
      <trkpt lat="45.45934" lon="6.56637">
        <ele>926.2</ele>
        <time>2021-05-28T12:05:27Z</time>
      </trkpt>
      <trkpt lat="45.45933" lon="6.56633">
        <ele>926.6</ele>
        <time>2021-05-28T12:05:28Z</time>
      </trkpt>
      <trkpt lat="45.45932" lon="6.56629">
        <ele>927</ele>
        <time>2021-05-28T12:05:29Z</time>
      </trkpt>
      <trkpt lat="45.45931" lon="6.56625">
        <ele>927.4</ele>
        <time>2021-05-28T12:05:30Z</time>
      </trkpt>
      <trkpt lat="45.45931" lon="6.56621">
        <ele>928</ele>
        <time>2021-05-28T12:05:31Z</time>
      </trkpt>
      <trkpt lat="45.4593" lon="6.56617">
        <ele>928.6</ele>
        <time>2021-05-28T12:05:32Z</time>
      </trkpt>
      <trkpt lat="45.45929" lon="6.56613">
        <ele>929.2</ele>
        <time>2021-05-28T12:05:33Z</time>
      </trkpt>
      <trkpt lat="45.4593" lon="6.5661">
        <ele>929.8</ele>
        <time>2021-05-28T12:05:34Z</time>
      </trkpt>
      <trkpt lat="45.45931" lon="6.56606">
        <ele>930.6</ele>
        <time>2021-05-28T12:05:35Z</time>
      </trkpt>
      <trkpt lat="45.45932" lon="6.56603">
        <ele>931.2</ele>
        <time>2021-05-28T12:05:36Z</time>
      </trkpt>
      <trkpt lat="45.45932" lon="6.56599">
        <ele>931.8</ele>
        <time>2021-05-28T12:05:37Z</time>
      </trkpt>
      <trkpt lat="45.45933" lon="6.56595">
        <ele>932.4</ele>
        <time>2021-05-28T12:05:38Z</time>
      </trkpt>
      <trkpt lat="45.45934" lon="6.56591">
        <ele>933.2</ele>
        <time>2021-05-28T12:05:39Z</time>
      </trkpt>
      <trkpt lat="45.45935" lon="6.56588">
        <ele>933.6</ele>
        <time>2021-05-28T12:05:40Z</time>
      </trkpt>
      <trkpt lat="45.45937" lon="6.56585">
        <ele>934.4</ele>
        <time>2021-05-28T12:05:41Z</time>
      </trkpt>
      <trkpt lat="45.45939" lon="6.56582">
        <ele>935</ele>
        <time>2021-05-28T12:05:42Z</time>
      </trkpt>
      <trkpt lat="45.4594" lon="6.56579">
        <ele>935.8</ele>
        <time>2021-05-28T12:05:43Z</time>
      </trkpt>
      <trkpt lat="45.45943" lon="6.56576">
        <ele>936.4</ele>
        <time>2021-05-28T12:05:44Z</time>
      </trkpt>
      <trkpt lat="45.45945" lon="6.56574">
        <ele>937.2</ele>
        <time>2021-05-28T12:05:45Z</time>
      </trkpt>
      <trkpt lat="45.45947" lon="6.56571">
        <ele>937.8</ele>
        <time>2021-05-28T12:05:46Z</time>
      </trkpt>
      <trkpt lat="45.45949" lon="6.56568">
        <ele>938</ele>
        <time>2021-05-28T12:05:47Z</time>
      </trkpt>
      <trkpt lat="45.45951" lon="6.56565">
        <ele>938.4</ele>
        <time>2021-05-28T12:05:48Z</time>
      </trkpt>
      <trkpt lat="45.45953" lon="6.56563">
        <ele>938.8</ele>
        <time>2021-05-28T12:05:49Z</time>
      </trkpt>
      <trkpt lat="45.45956" lon="6.56561">
        <ele>939</ele>
        <time>2021-05-28T12:05:50Z</time>
      </trkpt>
      <trkpt lat="45.45958" lon="6.56558">
        <ele>939.4</ele>
        <time>2021-05-28T12:05:51Z</time>
      </trkpt>
      <trkpt lat="45.45961" lon="6.56556">
        <ele>940.2</ele>
        <time>2021-05-28T12:05:52Z</time>
      </trkpt>
      <trkpt lat="45.45964" lon="6.56553">
        <ele>940.8</ele>
        <time>2021-05-28T12:05:53Z</time>
      </trkpt>
      <trkpt lat="45.45966" lon="6.56551">
        <ele>941</ele>
        <time>2021-05-28T12:05:54Z</time>
      </trkpt>
      <trkpt lat="45.45968" lon="6.56548">
        <ele>941.4</ele>
        <time>2021-05-28T12:05:55Z</time>
      </trkpt>
      <trkpt lat="45.45971" lon="6.56546">
        <ele>941.6</ele>
        <time>2021-05-28T12:05:56Z</time>
      </trkpt>
      <trkpt lat="45.45973" lon="6.56543">
        <ele>942.2</ele>
        <time>2021-05-28T12:05:57Z</time>
      </trkpt>
      <trkpt lat="45.45975" lon="6.56541">
        <ele>942.6</ele>
        <time>2021-05-28T12:05:58Z</time>
      </trkpt>
      <trkpt lat="45.45978" lon="6.56539">
        <ele>942.6</ele>
        <time>2021-05-28T12:05:59Z</time>
      </trkpt>
      <trkpt lat="45.45981" lon="6.56537">
        <ele>943</ele>
        <time>2021-05-28T12:06:00Z</time>
      </trkpt>
      <trkpt lat="45.45983" lon="6.56535">
        <ele>943.2</ele>
        <time>2021-05-28T12:06:01Z</time>
      </trkpt>
      <trkpt lat="45.45986" lon="6.56534">
        <ele>943.6</ele>
        <time>2021-05-28T12:06:02Z</time>
      </trkpt>
      <trkpt lat="45.45988" lon="6.56532">
        <ele>944</ele>
        <time>2021-05-28T12:06:03Z</time>
      </trkpt>
      <trkpt lat="45.4599" lon="6.5653">
        <ele>944.2</ele>
        <time>2021-05-28T12:06:04Z</time>
      </trkpt>
      <trkpt lat="45.45993" lon="6.56527">
        <ele>944.4</ele>
        <time>2021-05-28T12:06:05Z</time>
      </trkpt>
      <trkpt lat="45.45995" lon="6.56525">
        <ele>944.4</ele>
        <time>2021-05-28T12:06:06Z</time>
      </trkpt>
      <trkpt lat="45.45997" lon="6.56523">
        <ele>944.4</ele>
        <time>2021-05-28T12:06:07Z</time>
      </trkpt>
      <trkpt lat="45.46" lon="6.56521">
        <ele>944.4</ele>
        <time>2021-05-28T12:06:08Z</time>
      </trkpt>
      <trkpt lat="45.46002" lon="6.56519">
        <ele>944.6</ele>
        <time>2021-05-28T12:06:09Z</time>
      </trkpt>
      <trkpt lat="45.46004" lon="6.56516">
        <ele>944.4</ele>
        <time>2021-05-28T12:06:10Z</time>
      </trkpt>
      <trkpt lat="45.46006" lon="6.56513">
        <ele>944.2</ele>
        <time>2021-05-28T12:06:11Z</time>
      </trkpt>
      <trkpt lat="45.46008" lon="6.5651">
        <ele>944.2</ele>
        <time>2021-05-28T12:06:12Z</time>
      </trkpt>
      <trkpt lat="45.46011" lon="6.56508">
        <ele>944.2</ele>
        <time>2021-05-28T12:06:13Z</time>
      </trkpt>
      <trkpt lat="45.46013" lon="6.56508">
        <ele>944.6</ele>
        <time>2021-05-28T12:06:14Z</time>
      </trkpt>
      <trkpt lat="45.46016" lon="6.56508">
        <ele>945</ele>
        <time>2021-05-28T12:06:15Z</time>
      </trkpt>
      <trkpt lat="45.46019" lon="6.56509">
        <ele>945.2</ele>
        <time>2021-05-28T12:06:16Z</time>
      </trkpt>
      <trkpt lat="45.4602" lon="6.56512">
        <ele>945.6</ele>
        <time>2021-05-28T12:06:17Z</time>
      </trkpt>
      <trkpt lat="45.46022" lon="6.56516">
        <ele>946</ele>
        <time>2021-05-28T12:06:18Z</time>
      </trkpt>
      <trkpt lat="45.46022" lon="6.5652">
        <ele>946</ele>
        <time>2021-05-28T12:06:19Z</time>
      </trkpt>
      <trkpt lat="45.4602" lon="6.56524">
        <ele>946</ele>
        <time>2021-05-28T12:06:20Z</time>
      </trkpt>
      <trkpt lat="45.46018" lon="6.56527">
        <ele>945.8</ele>
        <time>2021-05-28T12:06:21Z</time>
      </trkpt>
      <trkpt lat="45.46015" lon="6.56529">
        <ele>945.6</ele>
        <time>2021-05-28T12:06:22Z</time>
      </trkpt>
      <trkpt lat="45.46012" lon="6.5653">
        <ele>945.2</ele>
        <time>2021-05-28T12:06:23Z</time>
      </trkpt>
      <trkpt lat="45.46009" lon="6.56532">
        <ele>945.2</ele>
        <time>2021-05-28T12:06:24Z</time>
      </trkpt>
      <trkpt lat="45.46004" lon="6.56534">
        <ele>944.8</ele>
        <time>2021-05-28T12:06:25Z</time>
      </trkpt>
      <trkpt lat="45.46001" lon="6.56536">
        <ele>944.2</ele>
        <time>2021-05-28T12:06:26Z</time>
      </trkpt>
      <trkpt lat="45.45998" lon="6.56538">
        <ele>943.6</ele>
        <time>2021-05-28T12:06:27Z</time>
      </trkpt>
      <trkpt lat="45.45995" lon="6.5654">
        <ele>943</ele>
        <time>2021-05-28T12:06:28Z</time>
      </trkpt>
      <trkpt lat="45.45993" lon="6.56542">
        <ele>942.4</ele>
        <time>2021-05-28T12:06:29Z</time>
      </trkpt>
      <trkpt lat="45.4599" lon="6.56544">
        <ele>942</ele>
        <time>2021-05-28T12:06:30Z</time>
      </trkpt>
      <trkpt lat="45.45987" lon="6.56546">
        <ele>941.6</ele>
        <time>2021-05-28T12:06:31Z</time>
      </trkpt>
      <trkpt lat="45.45985" lon="6.56549">
        <ele>941</ele>
        <time>2021-05-28T12:06:32Z</time>
      </trkpt>
      <trkpt lat="45.45983" lon="6.56552">
        <ele>940.6</ele>
        <time>2021-05-28T12:06:33Z</time>
      </trkpt>
      <trkpt lat="45.4598" lon="6.56554">
        <ele>940.2</ele>
        <time>2021-05-28T12:06:34Z</time>
      </trkpt>
      <trkpt lat="45.45977" lon="6.56556">
        <ele>939.8</ele>
        <time>2021-05-28T12:06:35Z</time>
      </trkpt>
      <trkpt lat="45.45975" lon="6.56558">
        <ele>939.4</ele>
        <time>2021-05-28T12:06:36Z</time>
      </trkpt>
      <trkpt lat="45.45972" lon="6.56561">
        <ele>939.2</ele>
        <time>2021-05-28T12:06:37Z</time>
      </trkpt>
      <trkpt lat="45.45971" lon="6.56565">
        <ele>939.2</ele>
        <time>2021-05-28T12:06:38Z</time>
      </trkpt>
      <trkpt lat="45.45968" lon="6.56568">
        <ele>939.2</ele>
        <time>2021-05-28T12:06:39Z</time>
      </trkpt>
      <trkpt lat="45.45965" lon="6.56571">
        <ele>939</ele>
        <time>2021-05-28T12:06:40Z</time>
      </trkpt>
      <trkpt lat="45.45963" lon="6.56574">
        <ele>939</ele>
        <time>2021-05-28T12:06:41Z</time>
      </trkpt>
      <trkpt lat="45.4596" lon="6.56577">
        <ele>938.6</ele>
        <time>2021-05-28T12:06:42Z</time>
      </trkpt>
      <trkpt lat="45.45958" lon="6.5658">
        <ele>938.8</ele>
        <time>2021-05-28T12:06:43Z</time>
      </trkpt>
      <trkpt lat="45.45957" lon="6.56583">
        <ele>938.6</ele>
        <time>2021-05-28T12:06:44Z</time>
      </trkpt>
      <trkpt lat="45.45956" lon="6.56587">
        <ele>938.6</ele>
        <time>2021-05-28T12:06:45Z</time>
      </trkpt>
      <trkpt lat="45.45955" lon="6.56591">
        <ele>938.4</ele>
        <time>2021-05-28T12:06:46Z</time>
      </trkpt>
      <trkpt lat="45.45955" lon="6.56595">
        <ele>938.4</ele>
        <time>2021-05-28T12:06:47Z</time>
      </trkpt>
      <trkpt lat="45.45955" lon="6.56599">
        <ele>938.2</ele>
        <time>2021-05-28T12:06:48Z</time>
      </trkpt>
      <trkpt lat="45.45954" lon="6.56603">
        <ele>938.2</ele>
        <time>2021-05-28T12:06:49Z</time>
      </trkpt>
      <trkpt lat="45.45954" lon="6.56608">
        <ele>938</ele>
        <time>2021-05-28T12:06:50Z</time>
      </trkpt>
      <trkpt lat="45.45954" lon="6.56612">
        <ele>938.2</ele>
        <time>2021-05-28T12:06:51Z</time>
      </trkpt>
      <trkpt lat="45.45955" lon="6.56617">
        <ele>938</ele>
        <time>2021-05-28T12:06:52Z</time>
      </trkpt>
      <trkpt lat="45.45955" lon="6.56621">
        <ele>938</ele>
        <time>2021-05-28T12:06:53Z</time>
      </trkpt>
      <trkpt lat="45.45956" lon="6.56626">
        <ele>937.8</ele>
        <time>2021-05-28T12:06:54Z</time>
      </trkpt>
      <trkpt lat="45.45956" lon="6.5663">
        <ele>937.8</ele>
        <time>2021-05-28T12:06:55Z</time>
      </trkpt>
      <trkpt lat="45.45958" lon="6.56634">
        <ele>937.8</ele>
        <time>2021-05-28T12:06:56Z</time>
      </trkpt>
      <trkpt lat="45.45959" lon="6.56637">
        <ele>937.4</ele>
        <time>2021-05-28T12:06:57Z</time>
      </trkpt>
      <trkpt lat="45.45961" lon="6.56641">
        <ele>937.8</ele>
        <time>2021-05-28T12:06:58Z</time>
      </trkpt>
      <trkpt lat="45.45962" lon="6.56645">
        <ele>938.2</ele>
        <time>2021-05-28T12:06:59Z</time>
      </trkpt>
      <trkpt lat="45.45963" lon="6.56649">
        <ele>938.8</ele>
        <time>2021-05-28T12:07:00Z</time>
      </trkpt>
      <trkpt lat="45.45965" lon="6.56653">
        <ele>939.2</ele>
        <time>2021-05-28T12:07:01Z</time>
      </trkpt>
      <trkpt lat="45.45967" lon="6.56656">
        <ele>939.6</ele>
        <time>2021-05-28T12:07:02Z</time>
      </trkpt>
      <trkpt lat="45.45969" lon="6.5666">
        <ele>939.8</ele>
        <time>2021-05-28T12:07:03Z</time>
      </trkpt>
      <trkpt lat="45.4597" lon="6.56664">
        <ele>940</ele>
        <time>2021-05-28T12:07:04Z</time>
      </trkpt>
      <trkpt lat="45.45972" lon="6.56667">
        <ele>940.4</ele>
        <time>2021-05-28T12:07:05Z</time>
      </trkpt>
      <trkpt lat="45.45973" lon="6.5667">
        <ele>940.8</ele>
        <time>2021-05-28T12:07:06Z</time>
      </trkpt>
      <trkpt lat="45.45975" lon="6.56674">
        <ele>941</ele>
        <time>2021-05-28T12:07:07Z</time>
      </trkpt>
      <trkpt lat="45.45977" lon="6.56677">
        <ele>941.2</ele>
        <time>2021-05-28T12:07:08Z</time>
      </trkpt>
      <trkpt lat="45.45979" lon="6.5668">
        <ele>942</ele>
        <time>2021-05-28T12:07:09Z</time>
      </trkpt>
      <trkpt lat="45.45981" lon="6.56684">
        <ele>942.8</ele>
        <time>2021-05-28T12:07:10Z</time>
      </trkpt>
      <trkpt lat="45.45983" lon="6.56687">
        <ele>944.2</ele>
        <time>2021-05-28T12:07:11Z</time>
      </trkpt>
      <trkpt lat="45.45985" lon="6.5669">
        <ele>945.2</ele>
        <time>2021-05-28T12:07:12Z</time>
      </trkpt>
      <trkpt lat="45.45987" lon="6.56694">
        <ele>946.4</ele>
        <time>2021-05-28T12:07:13Z</time>
      </trkpt>
      <trkpt lat="45.45989" lon="6.56697">
        <ele>947.4</ele>
        <time>2021-05-28T12:07:14Z</time>
      </trkpt>
      <trkpt lat="45.45991" lon="6.56701">
        <ele>948.6</ele>
        <time>2021-05-28T12:07:15Z</time>
      </trkpt>
      <trkpt lat="45.45993" lon="6.56704">
        <ele>949.6</ele>
        <time>2021-05-28T12:07:16Z</time>
      </trkpt>
      <trkpt lat="45.45995" lon="6.56707">
        <ele>950.8</ele>
        <time>2021-05-28T12:07:17Z</time>
      </trkpt>
      <trkpt lat="45.45998" lon="6.56711">
        <ele>951.8</ele>
        <time>2021-05-28T12:07:18Z</time>
      </trkpt>
      <trkpt lat="45.46" lon="6.56714">
        <ele>952.8</ele>
        <time>2021-05-28T12:07:19Z</time>
      </trkpt>
      <trkpt lat="45.46002" lon="6.56717">
        <ele>953.8</ele>
        <time>2021-05-28T12:07:20Z</time>
      </trkpt>
      <trkpt lat="45.46004" lon="6.56721">
        <ele>954.4</ele>
        <time>2021-05-28T12:07:21Z</time>
      </trkpt>
      <trkpt lat="45.46006" lon="6.56724">
        <ele>955.2</ele>
        <time>2021-05-28T12:07:22Z</time>
      </trkpt>
      <trkpt lat="45.46008" lon="6.56728">
        <ele>955.6</ele>
        <time>2021-05-28T12:07:23Z</time>
      </trkpt>
      <trkpt lat="45.4601" lon="6.56731">
        <ele>956.6</ele>
        <time>2021-05-28T12:07:24Z</time>
      </trkpt>
      <trkpt lat="45.46013" lon="6.56735">
        <ele>957.2</ele>
        <time>2021-05-28T12:07:25Z</time>
      </trkpt>
      <trkpt lat="45.46015" lon="6.56738">
        <ele>957.8</ele>
        <time>2021-05-28T12:07:26Z</time>
      </trkpt>
      <trkpt lat="45.46018" lon="6.56741">
        <ele>958.6</ele>
        <time>2021-05-28T12:07:27Z</time>
      </trkpt>
      <trkpt lat="45.4602" lon="6.56744">
        <ele>959.2</ele>
        <time>2021-05-28T12:07:28Z</time>
      </trkpt>
      <trkpt lat="45.46022" lon="6.56748">
        <ele>959.8</ele>
        <time>2021-05-28T12:07:29Z</time>
      </trkpt>
      <trkpt lat="45.46024" lon="6.56751">
        <ele>960.2</ele>
        <time>2021-05-28T12:07:30Z</time>
      </trkpt>
      <trkpt lat="45.46026" lon="6.56754">
        <ele>960.8</ele>
        <time>2021-05-28T12:07:31Z</time>
      </trkpt>
      <trkpt lat="45.46028" lon="6.56757">
        <ele>961.4</ele>
        <time>2021-05-28T12:07:32Z</time>
      </trkpt>
      <trkpt lat="45.4603" lon="6.56761">
        <ele>962</ele>
        <time>2021-05-28T12:07:33Z</time>
      </trkpt>
      <trkpt lat="45.46032" lon="6.56764">
        <ele>962.4</ele>
        <time>2021-05-28T12:07:34Z</time>
      </trkpt>
      <trkpt lat="45.46035" lon="6.56767">
        <ele>963</ele>
        <time>2021-05-28T12:07:35Z</time>
      </trkpt>
      <trkpt lat="45.46036" lon="6.5677">
        <ele>963.6</ele>
        <time>2021-05-28T12:07:36Z</time>
      </trkpt>
      <trkpt lat="45.4604" lon="6.56773">
        <ele>964</ele>
        <time>2021-05-28T12:07:37Z</time>
      </trkpt>
      <trkpt lat="45.46042" lon="6.56776">
        <ele>964.6</ele>
        <time>2021-05-28T12:07:38Z</time>
      </trkpt>
      <trkpt lat="45.46044" lon="6.56779">
        <ele>964.8</ele>
        <time>2021-05-28T12:07:39Z</time>
      </trkpt>
      <trkpt lat="45.46047" lon="6.56782">
        <ele>965.2</ele>
        <time>2021-05-28T12:07:40Z</time>
      </trkpt>
      <trkpt lat="45.4605" lon="6.56785">
        <ele>965.6</ele>
        <time>2021-05-28T12:07:41Z</time>
      </trkpt>
      <trkpt lat="45.46052" lon="6.56787">
        <ele>966</ele>
        <time>2021-05-28T12:07:42Z</time>
      </trkpt>
      <trkpt lat="45.46054" lon="6.5679">
        <ele>966.4</ele>
        <time>2021-05-28T12:07:43Z</time>
      </trkpt>
      <trkpt lat="45.46056" lon="6.56792">
        <ele>967</ele>
        <time>2021-05-28T12:07:44Z</time>
      </trkpt>
      <trkpt lat="45.46059" lon="6.56795">
        <ele>967.4</ele>
        <time>2021-05-28T12:07:45Z</time>
      </trkpt>
      <trkpt lat="45.46061" lon="6.56798">
        <ele>967.8</ele>
        <time>2021-05-28T12:07:46Z</time>
      </trkpt>
      <trkpt lat="45.46064" lon="6.56801">
        <ele>968.2</ele>
        <time>2021-05-28T12:07:47Z</time>
      </trkpt>
      <trkpt lat="45.46067" lon="6.56804">
        <ele>968.6</ele>
        <time>2021-05-28T12:07:48Z</time>
      </trkpt>
      <trkpt lat="45.46069" lon="6.56807">
        <ele>969</ele>
        <time>2021-05-28T12:07:49Z</time>
      </trkpt>
      <trkpt lat="45.46072" lon="6.5681">
        <ele>969.2</ele>
        <time>2021-05-28T12:07:50Z</time>
      </trkpt>
      <trkpt lat="45.46074" lon="6.56813">
        <ele>969.4</ele>
        <time>2021-05-28T12:07:51Z</time>
      </trkpt>
      <trkpt lat="45.46076" lon="6.56817">
        <ele>969.6</ele>
        <time>2021-05-28T12:07:52Z</time>
      </trkpt>
      <trkpt lat="45.46078" lon="6.56821">
        <ele>969.4</ele>
        <time>2021-05-28T12:07:53Z</time>
      </trkpt>
      <trkpt lat="45.4608" lon="6.56825">
        <ele>969.2</ele>
        <time>2021-05-28T12:07:54Z</time>
      </trkpt>
      <trkpt lat="45.46083" lon="6.56829">
        <ele>969.2</ele>
        <time>2021-05-28T12:07:55Z</time>
      </trkpt>
      <trkpt lat="45.46084" lon="6.56833">
        <ele>969.4</ele>
        <time>2021-05-28T12:07:56Z</time>
      </trkpt>
      <trkpt lat="45.46086" lon="6.56837">
        <ele>969.8</ele>
        <time>2021-05-28T12:07:57Z</time>
      </trkpt>
      <trkpt lat="45.46088" lon="6.56841">
        <ele>970.4</ele>
        <time>2021-05-28T12:07:58Z</time>
      </trkpt>
      <trkpt lat="45.46091" lon="6.56845">
        <ele>971</ele>
        <time>2021-05-28T12:07:59Z</time>
      </trkpt>
      <trkpt lat="45.46092" lon="6.56849">
        <ele>971.4</ele>
        <time>2021-05-28T12:08:00Z</time>
      </trkpt>
      <trkpt lat="45.46095" lon="6.56852">
        <ele>971.6</ele>
        <time>2021-05-28T12:08:01Z</time>
      </trkpt>
      <trkpt lat="45.46097" lon="6.56856">
        <ele>972.2</ele>
        <time>2021-05-28T12:08:02Z</time>
      </trkpt>
      <trkpt lat="45.46099" lon="6.56859">
        <ele>972.6</ele>
        <time>2021-05-28T12:08:03Z</time>
      </trkpt>
      <trkpt lat="45.46101" lon="6.56863">
        <ele>973</ele>
        <time>2021-05-28T12:08:04Z</time>
      </trkpt>
      <trkpt lat="45.46103" lon="6.56867">
        <ele>973.4</ele>
        <time>2021-05-28T12:08:05Z</time>
      </trkpt>
      <trkpt lat="45.46105" lon="6.56871">
        <ele>974</ele>
        <time>2021-05-28T12:08:06Z</time>
      </trkpt>
      <trkpt lat="45.46108" lon="6.56875">
        <ele>974.4</ele>
        <time>2021-05-28T12:08:07Z</time>
      </trkpt>
      <trkpt lat="45.46109" lon="6.56878">
        <ele>975</ele>
        <time>2021-05-28T12:08:08Z</time>
      </trkpt>
      <trkpt lat="45.46112" lon="6.56882">
        <ele>975.6</ele>
        <time>2021-05-28T12:08:09Z</time>
      </trkpt>
      <trkpt lat="45.46114" lon="6.56885">
        <ele>975.8</ele>
        <time>2021-05-28T12:08:10Z</time>
      </trkpt>
      <trkpt lat="45.46116" lon="6.56889">
        <ele>976.2</ele>
        <time>2021-05-28T12:08:11Z</time>
      </trkpt>
      <trkpt lat="45.46118" lon="6.56893">
        <ele>976.6</ele>
        <time>2021-05-28T12:08:12Z</time>
      </trkpt>
      <trkpt lat="45.46119" lon="6.56897">
        <ele>977</ele>
        <time>2021-05-28T12:08:13Z</time>
      </trkpt>
      <trkpt lat="45.4612" lon="6.56902">
        <ele>977.4</ele>
        <time>2021-05-28T12:08:14Z</time>
      </trkpt>
      <trkpt lat="45.4612" lon="6.56906">
        <ele>977.8</ele>
        <time>2021-05-28T12:08:15Z</time>
      </trkpt>
      <trkpt lat="45.4612" lon="6.56911">
        <ele>978</ele>
        <time>2021-05-28T12:08:16Z</time>
      </trkpt>
      <trkpt lat="45.46121" lon="6.56915">
        <ele>978.4</ele>
        <time>2021-05-28T12:08:17Z</time>
      </trkpt>
      <trkpt lat="45.46122" lon="6.56919">
        <ele>978.8</ele>
        <time>2021-05-28T12:08:18Z</time>
      </trkpt>
      <trkpt lat="45.46124" lon="6.56924">
        <ele>979</ele>
        <time>2021-05-28T12:08:19Z</time>
      </trkpt>
      <trkpt lat="45.46124" lon="6.56928">
        <ele>979.2</ele>
        <time>2021-05-28T12:08:20Z</time>
      </trkpt>
      <trkpt lat="45.46126" lon="6.56932">
        <ele>979.8</ele>
        <time>2021-05-28T12:08:21Z</time>
      </trkpt>
      <trkpt lat="45.46128" lon="6.56936">
        <ele>980.2</ele>
        <time>2021-05-28T12:08:22Z</time>
      </trkpt>
      <trkpt lat="45.4613" lon="6.5694">
        <ele>980.8</ele>
        <time>2021-05-28T12:08:23Z</time>
      </trkpt>
      <trkpt lat="45.46131" lon="6.56943">
        <ele>981.2</ele>
        <time>2021-05-28T12:08:24Z</time>
      </trkpt>
      <trkpt lat="45.46133" lon="6.56946">
        <ele>981.4</ele>
        <time>2021-05-28T12:08:25Z</time>
      </trkpt>
      <trkpt lat="45.46136" lon="6.56948">
        <ele>981.6</ele>
        <time>2021-05-28T12:08:26Z</time>
      </trkpt>
      <trkpt lat="45.46139" lon="6.5695">
        <ele>981.8</ele>
        <time>2021-05-28T12:08:27Z</time>
      </trkpt>
      <trkpt lat="45.46142" lon="6.56952">
        <ele>982.2</ele>
        <time>2021-05-28T12:08:28Z</time>
      </trkpt>
      <trkpt lat="45.46145" lon="6.56952">
        <ele>982.2</ele>
        <time>2021-05-28T12:08:29Z</time>
      </trkpt>
      <trkpt lat="45.46148" lon="6.56953">
        <ele>982.2</ele>
        <time>2021-05-28T12:08:30Z</time>
      </trkpt>
      <trkpt lat="45.46151" lon="6.56952">
        <ele>982.8</ele>
        <time>2021-05-28T12:08:31Z</time>
      </trkpt>
      <trkpt lat="45.46155" lon="6.56952">
        <ele>983.2</ele>
        <time>2021-05-28T12:08:32Z</time>
      </trkpt>
      <trkpt lat="45.46157" lon="6.56951">
        <ele>983.6</ele>
        <time>2021-05-28T12:08:33Z</time>
      </trkpt>
      <trkpt lat="45.46161" lon="6.5695">
        <ele>983.8</ele>
        <time>2021-05-28T12:08:34Z</time>
      </trkpt>
      <trkpt lat="45.46163" lon="6.5695">
        <ele>984.2</ele>
        <time>2021-05-28T12:08:35Z</time>
      </trkpt>
      <trkpt lat="45.46166" lon="6.56949">
        <ele>984.4</ele>
        <time>2021-05-28T12:08:36Z</time>
      </trkpt>
      <trkpt lat="45.46169" lon="6.56948">
        <ele>984.8</ele>
        <time>2021-05-28T12:08:37Z</time>
      </trkpt>
      <trkpt lat="45.46172" lon="6.56948">
        <ele>984.8</ele>
        <time>2021-05-28T12:08:38Z</time>
      </trkpt>
      <trkpt lat="45.46175" lon="6.56948">
        <ele>985</ele>
        <time>2021-05-28T12:08:39Z</time>
      </trkpt>
      <trkpt lat="45.46179" lon="6.56948">
        <ele>985.4</ele>
        <time>2021-05-28T12:08:40Z</time>
      </trkpt>
      <trkpt lat="45.46181" lon="6.56949">
        <ele>985.8</ele>
        <time>2021-05-28T12:08:41Z</time>
      </trkpt>
      <trkpt lat="45.46184" lon="6.5695">
        <ele>986</ele>
        <time>2021-05-28T12:08:42Z</time>
      </trkpt>
      <trkpt lat="45.46187" lon="6.56952">
        <ele>986.4</ele>
        <time>2021-05-28T12:08:43Z</time>
      </trkpt>
      <trkpt lat="45.46189" lon="6.56955">
        <ele>986.4</ele>
        <time>2021-05-28T12:08:44Z</time>
      </trkpt>
      <trkpt lat="45.46191" lon="6.56959">
        <ele>986.8</ele>
        <time>2021-05-28T12:08:45Z</time>
      </trkpt>
      <trkpt lat="45.46192" lon="6.56962">
        <ele>987</ele>
        <time>2021-05-28T12:08:46Z</time>
      </trkpt>
      <trkpt lat="45.46193" lon="6.56967">
        <ele>987.2</ele>
        <time>2021-05-28T12:08:47Z</time>
      </trkpt>
      <trkpt lat="45.46194" lon="6.56971">
        <ele>987.6</ele>
        <time>2021-05-28T12:08:48Z</time>
      </trkpt>
      <trkpt lat="45.46195" lon="6.56975">
        <ele>987.8</ele>
        <time>2021-05-28T12:08:49Z</time>
      </trkpt>
      <trkpt lat="45.46196" lon="6.5698">
        <ele>988.2</ele>
        <time>2021-05-28T12:08:50Z</time>
      </trkpt>
      <trkpt lat="45.46197" lon="6.56985">
        <ele>988.8</ele>
        <time>2021-05-28T12:08:51Z</time>
      </trkpt>
      <trkpt lat="45.46198" lon="6.56989">
        <ele>989.2</ele>
        <time>2021-05-28T12:08:52Z</time>
      </trkpt>
      <trkpt lat="45.462" lon="6.56993">
        <ele>989.8</ele>
        <time>2021-05-28T12:08:53Z</time>
      </trkpt>
      <trkpt lat="45.46201" lon="6.56997">
        <ele>990.2</ele>
        <time>2021-05-28T12:08:54Z</time>
      </trkpt>
      <trkpt lat="45.46203" lon="6.57">
        <ele>990.6</ele>
        <time>2021-05-28T12:08:55Z</time>
      </trkpt>
      <trkpt lat="45.46205" lon="6.57003">
        <ele>990.8</ele>
        <time>2021-05-28T12:08:56Z</time>
      </trkpt>
      <trkpt lat="45.46207" lon="6.57007">
        <ele>991.2</ele>
        <time>2021-05-28T12:08:57Z</time>
      </trkpt>
      <trkpt lat="45.4621" lon="6.57011">
        <ele>991.6</ele>
        <time>2021-05-28T12:08:58Z</time>
      </trkpt>
      <trkpt lat="45.46212" lon="6.57013">
        <ele>992</ele>
        <time>2021-05-28T12:08:59Z</time>
      </trkpt>
      <trkpt lat="45.46215" lon="6.57015">
        <ele>992.4</ele>
        <time>2021-05-28T12:09:00Z</time>
      </trkpt>
      <trkpt lat="45.46219" lon="6.57018">
        <ele>992.6</ele>
        <time>2021-05-28T12:09:01Z</time>
      </trkpt>
      <trkpt lat="45.46221" lon="6.57019">
        <ele>992.8</ele>
        <time>2021-05-28T12:09:02Z</time>
      </trkpt>
      <trkpt lat="45.46225" lon="6.57021">
        <ele>993</ele>
        <time>2021-05-28T12:09:03Z</time>
      </trkpt>
      <trkpt lat="45.46228" lon="6.57022">
        <ele>993</ele>
        <time>2021-05-28T12:09:04Z</time>
      </trkpt>
      <trkpt lat="45.46231" lon="6.57024">
        <ele>993.2</ele>
        <time>2021-05-28T12:09:05Z</time>
      </trkpt>
      <trkpt lat="45.46235" lon="6.57026">
        <ele>993.4</ele>
        <time>2021-05-28T12:09:06Z</time>
      </trkpt>
      <trkpt lat="45.46238" lon="6.57027">
        <ele>993.6</ele>
        <time>2021-05-28T12:09:07Z</time>
      </trkpt>
      <trkpt lat="45.46241" lon="6.57028">
        <ele>993.6</ele>
        <time>2021-05-28T12:09:08Z</time>
      </trkpt>
      <trkpt lat="45.46245" lon="6.57029">
        <ele>993.6</ele>
        <time>2021-05-28T12:09:09Z</time>
      </trkpt>
      <trkpt lat="45.46248" lon="6.57031">
        <ele>993.8</ele>
        <time>2021-05-28T12:09:10Z</time>
      </trkpt>
      <trkpt lat="45.46251" lon="6.57033">
        <ele>993.8</ele>
        <time>2021-05-28T12:09:11Z</time>
      </trkpt>
      <trkpt lat="45.46253" lon="6.57035">
        <ele>994</ele>
        <time>2021-05-28T12:09:12Z</time>
      </trkpt>
      <trkpt lat="45.46257" lon="6.57036">
        <ele>994.2</ele>
        <time>2021-05-28T12:09:13Z</time>
      </trkpt>
      <trkpt lat="45.4626" lon="6.57038">
        <ele>994.2</ele>
        <time>2021-05-28T12:09:14Z</time>
      </trkpt>
      <trkpt lat="45.46263" lon="6.57041">
        <ele>994.4</ele>
        <time>2021-05-28T12:09:15Z</time>
      </trkpt>
      <trkpt lat="45.46266" lon="6.57044">
        <ele>994.4</ele>
        <time>2021-05-28T12:09:16Z</time>
      </trkpt>
      <trkpt lat="45.46268" lon="6.57046">
        <ele>994.4</ele>
        <time>2021-05-28T12:09:17Z</time>
      </trkpt>
      <trkpt lat="45.4627" lon="6.57049">
        <ele>994.8</ele>
        <time>2021-05-28T12:09:18Z</time>
      </trkpt>
      <trkpt lat="45.46273" lon="6.57053">
        <ele>995.2</ele>
        <time>2021-05-28T12:09:19Z</time>
      </trkpt>
      <trkpt lat="45.46274" lon="6.57057">
        <ele>995.6</ele>
        <time>2021-05-28T12:09:20Z</time>
      </trkpt>
      <trkpt lat="45.46275" lon="6.57062">
        <ele>995.8</ele>
        <time>2021-05-28T12:09:21Z</time>
      </trkpt>
      <trkpt lat="45.46276" lon="6.57066">
        <ele>996</ele>
        <time>2021-05-28T12:09:22Z</time>
      </trkpt>
      <trkpt lat="45.46277" lon="6.57071">
        <ele>996.4</ele>
        <time>2021-05-28T12:09:23Z</time>
      </trkpt>
      <trkpt lat="45.46277" lon="6.57075">
        <ele>996.8</ele>
        <time>2021-05-28T12:09:24Z</time>
      </trkpt>
      <trkpt lat="45.46278" lon="6.57079">
        <ele>997</ele>
        <time>2021-05-28T12:09:25Z</time>
      </trkpt>
      <trkpt lat="45.46278" lon="6.57084">
        <ele>997.4</ele>
        <time>2021-05-28T12:09:26Z</time>
      </trkpt>
      <trkpt lat="45.46277" lon="6.57089">
        <ele>997.8</ele>
        <time>2021-05-28T12:09:27Z</time>
      </trkpt>
      <trkpt lat="45.46277" lon="6.57093">
        <ele>998.2</ele>
        <time>2021-05-28T12:09:28Z</time>
      </trkpt>
      <trkpt lat="45.46278" lon="6.57098">
        <ele>998.6</ele>
        <time>2021-05-28T12:09:29Z</time>
      </trkpt>
      <trkpt lat="45.46278" lon="6.57102">
        <ele>998.8</ele>
        <time>2021-05-28T12:09:30Z</time>
      </trkpt>
      <trkpt lat="45.46278" lon="6.57106">
        <ele>999</ele>
        <time>2021-05-28T12:09:31Z</time>
      </trkpt>
      <trkpt lat="45.46278" lon="6.57111">
        <ele>999</ele>
        <time>2021-05-28T12:09:32Z</time>
      </trkpt>
      <trkpt lat="45.46278" lon="6.57116">
        <ele>999.2</ele>
        <time>2021-05-28T12:09:33Z</time>
      </trkpt>
      <trkpt lat="45.46279" lon="6.5712">
        <ele>999.4</ele>
        <time>2021-05-28T12:09:34Z</time>
      </trkpt>
      <trkpt lat="45.46279" lon="6.57125">
        <ele>999.8</ele>
        <time>2021-05-28T12:09:35Z</time>
      </trkpt>
      <trkpt lat="45.4628" lon="6.57129">
        <ele>1000</ele>
        <time>2021-05-28T12:09:36Z</time>
      </trkpt>
      <trkpt lat="45.4628" lon="6.57133">
        <ele>1000.2</ele>
        <time>2021-05-28T12:09:37Z</time>
      </trkpt>
      <trkpt lat="45.4628" lon="6.57137">
        <ele>1000.6</ele>
        <time>2021-05-28T12:09:38Z</time>
      </trkpt>
      <trkpt lat="45.4628" lon="6.57142">
        <ele>1000.8</ele>
        <time>2021-05-28T12:09:39Z</time>
      </trkpt>
      <trkpt lat="45.4628" lon="6.57147">
        <ele>1001.2</ele>
        <time>2021-05-28T12:09:40Z</time>
      </trkpt>
      <trkpt lat="45.4628" lon="6.57152">
        <ele>1001.4</ele>
        <time>2021-05-28T12:09:41Z</time>
      </trkpt>
      <trkpt lat="45.46279" lon="6.57156">
        <ele>1001.4</ele>
        <time>2021-05-28T12:09:42Z</time>
      </trkpt>
      <trkpt lat="45.46278" lon="6.57161">
        <ele>1001.6</ele>
        <time>2021-05-28T12:09:43Z</time>
      </trkpt>
      <trkpt lat="45.46277" lon="6.57165">
        <ele>1002</ele>
        <time>2021-05-28T12:09:44Z</time>
      </trkpt>
      <trkpt lat="45.46276" lon="6.57169">
        <ele>1002.4</ele>
        <time>2021-05-28T12:09:45Z</time>
      </trkpt>
      <trkpt lat="45.46275" lon="6.57173">
        <ele>1002.6</ele>
        <time>2021-05-28T12:09:46Z</time>
      </trkpt>
      <trkpt lat="45.46273" lon="6.57177">
        <ele>1002.8</ele>
        <time>2021-05-28T12:09:47Z</time>
      </trkpt>
      <trkpt lat="45.4627" lon="6.57181">
        <ele>1003.2</ele>
        <time>2021-05-28T12:09:48Z</time>
      </trkpt>
      <trkpt lat="45.46268" lon="6.57184">
        <ele>1004</ele>
        <time>2021-05-28T12:09:49Z</time>
      </trkpt>
      <trkpt lat="45.46265" lon="6.57187">
        <ele>1004.4</ele>
        <time>2021-05-28T12:09:50Z</time>
      </trkpt>
      <trkpt lat="45.46263" lon="6.57189">
        <ele>1004.8</ele>
        <time>2021-05-28T12:09:51Z</time>
      </trkpt>
      <trkpt lat="45.4626" lon="6.5719">
        <ele>1005</ele>
        <time>2021-05-28T12:09:52Z</time>
      </trkpt>
      <trkpt lat="45.46258" lon="6.57191">
        <ele>1005.2</ele>
        <time>2021-05-28T12:09:53Z</time>
      </trkpt>
      <trkpt lat="45.46255" lon="6.57192">
        <ele>1005.2</ele>
        <time>2021-05-28T12:09:54Z</time>
      </trkpt>
      <trkpt lat="45.46253" lon="6.57193">
        <ele>1005</ele>
        <time>2021-05-28T12:09:55Z</time>
      </trkpt>
      <trkpt lat="45.4625" lon="6.57194">
        <ele>1004.8</ele>
        <time>2021-05-28T12:09:56Z</time>
      </trkpt>
      <trkpt lat="45.46247" lon="6.57196">
        <ele>1004</ele>
        <time>2021-05-28T12:09:57Z</time>
      </trkpt>
      <trkpt lat="45.46245" lon="6.57197">
        <ele>1003.4</ele>
        <time>2021-05-28T12:09:58Z</time>
      </trkpt>
      <trkpt lat="45.46243" lon="6.572">
        <ele>1003</ele>
        <time>2021-05-28T12:09:59Z</time>
      </trkpt>
      <trkpt lat="45.46241" lon="6.57203">
        <ele>1003</ele>
        <time>2021-05-28T12:10:00Z</time>
      </trkpt>
      <trkpt lat="45.4624" lon="6.57206">
        <ele>1001.8</ele>
        <time>2021-05-28T12:10:01Z</time>
      </trkpt>
      <trkpt lat="45.46239" lon="6.5721">
        <ele>1001.4</ele>
        <time>2021-05-28T12:10:02Z</time>
      </trkpt>
      <trkpt lat="45.46238" lon="6.57214">
        <ele>1001.4</ele>
        <time>2021-05-28T12:10:03Z</time>
      </trkpt>
      <trkpt lat="45.46238" lon="6.57218">
        <ele>1001.2</ele>
        <time>2021-05-28T12:10:04Z</time>
      </trkpt>
      <trkpt lat="45.46239" lon="6.57222">
        <ele>1001</ele>
        <time>2021-05-28T12:10:05Z</time>
      </trkpt>
      <trkpt lat="45.46241" lon="6.57225">
        <ele>1001.2</ele>
        <time>2021-05-28T12:10:06Z</time>
      </trkpt>
      <trkpt lat="45.46242" lon="6.57229">
        <ele>1000.8</ele>
        <time>2021-05-28T12:10:07Z</time>
      </trkpt>
      <trkpt lat="45.46244" lon="6.57232">
        <ele>1001</ele>
        <time>2021-05-28T12:10:08Z</time>
      </trkpt>
      <trkpt lat="45.46247" lon="6.57234">
        <ele>1001.2</ele>
        <time>2021-05-28T12:10:09Z</time>
      </trkpt>
      <trkpt lat="45.4625" lon="6.57237">
        <ele>1001.4</ele>
        <time>2021-05-28T12:10:10Z</time>
      </trkpt>
      <trkpt lat="45.46253" lon="6.57239">
        <ele>1002</ele>
        <time>2021-05-28T12:10:11Z</time>
      </trkpt>
      <trkpt lat="45.46256" lon="6.57241">
        <ele>1002</ele>
        <time>2021-05-28T12:10:12Z</time>
      </trkpt>
      <trkpt lat="45.46259" lon="6.57243">
        <ele>1001.8</ele>
        <time>2021-05-28T12:10:13Z</time>
      </trkpt>
      <trkpt lat="45.46262" lon="6.57245">
        <ele>1001.4</ele>
        <time>2021-05-28T12:10:14Z</time>
      </trkpt>
      <trkpt lat="45.46265" lon="6.57247">
        <ele>1001.2</ele>
        <time>2021-05-28T12:10:15Z</time>
      </trkpt>
      <trkpt lat="45.46269" lon="6.57249">
        <ele>1001</ele>
        <time>2021-05-28T12:10:16Z</time>
      </trkpt>
      <trkpt lat="45.46272" lon="6.57252">
        <ele>1000.6</ele>
        <time>2021-05-28T12:10:17Z</time>
      </trkpt>
      <trkpt lat="45.46275" lon="6.57254">
        <ele>1000.6</ele>
        <time>2021-05-28T12:10:18Z</time>
      </trkpt>
      <trkpt lat="45.46278" lon="6.57256">
        <ele>1000.2</ele>
        <time>2021-05-28T12:10:19Z</time>
      </trkpt>
      <trkpt lat="45.46281" lon="6.57259">
        <ele>1000</ele>
        <time>2021-05-28T12:10:20Z</time>
      </trkpt>
      <trkpt lat="45.46283" lon="6.57261">
        <ele>999.6</ele>
        <time>2021-05-28T12:10:21Z</time>
      </trkpt>
      <trkpt lat="45.46286" lon="6.57264">
        <ele>999.4</ele>
        <time>2021-05-28T12:10:22Z</time>
      </trkpt>
      <trkpt lat="45.46288" lon="6.57267">
        <ele>999.2</ele>
        <time>2021-05-28T12:10:23Z</time>
      </trkpt>
      <trkpt lat="45.46291" lon="6.5727">
        <ele>998.8</ele>
        <time>2021-05-28T12:10:24Z</time>
      </trkpt>
      <trkpt lat="45.46293" lon="6.57273">
        <ele>998.6</ele>
        <time>2021-05-28T12:10:25Z</time>
      </trkpt>
      <trkpt lat="45.46295" lon="6.57277">
        <ele>998.2</ele>
        <time>2021-05-28T12:10:26Z</time>
      </trkpt>
      <trkpt lat="45.46298" lon="6.5728">
        <ele>998</ele>
        <time>2021-05-28T12:10:27Z</time>
      </trkpt>
      <trkpt lat="45.463" lon="6.57283">
        <ele>998</ele>
        <time>2021-05-28T12:10:28Z</time>
      </trkpt>
      <trkpt lat="45.46301" lon="6.57287">
        <ele>997.8</ele>
        <time>2021-05-28T12:10:29Z</time>
      </trkpt>
      <trkpt lat="45.46303" lon="6.5729">
        <ele>997.6</ele>
        <time>2021-05-28T12:10:30Z</time>
      </trkpt>
      <trkpt lat="45.46306" lon="6.57294">
        <ele>997.4</ele>
        <time>2021-05-28T12:10:31Z</time>
      </trkpt>
      <trkpt lat="45.46308" lon="6.57298">
        <ele>997.2</ele>
        <time>2021-05-28T12:10:32Z</time>
      </trkpt>
      <trkpt lat="45.46309" lon="6.57302">
        <ele>997</ele>
        <time>2021-05-28T12:10:33Z</time>
      </trkpt>
      <trkpt lat="45.46311" lon="6.57306">
        <ele>996.8</ele>
        <time>2021-05-28T12:10:34Z</time>
      </trkpt>
      <trkpt lat="45.46313" lon="6.5731">
        <ele>996.8</ele>
        <time>2021-05-28T12:10:35Z</time>
      </trkpt>
      <trkpt lat="45.46315" lon="6.57314">
        <ele>996.6</ele>
        <time>2021-05-28T12:10:36Z</time>
      </trkpt>
      <trkpt lat="45.46316" lon="6.57317">
        <ele>996.6</ele>
        <time>2021-05-28T12:10:37Z</time>
      </trkpt>
      <trkpt lat="45.46318" lon="6.5732">
        <ele>996.6</ele>
        <time>2021-05-28T12:10:38Z</time>
      </trkpt>
      <trkpt lat="45.4632" lon="6.57323">
        <ele>996.6</ele>
        <time>2021-05-28T12:10:39Z</time>
      </trkpt>
      <trkpt lat="45.46323" lon="6.57327">
        <ele>996.6</ele>
        <time>2021-05-28T12:10:40Z</time>
      </trkpt>
      <trkpt lat="45.46326" lon="6.5733">
        <ele>996.6</ele>
        <time>2021-05-28T12:10:41Z</time>
      </trkpt>
      <trkpt lat="45.46328" lon="6.57333">
        <ele>996.8</ele>
        <time>2021-05-28T12:10:42Z</time>
      </trkpt>
      <trkpt lat="45.4633" lon="6.57337">
        <ele>996.8</ele>
        <time>2021-05-28T12:10:43Z</time>
      </trkpt>
      <trkpt lat="45.46333" lon="6.57339">
        <ele>997</ele>
        <time>2021-05-28T12:10:44Z</time>
      </trkpt>
      <trkpt lat="45.46336" lon="6.57342">
        <ele>997.2</ele>
        <time>2021-05-28T12:10:45Z</time>
      </trkpt>
      <trkpt lat="45.46339" lon="6.57344">
        <ele>997.4</ele>
        <time>2021-05-28T12:10:46Z</time>
      </trkpt>
      <trkpt lat="45.46342" lon="6.57346">
        <ele>997.4</ele>
        <time>2021-05-28T12:10:47Z</time>
      </trkpt>
      <trkpt lat="45.46346" lon="6.57348">
        <ele>997.4</ele>
        <time>2021-05-28T12:10:48Z</time>
      </trkpt>
      <trkpt lat="45.46348" lon="6.57351">
        <ele>997.2</ele>
        <time>2021-05-28T12:10:49Z</time>
      </trkpt>
      <trkpt lat="45.46352" lon="6.57353">
        <ele>997.6</ele>
        <time>2021-05-28T12:10:50Z</time>
      </trkpt>
      <trkpt lat="45.46355" lon="6.57355">
        <ele>998</ele>
        <time>2021-05-28T12:10:51Z</time>
      </trkpt>
      <trkpt lat="45.46358" lon="6.57357">
        <ele>998.8</ele>
        <time>2021-05-28T12:10:52Z</time>
      </trkpt>
      <trkpt lat="45.46362" lon="6.57358">
        <ele>999.8</ele>
        <time>2021-05-28T12:10:53Z</time>
      </trkpt>
      <trkpt lat="45.46366" lon="6.5736">
        <ele>1000.4</ele>
        <time>2021-05-28T12:10:54Z</time>
      </trkpt>
      <trkpt lat="45.4637" lon="6.57361">
        <ele>1001.2</ele>
        <time>2021-05-28T12:10:55Z</time>
      </trkpt>
      <trkpt lat="45.46373" lon="6.57363">
        <ele>1001.8</ele>
        <time>2021-05-28T12:10:56Z</time>
      </trkpt>
      <trkpt lat="45.46377" lon="6.57365">
        <ele>1002.6</ele>
        <time>2021-05-28T12:10:57Z</time>
      </trkpt>
      <trkpt lat="45.4638" lon="6.57367">
        <ele>1003.8</ele>
        <time>2021-05-28T12:10:58Z</time>
      </trkpt>
      <trkpt lat="45.46384" lon="6.57368">
        <ele>1005.2</ele>
        <time>2021-05-28T12:10:59Z</time>
      </trkpt>
      <trkpt lat="45.46388" lon="6.5737">
        <ele>1006.4</ele>
        <time>2021-05-28T12:11:00Z</time>
      </trkpt>
      <trkpt lat="45.46391" lon="6.57373">
        <ele>1007.6</ele>
        <time>2021-05-28T12:11:01Z</time>
      </trkpt>
      <trkpt lat="45.46394" lon="6.57375">
        <ele>1008.8</ele>
        <time>2021-05-28T12:11:02Z</time>
      </trkpt>
      <trkpt lat="45.46397" lon="6.57377">
        <ele>1009.8</ele>
        <time>2021-05-28T12:11:03Z</time>
      </trkpt>
      <trkpt lat="45.464" lon="6.57379">
        <ele>1011</ele>
        <time>2021-05-28T12:11:04Z</time>
      </trkpt>
      <trkpt lat="45.46404" lon="6.57381">
        <ele>1012</ele>
        <time>2021-05-28T12:11:05Z</time>
      </trkpt>
      <trkpt lat="45.46406" lon="6.57383">
        <ele>1013</ele>
        <time>2021-05-28T12:11:06Z</time>
      </trkpt>
      <trkpt lat="45.4641" lon="6.57384">
        <ele>1013.6</ele>
        <time>2021-05-28T12:11:07Z</time>
      </trkpt>
      <trkpt lat="45.46413" lon="6.57385">
        <ele>1014.2</ele>
        <time>2021-05-28T12:11:08Z</time>
      </trkpt>
      <trkpt lat="45.46416" lon="6.57386">
        <ele>1014.8</ele>
        <time>2021-05-28T12:11:09Z</time>
      </trkpt>
      <trkpt lat="45.4642" lon="6.57387">
        <ele>1015.2</ele>
        <time>2021-05-28T12:11:10Z</time>
      </trkpt>
      <trkpt lat="45.46423" lon="6.57387">
        <ele>1015.6</ele>
        <time>2021-05-28T12:11:11Z</time>
      </trkpt>
      <trkpt lat="45.46426" lon="6.57388">
        <ele>1016.2</ele>
        <time>2021-05-28T12:11:12Z</time>
      </trkpt>
      <trkpt lat="45.4643" lon="6.57388">
        <ele>1016.8</ele>
        <time>2021-05-28T12:11:13Z</time>
      </trkpt>
      <trkpt lat="45.46433" lon="6.57389">
        <ele>1017.4</ele>
        <time>2021-05-28T12:11:14Z</time>
      </trkpt>
      <trkpt lat="45.46436" lon="6.5739">
        <ele>1017.8</ele>
        <time>2021-05-28T12:11:15Z</time>
      </trkpt>
      <trkpt lat="45.46439" lon="6.5739">
        <ele>1018.2</ele>
        <time>2021-05-28T12:11:16Z</time>
      </trkpt>
      <trkpt lat="45.46443" lon="6.5739">
        <ele>1018.6</ele>
        <time>2021-05-28T12:11:17Z</time>
      </trkpt>
      <trkpt lat="45.46445" lon="6.57391">
        <ele>1019</ele>
        <time>2021-05-28T12:11:18Z</time>
      </trkpt>
      <trkpt lat="45.46448" lon="6.57393">
        <ele>1019.6</ele>
        <time>2021-05-28T12:11:19Z</time>
      </trkpt>
      <trkpt lat="45.46451" lon="6.57395">
        <ele>1020.2</ele>
        <time>2021-05-28T12:11:20Z</time>
      </trkpt>
      <trkpt lat="45.46452" lon="6.57399">
        <ele>1020.8</ele>
        <time>2021-05-28T12:11:21Z</time>
      </trkpt>
      <trkpt lat="45.46453" lon="6.57403">
        <ele>1021.4</ele>
        <time>2021-05-28T12:11:22Z</time>
      </trkpt>
      <trkpt lat="45.46452" lon="6.57407">
        <ele>1022</ele>
        <time>2021-05-28T12:11:23Z</time>
      </trkpt>
      <trkpt lat="45.46452" lon="6.57411">
        <ele>1022.6</ele>
        <time>2021-05-28T12:11:24Z</time>
      </trkpt>
      <trkpt lat="45.4645" lon="6.57415">
        <ele>1023.4</ele>
        <time>2021-05-28T12:11:25Z</time>
      </trkpt>
      <trkpt lat="45.46449" lon="6.57419">
        <ele>1024</ele>
        <time>2021-05-28T12:11:26Z</time>
      </trkpt>
      <trkpt lat="45.46447" lon="6.57423">
        <ele>1024.4</ele>
        <time>2021-05-28T12:11:27Z</time>
      </trkpt>
      <trkpt lat="45.46445" lon="6.57427">
        <ele>1025</ele>
        <time>2021-05-28T12:11:28Z</time>
      </trkpt>
      <trkpt lat="45.46444" lon="6.57431">
        <ele>1025.6</ele>
        <time>2021-05-28T12:11:29Z</time>
      </trkpt>
      <trkpt lat="45.46442" lon="6.57435">
        <ele>1026.2</ele>
        <time>2021-05-28T12:11:30Z</time>
      </trkpt>
      <trkpt lat="45.4644" lon="6.57439">
        <ele>1026.8</ele>
        <time>2021-05-28T12:11:31Z</time>
      </trkpt>
      <trkpt lat="45.46439" lon="6.57443">
        <ele>1027.2</ele>
        <time>2021-05-28T12:11:32Z</time>
      </trkpt>
      <trkpt lat="45.46437" lon="6.57447">
        <ele>1027.6</ele>
        <time>2021-05-28T12:11:33Z</time>
      </trkpt>
      <trkpt lat="45.46436" lon="6.57451">
        <ele>1028</ele>
        <time>2021-05-28T12:11:34Z</time>
      </trkpt>
      <trkpt lat="45.46435" lon="6.57455">
        <ele>1028.4</ele>
        <time>2021-05-28T12:11:35Z</time>
      </trkpt>
      <trkpt lat="45.46433" lon="6.57459">
        <ele>1029</ele>
        <time>2021-05-28T12:11:36Z</time>
      </trkpt>
      <trkpt lat="45.46432" lon="6.57464">
        <ele>1029.4</ele>
        <time>2021-05-28T12:11:37Z</time>
      </trkpt>
      <trkpt lat="45.46431" lon="6.57468">
        <ele>1030</ele>
        <time>2021-05-28T12:11:38Z</time>
      </trkpt>
      <trkpt lat="45.46431" lon="6.57472">
        <ele>1030.4</ele>
        <time>2021-05-28T12:11:39Z</time>
      </trkpt>
      <trkpt lat="45.46431" lon="6.57476">
        <ele>1030.6</ele>
        <time>2021-05-28T12:11:40Z</time>
      </trkpt>
      <trkpt lat="45.46431" lon="6.57481">
        <ele>1031</ele>
        <time>2021-05-28T12:11:41Z</time>
      </trkpt>
      <trkpt lat="45.46432" lon="6.57485">
        <ele>1031.4</ele>
        <time>2021-05-28T12:11:42Z</time>
      </trkpt>
      <trkpt lat="45.46432" lon="6.5749">
        <ele>1031.8</ele>
        <time>2021-05-28T12:11:43Z</time>
      </trkpt>
      <trkpt lat="45.46434" lon="6.57494">
        <ele>1032</ele>
        <time>2021-05-28T12:11:44Z</time>
      </trkpt>
      <trkpt lat="45.46435" lon="6.57499">
        <ele>1032.2</ele>
        <time>2021-05-28T12:11:45Z</time>
      </trkpt>
      <trkpt lat="45.46436" lon="6.57503">
        <ele>1032</ele>
        <time>2021-05-28T12:11:46Z</time>
      </trkpt>
      <trkpt lat="45.46437" lon="6.57506">
        <ele>1032.4</ele>
        <time>2021-05-28T12:11:47Z</time>
      </trkpt>
      <trkpt lat="45.46439" lon="6.5751">
        <ele>1032.6</ele>
        <time>2021-05-28T12:11:48Z</time>
      </trkpt>
      <trkpt lat="45.4644" lon="6.57514">
        <ele>1032.4</ele>
        <time>2021-05-28T12:11:49Z</time>
      </trkpt>
      <trkpt lat="45.46442" lon="6.57518">
        <ele>1032.2</ele>
        <time>2021-05-28T12:11:50Z</time>
      </trkpt>
      <trkpt lat="45.46443" lon="6.57522">
        <ele>1032.2</ele>
        <time>2021-05-28T12:11:51Z</time>
      </trkpt>
      <trkpt lat="45.46444" lon="6.57525">
        <ele>1032.4</ele>
        <time>2021-05-28T12:11:52Z</time>
      </trkpt>
      <trkpt lat="45.46446" lon="6.57528">
        <ele>1032.8</ele>
        <time>2021-05-28T12:11:53Z</time>
      </trkpt>
      <trkpt lat="45.46447" lon="6.57532">
        <ele>1033.2</ele>
        <time>2021-05-28T12:11:54Z</time>
      </trkpt>
      <trkpt lat="45.46448" lon="6.57535">
        <ele>1033.6</ele>
        <time>2021-05-28T12:11:55Z</time>
      </trkpt>
      <trkpt lat="45.4645" lon="6.57538">
        <ele>1033.8</ele>
        <time>2021-05-28T12:11:56Z</time>
      </trkpt>
      <trkpt lat="45.46451" lon="6.57541">
        <ele>1034</ele>
        <time>2021-05-28T12:11:57Z</time>
      </trkpt>
      <trkpt lat="45.46453" lon="6.57543">
        <ele>1034</ele>
        <time>2021-05-28T12:11:58Z</time>
      </trkpt>
      <trkpt lat="45.46455" lon="6.57546">
        <ele>1033.8</ele>
        <time>2021-05-28T12:11:59Z</time>
      </trkpt>
      <trkpt lat="45.46456" lon="6.57548">
        <ele>1033.8</ele>
        <time>2021-05-28T12:12:00Z</time>
      </trkpt>
      <trkpt lat="45.46458" lon="6.57551">
        <ele>1033.6</ele>
        <time>2021-05-28T12:12:01Z</time>
      </trkpt>
      <trkpt lat="45.4646" lon="6.57553">
        <ele>1033.4</ele>
        <time>2021-05-28T12:12:02Z</time>
      </trkpt>
      <trkpt lat="45.46461" lon="6.57554">
        <ele>1033.6</ele>
        <time>2021-05-28T12:12:03Z</time>
      </trkpt>
      <trkpt lat="45.46463" lon="6.57555">
        <ele>1033.2</ele>
        <time>2021-05-28T12:12:05Z</time>
      </trkpt>
      <trkpt lat="45.46465" lon="6.57557">
        <ele>1033</ele>
        <time>2021-05-28T12:12:06Z</time>
      </trkpt>
      <trkpt lat="45.46468" lon="6.57559">
        <ele>1032.4</ele>
        <time>2021-05-28T12:12:08Z</time>
      </trkpt>
      <trkpt lat="45.46469" lon="6.57561">
        <ele>1032</ele>
        <time>2021-05-28T12:12:09Z</time>
      </trkpt>
      <trkpt lat="45.46471" lon="6.57564">
        <ele>1031.8</ele>
        <time>2021-05-28T12:12:10Z</time>
      </trkpt>
      <trkpt lat="45.46473" lon="6.57567">
        <ele>1031.6</ele>
        <time>2021-05-28T12:12:11Z</time>
      </trkpt>
      <trkpt lat="45.46475" lon="6.57571">
        <ele>1031</ele>
        <time>2021-05-28T12:12:12Z</time>
      </trkpt>
      <trkpt lat="45.46477" lon="6.57575">
        <ele>1030.6</ele>
        <time>2021-05-28T12:12:13Z</time>
      </trkpt>
      <trkpt lat="45.46479" lon="6.5758">
        <ele>1030.6</ele>
        <time>2021-05-28T12:12:14Z</time>
      </trkpt>
      <trkpt lat="45.46481" lon="6.57584">
        <ele>1031</ele>
        <time>2021-05-28T12:12:15Z</time>
      </trkpt>
      <trkpt lat="45.46482" lon="6.5759">
        <ele>1031.2</ele>
        <time>2021-05-28T12:12:16Z</time>
      </trkpt>
      <trkpt lat="45.46483" lon="6.57596">
        <ele>1031.4</ele>
        <time>2021-05-28T12:12:17Z</time>
      </trkpt>
      <trkpt lat="45.46484" lon="6.57601">
        <ele>1031.6</ele>
        <time>2021-05-28T12:12:18Z</time>
      </trkpt>
      <trkpt lat="45.46486" lon="6.57606">
        <ele>1031.6</ele>
        <time>2021-05-28T12:12:19Z</time>
      </trkpt>
      <trkpt lat="45.46487" lon="6.57611">
        <ele>1031.4</ele>
        <time>2021-05-28T12:12:20Z</time>
      </trkpt>
      <trkpt lat="45.46488" lon="6.57614">
        <ele>1031.2</ele>
        <time>2021-05-28T12:12:21Z</time>
      </trkpt>
      <trkpt lat="45.46488" lon="6.57619">
        <ele>1031</ele>
        <time>2021-05-28T12:12:22Z</time>
      </trkpt>
      <trkpt lat="45.46489" lon="6.57623">
        <ele>1030.8</ele>
        <time>2021-05-28T12:12:23Z</time>
      </trkpt>
      <trkpt lat="45.46491" lon="6.57626">
        <ele>1030.6</ele>
        <time>2021-05-28T12:12:24Z</time>
      </trkpt>
      <trkpt lat="45.46493" lon="6.57629">
        <ele>1030.2</ele>
        <time>2021-05-28T12:12:25Z</time>
      </trkpt>
      <trkpt lat="45.46495" lon="6.57632">
        <ele>1029.8</ele>
        <time>2021-05-28T12:12:26Z</time>
      </trkpt>
      <trkpt lat="45.46495" lon="6.57636">
        <ele>1029.8</ele>
        <time>2021-05-28T12:12:27Z</time>
      </trkpt>
      <trkpt lat="45.46497" lon="6.5764">
        <ele>1029.4</ele>
        <time>2021-05-28T12:12:28Z</time>
      </trkpt>
      <trkpt lat="45.46497" lon="6.57644">
        <ele>1029.8</ele>
        <time>2021-05-28T12:12:29Z</time>
      </trkpt>
      <trkpt lat="45.46497" lon="6.57647">
        <ele>1029.8</ele>
        <time>2021-05-28T12:12:30Z</time>
      </trkpt>
      <trkpt lat="45.46498" lon="6.57652">
        <ele>1030.2</ele>
        <time>2021-05-28T12:12:32Z</time>
      </trkpt>
      <trkpt lat="45.46499" lon="6.57655">
        <ele>1030.8</ele>
        <time>2021-05-28T12:12:34Z</time>
      </trkpt>
      <trkpt lat="45.465" lon="6.57658">
        <ele>1030.2</ele>
        <time>2021-05-28T12:12:38Z</time>
      </trkpt>
      <trkpt lat="45.46499" lon="6.57661">
        <ele>1027.8</ele>
        <time>2021-05-28T12:12:42Z</time>
      </trkpt>
      <trkpt lat="45.46498" lon="6.57663">
        <ele>1027</ele>
        <time>2021-05-28T12:12:44Z</time>
      </trkpt>
      <trkpt lat="45.46496" lon="6.57664">
        <ele>1026</ele>
        <time>2021-05-28T12:12:46Z</time>
      </trkpt>
      <trkpt lat="45.46494" lon="6.57662">
        <ele>1026.8</ele>
        <time>2021-05-28T12:13:08Z</time>
      </trkpt>
      <trkpt lat="45.46491" lon="6.57661">
        <ele>1026</ele>
        <time>2021-05-28T12:13:34Z</time>
      </trkpt>
      <trkpt lat="45.46489" lon="6.5766">
        <ele>1026.6</ele>
        <time>2021-05-28T12:13:36Z</time>
      </trkpt>
      <trkpt lat="45.46485" lon="6.57659">
        <ele>1027.6</ele>
        <time>2021-05-28T12:13:38Z</time>
      </trkpt>
      <trkpt lat="45.46483" lon="6.57657">
        <ele>1028.6</ele>
        <time>2021-05-28T12:13:40Z</time>
      </trkpt>
      <trkpt lat="45.46479" lon="6.57656">
        <ele>1028.8</ele>
        <time>2021-05-28T12:13:42Z</time>
      </trkpt>
      <trkpt lat="45.46477" lon="6.57655">
        <ele>1029.4</ele>
        <time>2021-05-28T12:13:43Z</time>
      </trkpt>
      <trkpt lat="45.46475" lon="6.57654">
        <ele>1029.8</ele>
        <time>2021-05-28T12:13:44Z</time>
      </trkpt>
      <trkpt lat="45.46473" lon="6.57653">
        <ele>1029.8</ele>
        <time>2021-05-28T12:13:45Z</time>
      </trkpt>
      <trkpt lat="45.46471" lon="6.5765">
        <ele>1030</ele>
        <time>2021-05-28T12:13:46Z</time>
      </trkpt>
      <trkpt lat="45.46468" lon="6.57649">
        <ele>1030</ele>
        <time>2021-05-28T12:13:47Z</time>
      </trkpt>
      <trkpt lat="45.46466" lon="6.57647">
        <ele>1030.2</ele>
        <time>2021-05-28T12:13:48Z</time>
      </trkpt>
      <trkpt lat="45.46463" lon="6.57646">
        <ele>1030.2</ele>
        <time>2021-05-28T12:13:49Z</time>
      </trkpt>
      <trkpt lat="45.4646" lon="6.57645">
        <ele>1030.8</ele>
        <time>2021-05-28T12:13:50Z</time>
      </trkpt>
      <trkpt lat="45.46458" lon="6.57644">
        <ele>1031.4</ele>
        <time>2021-05-28T12:13:51Z</time>
      </trkpt>
      <trkpt lat="45.46455" lon="6.57642">
        <ele>1032.4</ele>
        <time>2021-05-28T12:13:52Z</time>
      </trkpt>
      <trkpt lat="45.46453" lon="6.5764">
        <ele>1032.8</ele>
        <time>2021-05-28T12:13:53Z</time>
      </trkpt>
      <trkpt lat="45.46451" lon="6.57638">
        <ele>1033</ele>
        <time>2021-05-28T12:13:54Z</time>
      </trkpt>
      <trkpt lat="45.46448" lon="6.57636">
        <ele>1033.2</ele>
        <time>2021-05-28T12:13:55Z</time>
      </trkpt>
      <trkpt lat="45.46445" lon="6.57634">
        <ele>1033.4</ele>
        <time>2021-05-28T12:13:56Z</time>
      </trkpt>
      <trkpt lat="45.46442" lon="6.57633">
        <ele>1033</ele>
        <time>2021-05-28T12:13:57Z</time>
      </trkpt>
      <trkpt lat="45.46439" lon="6.57631">
        <ele>1033</ele>
        <time>2021-05-28T12:13:58Z</time>
      </trkpt>
      <trkpt lat="45.46437" lon="6.57629">
        <ele>1033.2</ele>
        <time>2021-05-28T12:13:59Z</time>
      </trkpt>
      <trkpt lat="45.46435" lon="6.57627">
        <ele>1033</ele>
        <time>2021-05-28T12:14:00Z</time>
      </trkpt>
      <trkpt lat="45.46431" lon="6.57624">
        <ele>1033.2</ele>
        <time>2021-05-28T12:14:01Z</time>
      </trkpt>
      <trkpt lat="45.46428" lon="6.57621">
        <ele>1032.8</ele>
        <time>2021-05-28T12:14:02Z</time>
      </trkpt>
      <trkpt lat="45.46425" lon="6.57617">
        <ele>1033</ele>
        <time>2021-05-28T12:14:03Z</time>
      </trkpt>
      <trkpt lat="45.46421" lon="6.57613">
        <ele>1033</ele>
        <time>2021-05-28T12:14:04Z</time>
      </trkpt>
      <trkpt lat="45.46418" lon="6.57608">
        <ele>1033</ele>
        <time>2021-05-28T12:14:05Z</time>
      </trkpt>
      <trkpt lat="45.46415" lon="6.57604">
        <ele>1033.2</ele>
        <time>2021-05-28T12:14:06Z</time>
      </trkpt>
      <trkpt lat="45.46411" lon="6.57601">
        <ele>1033.2</ele>
        <time>2021-05-28T12:14:07Z</time>
      </trkpt>
      <trkpt lat="45.46406" lon="6.57598">
        <ele>1033.4</ele>
        <time>2021-05-28T12:14:08Z</time>
      </trkpt>
      <trkpt lat="45.46402" lon="6.57595">
        <ele>1033.6</ele>
        <time>2021-05-28T12:14:09Z</time>
      </trkpt>
      <trkpt lat="45.46398" lon="6.57593">
        <ele>1033.6</ele>
        <time>2021-05-28T12:14:10Z</time>
      </trkpt>
      <trkpt lat="45.46393" lon="6.57591">
        <ele>1033.4</ele>
        <time>2021-05-28T12:14:11Z</time>
      </trkpt>
      <trkpt lat="45.46389" lon="6.5759">
        <ele>1033.2</ele>
        <time>2021-05-28T12:14:12Z</time>
      </trkpt>
      <trkpt lat="45.46385" lon="6.57589">
        <ele>1032.8</ele>
        <time>2021-05-28T12:14:13Z</time>
      </trkpt>
      <trkpt lat="45.4638" lon="6.57589">
        <ele>1032.8</ele>
        <time>2021-05-28T12:14:14Z</time>
      </trkpt>
      <trkpt lat="45.46376" lon="6.57589">
        <ele>1032.6</ele>
        <time>2021-05-28T12:14:15Z</time>
      </trkpt>
      <trkpt lat="45.46372" lon="6.57588">
        <ele>1032.6</ele>
        <time>2021-05-28T12:14:16Z</time>
      </trkpt>
      <trkpt lat="45.46368" lon="6.57587">
        <ele>1032.8</ele>
        <time>2021-05-28T12:14:17Z</time>
      </trkpt>
      <trkpt lat="45.46364" lon="6.57586">
        <ele>1032.6</ele>
        <time>2021-05-28T12:14:18Z</time>
      </trkpt>
      <trkpt lat="45.46359" lon="6.57586">
        <ele>1032.8</ele>
        <time>2021-05-28T12:14:19Z</time>
      </trkpt>
      <trkpt lat="45.46355" lon="6.57586">
        <ele>1032.6</ele>
        <time>2021-05-28T12:14:20Z</time>
      </trkpt>
      <trkpt lat="45.4635" lon="6.57586">
        <ele>1032.2</ele>
        <time>2021-05-28T12:14:21Z</time>
      </trkpt>
      <trkpt lat="45.46346" lon="6.57586">
        <ele>1031.8</ele>
        <time>2021-05-28T12:14:22Z</time>
      </trkpt>
      <trkpt lat="45.46341" lon="6.57586">
        <ele>1031.6</ele>
        <time>2021-05-28T12:14:23Z</time>
      </trkpt>
      <trkpt lat="45.46336" lon="6.57585">
        <ele>1031.2</ele>
        <time>2021-05-28T12:14:24Z</time>
      </trkpt>
      <trkpt lat="45.46332" lon="6.57585">
        <ele>1031.2</ele>
        <time>2021-05-28T12:14:25Z</time>
      </trkpt>
      <trkpt lat="45.46328" lon="6.57586">
        <ele>1031</ele>
        <time>2021-05-28T12:14:26Z</time>
      </trkpt>
      <trkpt lat="45.46323" lon="6.57586">
        <ele>1031</ele>
        <time>2021-05-28T12:14:27Z</time>
      </trkpt>
      <trkpt lat="45.46318" lon="6.57587">
        <ele>1030.4</ele>
        <time>2021-05-28T12:14:28Z</time>
      </trkpt>
      <trkpt lat="45.46315" lon="6.57589">
        <ele>1030.4</ele>
        <time>2021-05-28T12:14:29Z</time>
      </trkpt>
      <trkpt lat="45.4631" lon="6.57591">
        <ele>1030.2</ele>
        <time>2021-05-28T12:14:30Z</time>
      </trkpt>
      <trkpt lat="45.46307" lon="6.57594">
        <ele>1030</ele>
        <time>2021-05-28T12:14:31Z</time>
      </trkpt>
      <trkpt lat="45.46303" lon="6.57598">
        <ele>1030.2</ele>
        <time>2021-05-28T12:14:32Z</time>
      </trkpt>
      <trkpt lat="45.463" lon="6.57602">
        <ele>1030.2</ele>
        <time>2021-05-28T12:14:33Z</time>
      </trkpt>
      <trkpt lat="45.46297" lon="6.57607">
        <ele>1030.2</ele>
        <time>2021-05-28T12:14:34Z</time>
      </trkpt>
      <trkpt lat="45.46294" lon="6.57612">
        <ele>1030.4</ele>
        <time>2021-05-28T12:14:35Z</time>
      </trkpt>
      <trkpt lat="45.46292" lon="6.57616">
        <ele>1030.4</ele>
        <time>2021-05-28T12:14:36Z</time>
      </trkpt>
      <trkpt lat="45.46291" lon="6.57618">
        <ele>1030.6</ele>
        <time>2021-05-28T12:14:37Z</time>
      </trkpt>
      <trkpt lat="45.46288" lon="6.57622">
        <ele>1030.4</ele>
        <time>2021-05-28T12:14:42Z</time>
      </trkpt>
      <trkpt lat="45.46286" lon="6.57623">
        <ele>1028.8</ele>
        <time>2021-05-28T12:14:51Z</time>
      </trkpt>
      <trkpt lat="45.46285" lon="6.57625">
        <ele>1029</ele>
        <time>2021-05-28T12:14:54Z</time>
      </trkpt>
      <trkpt lat="45.46287" lon="6.57623">
        <ele>1029</ele>
        <time>2021-05-28T12:14:58Z</time>
      </trkpt>
      <trkpt lat="45.46289" lon="6.57622">
        <ele>1027.8</ele>
        <time>2021-05-28T12:15:02Z</time>
      </trkpt>
      <trkpt lat="45.46291" lon="6.57623">
        <ele>1028.4</ele>
        <time>2021-05-28T12:15:06Z</time>
      </trkpt>
      <trkpt lat="45.46293" lon="6.57624">
        <ele>1029.6</ele>
        <time>2021-05-28T12:15:11Z</time>
      </trkpt>
      <trkpt lat="45.46294" lon="6.57625">
        <ele>1030.2</ele>
        <time>2021-05-28T12:15:17Z</time>
      </trkpt>
      <trkpt lat="45.46297" lon="6.57627">
        <ele>1031.4</ele>
        <time>2021-05-28T12:15:21Z</time>
      </trkpt>
      <trkpt lat="45.46294" lon="6.57628">
        <ele>1031.4</ele>
        <time>2021-05-28T12:15:27Z</time>
      </trkpt>
      <trkpt lat="45.46292" lon="6.57626">
        <ele>1022.2</ele>
        <time>2021-05-28T12:17:04Z</time>
      </trkpt>
      <trkpt lat="45.46289" lon="6.57629">
        <ele>1022</ele>
        <time>2021-05-28T12:17:05Z</time>
      </trkpt>
      <trkpt lat="45.46287" lon="6.57631">
        <ele>1022.2</ele>
        <time>2021-05-28T12:17:06Z</time>
      </trkpt>
      <trkpt lat="45.46285" lon="6.57635">
        <ele>1022.2</ele>
        <time>2021-05-28T12:17:07Z</time>
      </trkpt>
      <trkpt lat="45.46283" lon="6.57639">
        <ele>1022.2</ele>
        <time>2021-05-28T12:17:08Z</time>
      </trkpt>
      <trkpt lat="45.46282" lon="6.57644">
        <ele>1022</ele>
        <time>2021-05-28T12:17:09Z</time>
      </trkpt>
      <trkpt lat="45.46281" lon="6.57649">
        <ele>1021.8</ele>
        <time>2021-05-28T12:17:10Z</time>
      </trkpt>
      <trkpt lat="45.46281" lon="6.57655">
        <ele>1022</ele>
        <time>2021-05-28T12:17:11Z</time>
      </trkpt>
      <trkpt lat="45.46281" lon="6.57662">
        <ele>1022.2</ele>
        <time>2021-05-28T12:17:12Z</time>
      </trkpt>
      <trkpt lat="45.46281" lon="6.57669">
        <ele>1022.4</ele>
        <time>2021-05-28T12:17:13Z</time>
      </trkpt>
      <trkpt lat="45.46282" lon="6.57677">
        <ele>1022.4</ele>
        <time>2021-05-28T12:17:14Z</time>
      </trkpt>
      <trkpt lat="45.46283" lon="6.57684">
        <ele>1022.8</ele>
        <time>2021-05-28T12:17:15Z</time>
      </trkpt>
      <trkpt lat="45.46284" lon="6.57692">
        <ele>1023.2</ele>
        <time>2021-05-28T12:17:16Z</time>
      </trkpt>
      <trkpt lat="45.46286" lon="6.57701">
        <ele>1023.6</ele>
        <time>2021-05-28T12:17:17Z</time>
      </trkpt>
      <trkpt lat="45.46288" lon="6.57709">
        <ele>1024</ele>
        <time>2021-05-28T12:17:18Z</time>
      </trkpt>
      <trkpt lat="45.46288" lon="6.57718">
        <ele>1024.4</ele>
        <time>2021-05-28T12:17:19Z</time>
      </trkpt>
      <trkpt lat="45.4629" lon="6.57728">
        <ele>1024.8</ele>
        <time>2021-05-28T12:17:20Z</time>
      </trkpt>
      <trkpt lat="45.4629" lon="6.57736">
        <ele>1025.2</ele>
        <time>2021-05-28T12:17:21Z</time>
      </trkpt>
      <trkpt lat="45.46291" lon="6.57744">
        <ele>1025.6</ele>
        <time>2021-05-28T12:17:22Z</time>
      </trkpt>
      <trkpt lat="45.46292" lon="6.57752">
        <ele>1026</ele>
        <time>2021-05-28T12:17:23Z</time>
      </trkpt>
      <trkpt lat="45.46293" lon="6.57761">
        <ele>1026.4</ele>
        <time>2021-05-28T12:17:24Z</time>
      </trkpt>
      <trkpt lat="45.46294" lon="6.57769">
        <ele>1027</ele>
        <time>2021-05-28T12:17:25Z</time>
      </trkpt>
      <trkpt lat="45.46295" lon="6.57777">
        <ele>1027.4</ele>
        <time>2021-05-28T12:17:26Z</time>
      </trkpt>
      <trkpt lat="45.46294" lon="6.57786">
        <ele>1027.8</ele>
        <time>2021-05-28T12:17:27Z</time>
      </trkpt>
      <trkpt lat="45.46292" lon="6.57794">
        <ele>1028.2</ele>
        <time>2021-05-28T12:17:28Z</time>
      </trkpt>
      <trkpt lat="45.46288" lon="6.578">
        <ele>1028.6</ele>
        <time>2021-05-28T12:17:29Z</time>
      </trkpt>
      <trkpt lat="45.46282" lon="6.57805">
        <ele>1028.6</ele>
        <time>2021-05-28T12:17:30Z</time>
      </trkpt>
      <trkpt lat="45.46275" lon="6.57808">
        <ele>1028.8</ele>
        <time>2021-05-28T12:17:31Z</time>
      </trkpt>
      <trkpt lat="45.46268" lon="6.5781">
        <ele>1029.2</ele>
        <time>2021-05-28T12:17:32Z</time>
      </trkpt>
      <trkpt lat="45.46262" lon="6.5781">
        <ele>1029.6</ele>
        <time>2021-05-28T12:17:33Z</time>
      </trkpt>
      <trkpt lat="45.46255" lon="6.57809">
        <ele>1030</ele>
        <time>2021-05-28T12:17:34Z</time>
      </trkpt>
      <trkpt lat="45.46249" lon="6.57807">
        <ele>1030.2</ele>
        <time>2021-05-28T12:17:35Z</time>
      </trkpt>
      <trkpt lat="45.46243" lon="6.57806">
        <ele>1030.6</ele>
        <time>2021-05-28T12:17:36Z</time>
      </trkpt>
      <trkpt lat="45.46236" lon="6.57806">
        <ele>1030.8</ele>
        <time>2021-05-28T12:17:37Z</time>
      </trkpt>
      <trkpt lat="45.4623" lon="6.57808">
        <ele>1031.2</ele>
        <time>2021-05-28T12:17:38Z</time>
      </trkpt>
      <trkpt lat="45.46224" lon="6.5781">
        <ele>1031.6</ele>
        <time>2021-05-28T12:17:39Z</time>
      </trkpt>
      <trkpt lat="45.46217" lon="6.57812">
        <ele>1031.8</ele>
        <time>2021-05-28T12:17:40Z</time>
      </trkpt>
      <trkpt lat="45.46211" lon="6.57815">
        <ele>1032.4</ele>
        <time>2021-05-28T12:17:41Z</time>
      </trkpt>
      <trkpt lat="45.46204" lon="6.57819">
        <ele>1033</ele>
        <time>2021-05-28T12:17:42Z</time>
      </trkpt>
      <trkpt lat="45.46198" lon="6.57821">
        <ele>1033.6</ele>
        <time>2021-05-28T12:17:43Z</time>
      </trkpt>
      <trkpt lat="45.46191" lon="6.57824">
        <ele>1033.6</ele>
        <time>2021-05-28T12:17:44Z</time>
      </trkpt>
      <trkpt lat="45.46184" lon="6.57825">
        <ele>1033.8</ele>
        <time>2021-05-28T12:17:45Z</time>
      </trkpt>
      <trkpt lat="45.46177" lon="6.57827">
        <ele>1033.8</ele>
        <time>2021-05-28T12:17:46Z</time>
      </trkpt>
      <trkpt lat="45.4617" lon="6.57829">
        <ele>1034.2</ele>
        <time>2021-05-28T12:17:47Z</time>
      </trkpt>
      <trkpt lat="45.46163" lon="6.57831">
        <ele>1034.2</ele>
        <time>2021-05-28T12:17:48Z</time>
      </trkpt>
      <trkpt lat="45.46156" lon="6.57835">
        <ele>1034.8</ele>
        <time>2021-05-28T12:17:49Z</time>
      </trkpt>
      <trkpt lat="45.46149" lon="6.57839">
        <ele>1035</ele>
        <time>2021-05-28T12:17:50Z</time>
      </trkpt>
      <trkpt lat="45.46143" lon="6.57845">
        <ele>1035.4</ele>
        <time>2021-05-28T12:17:51Z</time>
      </trkpt>
      <trkpt lat="45.46136" lon="6.5785">
        <ele>1035.8</ele>
        <time>2021-05-28T12:17:52Z</time>
      </trkpt>
      <trkpt lat="45.46129" lon="6.57854">
        <ele>1035.8</ele>
        <time>2021-05-28T12:17:53Z</time>
      </trkpt>
      <trkpt lat="45.46121" lon="6.57859">
        <ele>1036.2</ele>
        <time>2021-05-28T12:17:54Z</time>
      </trkpt>
      <trkpt lat="45.46114" lon="6.57864">
        <ele>1036.2</ele>
        <time>2021-05-28T12:17:55Z</time>
      </trkpt>
      <trkpt lat="45.46108" lon="6.5787">
        <ele>1036.4</ele>
        <time>2021-05-28T12:17:56Z</time>
      </trkpt>
      <trkpt lat="45.46103" lon="6.57878">
        <ele>1036.6</ele>
        <time>2021-05-28T12:17:57Z</time>
      </trkpt>
      <trkpt lat="45.46098" lon="6.57886">
        <ele>1036.6</ele>
        <time>2021-05-28T12:17:58Z</time>
      </trkpt>
      <trkpt lat="45.46093" lon="6.57896">
        <ele>1036.8</ele>
        <time>2021-05-28T12:17:59Z</time>
      </trkpt>
      <trkpt lat="45.46089" lon="6.57905">
        <ele>1037</ele>
        <time>2021-05-28T12:18:00Z</time>
      </trkpt>
      <trkpt lat="45.46085" lon="6.57915">
        <ele>1037.2</ele>
        <time>2021-05-28T12:18:01Z</time>
      </trkpt>
      <trkpt lat="45.46081" lon="6.57926">
        <ele>1037.2</ele>
        <time>2021-05-28T12:18:02Z</time>
      </trkpt>
      <trkpt lat="45.46076" lon="6.57937">
        <ele>1037.2</ele>
        <time>2021-05-28T12:18:03Z</time>
      </trkpt>
      <trkpt lat="45.46072" lon="6.57947">
        <ele>1037</ele>
        <time>2021-05-28T12:18:04Z</time>
      </trkpt>
      <trkpt lat="45.46068" lon="6.57958">
        <ele>1036.8</ele>
        <time>2021-05-28T12:18:05Z</time>
      </trkpt>
      <trkpt lat="45.46065" lon="6.57968">
        <ele>1036.8</ele>
        <time>2021-05-28T12:18:06Z</time>
      </trkpt>
      <trkpt lat="45.46062" lon="6.57979">
        <ele>1036.6</ele>
        <time>2021-05-28T12:18:07Z</time>
      </trkpt>
      <trkpt lat="45.46058" lon="6.5799">
        <ele>1036.6</ele>
        <time>2021-05-28T12:18:08Z</time>
      </trkpt>
      <trkpt lat="45.46054" lon="6.58">
        <ele>1036.4</ele>
        <time>2021-05-28T12:18:09Z</time>
      </trkpt>
      <trkpt lat="45.46051" lon="6.5801">
        <ele>1036.4</ele>
        <time>2021-05-28T12:18:10Z</time>
      </trkpt>
      <trkpt lat="45.46046" lon="6.58019">
        <ele>1036.2</ele>
        <time>2021-05-28T12:18:11Z</time>
      </trkpt>
      <trkpt lat="45.46041" lon="6.58027">
        <ele>1036.4</ele>
        <time>2021-05-28T12:18:12Z</time>
      </trkpt>
      <trkpt lat="45.46036" lon="6.58034">
        <ele>1036.6</ele>
        <time>2021-05-28T12:18:13Z</time>
      </trkpt>
      <trkpt lat="45.46031" lon="6.58041">
        <ele>1037</ele>
        <time>2021-05-28T12:18:14Z</time>
      </trkpt>
      <trkpt lat="45.46026" lon="6.58047">
        <ele>1037.2</ele>
        <time>2021-05-28T12:18:15Z</time>
      </trkpt>
      <trkpt lat="45.4602" lon="6.58053">
        <ele>1037.4</ele>
        <time>2021-05-28T12:18:16Z</time>
      </trkpt>
      <trkpt lat="45.46015" lon="6.58059">
        <ele>1037.2</ele>
        <time>2021-05-28T12:18:17Z</time>
      </trkpt>
      <trkpt lat="45.46009" lon="6.58065">
        <ele>1037</ele>
        <time>2021-05-28T12:18:18Z</time>
      </trkpt>
      <trkpt lat="45.46003" lon="6.5807">
        <ele>1037.4</ele>
        <time>2021-05-28T12:18:19Z</time>
      </trkpt>
      <trkpt lat="45.45997" lon="6.58075">
        <ele>1037.4</ele>
        <time>2021-05-28T12:18:20Z</time>
      </trkpt>
      <trkpt lat="45.45991" lon="6.5808">
        <ele>1037.4</ele>
        <time>2021-05-28T12:18:21Z</time>
      </trkpt>
      <trkpt lat="45.45985" lon="6.58085">
        <ele>1037.2</ele>
        <time>2021-05-28T12:18:22Z</time>
      </trkpt>
      <trkpt lat="45.4598" lon="6.5809">
        <ele>1036.8</ele>
        <time>2021-05-28T12:18:23Z</time>
      </trkpt>
      <trkpt lat="45.45974" lon="6.58096">
        <ele>1036.4</ele>
        <time>2021-05-28T12:18:24Z</time>
      </trkpt>
      <trkpt lat="45.4597" lon="6.58103">
        <ele>1036.4</ele>
        <time>2021-05-28T12:18:25Z</time>
      </trkpt>
      <trkpt lat="45.45967" lon="6.5811">
        <ele>1036.4</ele>
        <time>2021-05-28T12:18:26Z</time>
      </trkpt>
      <trkpt lat="45.45964" lon="6.58118">
        <ele>1036.4</ele>
        <time>2021-05-28T12:18:27Z</time>
      </trkpt>
      <trkpt lat="45.45961" lon="6.58127">
        <ele>1036.6</ele>
        <time>2021-05-28T12:18:28Z</time>
      </trkpt>
      <trkpt lat="45.45959" lon="6.58135">
        <ele>1036.4</ele>
        <time>2021-05-28T12:18:29Z</time>
      </trkpt>
      <trkpt lat="45.45957" lon="6.58144">
        <ele>1036.6</ele>
        <time>2021-05-28T12:18:30Z</time>
      </trkpt>
      <trkpt lat="45.45955" lon="6.58153">
        <ele>1036.6</ele>
        <time>2021-05-28T12:18:31Z</time>
      </trkpt>
      <trkpt lat="45.45953" lon="6.58162">
        <ele>1036.8</ele>
        <time>2021-05-28T12:18:32Z</time>
      </trkpt>
      <trkpt lat="45.4595" lon="6.58171">
        <ele>1036.8</ele>
        <time>2021-05-28T12:18:33Z</time>
      </trkpt>
      <trkpt lat="45.45948" lon="6.58179">
        <ele>1037</ele>
        <time>2021-05-28T12:18:34Z</time>
      </trkpt>
      <trkpt lat="45.45945" lon="6.58187">
        <ele>1037.6</ele>
        <time>2021-05-28T12:18:35Z</time>
      </trkpt>
      <trkpt lat="45.45941" lon="6.58195">
        <ele>1037.8</ele>
        <time>2021-05-28T12:18:36Z</time>
      </trkpt>
      <trkpt lat="45.45938" lon="6.58203">
        <ele>1038</ele>
        <time>2021-05-28T12:18:37Z</time>
      </trkpt>
      <trkpt lat="45.45935" lon="6.58212">
        <ele>1038</ele>
        <time>2021-05-28T12:18:38Z</time>
      </trkpt>
      <trkpt lat="45.45931" lon="6.5822">
        <ele>1038</ele>
        <time>2021-05-28T12:18:39Z</time>
      </trkpt>
      <trkpt lat="45.45928" lon="6.58228">
        <ele>1038.2</ele>
        <time>2021-05-28T12:18:40Z</time>
      </trkpt>
      <trkpt lat="45.45924" lon="6.58237">
        <ele>1038.4</ele>
        <time>2021-05-28T12:18:41Z</time>
      </trkpt>
      <trkpt lat="45.45921" lon="6.58245">
        <ele>1038.4</ele>
        <time>2021-05-28T12:18:42Z</time>
      </trkpt>
      <trkpt lat="45.45917" lon="6.58253">
        <ele>1038.6</ele>
        <time>2021-05-28T12:18:43Z</time>
      </trkpt>
      <trkpt lat="45.45915" lon="6.58261">
        <ele>1038.6</ele>
        <time>2021-05-28T12:18:44Z</time>
      </trkpt>
      <trkpt lat="45.45911" lon="6.58269">
        <ele>1038.8</ele>
        <time>2021-05-28T12:18:45Z</time>
      </trkpt>
      <trkpt lat="45.45909" lon="6.58277">
        <ele>1039</ele>
        <time>2021-05-28T12:18:46Z</time>
      </trkpt>
      <trkpt lat="45.45907" lon="6.58286">
        <ele>1039.2</ele>
        <time>2021-05-28T12:18:47Z</time>
      </trkpt>
      <trkpt lat="45.45905" lon="6.58294">
        <ele>1039.4</ele>
        <time>2021-05-28T12:18:48Z</time>
      </trkpt>
      <trkpt lat="45.45902" lon="6.58302">
        <ele>1039.6</ele>
        <time>2021-05-28T12:18:49Z</time>
      </trkpt>
      <trkpt lat="45.459" lon="6.5831">
        <ele>1039.8</ele>
        <time>2021-05-28T12:18:50Z</time>
      </trkpt>
      <trkpt lat="45.45897" lon="6.58317">
        <ele>1039.8</ele>
        <time>2021-05-28T12:18:51Z</time>
      </trkpt>
      <trkpt lat="45.45893" lon="6.58324">
        <ele>1039.4</ele>
        <time>2021-05-28T12:18:52Z</time>
      </trkpt>
      <trkpt lat="45.4589" lon="6.5833">
        <ele>1039.4</ele>
        <time>2021-05-28T12:18:53Z</time>
      </trkpt>
      <trkpt lat="45.45886" lon="6.58337">
        <ele>1039.4</ele>
        <time>2021-05-28T12:18:54Z</time>
      </trkpt>
      <trkpt lat="45.45883" lon="6.58343">
        <ele>1039.4</ele>
        <time>2021-05-28T12:18:55Z</time>
      </trkpt>
      <trkpt lat="45.45878" lon="6.58348">
        <ele>1039.6</ele>
        <time>2021-05-28T12:18:56Z</time>
      </trkpt>
      <trkpt lat="45.45874" lon="6.58354">
        <ele>1039.6</ele>
        <time>2021-05-28T12:18:57Z</time>
      </trkpt>
      <trkpt lat="45.4587" lon="6.5836">
        <ele>1040</ele>
        <time>2021-05-28T12:18:58Z</time>
      </trkpt>
      <trkpt lat="45.45866" lon="6.58365">
        <ele>1039.8</ele>
        <time>2021-05-28T12:18:59Z</time>
      </trkpt>
      <trkpt lat="45.45862" lon="6.58371">
        <ele>1039.8</ele>
        <time>2021-05-28T12:19:00Z</time>
      </trkpt>
      <trkpt lat="45.45858" lon="6.58377">
        <ele>1040.2</ele>
        <time>2021-05-28T12:19:01Z</time>
      </trkpt>
      <trkpt lat="45.45854" lon="6.58383">
        <ele>1040.4</ele>
        <time>2021-05-28T12:19:02Z</time>
      </trkpt>
      <trkpt lat="45.4585" lon="6.5839">
        <ele>1040.4</ele>
        <time>2021-05-28T12:19:03Z</time>
      </trkpt>
      <trkpt lat="45.45847" lon="6.58396">
        <ele>1040.6</ele>
        <time>2021-05-28T12:19:04Z</time>
      </trkpt>
      <trkpt lat="45.45845" lon="6.58403">
        <ele>1040.8</ele>
        <time>2021-05-28T12:19:05Z</time>
      </trkpt>
      <trkpt lat="45.45842" lon="6.58411">
        <ele>1041</ele>
        <time>2021-05-28T12:19:06Z</time>
      </trkpt>
      <trkpt lat="45.4584" lon="6.58418">
        <ele>1041.2</ele>
        <time>2021-05-28T12:19:07Z</time>
      </trkpt>
      <trkpt lat="45.45839" lon="6.58425">
        <ele>1041.2</ele>
        <time>2021-05-28T12:19:08Z</time>
      </trkpt>
      <trkpt lat="45.45837" lon="6.58433">
        <ele>1041.4</ele>
        <time>2021-05-28T12:19:09Z</time>
      </trkpt>
      <trkpt lat="45.45836" lon="6.58442">
        <ele>1041.6</ele>
        <time>2021-05-28T12:19:10Z</time>
      </trkpt>
      <trkpt lat="45.45835" lon="6.58451">
        <ele>1041.8</ele>
        <time>2021-05-28T12:19:11Z</time>
      </trkpt>
      <trkpt lat="45.45833" lon="6.58459">
        <ele>1042.2</ele>
        <time>2021-05-28T12:19:12Z</time>
      </trkpt>
      <trkpt lat="45.45832" lon="6.58468">
        <ele>1042.4</ele>
        <time>2021-05-28T12:19:13Z</time>
      </trkpt>
      <trkpt lat="45.4583" lon="6.58477">
        <ele>1042.8</ele>
        <time>2021-05-28T12:19:14Z</time>
      </trkpt>
      <trkpt lat="45.45828" lon="6.58486">
        <ele>1043</ele>
        <time>2021-05-28T12:19:15Z</time>
      </trkpt>
      <trkpt lat="45.45828" lon="6.58495">
        <ele>1043.2</ele>
        <time>2021-05-28T12:19:16Z</time>
      </trkpt>
      <trkpt lat="45.45828" lon="6.58504">
        <ele>1043.2</ele>
        <time>2021-05-28T12:19:17Z</time>
      </trkpt>
      <trkpt lat="45.45828" lon="6.58513">
        <ele>1043.2</ele>
        <time>2021-05-28T12:19:18Z</time>
      </trkpt>
      <trkpt lat="45.45828" lon="6.58523">
        <ele>1043</ele>
        <time>2021-05-28T12:19:19Z</time>
      </trkpt>
      <trkpt lat="45.45828" lon="6.58532">
        <ele>1043.2</ele>
        <time>2021-05-28T12:19:20Z</time>
      </trkpt>
      <trkpt lat="45.45828" lon="6.58541">
        <ele>1042.8</ele>
        <time>2021-05-28T12:19:21Z</time>
      </trkpt>
      <trkpt lat="45.45827" lon="6.5855">
        <ele>1042.8</ele>
        <time>2021-05-28T12:19:22Z</time>
      </trkpt>
      <trkpt lat="45.45827" lon="6.5856">
        <ele>1042.8</ele>
        <time>2021-05-28T12:19:23Z</time>
      </trkpt>
      <trkpt lat="45.45827" lon="6.58569">
        <ele>1043</ele>
        <time>2021-05-28T12:19:24Z</time>
      </trkpt>
      <trkpt lat="45.45828" lon="6.58578">
        <ele>1043</ele>
        <time>2021-05-28T12:19:25Z</time>
      </trkpt>
      <trkpt lat="45.45828" lon="6.58587">
        <ele>1043</ele>
        <time>2021-05-28T12:19:26Z</time>
      </trkpt>
      <trkpt lat="45.4583" lon="6.58596">
        <ele>1043</ele>
        <time>2021-05-28T12:19:27Z</time>
      </trkpt>
      <trkpt lat="45.45831" lon="6.58605">
        <ele>1043.4</ele>
        <time>2021-05-28T12:19:28Z</time>
      </trkpt>
      <trkpt lat="45.45832" lon="6.58614">
        <ele>1043.6</ele>
        <time>2021-05-28T12:19:29Z</time>
      </trkpt>
      <trkpt lat="45.45834" lon="6.58623">
        <ele>1044</ele>
        <time>2021-05-28T12:19:30Z</time>
      </trkpt>
      <trkpt lat="45.45834" lon="6.58632">
        <ele>1044</ele>
        <time>2021-05-28T12:19:31Z</time>
      </trkpt>
      <trkpt lat="45.45836" lon="6.58641">
        <ele>1043.8</ele>
        <time>2021-05-28T12:19:32Z</time>
      </trkpt>
      <trkpt lat="45.45836" lon="6.5865">
        <ele>1044</ele>
        <time>2021-05-28T12:19:33Z</time>
      </trkpt>
      <trkpt lat="45.45837" lon="6.58659">
        <ele>1044.2</ele>
        <time>2021-05-28T12:19:34Z</time>
      </trkpt>
      <trkpt lat="45.45836" lon="6.58667">
        <ele>1044.6</ele>
        <time>2021-05-28T12:19:35Z</time>
      </trkpt>
      <trkpt lat="45.45836" lon="6.58675">
        <ele>1045</ele>
        <time>2021-05-28T12:19:36Z</time>
      </trkpt>
      <trkpt lat="45.45835" lon="6.58683">
        <ele>1045.2</ele>
        <time>2021-05-28T12:19:37Z</time>
      </trkpt>
      <trkpt lat="45.45833" lon="6.58691">
        <ele>1045.6</ele>
        <time>2021-05-28T12:19:38Z</time>
      </trkpt>
      <trkpt lat="45.4583" lon="6.58699">
        <ele>1046</ele>
        <time>2021-05-28T12:19:39Z</time>
      </trkpt>
      <trkpt lat="45.45828" lon="6.58706">
        <ele>1046.4</ele>
        <time>2021-05-28T12:19:40Z</time>
      </trkpt>
      <trkpt lat="45.45826" lon="6.58714">
        <ele>1047</ele>
        <time>2021-05-28T12:19:41Z</time>
      </trkpt>
      <trkpt lat="45.45824" lon="6.58723">
        <ele>1047.4</ele>
        <time>2021-05-28T12:19:42Z</time>
      </trkpt>
      <trkpt lat="45.45823" lon="6.58731">
        <ele>1047.8</ele>
        <time>2021-05-28T12:19:43Z</time>
      </trkpt>
      <trkpt lat="45.45822" lon="6.58739">
        <ele>1048</ele>
        <time>2021-05-28T12:19:44Z</time>
      </trkpt>
      <trkpt lat="45.45821" lon="6.58747">
        <ele>1048.4</ele>
        <time>2021-05-28T12:19:45Z</time>
      </trkpt>
      <trkpt lat="45.4582" lon="6.58756">
        <ele>1048.6</ele>
        <time>2021-05-28T12:19:46Z</time>
      </trkpt>
      <trkpt lat="45.45819" lon="6.58764">
        <ele>1048.8</ele>
        <time>2021-05-28T12:19:47Z</time>
      </trkpt>
      <trkpt lat="45.45818" lon="6.58773">
        <ele>1049</ele>
        <time>2021-05-28T12:19:48Z</time>
      </trkpt>
      <trkpt lat="45.45817" lon="6.58782">
        <ele>1049.4</ele>
        <time>2021-05-28T12:19:49Z</time>
      </trkpt>
      <trkpt lat="45.45817" lon="6.5879">
        <ele>1049.6</ele>
        <time>2021-05-28T12:19:50Z</time>
      </trkpt>
      <trkpt lat="45.45816" lon="6.58799">
        <ele>1050</ele>
        <time>2021-05-28T12:19:51Z</time>
      </trkpt>
      <trkpt lat="45.45816" lon="6.58808">
        <ele>1050.2</ele>
        <time>2021-05-28T12:19:52Z</time>
      </trkpt>
      <trkpt lat="45.45815" lon="6.58817">
        <ele>1049.8</ele>
        <time>2021-05-28T12:19:53Z</time>
      </trkpt>
      <trkpt lat="45.45814" lon="6.58826">
        <ele>1049.8</ele>
        <time>2021-05-28T12:19:54Z</time>
      </trkpt>
      <trkpt lat="45.45812" lon="6.58834">
        <ele>1049.8</ele>
        <time>2021-05-28T12:19:55Z</time>
      </trkpt>
      <trkpt lat="45.45811" lon="6.58842">
        <ele>1050</ele>
        <time>2021-05-28T12:19:56Z</time>
      </trkpt>
      <trkpt lat="45.4581" lon="6.5885">
        <ele>1050.2</ele>
        <time>2021-05-28T12:19:57Z</time>
      </trkpt>
      <trkpt lat="45.45809" lon="6.58859">
        <ele>1050.2</ele>
        <time>2021-05-28T12:19:58Z</time>
      </trkpt>
      <trkpt lat="45.45808" lon="6.58867">
        <ele>1050.6</ele>
        <time>2021-05-28T12:19:59Z</time>
      </trkpt>
      <trkpt lat="45.45806" lon="6.58875">
        <ele>1050.6</ele>
        <time>2021-05-28T12:20:00Z</time>
      </trkpt>
      <trkpt lat="45.45804" lon="6.58882">
        <ele>1051.2</ele>
        <time>2021-05-28T12:20:01Z</time>
      </trkpt>
      <trkpt lat="45.45803" lon="6.58889">
        <ele>1051.4</ele>
        <time>2021-05-28T12:20:02Z</time>
      </trkpt>
      <trkpt lat="45.458" lon="6.58895">
        <ele>1051.6</ele>
        <time>2021-05-28T12:20:03Z</time>
      </trkpt>
      <trkpt lat="45.45798" lon="6.589">
        <ele>1051.8</ele>
        <time>2021-05-28T12:20:04Z</time>
      </trkpt>
      <trkpt lat="45.45795" lon="6.58906">
        <ele>1052.2</ele>
        <time>2021-05-28T12:20:05Z</time>
      </trkpt>
      <trkpt lat="45.45792" lon="6.5891">
        <ele>1052.4</ele>
        <time>2021-05-28T12:20:06Z</time>
      </trkpt>
      <trkpt lat="45.45788" lon="6.58914">
        <ele>1052.6</ele>
        <time>2021-05-28T12:20:07Z</time>
      </trkpt>
      <trkpt lat="45.45784" lon="6.58919">
        <ele>1053</ele>
        <time>2021-05-28T12:20:08Z</time>
      </trkpt>
      <trkpt lat="45.4578" lon="6.58923">
        <ele>1053</ele>
        <time>2021-05-28T12:20:09Z</time>
      </trkpt>
      <trkpt lat="45.45776" lon="6.58927">
        <ele>1053.2</ele>
        <time>2021-05-28T12:20:10Z</time>
      </trkpt>
      <trkpt lat="45.45772" lon="6.5893">
        <ele>1053.2</ele>
        <time>2021-05-28T12:20:11Z</time>
      </trkpt>
      <trkpt lat="45.45767" lon="6.58933">
        <ele>1053</ele>
        <time>2021-05-28T12:20:12Z</time>
      </trkpt>
      <trkpt lat="45.45762" lon="6.58936">
        <ele>1053.2</ele>
        <time>2021-05-28T12:20:13Z</time>
      </trkpt>
      <trkpt lat="45.45756" lon="6.58939">
        <ele>1053.4</ele>
        <time>2021-05-28T12:20:14Z</time>
      </trkpt>
      <trkpt lat="45.45752" lon="6.5894">
        <ele>1053.4</ele>
        <time>2021-05-28T12:20:15Z</time>
      </trkpt>
      <trkpt lat="45.45747" lon="6.58942">
        <ele>1053.2</ele>
        <time>2021-05-28T12:20:16Z</time>
      </trkpt>
      <trkpt lat="45.45741" lon="6.58943">
        <ele>1053</ele>
        <time>2021-05-28T12:20:17Z</time>
      </trkpt>
      <trkpt lat="45.45736" lon="6.58943">
        <ele>1053</ele>
        <time>2021-05-28T12:20:18Z</time>
      </trkpt>
      <trkpt lat="45.45731" lon="6.58944">
        <ele>1052.8</ele>
        <time>2021-05-28T12:20:19Z</time>
      </trkpt>
      <trkpt lat="45.45726" lon="6.58944">
        <ele>1052.4</ele>
        <time>2021-05-28T12:20:20Z</time>
      </trkpt>
      <trkpt lat="45.45721" lon="6.58945">
        <ele>1052.6</ele>
        <time>2021-05-28T12:20:21Z</time>
      </trkpt>
      <trkpt lat="45.45716" lon="6.58946">
        <ele>1052.6</ele>
        <time>2021-05-28T12:20:22Z</time>
      </trkpt>
      <trkpt lat="45.45711" lon="6.58947">
        <ele>1052.4</ele>
        <time>2021-05-28T12:20:23Z</time>
      </trkpt>
      <trkpt lat="45.45707" lon="6.58948">
        <ele>1052.4</ele>
        <time>2021-05-28T12:20:24Z</time>
      </trkpt>
      <trkpt lat="45.45701" lon="6.58949">
        <ele>1052.2</ele>
        <time>2021-05-28T12:20:25Z</time>
      </trkpt>
      <trkpt lat="45.45697" lon="6.5895">
        <ele>1052.4</ele>
        <time>2021-05-28T12:20:26Z</time>
      </trkpt>
      <trkpt lat="45.45692" lon="6.58953">
        <ele>1052.4</ele>
        <time>2021-05-28T12:20:27Z</time>
      </trkpt>
      <trkpt lat="45.45688" lon="6.58956">
        <ele>1052.4</ele>
        <time>2021-05-28T12:20:28Z</time>
      </trkpt>
      <trkpt lat="45.45684" lon="6.5896">
        <ele>1052.4</ele>
        <time>2021-05-28T12:20:29Z</time>
      </trkpt>
      <trkpt lat="45.4568" lon="6.58966">
        <ele>1052.6</ele>
        <time>2021-05-28T12:20:30Z</time>
      </trkpt>
      <trkpt lat="45.45675" lon="6.58971">
        <ele>1052.8</ele>
        <time>2021-05-28T12:20:31Z</time>
      </trkpt>
      <trkpt lat="45.4567" lon="6.58976">
        <ele>1052.8</ele>
        <time>2021-05-28T12:20:32Z</time>
      </trkpt>
      <trkpt lat="45.45665" lon="6.5898">
        <ele>1053</ele>
        <time>2021-05-28T12:20:33Z</time>
      </trkpt>
      <trkpt lat="45.4566" lon="6.58984">
        <ele>1053.2</ele>
        <time>2021-05-28T12:20:34Z</time>
      </trkpt>
      <trkpt lat="45.45654" lon="6.58988">
        <ele>1053.6</ele>
        <time>2021-05-28T12:20:35Z</time>
      </trkpt>
      <trkpt lat="45.45649" lon="6.58992">
        <ele>1054</ele>
        <time>2021-05-28T12:20:36Z</time>
      </trkpt>
      <trkpt lat="45.45643" lon="6.58996">
        <ele>1054.2</ele>
        <time>2021-05-28T12:20:37Z</time>
      </trkpt>
      <trkpt lat="45.45638" lon="6.58999">
        <ele>1054.2</ele>
        <time>2021-05-28T12:20:38Z</time>
      </trkpt>
      <trkpt lat="45.45633" lon="6.59003">
        <ele>1054.4</ele>
        <time>2021-05-28T12:20:39Z</time>
      </trkpt>
      <trkpt lat="45.45628" lon="6.59006">
        <ele>1054.6</ele>
        <time>2021-05-28T12:20:40Z</time>
      </trkpt>
      <trkpt lat="45.45623" lon="6.59009">
        <ele>1055</ele>
        <time>2021-05-28T12:20:41Z</time>
      </trkpt>
      <trkpt lat="45.45619" lon="6.59012">
        <ele>1055.4</ele>
        <time>2021-05-28T12:20:42Z</time>
      </trkpt>
      <trkpt lat="45.45615" lon="6.59015">
        <ele>1055.6</ele>
        <time>2021-05-28T12:20:43Z</time>
      </trkpt>
      <trkpt lat="45.45611" lon="6.59018">
        <ele>1055.6</ele>
        <time>2021-05-28T12:20:44Z</time>
      </trkpt>
      <trkpt lat="45.45606" lon="6.5902">
        <ele>1055.8</ele>
        <time>2021-05-28T12:20:45Z</time>
      </trkpt>
      <trkpt lat="45.45602" lon="6.59024">
        <ele>1055.8</ele>
        <time>2021-05-28T12:20:46Z</time>
      </trkpt>
      <trkpt lat="45.45598" lon="6.59028">
        <ele>1056.2</ele>
        <time>2021-05-28T12:20:47Z</time>
      </trkpt>
      <trkpt lat="45.45594" lon="6.59034">
        <ele>1056</ele>
        <time>2021-05-28T12:20:48Z</time>
      </trkpt>
      <trkpt lat="45.45591" lon="6.5904">
        <ele>1056</ele>
        <time>2021-05-28T12:20:49Z</time>
      </trkpt>
      <trkpt lat="45.45588" lon="6.59047">
        <ele>1056</ele>
        <time>2021-05-28T12:20:50Z</time>
      </trkpt>
      <trkpt lat="45.45585" lon="6.59055">
        <ele>1056</ele>
        <time>2021-05-28T12:20:51Z</time>
      </trkpt>
      <trkpt lat="45.45583" lon="6.59063">
        <ele>1055.8</ele>
        <time>2021-05-28T12:20:52Z</time>
      </trkpt>
      <trkpt lat="45.45582" lon="6.59071">
        <ele>1055.8</ele>
        <time>2021-05-28T12:20:53Z</time>
      </trkpt>
      <trkpt lat="45.45582" lon="6.5908">
        <ele>1055.8</ele>
        <time>2021-05-28T12:20:54Z</time>
      </trkpt>
      <trkpt lat="45.45583" lon="6.5909">
        <ele>1055.8</ele>
        <time>2021-05-28T12:20:55Z</time>
      </trkpt>
      <trkpt lat="45.45586" lon="6.59099">
        <ele>1055.8</ele>
        <time>2021-05-28T12:20:56Z</time>
      </trkpt>
      <trkpt lat="45.45589" lon="6.59109">
        <ele>1055.8</ele>
        <time>2021-05-28T12:20:57Z</time>
      </trkpt>
      <trkpt lat="45.45592" lon="6.59119">
        <ele>1055.6</ele>
        <time>2021-05-28T12:20:58Z</time>
      </trkpt>
      <trkpt lat="45.45595" lon="6.5913">
        <ele>1055.4</ele>
        <time>2021-05-28T12:20:59Z</time>
      </trkpt>
      <trkpt lat="45.45597" lon="6.59141">
        <ele>1055.4</ele>
        <time>2021-05-28T12:21:00Z</time>
      </trkpt>
      <trkpt lat="45.456" lon="6.59152">
        <ele>1055.6</ele>
        <time>2021-05-28T12:21:01Z</time>
      </trkpt>
      <trkpt lat="45.45602" lon="6.59164">
        <ele>1055.8</ele>
        <time>2021-05-28T12:21:02Z</time>
      </trkpt>
      <trkpt lat="45.45603" lon="6.59177">
        <ele>1055.6</ele>
        <time>2021-05-28T12:21:03Z</time>
      </trkpt>
      <trkpt lat="45.45602" lon="6.59189">
        <ele>1055.2</ele>
        <time>2021-05-28T12:21:04Z</time>
      </trkpt>
      <trkpt lat="45.45599" lon="6.59201">
        <ele>1055</ele>
        <time>2021-05-28T12:21:05Z</time>
      </trkpt>
      <trkpt lat="45.45594" lon="6.5921">
        <ele>1055</ele>
        <time>2021-05-28T12:21:06Z</time>
      </trkpt>
      <trkpt lat="45.45588" lon="6.59218">
        <ele>1054.8</ele>
        <time>2021-05-28T12:21:07Z</time>
      </trkpt>
      <trkpt lat="45.45581" lon="6.59225">
        <ele>1054.4</ele>
        <time>2021-05-28T12:21:08Z</time>
      </trkpt>
      <trkpt lat="45.45575" lon="6.59233">
        <ele>1054.8</ele>
        <time>2021-05-28T12:21:09Z</time>
      </trkpt>
      <trkpt lat="45.45568" lon="6.59239">
        <ele>1055.2</ele>
        <time>2021-05-28T12:21:10Z</time>
      </trkpt>
      <trkpt lat="45.45564" lon="6.59247">
        <ele>1055.2</ele>
        <time>2021-05-28T12:21:11Z</time>
      </trkpt>
      <trkpt lat="45.45559" lon="6.59255">
        <ele>1055.2</ele>
        <time>2021-05-28T12:21:12Z</time>
      </trkpt>
      <trkpt lat="45.45557" lon="6.59263">
        <ele>1054.6</ele>
        <time>2021-05-28T12:21:13Z</time>
      </trkpt>
      <trkpt lat="45.45556" lon="6.59272">
        <ele>1054.4</ele>
        <time>2021-05-28T12:21:14Z</time>
      </trkpt>
      <trkpt lat="45.45555" lon="6.59282">
        <ele>1054.2</ele>
        <time>2021-05-28T12:21:15Z</time>
      </trkpt>
      <trkpt lat="45.45556" lon="6.59291">
        <ele>1054.2</ele>
        <time>2021-05-28T12:21:16Z</time>
      </trkpt>
      <trkpt lat="45.45558" lon="6.593">
        <ele>1054.2</ele>
        <time>2021-05-28T12:21:17Z</time>
      </trkpt>
      <trkpt lat="45.4556" lon="6.5931">
        <ele>1054.2</ele>
        <time>2021-05-28T12:21:18Z</time>
      </trkpt>
      <trkpt lat="45.45562" lon="6.59319">
        <ele>1054.4</ele>
        <time>2021-05-28T12:21:19Z</time>
      </trkpt>
      <trkpt lat="45.45562" lon="6.59329">
        <ele>1054.8</ele>
        <time>2021-05-28T12:21:20Z</time>
      </trkpt>
      <trkpt lat="45.45561" lon="6.59338">
        <ele>1054.8</ele>
        <time>2021-05-28T12:21:21Z</time>
      </trkpt>
      <trkpt lat="45.45557" lon="6.59346">
        <ele>1054.8</ele>
        <time>2021-05-28T12:21:22Z</time>
      </trkpt>
      <trkpt lat="45.45552" lon="6.59352">
        <ele>1055</ele>
        <time>2021-05-28T12:21:23Z</time>
      </trkpt>
      <trkpt lat="45.45546" lon="6.59358">
        <ele>1055</ele>
        <time>2021-05-28T12:21:24Z</time>
      </trkpt>
      <trkpt lat="45.4554" lon="6.59363">
        <ele>1055</ele>
        <time>2021-05-28T12:21:25Z</time>
      </trkpt>
      <trkpt lat="45.45533" lon="6.59367">
        <ele>1055</ele>
        <time>2021-05-28T12:21:26Z</time>
      </trkpt>
      <trkpt lat="45.45527" lon="6.59371">
        <ele>1055.2</ele>
        <time>2021-05-28T12:21:27Z</time>
      </trkpt>
      <trkpt lat="45.45521" lon="6.59375">
        <ele>1055.2</ele>
        <time>2021-05-28T12:21:28Z</time>
      </trkpt>
      <trkpt lat="45.45515" lon="6.59377">
        <ele>1055.2</ele>
        <time>2021-05-28T12:21:29Z</time>
      </trkpt>
      <trkpt lat="45.45509" lon="6.5938">
        <ele>1055.2</ele>
        <time>2021-05-28T12:21:30Z</time>
      </trkpt>
      <trkpt lat="45.45503" lon="6.59382">
        <ele>1055.4</ele>
        <time>2021-05-28T12:21:31Z</time>
      </trkpt>
      <trkpt lat="45.45498" lon="6.59384">
        <ele>1055.8</ele>
        <time>2021-05-28T12:21:32Z</time>
      </trkpt>
      <trkpt lat="45.45492" lon="6.59386">
        <ele>1056</ele>
        <time>2021-05-28T12:21:33Z</time>
      </trkpt>
      <trkpt lat="45.45487" lon="6.59387">
        <ele>1056</ele>
        <time>2021-05-28T12:21:34Z</time>
      </trkpt>
      <trkpt lat="45.45482" lon="6.59391">
        <ele>1056.2</ele>
        <time>2021-05-28T12:21:35Z</time>
      </trkpt>
      <trkpt lat="45.45478" lon="6.59396">
        <ele>1056</ele>
        <time>2021-05-28T12:21:36Z</time>
      </trkpt>
      <trkpt lat="45.45475" lon="6.59402">
        <ele>1056</ele>
        <time>2021-05-28T12:21:37Z</time>
      </trkpt>
      <trkpt lat="45.45474" lon="6.59409">
        <ele>1056.2</ele>
        <time>2021-05-28T12:21:38Z</time>
      </trkpt>
      <trkpt lat="45.45473" lon="6.59417">
        <ele>1056.2</ele>
        <time>2021-05-28T12:21:39Z</time>
      </trkpt>
      <trkpt lat="45.45474" lon="6.59425">
        <ele>1056.4</ele>
        <time>2021-05-28T12:21:40Z</time>
      </trkpt>
      <trkpt lat="45.45474" lon="6.59433">
        <ele>1056.6</ele>
        <time>2021-05-28T12:21:41Z</time>
      </trkpt>
      <trkpt lat="45.45474" lon="6.59441">
        <ele>1056.6</ele>
        <time>2021-05-28T12:21:42Z</time>
      </trkpt>
      <trkpt lat="45.45474" lon="6.59448">
        <ele>1056.6</ele>
        <time>2021-05-28T12:21:43Z</time>
      </trkpt>
      <trkpt lat="45.45474" lon="6.59456">
        <ele>1056.6</ele>
        <time>2021-05-28T12:21:44Z</time>
      </trkpt>
      <trkpt lat="45.45474" lon="6.59464">
        <ele>1056.4</ele>
        <time>2021-05-28T12:21:45Z</time>
      </trkpt>
      <trkpt lat="45.45474" lon="6.59472">
        <ele>1056.4</ele>
        <time>2021-05-28T12:21:46Z</time>
      </trkpt>
      <trkpt lat="45.45473" lon="6.5948">
        <ele>1056.2</ele>
        <time>2021-05-28T12:21:47Z</time>
      </trkpt>
      <trkpt lat="45.45472" lon="6.59487">
        <ele>1056</ele>
        <time>2021-05-28T12:21:48Z</time>
      </trkpt>
      <trkpt lat="45.4547" lon="6.59494">
        <ele>1056</ele>
        <time>2021-05-28T12:21:49Z</time>
      </trkpt>
      <trkpt lat="45.45468" lon="6.59501">
        <ele>1056</ele>
        <time>2021-05-28T12:21:50Z</time>
      </trkpt>
      <trkpt lat="45.45464" lon="6.59507">
        <ele>1056</ele>
        <time>2021-05-28T12:21:51Z</time>
      </trkpt>
      <trkpt lat="45.4546" lon="6.59512">
        <ele>1056.2</ele>
        <time>2021-05-28T12:21:52Z</time>
      </trkpt>
      <trkpt lat="45.45455" lon="6.59517">
        <ele>1056.8</ele>
        <time>2021-05-28T12:21:53Z</time>
      </trkpt>
      <trkpt lat="45.45451" lon="6.59521">
        <ele>1056.8</ele>
        <time>2021-05-28T12:21:54Z</time>
      </trkpt>
      <trkpt lat="45.45446" lon="6.59524">
        <ele>1057</ele>
        <time>2021-05-28T12:21:55Z</time>
      </trkpt>
      <trkpt lat="45.4544" lon="6.59527">
        <ele>1057.4</ele>
        <time>2021-05-28T12:21:56Z</time>
      </trkpt>
      <trkpt lat="45.45435" lon="6.59529">
        <ele>1057.6</ele>
        <time>2021-05-28T12:21:57Z</time>
      </trkpt>
      <trkpt lat="45.45429" lon="6.59531">
        <ele>1058.2</ele>
        <time>2021-05-28T12:21:58Z</time>
      </trkpt>
      <trkpt lat="45.45424" lon="6.59533">
        <ele>1058.6</ele>
        <time>2021-05-28T12:21:59Z</time>
      </trkpt>
      <trkpt lat="45.45419" lon="6.59534">
        <ele>1058.8</ele>
        <time>2021-05-28T12:22:00Z</time>
      </trkpt>
      <trkpt lat="45.45413" lon="6.59536">
        <ele>1059.4</ele>
        <time>2021-05-28T12:22:01Z</time>
      </trkpt>
      <trkpt lat="45.45408" lon="6.59538">
        <ele>1059.6</ele>
        <time>2021-05-28T12:22:02Z</time>
      </trkpt>
      <trkpt lat="45.45403" lon="6.59539">
        <ele>1059.8</ele>
        <time>2021-05-28T12:22:03Z</time>
      </trkpt>
      <trkpt lat="45.45398" lon="6.59541">
        <ele>1060.2</ele>
        <time>2021-05-28T12:22:04Z</time>
      </trkpt>
      <trkpt lat="45.45393" lon="6.59543">
        <ele>1060.2</ele>
        <time>2021-05-28T12:22:05Z</time>
      </trkpt>
      <trkpt lat="45.45388" lon="6.59547">
        <ele>1060.4</ele>
        <time>2021-05-28T12:22:06Z</time>
      </trkpt>
      <trkpt lat="45.45384" lon="6.59551">
        <ele>1060.4</ele>
        <time>2021-05-28T12:22:07Z</time>
      </trkpt>
      <trkpt lat="45.45381" lon="6.59555">
        <ele>1060.6</ele>
        <time>2021-05-28T12:22:08Z</time>
      </trkpt>
      <trkpt lat="45.45377" lon="6.59561">
        <ele>1060.6</ele>
        <time>2021-05-28T12:22:09Z</time>
      </trkpt>
      <trkpt lat="45.45375" lon="6.59568">
        <ele>1060.6</ele>
        <time>2021-05-28T12:22:10Z</time>
      </trkpt>
      <trkpt lat="45.45373" lon="6.59575">
        <ele>1060.6</ele>
        <time>2021-05-28T12:22:11Z</time>
      </trkpt>
      <trkpt lat="45.45371" lon="6.59582">
        <ele>1060.4</ele>
        <time>2021-05-28T12:22:12Z</time>
      </trkpt>
      <trkpt lat="45.45367" lon="6.59588">
        <ele>1060.2</ele>
        <time>2021-05-28T12:22:13Z</time>
      </trkpt>
      <trkpt lat="45.45364" lon="6.59594">
        <ele>1060</ele>
        <time>2021-05-28T12:22:14Z</time>
      </trkpt>
      <trkpt lat="45.45361" lon="6.59601">
        <ele>1060</ele>
        <time>2021-05-28T12:22:15Z</time>
      </trkpt>
      <trkpt lat="45.45357" lon="6.59607">
        <ele>1059.8</ele>
        <time>2021-05-28T12:22:16Z</time>
      </trkpt>
      <trkpt lat="45.45352" lon="6.59611">
        <ele>1059.8</ele>
        <time>2021-05-28T12:22:17Z</time>
      </trkpt>
      <trkpt lat="45.45348" lon="6.59615">
        <ele>1060</ele>
        <time>2021-05-28T12:22:18Z</time>
      </trkpt>
      <trkpt lat="45.45343" lon="6.5962">
        <ele>1060.2</ele>
        <time>2021-05-28T12:22:19Z</time>
      </trkpt>
      <trkpt lat="45.45339" lon="6.59624">
        <ele>1060.2</ele>
        <time>2021-05-28T12:22:20Z</time>
      </trkpt>
      <trkpt lat="45.45334" lon="6.59628">
        <ele>1060.4</ele>
        <time>2021-05-28T12:22:21Z</time>
      </trkpt>
      <trkpt lat="45.4533" lon="6.59632">
        <ele>1060.6</ele>
        <time>2021-05-28T12:22:22Z</time>
      </trkpt>
      <trkpt lat="45.45325" lon="6.59636">
        <ele>1060.8</ele>
        <time>2021-05-28T12:22:23Z</time>
      </trkpt>
      <trkpt lat="45.4532" lon="6.59641">
        <ele>1061</ele>
        <time>2021-05-28T12:22:24Z</time>
      </trkpt>
      <trkpt lat="45.45316" lon="6.59649">
        <ele>1061.2</ele>
        <time>2021-05-28T12:22:25Z</time>
      </trkpt>
      <trkpt lat="45.45313" lon="6.59656">
        <ele>1061.4</ele>
        <time>2021-05-28T12:22:26Z</time>
      </trkpt>
      <trkpt lat="45.45309" lon="6.59664">
        <ele>1061.2</ele>
        <time>2021-05-28T12:22:27Z</time>
      </trkpt>
      <trkpt lat="45.45306" lon="6.59672">
        <ele>1061.2</ele>
        <time>2021-05-28T12:22:28Z</time>
      </trkpt>
      <trkpt lat="45.45303" lon="6.59681">
        <ele>1061.4</ele>
        <time>2021-05-28T12:22:29Z</time>
      </trkpt>
      <trkpt lat="45.45301" lon="6.5969">
        <ele>1061.4</ele>
        <time>2021-05-28T12:22:30Z</time>
      </trkpt>
      <trkpt lat="45.45298" lon="6.597">
        <ele>1061.4</ele>
        <time>2021-05-28T12:22:31Z</time>
      </trkpt>
      <trkpt lat="45.45295" lon="6.5971">
        <ele>1061.6</ele>
        <time>2021-05-28T12:22:32Z</time>
      </trkpt>
      <trkpt lat="45.45292" lon="6.59719">
        <ele>1061.8</ele>
        <time>2021-05-28T12:22:33Z</time>
      </trkpt>
      <trkpt lat="45.45287" lon="6.59729">
        <ele>1061.4</ele>
        <time>2021-05-28T12:22:34Z</time>
      </trkpt>
      <trkpt lat="45.45281" lon="6.59739">
        <ele>1061.4</ele>
        <time>2021-05-28T12:22:35Z</time>
      </trkpt>
      <trkpt lat="45.45274" lon="6.59749">
        <ele>1060.8</ele>
        <time>2021-05-28T12:22:36Z</time>
      </trkpt>
      <trkpt lat="45.45268" lon="6.59758">
        <ele>1060.6</ele>
        <time>2021-05-28T12:22:37Z</time>
      </trkpt>
      <trkpt lat="45.4526" lon="6.59768">
        <ele>1060.2</ele>
        <time>2021-05-28T12:22:38Z</time>
      </trkpt>
      <trkpt lat="45.45252" lon="6.59779">
        <ele>1059.6</ele>
        <time>2021-05-28T12:22:39Z</time>
      </trkpt>
      <trkpt lat="45.45245" lon="6.59791">
        <ele>1059</ele>
        <time>2021-05-28T12:22:40Z</time>
      </trkpt>
      <trkpt lat="45.45236" lon="6.59803">
        <ele>1058.2</ele>
        <time>2021-05-28T12:22:41Z</time>
      </trkpt>
      <trkpt lat="45.45228" lon="6.59816">
        <ele>1058</ele>
        <time>2021-05-28T12:22:42Z</time>
      </trkpt>
      <trkpt lat="45.4522" lon="6.59828">
        <ele>1057.6</ele>
        <time>2021-05-28T12:22:43Z</time>
      </trkpt>
      <trkpt lat="45.45211" lon="6.59841">
        <ele>1056.6</ele>
        <time>2021-05-28T12:22:44Z</time>
      </trkpt>
      <trkpt lat="45.45202" lon="6.59853">
        <ele>1055.8</ele>
        <time>2021-05-28T12:22:45Z</time>
      </trkpt>
      <trkpt lat="45.45192" lon="6.59864">
        <ele>1055.2</ele>
        <time>2021-05-28T12:22:46Z</time>
      </trkpt>
      <trkpt lat="45.45183" lon="6.59875">
        <ele>1054.6</ele>
        <time>2021-05-28T12:22:47Z</time>
      </trkpt>
      <trkpt lat="45.45174" lon="6.59887">
        <ele>1053.6</ele>
        <time>2021-05-28T12:22:48Z</time>
      </trkpt>
      <trkpt lat="45.45164" lon="6.59899">
        <ele>1052.6</ele>
        <time>2021-05-28T12:22:49Z</time>
      </trkpt>
      <trkpt lat="45.45156" lon="6.59913">
        <ele>1051.6</ele>
        <time>2021-05-28T12:22:50Z</time>
      </trkpt>
      <trkpt lat="45.45149" lon="6.59928">
        <ele>1050.6</ele>
        <time>2021-05-28T12:22:51Z</time>
      </trkpt>
      <trkpt lat="45.45142" lon="6.59942">
        <ele>1049.8</ele>
        <time>2021-05-28T12:22:52Z</time>
      </trkpt>
      <trkpt lat="45.45137" lon="6.59957">
        <ele>1049.2</ele>
        <time>2021-05-28T12:22:53Z</time>
      </trkpt>
      <trkpt lat="45.45131" lon="6.59973">
        <ele>1049</ele>
        <time>2021-05-28T12:22:54Z</time>
      </trkpt>
      <trkpt lat="45.45126" lon="6.59989">
        <ele>1048.8</ele>
        <time>2021-05-28T12:22:55Z</time>
      </trkpt>
      <trkpt lat="45.45121" lon="6.60005">
        <ele>1048.4</ele>
        <time>2021-05-28T12:22:56Z</time>
      </trkpt>
      <trkpt lat="45.45118" lon="6.60022">
        <ele>1048</ele>
        <time>2021-05-28T12:22:57Z</time>
      </trkpt>
      <trkpt lat="45.45117" lon="6.6004">
        <ele>1047.6</ele>
        <time>2021-05-28T12:22:58Z</time>
      </trkpt>
      <trkpt lat="45.45117" lon="6.60057">
        <ele>1047.6</ele>
        <time>2021-05-28T12:22:59Z</time>
      </trkpt>
      <trkpt lat="45.45121" lon="6.60075">
        <ele>1047</ele>
        <time>2021-05-28T12:23:00Z</time>
      </trkpt>
      <trkpt lat="45.45125" lon="6.60091">
        <ele>1046.8</ele>
        <time>2021-05-28T12:23:01Z</time>
      </trkpt>
      <trkpt lat="45.45131" lon="6.60108">
        <ele>1046.4</ele>
        <time>2021-05-28T12:23:02Z</time>
      </trkpt>
      <trkpt lat="45.45138" lon="6.60123">
        <ele>1046</ele>
        <time>2021-05-28T12:23:03Z</time>
      </trkpt>
      <trkpt lat="45.45145" lon="6.60138">
        <ele>1045.4</ele>
        <time>2021-05-28T12:23:04Z</time>
      </trkpt>
      <trkpt lat="45.4515" lon="6.60154">
        <ele>1044.6</ele>
        <time>2021-05-28T12:23:05Z</time>
      </trkpt>
      <trkpt lat="45.45153" lon="6.60171">
        <ele>1044</ele>
        <time>2021-05-28T12:23:06Z</time>
      </trkpt>
      <trkpt lat="45.45153" lon="6.60188">
        <ele>1043.2</ele>
        <time>2021-05-28T12:23:07Z</time>
      </trkpt>
      <trkpt lat="45.45153" lon="6.60206">
        <ele>1042.8</ele>
        <time>2021-05-28T12:23:08Z</time>
      </trkpt>
      <trkpt lat="45.45153" lon="6.60223">
        <ele>1042</ele>
        <time>2021-05-28T12:23:09Z</time>
      </trkpt>
      <trkpt lat="45.45153" lon="6.6024">
        <ele>1041.2</ele>
        <time>2021-05-28T12:23:10Z</time>
      </trkpt>
      <trkpt lat="45.45152" lon="6.60257">
        <ele>1040.2</ele>
        <time>2021-05-28T12:23:11Z</time>
      </trkpt>
      <trkpt lat="45.4515" lon="6.60275">
        <ele>1039.2</ele>
        <time>2021-05-28T12:23:12Z</time>
      </trkpt>
      <trkpt lat="45.45147" lon="6.60292">
        <ele>1038</ele>
        <time>2021-05-28T12:23:13Z</time>
      </trkpt>
      <trkpt lat="45.45142" lon="6.60309">
        <ele>1037.6</ele>
        <time>2021-05-28T12:23:14Z</time>
      </trkpt>
      <trkpt lat="45.45137" lon="6.60325">
        <ele>1036.4</ele>
        <time>2021-05-28T12:23:15Z</time>
      </trkpt>
      <trkpt lat="45.45131" lon="6.60342">
        <ele>1035</ele>
        <time>2021-05-28T12:23:16Z</time>
      </trkpt>
      <trkpt lat="45.45125" lon="6.60359">
        <ele>1034</ele>
        <time>2021-05-28T12:23:17Z</time>
      </trkpt>
      <trkpt lat="45.45121" lon="6.60377">
        <ele>1032.6</ele>
        <time>2021-05-28T12:23:18Z</time>
      </trkpt>
      <trkpt lat="45.45116" lon="6.60395">
        <ele>1031.8</ele>
        <time>2021-05-28T12:23:19Z</time>
      </trkpt>
      <trkpt lat="45.45113" lon="6.60414">
        <ele>1030.8</ele>
        <time>2021-05-28T12:23:20Z</time>
      </trkpt>
      <trkpt lat="45.4511" lon="6.60433">
        <ele>1029.8</ele>
        <time>2021-05-28T12:23:21Z</time>
      </trkpt>
      <trkpt lat="45.45107" lon="6.60452">
        <ele>1028.8</ele>
        <time>2021-05-28T12:23:22Z</time>
      </trkpt>
      <trkpt lat="45.45101" lon="6.60469">
        <ele>1027.8</ele>
        <time>2021-05-28T12:23:23Z</time>
      </trkpt>
      <trkpt lat="45.45095" lon="6.60486">
        <ele>1027</ele>
        <time>2021-05-28T12:23:24Z</time>
      </trkpt>
      <trkpt lat="45.45088" lon="6.60502">
        <ele>1025.8</ele>
        <time>2021-05-28T12:23:25Z</time>
      </trkpt>
      <trkpt lat="45.45081" lon="6.60517">
        <ele>1024.8</ele>
        <time>2021-05-28T12:23:26Z</time>
      </trkpt>
      <trkpt lat="45.45074" lon="6.60532">
        <ele>1024</ele>
        <time>2021-05-28T12:23:27Z</time>
      </trkpt>
      <trkpt lat="45.45068" lon="6.60548">
        <ele>1022.8</ele>
        <time>2021-05-28T12:23:28Z</time>
      </trkpt>
      <trkpt lat="45.45064" lon="6.60564">
        <ele>1022.2</ele>
        <time>2021-05-28T12:23:29Z</time>
      </trkpt>
      <trkpt lat="45.45063" lon="6.60581">
        <ele>1021.6</ele>
        <time>2021-05-28T12:23:30Z</time>
      </trkpt>
      <trkpt lat="45.45062" lon="6.60598">
        <ele>1020.8</ele>
        <time>2021-05-28T12:23:31Z</time>
      </trkpt>
      <trkpt lat="45.45061" lon="6.60612">
        <ele>1020.6</ele>
        <time>2021-05-28T12:23:32Z</time>
      </trkpt>
      <trkpt lat="45.45061" lon="6.60627">
        <ele>1019.8</ele>
        <time>2021-05-28T12:23:33Z</time>
      </trkpt>
      <trkpt lat="45.4506" lon="6.60641">
        <ele>1019</ele>
        <time>2021-05-28T12:23:34Z</time>
      </trkpt>
      <trkpt lat="45.45058" lon="6.60654">
        <ele>1018.6</ele>
        <time>2021-05-28T12:23:35Z</time>
      </trkpt>
      <trkpt lat="45.45056" lon="6.60667">
        <ele>1018.4</ele>
        <time>2021-05-28T12:23:36Z</time>
      </trkpt>
      <trkpt lat="45.45054" lon="6.60679">
        <ele>1018.2</ele>
        <time>2021-05-28T12:23:37Z</time>
      </trkpt>
      <trkpt lat="45.45052" lon="6.6069">
        <ele>1018</ele>
        <time>2021-05-28T12:23:38Z</time>
      </trkpt>
      <trkpt lat="45.45051" lon="6.60703">
        <ele>1018</ele>
        <time>2021-05-28T12:23:39Z</time>
      </trkpt>
      <trkpt lat="45.4505" lon="6.60715">
        <ele>1017.8</ele>
        <time>2021-05-28T12:23:40Z</time>
      </trkpt>
      <trkpt lat="45.45049" lon="6.60727">
        <ele>1017.8</ele>
        <time>2021-05-28T12:23:41Z</time>
      </trkpt>
      <trkpt lat="45.45049" lon="6.60739">
        <ele>1017.6</ele>
        <time>2021-05-28T12:23:42Z</time>
      </trkpt>
      <trkpt lat="45.45048" lon="6.60751">
        <ele>1017.6</ele>
        <time>2021-05-28T12:23:43Z</time>
      </trkpt>
      <trkpt lat="45.45046" lon="6.60764">
        <ele>1017.4</ele>
        <time>2021-05-28T12:23:44Z</time>
      </trkpt>
      <trkpt lat="45.45044" lon="6.60776">
        <ele>1017.4</ele>
        <time>2021-05-28T12:23:45Z</time>
      </trkpt>
      <trkpt lat="45.45043" lon="6.60788">
        <ele>1017.2</ele>
        <time>2021-05-28T12:23:46Z</time>
      </trkpt>
      <trkpt lat="45.45039" lon="6.608">
        <ele>1016.8</ele>
        <time>2021-05-28T12:23:47Z</time>
      </trkpt>
      <trkpt lat="45.45035" lon="6.60811">
        <ele>1016.2</ele>
        <time>2021-05-28T12:23:48Z</time>
      </trkpt>
      <trkpt lat="45.45029" lon="6.60821">
        <ele>1015.8</ele>
        <time>2021-05-28T12:23:49Z</time>
      </trkpt>
      <trkpt lat="45.45023" lon="6.6083">
        <ele>1015.8</ele>
        <time>2021-05-28T12:23:50Z</time>
      </trkpt>
      <trkpt lat="45.45016" lon="6.60837">
        <ele>1015.4</ele>
        <time>2021-05-28T12:23:51Z</time>
      </trkpt>
      <trkpt lat="45.45008" lon="6.60844">
        <ele>1015.6</ele>
        <time>2021-05-28T12:23:52Z</time>
      </trkpt>
      <trkpt lat="45.45001" lon="6.60852">
        <ele>1015.6</ele>
        <time>2021-05-28T12:23:53Z</time>
      </trkpt>
      <trkpt lat="45.44993" lon="6.60859">
        <ele>1015</ele>
        <time>2021-05-28T12:23:54Z</time>
      </trkpt>
      <trkpt lat="45.44985" lon="6.60867">
        <ele>1014.8</ele>
        <time>2021-05-28T12:23:55Z</time>
      </trkpt>
      <trkpt lat="45.44977" lon="6.60876">
        <ele>1014.4</ele>
        <time>2021-05-28T12:23:56Z</time>
      </trkpt>
      <trkpt lat="45.44969" lon="6.60885">
        <ele>1013.8</ele>
        <time>2021-05-28T12:23:57Z</time>
      </trkpt>
      <trkpt lat="45.44962" lon="6.60895">
        <ele>1013.4</ele>
        <time>2021-05-28T12:23:58Z</time>
      </trkpt>
      <trkpt lat="45.44956" lon="6.60908">
        <ele>1013</ele>
        <time>2021-05-28T12:23:59Z</time>
      </trkpt>
      <trkpt lat="45.44954" lon="6.60921">
        <ele>1012.6</ele>
        <time>2021-05-28T12:24:00Z</time>
      </trkpt>
      <trkpt lat="45.44955" lon="6.60936">
        <ele>1012.2</ele>
        <time>2021-05-28T12:24:01Z</time>
      </trkpt>
      <trkpt lat="45.44959" lon="6.6095">
        <ele>1012.2</ele>
        <time>2021-05-28T12:24:02Z</time>
      </trkpt>
      <trkpt lat="45.44964" lon="6.60964">
        <ele>1011.6</ele>
        <time>2021-05-28T12:24:03Z</time>
      </trkpt>
      <trkpt lat="45.44968" lon="6.60979">
        <ele>1011</ele>
        <time>2021-05-28T12:24:04Z</time>
      </trkpt>
      <trkpt lat="45.4497" lon="6.60994">
        <ele>1010.2</ele>
        <time>2021-05-28T12:24:05Z</time>
      </trkpt>
      <trkpt lat="45.44971" lon="6.61009">
        <ele>1009.4</ele>
        <time>2021-05-28T12:24:06Z</time>
      </trkpt>
      <trkpt lat="45.44971" lon="6.61025">
        <ele>1008.4</ele>
        <time>2021-05-28T12:24:07Z</time>
      </trkpt>
      <trkpt lat="45.4497" lon="6.6104">
        <ele>1007.8</ele>
        <time>2021-05-28T12:24:08Z</time>
      </trkpt>
      <trkpt lat="45.44966" lon="6.61055">
        <ele>1007.2</ele>
        <time>2021-05-28T12:24:09Z</time>
      </trkpt>
      <trkpt lat="45.44962" lon="6.61069">
        <ele>1007</ele>
        <time>2021-05-28T12:24:10Z</time>
      </trkpt>
      <trkpt lat="45.44957" lon="6.61083">
        <ele>1006.2</ele>
        <time>2021-05-28T12:24:11Z</time>
      </trkpt>
      <trkpt lat="45.44953" lon="6.61098">
        <ele>1005.6</ele>
        <time>2021-05-28T12:24:12Z</time>
      </trkpt>
      <trkpt lat="45.44952" lon="6.61112">
        <ele>1005</ele>
        <time>2021-05-28T12:24:13Z</time>
      </trkpt>
      <trkpt lat="45.44955" lon="6.61126">
        <ele>1004.4</ele>
        <time>2021-05-28T12:24:14Z</time>
      </trkpt>
      <trkpt lat="45.4496" lon="6.61137">
        <ele>1004.4</ele>
        <time>2021-05-28T12:24:15Z</time>
      </trkpt>
      <trkpt lat="45.44966" lon="6.61149">
        <ele>1004.2</ele>
        <time>2021-05-28T12:24:16Z</time>
      </trkpt>
      <trkpt lat="45.44972" lon="6.61162">
        <ele>1004</ele>
        <time>2021-05-28T12:24:17Z</time>
      </trkpt>
      <trkpt lat="45.44976" lon="6.61176">
        <ele>1003.6</ele>
        <time>2021-05-28T12:24:18Z</time>
      </trkpt>
      <trkpt lat="45.44981" lon="6.6119">
        <ele>1003.6</ele>
        <time>2021-05-28T12:24:19Z</time>
      </trkpt>
      <trkpt lat="45.44985" lon="6.61204">
        <ele>1003.2</ele>
        <time>2021-05-28T12:24:20Z</time>
      </trkpt>
      <trkpt lat="45.44988" lon="6.61218">
        <ele>1003</ele>
        <time>2021-05-28T12:24:21Z</time>
      </trkpt>
      <trkpt lat="45.44988" lon="6.61232">
        <ele>1002.6</ele>
        <time>2021-05-28T12:24:22Z</time>
      </trkpt>
      <trkpt lat="45.44986" lon="6.61246">
        <ele>1002.2</ele>
        <time>2021-05-28T12:24:23Z</time>
      </trkpt>
      <trkpt lat="45.44981" lon="6.61257">
        <ele>1002.2</ele>
        <time>2021-05-28T12:24:24Z</time>
      </trkpt>
      <trkpt lat="45.44976" lon="6.61264">
        <ele>1002</ele>
        <time>2021-05-28T12:24:25Z</time>
      </trkpt>
      <trkpt lat="45.44969" lon="6.61266">
        <ele>1001.6</ele>
        <time>2021-05-28T12:24:26Z</time>
      </trkpt>
      <trkpt lat="45.44962" lon="6.61266">
        <ele>1001.4</ele>
        <time>2021-05-28T12:24:27Z</time>
      </trkpt>
      <trkpt lat="45.44954" lon="6.61264">
        <ele>1001.2</ele>
        <time>2021-05-28T12:24:28Z</time>
      </trkpt>
      <trkpt lat="45.44945" lon="6.61261">
        <ele>1001</ele>
        <time>2021-05-28T12:24:29Z</time>
      </trkpt>
      <trkpt lat="45.44937" lon="6.61258">
        <ele>1000.8</ele>
        <time>2021-05-28T12:24:30Z</time>
      </trkpt>
      <trkpt lat="45.44928" lon="6.61254">
        <ele>1000.4</ele>
        <time>2021-05-28T12:24:31Z</time>
      </trkpt>
      <trkpt lat="45.4492" lon="6.61251">
        <ele>999.2</ele>
        <time>2021-05-28T12:24:32Z</time>
      </trkpt>
      <trkpt lat="45.44912" lon="6.61251">
        <ele>998.4</ele>
        <time>2021-05-28T12:24:33Z</time>
      </trkpt>
      <trkpt lat="45.44905" lon="6.61253">
        <ele>998.2</ele>
        <time>2021-05-28T12:24:34Z</time>
      </trkpt>
      <trkpt lat="45.449" lon="6.6126">
        <ele>997.8</ele>
        <time>2021-05-28T12:24:35Z</time>
      </trkpt>
      <trkpt lat="45.44897" lon="6.61268">
        <ele>998</ele>
        <time>2021-05-28T12:24:36Z</time>
      </trkpt>
      <trkpt lat="45.44894" lon="6.61278">
        <ele>997.8</ele>
        <time>2021-05-28T12:24:37Z</time>
      </trkpt>
      <trkpt lat="45.44891" lon="6.61288">
        <ele>998</ele>
        <time>2021-05-28T12:24:38Z</time>
      </trkpt>
      <trkpt lat="45.44889" lon="6.61299">
        <ele>998</ele>
        <time>2021-05-28T12:24:39Z</time>
      </trkpt>
      <trkpt lat="45.44886" lon="6.6131">
        <ele>997.8</ele>
        <time>2021-05-28T12:24:40Z</time>
      </trkpt>
      <trkpt lat="45.44884" lon="6.61321">
        <ele>997.6</ele>
        <time>2021-05-28T12:24:41Z</time>
      </trkpt>
      <trkpt lat="45.44883" lon="6.61333">
        <ele>997.4</ele>
        <time>2021-05-28T12:24:42Z</time>
      </trkpt>
      <trkpt lat="45.44885" lon="6.61344">
        <ele>997</ele>
        <time>2021-05-28T12:24:43Z</time>
      </trkpt>
      <trkpt lat="45.44889" lon="6.61354">
        <ele>996.6</ele>
        <time>2021-05-28T12:24:44Z</time>
      </trkpt>
      <trkpt lat="45.44892" lon="6.61364">
        <ele>996.2</ele>
        <time>2021-05-28T12:24:45Z</time>
      </trkpt>
      <trkpt lat="45.44896" lon="6.61374">
        <ele>995.8</ele>
        <time>2021-05-28T12:24:46Z</time>
      </trkpt>
      <trkpt lat="45.44897" lon="6.61384">
        <ele>995.8</ele>
        <time>2021-05-28T12:24:47Z</time>
      </trkpt>
      <trkpt lat="45.44896" lon="6.61395">
        <ele>995.4</ele>
        <time>2021-05-28T12:24:48Z</time>
      </trkpt>
      <trkpt lat="45.44894" lon="6.61405">
        <ele>995.4</ele>
        <time>2021-05-28T12:24:49Z</time>
      </trkpt>
      <trkpt lat="45.44891" lon="6.61415">
        <ele>995.6</ele>
        <time>2021-05-28T12:24:50Z</time>
      </trkpt>
      <trkpt lat="45.4489" lon="6.61425">
        <ele>995.6</ele>
        <time>2021-05-28T12:24:51Z</time>
      </trkpt>
      <trkpt lat="45.44888" lon="6.61436">
        <ele>995.6</ele>
        <time>2021-05-28T12:24:52Z</time>
      </trkpt>
      <trkpt lat="45.44887" lon="6.61448">
        <ele>996</ele>
        <time>2021-05-28T12:24:53Z</time>
      </trkpt>
      <trkpt lat="45.44884" lon="6.61459">
        <ele>996</ele>
        <time>2021-05-28T12:24:54Z</time>
      </trkpt>
      <trkpt lat="45.44883" lon="6.6147">
        <ele>995.8</ele>
        <time>2021-05-28T12:24:55Z</time>
      </trkpt>
      <trkpt lat="45.44881" lon="6.61481">
        <ele>996.2</ele>
        <time>2021-05-28T12:24:56Z</time>
      </trkpt>
      <trkpt lat="45.44878" lon="6.61493">
        <ele>996.2</ele>
        <time>2021-05-28T12:24:57Z</time>
      </trkpt>
      <trkpt lat="45.44875" lon="6.61504">
        <ele>996.2</ele>
        <time>2021-05-28T12:24:58Z</time>
      </trkpt>
      <trkpt lat="45.44872" lon="6.61515">
        <ele>996</ele>
        <time>2021-05-28T12:24:59Z</time>
      </trkpt>
      <trkpt lat="45.44867" lon="6.61525">
        <ele>995.6</ele>
        <time>2021-05-28T12:25:00Z</time>
      </trkpt>
      <trkpt lat="45.44862" lon="6.61535">
        <ele>995.6</ele>
        <time>2021-05-28T12:25:01Z</time>
      </trkpt>
      <trkpt lat="45.44857" lon="6.61545">
        <ele>995.6</ele>
        <time>2021-05-28T12:25:02Z</time>
      </trkpt>
      <trkpt lat="45.44852" lon="6.61556">
        <ele>995.2</ele>
        <time>2021-05-28T12:25:03Z</time>
      </trkpt>
      <trkpt lat="45.44849" lon="6.61568">
        <ele>994.8</ele>
        <time>2021-05-28T12:25:04Z</time>
      </trkpt>
      <trkpt lat="45.44847" lon="6.6158">
        <ele>994</ele>
        <time>2021-05-28T12:25:05Z</time>
      </trkpt>
      <trkpt lat="45.44847" lon="6.61592">
        <ele>993.8</ele>
        <time>2021-05-28T12:25:06Z</time>
      </trkpt>
      <trkpt lat="45.44847" lon="6.61605">
        <ele>993.4</ele>
        <time>2021-05-28T12:25:07Z</time>
      </trkpt>
      <trkpt lat="45.44846" lon="6.61617">
        <ele>993.2</ele>
        <time>2021-05-28T12:25:08Z</time>
      </trkpt>
      <trkpt lat="45.44845" lon="6.6163">
        <ele>993</ele>
        <time>2021-05-28T12:25:09Z</time>
      </trkpt>
      <trkpt lat="45.44844" lon="6.61642">
        <ele>992.8</ele>
        <time>2021-05-28T12:25:10Z</time>
      </trkpt>
      <trkpt lat="45.44843" lon="6.61654">
        <ele>992.6</ele>
        <time>2021-05-28T12:25:11Z</time>
      </trkpt>
      <trkpt lat="45.44844" lon="6.61666">
        <ele>992.4</ele>
        <time>2021-05-28T12:25:12Z</time>
      </trkpt>
      <trkpt lat="45.44846" lon="6.61678">
        <ele>992.2</ele>
        <time>2021-05-28T12:25:13Z</time>
      </trkpt>
      <trkpt lat="45.44849" lon="6.6169">
        <ele>992.2</ele>
        <time>2021-05-28T12:25:14Z</time>
      </trkpt>
      <trkpt lat="45.4485" lon="6.61702">
        <ele>992</ele>
        <time>2021-05-28T12:25:15Z</time>
      </trkpt>
      <trkpt lat="45.4485" lon="6.61714">
        <ele>992</ele>
        <time>2021-05-28T12:25:16Z</time>
      </trkpt>
      <trkpt lat="45.44848" lon="6.61726">
        <ele>992</ele>
        <time>2021-05-28T12:25:17Z</time>
      </trkpt>
      <trkpt lat="45.44845" lon="6.61737">
        <ele>992.2</ele>
        <time>2021-05-28T12:25:18Z</time>
      </trkpt>
      <trkpt lat="45.44842" lon="6.61749">
        <ele>992</ele>
        <time>2021-05-28T12:25:19Z</time>
      </trkpt>
      <trkpt lat="45.44839" lon="6.6176">
        <ele>992.2</ele>
        <time>2021-05-28T12:25:20Z</time>
      </trkpt>
      <trkpt lat="45.44835" lon="6.6177">
        <ele>992</ele>
        <time>2021-05-28T12:25:21Z</time>
      </trkpt>
      <trkpt lat="45.4483" lon="6.61781">
        <ele>992.2</ele>
        <time>2021-05-28T12:25:22Z</time>
      </trkpt>
      <trkpt lat="45.44826" lon="6.61791">
        <ele>992.4</ele>
        <time>2021-05-28T12:25:23Z</time>
      </trkpt>
      <trkpt lat="45.44821" lon="6.61801">
        <ele>992.6</ele>
        <time>2021-05-28T12:25:24Z</time>
      </trkpt>
      <trkpt lat="45.44817" lon="6.61812">
        <ele>992.6</ele>
        <time>2021-05-28T12:25:25Z</time>
      </trkpt>
      <trkpt lat="45.44813" lon="6.61823">
        <ele>992.8</ele>
        <time>2021-05-28T12:25:26Z</time>
      </trkpt>
      <trkpt lat="45.44811" lon="6.61833">
        <ele>992.8</ele>
        <time>2021-05-28T12:25:27Z</time>
      </trkpt>
      <trkpt lat="45.4481" lon="6.61844">
        <ele>992.8</ele>
        <time>2021-05-28T12:25:28Z</time>
      </trkpt>
      <trkpt lat="45.44812" lon="6.61855">
        <ele>992.8</ele>
        <time>2021-05-28T12:25:29Z</time>
      </trkpt>
      <trkpt lat="45.44814" lon="6.61865">
        <ele>992.6</ele>
        <time>2021-05-28T12:25:30Z</time>
      </trkpt>
      <trkpt lat="45.44818" lon="6.61875">
        <ele>992.6</ele>
        <time>2021-05-28T12:25:31Z</time>
      </trkpt>
      <trkpt lat="45.4482" lon="6.61887">
        <ele>992.6</ele>
        <time>2021-05-28T12:25:32Z</time>
      </trkpt>
      <trkpt lat="45.44821" lon="6.61899">
        <ele>992.8</ele>
        <time>2021-05-28T12:25:33Z</time>
      </trkpt>
      <trkpt lat="45.44819" lon="6.6191">
        <ele>992.8</ele>
        <time>2021-05-28T12:25:34Z</time>
      </trkpt>
      <trkpt lat="45.44817" lon="6.61922">
        <ele>992.6</ele>
        <time>2021-05-28T12:25:35Z</time>
      </trkpt>
      <trkpt lat="45.44815" lon="6.61934">
        <ele>992.6</ele>
        <time>2021-05-28T12:25:36Z</time>
      </trkpt>
      <trkpt lat="45.44813" lon="6.61945">
        <ele>992.4</ele>
        <time>2021-05-28T12:25:37Z</time>
      </trkpt>
      <trkpt lat="45.44812" lon="6.61957">
        <ele>992.4</ele>
        <time>2021-05-28T12:25:38Z</time>
      </trkpt>
      <trkpt lat="45.44812" lon="6.6197">
        <ele>992.4</ele>
        <time>2021-05-28T12:25:39Z</time>
      </trkpt>
      <trkpt lat="45.44812" lon="6.61982">
        <ele>992.4</ele>
        <time>2021-05-28T12:25:40Z</time>
      </trkpt>
      <trkpt lat="45.44811" lon="6.61994">
        <ele>992.6</ele>
        <time>2021-05-28T12:25:41Z</time>
      </trkpt>
      <trkpt lat="45.44811" lon="6.62007">
        <ele>992.4</ele>
        <time>2021-05-28T12:25:42Z</time>
      </trkpt>
      <trkpt lat="45.44809" lon="6.62019">
        <ele>992.4</ele>
        <time>2021-05-28T12:25:43Z</time>
      </trkpt>
      <trkpt lat="45.44807" lon="6.62031">
        <ele>992.2</ele>
        <time>2021-05-28T12:25:44Z</time>
      </trkpt>
      <trkpt lat="45.44806" lon="6.62043">
        <ele>991.8</ele>
        <time>2021-05-28T12:25:45Z</time>
      </trkpt>
      <trkpt lat="45.44805" lon="6.62056">
        <ele>991.6</ele>
        <time>2021-05-28T12:25:46Z</time>
      </trkpt>
      <trkpt lat="45.44804" lon="6.62068">
        <ele>991.6</ele>
        <time>2021-05-28T12:25:47Z</time>
      </trkpt>
      <trkpt lat="45.44803" lon="6.6208">
        <ele>991.6</ele>
        <time>2021-05-28T12:25:48Z</time>
      </trkpt>
      <trkpt lat="45.44799" lon="6.62092">
        <ele>991.4</ele>
        <time>2021-05-28T12:25:49Z</time>
      </trkpt>
      <trkpt lat="45.44797" lon="6.62104">
        <ele>991.2</ele>
        <time>2021-05-28T12:25:50Z</time>
      </trkpt>
      <trkpt lat="45.44795" lon="6.62115">
        <ele>991</ele>
        <time>2021-05-28T12:25:51Z</time>
      </trkpt>
      <trkpt lat="45.44793" lon="6.62127">
        <ele>990.6</ele>
        <time>2021-05-28T12:25:52Z</time>
      </trkpt>
      <trkpt lat="45.44793" lon="6.62139">
        <ele>990.6</ele>
        <time>2021-05-28T12:25:53Z</time>
      </trkpt>
      <trkpt lat="45.44792" lon="6.62151">
        <ele>990.6</ele>
        <time>2021-05-28T12:25:54Z</time>
      </trkpt>
      <trkpt lat="45.44792" lon="6.62163">
        <ele>990.6</ele>
        <time>2021-05-28T12:25:55Z</time>
      </trkpt>
      <trkpt lat="45.44791" lon="6.62175">
        <ele>990.8</ele>
        <time>2021-05-28T12:25:56Z</time>
      </trkpt>
      <trkpt lat="45.44791" lon="6.62187">
        <ele>990.6</ele>
        <time>2021-05-28T12:25:57Z</time>
      </trkpt>
      <trkpt lat="45.44789" lon="6.62199">
        <ele>990.8</ele>
        <time>2021-05-28T12:25:58Z</time>
      </trkpt>
      <trkpt lat="45.44788" lon="6.62211">
        <ele>990.6</ele>
        <time>2021-05-28T12:25:59Z</time>
      </trkpt>
      <trkpt lat="45.44787" lon="6.62222">
        <ele>990.6</ele>
        <time>2021-05-28T12:26:00Z</time>
      </trkpt>
      <trkpt lat="45.44784" lon="6.62234">
        <ele>990.6</ele>
        <time>2021-05-28T12:26:01Z</time>
      </trkpt>
      <trkpt lat="45.44781" lon="6.62245">
        <ele>990.4</ele>
        <time>2021-05-28T12:26:02Z</time>
      </trkpt>
      <trkpt lat="45.44777" lon="6.62256">
        <ele>990.6</ele>
        <time>2021-05-28T12:26:03Z</time>
      </trkpt>
      <trkpt lat="45.44774" lon="6.62267">
        <ele>990.6</ele>
        <time>2021-05-28T12:26:04Z</time>
      </trkpt>
      <trkpt lat="45.4477" lon="6.62278">
        <ele>990.6</ele>
        <time>2021-05-28T12:26:05Z</time>
      </trkpt>
      <trkpt lat="45.44766" lon="6.62288">
        <ele>990.4</ele>
        <time>2021-05-28T12:26:06Z</time>
      </trkpt>
      <trkpt lat="45.44761" lon="6.62297">
        <ele>990.4</ele>
        <time>2021-05-28T12:26:07Z</time>
      </trkpt>
      <trkpt lat="45.44756" lon="6.62307">
        <ele>990.4</ele>
        <time>2021-05-28T12:26:08Z</time>
      </trkpt>
      <trkpt lat="45.44751" lon="6.62316">
        <ele>990.4</ele>
        <time>2021-05-28T12:26:09Z</time>
      </trkpt>
      <trkpt lat="45.44746" lon="6.62326">
        <ele>990.4</ele>
        <time>2021-05-28T12:26:10Z</time>
      </trkpt>
      <trkpt lat="45.44741" lon="6.62335">
        <ele>990.4</ele>
        <time>2021-05-28T12:26:11Z</time>
      </trkpt>
      <trkpt lat="45.44735" lon="6.62345">
        <ele>990.4</ele>
        <time>2021-05-28T12:26:12Z</time>
      </trkpt>
      <trkpt lat="45.4473" lon="6.62355">
        <ele>990.4</ele>
        <time>2021-05-28T12:26:13Z</time>
      </trkpt>
      <trkpt lat="45.44725" lon="6.62364">
        <ele>990.6</ele>
        <time>2021-05-28T12:26:14Z</time>
      </trkpt>
      <trkpt lat="45.4472" lon="6.62374">
        <ele>990.8</ele>
        <time>2021-05-28T12:26:15Z</time>
      </trkpt>
      <trkpt lat="45.44716" lon="6.62385">
        <ele>990.6</ele>
        <time>2021-05-28T12:26:16Z</time>
      </trkpt>
      <trkpt lat="45.44712" lon="6.62396">
        <ele>990.4</ele>
        <time>2021-05-28T12:26:17Z</time>
      </trkpt>
      <trkpt lat="45.44711" lon="6.62408">
        <ele>990.4</ele>
        <time>2021-05-28T12:26:18Z</time>
      </trkpt>
      <trkpt lat="45.44711" lon="6.62421">
        <ele>990.6</ele>
        <time>2021-05-28T12:26:19Z</time>
      </trkpt>
      <trkpt lat="45.44712" lon="6.62435">
        <ele>990.2</ele>
        <time>2021-05-28T12:26:20Z</time>
      </trkpt>
      <trkpt lat="45.44713" lon="6.62449">
        <ele>989.6</ele>
        <time>2021-05-28T12:26:21Z</time>
      </trkpt>
      <trkpt lat="45.44714" lon="6.62464">
        <ele>989.4</ele>
        <time>2021-05-28T12:26:22Z</time>
      </trkpt>
      <trkpt lat="45.44716" lon="6.62479">
        <ele>989</ele>
        <time>2021-05-28T12:26:23Z</time>
      </trkpt>
      <trkpt lat="45.44718" lon="6.62495">
        <ele>988.6</ele>
        <time>2021-05-28T12:26:24Z</time>
      </trkpt>
      <trkpt lat="45.44719" lon="6.6251">
        <ele>988.2</ele>
        <time>2021-05-28T12:26:25Z</time>
      </trkpt>
      <trkpt lat="45.4472" lon="6.62525">
        <ele>988</ele>
        <time>2021-05-28T12:26:26Z</time>
      </trkpt>
      <trkpt lat="45.44718" lon="6.6254">
        <ele>987.8</ele>
        <time>2021-05-28T12:26:27Z</time>
      </trkpt>
      <trkpt lat="45.44716" lon="6.62554">
        <ele>987.6</ele>
        <time>2021-05-28T12:26:28Z</time>
      </trkpt>
      <trkpt lat="45.44712" lon="6.62569">
        <ele>987.4</ele>
        <time>2021-05-28T12:26:29Z</time>
      </trkpt>
      <trkpt lat="45.44708" lon="6.62584">
        <ele>987</ele>
        <time>2021-05-28T12:26:30Z</time>
      </trkpt>
      <trkpt lat="45.44705" lon="6.626">
        <ele>986.6</ele>
        <time>2021-05-28T12:26:31Z</time>
      </trkpt>
      <trkpt lat="45.44705" lon="6.62616">
        <ele>986.4</ele>
        <time>2021-05-28T12:26:32Z</time>
      </trkpt>
      <trkpt lat="45.44706" lon="6.62633">
        <ele>986</ele>
        <time>2021-05-28T12:26:33Z</time>
      </trkpt>
      <trkpt lat="45.44709" lon="6.62648">
        <ele>985.6</ele>
        <time>2021-05-28T12:26:34Z</time>
      </trkpt>
      <trkpt lat="45.44713" lon="6.62664">
        <ele>985</ele>
        <time>2021-05-28T12:26:35Z</time>
      </trkpt>
      <trkpt lat="45.44716" lon="6.62679">
        <ele>984.4</ele>
        <time>2021-05-28T12:26:36Z</time>
      </trkpt>
      <trkpt lat="45.4472" lon="6.62695">
        <ele>984</ele>
        <time>2021-05-28T12:26:37Z</time>
      </trkpt>
      <trkpt lat="45.44724" lon="6.6271">
        <ele>983.6</ele>
        <time>2021-05-28T12:26:38Z</time>
      </trkpt>
      <trkpt lat="45.44728" lon="6.62725">
        <ele>982.8</ele>
        <time>2021-05-28T12:26:39Z</time>
      </trkpt>
      <trkpt lat="45.44733" lon="6.6274">
        <ele>982.2</ele>
        <time>2021-05-28T12:26:40Z</time>
      </trkpt>
      <trkpt lat="45.44737" lon="6.62756">
        <ele>981.6</ele>
        <time>2021-05-28T12:26:41Z</time>
      </trkpt>
      <trkpt lat="45.44741" lon="6.62771">
        <ele>981.2</ele>
        <time>2021-05-28T12:26:42Z</time>
      </trkpt>
      <trkpt lat="45.44745" lon="6.62787">
        <ele>980.4</ele>
        <time>2021-05-28T12:26:43Z</time>
      </trkpt>
      <trkpt lat="45.44748" lon="6.62802">
        <ele>980</ele>
        <time>2021-05-28T12:26:44Z</time>
      </trkpt>
      <trkpt lat="45.44751" lon="6.62818">
        <ele>979.8</ele>
        <time>2021-05-28T12:26:45Z</time>
      </trkpt>
      <trkpt lat="45.44753" lon="6.62834">
        <ele>979.6</ele>
        <time>2021-05-28T12:26:46Z</time>
      </trkpt>
      <trkpt lat="45.44753" lon="6.6285">
        <ele>978.8</ele>
        <time>2021-05-28T12:26:47Z</time>
      </trkpt>
      <trkpt lat="45.44751" lon="6.62866">
        <ele>978.4</ele>
        <time>2021-05-28T12:26:48Z</time>
      </trkpt>
      <trkpt lat="45.44749" lon="6.62882">
        <ele>977.6</ele>
        <time>2021-05-28T12:26:49Z</time>
      </trkpt>
      <trkpt lat="45.44748" lon="6.62897">
        <ele>977.4</ele>
        <time>2021-05-28T12:26:50Z</time>
      </trkpt>
      <trkpt lat="45.44746" lon="6.62914">
        <ele>977</ele>
        <time>2021-05-28T12:26:51Z</time>
      </trkpt>
      <trkpt lat="45.44745" lon="6.6293">
        <ele>977.2</ele>
        <time>2021-05-28T12:26:52Z</time>
      </trkpt>
      <trkpt lat="45.44744" lon="6.62946">
        <ele>977</ele>
        <time>2021-05-28T12:26:53Z</time>
      </trkpt>
      <trkpt lat="45.44742" lon="6.62962">
        <ele>976.6</ele>
        <time>2021-05-28T12:26:54Z</time>
      </trkpt>
      <trkpt lat="45.44739" lon="6.62979">
        <ele>976.6</ele>
        <time>2021-05-28T12:26:55Z</time>
      </trkpt>
      <trkpt lat="45.44735" lon="6.62993">
        <ele>976.4</ele>
        <time>2021-05-28T12:26:56Z</time>
      </trkpt>
      <trkpt lat="45.44729" lon="6.63008">
        <ele>976</ele>
        <time>2021-05-28T12:26:57Z</time>
      </trkpt>
      <trkpt lat="45.44724" lon="6.63022">
        <ele>976</ele>
        <time>2021-05-28T12:26:58Z</time>
      </trkpt>
      <trkpt lat="45.44719" lon="6.63038">
        <ele>975.6</ele>
        <time>2021-05-28T12:26:59Z</time>
      </trkpt>
      <trkpt lat="45.44716" lon="6.63053">
        <ele>975.4</ele>
        <time>2021-05-28T12:27:00Z</time>
      </trkpt>
      <trkpt lat="45.44713" lon="6.63068">
        <ele>975</ele>
        <time>2021-05-28T12:27:01Z</time>
      </trkpt>
      <trkpt lat="45.4471" lon="6.63084">
        <ele>975</ele>
        <time>2021-05-28T12:27:02Z</time>
      </trkpt>
      <trkpt lat="45.44708" lon="6.631">
        <ele>974.6</ele>
        <time>2021-05-28T12:27:03Z</time>
      </trkpt>
      <trkpt lat="45.44706" lon="6.63116">
        <ele>974.4</ele>
        <time>2021-05-28T12:27:04Z</time>
      </trkpt>
      <trkpt lat="45.44704" lon="6.63132">
        <ele>974</ele>
        <time>2021-05-28T12:27:05Z</time>
      </trkpt>
      <trkpt lat="45.44702" lon="6.63149">
        <ele>974</ele>
        <time>2021-05-28T12:27:06Z</time>
      </trkpt>
      <trkpt lat="45.44701" lon="6.63166">
        <ele>974.2</ele>
        <time>2021-05-28T12:27:07Z</time>
      </trkpt>
      <trkpt lat="45.447" lon="6.63183">
        <ele>973.8</ele>
        <time>2021-05-28T12:27:08Z</time>
      </trkpt>
      <trkpt lat="45.447" lon="6.632">
        <ele>973.6</ele>
        <time>2021-05-28T12:27:09Z</time>
      </trkpt>
      <trkpt lat="45.44699" lon="6.63217">
        <ele>973.4</ele>
        <time>2021-05-28T12:27:10Z</time>
      </trkpt>
      <trkpt lat="45.44698" lon="6.63235">
        <ele>973.4</ele>
        <time>2021-05-28T12:27:11Z</time>
      </trkpt>
      <trkpt lat="45.44696" lon="6.63251">
        <ele>973</ele>
        <time>2021-05-28T12:27:12Z</time>
      </trkpt>
      <trkpt lat="45.44692" lon="6.63268">
        <ele>972.8</ele>
        <time>2021-05-28T12:27:13Z</time>
      </trkpt>
      <trkpt lat="45.4469" lon="6.63284">
        <ele>972.4</ele>
        <time>2021-05-28T12:27:14Z</time>
      </trkpt>
      <trkpt lat="45.44686" lon="6.63301">
        <ele>971.8</ele>
        <time>2021-05-28T12:27:15Z</time>
      </trkpt>
      <trkpt lat="45.44683" lon="6.63317">
        <ele>972</ele>
        <time>2021-05-28T12:27:16Z</time>
      </trkpt>
      <trkpt lat="45.44679" lon="6.63334">
        <ele>972</ele>
        <time>2021-05-28T12:27:17Z</time>
      </trkpt>
      <trkpt lat="45.44675" lon="6.6335">
        <ele>972</ele>
        <time>2021-05-28T12:27:18Z</time>
      </trkpt>
      <trkpt lat="45.4467" lon="6.63366">
        <ele>971.8</ele>
        <time>2021-05-28T12:27:19Z</time>
      </trkpt>
      <trkpt lat="45.44665" lon="6.63382">
        <ele>971.2</ele>
        <time>2021-05-28T12:27:20Z</time>
      </trkpt>
      <trkpt lat="45.4466" lon="6.63397">
        <ele>971</ele>
        <time>2021-05-28T12:27:21Z</time>
      </trkpt>
      <trkpt lat="45.44655" lon="6.63412">
        <ele>970.4</ele>
        <time>2021-05-28T12:27:22Z</time>
      </trkpt>
      <trkpt lat="45.44649" lon="6.63427">
        <ele>970</ele>
        <time>2021-05-28T12:27:23Z</time>
      </trkpt>
      <trkpt lat="45.44643" lon="6.63442">
        <ele>969.8</ele>
        <time>2021-05-28T12:27:24Z</time>
      </trkpt>
      <trkpt lat="45.44638" lon="6.63458">
        <ele>969.6</ele>
        <time>2021-05-28T12:27:25Z</time>
      </trkpt>
      <trkpt lat="45.44633" lon="6.63475">
        <ele>969</ele>
        <time>2021-05-28T12:27:26Z</time>
      </trkpt>
      <trkpt lat="45.4463" lon="6.63492">
        <ele>968.4</ele>
        <time>2021-05-28T12:27:27Z</time>
      </trkpt>
      <trkpt lat="45.44628" lon="6.63509">
        <ele>968.2</ele>
        <time>2021-05-28T12:27:28Z</time>
      </trkpt>
      <trkpt lat="45.44626" lon="6.63526">
        <ele>967.8</ele>
        <time>2021-05-28T12:27:29Z</time>
      </trkpt>
      <trkpt lat="45.44625" lon="6.63544">
        <ele>967.2</ele>
        <time>2021-05-28T12:27:30Z</time>
      </trkpt>
      <trkpt lat="45.44624" lon="6.63562">
        <ele>967</ele>
        <time>2021-05-28T12:27:31Z</time>
      </trkpt>
      <trkpt lat="45.44623" lon="6.63581">
        <ele>966.2</ele>
        <time>2021-05-28T12:27:32Z</time>
      </trkpt>
      <trkpt lat="45.4462" lon="6.63599">
        <ele>965.4</ele>
        <time>2021-05-28T12:27:33Z</time>
      </trkpt>
      <trkpt lat="45.44617" lon="6.63617">
        <ele>965.2</ele>
        <time>2021-05-28T12:27:34Z</time>
      </trkpt>
      <trkpt lat="45.44612" lon="6.63635">
        <ele>964.6</ele>
        <time>2021-05-28T12:27:35Z</time>
      </trkpt>
      <trkpt lat="45.44608" lon="6.63654">
        <ele>964</ele>
        <time>2021-05-28T12:27:36Z</time>
      </trkpt>
      <trkpt lat="45.44604" lon="6.63673">
        <ele>963.6</ele>
        <time>2021-05-28T12:27:37Z</time>
      </trkpt>
      <trkpt lat="45.446" lon="6.63692">
        <ele>963</ele>
        <time>2021-05-28T12:27:38Z</time>
      </trkpt>
      <trkpt lat="45.44595" lon="6.63712">
        <ele>963</ele>
        <time>2021-05-28T12:27:39Z</time>
      </trkpt>
      <trkpt lat="45.4459" lon="6.63731">
        <ele>961.8</ele>
        <time>2021-05-28T12:27:40Z</time>
      </trkpt>
      <trkpt lat="45.44585" lon="6.63751">
        <ele>960.8</ele>
        <time>2021-05-28T12:27:41Z</time>
      </trkpt>
      <trkpt lat="45.44579" lon="6.63769">
        <ele>959.8</ele>
        <time>2021-05-28T12:27:42Z</time>
      </trkpt>
      <trkpt lat="45.44571" lon="6.63788">
        <ele>958.6</ele>
        <time>2021-05-28T12:27:43Z</time>
      </trkpt>
      <trkpt lat="45.44564" lon="6.63806">
        <ele>957.6</ele>
        <time>2021-05-28T12:27:44Z</time>
      </trkpt>
      <trkpt lat="45.44558" lon="6.63825">
        <ele>955.8</ele>
        <time>2021-05-28T12:27:45Z</time>
      </trkpt>
      <trkpt lat="45.44551" lon="6.63843">
        <ele>954.8</ele>
        <time>2021-05-28T12:27:46Z</time>
      </trkpt>
      <trkpt lat="45.44545" lon="6.63862">
        <ele>953.8</ele>
        <time>2021-05-28T12:27:47Z</time>
      </trkpt>
      <trkpt lat="45.4454" lon="6.63882">
        <ele>952.8</ele>
        <time>2021-05-28T12:27:48Z</time>
      </trkpt>
      <trkpt lat="45.44536" lon="6.63902">
        <ele>951.8</ele>
        <time>2021-05-28T12:27:49Z</time>
      </trkpt>
      <trkpt lat="45.44532" lon="6.63922">
        <ele>950.8</ele>
        <time>2021-05-28T12:27:50Z</time>
      </trkpt>
      <trkpt lat="45.44528" lon="6.63942">
        <ele>949.8</ele>
        <time>2021-05-28T12:27:51Z</time>
      </trkpt>
      <trkpt lat="45.44524" lon="6.63962">
        <ele>948.4</ele>
        <time>2021-05-28T12:27:52Z</time>
      </trkpt>
      <trkpt lat="45.44518" lon="6.6398">
        <ele>947.4</ele>
        <time>2021-05-28T12:27:53Z</time>
      </trkpt>
      <trkpt lat="45.44513" lon="6.63999">
        <ele>945.8</ele>
        <time>2021-05-28T12:27:54Z</time>
      </trkpt>
      <trkpt lat="45.44509" lon="6.64016">
        <ele>944.8</ele>
        <time>2021-05-28T12:27:55Z</time>
      </trkpt>
      <trkpt lat="45.44506" lon="6.64035">
        <ele>943.2</ele>
        <time>2021-05-28T12:27:56Z</time>
      </trkpt>
      <trkpt lat="45.44505" lon="6.64054">
        <ele>942</ele>
        <time>2021-05-28T12:27:57Z</time>
      </trkpt>
      <trkpt lat="45.44505" lon="6.64074">
        <ele>940.8</ele>
        <time>2021-05-28T12:27:58Z</time>
      </trkpt>
      <trkpt lat="45.44506" lon="6.64093">
        <ele>939.8</ele>
        <time>2021-05-28T12:27:59Z</time>
      </trkpt>
      <trkpt lat="45.44507" lon="6.64114">
        <ele>939</ele>
        <time>2021-05-28T12:28:00Z</time>
      </trkpt>
      <trkpt lat="45.44508" lon="6.64134">
        <ele>938.2</ele>
        <time>2021-05-28T12:28:01Z</time>
      </trkpt>
      <trkpt lat="45.44508" lon="6.64154">
        <ele>937.2</ele>
        <time>2021-05-28T12:28:02Z</time>
      </trkpt>
      <trkpt lat="45.44507" lon="6.64175">
        <ele>936.2</ele>
        <time>2021-05-28T12:28:03Z</time>
      </trkpt>
      <trkpt lat="45.44503" lon="6.64195">
        <ele>935.2</ele>
        <time>2021-05-28T12:28:04Z</time>
      </trkpt>
      <trkpt lat="45.44499" lon="6.64215">
        <ele>934</ele>
        <time>2021-05-28T12:28:05Z</time>
      </trkpt>
      <trkpt lat="45.44493" lon="6.64234">
        <ele>933.2</ele>
        <time>2021-05-28T12:28:06Z</time>
      </trkpt>
      <trkpt lat="45.44487" lon="6.64253">
        <ele>932</ele>
        <time>2021-05-28T12:28:07Z</time>
      </trkpt>
      <trkpt lat="45.44481" lon="6.64272">
        <ele>930.6</ele>
        <time>2021-05-28T12:28:08Z</time>
      </trkpt>
      <trkpt lat="45.44476" lon="6.64292">
        <ele>929.6</ele>
        <time>2021-05-28T12:28:09Z</time>
      </trkpt>
      <trkpt lat="45.44473" lon="6.64312">
        <ele>928.6</ele>
        <time>2021-05-28T12:28:10Z</time>
      </trkpt>
      <trkpt lat="45.44471" lon="6.64332">
        <ele>927.6</ele>
        <time>2021-05-28T12:28:11Z</time>
      </trkpt>
      <trkpt lat="45.44471" lon="6.64353">
        <ele>926.4</ele>
        <time>2021-05-28T12:28:12Z</time>
      </trkpt>
      <trkpt lat="45.44473" lon="6.64373">
        <ele>925.6</ele>
        <time>2021-05-28T12:28:13Z</time>
      </trkpt>
      <trkpt lat="45.44473" lon="6.64394">
        <ele>924.6</ele>
        <time>2021-05-28T12:28:14Z</time>
      </trkpt>
      <trkpt lat="45.4447" lon="6.64414">
        <ele>924</ele>
        <time>2021-05-28T12:28:15Z</time>
      </trkpt>
      <trkpt lat="45.44468" lon="6.64434">
        <ele>923.4</ele>
        <time>2021-05-28T12:28:16Z</time>
      </trkpt>
      <trkpt lat="45.44465" lon="6.64454">
        <ele>922.6</ele>
        <time>2021-05-28T12:28:17Z</time>
      </trkpt>
      <trkpt lat="45.44461" lon="6.64474">
        <ele>921.4</ele>
        <time>2021-05-28T12:28:18Z</time>
      </trkpt>
      <trkpt lat="45.44459" lon="6.64494">
        <ele>920.4</ele>
        <time>2021-05-28T12:28:19Z</time>
      </trkpt>
      <trkpt lat="45.44457" lon="6.64514">
        <ele>919.8</ele>
        <time>2021-05-28T12:28:20Z</time>
      </trkpt>
      <trkpt lat="45.44457" lon="6.64535">
        <ele>919</ele>
        <time>2021-05-28T12:28:21Z</time>
      </trkpt>
      <trkpt lat="45.44456" lon="6.64555">
        <ele>918.2</ele>
        <time>2021-05-28T12:28:22Z</time>
      </trkpt>
      <trkpt lat="45.44455" lon="6.64575">
        <ele>917.8</ele>
        <time>2021-05-28T12:28:23Z</time>
      </trkpt>
      <trkpt lat="45.44455" lon="6.64594">
        <ele>917</ele>
        <time>2021-05-28T12:28:24Z</time>
      </trkpt>
      <trkpt lat="45.44455" lon="6.64614">
        <ele>915.8</ele>
        <time>2021-05-28T12:28:25Z</time>
      </trkpt>
      <trkpt lat="45.44454" lon="6.64632">
        <ele>915.2</ele>
        <time>2021-05-28T12:28:26Z</time>
      </trkpt>
      <trkpt lat="45.44452" lon="6.64649">
        <ele>914</ele>
        <time>2021-05-28T12:28:27Z</time>
      </trkpt>
      <trkpt lat="45.4445" lon="6.64666">
        <ele>913.2</ele>
        <time>2021-05-28T12:28:28Z</time>
      </trkpt>
      <trkpt lat="45.44446" lon="6.64682">
        <ele>912</ele>
        <time>2021-05-28T12:28:29Z</time>
      </trkpt>
      <trkpt lat="45.4444" lon="6.64697">
        <ele>911.4</ele>
        <time>2021-05-28T12:28:30Z</time>
      </trkpt>
      <trkpt lat="45.44434" lon="6.64711">
        <ele>911</ele>
        <time>2021-05-28T12:28:31Z</time>
      </trkpt>
      <trkpt lat="45.44425" lon="6.64722">
        <ele>910.4</ele>
        <time>2021-05-28T12:28:32Z</time>
      </trkpt>
      <trkpt lat="45.44416" lon="6.64731">
        <ele>909.8</ele>
        <time>2021-05-28T12:28:33Z</time>
      </trkpt>
      <trkpt lat="45.44405" lon="6.64738">
        <ele>909.4</ele>
        <time>2021-05-28T12:28:34Z</time>
      </trkpt>
      <trkpt lat="45.44395" lon="6.64742">
        <ele>910</ele>
        <time>2021-05-28T12:28:35Z</time>
      </trkpt>
      <trkpt lat="45.44383" lon="6.64746">
        <ele>909.4</ele>
        <time>2021-05-28T12:28:36Z</time>
      </trkpt>
      <trkpt lat="45.44372" lon="6.64749">
        <ele>909</ele>
        <time>2021-05-28T12:28:37Z</time>
      </trkpt>
      <trkpt lat="45.44362" lon="6.64753">
        <ele>908.4</ele>
        <time>2021-05-28T12:28:38Z</time>
      </trkpt>
      <trkpt lat="45.44352" lon="6.64756">
        <ele>908</ele>
        <time>2021-05-28T12:28:39Z</time>
      </trkpt>
      <trkpt lat="45.44343" lon="6.64759">
        <ele>907.2</ele>
        <time>2021-05-28T12:28:40Z</time>
      </trkpt>
      <trkpt lat="45.44336" lon="6.64761">
        <ele>906.6</ele>
        <time>2021-05-28T12:28:41Z</time>
      </trkpt>
      <trkpt lat="45.4433" lon="6.64763">
        <ele>906</ele>
        <time>2021-05-28T12:28:42Z</time>
      </trkpt>
      <trkpt lat="45.44324" lon="6.64766">
        <ele>904.4</ele>
        <time>2021-05-28T12:28:43Z</time>
      </trkpt>
      <trkpt lat="45.4432" lon="6.6477">
        <ele>903.4</ele>
        <time>2021-05-28T12:28:44Z</time>
      </trkpt>
      <trkpt lat="45.44316" lon="6.64774">
        <ele>901.8</ele>
        <time>2021-05-28T12:28:45Z</time>
      </trkpt>
      <trkpt lat="45.44316" lon="6.64778">
        <ele>900.8</ele>
        <time>2021-05-28T12:28:46Z</time>
      </trkpt>
      <trkpt lat="45.44317" lon="6.64783">
        <ele>899.8</ele>
        <time>2021-05-28T12:28:47Z</time>
      </trkpt>
      <trkpt lat="45.44319" lon="6.64788">
        <ele>899.6</ele>
        <time>2021-05-28T12:28:48Z</time>
      </trkpt>
      <trkpt lat="45.44322" lon="6.64794">
        <ele>899.2</ele>
        <time>2021-05-28T12:28:49Z</time>
      </trkpt>
      <trkpt lat="45.44324" lon="6.648">
        <ele>899</ele>
        <time>2021-05-28T12:28:50Z</time>
      </trkpt>
      <trkpt lat="45.44327" lon="6.64807">
        <ele>898.4</ele>
        <time>2021-05-28T12:28:51Z</time>
      </trkpt>
      <trkpt lat="45.44327" lon="6.64813">
        <ele>898.4</ele>
        <time>2021-05-28T12:28:52Z</time>
      </trkpt>
      <trkpt lat="45.44325" lon="6.6482">
        <ele>897.8</ele>
        <time>2021-05-28T12:28:53Z</time>
      </trkpt>
      <trkpt lat="45.44321" lon="6.64825">
        <ele>897.4</ele>
        <time>2021-05-28T12:28:54Z</time>
      </trkpt>
      <trkpt lat="45.44314" lon="6.6483">
        <ele>896.8</ele>
        <time>2021-05-28T12:28:55Z</time>
      </trkpt>
      <trkpt lat="45.44307" lon="6.64834">
        <ele>896.6</ele>
        <time>2021-05-28T12:28:56Z</time>
      </trkpt>
      <trkpt lat="45.443" lon="6.6484">
        <ele>895.8</ele>
        <time>2021-05-28T12:28:57Z</time>
      </trkpt>
      <trkpt lat="45.44293" lon="6.64846">
        <ele>895.6</ele>
        <time>2021-05-28T12:28:58Z</time>
      </trkpt>
      <trkpt lat="45.44286" lon="6.64852">
        <ele>895</ele>
        <time>2021-05-28T12:28:59Z</time>
      </trkpt>
      <trkpt lat="45.44279" lon="6.64858">
        <ele>893.8</ele>
        <time>2021-05-28T12:29:00Z</time>
      </trkpt>
      <trkpt lat="45.44273" lon="6.64863">
        <ele>892.8</ele>
        <time>2021-05-28T12:29:01Z</time>
      </trkpt>
      <trkpt lat="45.44268" lon="6.64867">
        <ele>891.8</ele>
        <time>2021-05-28T12:29:02Z</time>
      </trkpt>
      <trkpt lat="45.44263" lon="6.64869">
        <ele>891.2</ele>
        <time>2021-05-28T12:29:03Z</time>
      </trkpt>
      <trkpt lat="45.44259" lon="6.64867">
        <ele>890.2</ele>
        <time>2021-05-28T12:29:04Z</time>
      </trkpt>
      <trkpt lat="45.44255" lon="6.64861">
        <ele>889.2</ele>
        <time>2021-05-28T12:29:05Z</time>
      </trkpt>
      <trkpt lat="45.44254" lon="6.64853">
        <ele>888.4</ele>
        <time>2021-05-28T12:29:06Z</time>
      </trkpt>
      <trkpt lat="45.44252" lon="6.64846">
        <ele>887.8</ele>
        <time>2021-05-28T12:29:07Z</time>
      </trkpt>
      <trkpt lat="45.44251" lon="6.64838">
        <ele>887.2</ele>
        <time>2021-05-28T12:29:08Z</time>
      </trkpt>
      <trkpt lat="45.4425" lon="6.64829">
        <ele>887.2</ele>
        <time>2021-05-28T12:29:09Z</time>
      </trkpt>
      <trkpt lat="45.44249" lon="6.6482">
        <ele>886.6</ele>
        <time>2021-05-28T12:29:10Z</time>
      </trkpt>
      <trkpt lat="45.44249" lon="6.64812">
        <ele>886.4</ele>
        <time>2021-05-28T12:29:11Z</time>
      </trkpt>
      <trkpt lat="45.44248" lon="6.64804">
        <ele>886.4</ele>
        <time>2021-05-28T12:29:12Z</time>
      </trkpt>
      <trkpt lat="45.44247" lon="6.64796">
        <ele>886.2</ele>
        <time>2021-05-28T12:29:13Z</time>
      </trkpt>
      <trkpt lat="45.44245" lon="6.64788">
        <ele>885.8</ele>
        <time>2021-05-28T12:29:14Z</time>
      </trkpt>
      <trkpt lat="45.44244" lon="6.6478">
        <ele>886</ele>
        <time>2021-05-28T12:29:15Z</time>
      </trkpt>
      <trkpt lat="45.44244" lon="6.64771">
        <ele>886.6</ele>
        <time>2021-05-28T12:29:16Z</time>
      </trkpt>
      <trkpt lat="45.44243" lon="6.64763">
        <ele>886.6</ele>
        <time>2021-05-28T12:29:17Z</time>
      </trkpt>
      <trkpt lat="45.44242" lon="6.64756">
        <ele>886.8</ele>
        <time>2021-05-28T12:29:18Z</time>
      </trkpt>
      <trkpt lat="45.44241" lon="6.64748">
        <ele>886.6</ele>
        <time>2021-05-28T12:29:19Z</time>
      </trkpt>
      <trkpt lat="45.4424" lon="6.64741">
        <ele>886.4</ele>
        <time>2021-05-28T12:29:20Z</time>
      </trkpt>
      <trkpt lat="45.44239" lon="6.64734">
        <ele>886.2</ele>
        <time>2021-05-28T12:29:21Z</time>
      </trkpt>
      <trkpt lat="45.44237" lon="6.64726">
        <ele>886</ele>
        <time>2021-05-28T12:29:22Z</time>
      </trkpt>
      <trkpt lat="45.44236" lon="6.64719">
        <ele>885.8</ele>
        <time>2021-05-28T12:29:23Z</time>
      </trkpt>
      <trkpt lat="45.44235" lon="6.64711">
        <ele>885.8</ele>
        <time>2021-05-28T12:29:24Z</time>
      </trkpt>
      <trkpt lat="45.44234" lon="6.64703">
        <ele>885.6</ele>
        <time>2021-05-28T12:29:25Z</time>
      </trkpt>
      <trkpt lat="45.44233" lon="6.64694">
        <ele>885.2</ele>
        <time>2021-05-28T12:29:26Z</time>
      </trkpt>
      <trkpt lat="45.44232" lon="6.64685">
        <ele>885</ele>
        <time>2021-05-28T12:29:27Z</time>
      </trkpt>
      <trkpt lat="45.44231" lon="6.64677">
        <ele>884.8</ele>
        <time>2021-05-28T12:29:28Z</time>
      </trkpt>
      <trkpt lat="45.4423" lon="6.64668">
        <ele>884.6</ele>
        <time>2021-05-28T12:29:29Z</time>
      </trkpt>
      <trkpt lat="45.44229" lon="6.64658">
        <ele>884</ele>
        <time>2021-05-28T12:29:30Z</time>
      </trkpt>
      <trkpt lat="45.44228" lon="6.64649">
        <ele>883.8</ele>
        <time>2021-05-28T12:29:31Z</time>
      </trkpt>
      <trkpt lat="45.44228" lon="6.64638">
        <ele>883.6</ele>
        <time>2021-05-28T12:29:32Z</time>
      </trkpt>
      <trkpt lat="45.44228" lon="6.64627">
        <ele>883.4</ele>
        <time>2021-05-28T12:29:33Z</time>
      </trkpt>
      <trkpt lat="45.44228" lon="6.64615">
        <ele>883.2</ele>
        <time>2021-05-28T12:29:34Z</time>
      </trkpt>
      <trkpt lat="45.44227" lon="6.64603">
        <ele>882.8</ele>
        <time>2021-05-28T12:29:35Z</time>
      </trkpt>
      <trkpt lat="45.44227" lon="6.6459">
        <ele>882.4</ele>
        <time>2021-05-28T12:29:36Z</time>
      </trkpt>
      <trkpt lat="45.44227" lon="6.64576">
        <ele>881.8</ele>
        <time>2021-05-28T12:29:37Z</time>
      </trkpt>
      <trkpt lat="45.44227" lon="6.64562">
        <ele>881.2</ele>
        <time>2021-05-28T12:29:38Z</time>
      </trkpt>
      <trkpt lat="45.44227" lon="6.64547">
        <ele>880.4</ele>
        <time>2021-05-28T12:29:39Z</time>
      </trkpt>
      <trkpt lat="45.44226" lon="6.64532">
        <ele>879.8</ele>
        <time>2021-05-28T12:29:40Z</time>
      </trkpt>
      <trkpt lat="45.44227" lon="6.64516">
        <ele>879</ele>
        <time>2021-05-28T12:29:41Z</time>
      </trkpt>
      <trkpt lat="45.44227" lon="6.64501">
        <ele>878</ele>
        <time>2021-05-28T12:29:42Z</time>
      </trkpt>
      <trkpt lat="45.44228" lon="6.64485">
        <ele>877.2</ele>
        <time>2021-05-28T12:29:43Z</time>
      </trkpt>
      <trkpt lat="45.44228" lon="6.64469">
        <ele>876.6</ele>
        <time>2021-05-28T12:29:44Z</time>
      </trkpt>
      <trkpt lat="45.44228" lon="6.64453">
        <ele>876.2</ele>
        <time>2021-05-28T12:29:45Z</time>
      </trkpt>
      <trkpt lat="45.44229" lon="6.64437">
        <ele>876</ele>
        <time>2021-05-28T12:29:46Z</time>
      </trkpt>
      <trkpt lat="45.44232" lon="6.6442">
        <ele>875</ele>
        <time>2021-05-28T12:29:47Z</time>
      </trkpt>
      <trkpt lat="45.44235" lon="6.64404">
        <ele>874.2</ele>
        <time>2021-05-28T12:29:48Z</time>
      </trkpt>
      <trkpt lat="45.44237" lon="6.64388">
        <ele>873.8</ele>
        <time>2021-05-28T12:29:49Z</time>
      </trkpt>
      <trkpt lat="45.44241" lon="6.64371">
        <ele>872.8</ele>
        <time>2021-05-28T12:29:50Z</time>
      </trkpt>
      <trkpt lat="45.44244" lon="6.64355">
        <ele>872</ele>
        <time>2021-05-28T12:29:51Z</time>
      </trkpt>
      <trkpt lat="45.44249" lon="6.64339">
        <ele>870.6</ele>
        <time>2021-05-28T12:29:52Z</time>
      </trkpt>
      <trkpt lat="45.44253" lon="6.64324">
        <ele>870</ele>
        <time>2021-05-28T12:29:53Z</time>
      </trkpt>
      <trkpt lat="45.44258" lon="6.64308">
        <ele>867.6</ele>
        <time>2021-05-28T12:29:54Z</time>
      </trkpt>
      <trkpt lat="45.44262" lon="6.64292">
        <ele>866.4</ele>
        <time>2021-05-28T12:29:55Z</time>
      </trkpt>
      <trkpt lat="45.44267" lon="6.64277">
        <ele>865.2</ele>
        <time>2021-05-28T12:29:56Z</time>
      </trkpt>
      <trkpt lat="45.44271" lon="6.6426">
        <ele>864.2</ele>
        <time>2021-05-28T12:29:57Z</time>
      </trkpt>
      <trkpt lat="45.44275" lon="6.64244">
        <ele>863.4</ele>
        <time>2021-05-28T12:29:58Z</time>
      </trkpt>
      <trkpt lat="45.44279" lon="6.64227">
        <ele>863.2</ele>
        <time>2021-05-28T12:29:59Z</time>
      </trkpt>
      <trkpt lat="45.44284" lon="6.6421">
        <ele>863.2</ele>
        <time>2021-05-28T12:30:00Z</time>
      </trkpt>
      <trkpt lat="45.44289" lon="6.64193">
        <ele>861.6</ele>
        <time>2021-05-28T12:30:01Z</time>
      </trkpt>
      <trkpt lat="45.44294" lon="6.64176">
        <ele>860</ele>
        <time>2021-05-28T12:30:02Z</time>
      </trkpt>
      <trkpt lat="45.44299" lon="6.64159">
        <ele>858.4</ele>
        <time>2021-05-28T12:30:03Z</time>
      </trkpt>
      <trkpt lat="45.44303" lon="6.64142">
        <ele>856.8</ele>
        <time>2021-05-28T12:30:04Z</time>
      </trkpt>
      <trkpt lat="45.44308" lon="6.64124">
        <ele>854.8</ele>
        <time>2021-05-28T12:30:05Z</time>
      </trkpt>
      <trkpt lat="45.44313" lon="6.64106">
        <ele>853.4</ele>
        <time>2021-05-28T12:30:06Z</time>
      </trkpt>
      <trkpt lat="45.44318" lon="6.64088">
        <ele>852.2</ele>
        <time>2021-05-28T12:30:07Z</time>
      </trkpt>
      <trkpt lat="45.44323" lon="6.6407">
        <ele>850.8</ele>
        <time>2021-05-28T12:30:08Z</time>
      </trkpt>
      <trkpt lat="45.44326" lon="6.64051">
        <ele>849.8</ele>
        <time>2021-05-28T12:30:09Z</time>
      </trkpt>
      <trkpt lat="45.44329" lon="6.64032">
        <ele>848.6</ele>
        <time>2021-05-28T12:30:10Z</time>
      </trkpt>
      <trkpt lat="45.4433" lon="6.64012">
        <ele>847.4</ele>
        <time>2021-05-28T12:30:11Z</time>
      </trkpt>
      <trkpt lat="45.44331" lon="6.63992">
        <ele>846.2</ele>
        <time>2021-05-28T12:30:12Z</time>
      </trkpt>
      <trkpt lat="45.4433" lon="6.63972">
        <ele>845.4</ele>
        <time>2021-05-28T12:30:13Z</time>
      </trkpt>
      <trkpt lat="45.44327" lon="6.63952">
        <ele>844.2</ele>
        <time>2021-05-28T12:30:14Z</time>
      </trkpt>
      <trkpt lat="45.44324" lon="6.63932">
        <ele>843</ele>
        <time>2021-05-28T12:30:15Z</time>
      </trkpt>
      <trkpt lat="45.44319" lon="6.63912">
        <ele>841.4</ele>
        <time>2021-05-28T12:30:16Z</time>
      </trkpt>
      <trkpt lat="45.44313" lon="6.63893">
        <ele>840.2</ele>
        <time>2021-05-28T12:30:17Z</time>
      </trkpt>
      <trkpt lat="45.44305" lon="6.63875">
        <ele>839</ele>
        <time>2021-05-28T12:30:18Z</time>
      </trkpt>
      <trkpt lat="45.44295" lon="6.63859">
        <ele>837.8</ele>
        <time>2021-05-28T12:30:19Z</time>
      </trkpt>
      <trkpt lat="45.44284" lon="6.63843">
        <ele>836.2</ele>
        <time>2021-05-28T12:30:20Z</time>
      </trkpt>
      <trkpt lat="45.44272" lon="6.63828">
        <ele>835</ele>
        <time>2021-05-28T12:30:21Z</time>
      </trkpt>
      <trkpt lat="45.4426" lon="6.63814">
        <ele>834.2</ele>
        <time>2021-05-28T12:30:22Z</time>
      </trkpt>
      <trkpt lat="45.44247" lon="6.638">
        <ele>833.2</ele>
        <time>2021-05-28T12:30:23Z</time>
      </trkpt>
      <trkpt lat="45.44235" lon="6.63786">
        <ele>832</ele>
        <time>2021-05-28T12:30:24Z</time>
      </trkpt>
      <trkpt lat="45.44223" lon="6.63772">
        <ele>830.4</ele>
        <time>2021-05-28T12:30:25Z</time>
      </trkpt>
      <trkpt lat="45.44212" lon="6.63759">
        <ele>829.2</ele>
        <time>2021-05-28T12:30:26Z</time>
      </trkpt>
      <trkpt lat="45.44203" lon="6.63746">
        <ele>828.6</ele>
        <time>2021-05-28T12:30:27Z</time>
      </trkpt>
      <trkpt lat="45.44195" lon="6.63734">
        <ele>828</ele>
        <time>2021-05-28T12:30:28Z</time>
      </trkpt>
      <trkpt lat="45.4419" lon="6.63721">
        <ele>827.2</ele>
        <time>2021-05-28T12:30:29Z</time>
      </trkpt>
      <trkpt lat="45.44188" lon="6.63708">
        <ele>826.4</ele>
        <time>2021-05-28T12:30:30Z</time>
      </trkpt>
      <trkpt lat="45.44188" lon="6.63696">
        <ele>826.2</ele>
        <time>2021-05-28T12:30:31Z</time>
      </trkpt>
      <trkpt lat="45.44192" lon="6.63686">
        <ele>826.2</ele>
        <time>2021-05-28T12:30:32Z</time>
      </trkpt>
      <trkpt lat="45.44198" lon="6.63677">
        <ele>825.2</ele>
        <time>2021-05-28T12:30:33Z</time>
      </trkpt>
      <trkpt lat="45.44204" lon="6.63668">
        <ele>825</ele>
        <time>2021-05-28T12:30:34Z</time>
      </trkpt>
      <trkpt lat="45.44209" lon="6.63659">
        <ele>825</ele>
        <time>2021-05-28T12:30:35Z</time>
      </trkpt>
      <trkpt lat="45.44215" lon="6.6365">
        <ele>825.2</ele>
        <time>2021-05-28T12:30:36Z</time>
      </trkpt>
      <trkpt lat="45.44219" lon="6.63642">
        <ele>825.2</ele>
        <time>2021-05-28T12:30:37Z</time>
      </trkpt>
      <trkpt lat="45.44223" lon="6.63633">
        <ele>825.6</ele>
        <time>2021-05-28T12:30:38Z</time>
      </trkpt>
      <trkpt lat="45.44226" lon="6.63624">
        <ele>826.2</ele>
        <time>2021-05-28T12:30:39Z</time>
      </trkpt>
      <trkpt lat="45.44229" lon="6.63616">
        <ele>826.4</ele>
        <time>2021-05-28T12:30:40Z</time>
      </trkpt>
      <trkpt lat="45.44231" lon="6.63607">
        <ele>826.8</ele>
        <time>2021-05-28T12:30:41Z</time>
      </trkpt>
      <trkpt lat="45.44233" lon="6.63599">
        <ele>826.8</ele>
        <time>2021-05-28T12:30:42Z</time>
      </trkpt>
      <trkpt lat="45.44234" lon="6.63591">
        <ele>827</ele>
        <time>2021-05-28T12:30:43Z</time>
      </trkpt>
      <trkpt lat="45.44234" lon="6.63582">
        <ele>827.6</ele>
        <time>2021-05-28T12:30:44Z</time>
      </trkpt>
      <trkpt lat="45.44234" lon="6.63574">
        <ele>827.8</ele>
        <time>2021-05-28T12:30:45Z</time>
      </trkpt>
      <trkpt lat="45.44234" lon="6.63566">
        <ele>828.2</ele>
        <time>2021-05-28T12:30:46Z</time>
      </trkpt>
      <trkpt lat="45.44235" lon="6.63558">
        <ele>828.6</ele>
        <time>2021-05-28T12:30:47Z</time>
      </trkpt>
      <trkpt lat="45.44235" lon="6.63551">
        <ele>828.6</ele>
        <time>2021-05-28T12:30:48Z</time>
      </trkpt>
      <trkpt lat="45.44237" lon="6.63544">
        <ele>828.4</ele>
        <time>2021-05-28T12:30:49Z</time>
      </trkpt>
      <trkpt lat="45.44237" lon="6.63537">
        <ele>828.4</ele>
        <time>2021-05-28T12:30:50Z</time>
      </trkpt>
      <trkpt lat="45.44238" lon="6.6353">
        <ele>828.2</ele>
        <time>2021-05-28T12:30:51Z</time>
      </trkpt>
      <trkpt lat="45.44239" lon="6.63522">
        <ele>828.4</ele>
        <time>2021-05-28T12:30:52Z</time>
      </trkpt>
      <trkpt lat="45.44239" lon="6.63516">
        <ele>828.4</ele>
        <time>2021-05-28T12:30:53Z</time>
      </trkpt>
      <trkpt lat="45.44241" lon="6.6351">
        <ele>828.4</ele>
        <time>2021-05-28T12:30:54Z</time>
      </trkpt>
      <trkpt lat="45.44243" lon="6.63505">
        <ele>828.6</ele>
        <time>2021-05-28T12:30:55Z</time>
      </trkpt>
      <trkpt lat="45.44245" lon="6.635">
        <ele>828.6</ele>
        <time>2021-05-28T12:30:56Z</time>
      </trkpt>
      <trkpt lat="45.44247" lon="6.63495">
        <ele>828.6</ele>
        <time>2021-05-28T12:30:57Z</time>
      </trkpt>
      <trkpt lat="45.44249" lon="6.63488">
        <ele>828.4</ele>
        <time>2021-05-28T12:30:58Z</time>
      </trkpt>
      <trkpt lat="45.44251" lon="6.63482">
        <ele>828.6</ele>
        <time>2021-05-28T12:30:59Z</time>
      </trkpt>
      <trkpt lat="45.44252" lon="6.63474">
        <ele>829</ele>
        <time>2021-05-28T12:31:00Z</time>
      </trkpt>
      <trkpt lat="45.44254" lon="6.63467">
        <ele>829</ele>
        <time>2021-05-28T12:31:01Z</time>
      </trkpt>
      <trkpt lat="45.44255" lon="6.6346">
        <ele>828.6</ele>
        <time>2021-05-28T12:31:02Z</time>
      </trkpt>
      <trkpt lat="45.44258" lon="6.63454">
        <ele>828.6</ele>
        <time>2021-05-28T12:31:03Z</time>
      </trkpt>
      <trkpt lat="45.4426" lon="6.63447">
        <ele>828.6</ele>
        <time>2021-05-28T12:31:04Z</time>
      </trkpt>
      <trkpt lat="45.44261" lon="6.63441">
        <ele>828.6</ele>
        <time>2021-05-28T12:31:05Z</time>
      </trkpt>
      <trkpt lat="45.44263" lon="6.63435">
        <ele>829.4</ele>
        <time>2021-05-28T12:31:06Z</time>
      </trkpt>
      <trkpt lat="45.44264" lon="6.63428">
        <ele>830.6</ele>
        <time>2021-05-28T12:31:07Z</time>
      </trkpt>
      <trkpt lat="45.44265" lon="6.63422">
        <ele>831.4</ele>
        <time>2021-05-28T12:31:08Z</time>
      </trkpt>
      <trkpt lat="45.44265" lon="6.63415">
        <ele>831.8</ele>
        <time>2021-05-28T12:31:09Z</time>
      </trkpt>
      <trkpt lat="45.44266" lon="6.63408">
        <ele>832.2</ele>
        <time>2021-05-28T12:31:10Z</time>
      </trkpt>
      <trkpt lat="45.44267" lon="6.63401">
        <ele>832</ele>
        <time>2021-05-28T12:31:11Z</time>
      </trkpt>
      <trkpt lat="45.44269" lon="6.63394">
        <ele>831.8</ele>
        <time>2021-05-28T12:31:12Z</time>
      </trkpt>
      <trkpt lat="45.44271" lon="6.63388">
        <ele>832.2</ele>
        <time>2021-05-28T12:31:13Z</time>
      </trkpt>
      <trkpt lat="45.44272" lon="6.63381">
        <ele>832.6</ele>
        <time>2021-05-28T12:31:14Z</time>
      </trkpt>
      <trkpt lat="45.44274" lon="6.63375">
        <ele>832.6</ele>
        <time>2021-05-28T12:31:15Z</time>
      </trkpt>
      <trkpt lat="45.44276" lon="6.63369">
        <ele>832.8</ele>
        <time>2021-05-28T12:31:16Z</time>
      </trkpt>
      <trkpt lat="45.44277" lon="6.63363">
        <ele>832.8</ele>
        <time>2021-05-28T12:31:17Z</time>
      </trkpt>
      <trkpt lat="45.44277" lon="6.63357">
        <ele>832.8</ele>
        <time>2021-05-28T12:31:18Z</time>
      </trkpt>
      <trkpt lat="45.44278" lon="6.63351">
        <ele>833.2</ele>
        <time>2021-05-28T12:31:19Z</time>
      </trkpt>
      <trkpt lat="45.44278" lon="6.63344">
        <ele>833.4</ele>
        <time>2021-05-28T12:31:20Z</time>
      </trkpt>
      <trkpt lat="45.44279" lon="6.63338">
        <ele>833.6</ele>
        <time>2021-05-28T12:31:21Z</time>
      </trkpt>
      <trkpt lat="45.44279" lon="6.63331">
        <ele>834</ele>
        <time>2021-05-28T12:31:22Z</time>
      </trkpt>
      <trkpt lat="45.4428" lon="6.63324">
        <ele>834.4</ele>
        <time>2021-05-28T12:31:23Z</time>
      </trkpt>
      <trkpt lat="45.44281" lon="6.63317">
        <ele>834.6</ele>
        <time>2021-05-28T12:31:24Z</time>
      </trkpt>
      <trkpt lat="45.44281" lon="6.6331">
        <ele>834.8</ele>
        <time>2021-05-28T12:31:25Z</time>
      </trkpt>
      <trkpt lat="45.44282" lon="6.63304">
        <ele>835</ele>
        <time>2021-05-28T12:31:26Z</time>
      </trkpt>
      <trkpt lat="45.44283" lon="6.63298">
        <ele>835</ele>
        <time>2021-05-28T12:31:27Z</time>
      </trkpt>
      <trkpt lat="45.44283" lon="6.63291">
        <ele>835.2</ele>
        <time>2021-05-28T12:31:28Z</time>
      </trkpt>
      <trkpt lat="45.44283" lon="6.63284">
        <ele>835</ele>
        <time>2021-05-28T12:31:29Z</time>
      </trkpt>
      <trkpt lat="45.44281" lon="6.63278">
        <ele>835</ele>
        <time>2021-05-28T12:31:30Z</time>
      </trkpt>
      <trkpt lat="45.4428" lon="6.63272">
        <ele>835</ele>
        <time>2021-05-28T12:31:31Z</time>
      </trkpt>
      <trkpt lat="45.44279" lon="6.63266">
        <ele>835</ele>
        <time>2021-05-28T12:31:32Z</time>
      </trkpt>
      <trkpt lat="45.44278" lon="6.63259">
        <ele>835</ele>
        <time>2021-05-28T12:31:33Z</time>
      </trkpt>
      <trkpt lat="45.44278" lon="6.63252">
        <ele>834.8</ele>
        <time>2021-05-28T12:31:34Z</time>
      </trkpt>
      <trkpt lat="45.44278" lon="6.63246">
        <ele>834.8</ele>
        <time>2021-05-28T12:31:35Z</time>
      </trkpt>
      <trkpt lat="45.44278" lon="6.6324">
        <ele>835</ele>
        <time>2021-05-28T12:31:36Z</time>
      </trkpt>
      <trkpt lat="45.44279" lon="6.63234">
        <ele>835.4</ele>
        <time>2021-05-28T12:31:37Z</time>
      </trkpt>
      <trkpt lat="45.44279" lon="6.63227">
        <ele>835.4</ele>
        <time>2021-05-28T12:31:38Z</time>
      </trkpt>
      <trkpt lat="45.44279" lon="6.63219">
        <ele>835.6</ele>
        <time>2021-05-28T12:31:39Z</time>
      </trkpt>
      <trkpt lat="45.44279" lon="6.63211">
        <ele>835.4</ele>
        <time>2021-05-28T12:31:40Z</time>
      </trkpt>
      <trkpt lat="45.44279" lon="6.63203">
        <ele>835.6</ele>
        <time>2021-05-28T12:31:41Z</time>
      </trkpt>
      <trkpt lat="45.44279" lon="6.63196">
        <ele>835.8</ele>
        <time>2021-05-28T12:31:42Z</time>
      </trkpt>
      <trkpt lat="45.44279" lon="6.63189">
        <ele>835.8</ele>
        <time>2021-05-28T12:31:43Z</time>
      </trkpt>
      <trkpt lat="45.44279" lon="6.63182">
        <ele>836.2</ele>
        <time>2021-05-28T12:31:44Z</time>
      </trkpt>
      <trkpt lat="45.44278" lon="6.63174">
        <ele>836.2</ele>
        <time>2021-05-28T12:31:45Z</time>
      </trkpt>
      <trkpt lat="45.44278" lon="6.63166">
        <ele>836.4</ele>
        <time>2021-05-28T12:31:46Z</time>
      </trkpt>
      <trkpt lat="45.44278" lon="6.63159">
        <ele>836.4</ele>
        <time>2021-05-28T12:31:47Z</time>
      </trkpt>
      <trkpt lat="45.44279" lon="6.63153">
        <ele>836.8</ele>
        <time>2021-05-28T12:31:48Z</time>
      </trkpt>
      <trkpt lat="45.44279" lon="6.63147">
        <ele>837</ele>
        <time>2021-05-28T12:31:49Z</time>
      </trkpt>
      <trkpt lat="45.44281" lon="6.6314">
        <ele>837.2</ele>
        <time>2021-05-28T12:31:50Z</time>
      </trkpt>
      <trkpt lat="45.44283" lon="6.63134">
        <ele>837.4</ele>
        <time>2021-05-28T12:31:51Z</time>
      </trkpt>
      <trkpt lat="45.44284" lon="6.63128">
        <ele>837.6</ele>
        <time>2021-05-28T12:31:52Z</time>
      </trkpt>
      <trkpt lat="45.44285" lon="6.63122">
        <ele>838</ele>
        <time>2021-05-28T12:31:53Z</time>
      </trkpt>
      <trkpt lat="45.44287" lon="6.63116">
        <ele>838.2</ele>
        <time>2021-05-28T12:31:54Z</time>
      </trkpt>
      <trkpt lat="45.44289" lon="6.6311">
        <ele>838.4</ele>
        <time>2021-05-28T12:31:55Z</time>
      </trkpt>
      <trkpt lat="45.44289" lon="6.63103">
        <ele>838.8</ele>
        <time>2021-05-28T12:31:56Z</time>
      </trkpt>
      <trkpt lat="45.4429" lon="6.63097">
        <ele>839</ele>
        <time>2021-05-28T12:31:57Z</time>
      </trkpt>
      <trkpt lat="45.4429" lon="6.6309">
        <ele>839.2</ele>
        <time>2021-05-28T12:31:58Z</time>
      </trkpt>
      <trkpt lat="45.44291" lon="6.63084">
        <ele>839.6</ele>
        <time>2021-05-28T12:31:59Z</time>
      </trkpt>
      <trkpt lat="45.44292" lon="6.63077">
        <ele>839.8</ele>
        <time>2021-05-28T12:32:00Z</time>
      </trkpt>
      <trkpt lat="45.44293" lon="6.63071">
        <ele>840</ele>
        <time>2021-05-28T12:32:01Z</time>
      </trkpt>
      <trkpt lat="45.44294" lon="6.63065">
        <ele>840.2</ele>
        <time>2021-05-28T12:32:02Z</time>
      </trkpt>
      <trkpt lat="45.44295" lon="6.63059">
        <ele>840.6</ele>
        <time>2021-05-28T12:32:03Z</time>
      </trkpt>
      <trkpt lat="45.44297" lon="6.63053">
        <ele>840.6</ele>
        <time>2021-05-28T12:32:04Z</time>
      </trkpt>
      <trkpt lat="45.44298" lon="6.63047">
        <ele>841</ele>
        <time>2021-05-28T12:32:05Z</time>
      </trkpt>
      <trkpt lat="45.44299" lon="6.6304">
        <ele>841.2</ele>
        <time>2021-05-28T12:32:06Z</time>
      </trkpt>
      <trkpt lat="45.443" lon="6.63034">
        <ele>841.4</ele>
        <time>2021-05-28T12:32:07Z</time>
      </trkpt>
      <trkpt lat="45.44301" lon="6.63028">
        <ele>841.4</ele>
        <time>2021-05-28T12:32:08Z</time>
      </trkpt>
      <trkpt lat="45.44302" lon="6.63023">
        <ele>841.4</ele>
        <time>2021-05-28T12:32:09Z</time>
      </trkpt>
      <trkpt lat="45.44303" lon="6.63017">
        <ele>841.8</ele>
        <time>2021-05-28T12:32:10Z</time>
      </trkpt>
      <trkpt lat="45.44303" lon="6.63011">
        <ele>842.2</ele>
        <time>2021-05-28T12:32:11Z</time>
      </trkpt>
      <trkpt lat="45.44305" lon="6.63005">
        <ele>842.4</ele>
        <time>2021-05-28T12:32:12Z</time>
      </trkpt>
      <trkpt lat="45.44306" lon="6.62999">
        <ele>842.4</ele>
        <time>2021-05-28T12:32:13Z</time>
      </trkpt>
      <trkpt lat="45.44308" lon="6.62993">
        <ele>842.6</ele>
        <time>2021-05-28T12:32:14Z</time>
      </trkpt>
      <trkpt lat="45.44309" lon="6.62987">
        <ele>842.6</ele>
        <time>2021-05-28T12:32:15Z</time>
      </trkpt>
      <trkpt lat="45.4431" lon="6.62981">
        <ele>842.8</ele>
        <time>2021-05-28T12:32:16Z</time>
      </trkpt>
      <trkpt lat="45.4431" lon="6.62974">
        <ele>842.8</ele>
        <time>2021-05-28T12:32:17Z</time>
      </trkpt>
      <trkpt lat="45.44312" lon="6.62968">
        <ele>843</ele>
        <time>2021-05-28T12:32:18Z</time>
      </trkpt>
      <trkpt lat="45.44313" lon="6.62963">
        <ele>843.4</ele>
        <time>2021-05-28T12:32:19Z</time>
      </trkpt>
      <trkpt lat="45.44315" lon="6.62958">
        <ele>843.4</ele>
        <time>2021-05-28T12:32:20Z</time>
      </trkpt>
      <trkpt lat="45.44316" lon="6.62953">
        <ele>843.4</ele>
        <time>2021-05-28T12:32:21Z</time>
      </trkpt>
      <trkpt lat="45.44317" lon="6.62947">
        <ele>843.6</ele>
        <time>2021-05-28T12:32:22Z</time>
      </trkpt>
      <trkpt lat="45.44316" lon="6.6294">
        <ele>843.6</ele>
        <time>2021-05-28T12:32:23Z</time>
      </trkpt>
      <trkpt lat="45.44316" lon="6.62933">
        <ele>843.6</ele>
        <time>2021-05-28T12:32:24Z</time>
      </trkpt>
      <trkpt lat="45.44314" lon="6.62926">
        <ele>843.8</ele>
        <time>2021-05-28T12:32:25Z</time>
      </trkpt>
      <trkpt lat="45.44312" lon="6.62919">
        <ele>844</ele>
        <time>2021-05-28T12:32:26Z</time>
      </trkpt>
      <trkpt lat="45.44312" lon="6.62915">
        <ele>844</ele>
        <time>2021-05-28T12:32:27Z</time>
      </trkpt>
      <trkpt lat="45.44311" lon="6.6291">
        <ele>844.2</ele>
        <time>2021-05-28T12:32:28Z</time>
      </trkpt>
      <trkpt lat="45.4431" lon="6.62905">
        <ele>844.2</ele>
        <time>2021-05-28T12:32:29Z</time>
      </trkpt>
      <trkpt lat="45.4431" lon="6.62901">
        <ele>844.4</ele>
        <time>2021-05-28T12:32:30Z</time>
      </trkpt>
      <trkpt lat="45.44308" lon="6.62896">
        <ele>844.6</ele>
        <time>2021-05-28T12:32:31Z</time>
      </trkpt>
      <trkpt lat="45.44307" lon="6.6289">
        <ele>844.6</ele>
        <time>2021-05-28T12:32:32Z</time>
      </trkpt>
      <trkpt lat="45.44304" lon="6.62886">
        <ele>844.8</ele>
        <time>2021-05-28T12:32:33Z</time>
      </trkpt>
      <trkpt lat="45.44302" lon="6.62881">
        <ele>845</ele>
        <time>2021-05-28T12:32:34Z</time>
      </trkpt>
      <trkpt lat="45.443" lon="6.62876">
        <ele>845</ele>
        <time>2021-05-28T12:32:35Z</time>
      </trkpt>
      <trkpt lat="45.44298" lon="6.62871">
        <ele>845.2</ele>
        <time>2021-05-28T12:32:36Z</time>
      </trkpt>
      <trkpt lat="45.44297" lon="6.62864">
        <ele>845.2</ele>
        <time>2021-05-28T12:32:37Z</time>
      </trkpt>
      <trkpt lat="45.44294" lon="6.62857">
        <ele>845.4</ele>
        <time>2021-05-28T12:32:38Z</time>
      </trkpt>
      <trkpt lat="45.44293" lon="6.6285">
        <ele>845.6</ele>
        <time>2021-05-28T12:32:39Z</time>
      </trkpt>
      <trkpt lat="45.44293" lon="6.62843">
        <ele>845.6</ele>
        <time>2021-05-28T12:32:40Z</time>
      </trkpt>
      <trkpt lat="45.44292" lon="6.62836">
        <ele>845.8</ele>
        <time>2021-05-28T12:32:41Z</time>
      </trkpt>
      <trkpt lat="45.44292" lon="6.62827">
        <ele>845.8</ele>
        <time>2021-05-28T12:32:42Z</time>
      </trkpt>
      <trkpt lat="45.44292" lon="6.62819">
        <ele>845.6</ele>
        <time>2021-05-28T12:32:43Z</time>
      </trkpt>
      <trkpt lat="45.44291" lon="6.6281">
        <ele>845.6</ele>
        <time>2021-05-28T12:32:44Z</time>
      </trkpt>
      <trkpt lat="45.44291" lon="6.62801">
        <ele>845.6</ele>
        <time>2021-05-28T12:32:45Z</time>
      </trkpt>
      <trkpt lat="45.44291" lon="6.62793">
        <ele>845.4</ele>
        <time>2021-05-28T12:32:46Z</time>
      </trkpt>
      <trkpt lat="45.44292" lon="6.62785">
        <ele>845.4</ele>
        <time>2021-05-28T12:32:47Z</time>
      </trkpt>
      <trkpt lat="45.44291" lon="6.62776">
        <ele>845.4</ele>
        <time>2021-05-28T12:32:48Z</time>
      </trkpt>
      <trkpt lat="45.44291" lon="6.62769">
        <ele>845.6</ele>
        <time>2021-05-28T12:32:49Z</time>
      </trkpt>
      <trkpt lat="45.44291" lon="6.62762">
        <ele>845.6</ele>
        <time>2021-05-28T12:32:50Z</time>
      </trkpt>
      <trkpt lat="45.44291" lon="6.62754">
        <ele>845.8</ele>
        <time>2021-05-28T12:32:51Z</time>
      </trkpt>
      <trkpt lat="45.44291" lon="6.62747">
        <ele>846</ele>
        <time>2021-05-28T12:32:52Z</time>
      </trkpt>
      <trkpt lat="45.44291" lon="6.62739">
        <ele>846.2</ele>
        <time>2021-05-28T12:32:53Z</time>
      </trkpt>
      <trkpt lat="45.44291" lon="6.62731">
        <ele>846.4</ele>
        <time>2021-05-28T12:32:54Z</time>
      </trkpt>
      <trkpt lat="45.44292" lon="6.62724">
        <ele>846.4</ele>
        <time>2021-05-28T12:32:55Z</time>
      </trkpt>
      <trkpt lat="45.44292" lon="6.62718">
        <ele>846.6</ele>
        <time>2021-05-28T12:32:56Z</time>
      </trkpt>
      <trkpt lat="45.44293" lon="6.62711">
        <ele>846.8</ele>
        <time>2021-05-28T12:32:57Z</time>
      </trkpt>
      <trkpt lat="45.44293" lon="6.62704">
        <ele>847</ele>
        <time>2021-05-28T12:32:58Z</time>
      </trkpt>
      <trkpt lat="45.44294" lon="6.62698">
        <ele>847.2</ele>
        <time>2021-05-28T12:32:59Z</time>
      </trkpt>
      <trkpt lat="45.44294" lon="6.62691">
        <ele>847.6</ele>
        <time>2021-05-28T12:33:00Z</time>
      </trkpt>
      <trkpt lat="45.44295" lon="6.62684">
        <ele>848</ele>
        <time>2021-05-28T12:33:01Z</time>
      </trkpt>
      <trkpt lat="45.44297" lon="6.62679">
        <ele>848.4</ele>
        <time>2021-05-28T12:33:02Z</time>
      </trkpt>
      <trkpt lat="45.44299" lon="6.62673">
        <ele>848.8</ele>
        <time>2021-05-28T12:33:03Z</time>
      </trkpt>
      <trkpt lat="45.443" lon="6.62668">
        <ele>849.2</ele>
        <time>2021-05-28T12:33:04Z</time>
      </trkpt>
      <trkpt lat="45.44301" lon="6.62662">
        <ele>849.6</ele>
        <time>2021-05-28T12:33:05Z</time>
      </trkpt>
      <trkpt lat="45.44302" lon="6.62656">
        <ele>849.8</ele>
        <time>2021-05-28T12:33:06Z</time>
      </trkpt>
      <trkpt lat="45.44302" lon="6.6265">
        <ele>850.2</ele>
        <time>2021-05-28T12:33:07Z</time>
      </trkpt>
      <trkpt lat="45.44303" lon="6.62644">
        <ele>850.4</ele>
        <time>2021-05-28T12:33:08Z</time>
      </trkpt>
      <trkpt lat="45.44302" lon="6.62637">
        <ele>851</ele>
        <time>2021-05-28T12:33:09Z</time>
      </trkpt>
      <trkpt lat="45.44302" lon="6.62632">
        <ele>851.2</ele>
        <time>2021-05-28T12:33:10Z</time>
      </trkpt>
      <trkpt lat="45.44303" lon="6.62626">
        <ele>851.6</ele>
        <time>2021-05-28T12:33:11Z</time>
      </trkpt>
      <trkpt lat="45.44304" lon="6.62621">
        <ele>852</ele>
        <time>2021-05-28T12:33:12Z</time>
      </trkpt>
      <trkpt lat="45.44305" lon="6.62615">
        <ele>852.6</ele>
        <time>2021-05-28T12:33:13Z</time>
      </trkpt>
      <trkpt lat="45.44306" lon="6.62609">
        <ele>852.8</ele>
        <time>2021-05-28T12:33:14Z</time>
      </trkpt>
      <trkpt lat="45.44307" lon="6.62603">
        <ele>853</ele>
        <time>2021-05-28T12:33:15Z</time>
      </trkpt>
      <trkpt lat="45.44308" lon="6.62598">
        <ele>853.2</ele>
        <time>2021-05-28T12:33:16Z</time>
      </trkpt>
      <trkpt lat="45.44308" lon="6.62592">
        <ele>853.4</ele>
        <time>2021-05-28T12:33:17Z</time>
      </trkpt>
      <trkpt lat="45.44307" lon="6.62585">
        <ele>853.4</ele>
        <time>2021-05-28T12:33:18Z</time>
      </trkpt>
      <trkpt lat="45.44307" lon="6.62579">
        <ele>853.6</ele>
        <time>2021-05-28T12:33:19Z</time>
      </trkpt>
      <trkpt lat="45.44306" lon="6.62573">
        <ele>853.8</ele>
        <time>2021-05-28T12:33:20Z</time>
      </trkpt>
      <trkpt lat="45.44305" lon="6.62566">
        <ele>854</ele>
        <time>2021-05-28T12:33:21Z</time>
      </trkpt>
      <trkpt lat="45.44303" lon="6.62559">
        <ele>854.2</ele>
        <time>2021-05-28T12:33:22Z</time>
      </trkpt>
      <trkpt lat="45.44303" lon="6.62551">
        <ele>854.2</ele>
        <time>2021-05-28T12:33:23Z</time>
      </trkpt>
      <trkpt lat="45.44302" lon="6.62543">
        <ele>854.4</ele>
        <time>2021-05-28T12:33:24Z</time>
      </trkpt>
      <trkpt lat="45.443" lon="6.62534">
        <ele>854.4</ele>
        <time>2021-05-28T12:33:25Z</time>
      </trkpt>
      <trkpt lat="45.443" lon="6.62526">
        <ele>854.4</ele>
        <time>2021-05-28T12:33:26Z</time>
      </trkpt>
      <trkpt lat="45.443" lon="6.62516">
        <ele>854.4</ele>
        <time>2021-05-28T12:33:27Z</time>
      </trkpt>
      <trkpt lat="45.44299" lon="6.62507">
        <ele>854.4</ele>
        <time>2021-05-28T12:33:28Z</time>
      </trkpt>
      <trkpt lat="45.44298" lon="6.62498">
        <ele>854.4</ele>
        <time>2021-05-28T12:33:29Z</time>
      </trkpt>
      <trkpt lat="45.44299" lon="6.6249">
        <ele>854.4</ele>
        <time>2021-05-28T12:33:30Z</time>
      </trkpt>
      <trkpt lat="45.443" lon="6.62482">
        <ele>854.6</ele>
        <time>2021-05-28T12:33:31Z</time>
      </trkpt>
      <trkpt lat="45.44299" lon="6.62474">
        <ele>854.6</ele>
        <time>2021-05-28T12:33:32Z</time>
      </trkpt>
      <trkpt lat="45.44299" lon="6.62467">
        <ele>854.8</ele>
        <time>2021-05-28T12:33:33Z</time>
      </trkpt>
      <trkpt lat="45.44299" lon="6.6246">
        <ele>855</ele>
        <time>2021-05-28T12:33:34Z</time>
      </trkpt>
      <trkpt lat="45.443" lon="6.62455">
        <ele>855</ele>
        <time>2021-05-28T12:33:35Z</time>
      </trkpt>
      <trkpt lat="45.44302" lon="6.62452">
        <ele>855</ele>
        <time>2021-05-28T12:33:36Z</time>
      </trkpt>
      <trkpt lat="45.44304" lon="6.62447">
        <ele>855</ele>
        <time>2021-05-28T12:33:37Z</time>
      </trkpt>
      <trkpt lat="45.44305" lon="6.62443">
        <ele>855.2</ele>
        <time>2021-05-28T12:33:38Z</time>
      </trkpt>
      <trkpt lat="45.44307" lon="6.62438">
        <ele>855.4</ele>
        <time>2021-05-28T12:33:39Z</time>
      </trkpt>
      <trkpt lat="45.44308" lon="6.62433">
        <ele>855.4</ele>
        <time>2021-05-28T12:33:40Z</time>
      </trkpt>
      <trkpt lat="45.44308" lon="6.62429">
        <ele>855.8</ele>
        <time>2021-05-28T12:33:41Z</time>
      </trkpt>
      <trkpt lat="45.44308" lon="6.62425">
        <ele>855.8</ele>
        <time>2021-05-28T12:33:42Z</time>
      </trkpt>
      <trkpt lat="45.44308" lon="6.6242">
        <ele>855.8</ele>
        <time>2021-05-28T12:33:43Z</time>
      </trkpt>
      <trkpt lat="45.44307" lon="6.62416">
        <ele>856</ele>
        <time>2021-05-28T12:33:44Z</time>
      </trkpt>
      <trkpt lat="45.44308" lon="6.6241">
        <ele>856</ele>
        <time>2021-05-28T12:33:45Z</time>
      </trkpt>
      <trkpt lat="45.44309" lon="6.62405">
        <ele>856</ele>
        <time>2021-05-28T12:33:46Z</time>
      </trkpt>
      <trkpt lat="45.44309" lon="6.62399">
        <ele>856</ele>
        <time>2021-05-28T12:33:47Z</time>
      </trkpt>
      <trkpt lat="45.4431" lon="6.62394">
        <ele>856</ele>
        <time>2021-05-28T12:33:48Z</time>
      </trkpt>
      <trkpt lat="45.44312" lon="6.62389">
        <ele>856</ele>
        <time>2021-05-28T12:33:49Z</time>
      </trkpt>
      <trkpt lat="45.44313" lon="6.62384">
        <ele>856.2</ele>
        <time>2021-05-28T12:33:50Z</time>
      </trkpt>
      <trkpt lat="45.44313" lon="6.62378">
        <ele>856.4</ele>
        <time>2021-05-28T12:33:51Z</time>
      </trkpt>
      <trkpt lat="45.44312" lon="6.62371">
        <ele>856.4</ele>
        <time>2021-05-28T12:33:52Z</time>
      </trkpt>
      <trkpt lat="45.44312" lon="6.62364">
        <ele>856.6</ele>
        <time>2021-05-28T12:33:53Z</time>
      </trkpt>
      <trkpt lat="45.44312" lon="6.62357">
        <ele>856.8</ele>
        <time>2021-05-28T12:33:54Z</time>
      </trkpt>
      <trkpt lat="45.44313" lon="6.62351">
        <ele>856.8</ele>
        <time>2021-05-28T12:33:55Z</time>
      </trkpt>
      <trkpt lat="45.44313" lon="6.62343">
        <ele>857</ele>
        <time>2021-05-28T12:33:56Z</time>
      </trkpt>
      <trkpt lat="45.44313" lon="6.62336">
        <ele>857</ele>
        <time>2021-05-28T12:33:57Z</time>
      </trkpt>
      <trkpt lat="45.44313" lon="6.62329">
        <ele>857.2</ele>
        <time>2021-05-28T12:33:58Z</time>
      </trkpt>
      <trkpt lat="45.44313" lon="6.62322">
        <ele>857.2</ele>
        <time>2021-05-28T12:33:59Z</time>
      </trkpt>
      <trkpt lat="45.44312" lon="6.62312">
        <ele>857.2</ele>
        <time>2021-05-28T12:34:00Z</time>
      </trkpt>
      <trkpt lat="45.44312" lon="6.62303">
        <ele>857.4</ele>
        <time>2021-05-28T12:34:01Z</time>
      </trkpt>
      <trkpt lat="45.44312" lon="6.62294">
        <ele>857.6</ele>
        <time>2021-05-28T12:34:02Z</time>
      </trkpt>
      <trkpt lat="45.44314" lon="6.62286">
        <ele>857.6</ele>
        <time>2021-05-28T12:34:03Z</time>
      </trkpt>
      <trkpt lat="45.44317" lon="6.62279">
        <ele>857.8</ele>
        <time>2021-05-28T12:34:04Z</time>
      </trkpt>
      <trkpt lat="45.44319" lon="6.62271">
        <ele>858</ele>
        <time>2021-05-28T12:34:05Z</time>
      </trkpt>
      <trkpt lat="45.4432" lon="6.62263">
        <ele>858.4</ele>
        <time>2021-05-28T12:34:06Z</time>
      </trkpt>
      <trkpt lat="45.44323" lon="6.62256">
        <ele>858.6</ele>
        <time>2021-05-28T12:34:07Z</time>
      </trkpt>
      <trkpt lat="45.44325" lon="6.62249">
        <ele>858.8</ele>
        <time>2021-05-28T12:34:08Z</time>
      </trkpt>
      <trkpt lat="45.44329" lon="6.62243">
        <ele>859.2</ele>
        <time>2021-05-28T12:34:09Z</time>
      </trkpt>
      <trkpt lat="45.44332" lon="6.62236">
        <ele>859.6</ele>
        <time>2021-05-28T12:34:10Z</time>
      </trkpt>
      <trkpt lat="45.44336" lon="6.62229">
        <ele>860</ele>
        <time>2021-05-28T12:34:11Z</time>
      </trkpt>
      <trkpt lat="45.4434" lon="6.62221">
        <ele>860.2</ele>
        <time>2021-05-28T12:34:12Z</time>
      </trkpt>
      <trkpt lat="45.44342" lon="6.62213">
        <ele>860.6</ele>
        <time>2021-05-28T12:34:13Z</time>
      </trkpt>
      <trkpt lat="45.44343" lon="6.62203">
        <ele>860.8</ele>
        <time>2021-05-28T12:34:14Z</time>
      </trkpt>
      <trkpt lat="45.44344" lon="6.62192">
        <ele>861.2</ele>
        <time>2021-05-28T12:34:15Z</time>
      </trkpt>
      <trkpt lat="45.44344" lon="6.62182">
        <ele>861.4</ele>
        <time>2021-05-28T12:34:16Z</time>
      </trkpt>
      <trkpt lat="45.44344" lon="6.62172">
        <ele>861.6</ele>
        <time>2021-05-28T12:34:17Z</time>
      </trkpt>
      <trkpt lat="45.44344" lon="6.62162">
        <ele>862</ele>
        <time>2021-05-28T12:34:18Z</time>
      </trkpt>
      <trkpt lat="45.44343" lon="6.62151">
        <ele>862</ele>
        <time>2021-05-28T12:34:19Z</time>
      </trkpt>
      <trkpt lat="45.44343" lon="6.62142">
        <ele>862.2</ele>
        <time>2021-05-28T12:34:20Z</time>
      </trkpt>
      <trkpt lat="45.44343" lon="6.62134">
        <ele>862.2</ele>
        <time>2021-05-28T12:34:21Z</time>
      </trkpt>
      <trkpt lat="45.44343" lon="6.62125">
        <ele>862.6</ele>
        <time>2021-05-28T12:34:22Z</time>
      </trkpt>
      <trkpt lat="45.44342" lon="6.62117">
        <ele>862.6</ele>
        <time>2021-05-28T12:34:23Z</time>
      </trkpt>
      <trkpt lat="45.4434" lon="6.6211">
        <ele>863</ele>
        <time>2021-05-28T12:34:24Z</time>
      </trkpt>
      <trkpt lat="45.4434" lon="6.62103">
        <ele>863</ele>
        <time>2021-05-28T12:34:25Z</time>
      </trkpt>
      <trkpt lat="45.44338" lon="6.62094">
        <ele>863.2</ele>
        <time>2021-05-28T12:34:26Z</time>
      </trkpt>
      <trkpt lat="45.44336" lon="6.62085">
        <ele>863.4</ele>
        <time>2021-05-28T12:34:27Z</time>
      </trkpt>
      <trkpt lat="45.44334" lon="6.62077">
        <ele>863.4</ele>
        <time>2021-05-28T12:34:28Z</time>
      </trkpt>
      <trkpt lat="45.44333" lon="6.62068">
        <ele>863.6</ele>
        <time>2021-05-28T12:34:29Z</time>
      </trkpt>
      <trkpt lat="45.44332" lon="6.62059">
        <ele>863.4</ele>
        <time>2021-05-28T12:34:30Z</time>
      </trkpt>
      <trkpt lat="45.44331" lon="6.6205">
        <ele>863.4</ele>
        <time>2021-05-28T12:34:31Z</time>
      </trkpt>
      <trkpt lat="45.44331" lon="6.62042">
        <ele>863.4</ele>
        <time>2021-05-28T12:34:32Z</time>
      </trkpt>
      <trkpt lat="45.44329" lon="6.62033">
        <ele>863.6</ele>
        <time>2021-05-28T12:34:33Z</time>
      </trkpt>
      <trkpt lat="45.44328" lon="6.62022">
        <ele>863.8</ele>
        <time>2021-05-28T12:34:34Z</time>
      </trkpt>
      <trkpt lat="45.44326" lon="6.62012">
        <ele>863.8</ele>
        <time>2021-05-28T12:34:35Z</time>
      </trkpt>
      <trkpt lat="45.44325" lon="6.62001">
        <ele>863.8</ele>
        <time>2021-05-28T12:34:36Z</time>
      </trkpt>
      <trkpt lat="45.44326" lon="6.61993">
        <ele>863.8</ele>
        <time>2021-05-28T12:34:37Z</time>
      </trkpt>
      <trkpt lat="45.44325" lon="6.61984">
        <ele>864</ele>
        <time>2021-05-28T12:34:38Z</time>
      </trkpt>
      <trkpt lat="45.44324" lon="6.61976">
        <ele>864.2</ele>
        <time>2021-05-28T12:34:39Z</time>
      </trkpt>
      <trkpt lat="45.44324" lon="6.61969">
        <ele>864.2</ele>
        <time>2021-05-28T12:34:40Z</time>
      </trkpt>
      <trkpt lat="45.44325" lon="6.61964">
        <ele>864.2</ele>
        <time>2021-05-28T12:34:41Z</time>
      </trkpt>
      <trkpt lat="45.44326" lon="6.61958">
        <ele>864.2</ele>
        <time>2021-05-28T12:34:42Z</time>
      </trkpt>
      <trkpt lat="45.44327" lon="6.61954">
        <ele>864.2</ele>
        <time>2021-05-28T12:34:43Z</time>
      </trkpt>
      <trkpt lat="45.44327" lon="6.6195">
        <ele>864</ele>
        <time>2021-05-28T12:34:44Z</time>
      </trkpt>
      <trkpt lat="45.44327" lon="6.61946">
        <ele>863.8</ele>
        <time>2021-05-28T12:34:45Z</time>
      </trkpt>
      <trkpt lat="45.44325" lon="6.61941">
        <ele>863</ele>
        <time>2021-05-28T12:34:47Z</time>
      </trkpt>
      <trkpt lat="45.44324" lon="6.61937">
        <ele>862.6</ele>
        <time>2021-05-28T12:34:48Z</time>
      </trkpt>
      <trkpt lat="45.44324" lon="6.61933">
        <ele>862.2</ele>
        <time>2021-05-28T12:34:49Z</time>
      </trkpt>
      <trkpt lat="45.44324" lon="6.61929">
        <ele>861.8</ele>
        <time>2021-05-28T12:34:50Z</time>
      </trkpt>
      <trkpt lat="45.44324" lon="6.61924">
        <ele>861.6</ele>
        <time>2021-05-28T12:34:51Z</time>
      </trkpt>
      <trkpt lat="45.44325" lon="6.61919">
        <ele>861.6</ele>
        <time>2021-05-28T12:34:52Z</time>
      </trkpt>
      <trkpt lat="45.44326" lon="6.61914">
        <ele>861</ele>
        <time>2021-05-28T12:34:53Z</time>
      </trkpt>
      <trkpt lat="45.44326" lon="6.61908">
        <ele>860.8</ele>
        <time>2021-05-28T12:34:54Z</time>
      </trkpt>
      <trkpt lat="45.44326" lon="6.61901">
        <ele>860.6</ele>
        <time>2021-05-28T12:34:55Z</time>
      </trkpt>
      <trkpt lat="45.44326" lon="6.61895">
        <ele>860.6</ele>
        <time>2021-05-28T12:34:56Z</time>
      </trkpt>
      <trkpt lat="45.44326" lon="6.61888">
        <ele>860.6</ele>
        <time>2021-05-28T12:34:57Z</time>
      </trkpt>
      <trkpt lat="45.44326" lon="6.61881">
        <ele>860.8</ele>
        <time>2021-05-28T12:34:58Z</time>
      </trkpt>
      <trkpt lat="45.44328" lon="6.61874">
        <ele>860.8</ele>
        <time>2021-05-28T12:34:59Z</time>
      </trkpt>
      <trkpt lat="45.44328" lon="6.61867">
        <ele>860.8</ele>
        <time>2021-05-28T12:35:00Z</time>
      </trkpt>
      <trkpt lat="45.44329" lon="6.6186">
        <ele>860.8</ele>
        <time>2021-05-28T12:35:01Z</time>
      </trkpt>
      <trkpt lat="45.4433" lon="6.61852">
        <ele>860.8</ele>
        <time>2021-05-28T12:35:02Z</time>
      </trkpt>
      <trkpt lat="45.44331" lon="6.61844">
        <ele>861</ele>
        <time>2021-05-28T12:35:03Z</time>
      </trkpt>
      <trkpt lat="45.44331" lon="6.61835">
        <ele>861.4</ele>
        <time>2021-05-28T12:35:04Z</time>
      </trkpt>
      <trkpt lat="45.44331" lon="6.61827">
        <ele>861.8</ele>
        <time>2021-05-28T12:35:05Z</time>
      </trkpt>
      <trkpt lat="45.4433" lon="6.61818">
        <ele>862</ele>
        <time>2021-05-28T12:35:06Z</time>
      </trkpt>
      <trkpt lat="45.44329" lon="6.6181">
        <ele>862.2</ele>
        <time>2021-05-28T12:35:07Z</time>
      </trkpt>
      <trkpt lat="45.44327" lon="6.61801">
        <ele>862.6</ele>
        <time>2021-05-28T12:35:08Z</time>
      </trkpt>
      <trkpt lat="45.44324" lon="6.61792">
        <ele>862.8</ele>
        <time>2021-05-28T12:35:09Z</time>
      </trkpt>
      <trkpt lat="45.44321" lon="6.61783">
        <ele>862.8</ele>
        <time>2021-05-28T12:35:10Z</time>
      </trkpt>
      <trkpt lat="45.44319" lon="6.61775">
        <ele>862.8</ele>
        <time>2021-05-28T12:35:11Z</time>
      </trkpt>
      <trkpt lat="45.44317" lon="6.61767">
        <ele>863</ele>
        <time>2021-05-28T12:35:12Z</time>
      </trkpt>
      <trkpt lat="45.44315" lon="6.61759">
        <ele>863.2</ele>
        <time>2021-05-28T12:35:13Z</time>
      </trkpt>
      <trkpt lat="45.44313" lon="6.61752">
        <ele>863.4</ele>
        <time>2021-05-28T12:35:14Z</time>
      </trkpt>
      <trkpt lat="45.44312" lon="6.61744">
        <ele>863.8</ele>
        <time>2021-05-28T12:35:15Z</time>
      </trkpt>
      <trkpt lat="45.44311" lon="6.61736">
        <ele>864</ele>
        <time>2021-05-28T12:35:16Z</time>
      </trkpt>
      <trkpt lat="45.4431" lon="6.61728">
        <ele>864.2</ele>
        <time>2021-05-28T12:35:17Z</time>
      </trkpt>
      <trkpt lat="45.44309" lon="6.61719">
        <ele>864.2</ele>
        <time>2021-05-28T12:35:18Z</time>
      </trkpt>
      <trkpt lat="45.44309" lon="6.6171">
        <ele>863.8</ele>
        <time>2021-05-28T12:35:19Z</time>
      </trkpt>
      <trkpt lat="45.44309" lon="6.61701">
        <ele>863.8</ele>
        <time>2021-05-28T12:35:20Z</time>
      </trkpt>
      <trkpt lat="45.44309" lon="6.61691">
        <ele>863.6</ele>
        <time>2021-05-28T12:35:21Z</time>
      </trkpt>
      <trkpt lat="45.44309" lon="6.61682">
        <ele>863.8</ele>
        <time>2021-05-28T12:35:22Z</time>
      </trkpt>
      <trkpt lat="45.44311" lon="6.61671">
        <ele>863.6</ele>
        <time>2021-05-28T12:35:23Z</time>
      </trkpt>
      <trkpt lat="45.44312" lon="6.61661">
        <ele>863.4</ele>
        <time>2021-05-28T12:35:24Z</time>
      </trkpt>
      <trkpt lat="45.44312" lon="6.61651">
        <ele>863.4</ele>
        <time>2021-05-28T12:35:25Z</time>
      </trkpt>
      <trkpt lat="45.44313" lon="6.6164">
        <ele>863.6</ele>
        <time>2021-05-28T12:35:26Z</time>
      </trkpt>
      <trkpt lat="45.44316" lon="6.6163">
        <ele>863.6</ele>
        <time>2021-05-28T12:35:27Z</time>
      </trkpt>
      <trkpt lat="45.44318" lon="6.6162">
        <ele>863.2</ele>
        <time>2021-05-28T12:35:28Z</time>
      </trkpt>
      <trkpt lat="45.44319" lon="6.61608">
        <ele>863</ele>
        <time>2021-05-28T12:35:29Z</time>
      </trkpt>
      <trkpt lat="45.44321" lon="6.61597">
        <ele>860.8</ele>
        <time>2021-05-28T12:35:30Z</time>
      </trkpt>
      <trkpt lat="45.44323" lon="6.61586">
        <ele>859.6</ele>
        <time>2021-05-28T12:35:31Z</time>
      </trkpt>
      <trkpt lat="45.44325" lon="6.61575">
        <ele>860</ele>
        <time>2021-05-28T12:35:32Z</time>
      </trkpt>
      <trkpt lat="45.44327" lon="6.61563">
        <ele>860.2</ele>
        <time>2021-05-28T12:35:33Z</time>
      </trkpt>
      <trkpt lat="45.44328" lon="6.61551">
        <ele>860.6</ele>
        <time>2021-05-28T12:35:34Z</time>
      </trkpt>
      <trkpt lat="45.44329" lon="6.61539">
        <ele>860.8</ele>
        <time>2021-05-28T12:35:35Z</time>
      </trkpt>
      <trkpt lat="45.44329" lon="6.61527">
        <ele>860.8</ele>
        <time>2021-05-28T12:35:36Z</time>
      </trkpt>
      <trkpt lat="45.44328" lon="6.61515">
        <ele>861</ele>
        <time>2021-05-28T12:35:37Z</time>
      </trkpt>
      <trkpt lat="45.44328" lon="6.61503">
        <ele>861.2</ele>
        <time>2021-05-28T12:35:38Z</time>
      </trkpt>
      <trkpt lat="45.44326" lon="6.6149">
        <ele>861.4</ele>
        <time>2021-05-28T12:35:39Z</time>
      </trkpt>
      <trkpt lat="45.44324" lon="6.61479">
        <ele>861.6</ele>
        <time>2021-05-28T12:35:40Z</time>
      </trkpt>
      <trkpt lat="45.44323" lon="6.61466">
        <ele>861.8</ele>
        <time>2021-05-28T12:35:41Z</time>
      </trkpt>
      <trkpt lat="45.44322" lon="6.61453">
        <ele>861.6</ele>
        <time>2021-05-28T12:35:42Z</time>
      </trkpt>
      <trkpt lat="45.44322" lon="6.6144">
        <ele>861.8</ele>
        <time>2021-05-28T12:35:43Z</time>
      </trkpt>
      <trkpt lat="45.44324" lon="6.61426">
        <ele>861.6</ele>
        <time>2021-05-28T12:35:44Z</time>
      </trkpt>
      <trkpt lat="45.44326" lon="6.61413">
        <ele>861.6</ele>
        <time>2021-05-28T12:35:45Z</time>
      </trkpt>
      <trkpt lat="45.44327" lon="6.61401">
        <ele>861.4</ele>
        <time>2021-05-28T12:35:46Z</time>
      </trkpt>
      <trkpt lat="45.44327" lon="6.61387">
        <ele>861</ele>
        <time>2021-05-28T12:35:47Z</time>
      </trkpt>
      <trkpt lat="45.44327" lon="6.61373">
        <ele>860.8</ele>
        <time>2021-05-28T12:35:48Z</time>
      </trkpt>
      <trkpt lat="45.44328" lon="6.61359">
        <ele>860.4</ele>
        <time>2021-05-28T12:35:49Z</time>
      </trkpt>
      <trkpt lat="45.44329" lon="6.61345">
        <ele>860.2</ele>
        <time>2021-05-28T12:35:50Z</time>
      </trkpt>
      <trkpt lat="45.44331" lon="6.61332">
        <ele>860.2</ele>
        <time>2021-05-28T12:35:51Z</time>
      </trkpt>
      <trkpt lat="45.44332" lon="6.61318">
        <ele>860</ele>
        <time>2021-05-28T12:35:52Z</time>
      </trkpt>
      <trkpt lat="45.44334" lon="6.61305">
        <ele>859.6</ele>
        <time>2021-05-28T12:35:53Z</time>
      </trkpt>
      <trkpt lat="45.44336" lon="6.61291">
        <ele>859.2</ele>
        <time>2021-05-28T12:35:54Z</time>
      </trkpt>
      <trkpt lat="45.44338" lon="6.61277">
        <ele>858.8</ele>
        <time>2021-05-28T12:35:55Z</time>
      </trkpt>
      <trkpt lat="45.44339" lon="6.61263">
        <ele>858.6</ele>
        <time>2021-05-28T12:35:56Z</time>
      </trkpt>
      <trkpt lat="45.4434" lon="6.61248">
        <ele>858</ele>
        <time>2021-05-28T12:35:57Z</time>
      </trkpt>
      <trkpt lat="45.44341" lon="6.61233">
        <ele>857.4</ele>
        <time>2021-05-28T12:35:58Z</time>
      </trkpt>
      <trkpt lat="45.44342" lon="6.61218">
        <ele>856.8</ele>
        <time>2021-05-28T12:35:59Z</time>
      </trkpt>
      <trkpt lat="45.44343" lon="6.61203">
        <ele>856.4</ele>
        <time>2021-05-28T12:36:00Z</time>
      </trkpt>
      <trkpt lat="45.44343" lon="6.61188">
        <ele>855.6</ele>
        <time>2021-05-28T12:36:01Z</time>
      </trkpt>
      <trkpt lat="45.44344" lon="6.61173">
        <ele>855.4</ele>
        <time>2021-05-28T12:36:02Z</time>
      </trkpt>
      <trkpt lat="45.44344" lon="6.61158">
        <ele>854.8</ele>
        <time>2021-05-28T12:36:03Z</time>
      </trkpt>
      <trkpt lat="45.44346" lon="6.61142">
        <ele>855</ele>
        <time>2021-05-28T12:36:04Z</time>
      </trkpt>
      <trkpt lat="45.44346" lon="6.61127">
        <ele>855</ele>
        <time>2021-05-28T12:36:05Z</time>
      </trkpt>
      <trkpt lat="45.44346" lon="6.61112">
        <ele>854.8</ele>
        <time>2021-05-28T12:36:06Z</time>
      </trkpt>
      <trkpt lat="45.44346" lon="6.61096">
        <ele>854.2</ele>
        <time>2021-05-28T12:36:07Z</time>
      </trkpt>
      <trkpt lat="45.44346" lon="6.61081">
        <ele>854.2</ele>
        <time>2021-05-28T12:36:08Z</time>
      </trkpt>
      <trkpt lat="45.44344" lon="6.61065">
        <ele>853.6</ele>
        <time>2021-05-28T12:36:09Z</time>
      </trkpt>
      <trkpt lat="45.44342" lon="6.6105">
        <ele>853</ele>
        <time>2021-05-28T12:36:10Z</time>
      </trkpt>
      <trkpt lat="45.44341" lon="6.61034">
        <ele>852.4</ele>
        <time>2021-05-28T12:36:11Z</time>
      </trkpt>
      <trkpt lat="45.4434" lon="6.61018">
        <ele>851.6</ele>
        <time>2021-05-28T12:36:12Z</time>
      </trkpt>
      <trkpt lat="45.4434" lon="6.61003">
        <ele>851.4</ele>
        <time>2021-05-28T12:36:13Z</time>
      </trkpt>
      <trkpt lat="45.44339" lon="6.60987">
        <ele>851.6</ele>
        <time>2021-05-28T12:36:14Z</time>
      </trkpt>
      <trkpt lat="45.44338" lon="6.60972">
        <ele>851</ele>
        <time>2021-05-28T12:36:15Z</time>
      </trkpt>
      <trkpt lat="45.44338" lon="6.60956">
        <ele>850.6</ele>
        <time>2021-05-28T12:36:16Z</time>
      </trkpt>
      <trkpt lat="45.44336" lon="6.60941">
        <ele>849.8</ele>
        <time>2021-05-28T12:36:17Z</time>
      </trkpt>
      <trkpt lat="45.44335" lon="6.60924">
        <ele>849</ele>
        <time>2021-05-28T12:36:18Z</time>
      </trkpt>
      <trkpt lat="45.44333" lon="6.60909">
        <ele>848.4</ele>
        <time>2021-05-28T12:36:19Z</time>
      </trkpt>
      <trkpt lat="45.4433" lon="6.60893">
        <ele>848</ele>
        <time>2021-05-28T12:36:20Z</time>
      </trkpt>
      <trkpt lat="45.44327" lon="6.60877">
        <ele>847.4</ele>
        <time>2021-05-28T12:36:21Z</time>
      </trkpt>
      <trkpt lat="45.44322" lon="6.6086">
        <ele>846.4</ele>
        <time>2021-05-28T12:36:22Z</time>
      </trkpt>
      <trkpt lat="45.44317" lon="6.60844">
        <ele>846</ele>
        <time>2021-05-28T12:36:23Z</time>
      </trkpt>
      <trkpt lat="45.44312" lon="6.60828">
        <ele>845.4</ele>
        <time>2021-05-28T12:36:24Z</time>
      </trkpt>
      <trkpt lat="45.44305" lon="6.60813">
        <ele>844.8</ele>
        <time>2021-05-28T12:36:25Z</time>
      </trkpt>
      <trkpt lat="45.44298" lon="6.60797">
        <ele>844</ele>
        <time>2021-05-28T12:36:26Z</time>
      </trkpt>
      <trkpt lat="45.44292" lon="6.60781">
        <ele>843</ele>
        <time>2021-05-28T12:36:27Z</time>
      </trkpt>
      <trkpt lat="45.44286" lon="6.60764">
        <ele>841.6</ele>
        <time>2021-05-28T12:36:28Z</time>
      </trkpt>
      <trkpt lat="45.4428" lon="6.60746">
        <ele>840.6</ele>
        <time>2021-05-28T12:36:29Z</time>
      </trkpt>
      <trkpt lat="45.44275" lon="6.60726">
        <ele>838.8</ele>
        <time>2021-05-28T12:36:30Z</time>
      </trkpt>
      <trkpt lat="45.44271" lon="6.60706">
        <ele>837.4</ele>
        <time>2021-05-28T12:36:31Z</time>
      </trkpt>
      <trkpt lat="45.44269" lon="6.60684">
        <ele>835.4</ele>
        <time>2021-05-28T12:36:32Z</time>
      </trkpt>
      <trkpt lat="45.44269" lon="6.60663">
        <ele>834.2</ele>
        <time>2021-05-28T12:36:33Z</time>
      </trkpt>
      <trkpt lat="45.44271" lon="6.60642">
        <ele>832.4</ele>
        <time>2021-05-28T12:36:34Z</time>
      </trkpt>
      <trkpt lat="45.44273" lon="6.60621">
        <ele>831</ele>
        <time>2021-05-28T12:36:35Z</time>
      </trkpt>
      <trkpt lat="45.44275" lon="6.60599">
        <ele>829.6</ele>
        <time>2021-05-28T12:36:36Z</time>
      </trkpt>
      <trkpt lat="45.44276" lon="6.60578">
        <ele>828.2</ele>
        <time>2021-05-28T12:36:37Z</time>
      </trkpt>
      <trkpt lat="45.44279" lon="6.60556">
        <ele>827</ele>
        <time>2021-05-28T12:36:38Z</time>
      </trkpt>
      <trkpt lat="45.44281" lon="6.60536">
        <ele>825.6</ele>
        <time>2021-05-28T12:36:39Z</time>
      </trkpt>
      <trkpt lat="45.44283" lon="6.60514">
        <ele>824.4</ele>
        <time>2021-05-28T12:36:40Z</time>
      </trkpt>
      <trkpt lat="45.44284" lon="6.60494">
        <ele>824.6</ele>
        <time>2021-05-28T12:36:41Z</time>
      </trkpt>
      <trkpt lat="45.44285" lon="6.60473">
        <ele>823.4</ele>
        <time>2021-05-28T12:36:42Z</time>
      </trkpt>
      <trkpt lat="45.44287" lon="6.60452">
        <ele>823</ele>
        <time>2021-05-28T12:36:43Z</time>
      </trkpt>
      <trkpt lat="45.4429" lon="6.60431">
        <ele>822.4</ele>
        <time>2021-05-28T12:36:44Z</time>
      </trkpt>
      <trkpt lat="45.44292" lon="6.60411">
        <ele>822</ele>
        <time>2021-05-28T12:36:45Z</time>
      </trkpt>
      <trkpt lat="45.44294" lon="6.60391">
        <ele>821.8</ele>
        <time>2021-05-28T12:36:46Z</time>
      </trkpt>
      <trkpt lat="45.44295" lon="6.6037">
        <ele>821.2</ele>
        <time>2021-05-28T12:36:47Z</time>
      </trkpt>
      <trkpt lat="45.44297" lon="6.6035">
        <ele>820.4</ele>
        <time>2021-05-28T12:36:48Z</time>
      </trkpt>
      <trkpt lat="45.44299" lon="6.60329">
        <ele>819.8</ele>
        <time>2021-05-28T12:36:49Z</time>
      </trkpt>
      <trkpt lat="45.443" lon="6.60309">
        <ele>819.2</ele>
        <time>2021-05-28T12:36:50Z</time>
      </trkpt>
      <trkpt lat="45.44302" lon="6.60288">
        <ele>818.6</ele>
        <time>2021-05-28T12:36:51Z</time>
      </trkpt>
      <trkpt lat="45.44304" lon="6.60267">
        <ele>818</ele>
        <time>2021-05-28T12:36:52Z</time>
      </trkpt>
      <trkpt lat="45.44305" lon="6.60247">
        <ele>817.2</ele>
        <time>2021-05-28T12:36:53Z</time>
      </trkpt>
      <trkpt lat="45.44307" lon="6.60227">
        <ele>816.2</ele>
        <time>2021-05-28T12:36:54Z</time>
      </trkpt>
      <trkpt lat="45.44309" lon="6.60206">
        <ele>815.4</ele>
        <time>2021-05-28T12:36:55Z</time>
      </trkpt>
      <trkpt lat="45.4431" lon="6.60185">
        <ele>814.6</ele>
        <time>2021-05-28T12:36:56Z</time>
      </trkpt>
      <trkpt lat="45.44312" lon="6.60164">
        <ele>813.4</ele>
        <time>2021-05-28T12:36:57Z</time>
      </trkpt>
      <trkpt lat="45.44313" lon="6.60143">
        <ele>812.2</ele>
        <time>2021-05-28T12:36:58Z</time>
      </trkpt>
      <trkpt lat="45.44315" lon="6.60122">
        <ele>810.4</ele>
        <time>2021-05-28T12:36:59Z</time>
      </trkpt>
      <trkpt lat="45.44317" lon="6.60102">
        <ele>808.6</ele>
        <time>2021-05-28T12:37:00Z</time>
      </trkpt>
      <trkpt lat="45.4432" lon="6.60081">
        <ele>807.2</ele>
        <time>2021-05-28T12:37:01Z</time>
      </trkpt>
      <trkpt lat="45.44324" lon="6.6006">
        <ele>805.6</ele>
        <time>2021-05-28T12:37:02Z</time>
      </trkpt>
      <trkpt lat="45.44329" lon="6.6004">
        <ele>804.6</ele>
        <time>2021-05-28T12:37:03Z</time>
      </trkpt>
      <trkpt lat="45.44336" lon="6.60021">
        <ele>804</ele>
        <time>2021-05-28T12:37:04Z</time>
      </trkpt>
      <trkpt lat="45.44344" lon="6.60003">
        <ele>802.8</ele>
        <time>2021-05-28T12:37:05Z</time>
      </trkpt>
      <trkpt lat="45.44354" lon="6.59986">
        <ele>801.4</ele>
        <time>2021-05-28T12:37:06Z</time>
      </trkpt>
      <trkpt lat="45.44364" lon="6.59971">
        <ele>800.4</ele>
        <time>2021-05-28T12:37:07Z</time>
      </trkpt>
      <trkpt lat="45.44376" lon="6.59956">
        <ele>799.8</ele>
        <time>2021-05-28T12:37:08Z</time>
      </trkpt>
      <trkpt lat="45.44388" lon="6.59943">
        <ele>799.2</ele>
        <time>2021-05-28T12:37:09Z</time>
      </trkpt>
      <trkpt lat="45.44401" lon="6.59932">
        <ele>798.6</ele>
        <time>2021-05-28T12:37:10Z</time>
      </trkpt>
      <trkpt lat="45.44415" lon="6.59923">
        <ele>797.4</ele>
        <time>2021-05-28T12:37:11Z</time>
      </trkpt>
      <trkpt lat="45.44429" lon="6.59917">
        <ele>796.6</ele>
        <time>2021-05-28T12:37:12Z</time>
      </trkpt>
      <trkpt lat="45.44443" lon="6.5991">
        <ele>795.4</ele>
        <time>2021-05-28T12:37:13Z</time>
      </trkpt>
      <trkpt lat="45.44456" lon="6.59903">
        <ele>794.8</ele>
        <time>2021-05-28T12:37:14Z</time>
      </trkpt>
      <trkpt lat="45.44467" lon="6.59893">
        <ele>793.8</ele>
        <time>2021-05-28T12:37:15Z</time>
      </trkpt>
      <trkpt lat="45.44477" lon="6.59879">
        <ele>792.4</ele>
        <time>2021-05-28T12:37:16Z</time>
      </trkpt>
      <trkpt lat="45.44485" lon="6.59864">
        <ele>791.2</ele>
        <time>2021-05-28T12:37:17Z</time>
      </trkpt>
      <trkpt lat="45.44495" lon="6.59849">
        <ele>790.2</ele>
        <time>2021-05-28T12:37:18Z</time>
      </trkpt>
      <trkpt lat="45.44505" lon="6.59835">
        <ele>789.2</ele>
        <time>2021-05-28T12:37:19Z</time>
      </trkpt>
      <trkpt lat="45.44516" lon="6.59822">
        <ele>788.4</ele>
        <time>2021-05-28T12:37:20Z</time>
      </trkpt>
      <trkpt lat="45.44528" lon="6.5981">
        <ele>787.4</ele>
        <time>2021-05-28T12:37:21Z</time>
      </trkpt>
      <trkpt lat="45.44538" lon="6.59796">
        <ele>786.6</ele>
        <time>2021-05-28T12:37:22Z</time>
      </trkpt>
      <trkpt lat="45.44546" lon="6.59779">
        <ele>785.6</ele>
        <time>2021-05-28T12:37:23Z</time>
      </trkpt>
      <trkpt lat="45.44553" lon="6.59762">
        <ele>784.2</ele>
        <time>2021-05-28T12:37:24Z</time>
      </trkpt>
      <trkpt lat="45.44556" lon="6.59743">
        <ele>783</ele>
        <time>2021-05-28T12:37:25Z</time>
      </trkpt>
      <trkpt lat="45.44558" lon="6.59724">
        <ele>781.6</ele>
        <time>2021-05-28T12:37:26Z</time>
      </trkpt>
      <trkpt lat="45.44559" lon="6.59704">
        <ele>780.6</ele>
        <time>2021-05-28T12:37:27Z</time>
      </trkpt>
      <trkpt lat="45.44559" lon="6.59684">
        <ele>779.4</ele>
        <time>2021-05-28T12:37:28Z</time>
      </trkpt>
      <trkpt lat="45.44559" lon="6.59663">
        <ele>778.4</ele>
        <time>2021-05-28T12:37:29Z</time>
      </trkpt>
      <trkpt lat="45.44561" lon="6.59642">
        <ele>777</ele>
        <time>2021-05-28T12:37:30Z</time>
      </trkpt>
      <trkpt lat="45.44564" lon="6.59622">
        <ele>776.2</ele>
        <time>2021-05-28T12:37:31Z</time>
      </trkpt>
      <trkpt lat="45.44569" lon="6.59602">
        <ele>775.2</ele>
        <time>2021-05-28T12:37:32Z</time>
      </trkpt>
      <trkpt lat="45.44573" lon="6.59582">
        <ele>774</ele>
        <time>2021-05-28T12:37:33Z</time>
      </trkpt>
      <trkpt lat="45.44577" lon="6.59561">
        <ele>772.6</ele>
        <time>2021-05-28T12:37:34Z</time>
      </trkpt>
      <trkpt lat="45.4458" lon="6.59541">
        <ele>771.4</ele>
        <time>2021-05-28T12:37:35Z</time>
      </trkpt>
      <trkpt lat="45.44581" lon="6.5952">
        <ele>770.4</ele>
        <time>2021-05-28T12:37:36Z</time>
      </trkpt>
      <trkpt lat="45.44581" lon="6.59499">
        <ele>769.2</ele>
        <time>2021-05-28T12:37:37Z</time>
      </trkpt>
      <trkpt lat="45.4458" lon="6.59478">
        <ele>767.8</ele>
        <time>2021-05-28T12:37:38Z</time>
      </trkpt>
      <trkpt lat="45.44579" lon="6.59455">
        <ele>766.4</ele>
        <time>2021-05-28T12:37:39Z</time>
      </trkpt>
      <trkpt lat="45.44578" lon="6.59433">
        <ele>765</ele>
        <time>2021-05-28T12:37:40Z</time>
      </trkpt>
      <trkpt lat="45.44577" lon="6.59412">
        <ele>764</ele>
        <time>2021-05-28T12:37:41Z</time>
      </trkpt>
      <trkpt lat="45.44577" lon="6.5939">
        <ele>763.4</ele>
        <time>2021-05-28T12:37:42Z</time>
      </trkpt>
      <trkpt lat="45.44577" lon="6.59369">
        <ele>763</ele>
        <time>2021-05-28T12:37:43Z</time>
      </trkpt>
      <trkpt lat="45.44577" lon="6.59348">
        <ele>762</ele>
        <time>2021-05-28T12:37:44Z</time>
      </trkpt>
      <trkpt lat="45.44577" lon="6.59328">
        <ele>760.6</ele>
        <time>2021-05-28T12:37:45Z</time>
      </trkpt>
      <trkpt lat="45.44579" lon="6.59307">
        <ele>760</ele>
        <time>2021-05-28T12:37:46Z</time>
      </trkpt>
      <trkpt lat="45.44582" lon="6.59286">
        <ele>758.6</ele>
        <time>2021-05-28T12:37:47Z</time>
      </trkpt>
      <trkpt lat="45.44587" lon="6.59266">
        <ele>758.2</ele>
        <time>2021-05-28T12:37:48Z</time>
      </trkpt>
      <trkpt lat="45.44594" lon="6.59247">
        <ele>756.8</ele>
        <time>2021-05-28T12:37:49Z</time>
      </trkpt>
      <trkpt lat="45.44603" lon="6.5923">
        <ele>755.2</ele>
        <time>2021-05-28T12:37:50Z</time>
      </trkpt>
      <trkpt lat="45.44611" lon="6.59213">
        <ele>754.2</ele>
        <time>2021-05-28T12:37:51Z</time>
      </trkpt>
      <trkpt lat="45.4462" lon="6.59196">
        <ele>753.6</ele>
        <time>2021-05-28T12:37:52Z</time>
      </trkpt>
      <trkpt lat="45.44628" lon="6.5918">
        <ele>751.6</ele>
        <time>2021-05-28T12:37:53Z</time>
      </trkpt>
      <trkpt lat="45.44638" lon="6.59163">
        <ele>750.4</ele>
        <time>2021-05-28T12:37:54Z</time>
      </trkpt>
      <trkpt lat="45.44647" lon="6.59146">
        <ele>749</ele>
        <time>2021-05-28T12:37:55Z</time>
      </trkpt>
      <trkpt lat="45.44656" lon="6.59129">
        <ele>747.8</ele>
        <time>2021-05-28T12:37:56Z</time>
      </trkpt>
      <trkpt lat="45.44664" lon="6.59111">
        <ele>746.4</ele>
        <time>2021-05-28T12:37:57Z</time>
      </trkpt>
      <trkpt lat="45.44672" lon="6.59093">
        <ele>745.2</ele>
        <time>2021-05-28T12:37:58Z</time>
      </trkpt>
      <trkpt lat="45.44677" lon="6.59073">
        <ele>744.4</ele>
        <time>2021-05-28T12:37:59Z</time>
      </trkpt>
      <trkpt lat="45.44682" lon="6.59053">
        <ele>743.4</ele>
        <time>2021-05-28T12:38:00Z</time>
      </trkpt>
      <trkpt lat="45.44683" lon="6.59032">
        <ele>742.2</ele>
        <time>2021-05-28T12:38:01Z</time>
      </trkpt>
      <trkpt lat="45.44682" lon="6.59012">
        <ele>741</ele>
        <time>2021-05-28T12:38:02Z</time>
      </trkpt>
      <trkpt lat="45.44678" lon="6.58993">
        <ele>739.8</ele>
        <time>2021-05-28T12:38:03Z</time>
      </trkpt>
      <trkpt lat="45.44671" lon="6.58973">
        <ele>738.2</ele>
        <time>2021-05-28T12:38:04Z</time>
      </trkpt>
      <trkpt lat="45.44666" lon="6.58952">
        <ele>737</ele>
        <time>2021-05-28T12:38:05Z</time>
      </trkpt>
      <trkpt lat="45.44662" lon="6.58931">
        <ele>735.6</ele>
        <time>2021-05-28T12:38:06Z</time>
      </trkpt>
      <trkpt lat="45.44661" lon="6.58909">
        <ele>734.2</ele>
        <time>2021-05-28T12:38:07Z</time>
      </trkpt>
      <trkpt lat="45.4466" lon="6.58887">
        <ele>732.8</ele>
        <time>2021-05-28T12:38:08Z</time>
      </trkpt>
      <trkpt lat="45.44662" lon="6.58866">
        <ele>731.6</ele>
        <time>2021-05-28T12:38:09Z</time>
      </trkpt>
      <trkpt lat="45.44664" lon="6.58845">
        <ele>730</ele>
        <time>2021-05-28T12:38:10Z</time>
      </trkpt>
      <trkpt lat="45.44666" lon="6.58823">
        <ele>729.2</ele>
        <time>2021-05-28T12:38:11Z</time>
      </trkpt>
      <trkpt lat="45.44668" lon="6.58801">
        <ele>727.8</ele>
        <time>2021-05-28T12:38:12Z</time>
      </trkpt>
      <trkpt lat="45.44671" lon="6.5878">
        <ele>726.4</ele>
        <time>2021-05-28T12:38:13Z</time>
      </trkpt>
      <trkpt lat="45.44676" lon="6.58758">
        <ele>725.4</ele>
        <time>2021-05-28T12:38:14Z</time>
      </trkpt>
      <trkpt lat="45.44683" lon="6.58739">
        <ele>724.6</ele>
        <time>2021-05-28T12:38:15Z</time>
      </trkpt>
      <trkpt lat="45.44692" lon="6.58721">
        <ele>723.2</ele>
        <time>2021-05-28T12:38:16Z</time>
      </trkpt>
      <trkpt lat="45.44702" lon="6.58706">
        <ele>722</ele>
        <time>2021-05-28T12:38:17Z</time>
      </trkpt>
      <trkpt lat="45.44714" lon="6.58693">
        <ele>720.8</ele>
        <time>2021-05-28T12:38:18Z</time>
      </trkpt>
      <trkpt lat="45.44726" lon="6.58681">
        <ele>719.6</ele>
        <time>2021-05-28T12:38:19Z</time>
      </trkpt>
      <trkpt lat="45.44738" lon="6.58669">
        <ele>718.4</ele>
        <time>2021-05-28T12:38:20Z</time>
      </trkpt>
      <trkpt lat="45.4475" lon="6.58657">
        <ele>717.2</ele>
        <time>2021-05-28T12:38:21Z</time>
      </trkpt>
      <trkpt lat="45.44762" lon="6.58643">
        <ele>716</ele>
        <time>2021-05-28T12:38:22Z</time>
      </trkpt>
      <trkpt lat="45.44772" lon="6.58628">
        <ele>714.4</ele>
        <time>2021-05-28T12:38:23Z</time>
      </trkpt>
      <trkpt lat="45.44781" lon="6.58612">
        <ele>712.8</ele>
        <time>2021-05-28T12:38:24Z</time>
      </trkpt>
      <trkpt lat="45.44789" lon="6.58594">
        <ele>711.6</ele>
        <time>2021-05-28T12:38:25Z</time>
      </trkpt>
      <trkpt lat="45.44796" lon="6.58576">
        <ele>710.2</ele>
        <time>2021-05-28T12:38:26Z</time>
      </trkpt>
      <trkpt lat="45.44801" lon="6.58556">
        <ele>708.8</ele>
        <time>2021-05-28T12:38:27Z</time>
      </trkpt>
      <trkpt lat="45.44807" lon="6.58537">
        <ele>707.4</ele>
        <time>2021-05-28T12:38:28Z</time>
      </trkpt>
      <trkpt lat="45.4481" lon="6.58516">
        <ele>706.2</ele>
        <time>2021-05-28T12:38:29Z</time>
      </trkpt>
      <trkpt lat="45.44812" lon="6.58495">
        <ele>705</ele>
        <time>2021-05-28T12:38:30Z</time>
      </trkpt>
      <trkpt lat="45.44811" lon="6.58474">
        <ele>703.8</ele>
        <time>2021-05-28T12:38:31Z</time>
      </trkpt>
      <trkpt lat="45.4481" lon="6.58453">
        <ele>702.6</ele>
        <time>2021-05-28T12:38:32Z</time>
      </trkpt>
      <trkpt lat="45.44807" lon="6.58432">
        <ele>701.2</ele>
        <time>2021-05-28T12:38:33Z</time>
      </trkpt>
      <trkpt lat="45.44803" lon="6.5841">
        <ele>699.6</ele>
        <time>2021-05-28T12:38:34Z</time>
      </trkpt>
      <trkpt lat="45.448" lon="6.58388">
        <ele>698.2</ele>
        <time>2021-05-28T12:38:35Z</time>
      </trkpt>
      <trkpt lat="45.44797" lon="6.58366">
        <ele>697.2</ele>
        <time>2021-05-28T12:38:36Z</time>
      </trkpt>
      <trkpt lat="45.44796" lon="6.58343">
        <ele>696.2</ele>
        <time>2021-05-28T12:38:37Z</time>
      </trkpt>
      <trkpt lat="45.44796" lon="6.58321">
        <ele>694.4</ele>
        <time>2021-05-28T12:38:38Z</time>
      </trkpt>
      <trkpt lat="45.44797" lon="6.58298">
        <ele>692.6</ele>
        <time>2021-05-28T12:38:39Z</time>
      </trkpt>
      <trkpt lat="45.44799" lon="6.58276">
        <ele>691.2</ele>
        <time>2021-05-28T12:38:40Z</time>
      </trkpt>
      <trkpt lat="45.44803" lon="6.58254">
        <ele>690</ele>
        <time>2021-05-28T12:38:41Z</time>
      </trkpt>
      <trkpt lat="45.44807" lon="6.58232">
        <ele>688.6</ele>
        <time>2021-05-28T12:38:42Z</time>
      </trkpt>
      <trkpt lat="45.44813" lon="6.58211">
        <ele>687.2</ele>
        <time>2021-05-28T12:38:43Z</time>
      </trkpt>
      <trkpt lat="45.44819" lon="6.58189">
        <ele>686.2</ele>
        <time>2021-05-28T12:38:44Z</time>
      </trkpt>
      <trkpt lat="45.44825" lon="6.58168">
        <ele>684.6</ele>
        <time>2021-05-28T12:38:45Z</time>
      </trkpt>
      <trkpt lat="45.44831" lon="6.58146">
        <ele>683</ele>
        <time>2021-05-28T12:38:46Z</time>
      </trkpt>
      <trkpt lat="45.44839" lon="6.58125">
        <ele>682</ele>
        <time>2021-05-28T12:38:47Z</time>
      </trkpt>
      <trkpt lat="45.44849" lon="6.58106">
        <ele>681</ele>
        <time>2021-05-28T12:38:48Z</time>
      </trkpt>
      <trkpt lat="45.44859" lon="6.58088">
        <ele>680.2</ele>
        <time>2021-05-28T12:38:49Z</time>
      </trkpt>
      <trkpt lat="45.44869" lon="6.58071">
        <ele>679.6</ele>
        <time>2021-05-28T12:38:50Z</time>
      </trkpt>
      <trkpt lat="45.44879" lon="6.58053">
        <ele>678.8</ele>
        <time>2021-05-28T12:38:51Z</time>
      </trkpt>
      <trkpt lat="45.44889" lon="6.58035">
        <ele>678</ele>
        <time>2021-05-28T12:38:52Z</time>
      </trkpt>
      <trkpt lat="45.44898" lon="6.58016">
        <ele>676.8</ele>
        <time>2021-05-28T12:38:53Z</time>
      </trkpt>
      <trkpt lat="45.44904" lon="6.57996">
        <ele>675.6</ele>
        <time>2021-05-28T12:38:54Z</time>
      </trkpt>
      <trkpt lat="45.4491" lon="6.57976">
        <ele>673.8</ele>
        <time>2021-05-28T12:38:55Z</time>
      </trkpt>
      <trkpt lat="45.44915" lon="6.57955">
        <ele>672</ele>
        <time>2021-05-28T12:38:56Z</time>
      </trkpt>
      <trkpt lat="45.44921" lon="6.57934">
        <ele>670.8</ele>
        <time>2021-05-28T12:38:57Z</time>
      </trkpt>
      <trkpt lat="45.44928" lon="6.57914">
        <ele>669.8</ele>
        <time>2021-05-28T12:38:58Z</time>
      </trkpt>
      <trkpt lat="45.44936" lon="6.57895">
        <ele>669</ele>
        <time>2021-05-28T12:38:59Z</time>
      </trkpt>
      <trkpt lat="45.44945" lon="6.57877">
        <ele>667.6</ele>
        <time>2021-05-28T12:39:00Z</time>
      </trkpt>
      <trkpt lat="45.44955" lon="6.5786">
        <ele>667</ele>
        <time>2021-05-28T12:39:01Z</time>
      </trkpt>
      <trkpt lat="45.44965" lon="6.57843">
        <ele>665.6</ele>
        <time>2021-05-28T12:39:02Z</time>
      </trkpt>
      <trkpt lat="45.44974" lon="6.57826">
        <ele>664.4</ele>
        <time>2021-05-28T12:39:03Z</time>
      </trkpt>
      <trkpt lat="45.44982" lon="6.57806">
        <ele>662.8</ele>
        <time>2021-05-28T12:39:04Z</time>
      </trkpt>
      <trkpt lat="45.44991" lon="6.57788">
        <ele>661.4</ele>
        <time>2021-05-28T12:39:05Z</time>
      </trkpt>
      <trkpt lat="45.44997" lon="6.57768">
        <ele>660.4</ele>
        <time>2021-05-28T12:39:06Z</time>
      </trkpt>
      <trkpt lat="45.45002" lon="6.57748">
        <ele>659</ele>
        <time>2021-05-28T12:39:07Z</time>
      </trkpt>
      <trkpt lat="45.45008" lon="6.57728">
        <ele>657.8</ele>
        <time>2021-05-28T12:39:08Z</time>
      </trkpt>
      <trkpt lat="45.45015" lon="6.57709">
        <ele>656.6</ele>
        <time>2021-05-28T12:39:09Z</time>
      </trkpt>
      <trkpt lat="45.45023" lon="6.5769">
        <ele>655.6</ele>
        <time>2021-05-28T12:39:10Z</time>
      </trkpt>
      <trkpt lat="45.45031" lon="6.57671">
        <ele>654.2</ele>
        <time>2021-05-28T12:39:11Z</time>
      </trkpt>
      <trkpt lat="45.45038" lon="6.57652">
        <ele>653</ele>
        <time>2021-05-28T12:39:12Z</time>
      </trkpt>
      <trkpt lat="45.45045" lon="6.57633">
        <ele>651.6</ele>
        <time>2021-05-28T12:39:13Z</time>
      </trkpt>
      <trkpt lat="45.4505" lon="6.57613">
        <ele>650.6</ele>
        <time>2021-05-28T12:39:14Z</time>
      </trkpt>
      <trkpt lat="45.45053" lon="6.57592">
        <ele>649.4</ele>
        <time>2021-05-28T12:39:15Z</time>
      </trkpt>
      <trkpt lat="45.45054" lon="6.57571">
        <ele>648.2</ele>
        <time>2021-05-28T12:39:16Z</time>
      </trkpt>
      <trkpt lat="45.45055" lon="6.57549">
        <ele>647.2</ele>
        <time>2021-05-28T12:39:17Z</time>
      </trkpt>
      <trkpt lat="45.45058" lon="6.57527">
        <ele>646.6</ele>
        <time>2021-05-28T12:39:18Z</time>
      </trkpt>
      <trkpt lat="45.45062" lon="6.57506">
        <ele>646.2</ele>
        <time>2021-05-28T12:39:19Z</time>
      </trkpt>
      <trkpt lat="45.45067" lon="6.57486">
        <ele>645.6</ele>
        <time>2021-05-28T12:39:20Z</time>
      </trkpt>
      <trkpt lat="45.45071" lon="6.57466">
        <ele>645</ele>
        <time>2021-05-28T12:39:21Z</time>
      </trkpt>
      <trkpt lat="45.45075" lon="6.57446">
        <ele>643.6</ele>
        <time>2021-05-28T12:39:22Z</time>
      </trkpt>
      <trkpt lat="45.45077" lon="6.57426">
        <ele>642.2</ele>
        <time>2021-05-28T12:39:23Z</time>
      </trkpt>
      <trkpt lat="45.45079" lon="6.57407">
        <ele>641</ele>
        <time>2021-05-28T12:39:24Z</time>
      </trkpt>
      <trkpt lat="45.4508" lon="6.57387">
        <ele>639.4</ele>
        <time>2021-05-28T12:39:25Z</time>
      </trkpt>
      <trkpt lat="45.4508" lon="6.57368">
        <ele>638.4</ele>
        <time>2021-05-28T12:39:26Z</time>
      </trkpt>
      <trkpt lat="45.45079" lon="6.57349">
        <ele>637.4</ele>
        <time>2021-05-28T12:39:27Z</time>
      </trkpt>
      <trkpt lat="45.45077" lon="6.57332">
        <ele>637.2</ele>
        <time>2021-05-28T12:39:28Z</time>
      </trkpt>
      <trkpt lat="45.45075" lon="6.57314">
        <ele>636.8</ele>
        <time>2021-05-28T12:39:29Z</time>
      </trkpt>
      <trkpt lat="45.45072" lon="6.57298">
        <ele>636.6</ele>
        <time>2021-05-28T12:39:30Z</time>
      </trkpt>
      <trkpt lat="45.45069" lon="6.57283">
        <ele>636.4</ele>
        <time>2021-05-28T12:39:31Z</time>
      </trkpt>
      <trkpt lat="45.45067" lon="6.57269">
        <ele>636.2</ele>
        <time>2021-05-28T12:39:32Z</time>
      </trkpt>
      <trkpt lat="45.45063" lon="6.57257">
        <ele>636.6</ele>
        <time>2021-05-28T12:39:33Z</time>
      </trkpt>
      <trkpt lat="45.4506" lon="6.57246">
        <ele>636.8</ele>
        <time>2021-05-28T12:39:34Z</time>
      </trkpt>
      <trkpt lat="45.45057" lon="6.57235">
        <ele>636.8</ele>
        <time>2021-05-28T12:39:35Z</time>
      </trkpt>
      <trkpt lat="45.45055" lon="6.57226">
        <ele>637.2</ele>
        <time>2021-05-28T12:39:36Z</time>
      </trkpt>
      <trkpt lat="45.45051" lon="6.57216">
        <ele>637.6</ele>
        <time>2021-05-28T12:39:37Z</time>
      </trkpt>
      <trkpt lat="45.45048" lon="6.57207">
        <ele>637.8</ele>
        <time>2021-05-28T12:39:38Z</time>
      </trkpt>
      <trkpt lat="45.45046" lon="6.57199">
        <ele>638</ele>
        <time>2021-05-28T12:39:39Z</time>
      </trkpt>
      <trkpt lat="45.45043" lon="6.57192">
        <ele>638.2</ele>
        <time>2021-05-28T12:39:40Z</time>
      </trkpt>
      <trkpt lat="45.45041" lon="6.57184">
        <ele>638</ele>
        <time>2021-05-28T12:39:41Z</time>
      </trkpt>
      <trkpt lat="45.45039" lon="6.57177">
        <ele>638</ele>
        <time>2021-05-28T12:39:42Z</time>
      </trkpt>
      <trkpt lat="45.45037" lon="6.5717">
        <ele>637.8</ele>
        <time>2021-05-28T12:39:43Z</time>
      </trkpt>
      <trkpt lat="45.45035" lon="6.57164">
        <ele>637.8</ele>
        <time>2021-05-28T12:39:44Z</time>
      </trkpt>
      <trkpt lat="45.45033" lon="6.57157">
        <ele>637.8</ele>
        <time>2021-05-28T12:39:45Z</time>
      </trkpt>
      <trkpt lat="45.4503" lon="6.5715">
        <ele>638</ele>
        <time>2021-05-28T12:39:46Z</time>
      </trkpt>
      <trkpt lat="45.45029" lon="6.57143">
        <ele>638.2</ele>
        <time>2021-05-28T12:39:47Z</time>
      </trkpt>
      <trkpt lat="45.45027" lon="6.57137">
        <ele>638.4</ele>
        <time>2021-05-28T12:39:48Z</time>
      </trkpt>
      <trkpt lat="45.45026" lon="6.57131">
        <ele>638.4</ele>
        <time>2021-05-28T12:39:49Z</time>
      </trkpt>
      <trkpt lat="45.45025" lon="6.57124">
        <ele>638.4</ele>
        <time>2021-05-28T12:39:50Z</time>
      </trkpt>
      <trkpt lat="45.45024" lon="6.57117">
        <ele>638.4</ele>
        <time>2021-05-28T12:39:51Z</time>
      </trkpt>
      <trkpt lat="45.45023" lon="6.57111">
        <ele>638.4</ele>
        <time>2021-05-28T12:39:52Z</time>
      </trkpt>
      <trkpt lat="45.45023" lon="6.57105">
        <ele>638.8</ele>
        <time>2021-05-28T12:39:53Z</time>
      </trkpt>
      <trkpt lat="45.45023" lon="6.57099">
        <ele>639</ele>
        <time>2021-05-28T12:39:54Z</time>
      </trkpt>
      <trkpt lat="45.45024" lon="6.57094">
        <ele>639.2</ele>
        <time>2021-05-28T12:39:55Z</time>
      </trkpt>
      <trkpt lat="45.45024" lon="6.57088">
        <ele>639.2</ele>
        <time>2021-05-28T12:39:56Z</time>
      </trkpt>
      <trkpt lat="45.45024" lon="6.57082">
        <ele>639.2</ele>
        <time>2021-05-28T12:39:57Z</time>
      </trkpt>
      <trkpt lat="45.45025" lon="6.57076">
        <ele>638.8</ele>
        <time>2021-05-28T12:39:58Z</time>
      </trkpt>
      <trkpt lat="45.45025" lon="6.5707">
        <ele>638.6</ele>
        <time>2021-05-28T12:39:59Z</time>
      </trkpt>
      <trkpt lat="45.45026" lon="6.57064">
        <ele>638.6</ele>
        <time>2021-05-28T12:40:00Z</time>
      </trkpt>
      <trkpt lat="45.45026" lon="6.57058">
        <ele>639.2</ele>
        <time>2021-05-28T12:40:01Z</time>
      </trkpt>
      <trkpt lat="45.45027" lon="6.57052">
        <ele>639.2</ele>
        <time>2021-05-28T12:40:02Z</time>
      </trkpt>
      <trkpt lat="45.45028" lon="6.57046">
        <ele>639.2</ele>
        <time>2021-05-28T12:40:03Z</time>
      </trkpt>
      <trkpt lat="45.45029" lon="6.5704">
        <ele>639.4</ele>
        <time>2021-05-28T12:40:04Z</time>
      </trkpt>
      <trkpt lat="45.45029" lon="6.57034">
        <ele>639.6</ele>
        <time>2021-05-28T12:40:05Z</time>
      </trkpt>
      <trkpt lat="45.4503" lon="6.57028">
        <ele>640</ele>
        <time>2021-05-28T12:40:06Z</time>
      </trkpt>
      <trkpt lat="45.4503" lon="6.57022">
        <ele>640</ele>
        <time>2021-05-28T12:40:07Z</time>
      </trkpt>
      <trkpt lat="45.45031" lon="6.57016">
        <ele>639.6</ele>
        <time>2021-05-28T12:40:08Z</time>
      </trkpt>
      <trkpt lat="45.45031" lon="6.5701">
        <ele>639.6</ele>
        <time>2021-05-28T12:40:09Z</time>
      </trkpt>
      <trkpt lat="45.45031" lon="6.57004">
        <ele>640</ele>
        <time>2021-05-28T12:40:10Z</time>
      </trkpt>
      <trkpt lat="45.45032" lon="6.56999">
        <ele>640.2</ele>
        <time>2021-05-28T12:40:11Z</time>
      </trkpt>
      <trkpt lat="45.45033" lon="6.56993">
        <ele>640.6</ele>
        <time>2021-05-28T12:40:12Z</time>
      </trkpt>
      <trkpt lat="45.45034" lon="6.56987">
        <ele>641</ele>
        <time>2021-05-28T12:40:13Z</time>
      </trkpt>
      <trkpt lat="45.45035" lon="6.56982">
        <ele>641</ele>
        <time>2021-05-28T12:40:14Z</time>
      </trkpt>
      <trkpt lat="45.45035" lon="6.56976">
        <ele>641.2</ele>
        <time>2021-05-28T12:40:15Z</time>
      </trkpt>
      <trkpt lat="45.45036" lon="6.5697">
        <ele>641.6</ele>
        <time>2021-05-28T12:40:16Z</time>
      </trkpt>
      <trkpt lat="45.45036" lon="6.56965">
        <ele>642.2</ele>
        <time>2021-05-28T12:40:17Z</time>
      </trkpt>
      <trkpt lat="45.45036" lon="6.56959">
        <ele>642.6</ele>
        <time>2021-05-28T12:40:18Z</time>
      </trkpt>
      <trkpt lat="45.45037" lon="6.56953">
        <ele>643.4</ele>
        <time>2021-05-28T12:40:19Z</time>
      </trkpt>
      <trkpt lat="45.45037" lon="6.56948">
        <ele>643.6</ele>
        <time>2021-05-28T12:40:20Z</time>
      </trkpt>
      <trkpt lat="45.45037" lon="6.56942">
        <ele>643.8</ele>
        <time>2021-05-28T12:40:21Z</time>
      </trkpt>
      <trkpt lat="45.45037" lon="6.56937">
        <ele>643.8</ele>
        <time>2021-05-28T12:40:22Z</time>
      </trkpt>
      <trkpt lat="45.45038" lon="6.56932">
        <ele>644.6</ele>
        <time>2021-05-28T12:40:23Z</time>
      </trkpt>
      <trkpt lat="45.45039" lon="6.56928">
        <ele>645</ele>
        <time>2021-05-28T12:40:24Z</time>
      </trkpt>
      <trkpt lat="45.45039" lon="6.56923">
        <ele>645</ele>
        <time>2021-05-28T12:40:25Z</time>
      </trkpt>
      <trkpt lat="45.4504" lon="6.56919">
        <ele>645</ele>
        <time>2021-05-28T12:40:26Z</time>
      </trkpt>
      <trkpt lat="45.4504" lon="6.56914">
        <ele>644.8</ele>
        <time>2021-05-28T12:40:27Z</time>
      </trkpt>
      <trkpt lat="45.4504" lon="6.56909">
        <ele>644.6</ele>
        <time>2021-05-28T12:40:28Z</time>
      </trkpt>
      <trkpt lat="45.45041" lon="6.56904">
        <ele>645</ele>
        <time>2021-05-28T12:40:29Z</time>
      </trkpt>
      <trkpt lat="45.45041" lon="6.56899">
        <ele>646</ele>
        <time>2021-05-28T12:40:30Z</time>
      </trkpt>
      <trkpt lat="45.45041" lon="6.56893">
        <ele>645.8</ele>
        <time>2021-05-28T12:40:31Z</time>
      </trkpt>
      <trkpt lat="45.45042" lon="6.56888">
        <ele>645.6</ele>
        <time>2021-05-28T12:40:32Z</time>
      </trkpt>
      <trkpt lat="45.45043" lon="6.56882">
        <ele>645.6</ele>
        <time>2021-05-28T12:40:33Z</time>
      </trkpt>
      <trkpt lat="45.45043" lon="6.56876">
        <ele>645.8</ele>
        <time>2021-05-28T12:40:34Z</time>
      </trkpt>
      <trkpt lat="45.45044" lon="6.56871">
        <ele>645.8</ele>
        <time>2021-05-28T12:40:35Z</time>
      </trkpt>
      <trkpt lat="45.45045" lon="6.56865">
        <ele>645.6</ele>
        <time>2021-05-28T12:40:36Z</time>
      </trkpt>
      <trkpt lat="45.45046" lon="6.56859">
        <ele>645.4</ele>
        <time>2021-05-28T12:40:37Z</time>
      </trkpt>
      <trkpt lat="45.45046" lon="6.56853">
        <ele>645.2</ele>
        <time>2021-05-28T12:40:38Z</time>
      </trkpt>
      <trkpt lat="45.45047" lon="6.56847">
        <ele>645</ele>
        <time>2021-05-28T12:40:39Z</time>
      </trkpt>
      <trkpt lat="45.45047" lon="6.56841">
        <ele>644.8</ele>
        <time>2021-05-28T12:40:40Z</time>
      </trkpt>
      <trkpt lat="45.45047" lon="6.56835">
        <ele>644.8</ele>
        <time>2021-05-28T12:40:41Z</time>
      </trkpt>
      <trkpt lat="45.45047" lon="6.5683">
        <ele>644.6</ele>
        <time>2021-05-28T12:40:42Z</time>
      </trkpt>
      <trkpt lat="45.45048" lon="6.56824">
        <ele>644.4</ele>
        <time>2021-05-28T12:40:43Z</time>
      </trkpt>
      <trkpt lat="45.45049" lon="6.56818">
        <ele>644.4</ele>
        <time>2021-05-28T12:40:44Z</time>
      </trkpt>
      <trkpt lat="45.45049" lon="6.56812">
        <ele>644.4</ele>
        <time>2021-05-28T12:40:45Z</time>
      </trkpt>
      <trkpt lat="45.45049" lon="6.56807">
        <ele>644.4</ele>
        <time>2021-05-28T12:40:46Z</time>
      </trkpt>
      <trkpt lat="45.45048" lon="6.56801">
        <ele>644.4</ele>
        <time>2021-05-28T12:40:47Z</time>
      </trkpt>
      <trkpt lat="45.45048" lon="6.56795">
        <ele>644.6</ele>
        <time>2021-05-28T12:40:48Z</time>
      </trkpt>
      <trkpt lat="45.45047" lon="6.5679">
        <ele>644.6</ele>
        <time>2021-05-28T12:40:49Z</time>
      </trkpt>
      <trkpt lat="45.45047" lon="6.56784">
        <ele>644.6</ele>
        <time>2021-05-28T12:40:50Z</time>
      </trkpt>
      <trkpt lat="45.45046" lon="6.56779">
        <ele>644.8</ele>
        <time>2021-05-28T12:40:51Z</time>
      </trkpt>
      <trkpt lat="45.45045" lon="6.56773">
        <ele>644.6</ele>
        <time>2021-05-28T12:40:52Z</time>
      </trkpt>
      <trkpt lat="45.45044" lon="6.56767">
        <ele>644.6</ele>
        <time>2021-05-28T12:40:53Z</time>
      </trkpt>
      <trkpt lat="45.45042" lon="6.56762">
        <ele>644.4</ele>
        <time>2021-05-28T12:40:54Z</time>
      </trkpt>
      <trkpt lat="45.45041" lon="6.56756">
        <ele>644.4</ele>
        <time>2021-05-28T12:40:55Z</time>
      </trkpt>
      <trkpt lat="45.45039" lon="6.5675">
        <ele>644</ele>
        <time>2021-05-28T12:40:56Z</time>
      </trkpt>
      <trkpt lat="45.45037" lon="6.56745">
        <ele>644</ele>
        <time>2021-05-28T12:40:57Z</time>
      </trkpt>
      <trkpt lat="45.45035" lon="6.56739">
        <ele>644</ele>
        <time>2021-05-28T12:40:58Z</time>
      </trkpt>
      <trkpt lat="45.45034" lon="6.56734">
        <ele>643.8</ele>
        <time>2021-05-28T12:40:59Z</time>
      </trkpt>
      <trkpt lat="45.45032" lon="6.56728">
        <ele>644</ele>
        <time>2021-05-28T12:41:00Z</time>
      </trkpt>
      <trkpt lat="45.4503" lon="6.56723">
        <ele>644</ele>
        <time>2021-05-28T12:41:01Z</time>
      </trkpt>
      <trkpt lat="45.45028" lon="6.56717">
        <ele>644.2</ele>
        <time>2021-05-28T12:41:02Z</time>
      </trkpt>
      <trkpt lat="45.45026" lon="6.56712">
        <ele>644.2</ele>
        <time>2021-05-28T12:41:03Z</time>
      </trkpt>
      <trkpt lat="45.45024" lon="6.56707">
        <ele>644.4</ele>
        <time>2021-05-28T12:41:04Z</time>
      </trkpt>
      <trkpt lat="45.45022" lon="6.56701">
        <ele>644.4</ele>
        <time>2021-05-28T12:41:05Z</time>
      </trkpt>
      <trkpt lat="45.45021" lon="6.56696">
        <ele>644.4</ele>
        <time>2021-05-28T12:41:06Z</time>
      </trkpt>
      <trkpt lat="45.45019" lon="6.56691">
        <ele>644.4</ele>
        <time>2021-05-28T12:41:07Z</time>
      </trkpt>
      <trkpt lat="45.45017" lon="6.56685">
        <ele>644.8</ele>
        <time>2021-05-28T12:41:08Z</time>
      </trkpt>
      <trkpt lat="45.45015" lon="6.56679">
        <ele>645</ele>
        <time>2021-05-28T12:41:09Z</time>
      </trkpt>
      <trkpt lat="45.45014" lon="6.56674">
        <ele>645.4</ele>
        <time>2021-05-28T12:41:10Z</time>
      </trkpt>
      <trkpt lat="45.45012" lon="6.56668">
        <ele>645.6</ele>
        <time>2021-05-28T12:41:11Z</time>
      </trkpt>
      <trkpt lat="45.45012" lon="6.56663">
        <ele>645.6</ele>
        <time>2021-05-28T12:41:12Z</time>
      </trkpt>
      <trkpt lat="45.4501" lon="6.56657">
        <ele>645.8</ele>
        <time>2021-05-28T12:41:13Z</time>
      </trkpt>
      <trkpt lat="45.45009" lon="6.56651">
        <ele>646</ele>
        <time>2021-05-28T12:41:14Z</time>
      </trkpt>
      <trkpt lat="45.45008" lon="6.56645">
        <ele>646.2</ele>
        <time>2021-05-28T12:41:15Z</time>
      </trkpt>
      <trkpt lat="45.45007" lon="6.56639">
        <ele>646.2</ele>
        <time>2021-05-28T12:41:16Z</time>
      </trkpt>
      <trkpt lat="45.45007" lon="6.56633">
        <ele>646.4</ele>
        <time>2021-05-28T12:41:17Z</time>
      </trkpt>
      <trkpt lat="45.45006" lon="6.56627">
        <ele>646.8</ele>
        <time>2021-05-28T12:41:18Z</time>
      </trkpt>
      <trkpt lat="45.45006" lon="6.56621">
        <ele>647</ele>
        <time>2021-05-28T12:41:19Z</time>
      </trkpt>
      <trkpt lat="45.45006" lon="6.56615">
        <ele>647</ele>
        <time>2021-05-28T12:41:20Z</time>
      </trkpt>
      <trkpt lat="45.45006" lon="6.56609">
        <ele>647.2</ele>
        <time>2021-05-28T12:41:21Z</time>
      </trkpt>
      <trkpt lat="45.45007" lon="6.56603">
        <ele>647.2</ele>
        <time>2021-05-28T12:41:22Z</time>
      </trkpt>
      <trkpt lat="45.45007" lon="6.56596">
        <ele>647.4</ele>
        <time>2021-05-28T12:41:23Z</time>
      </trkpt>
      <trkpt lat="45.45007" lon="6.5659">
        <ele>647.6</ele>
        <time>2021-05-28T12:41:24Z</time>
      </trkpt>
      <trkpt lat="45.45008" lon="6.56583">
        <ele>647.8</ele>
        <time>2021-05-28T12:41:25Z</time>
      </trkpt>
      <trkpt lat="45.45008" lon="6.56576">
        <ele>648</ele>
        <time>2021-05-28T12:41:26Z</time>
      </trkpt>
      <trkpt lat="45.45009" lon="6.56569">
        <ele>648.2</ele>
        <time>2021-05-28T12:41:27Z</time>
      </trkpt>
      <trkpt lat="45.4501" lon="6.56563">
        <ele>648.4</ele>
        <time>2021-05-28T12:41:28Z</time>
      </trkpt>
      <trkpt lat="45.4501" lon="6.56556">
        <ele>648.6</ele>
        <time>2021-05-28T12:41:29Z</time>
      </trkpt>
      <trkpt lat="45.45011" lon="6.56549">
        <ele>648.8</ele>
        <time>2021-05-28T12:41:30Z</time>
      </trkpt>
      <trkpt lat="45.45012" lon="6.56542">
        <ele>649</ele>
        <time>2021-05-28T12:41:31Z</time>
      </trkpt>
      <trkpt lat="45.45012" lon="6.56534">
        <ele>649.2</ele>
        <time>2021-05-28T12:41:32Z</time>
      </trkpt>
      <trkpt lat="45.45013" lon="6.56527">
        <ele>649.4</ele>
        <time>2021-05-28T12:41:33Z</time>
      </trkpt>
      <trkpt lat="45.45013" lon="6.5652">
        <ele>649.4</ele>
        <time>2021-05-28T12:41:34Z</time>
      </trkpt>
      <trkpt lat="45.45014" lon="6.56513">
        <ele>649.6</ele>
        <time>2021-05-28T12:41:35Z</time>
      </trkpt>
      <trkpt lat="45.45015" lon="6.56506">
        <ele>649.6</ele>
        <time>2021-05-28T12:41:36Z</time>
      </trkpt>
      <trkpt lat="45.45016" lon="6.56499">
        <ele>649.8</ele>
        <time>2021-05-28T12:41:37Z</time>
      </trkpt>
      <trkpt lat="45.45016" lon="6.56492">
        <ele>649.8</ele>
        <time>2021-05-28T12:41:38Z</time>
      </trkpt>
      <trkpt lat="45.45018" lon="6.56485">
        <ele>650</ele>
        <time>2021-05-28T12:41:39Z</time>
      </trkpt>
      <trkpt lat="45.45019" lon="6.56478">
        <ele>650.2</ele>
        <time>2021-05-28T12:41:40Z</time>
      </trkpt>
      <trkpt lat="45.45021" lon="6.56471">
        <ele>650.4</ele>
        <time>2021-05-28T12:41:41Z</time>
      </trkpt>
      <trkpt lat="45.45022" lon="6.56464">
        <ele>650.6</ele>
        <time>2021-05-28T12:41:42Z</time>
      </trkpt>
      <trkpt lat="45.45024" lon="6.56457">
        <ele>650.8</ele>
        <time>2021-05-28T12:41:43Z</time>
      </trkpt>
      <trkpt lat="45.45025" lon="6.5645">
        <ele>651</ele>
        <time>2021-05-28T12:41:44Z</time>
      </trkpt>
      <trkpt lat="45.45027" lon="6.56443">
        <ele>651.4</ele>
        <time>2021-05-28T12:41:45Z</time>
      </trkpt>
      <trkpt lat="45.45029" lon="6.56436">
        <ele>651.8</ele>
        <time>2021-05-28T12:41:46Z</time>
      </trkpt>
      <trkpt lat="45.45031" lon="6.56429">
        <ele>652</ele>
        <time>2021-05-28T12:41:47Z</time>
      </trkpt>
      <trkpt lat="45.45033" lon="6.56423">
        <ele>652.2</ele>
        <time>2021-05-28T12:41:48Z</time>
      </trkpt>
      <trkpt lat="45.45035" lon="6.56417">
        <ele>652.6</ele>
        <time>2021-05-28T12:41:49Z</time>
      </trkpt>
      <trkpt lat="45.45037" lon="6.56411">
        <ele>652.8</ele>
        <time>2021-05-28T12:41:50Z</time>
      </trkpt>
      <trkpt lat="45.4504" lon="6.56405">
        <ele>653.2</ele>
        <time>2021-05-28T12:41:51Z</time>
      </trkpt>
      <trkpt lat="45.45043" lon="6.56399">
        <ele>653.6</ele>
        <time>2021-05-28T12:41:52Z</time>
      </trkpt>
      <trkpt lat="45.45045" lon="6.56393">
        <ele>653.8</ele>
        <time>2021-05-28T12:41:53Z</time>
      </trkpt>
      <trkpt lat="45.45048" lon="6.56387">
        <ele>654</ele>
        <time>2021-05-28T12:41:54Z</time>
      </trkpt>
      <trkpt lat="45.4505" lon="6.56381">
        <ele>654</ele>
        <time>2021-05-28T12:41:55Z</time>
      </trkpt>
      <trkpt lat="45.45053" lon="6.56375">
        <ele>654.2</ele>
        <time>2021-05-28T12:41:56Z</time>
      </trkpt>
      <trkpt lat="45.45056" lon="6.56369">
        <ele>654.4</ele>
        <time>2021-05-28T12:41:57Z</time>
      </trkpt>
      <trkpt lat="45.45059" lon="6.56363">
        <ele>654.6</ele>
        <time>2021-05-28T12:41:58Z</time>
      </trkpt>
      <trkpt lat="45.45062" lon="6.56357">
        <ele>655</ele>
        <time>2021-05-28T12:41:59Z</time>
      </trkpt>
      <trkpt lat="45.45066" lon="6.56352">
        <ele>655</ele>
        <time>2021-05-28T12:42:00Z</time>
      </trkpt>
      <trkpt lat="45.45069" lon="6.56346">
        <ele>655.2</ele>
        <time>2021-05-28T12:42:01Z</time>
      </trkpt>
      <trkpt lat="45.45072" lon="6.56341">
        <ele>655.4</ele>
        <time>2021-05-28T12:42:02Z</time>
      </trkpt>
      <trkpt lat="45.45076" lon="6.56335">
        <ele>655.8</ele>
        <time>2021-05-28T12:42:03Z</time>
      </trkpt>
      <trkpt lat="45.45079" lon="6.5633">
        <ele>656</ele>
        <time>2021-05-28T12:42:04Z</time>
      </trkpt>
      <trkpt lat="45.45083" lon="6.56325">
        <ele>656</ele>
        <time>2021-05-28T12:42:05Z</time>
      </trkpt>
      <trkpt lat="45.45086" lon="6.5632">
        <ele>656.2</ele>
        <time>2021-05-28T12:42:06Z</time>
      </trkpt>
      <trkpt lat="45.45091" lon="6.56316">
        <ele>656.4</ele>
        <time>2021-05-28T12:42:07Z</time>
      </trkpt>
      <trkpt lat="45.45095" lon="6.56311">
        <ele>656.4</ele>
        <time>2021-05-28T12:42:08Z</time>
      </trkpt>
      <trkpt lat="45.45099" lon="6.56306">
        <ele>656.4</ele>
        <time>2021-05-28T12:42:09Z</time>
      </trkpt>
      <trkpt lat="45.45102" lon="6.56301">
        <ele>656.4</ele>
        <time>2021-05-28T12:42:10Z</time>
      </trkpt>
      <trkpt lat="45.45107" lon="6.56296">
        <ele>656.2</ele>
        <time>2021-05-28T12:42:11Z</time>
      </trkpt>
      <trkpt lat="45.45111" lon="6.56292">
        <ele>656.2</ele>
        <time>2021-05-28T12:42:12Z</time>
      </trkpt>
      <trkpt lat="45.45115" lon="6.56287">
        <ele>656.4</ele>
        <time>2021-05-28T12:42:13Z</time>
      </trkpt>
      <trkpt lat="45.4512" lon="6.56282">
        <ele>656.6</ele>
        <time>2021-05-28T12:42:14Z</time>
      </trkpt>
      <trkpt lat="45.45125" lon="6.56278">
        <ele>656.8</ele>
        <time>2021-05-28T12:42:15Z</time>
      </trkpt>
      <trkpt lat="45.45129" lon="6.56273">
        <ele>657</ele>
        <time>2021-05-28T12:42:16Z</time>
      </trkpt>
      <trkpt lat="45.45134" lon="6.56268">
        <ele>657.6</ele>
        <time>2021-05-28T12:42:17Z</time>
      </trkpt>
      <trkpt lat="45.45139" lon="6.56262">
        <ele>657.4</ele>
        <time>2021-05-28T12:42:18Z</time>
      </trkpt>
      <trkpt lat="45.45143" lon="6.56257">
        <ele>657.4</ele>
        <time>2021-05-28T12:42:19Z</time>
      </trkpt>
      <trkpt lat="45.45147" lon="6.56252">
        <ele>657.6</ele>
        <time>2021-05-28T12:42:20Z</time>
      </trkpt>
      <trkpt lat="45.45151" lon="6.56246">
        <ele>657.4</ele>
        <time>2021-05-28T12:42:21Z</time>
      </trkpt>
      <trkpt lat="45.45156" lon="6.5624">
        <ele>657.8</ele>
        <time>2021-05-28T12:42:22Z</time>
      </trkpt>
      <trkpt lat="45.45161" lon="6.56234">
        <ele>657.8</ele>
        <time>2021-05-28T12:42:23Z</time>
      </trkpt>
      <trkpt lat="45.45165" lon="6.56226">
        <ele>657.6</ele>
        <time>2021-05-28T12:42:24Z</time>
      </trkpt>
      <trkpt lat="45.45169" lon="6.56219">
        <ele>657.4</ele>
        <time>2021-05-28T12:42:25Z</time>
      </trkpt>
      <trkpt lat="45.45173" lon="6.5621">
        <ele>657.6</ele>
        <time>2021-05-28T12:42:26Z</time>
      </trkpt>
      <trkpt lat="45.45176" lon="6.562">
        <ele>657.4</ele>
        <time>2021-05-28T12:42:27Z</time>
      </trkpt>
      <trkpt lat="45.4518" lon="6.5619">
        <ele>657.2</ele>
        <time>2021-05-28T12:42:28Z</time>
      </trkpt>
      <trkpt lat="45.45183" lon="6.56181">
        <ele>657.6</ele>
        <time>2021-05-28T12:42:29Z</time>
      </trkpt>
      <trkpt lat="45.45187" lon="6.5617">
        <ele>657.2</ele>
        <time>2021-05-28T12:42:30Z</time>
      </trkpt>
      <trkpt lat="45.4519" lon="6.56158">
        <ele>656.8</ele>
        <time>2021-05-28T12:42:31Z</time>
      </trkpt>
      <trkpt lat="45.45192" lon="6.56146">
        <ele>656.4</ele>
        <time>2021-05-28T12:42:32Z</time>
      </trkpt>
      <trkpt lat="45.45195" lon="6.56133">
        <ele>656.2</ele>
        <time>2021-05-28T12:42:33Z</time>
      </trkpt>
      <trkpt lat="45.45198" lon="6.5612">
        <ele>656</ele>
        <time>2021-05-28T12:42:34Z</time>
      </trkpt>
      <trkpt lat="45.45201" lon="6.56106">
        <ele>655.4</ele>
        <time>2021-05-28T12:42:35Z</time>
      </trkpt>
      <trkpt lat="45.45204" lon="6.56093">
        <ele>654.6</ele>
        <time>2021-05-28T12:42:36Z</time>
      </trkpt>
      <trkpt lat="45.45209" lon="6.5608">
        <ele>654.2</ele>
        <time>2021-05-28T12:42:37Z</time>
      </trkpt>
      <trkpt lat="45.45214" lon="6.56067">
        <ele>653.8</ele>
        <time>2021-05-28T12:42:38Z</time>
      </trkpt>
      <trkpt lat="45.4522" lon="6.56054">
        <ele>653</ele>
        <time>2021-05-28T12:42:39Z</time>
      </trkpt>
      <trkpt lat="45.45226" lon="6.56042">
        <ele>652.4</ele>
        <time>2021-05-28T12:42:40Z</time>
      </trkpt>
      <trkpt lat="45.45233" lon="6.5603">
        <ele>651.8</ele>
        <time>2021-05-28T12:42:41Z</time>
      </trkpt>
      <trkpt lat="45.45239" lon="6.56017">
        <ele>651.6</ele>
        <time>2021-05-28T12:42:42Z</time>
      </trkpt>
      <trkpt lat="45.45246" lon="6.56004">
        <ele>651</ele>
        <time>2021-05-28T12:42:43Z</time>
      </trkpt>
      <trkpt lat="45.45252" lon="6.55991">
        <ele>650.4</ele>
        <time>2021-05-28T12:42:44Z</time>
      </trkpt>
      <trkpt lat="45.45259" lon="6.55978">
        <ele>649.8</ele>
        <time>2021-05-28T12:42:45Z</time>
      </trkpt>
      <trkpt lat="45.45266" lon="6.55965">
        <ele>649.2</ele>
        <time>2021-05-28T12:42:46Z</time>
      </trkpt>
      <trkpt lat="45.45272" lon="6.55951">
        <ele>649</ele>
        <time>2021-05-28T12:42:47Z</time>
      </trkpt>
      <trkpt lat="45.45279" lon="6.55937">
        <ele>648.6</ele>
        <time>2021-05-28T12:42:48Z</time>
      </trkpt>
      <trkpt lat="45.45285" lon="6.55923">
        <ele>647.8</ele>
        <time>2021-05-28T12:42:49Z</time>
      </trkpt>
      <trkpt lat="45.45292" lon="6.5591">
        <ele>647.2</ele>
        <time>2021-05-28T12:42:50Z</time>
      </trkpt>
      <trkpt lat="45.45298" lon="6.55897">
        <ele>647</ele>
        <time>2021-05-28T12:42:51Z</time>
      </trkpt>
      <trkpt lat="45.45306" lon="6.55885">
        <ele>647</ele>
        <time>2021-05-28T12:42:52Z</time>
      </trkpt>
      <trkpt lat="45.45313" lon="6.55873">
        <ele>646.6</ele>
        <time>2021-05-28T12:42:53Z</time>
      </trkpt>
      <trkpt lat="45.45319" lon="6.55862">
        <ele>646.2</ele>
        <time>2021-05-28T12:42:54Z</time>
      </trkpt>
      <trkpt lat="45.45327" lon="6.55851">
        <ele>646.2</ele>
        <time>2021-05-28T12:42:55Z</time>
      </trkpt>
      <trkpt lat="45.45333" lon="6.5584">
        <ele>646.4</ele>
        <time>2021-05-28T12:42:56Z</time>
      </trkpt>
      <trkpt lat="45.4534" lon="6.5583">
        <ele>646.2</ele>
        <time>2021-05-28T12:42:57Z</time>
      </trkpt>
      <trkpt lat="45.45346" lon="6.5582">
        <ele>646</ele>
        <time>2021-05-28T12:42:58Z</time>
      </trkpt>
      <trkpt lat="45.45352" lon="6.55811">
        <ele>646</ele>
        <time>2021-05-28T12:42:59Z</time>
      </trkpt>
      <trkpt lat="45.45357" lon="6.55802">
        <ele>646.2</ele>
        <time>2021-05-28T12:43:00Z</time>
      </trkpt>
      <trkpt lat="45.45364" lon="6.55795">
        <ele>646.4</ele>
        <time>2021-05-28T12:43:01Z</time>
      </trkpt>
      <trkpt lat="45.45369" lon="6.55786">
        <ele>647.2</ele>
        <time>2021-05-28T12:43:02Z</time>
      </trkpt>
      <trkpt lat="45.45374" lon="6.55778">
        <ele>648.2</ele>
        <time>2021-05-28T12:43:03Z</time>
      </trkpt>
      <trkpt lat="45.45379" lon="6.55769">
        <ele>649</ele>
        <time>2021-05-28T12:43:04Z</time>
      </trkpt>
      <trkpt lat="45.45385" lon="6.55761">
        <ele>649.4</ele>
        <time>2021-05-28T12:43:05Z</time>
      </trkpt>
      <trkpt lat="45.4539" lon="6.55754">
        <ele>650.2</ele>
        <time>2021-05-28T12:43:06Z</time>
      </trkpt>
      <trkpt lat="45.45395" lon="6.55746">
        <ele>650.6</ele>
        <time>2021-05-28T12:43:07Z</time>
      </trkpt>
      <trkpt lat="45.45398" lon="6.55737">
        <ele>650.8</ele>
        <time>2021-05-28T12:43:08Z</time>
      </trkpt>
      <trkpt lat="45.45402" lon="6.55727">
        <ele>651.2</ele>
        <time>2021-05-28T12:43:09Z</time>
      </trkpt>
      <trkpt lat="45.45405" lon="6.55718">
        <ele>651.4</ele>
        <time>2021-05-28T12:43:10Z</time>
      </trkpt>
      <trkpt lat="45.4541" lon="6.55708">
        <ele>652</ele>
        <time>2021-05-28T12:43:11Z</time>
      </trkpt>
      <trkpt lat="45.45414" lon="6.55699">
        <ele>652.4</ele>
        <time>2021-05-28T12:43:12Z</time>
      </trkpt>
      <trkpt lat="45.45419" lon="6.55689">
        <ele>652.6</ele>
        <time>2021-05-28T12:43:13Z</time>
      </trkpt>
      <trkpt lat="45.45423" lon="6.5568">
        <ele>652.6</ele>
        <time>2021-05-28T12:43:14Z</time>
      </trkpt>
      <trkpt lat="45.45427" lon="6.5567">
        <ele>652.8</ele>
        <time>2021-05-28T12:43:15Z</time>
      </trkpt>
      <trkpt lat="45.4543" lon="6.5566">
        <ele>652.6</ele>
        <time>2021-05-28T12:43:16Z</time>
      </trkpt>
      <trkpt lat="45.45434" lon="6.55651">
        <ele>652.6</ele>
        <time>2021-05-28T12:43:17Z</time>
      </trkpt>
      <trkpt lat="45.45438" lon="6.55641">
        <ele>652.6</ele>
        <time>2021-05-28T12:43:18Z</time>
      </trkpt>
      <trkpt lat="45.45442" lon="6.5563">
        <ele>652.4</ele>
        <time>2021-05-28T12:43:19Z</time>
      </trkpt>
      <trkpt lat="45.45446" lon="6.5562">
        <ele>652.4</ele>
        <time>2021-05-28T12:43:20Z</time>
      </trkpt>
      <trkpt lat="45.45451" lon="6.5561">
        <ele>652.2</ele>
        <time>2021-05-28T12:43:21Z</time>
      </trkpt>
      <trkpt lat="45.45457" lon="6.556">
        <ele>652.4</ele>
        <time>2021-05-28T12:43:22Z</time>
      </trkpt>
      <trkpt lat="45.45463" lon="6.55591">
        <ele>652.4</ele>
        <time>2021-05-28T12:43:23Z</time>
      </trkpt>
      <trkpt lat="45.45469" lon="6.55581">
        <ele>652.6</ele>
        <time>2021-05-28T12:43:24Z</time>
      </trkpt>
      <trkpt lat="45.45476" lon="6.55572">
        <ele>652.6</ele>
        <time>2021-05-28T12:43:25Z</time>
      </trkpt>
      <trkpt lat="45.45483" lon="6.55563">
        <ele>652.6</ele>
        <time>2021-05-28T12:43:26Z</time>
      </trkpt>
      <trkpt lat="45.4549" lon="6.55554">
        <ele>652.4</ele>
        <time>2021-05-28T12:43:27Z</time>
      </trkpt>
      <trkpt lat="45.45497" lon="6.55545">
        <ele>652.4</ele>
        <time>2021-05-28T12:43:28Z</time>
      </trkpt>
      <trkpt lat="45.45504" lon="6.55536">
        <ele>652.8</ele>
        <time>2021-05-28T12:43:29Z</time>
      </trkpt>
      <trkpt lat="45.45511" lon="6.55525">
        <ele>652.4</ele>
        <time>2021-05-28T12:43:30Z</time>
      </trkpt>
      <trkpt lat="45.45518" lon="6.55513">
        <ele>651.4</ele>
        <time>2021-05-28T12:43:31Z</time>
      </trkpt>
      <trkpt lat="45.45526" lon="6.55501">
        <ele>650</ele>
        <time>2021-05-28T12:43:32Z</time>
      </trkpt>
      <trkpt lat="45.45536" lon="6.55489">
        <ele>649.8</ele>
        <time>2021-05-28T12:43:33Z</time>
      </trkpt>
      <trkpt lat="45.45546" lon="6.55478">
        <ele>649.6</ele>
        <time>2021-05-28T12:43:34Z</time>
      </trkpt>
      <trkpt lat="45.45556" lon="6.55467">
        <ele>649.4</ele>
        <time>2021-05-28T12:43:35Z</time>
      </trkpt>
      <trkpt lat="45.45565" lon="6.55454">
        <ele>648.6</ele>
        <time>2021-05-28T12:43:36Z</time>
      </trkpt>
      <trkpt lat="45.45574" lon="6.55442">
        <ele>647.4</ele>
        <time>2021-05-28T12:43:37Z</time>
      </trkpt>
      <trkpt lat="45.45584" lon="6.55429">
        <ele>646.4</ele>
        <time>2021-05-28T12:43:38Z</time>
      </trkpt>
      <trkpt lat="45.45593" lon="6.55416">
        <ele>645.4</ele>
        <time>2021-05-28T12:43:39Z</time>
      </trkpt>
      <trkpt lat="45.45602" lon="6.55402">
        <ele>644.8</ele>
        <time>2021-05-28T12:43:40Z</time>
      </trkpt>
      <trkpt lat="45.45611" lon="6.55388">
        <ele>643</ele>
        <time>2021-05-28T12:43:41Z</time>
      </trkpt>
      <trkpt lat="45.4562" lon="6.55375">
        <ele>641.6</ele>
        <time>2021-05-28T12:43:42Z</time>
      </trkpt>
      <trkpt lat="45.4563" lon="6.55361">
        <ele>640.2</ele>
        <time>2021-05-28T12:43:43Z</time>
      </trkpt>
      <trkpt lat="45.4564" lon="6.55347">
        <ele>638.8</ele>
        <time>2021-05-28T12:43:44Z</time>
      </trkpt>
      <trkpt lat="45.45648" lon="6.55333">
        <ele>637.6</ele>
        <time>2021-05-28T12:43:45Z</time>
      </trkpt>
      <trkpt lat="45.45656" lon="6.55316">
        <ele>636.2</ele>
        <time>2021-05-28T12:43:46Z</time>
      </trkpt>
      <trkpt lat="45.45663" lon="6.55299">
        <ele>634.6</ele>
        <time>2021-05-28T12:43:47Z</time>
      </trkpt>
      <trkpt lat="45.45669" lon="6.55281">
        <ele>633.6</ele>
        <time>2021-05-28T12:43:48Z</time>
      </trkpt>
      <trkpt lat="45.45676" lon="6.55264">
        <ele>632.6</ele>
        <time>2021-05-28T12:43:49Z</time>
      </trkpt>
      <trkpt lat="45.45685" lon="6.55247">
        <ele>631.4</ele>
        <time>2021-05-28T12:43:50Z</time>
      </trkpt>
      <trkpt lat="45.45695" lon="6.55233">
        <ele>630.4</ele>
        <time>2021-05-28T12:43:51Z</time>
      </trkpt>
      <trkpt lat="45.45705" lon="6.55219">
        <ele>629.6</ele>
        <time>2021-05-28T12:43:52Z</time>
      </trkpt>
      <trkpt lat="45.45717" lon="6.55207">
        <ele>628</ele>
        <time>2021-05-28T12:43:53Z</time>
      </trkpt>
      <trkpt lat="45.45729" lon="6.55196">
        <ele>626.6</ele>
        <time>2021-05-28T12:43:54Z</time>
      </trkpt>
      <trkpt lat="45.4574" lon="6.55183">
        <ele>625.2</ele>
        <time>2021-05-28T12:43:55Z</time>
      </trkpt>
      <trkpt lat="45.45751" lon="6.55168">
        <ele>623.8</ele>
        <time>2021-05-28T12:43:56Z</time>
      </trkpt>
      <trkpt lat="45.4576" lon="6.55152">
        <ele>622.8</ele>
        <time>2021-05-28T12:43:57Z</time>
      </trkpt>
      <trkpt lat="45.4577" lon="6.55136">
        <ele>621.8</ele>
        <time>2021-05-28T12:43:58Z</time>
      </trkpt>
      <trkpt lat="45.4578" lon="6.55121">
        <ele>620.8</ele>
        <time>2021-05-28T12:43:59Z</time>
      </trkpt>
      <trkpt lat="45.45792" lon="6.55108">
        <ele>620.6</ele>
        <time>2021-05-28T12:44:00Z</time>
      </trkpt>
      <trkpt lat="45.45805" lon="6.55097">
        <ele>619.8</ele>
        <time>2021-05-28T12:44:01Z</time>
      </trkpt>
      <trkpt lat="45.45818" lon="6.55087">
        <ele>618.8</ele>
        <time>2021-05-28T12:44:02Z</time>
      </trkpt>
      <trkpt lat="45.45832" lon="6.55078">
        <ele>617.6</ele>
        <time>2021-05-28T12:44:03Z</time>
      </trkpt>
      <trkpt lat="45.45846" lon="6.55069">
        <ele>616.8</ele>
        <time>2021-05-28T12:44:04Z</time>
      </trkpt>
      <trkpt lat="45.45858" lon="6.55058">
        <ele>615.4</ele>
        <time>2021-05-28T12:44:05Z</time>
      </trkpt>
      <trkpt lat="45.45869" lon="6.55045">
        <ele>614.4</ele>
        <time>2021-05-28T12:44:06Z</time>
      </trkpt>
      <trkpt lat="45.45878" lon="6.5503">
        <ele>613.6</ele>
        <time>2021-05-28T12:44:07Z</time>
      </trkpt>
      <trkpt lat="45.45887" lon="6.55014">
        <ele>613.2</ele>
        <time>2021-05-28T12:44:08Z</time>
      </trkpt>
      <trkpt lat="45.45894" lon="6.54998">
        <ele>612.2</ele>
        <time>2021-05-28T12:44:09Z</time>
      </trkpt>
      <trkpt lat="45.45903" lon="6.54983">
        <ele>611.4</ele>
        <time>2021-05-28T12:44:10Z</time>
      </trkpt>
      <trkpt lat="45.45912" lon="6.54967">
        <ele>610.6</ele>
        <time>2021-05-28T12:44:11Z</time>
      </trkpt>
      <trkpt lat="45.45921" lon="6.54953">
        <ele>609.8</ele>
        <time>2021-05-28T12:44:12Z</time>
      </trkpt>
      <trkpt lat="45.45931" lon="6.54939">
        <ele>608.8</ele>
        <time>2021-05-28T12:44:13Z</time>
      </trkpt>
      <trkpt lat="45.45941" lon="6.54925">
        <ele>608</ele>
        <time>2021-05-28T12:44:14Z</time>
      </trkpt>
      <trkpt lat="45.45952" lon="6.54913">
        <ele>606.6</ele>
        <time>2021-05-28T12:44:15Z</time>
      </trkpt>
      <trkpt lat="45.45962" lon="6.549">
        <ele>605.4</ele>
        <time>2021-05-28T12:44:16Z</time>
      </trkpt>
      <trkpt lat="45.45971" lon="6.54886">
        <ele>604.2</ele>
        <time>2021-05-28T12:44:17Z</time>
      </trkpt>
      <trkpt lat="45.4598" lon="6.54873">
        <ele>604</ele>
        <time>2021-05-28T12:44:18Z</time>
      </trkpt>
      <trkpt lat="45.4599" lon="6.54861">
        <ele>603.6</ele>
        <time>2021-05-28T12:44:19Z</time>
      </trkpt>
      <trkpt lat="45.45998" lon="6.54849">
        <ele>603.2</ele>
        <time>2021-05-28T12:44:20Z</time>
      </trkpt>
      <trkpt lat="45.46006" lon="6.54838">
        <ele>602.6</ele>
        <time>2021-05-28T12:44:21Z</time>
      </trkpt>
      <trkpt lat="45.46014" lon="6.54827">
        <ele>602.4</ele>
        <time>2021-05-28T12:44:22Z</time>
      </trkpt>
      <trkpt lat="45.46022" lon="6.54815">
        <ele>602.4</ele>
        <time>2021-05-28T12:44:23Z</time>
      </trkpt>
      <trkpt lat="45.4603" lon="6.54804">
        <ele>602</ele>
        <time>2021-05-28T12:44:24Z</time>
      </trkpt>
      <trkpt lat="45.46037" lon="6.54793">
        <ele>601.8</ele>
        <time>2021-05-28T12:44:25Z</time>
      </trkpt>
      <trkpt lat="45.46043" lon="6.54781">
        <ele>601.4</ele>
        <time>2021-05-28T12:44:26Z</time>
      </trkpt>
      <trkpt lat="45.46047" lon="6.54768">
        <ele>601.4</ele>
        <time>2021-05-28T12:44:27Z</time>
      </trkpt>
      <trkpt lat="45.46048" lon="6.54753">
        <ele>600.8</ele>
        <time>2021-05-28T12:44:28Z</time>
      </trkpt>
      <trkpt lat="45.46047" lon="6.54738">
        <ele>600.2</ele>
        <time>2021-05-28T12:44:29Z</time>
      </trkpt>
      <trkpt lat="45.46044" lon="6.54723">
        <ele>599.8</ele>
        <time>2021-05-28T12:44:30Z</time>
      </trkpt>
      <trkpt lat="45.46042" lon="6.54708">
        <ele>599.4</ele>
        <time>2021-05-28T12:44:31Z</time>
      </trkpt>
      <trkpt lat="45.4604" lon="6.54694">
        <ele>599.2</ele>
        <time>2021-05-28T12:44:32Z</time>
      </trkpt>
      <trkpt lat="45.46039" lon="6.5468">
        <ele>598.4</ele>
        <time>2021-05-28T12:44:33Z</time>
      </trkpt>
      <trkpt lat="45.4604" lon="6.54666">
        <ele>598.2</ele>
        <time>2021-05-28T12:44:34Z</time>
      </trkpt>
      <trkpt lat="45.46043" lon="6.54653">
        <ele>598</ele>
        <time>2021-05-28T12:44:35Z</time>
      </trkpt>
      <trkpt lat="45.46047" lon="6.54641">
        <ele>597.8</ele>
        <time>2021-05-28T12:44:36Z</time>
      </trkpt>
      <trkpt lat="45.46053" lon="6.5463">
        <ele>597.6</ele>
        <time>2021-05-28T12:44:37Z</time>
      </trkpt>
      <trkpt lat="45.4606" lon="6.54621">
        <ele>597.2</ele>
        <time>2021-05-28T12:44:38Z</time>
      </trkpt>
      <trkpt lat="45.46067" lon="6.54611">
        <ele>597.2</ele>
        <time>2021-05-28T12:44:39Z</time>
      </trkpt>
      <trkpt lat="45.46074" lon="6.54601">
        <ele>597.2</ele>
        <time>2021-05-28T12:44:40Z</time>
      </trkpt>
      <trkpt lat="45.4608" lon="6.54591">
        <ele>597</ele>
        <time>2021-05-28T12:44:41Z</time>
      </trkpt>
      <trkpt lat="45.46087" lon="6.54579">
        <ele>597</ele>
        <time>2021-05-28T12:44:42Z</time>
      </trkpt>
      <trkpt lat="45.46094" lon="6.5457">
        <ele>597</ele>
        <time>2021-05-28T12:44:43Z</time>
      </trkpt>
      <trkpt lat="45.46103" lon="6.54563">
        <ele>597</ele>
        <time>2021-05-28T12:44:44Z</time>
      </trkpt>
      <trkpt lat="45.46112" lon="6.54558">
        <ele>597</ele>
        <time>2021-05-28T12:44:45Z</time>
      </trkpt>
      <trkpt lat="45.46121" lon="6.54552">
        <ele>596.2</ele>
        <time>2021-05-28T12:44:46Z</time>
      </trkpt>
      <trkpt lat="45.46129" lon="6.54544">
        <ele>595.8</ele>
        <time>2021-05-28T12:44:47Z</time>
      </trkpt>
      <trkpt lat="45.46136" lon="6.54536">
        <ele>595.2</ele>
        <time>2021-05-28T12:44:48Z</time>
      </trkpt>
      <trkpt lat="45.46143" lon="6.54526">
        <ele>594.8</ele>
        <time>2021-05-28T12:44:49Z</time>
      </trkpt>
      <trkpt lat="45.46149" lon="6.54516">
        <ele>594.8</ele>
        <time>2021-05-28T12:44:50Z</time>
      </trkpt>
      <trkpt lat="45.46156" lon="6.54506">
        <ele>594.8</ele>
        <time>2021-05-28T12:44:51Z</time>
      </trkpt>
      <trkpt lat="45.46161" lon="6.54495">
        <ele>594.8</ele>
        <time>2021-05-28T12:44:52Z</time>
      </trkpt>
      <trkpt lat="45.46167" lon="6.54484">
        <ele>594.8</ele>
        <time>2021-05-28T12:44:53Z</time>
      </trkpt>
      <trkpt lat="45.46172" lon="6.54473">
        <ele>594.6</ele>
        <time>2021-05-28T12:44:54Z</time>
      </trkpt>
      <trkpt lat="45.46177" lon="6.54461">
        <ele>594.4</ele>
        <time>2021-05-28T12:44:55Z</time>
      </trkpt>
      <trkpt lat="45.46182" lon="6.5445">
        <ele>594.2</ele>
        <time>2021-05-28T12:44:56Z</time>
      </trkpt>
      <trkpt lat="45.46186" lon="6.54437">
        <ele>594.2</ele>
        <time>2021-05-28T12:44:57Z</time>
      </trkpt>
      <trkpt lat="45.46188" lon="6.54423">
        <ele>594.6</ele>
        <time>2021-05-28T12:44:58Z</time>
      </trkpt>
      <trkpt lat="45.46189" lon="6.54409">
        <ele>594.8</ele>
        <time>2021-05-28T12:44:59Z</time>
      </trkpt>
      <trkpt lat="45.4619" lon="6.54395">
        <ele>594.8</ele>
        <time>2021-05-28T12:45:00Z</time>
      </trkpt>
      <trkpt lat="45.46191" lon="6.5438">
        <ele>594.8</ele>
        <time>2021-05-28T12:45:01Z</time>
      </trkpt>
      <trkpt lat="45.46192" lon="6.54364">
        <ele>594.6</ele>
        <time>2021-05-28T12:45:02Z</time>
      </trkpt>
      <trkpt lat="45.46194" lon="6.54349">
        <ele>594.2</ele>
        <time>2021-05-28T12:45:03Z</time>
      </trkpt>
      <trkpt lat="45.46197" lon="6.54335">
        <ele>594.2</ele>
        <time>2021-05-28T12:45:04Z</time>
      </trkpt>
      <trkpt lat="45.46203" lon="6.54321">
        <ele>594.2</ele>
        <time>2021-05-28T12:45:05Z</time>
      </trkpt>
      <trkpt lat="45.4621" lon="6.5431">
        <ele>593.8</ele>
        <time>2021-05-28T12:45:06Z</time>
      </trkpt>
      <trkpt lat="45.46219" lon="6.543">
        <ele>593.4</ele>
        <time>2021-05-28T12:45:07Z</time>
      </trkpt>
      <trkpt lat="45.46228" lon="6.54291">
        <ele>592.8</ele>
        <time>2021-05-28T12:45:08Z</time>
      </trkpt>
      <trkpt lat="45.46236" lon="6.5428">
        <ele>592.4</ele>
        <time>2021-05-28T12:45:09Z</time>
      </trkpt>
      <trkpt lat="45.46241" lon="6.54266">
        <ele>591.8</ele>
        <time>2021-05-28T12:45:10Z</time>
      </trkpt>
      <trkpt lat="45.46246" lon="6.54252">
        <ele>591.8</ele>
        <time>2021-05-28T12:45:11Z</time>
      </trkpt>
      <trkpt lat="45.46253" lon="6.54239">
        <ele>591.2</ele>
        <time>2021-05-28T12:45:12Z</time>
      </trkpt>
      <trkpt lat="45.46262" lon="6.54229">
        <ele>590.4</ele>
        <time>2021-05-28T12:45:13Z</time>
      </trkpt>
      <trkpt lat="45.46273" lon="6.54222">
        <ele>589.8</ele>
        <time>2021-05-28T12:45:14Z</time>
      </trkpt>
      <trkpt lat="45.46284" lon="6.54217">
        <ele>589.4</ele>
        <time>2021-05-28T12:45:15Z</time>
      </trkpt>
      <trkpt lat="45.46296" lon="6.54212">
        <ele>588.4</ele>
        <time>2021-05-28T12:45:16Z</time>
      </trkpt>
      <trkpt lat="45.46308" lon="6.54207">
        <ele>587.8</ele>
        <time>2021-05-28T12:45:17Z</time>
      </trkpt>
      <trkpt lat="45.46316" lon="6.54199">
        <ele>587.4</ele>
        <time>2021-05-28T12:45:18Z</time>
      </trkpt>
      <trkpt lat="45.46324" lon="6.54187">
        <ele>586.4</ele>
        <time>2021-05-28T12:45:19Z</time>
      </trkpt>
      <trkpt lat="45.4633" lon="6.54174">
        <ele>586.2</ele>
        <time>2021-05-28T12:45:20Z</time>
      </trkpt>
      <trkpt lat="45.46333" lon="6.54159">
        <ele>585.8</ele>
        <time>2021-05-28T12:45:21Z</time>
      </trkpt>
      <trkpt lat="45.46333" lon="6.54146">
        <ele>586.2</ele>
        <time>2021-05-28T12:45:22Z</time>
      </trkpt>
      <trkpt lat="45.46329" lon="6.54131">
        <ele>586</ele>
        <time>2021-05-28T12:45:23Z</time>
      </trkpt>
      <trkpt lat="45.46324" lon="6.54115">
        <ele>585.8</ele>
        <time>2021-05-28T12:45:24Z</time>
      </trkpt>
      <trkpt lat="45.46319" lon="6.541">
        <ele>585.8</ele>
        <time>2021-05-28T12:45:25Z</time>
      </trkpt>
      <trkpt lat="45.46315" lon="6.54084">
        <ele>585.6</ele>
        <time>2021-05-28T12:45:26Z</time>
      </trkpt>
      <trkpt lat="45.4631" lon="6.54068">
        <ele>584.8</ele>
        <time>2021-05-28T12:45:27Z</time>
      </trkpt>
      <trkpt lat="45.46307" lon="6.54051">
        <ele>584.6</ele>
        <time>2021-05-28T12:45:28Z</time>
      </trkpt>
      <trkpt lat="45.46303" lon="6.54034">
        <ele>583.6</ele>
        <time>2021-05-28T12:45:29Z</time>
      </trkpt>
      <trkpt lat="45.463" lon="6.54016">
        <ele>583.2</ele>
        <time>2021-05-28T12:45:30Z</time>
      </trkpt>
      <trkpt lat="45.46299" lon="6.53999">
        <ele>582.4</ele>
        <time>2021-05-28T12:45:31Z</time>
      </trkpt>
      <trkpt lat="45.46297" lon="6.53981">
        <ele>582</ele>
        <time>2021-05-28T12:45:32Z</time>
      </trkpt>
      <trkpt lat="45.46296" lon="6.53963">
        <ele>581.2</ele>
        <time>2021-05-28T12:45:33Z</time>
      </trkpt>
      <trkpt lat="45.46294" lon="6.53945">
        <ele>581.2</ele>
        <time>2021-05-28T12:45:34Z</time>
      </trkpt>
      <trkpt lat="45.46292" lon="6.53927">
        <ele>581</ele>
        <time>2021-05-28T12:45:35Z</time>
      </trkpt>
      <trkpt lat="45.46291" lon="6.53909">
        <ele>580</ele>
        <time>2021-05-28T12:45:36Z</time>
      </trkpt>
      <trkpt lat="45.46289" lon="6.53891">
        <ele>579.4</ele>
        <time>2021-05-28T12:45:37Z</time>
      </trkpt>
      <trkpt lat="45.46288" lon="6.53874">
        <ele>578.8</ele>
        <time>2021-05-28T12:45:38Z</time>
      </trkpt>
      <trkpt lat="45.46287" lon="6.53856">
        <ele>578.4</ele>
        <time>2021-05-28T12:45:39Z</time>
      </trkpt>
      <trkpt lat="45.46287" lon="6.53838">
        <ele>578.2</ele>
        <time>2021-05-28T12:45:40Z</time>
      </trkpt>
      <trkpt lat="45.46289" lon="6.53821">
        <ele>577.8</ele>
        <time>2021-05-28T12:45:41Z</time>
      </trkpt>
      <trkpt lat="45.46292" lon="6.53803">
        <ele>577.2</ele>
        <time>2021-05-28T12:45:42Z</time>
      </trkpt>
      <trkpt lat="45.463" lon="6.53789">
        <ele>576.6</ele>
        <time>2021-05-28T12:45:43Z</time>
      </trkpt>
      <trkpt lat="45.46309" lon="6.53778">
        <ele>576</ele>
        <time>2021-05-28T12:45:44Z</time>
      </trkpt>
      <trkpt lat="45.4632" lon="6.53769">
        <ele>575.2</ele>
        <time>2021-05-28T12:45:45Z</time>
      </trkpt>
      <trkpt lat="45.46332" lon="6.53762">
        <ele>574</ele>
        <time>2021-05-28T12:45:46Z</time>
      </trkpt>
      <trkpt lat="45.46342" lon="6.53754">
        <ele>573.4</ele>
        <time>2021-05-28T12:45:47Z</time>
      </trkpt>
      <trkpt lat="45.4635" lon="6.53745">
        <ele>572.6</ele>
        <time>2021-05-28T12:45:48Z</time>
      </trkpt>
      <trkpt lat="45.46355" lon="6.53731">
        <ele>571.8</ele>
        <time>2021-05-28T12:45:49Z</time>
      </trkpt>
      <trkpt lat="45.46358" lon="6.53716">
        <ele>570.8</ele>
        <time>2021-05-28T12:45:50Z</time>
      </trkpt>
      <trkpt lat="45.46359" lon="6.53699">
        <ele>569.8</ele>
        <time>2021-05-28T12:45:51Z</time>
      </trkpt>
      <trkpt lat="45.46362" lon="6.53682">
        <ele>569.4</ele>
        <time>2021-05-28T12:45:52Z</time>
      </trkpt>
      <trkpt lat="45.46364" lon="6.53665">
        <ele>568.4</ele>
        <time>2021-05-28T12:45:53Z</time>
      </trkpt>
      <trkpt lat="45.46369" lon="6.53648">
        <ele>567.4</ele>
        <time>2021-05-28T12:45:54Z</time>
      </trkpt>
      <trkpt lat="45.46374" lon="6.53631">
        <ele>567</ele>
        <time>2021-05-28T12:45:55Z</time>
      </trkpt>
      <trkpt lat="45.4638" lon="6.53615">
        <ele>566.2</ele>
        <time>2021-05-28T12:45:56Z</time>
      </trkpt>
      <trkpt lat="45.46383" lon="6.53597">
        <ele>566</ele>
        <time>2021-05-28T12:45:57Z</time>
      </trkpt>
      <trkpt lat="45.46384" lon="6.53579">
        <ele>565.2</ele>
        <time>2021-05-28T12:45:58Z</time>
      </trkpt>
      <trkpt lat="45.46384" lon="6.5356">
        <ele>564.6</ele>
        <time>2021-05-28T12:45:59Z</time>
      </trkpt>
      <trkpt lat="45.46384" lon="6.53542">
        <ele>563.6</ele>
        <time>2021-05-28T12:46:00Z</time>
      </trkpt>
      <trkpt lat="45.46384" lon="6.53523">
        <ele>563.2</ele>
        <time>2021-05-28T12:46:01Z</time>
      </trkpt>
      <trkpt lat="45.46383" lon="6.53504">
        <ele>562</ele>
        <time>2021-05-28T12:46:02Z</time>
      </trkpt>
      <trkpt lat="45.46384" lon="6.53485">
        <ele>560.8</ele>
        <time>2021-05-28T12:46:03Z</time>
      </trkpt>
      <trkpt lat="45.46385" lon="6.53465">
        <ele>560.2</ele>
        <time>2021-05-28T12:46:04Z</time>
      </trkpt>
      <trkpt lat="45.46387" lon="6.53445">
        <ele>559.6</ele>
        <time>2021-05-28T12:46:05Z</time>
      </trkpt>
      <trkpt lat="45.46389" lon="6.53426">
        <ele>558.8</ele>
        <time>2021-05-28T12:46:06Z</time>
      </trkpt>
      <trkpt lat="45.46392" lon="6.53407">
        <ele>558.4</ele>
        <time>2021-05-28T12:46:07Z</time>
      </trkpt>
      <trkpt lat="45.46399" lon="6.5339">
        <ele>558.2</ele>
        <time>2021-05-28T12:46:08Z</time>
      </trkpt>
      <trkpt lat="45.46409" lon="6.53377">
        <ele>557.4</ele>
        <time>2021-05-28T12:46:09Z</time>
      </trkpt>
      <trkpt lat="45.46421" lon="6.53368">
        <ele>556.8</ele>
        <time>2021-05-28T12:46:10Z</time>
      </trkpt>
      <trkpt lat="45.46434" lon="6.5336">
        <ele>555.8</ele>
        <time>2021-05-28T12:46:11Z</time>
      </trkpt>
      <trkpt lat="45.46445" lon="6.53349">
        <ele>555</ele>
        <time>2021-05-28T12:46:12Z</time>
      </trkpt>
      <trkpt lat="45.46455" lon="6.53335">
        <ele>554.2</ele>
        <time>2021-05-28T12:46:13Z</time>
      </trkpt>
      <trkpt lat="45.46462" lon="6.53319">
        <ele>553</ele>
        <time>2021-05-28T12:46:14Z</time>
      </trkpt>
      <trkpt lat="45.46467" lon="6.53302">
        <ele>552.2</ele>
        <time>2021-05-28T12:46:15Z</time>
      </trkpt>
      <trkpt lat="45.46476" lon="6.53287">
        <ele>551.8</ele>
        <time>2021-05-28T12:46:16Z</time>
      </trkpt>
      <trkpt lat="45.46484" lon="6.53272">
        <ele>551.2</ele>
        <time>2021-05-28T12:46:17Z</time>
      </trkpt>
      <trkpt lat="45.46492" lon="6.53257">
        <ele>550.4</ele>
        <time>2021-05-28T12:46:18Z</time>
      </trkpt>
      <trkpt lat="45.46501" lon="6.53242">
        <ele>549.2</ele>
        <time>2021-05-28T12:46:19Z</time>
      </trkpt>
      <trkpt lat="45.46513" lon="6.53229">
        <ele>548.4</ele>
        <time>2021-05-28T12:46:20Z</time>
      </trkpt>
      <trkpt lat="45.46525" lon="6.53218">
        <ele>547.8</ele>
        <time>2021-05-28T12:46:21Z</time>
      </trkpt>
      <trkpt lat="45.46537" lon="6.53208">
        <ele>547</ele>
        <time>2021-05-28T12:46:22Z</time>
      </trkpt>
      <trkpt lat="45.4655" lon="6.53198">
        <ele>546</ele>
        <time>2021-05-28T12:46:23Z</time>
      </trkpt>
      <trkpt lat="45.46562" lon="6.53187">
        <ele>544.8</ele>
        <time>2021-05-28T12:46:24Z</time>
      </trkpt>
      <trkpt lat="45.46573" lon="6.53174">
        <ele>543.6</ele>
        <time>2021-05-28T12:46:25Z</time>
      </trkpt>
      <trkpt lat="45.46582" lon="6.53158">
        <ele>542.6</ele>
        <time>2021-05-28T12:46:26Z</time>
      </trkpt>
      <trkpt lat="45.46588" lon="6.5314">
        <ele>542</ele>
        <time>2021-05-28T12:46:27Z</time>
      </trkpt>
      <trkpt lat="45.46593" lon="6.5312">
        <ele>541.4</ele>
        <time>2021-05-28T12:46:28Z</time>
      </trkpt>
      <trkpt lat="45.46594" lon="6.53099">
        <ele>540.4</ele>
        <time>2021-05-28T12:46:29Z</time>
      </trkpt>
      <trkpt lat="45.46594" lon="6.53079">
        <ele>539.4</ele>
        <time>2021-05-28T12:46:30Z</time>
      </trkpt>
      <trkpt lat="45.4659" lon="6.53059">
        <ele>538.2</ele>
        <time>2021-05-28T12:46:31Z</time>
      </trkpt>
      <trkpt lat="45.46585" lon="6.5304">
        <ele>537.4</ele>
        <time>2021-05-28T12:46:32Z</time>
      </trkpt>
      <trkpt lat="45.46578" lon="6.53022">
        <ele>536.6</ele>
        <time>2021-05-28T12:46:33Z</time>
      </trkpt>
      <trkpt lat="45.4657" lon="6.53005">
        <ele>536.2</ele>
        <time>2021-05-28T12:46:34Z</time>
      </trkpt>
      <trkpt lat="45.46562" lon="6.52988">
        <ele>535.8</ele>
        <time>2021-05-28T12:46:35Z</time>
      </trkpt>
      <trkpt lat="45.46555" lon="6.52972">
        <ele>536</ele>
        <time>2021-05-28T12:46:36Z</time>
      </trkpt>
      <trkpt lat="45.46547" lon="6.52956">
        <ele>536.2</ele>
        <time>2021-05-28T12:46:37Z</time>
      </trkpt>
      <trkpt lat="45.4654" lon="6.5294">
        <ele>536.2</ele>
        <time>2021-05-28T12:46:38Z</time>
      </trkpt>
      <trkpt lat="45.46535" lon="6.52925">
        <ele>536.2</ele>
        <time>2021-05-28T12:46:39Z</time>
      </trkpt>
      <trkpt lat="45.46529" lon="6.5291">
        <ele>535.8</ele>
        <time>2021-05-28T12:46:40Z</time>
      </trkpt>
      <trkpt lat="45.46524" lon="6.52894">
        <ele>535.8</ele>
        <time>2021-05-28T12:46:41Z</time>
      </trkpt>
      <trkpt lat="45.46521" lon="6.52878">
        <ele>535.6</ele>
        <time>2021-05-28T12:46:42Z</time>
      </trkpt>
      <trkpt lat="45.46518" lon="6.52862">
        <ele>535.8</ele>
        <time>2021-05-28T12:46:43Z</time>
      </trkpt>
      <trkpt lat="45.46516" lon="6.52846">
        <ele>535.4</ele>
        <time>2021-05-28T12:46:44Z</time>
      </trkpt>
      <trkpt lat="45.46515" lon="6.5283">
        <ele>535</ele>
        <time>2021-05-28T12:46:45Z</time>
      </trkpt>
      <trkpt lat="45.46515" lon="6.52814">
        <ele>534.8</ele>
        <time>2021-05-28T12:46:46Z</time>
      </trkpt>
      <trkpt lat="45.46515" lon="6.52799">
        <ele>534</ele>
        <time>2021-05-28T12:46:47Z</time>
      </trkpt>
      <trkpt lat="45.46516" lon="6.52783">
        <ele>533.4</ele>
        <time>2021-05-28T12:46:48Z</time>
      </trkpt>
      <trkpt lat="45.46517" lon="6.52768">
        <ele>532.8</ele>
        <time>2021-05-28T12:46:49Z</time>
      </trkpt>
      <trkpt lat="45.4652" lon="6.52753">
        <ele>532.2</ele>
        <time>2021-05-28T12:46:50Z</time>
      </trkpt>
      <trkpt lat="45.46523" lon="6.52738">
        <ele>531</ele>
        <time>2021-05-28T12:46:51Z</time>
      </trkpt>
      <trkpt lat="45.46525" lon="6.52724">
        <ele>530</ele>
        <time>2021-05-28T12:46:52Z</time>
      </trkpt>
      <trkpt lat="45.46529" lon="6.52709">
        <ele>529.8</ele>
        <time>2021-05-28T12:46:53Z</time>
      </trkpt>
      <trkpt lat="45.46535" lon="6.52696">
        <ele>529.6</ele>
        <time>2021-05-28T12:46:54Z</time>
      </trkpt>
      <trkpt lat="45.46541" lon="6.52684">
        <ele>529.6</ele>
        <time>2021-05-28T12:46:55Z</time>
      </trkpt>
      <trkpt lat="45.46549" lon="6.52673">
        <ele>529.6</ele>
        <time>2021-05-28T12:46:56Z</time>
      </trkpt>
      <trkpt lat="45.46559" lon="6.52666">
        <ele>529.6</ele>
        <time>2021-05-28T12:46:57Z</time>
      </trkpt>
      <trkpt lat="45.4657" lon="6.52661">
        <ele>529.6</ele>
        <time>2021-05-28T12:46:58Z</time>
      </trkpt>
      <trkpt lat="45.46581" lon="6.52657">
        <ele>529.6</ele>
        <time>2021-05-28T12:46:59Z</time>
      </trkpt>
      <trkpt lat="45.46592" lon="6.52653">
        <ele>529.4</ele>
        <time>2021-05-28T12:47:00Z</time>
      </trkpt>
      <trkpt lat="45.46602" lon="6.52649">
        <ele>529</ele>
        <time>2021-05-28T12:47:01Z</time>
      </trkpt>
      <trkpt lat="45.46612" lon="6.52646">
        <ele>529.4</ele>
        <time>2021-05-28T12:47:02Z</time>
      </trkpt>
      <trkpt lat="45.46624" lon="6.52642">
        <ele>529.4</ele>
        <time>2021-05-28T12:47:03Z</time>
      </trkpt>
      <trkpt lat="45.46634" lon="6.52638">
        <ele>528.8</ele>
        <time>2021-05-28T12:47:04Z</time>
      </trkpt>
      <trkpt lat="45.46645" lon="6.52635">
        <ele>528.4</ele>
        <time>2021-05-28T12:47:05Z</time>
      </trkpt>
      <trkpt lat="45.46656" lon="6.52631">
        <ele>528.4</ele>
        <time>2021-05-28T12:47:06Z</time>
      </trkpt>
      <trkpt lat="45.46666" lon="6.52627">
        <ele>528.2</ele>
        <time>2021-05-28T12:47:07Z</time>
      </trkpt>
      <trkpt lat="45.46677" lon="6.52623">
        <ele>528.2</ele>
        <time>2021-05-28T12:47:08Z</time>
      </trkpt>
      <trkpt lat="45.46687" lon="6.5262">
        <ele>527.8</ele>
        <time>2021-05-28T12:47:09Z</time>
      </trkpt>
      <trkpt lat="45.46698" lon="6.52618">
        <ele>528</ele>
        <time>2021-05-28T12:47:10Z</time>
      </trkpt>
      <trkpt lat="45.46709" lon="6.52616">
        <ele>527.2</ele>
        <time>2021-05-28T12:47:11Z</time>
      </trkpt>
      <trkpt lat="45.46719" lon="6.52616">
        <ele>526.2</ele>
        <time>2021-05-28T12:47:12Z</time>
      </trkpt>
      <trkpt lat="45.4673" lon="6.52617">
        <ele>526</ele>
        <time>2021-05-28T12:47:13Z</time>
      </trkpt>
      <trkpt lat="45.46741" lon="6.52619">
        <ele>525.2</ele>
        <time>2021-05-28T12:47:14Z</time>
      </trkpt>
      <trkpt lat="45.46751" lon="6.52623">
        <ele>524.4</ele>
        <time>2021-05-28T12:47:15Z</time>
      </trkpt>
      <trkpt lat="45.46761" lon="6.52628">
        <ele>524</ele>
        <time>2021-05-28T12:47:16Z</time>
      </trkpt>
      <trkpt lat="45.46772" lon="6.52634">
        <ele>523.6</ele>
        <time>2021-05-28T12:47:17Z</time>
      </trkpt>
      <trkpt lat="45.46781" lon="6.52641">
        <ele>523.2</ele>
        <time>2021-05-28T12:47:18Z</time>
      </trkpt>
      <trkpt lat="45.46791" lon="6.52647">
        <ele>522.4</ele>
        <time>2021-05-28T12:47:19Z</time>
      </trkpt>
      <trkpt lat="45.468" lon="6.52654">
        <ele>522.2</ele>
        <time>2021-05-28T12:47:20Z</time>
      </trkpt>
      <trkpt lat="45.46809" lon="6.52661">
        <ele>521.8</ele>
        <time>2021-05-28T12:47:21Z</time>
      </trkpt>
      <trkpt lat="45.46818" lon="6.52668">
        <ele>521.2</ele>
        <time>2021-05-28T12:47:22Z</time>
      </trkpt>
      <trkpt lat="45.46827" lon="6.52674">
        <ele>520.8</ele>
        <time>2021-05-28T12:47:23Z</time>
      </trkpt>
      <trkpt lat="45.46835" lon="6.52681">
        <ele>520.6</ele>
        <time>2021-05-28T12:47:24Z</time>
      </trkpt>
      <trkpt lat="45.46844" lon="6.52688">
        <ele>520.6</ele>
        <time>2021-05-28T12:47:25Z</time>
      </trkpt>
      <trkpt lat="45.46853" lon="6.52695">
        <ele>521.2</ele>
        <time>2021-05-28T12:47:26Z</time>
      </trkpt>
      <trkpt lat="45.46861" lon="6.52701">
        <ele>521</ele>
        <time>2021-05-28T12:47:27Z</time>
      </trkpt>
      <trkpt lat="45.4687" lon="6.52708">
        <ele>521.2</ele>
        <time>2021-05-28T12:47:28Z</time>
      </trkpt>
      <trkpt lat="45.46878" lon="6.52715">
        <ele>521.2</ele>
        <time>2021-05-28T12:47:29Z</time>
      </trkpt>
      <trkpt lat="45.46887" lon="6.52721">
        <ele>521</ele>
        <time>2021-05-28T12:47:30Z</time>
      </trkpt>
      <trkpt lat="45.46895" lon="6.52727">
        <ele>520.8</ele>
        <time>2021-05-28T12:47:31Z</time>
      </trkpt>
      <trkpt lat="45.46904" lon="6.52733">
        <ele>520.2</ele>
        <time>2021-05-28T12:47:32Z</time>
      </trkpt>
      <trkpt lat="45.46913" lon="6.52738">
        <ele>519.6</ele>
        <time>2021-05-28T12:47:33Z</time>
      </trkpt>
      <trkpt lat="45.46922" lon="6.52742">
        <ele>518.6</ele>
        <time>2021-05-28T12:47:34Z</time>
      </trkpt>
      <trkpt lat="45.46931" lon="6.52746">
        <ele>518.4</ele>
        <time>2021-05-28T12:47:35Z</time>
      </trkpt>
      <trkpt lat="45.4694" lon="6.52749">
        <ele>518.4</ele>
        <time>2021-05-28T12:47:36Z</time>
      </trkpt>
      <trkpt lat="45.4695" lon="6.52752">
        <ele>518</ele>
        <time>2021-05-28T12:47:37Z</time>
      </trkpt>
      <trkpt lat="45.46959" lon="6.52753">
        <ele>517.8</ele>
        <time>2021-05-28T12:47:38Z</time>
      </trkpt>
      <trkpt lat="45.46968" lon="6.52754">
        <ele>518</ele>
        <time>2021-05-28T12:47:39Z</time>
      </trkpt>
      <trkpt lat="45.46977" lon="6.52754">
        <ele>517.8</ele>
        <time>2021-05-28T12:47:40Z</time>
      </trkpt>
      <trkpt lat="45.46986" lon="6.52754">
        <ele>517.4</ele>
        <time>2021-05-28T12:47:41Z</time>
      </trkpt>
      <trkpt lat="45.46996" lon="6.52753">
        <ele>517.4</ele>
        <time>2021-05-28T12:47:42Z</time>
      </trkpt>
      <trkpt lat="45.47005" lon="6.52751">
        <ele>517.2</ele>
        <time>2021-05-28T12:47:43Z</time>
      </trkpt>
      <trkpt lat="45.47014" lon="6.5275">
        <ele>516.8</ele>
        <time>2021-05-28T12:47:44Z</time>
      </trkpt>
      <trkpt lat="45.47023" lon="6.52749">
        <ele>516.6</ele>
        <time>2021-05-28T12:47:45Z</time>
      </trkpt>
      <trkpt lat="45.47033" lon="6.52747">
        <ele>515.2</ele>
        <time>2021-05-28T12:47:46Z</time>
      </trkpt>
      <trkpt lat="45.47043" lon="6.52746">
        <ele>515</ele>
        <time>2021-05-28T12:47:47Z</time>
      </trkpt>
      <trkpt lat="45.47052" lon="6.52745">
        <ele>514.8</ele>
        <time>2021-05-28T12:47:48Z</time>
      </trkpt>
      <trkpt lat="45.47062" lon="6.52744">
        <ele>514.4</ele>
        <time>2021-05-28T12:47:49Z</time>
      </trkpt>
      <trkpt lat="45.47072" lon="6.52743">
        <ele>514.4</ele>
        <time>2021-05-28T12:47:50Z</time>
      </trkpt>
      <trkpt lat="45.47082" lon="6.52742">
        <ele>513.6</ele>
        <time>2021-05-28T12:47:51Z</time>
      </trkpt>
      <trkpt lat="45.47092" lon="6.52741">
        <ele>513.2</ele>
        <time>2021-05-28T12:47:52Z</time>
      </trkpt>
      <trkpt lat="45.47102" lon="6.52741">
        <ele>513.2</ele>
        <time>2021-05-28T12:47:53Z</time>
      </trkpt>
      <trkpt lat="45.47112" lon="6.5274">
        <ele>513</ele>
        <time>2021-05-28T12:47:54Z</time>
      </trkpt>
      <trkpt lat="45.47123" lon="6.52739">
        <ele>512.6</ele>
        <time>2021-05-28T12:47:55Z</time>
      </trkpt>
      <trkpt lat="45.47133" lon="6.52739">
        <ele>512.2</ele>
        <time>2021-05-28T12:47:56Z</time>
      </trkpt>
      <trkpt lat="45.47142" lon="6.52739">
        <ele>512.6</ele>
        <time>2021-05-28T12:47:57Z</time>
      </trkpt>
      <trkpt lat="45.47152" lon="6.5274">
        <ele>511.4</ele>
        <time>2021-05-28T12:47:58Z</time>
      </trkpt>
      <trkpt lat="45.47162" lon="6.5274">
        <ele>510.8</ele>
        <time>2021-05-28T12:47:59Z</time>
      </trkpt>
      <trkpt lat="45.47172" lon="6.5274">
        <ele>510.8</ele>
        <time>2021-05-28T12:48:00Z</time>
      </trkpt>
      <trkpt lat="45.47181" lon="6.5274">
        <ele>510.4</ele>
        <time>2021-05-28T12:48:01Z</time>
      </trkpt>
      <trkpt lat="45.47191" lon="6.52741">
        <ele>510</ele>
        <time>2021-05-28T12:48:02Z</time>
      </trkpt>
      <trkpt lat="45.472" lon="6.52742">
        <ele>509.4</ele>
        <time>2021-05-28T12:48:03Z</time>
      </trkpt>
      <trkpt lat="45.4721" lon="6.52744">
        <ele>509</ele>
        <time>2021-05-28T12:48:04Z</time>
      </trkpt>
      <trkpt lat="45.4722" lon="6.52746">
        <ele>508.6</ele>
        <time>2021-05-28T12:48:05Z</time>
      </trkpt>
      <trkpt lat="45.47229" lon="6.52748">
        <ele>508.6</ele>
        <time>2021-05-28T12:48:06Z</time>
      </trkpt>
      <trkpt lat="45.47238" lon="6.52749">
        <ele>508.4</ele>
        <time>2021-05-28T12:48:07Z</time>
      </trkpt>
      <trkpt lat="45.47248" lon="6.52752">
        <ele>508.2</ele>
        <time>2021-05-28T12:48:08Z</time>
      </trkpt>
      <trkpt lat="45.47257" lon="6.52755">
        <ele>508.2</ele>
        <time>2021-05-28T12:48:09Z</time>
      </trkpt>
      <trkpt lat="45.47266" lon="6.52759">
        <ele>508.4</ele>
        <time>2021-05-28T12:48:10Z</time>
      </trkpt>
      <trkpt lat="45.47274" lon="6.52763">
        <ele>508.4</ele>
        <time>2021-05-28T12:48:11Z</time>
      </trkpt>
      <trkpt lat="45.47282" lon="6.52769">
        <ele>508.4</ele>
        <time>2021-05-28T12:48:12Z</time>
      </trkpt>
      <trkpt lat="45.4729" lon="6.52775">
        <ele>507.6</ele>
        <time>2021-05-28T12:48:13Z</time>
      </trkpt>
      <trkpt lat="45.47298" lon="6.52783">
        <ele>507.4</ele>
        <time>2021-05-28T12:48:14Z</time>
      </trkpt>
      <trkpt lat="45.47305" lon="6.52792">
        <ele>506.6</ele>
        <time>2021-05-28T12:48:15Z</time>
      </trkpt>
      <trkpt lat="45.47312" lon="6.52799">
        <ele>507</ele>
        <time>2021-05-28T12:48:16Z</time>
      </trkpt>
      <trkpt lat="45.47319" lon="6.52807">
        <ele>506.2</ele>
        <time>2021-05-28T12:48:17Z</time>
      </trkpt>
      <trkpt lat="45.47327" lon="6.52813">
        <ele>505.6</ele>
        <time>2021-05-28T12:48:18Z</time>
      </trkpt>
      <trkpt lat="45.47335" lon="6.52819">
        <ele>505.2</ele>
        <time>2021-05-28T12:48:19Z</time>
      </trkpt>
      <trkpt lat="45.47343" lon="6.52824">
        <ele>505.4</ele>
        <time>2021-05-28T12:48:20Z</time>
      </trkpt>
      <trkpt lat="45.47351" lon="6.52828">
        <ele>505.8</ele>
        <time>2021-05-28T12:48:21Z</time>
      </trkpt>
      <trkpt lat="45.4736" lon="6.5283">
        <ele>506</ele>
        <time>2021-05-28T12:48:22Z</time>
      </trkpt>
      <trkpt lat="45.47368" lon="6.5283">
        <ele>506</ele>
        <time>2021-05-28T12:48:23Z</time>
      </trkpt>
      <trkpt lat="45.47377" lon="6.5283">
        <ele>506.6</ele>
        <time>2021-05-28T12:48:24Z</time>
      </trkpt>
      <trkpt lat="45.47385" lon="6.5283">
        <ele>507.4</ele>
        <time>2021-05-28T12:48:25Z</time>
      </trkpt>
      <trkpt lat="45.47394" lon="6.52829">
        <ele>507.4</ele>
        <time>2021-05-28T12:48:26Z</time>
      </trkpt>
      <trkpt lat="45.47402" lon="6.52828">
        <ele>508</ele>
        <time>2021-05-28T12:48:27Z</time>
      </trkpt>
      <trkpt lat="45.4741" lon="6.52827">
        <ele>508.2</ele>
        <time>2021-05-28T12:48:28Z</time>
      </trkpt>
      <trkpt lat="45.47418" lon="6.52824">
        <ele>508.2</ele>
        <time>2021-05-28T12:48:29Z</time>
      </trkpt>
      <trkpt lat="45.47427" lon="6.52822">
        <ele>508.4</ele>
        <time>2021-05-28T12:48:30Z</time>
      </trkpt>
      <trkpt lat="45.47436" lon="6.5282">
        <ele>508.6</ele>
        <time>2021-05-28T12:48:31Z</time>
      </trkpt>
      <trkpt lat="45.47444" lon="6.52818">
        <ele>508.2</ele>
        <time>2021-05-28T12:48:32Z</time>
      </trkpt>
      <trkpt lat="45.47452" lon="6.52815">
        <ele>508.2</ele>
        <time>2021-05-28T12:48:33Z</time>
      </trkpt>
      <trkpt lat="45.47461" lon="6.52814">
        <ele>508</ele>
        <time>2021-05-28T12:48:34Z</time>
      </trkpt>
      <trkpt lat="45.47469" lon="6.52812">
        <ele>507.4</ele>
        <time>2021-05-28T12:48:35Z</time>
      </trkpt>
      <trkpt lat="45.47478" lon="6.5281">
        <ele>507.8</ele>
        <time>2021-05-28T12:48:36Z</time>
      </trkpt>
      <trkpt lat="45.47486" lon="6.52808">
        <ele>507.6</ele>
        <time>2021-05-28T12:48:37Z</time>
      </trkpt>
      <trkpt lat="45.47494" lon="6.52806">
        <ele>507</ele>
        <time>2021-05-28T12:48:38Z</time>
      </trkpt>
      <trkpt lat="45.47502" lon="6.52804">
        <ele>507</ele>
        <time>2021-05-28T12:48:39Z</time>
      </trkpt>
      <trkpt lat="45.4751" lon="6.52801">
        <ele>506.2</ele>
        <time>2021-05-28T12:48:40Z</time>
      </trkpt>
      <trkpt lat="45.47518" lon="6.52799">
        <ele>506.2</ele>
        <time>2021-05-28T12:48:41Z</time>
      </trkpt>
      <trkpt lat="45.47526" lon="6.52796">
        <ele>506.2</ele>
        <time>2021-05-28T12:48:42Z</time>
      </trkpt>
      <trkpt lat="45.47534" lon="6.52794">
        <ele>506</ele>
        <time>2021-05-28T12:48:43Z</time>
      </trkpt>
      <trkpt lat="45.47541" lon="6.52791">
        <ele>505.8</ele>
        <time>2021-05-28T12:48:44Z</time>
      </trkpt>
      <trkpt lat="45.47549" lon="6.52788">
        <ele>505.8</ele>
        <time>2021-05-28T12:48:45Z</time>
      </trkpt>
      <trkpt lat="45.47556" lon="6.52786">
        <ele>505.6</ele>
        <time>2021-05-28T12:48:46Z</time>
      </trkpt>
      <trkpt lat="45.47563" lon="6.52783">
        <ele>505.2</ele>
        <time>2021-05-28T12:48:47Z</time>
      </trkpt>
      <trkpt lat="45.47569" lon="6.52779">
        <ele>505</ele>
        <time>2021-05-28T12:48:48Z</time>
      </trkpt>
      <trkpt lat="45.47575" lon="6.52777">
        <ele>504.8</ele>
        <time>2021-05-28T12:48:49Z</time>
      </trkpt>
      <trkpt lat="45.47583" lon="6.52774">
        <ele>504.6</ele>
        <time>2021-05-28T12:48:50Z</time>
      </trkpt>
      <trkpt lat="45.4759" lon="6.52772">
        <ele>504</ele>
        <time>2021-05-28T12:48:51Z</time>
      </trkpt>
      <trkpt lat="45.47597" lon="6.52771">
        <ele>503.4</ele>
        <time>2021-05-28T12:48:52Z</time>
      </trkpt>
      <trkpt lat="45.47605" lon="6.52769">
        <ele>503.6</ele>
        <time>2021-05-28T12:48:53Z</time>
      </trkpt>
      <trkpt lat="45.47612" lon="6.52767">
        <ele>503.4</ele>
        <time>2021-05-28T12:48:54Z</time>
      </trkpt>
      <trkpt lat="45.47619" lon="6.52765">
        <ele>503.4</ele>
        <time>2021-05-28T12:48:55Z</time>
      </trkpt>
      <trkpt lat="45.47627" lon="6.52764">
        <ele>503.4</ele>
        <time>2021-05-28T12:48:56Z</time>
      </trkpt>
      <trkpt lat="45.47634" lon="6.52762">
        <ele>502.8</ele>
        <time>2021-05-28T12:48:57Z</time>
      </trkpt>
      <trkpt lat="45.47642" lon="6.5276">
        <ele>502.6</ele>
        <time>2021-05-28T12:48:58Z</time>
      </trkpt>
      <trkpt lat="45.4765" lon="6.52759">
        <ele>502.4</ele>
        <time>2021-05-28T12:48:59Z</time>
      </trkpt>
      <trkpt lat="45.47658" lon="6.52758">
        <ele>502.8</ele>
        <time>2021-05-28T12:49:00Z</time>
      </trkpt>
      <trkpt lat="45.47665" lon="6.52757">
        <ele>502.6</ele>
        <time>2021-05-28T12:49:01Z</time>
      </trkpt>
      <trkpt lat="45.47673" lon="6.52755">
        <ele>502.8</ele>
        <time>2021-05-28T12:49:02Z</time>
      </trkpt>
      <trkpt lat="45.47679" lon="6.52755">
        <ele>502.8</ele>
        <time>2021-05-28T12:49:03Z</time>
      </trkpt>
      <trkpt lat="45.47687" lon="6.52754">
        <ele>502.8</ele>
        <time>2021-05-28T12:49:04Z</time>
      </trkpt>
      <trkpt lat="45.47695" lon="6.52754">
        <ele>502.8</ele>
        <time>2021-05-28T12:49:05Z</time>
      </trkpt>
      <trkpt lat="45.47702" lon="6.52754">
        <ele>502.8</ele>
        <time>2021-05-28T12:49:06Z</time>
      </trkpt>
      <trkpt lat="45.4771" lon="6.52754">
        <ele>502.8</ele>
        <time>2021-05-28T12:49:07Z</time>
      </trkpt>
      <trkpt lat="45.47718" lon="6.52755">
        <ele>503</ele>
        <time>2021-05-28T12:49:08Z</time>
      </trkpt>
      <trkpt lat="45.47727" lon="6.52757">
        <ele>503</ele>
        <time>2021-05-28T12:49:09Z</time>
      </trkpt>
      <trkpt lat="45.47736" lon="6.5276">
        <ele>503</ele>
        <time>2021-05-28T12:49:10Z</time>
      </trkpt>
      <trkpt lat="45.47743" lon="6.52762">
        <ele>503</ele>
        <time>2021-05-28T12:49:11Z</time>
      </trkpt>
      <trkpt lat="45.47751" lon="6.52763">
        <ele>502.8</ele>
        <time>2021-05-28T12:49:12Z</time>
      </trkpt>
      <trkpt lat="45.47759" lon="6.52765">
        <ele>502.6</ele>
        <time>2021-05-28T12:49:13Z</time>
      </trkpt>
      <trkpt lat="45.47768" lon="6.52768">
        <ele>502</ele>
        <time>2021-05-28T12:49:14Z</time>
      </trkpt>
      <trkpt lat="45.47776" lon="6.5277">
        <ele>501.6</ele>
        <time>2021-05-28T12:49:15Z</time>
      </trkpt>
      <trkpt lat="45.47785" lon="6.52773">
        <ele>501.2</ele>
        <time>2021-05-28T12:49:16Z</time>
      </trkpt>
      <trkpt lat="45.47793" lon="6.52775">
        <ele>501.4</ele>
        <time>2021-05-28T12:49:17Z</time>
      </trkpt>
      <trkpt lat="45.47801" lon="6.52778">
        <ele>501.2</ele>
        <time>2021-05-28T12:49:18Z</time>
      </trkpt>
      <trkpt lat="45.47809" lon="6.5278">
        <ele>501</ele>
        <time>2021-05-28T12:49:19Z</time>
      </trkpt>
      <trkpt lat="45.47817" lon="6.52782">
        <ele>501</ele>
        <time>2021-05-28T12:49:20Z</time>
      </trkpt>
      <trkpt lat="45.47825" lon="6.52784">
        <ele>501</ele>
        <time>2021-05-28T12:49:21Z</time>
      </trkpt>
      <trkpt lat="45.47833" lon="6.52787">
        <ele>501.4</ele>
        <time>2021-05-28T12:49:22Z</time>
      </trkpt>
      <trkpt lat="45.47841" lon="6.52789">
        <ele>501.4</ele>
        <time>2021-05-28T12:49:23Z</time>
      </trkpt>
      <trkpt lat="45.47849" lon="6.52791">
        <ele>500.6</ele>
        <time>2021-05-28T12:49:24Z</time>
      </trkpt>
      <trkpt lat="45.47858" lon="6.52793">
        <ele>499.8</ele>
        <time>2021-05-28T12:49:25Z</time>
      </trkpt>
      <trkpt lat="45.47866" lon="6.52795">
        <ele>499</ele>
        <time>2021-05-28T12:49:26Z</time>
      </trkpt>
      <trkpt lat="45.47874" lon="6.52797">
        <ele>498.2</ele>
        <time>2021-05-28T12:49:27Z</time>
      </trkpt>
      <trkpt lat="45.47881" lon="6.528">
        <ele>497.6</ele>
        <time>2021-05-28T12:49:28Z</time>
      </trkpt>
      <trkpt lat="45.47889" lon="6.52801">
        <ele>497.2</ele>
        <time>2021-05-28T12:49:29Z</time>
      </trkpt>
      <trkpt lat="45.47897" lon="6.52804">
        <ele>497</ele>
        <time>2021-05-28T12:49:30Z</time>
      </trkpt>
      <trkpt lat="45.47906" lon="6.52806">
        <ele>496.2</ele>
        <time>2021-05-28T12:49:31Z</time>
      </trkpt>
      <trkpt lat="45.47913" lon="6.52808">
        <ele>496.6</ele>
        <time>2021-05-28T12:49:32Z</time>
      </trkpt>
      <trkpt lat="45.4792" lon="6.5281">
        <ele>497.4</ele>
        <time>2021-05-28T12:49:33Z</time>
      </trkpt>
      <trkpt lat="45.47928" lon="6.52812">
        <ele>497.8</ele>
        <time>2021-05-28T12:49:34Z</time>
      </trkpt>
      <trkpt lat="45.47936" lon="6.52815">
        <ele>497.8</ele>
        <time>2021-05-28T12:49:35Z</time>
      </trkpt>
      <trkpt lat="45.47944" lon="6.52817">
        <ele>498</ele>
        <time>2021-05-28T12:49:36Z</time>
      </trkpt>
      <trkpt lat="45.47952" lon="6.5282">
        <ele>497.8</ele>
        <time>2021-05-28T12:49:37Z</time>
      </trkpt>
      <trkpt lat="45.4796" lon="6.52823">
        <ele>497.6</ele>
        <time>2021-05-28T12:49:38Z</time>
      </trkpt>
      <trkpt lat="45.47969" lon="6.52826">
        <ele>498</ele>
        <time>2021-05-28T12:49:39Z</time>
      </trkpt>
      <trkpt lat="45.47977" lon="6.5283">
        <ele>497.6</ele>
        <time>2021-05-28T12:49:40Z</time>
      </trkpt>
      <trkpt lat="45.47985" lon="6.52833">
        <ele>497.4</ele>
        <time>2021-05-28T12:49:41Z</time>
      </trkpt>
      <trkpt lat="45.47993" lon="6.52837">
        <ele>497.2</ele>
        <time>2021-05-28T12:49:42Z</time>
      </trkpt>
      <trkpt lat="45.48002" lon="6.5284">
        <ele>497.2</ele>
        <time>2021-05-28T12:49:43Z</time>
      </trkpt>
      <trkpt lat="45.4801" lon="6.52843">
        <ele>497</ele>
        <time>2021-05-28T12:49:44Z</time>
      </trkpt>
      <trkpt lat="45.48018" lon="6.52845">
        <ele>496.6</ele>
        <time>2021-05-28T12:49:45Z</time>
      </trkpt>
      <trkpt lat="45.48026" lon="6.52848">
        <ele>496.2</ele>
        <time>2021-05-28T12:49:46Z</time>
      </trkpt>
      <trkpt lat="45.48034" lon="6.5285">
        <ele>496</ele>
        <time>2021-05-28T12:49:47Z</time>
      </trkpt>
      <trkpt lat="45.48043" lon="6.52853">
        <ele>495.6</ele>
        <time>2021-05-28T12:49:48Z</time>
      </trkpt>
      <trkpt lat="45.48051" lon="6.52856">
        <ele>495.4</ele>
        <time>2021-05-28T12:49:49Z</time>
      </trkpt>
      <trkpt lat="45.48058" lon="6.52858">
        <ele>495</ele>
        <time>2021-05-28T12:49:50Z</time>
      </trkpt>
      <trkpt lat="45.48065" lon="6.5286">
        <ele>494.4</ele>
        <time>2021-05-28T12:49:51Z</time>
      </trkpt>
      <trkpt lat="45.48072" lon="6.52862">
        <ele>494.2</ele>
        <time>2021-05-28T12:49:52Z</time>
      </trkpt>
      <trkpt lat="45.48078" lon="6.52865">
        <ele>494</ele>
        <time>2021-05-28T12:49:53Z</time>
      </trkpt>
      <trkpt lat="45.48085" lon="6.52867">
        <ele>494</ele>
        <time>2021-05-28T12:49:54Z</time>
      </trkpt>
      <trkpt lat="45.48092" lon="6.52868">
        <ele>493.8</ele>
        <time>2021-05-28T12:49:55Z</time>
      </trkpt>
      <trkpt lat="45.48097" lon="6.5287">
        <ele>493.6</ele>
        <time>2021-05-28T12:49:56Z</time>
      </trkpt>
      <trkpt lat="45.48103" lon="6.52873">
        <ele>493.2</ele>
        <time>2021-05-28T12:49:57Z</time>
      </trkpt>
      <trkpt lat="45.48108" lon="6.52877">
        <ele>493</ele>
        <time>2021-05-28T12:49:58Z</time>
      </trkpt>
      <trkpt lat="45.48113" lon="6.52882">
        <ele>493</ele>
        <time>2021-05-28T12:49:59Z</time>
      </trkpt>
      <trkpt lat="45.48117" lon="6.52887">
        <ele>493</ele>
        <time>2021-05-28T12:50:00Z</time>
      </trkpt>
      <trkpt lat="45.48121" lon="6.52893">
        <ele>493.4</ele>
        <time>2021-05-28T12:50:01Z</time>
      </trkpt>
      <trkpt lat="45.48126" lon="6.52898">
        <ele>493.4</ele>
        <time>2021-05-28T12:50:02Z</time>
      </trkpt>
      <trkpt lat="45.48131" lon="6.52903">
        <ele>493.8</ele>
        <time>2021-05-28T12:50:03Z</time>
      </trkpt>
      <trkpt lat="45.48137" lon="6.52911">
        <ele>494</ele>
        <time>2021-05-28T12:50:04Z</time>
      </trkpt>
      <trkpt lat="45.48141" lon="6.52919">
        <ele>493.8</ele>
        <time>2021-05-28T12:50:05Z</time>
      </trkpt>
      <trkpt lat="45.48144" lon="6.52928">
        <ele>493.8</ele>
        <time>2021-05-28T12:50:06Z</time>
      </trkpt>
      <trkpt lat="45.48147" lon="6.52937">
        <ele>494</ele>
        <time>2021-05-28T12:50:07Z</time>
      </trkpt>
      <trkpt lat="45.4815" lon="6.52946">
        <ele>494</ele>
        <time>2021-05-28T12:50:08Z</time>
      </trkpt>
      <trkpt lat="45.48154" lon="6.52954">
        <ele>493.8</ele>
        <time>2021-05-28T12:50:09Z</time>
      </trkpt>
      <trkpt lat="45.48157" lon="6.52963">
        <ele>494.2</ele>
        <time>2021-05-28T12:50:10Z</time>
      </trkpt>
      <trkpt lat="45.4816" lon="6.52971">
        <ele>493.6</ele>
        <time>2021-05-28T12:50:11Z</time>
      </trkpt>
      <trkpt lat="45.48164" lon="6.52978">
        <ele>493.4</ele>
        <time>2021-05-28T12:50:12Z</time>
      </trkpt>
      <trkpt lat="45.48167" lon="6.52986">
        <ele>493.2</ele>
        <time>2021-05-28T12:50:13Z</time>
      </trkpt>
      <trkpt lat="45.4817" lon="6.52994">
        <ele>493.4</ele>
        <time>2021-05-28T12:50:14Z</time>
      </trkpt>
      <trkpt lat="45.48173" lon="6.53002">
        <ele>493.4</ele>
        <time>2021-05-28T12:50:15Z</time>
      </trkpt>
      <trkpt lat="45.48176" lon="6.5301">
        <ele>493.6</ele>
        <time>2021-05-28T12:50:16Z</time>
      </trkpt>
      <trkpt lat="45.48179" lon="6.53018">
        <ele>493.8</ele>
        <time>2021-05-28T12:50:17Z</time>
      </trkpt>
      <trkpt lat="45.48181" lon="6.53027">
        <ele>494</ele>
        <time>2021-05-28T12:50:18Z</time>
      </trkpt>
      <trkpt lat="45.48183" lon="6.53035">
        <ele>494.4</ele>
        <time>2021-05-28T12:50:19Z</time>
      </trkpt>
      <trkpt lat="45.48186" lon="6.53044">
        <ele>494.6</ele>
        <time>2021-05-28T12:50:20Z</time>
      </trkpt>
      <trkpt lat="45.48189" lon="6.53053">
        <ele>494.8</ele>
        <time>2021-05-28T12:50:21Z</time>
      </trkpt>
      <trkpt lat="45.48192" lon="6.53062">
        <ele>494.6</ele>
        <time>2021-05-28T12:50:22Z</time>
      </trkpt>
      <trkpt lat="45.48195" lon="6.53071">
        <ele>494.8</ele>
        <time>2021-05-28T12:50:23Z</time>
      </trkpt>
      <trkpt lat="45.48197" lon="6.53081">
        <ele>494.8</ele>
        <time>2021-05-28T12:50:24Z</time>
      </trkpt>
      <trkpt lat="45.48199" lon="6.53091">
        <ele>494.8</ele>
        <time>2021-05-28T12:50:25Z</time>
      </trkpt>
      <trkpt lat="45.48201" lon="6.53101">
        <ele>494.8</ele>
        <time>2021-05-28T12:50:26Z</time>
      </trkpt>
      <trkpt lat="45.48204" lon="6.53112">
        <ele>494.8</ele>
        <time>2021-05-28T12:50:27Z</time>
      </trkpt>
      <trkpt lat="45.48205" lon="6.53122">
        <ele>495</ele>
        <time>2021-05-28T12:50:28Z</time>
      </trkpt>
      <trkpt lat="45.48207" lon="6.53132">
        <ele>494.8</ele>
        <time>2021-05-28T12:50:29Z</time>
      </trkpt>
      <trkpt lat="45.48209" lon="6.53142">
        <ele>495.2</ele>
        <time>2021-05-28T12:50:30Z</time>
      </trkpt>
      <trkpt lat="45.4821" lon="6.53152">
        <ele>495.4</ele>
        <time>2021-05-28T12:50:31Z</time>
      </trkpt>
      <trkpt lat="45.48211" lon="6.53162">
        <ele>495.6</ele>
        <time>2021-05-28T12:50:32Z</time>
      </trkpt>
      <trkpt lat="45.48212" lon="6.53172">
        <ele>496.2</ele>
        <time>2021-05-28T12:50:33Z</time>
      </trkpt>
      <trkpt lat="45.48214" lon="6.53181">
        <ele>496.8</ele>
        <time>2021-05-28T12:50:34Z</time>
      </trkpt>
      <trkpt lat="45.48216" lon="6.5319">
        <ele>497.2</ele>
        <time>2021-05-28T12:50:35Z</time>
      </trkpt>
      <trkpt lat="45.48218" lon="6.53199">
        <ele>497.6</ele>
        <time>2021-05-28T12:50:36Z</time>
      </trkpt>
      <trkpt lat="45.4822" lon="6.53209">
        <ele>497.8</ele>
        <time>2021-05-28T12:50:37Z</time>
      </trkpt>
      <trkpt lat="45.48221" lon="6.53219">
        <ele>498.2</ele>
        <time>2021-05-28T12:50:38Z</time>
      </trkpt>
      <trkpt lat="45.48222" lon="6.53228">
        <ele>498.6</ele>
        <time>2021-05-28T12:50:39Z</time>
      </trkpt>
      <trkpt lat="45.48223" lon="6.53238">
        <ele>499</ele>
        <time>2021-05-28T12:50:40Z</time>
      </trkpt>
      <trkpt lat="45.48225" lon="6.53248">
        <ele>499.2</ele>
        <time>2021-05-28T12:50:41Z</time>
      </trkpt>
      <trkpt lat="45.48227" lon="6.53259">
        <ele>499.6</ele>
        <time>2021-05-28T12:50:42Z</time>
      </trkpt>
      <trkpt lat="45.48229" lon="6.53269">
        <ele>500</ele>
        <time>2021-05-28T12:50:43Z</time>
      </trkpt>
      <trkpt lat="45.48231" lon="6.5328">
        <ele>500</ele>
        <time>2021-05-28T12:50:44Z</time>
      </trkpt>
      <trkpt lat="45.48233" lon="6.53291">
        <ele>500.2</ele>
        <time>2021-05-28T12:50:45Z</time>
      </trkpt>
      <trkpt lat="45.48234" lon="6.53302">
        <ele>500.2</ele>
        <time>2021-05-28T12:50:46Z</time>
      </trkpt>
      <trkpt lat="45.48236" lon="6.53314">
        <ele>500</ele>
        <time>2021-05-28T12:50:47Z</time>
      </trkpt>
      <trkpt lat="45.48238" lon="6.53325">
        <ele>500.2</ele>
        <time>2021-05-28T12:50:48Z</time>
      </trkpt>
      <trkpt lat="45.4824" lon="6.53337">
        <ele>500.2</ele>
        <time>2021-05-28T12:50:49Z</time>
      </trkpt>
      <trkpt lat="45.48242" lon="6.53349">
        <ele>500.4</ele>
        <time>2021-05-28T12:50:50Z</time>
      </trkpt>
      <trkpt lat="45.48244" lon="6.53362">
        <ele>501</ele>
        <time>2021-05-28T12:50:51Z</time>
      </trkpt>
      <trkpt lat="45.48245" lon="6.53374">
        <ele>501.2</ele>
        <time>2021-05-28T12:50:52Z</time>
      </trkpt>
      <trkpt lat="45.48247" lon="6.53386">
        <ele>501.4</ele>
        <time>2021-05-28T12:50:53Z</time>
      </trkpt>
      <trkpt lat="45.48249" lon="6.53399">
        <ele>501.2</ele>
        <time>2021-05-28T12:50:54Z</time>
      </trkpt>
      <trkpt lat="45.48251" lon="6.53412">
        <ele>501.6</ele>
        <time>2021-05-28T12:50:55Z</time>
      </trkpt>
      <trkpt lat="45.48252" lon="6.53425">
        <ele>501.4</ele>
        <time>2021-05-28T12:50:56Z</time>
      </trkpt>
      <trkpt lat="45.48254" lon="6.53437">
        <ele>501.4</ele>
        <time>2021-05-28T12:50:57Z</time>
      </trkpt>
      <trkpt lat="45.48256" lon="6.5345">
        <ele>501.4</ele>
        <time>2021-05-28T12:50:58Z</time>
      </trkpt>
      <trkpt lat="45.48257" lon="6.53463">
        <ele>501.6</ele>
        <time>2021-05-28T12:50:59Z</time>
      </trkpt>
      <trkpt lat="45.48259" lon="6.53477">
        <ele>502</ele>
        <time>2021-05-28T12:51:00Z</time>
      </trkpt>
      <trkpt lat="45.4826" lon="6.53489">
        <ele>501.6</ele>
        <time>2021-05-28T12:51:01Z</time>
      </trkpt>
      <trkpt lat="45.48262" lon="6.53503">
        <ele>501.4</ele>
        <time>2021-05-28T12:51:02Z</time>
      </trkpt>
      <trkpt lat="45.48263" lon="6.53516">
        <ele>501.2</ele>
        <time>2021-05-28T12:51:03Z</time>
      </trkpt>
      <trkpt lat="45.48264" lon="6.53528">
        <ele>501</ele>
        <time>2021-05-28T12:51:04Z</time>
      </trkpt>
      <trkpt lat="45.48266" lon="6.53541">
        <ele>500.6</ele>
        <time>2021-05-28T12:51:05Z</time>
      </trkpt>
      <trkpt lat="45.48267" lon="6.53554">
        <ele>500.6</ele>
        <time>2021-05-28T12:51:06Z</time>
      </trkpt>
      <trkpt lat="45.48268" lon="6.53566">
        <ele>500.4</ele>
        <time>2021-05-28T12:51:07Z</time>
      </trkpt>
      <trkpt lat="45.4827" lon="6.53578">
        <ele>500</ele>
        <time>2021-05-28T12:51:08Z</time>
      </trkpt>
      <trkpt lat="45.48271" lon="6.5359">
        <ele>499.8</ele>
        <time>2021-05-28T12:51:09Z</time>
      </trkpt>
      <trkpt lat="45.48273" lon="6.53602">
        <ele>499.8</ele>
        <time>2021-05-28T12:51:10Z</time>
      </trkpt>
      <trkpt lat="45.48274" lon="6.53613">
        <ele>499.8</ele>
        <time>2021-05-28T12:51:11Z</time>
      </trkpt>
      <trkpt lat="45.48276" lon="6.53623">
        <ele>500</ele>
        <time>2021-05-28T12:51:12Z</time>
      </trkpt>
      <trkpt lat="45.48278" lon="6.53633">
        <ele>500.2</ele>
        <time>2021-05-28T12:51:13Z</time>
      </trkpt>
      <trkpt lat="45.48281" lon="6.53644">
        <ele>500.6</ele>
        <time>2021-05-28T12:51:14Z</time>
      </trkpt>
      <trkpt lat="45.48283" lon="6.53654">
        <ele>500.8</ele>
        <time>2021-05-28T12:51:15Z</time>
      </trkpt>
      <trkpt lat="45.48285" lon="6.53663">
        <ele>501.2</ele>
        <time>2021-05-28T12:51:16Z</time>
      </trkpt>
      <trkpt lat="45.48288" lon="6.53673">
        <ele>501.4</ele>
        <time>2021-05-28T12:51:17Z</time>
      </trkpt>
      <trkpt lat="45.48291" lon="6.53683">
        <ele>501.4</ele>
        <time>2021-05-28T12:51:18Z</time>
      </trkpt>
      <trkpt lat="45.48294" lon="6.53692">
        <ele>501</ele>
        <time>2021-05-28T12:51:19Z</time>
      </trkpt>
      <trkpt lat="45.48299" lon="6.53701">
        <ele>501</ele>
        <time>2021-05-28T12:51:20Z</time>
      </trkpt>
      <trkpt lat="45.48303" lon="6.5371">
        <ele>501.2</ele>
        <time>2021-05-28T12:51:21Z</time>
      </trkpt>
      <trkpt lat="45.48307" lon="6.53719">
        <ele>501.4</ele>
        <time>2021-05-28T12:51:22Z</time>
      </trkpt>
      <trkpt lat="45.48312" lon="6.53727">
        <ele>501.8</ele>
        <time>2021-05-28T12:51:23Z</time>
      </trkpt>
      <trkpt lat="45.48316" lon="6.53734">
        <ele>502</ele>
        <time>2021-05-28T12:51:24Z</time>
      </trkpt>
      <trkpt lat="45.48322" lon="6.53742">
        <ele>502.4</ele>
        <time>2021-05-28T12:51:25Z</time>
      </trkpt>
      <trkpt lat="45.48326" lon="6.53749">
        <ele>502.8</ele>
        <time>2021-05-28T12:51:26Z</time>
      </trkpt>
      <trkpt lat="45.48332" lon="6.53757">
        <ele>502.6</ele>
        <time>2021-05-28T12:51:27Z</time>
      </trkpt>
      <trkpt lat="45.48337" lon="6.53765">
        <ele>502.4</ele>
        <time>2021-05-28T12:51:28Z</time>
      </trkpt>
      <trkpt lat="45.48342" lon="6.53772">
        <ele>501.8</ele>
        <time>2021-05-28T12:51:29Z</time>
      </trkpt>
      <trkpt lat="45.48348" lon="6.5378">
        <ele>501.6</ele>
        <time>2021-05-28T12:51:30Z</time>
      </trkpt>
      <trkpt lat="45.48354" lon="6.53788">
        <ele>501.4</ele>
        <time>2021-05-28T12:51:31Z</time>
      </trkpt>
      <trkpt lat="45.4836" lon="6.53795">
        <ele>501.2</ele>
        <time>2021-05-28T12:51:32Z</time>
      </trkpt>
      <trkpt lat="45.48366" lon="6.53803">
        <ele>501.2</ele>
        <time>2021-05-28T12:51:33Z</time>
      </trkpt>
      <trkpt lat="45.48373" lon="6.5381">
        <ele>500.8</ele>
        <time>2021-05-28T12:51:34Z</time>
      </trkpt>
      <trkpt lat="45.4838" lon="6.53818">
        <ele>501</ele>
        <time>2021-05-28T12:51:35Z</time>
      </trkpt>
      <trkpt lat="45.48386" lon="6.53826">
        <ele>501</ele>
        <time>2021-05-28T12:51:36Z</time>
      </trkpt>
      <trkpt lat="45.48392" lon="6.53834">
        <ele>501</ele>
        <time>2021-05-28T12:51:37Z</time>
      </trkpt>
      <trkpt lat="45.48399" lon="6.53843">
        <ele>500.6</ele>
        <time>2021-05-28T12:51:38Z</time>
      </trkpt>
      <trkpt lat="45.48406" lon="6.53851">
        <ele>500.6</ele>
        <time>2021-05-28T12:51:39Z</time>
      </trkpt>
      <trkpt lat="45.48412" lon="6.5386">
        <ele>500.4</ele>
        <time>2021-05-28T12:51:40Z</time>
      </trkpt>
      <trkpt lat="45.48419" lon="6.53869">
        <ele>500.2</ele>
        <time>2021-05-28T12:51:41Z</time>
      </trkpt>
      <trkpt lat="45.48426" lon="6.53877">
        <ele>500</ele>
        <time>2021-05-28T12:51:42Z</time>
      </trkpt>
      <trkpt lat="45.48432" lon="6.53886">
        <ele>499.6</ele>
        <time>2021-05-28T12:51:43Z</time>
      </trkpt>
      <trkpt lat="45.48439" lon="6.53896">
        <ele>499.4</ele>
        <time>2021-05-28T12:51:44Z</time>
      </trkpt>
      <trkpt lat="45.48445" lon="6.53906">
        <ele>499.4</ele>
        <time>2021-05-28T12:51:45Z</time>
      </trkpt>
      <trkpt lat="45.48451" lon="6.53917">
        <ele>499.2</ele>
        <time>2021-05-28T12:51:46Z</time>
      </trkpt>
      <trkpt lat="45.48455" lon="6.53928">
        <ele>499</ele>
        <time>2021-05-28T12:51:47Z</time>
      </trkpt>
      <trkpt lat="45.4846" lon="6.53939">
        <ele>499</ele>
        <time>2021-05-28T12:51:48Z</time>
      </trkpt>
      <trkpt lat="45.48463" lon="6.53952">
        <ele>498.8</ele>
        <time>2021-05-28T12:51:49Z</time>
      </trkpt>
      <trkpt lat="45.48467" lon="6.53964">
        <ele>499</ele>
        <time>2021-05-28T12:51:50Z</time>
      </trkpt>
      <trkpt lat="45.48469" lon="6.53976">
        <ele>499.6</ele>
        <time>2021-05-28T12:51:51Z</time>
      </trkpt>
      <trkpt lat="45.48471" lon="6.53988">
        <ele>499.4</ele>
        <time>2021-05-28T12:51:52Z</time>
      </trkpt>
      <trkpt lat="45.48473" lon="6.54001">
        <ele>499.4</ele>
        <time>2021-05-28T12:51:53Z</time>
      </trkpt>
      <trkpt lat="45.48473" lon="6.54013">
        <ele>499.6</ele>
        <time>2021-05-28T12:51:54Z</time>
      </trkpt>
      <trkpt lat="45.48474" lon="6.54025">
        <ele>499.6</ele>
        <time>2021-05-28T12:51:55Z</time>
      </trkpt>
      <trkpt lat="45.48474" lon="6.54037">
        <ele>499.6</ele>
        <time>2021-05-28T12:51:56Z</time>
      </trkpt>
      <trkpt lat="45.48473" lon="6.54048">
        <ele>499.6</ele>
        <time>2021-05-28T12:51:57Z</time>
      </trkpt>
      <trkpt lat="45.48473" lon="6.5406">
        <ele>499.6</ele>
        <time>2021-05-28T12:51:58Z</time>
      </trkpt>
      <trkpt lat="45.48472" lon="6.54071">
        <ele>499.6</ele>
        <time>2021-05-28T12:51:59Z</time>
      </trkpt>
      <trkpt lat="45.48471" lon="6.54082">
        <ele>499.8</ele>
        <time>2021-05-28T12:52:00Z</time>
      </trkpt>
      <trkpt lat="45.48469" lon="6.54093">
        <ele>499.8</ele>
        <time>2021-05-28T12:52:01Z</time>
      </trkpt>
      <trkpt lat="45.48468" lon="6.54103">
        <ele>500.4</ele>
        <time>2021-05-28T12:52:02Z</time>
      </trkpt>
      <trkpt lat="45.48468" lon="6.54113">
        <ele>500.4</ele>
        <time>2021-05-28T12:52:03Z</time>
      </trkpt>
      <trkpt lat="45.48467" lon="6.54123">
        <ele>500.8</ele>
        <time>2021-05-28T12:52:04Z</time>
      </trkpt>
      <trkpt lat="45.48466" lon="6.54133">
        <ele>500.8</ele>
        <time>2021-05-28T12:52:05Z</time>
      </trkpt>
      <trkpt lat="45.48465" lon="6.54143">
        <ele>500.8</ele>
        <time>2021-05-28T12:52:06Z</time>
      </trkpt>
      <trkpt lat="45.48464" lon="6.54153">
        <ele>500.6</ele>
        <time>2021-05-28T12:52:07Z</time>
      </trkpt>
      <trkpt lat="45.48464" lon="6.54163">
        <ele>500.6</ele>
        <time>2021-05-28T12:52:08Z</time>
      </trkpt>
      <trkpt lat="45.48464" lon="6.54174">
        <ele>500.8</ele>
        <time>2021-05-28T12:52:09Z</time>
      </trkpt>
      <trkpt lat="45.48465" lon="6.54184">
        <ele>501</ele>
        <time>2021-05-28T12:52:10Z</time>
      </trkpt>
      <trkpt lat="45.48465" lon="6.54193">
        <ele>501.4</ele>
        <time>2021-05-28T12:52:11Z</time>
      </trkpt>
      <trkpt lat="45.48466" lon="6.54203">
        <ele>501.6</ele>
        <time>2021-05-28T12:52:12Z</time>
      </trkpt>
      <trkpt lat="45.48467" lon="6.54213">
        <ele>501.6</ele>
        <time>2021-05-28T12:52:13Z</time>
      </trkpt>
      <trkpt lat="45.48469" lon="6.54223">
        <ele>501.6</ele>
        <time>2021-05-28T12:52:14Z</time>
      </trkpt>
      <trkpt lat="45.48471" lon="6.54233">
        <ele>502</ele>
        <time>2021-05-28T12:52:15Z</time>
      </trkpt>
      <trkpt lat="45.48473" lon="6.54243">
        <ele>502</ele>
        <time>2021-05-28T12:52:16Z</time>
      </trkpt>
      <trkpt lat="45.48474" lon="6.54252">
        <ele>502.2</ele>
        <time>2021-05-28T12:52:17Z</time>
      </trkpt>
      <trkpt lat="45.48476" lon="6.54262">
        <ele>502.2</ele>
        <time>2021-05-28T12:52:18Z</time>
      </trkpt>
      <trkpt lat="45.48476" lon="6.54271">
        <ele>502</ele>
        <time>2021-05-28T12:52:19Z</time>
      </trkpt>
      <trkpt lat="45.48479" lon="6.54281">
        <ele>501.8</ele>
        <time>2021-05-28T12:52:20Z</time>
      </trkpt>
      <trkpt lat="45.48483" lon="6.54289">
        <ele>501.8</ele>
        <time>2021-05-28T12:52:21Z</time>
      </trkpt>
      <trkpt lat="45.48487" lon="6.54298">
        <ele>501.8</ele>
        <time>2021-05-28T12:52:22Z</time>
      </trkpt>
      <trkpt lat="45.48491" lon="6.54307">
        <ele>502</ele>
        <time>2021-05-28T12:52:23Z</time>
      </trkpt>
      <trkpt lat="45.48494" lon="6.54317">
        <ele>501.8</ele>
        <time>2021-05-28T12:52:24Z</time>
      </trkpt>
      <trkpt lat="45.48497" lon="6.54326">
        <ele>501.6</ele>
        <time>2021-05-28T12:52:25Z</time>
      </trkpt>
      <trkpt lat="45.48501" lon="6.54335">
        <ele>501.8</ele>
        <time>2021-05-28T12:52:26Z</time>
      </trkpt>
      <trkpt lat="45.48505" lon="6.54344">
        <ele>501.8</ele>
        <time>2021-05-28T12:52:27Z</time>
      </trkpt>
      <trkpt lat="45.48509" lon="6.54352">
        <ele>501.8</ele>
        <time>2021-05-28T12:52:28Z</time>
      </trkpt>
      <trkpt lat="45.48515" lon="6.5436">
        <ele>502</ele>
        <time>2021-05-28T12:52:29Z</time>
      </trkpt>
      <trkpt lat="45.48519" lon="6.54369">
        <ele>501.8</ele>
        <time>2021-05-28T12:52:30Z</time>
      </trkpt>
      <trkpt lat="45.48524" lon="6.54377">
        <ele>501.8</ele>
        <time>2021-05-28T12:52:31Z</time>
      </trkpt>
      <trkpt lat="45.4853" lon="6.54385">
        <ele>502.6</ele>
        <time>2021-05-28T12:52:32Z</time>
      </trkpt>
      <trkpt lat="45.48535" lon="6.54393">
        <ele>503</ele>
        <time>2021-05-28T12:52:33Z</time>
      </trkpt>
      <trkpt lat="45.4854" lon="6.54401">
        <ele>503</ele>
        <time>2021-05-28T12:52:34Z</time>
      </trkpt>
      <trkpt lat="45.48546" lon="6.54409">
        <ele>503.2</ele>
        <time>2021-05-28T12:52:35Z</time>
      </trkpt>
      <trkpt lat="45.48552" lon="6.54417">
        <ele>503.2</ele>
        <time>2021-05-28T12:52:36Z</time>
      </trkpt>
      <trkpt lat="45.48558" lon="6.54424">
        <ele>503.4</ele>
        <time>2021-05-28T12:52:37Z</time>
      </trkpt>
      <trkpt lat="45.48564" lon="6.54432">
        <ele>503.6</ele>
        <time>2021-05-28T12:52:38Z</time>
      </trkpt>
      <trkpt lat="45.4857" lon="6.54439">
        <ele>503.6</ele>
        <time>2021-05-28T12:52:39Z</time>
      </trkpt>
      <trkpt lat="45.48576" lon="6.54446">
        <ele>503.8</ele>
        <time>2021-05-28T12:52:40Z</time>
      </trkpt>
      <trkpt lat="45.48581" lon="6.54453">
        <ele>504.2</ele>
        <time>2021-05-28T12:52:41Z</time>
      </trkpt>
      <trkpt lat="45.48588" lon="6.54459">
        <ele>504.4</ele>
        <time>2021-05-28T12:52:42Z</time>
      </trkpt>
      <trkpt lat="45.48595" lon="6.54466">
        <ele>504.8</ele>
        <time>2021-05-28T12:52:43Z</time>
      </trkpt>
      <trkpt lat="45.48601" lon="6.54473">
        <ele>505</ele>
        <time>2021-05-28T12:52:44Z</time>
      </trkpt>
      <trkpt lat="45.48608" lon="6.54479">
        <ele>505.2</ele>
        <time>2021-05-28T12:52:45Z</time>
      </trkpt>
      <trkpt lat="45.48614" lon="6.54486">
        <ele>505.2</ele>
        <time>2021-05-28T12:52:46Z</time>
      </trkpt>
      <trkpt lat="45.4862" lon="6.54493">
        <ele>505.2</ele>
        <time>2021-05-28T12:52:47Z</time>
      </trkpt>
      <trkpt lat="45.48626" lon="6.545">
        <ele>506</ele>
        <time>2021-05-28T12:52:48Z</time>
      </trkpt>
      <trkpt lat="45.48633" lon="6.54506">
        <ele>505.8</ele>
        <time>2021-05-28T12:52:49Z</time>
      </trkpt>
      <trkpt lat="45.4864" lon="6.54513">
        <ele>505.6</ele>
        <time>2021-05-28T12:52:50Z</time>
      </trkpt>
      <trkpt lat="45.48647" lon="6.5452">
        <ele>505.6</ele>
        <time>2021-05-28T12:52:51Z</time>
      </trkpt>
      <trkpt lat="45.48654" lon="6.54526">
        <ele>505.6</ele>
        <time>2021-05-28T12:52:52Z</time>
      </trkpt>
      <trkpt lat="45.48662" lon="6.54532">
        <ele>505.6</ele>
        <time>2021-05-28T12:52:53Z</time>
      </trkpt>
      <trkpt lat="45.48668" lon="6.54538">
        <ele>506</ele>
        <time>2021-05-28T12:52:54Z</time>
      </trkpt>
      <trkpt lat="45.48674" lon="6.54545">
        <ele>506</ele>
        <time>2021-05-28T12:52:55Z</time>
      </trkpt>
      <trkpt lat="45.48681" lon="6.54551">
        <ele>506</ele>
        <time>2021-05-28T12:52:56Z</time>
      </trkpt>
      <trkpt lat="45.48688" lon="6.54558">
        <ele>506.2</ele>
        <time>2021-05-28T12:52:57Z</time>
      </trkpt>
      <trkpt lat="45.48695" lon="6.54564">
        <ele>506.2</ele>
        <time>2021-05-28T12:52:58Z</time>
      </trkpt>
      <trkpt lat="45.48703" lon="6.5457">
        <ele>506.2</ele>
        <time>2021-05-28T12:52:59Z</time>
      </trkpt>
      <trkpt lat="45.4871" lon="6.54576">
        <ele>506</ele>
        <time>2021-05-28T12:53:00Z</time>
      </trkpt>
      <trkpt lat="45.48717" lon="6.54583">
        <ele>506</ele>
        <time>2021-05-28T12:53:01Z</time>
      </trkpt>
      <trkpt lat="45.48724" lon="6.5459">
        <ele>506.2</ele>
        <time>2021-05-28T12:53:02Z</time>
      </trkpt>
      <trkpt lat="45.48732" lon="6.54596">
        <ele>506.2</ele>
        <time>2021-05-28T12:53:03Z</time>
      </trkpt>
      <trkpt lat="45.48739" lon="6.54603">
        <ele>506.2</ele>
        <time>2021-05-28T12:53:04Z</time>
      </trkpt>
      <trkpt lat="45.48746" lon="6.5461">
        <ele>506</ele>
        <time>2021-05-28T12:53:05Z</time>
      </trkpt>
      <trkpt lat="45.48753" lon="6.54618">
        <ele>506.4</ele>
        <time>2021-05-28T12:53:06Z</time>
      </trkpt>
      <trkpt lat="45.4876" lon="6.54625">
        <ele>506.4</ele>
        <time>2021-05-28T12:53:07Z</time>
      </trkpt>
      <trkpt lat="45.48767" lon="6.54633">
        <ele>506.2</ele>
        <time>2021-05-28T12:53:08Z</time>
      </trkpt>
      <trkpt lat="45.48774" lon="6.5464">
        <ele>506.2</ele>
        <time>2021-05-28T12:53:09Z</time>
      </trkpt>
      <trkpt lat="45.48781" lon="6.54648">
        <ele>506.2</ele>
        <time>2021-05-28T12:53:10Z</time>
      </trkpt>
      <trkpt lat="45.48788" lon="6.54656">
        <ele>506</ele>
        <time>2021-05-28T12:53:11Z</time>
      </trkpt>
      <trkpt lat="45.48795" lon="6.54664">
        <ele>506</ele>
        <time>2021-05-28T12:53:12Z</time>
      </trkpt>
      <trkpt lat="45.48802" lon="6.54671">
        <ele>505.6</ele>
        <time>2021-05-28T12:53:13Z</time>
      </trkpt>
      <trkpt lat="45.48809" lon="6.54679">
        <ele>505.6</ele>
        <time>2021-05-28T12:53:14Z</time>
      </trkpt>
      <trkpt lat="45.48817" lon="6.54688">
        <ele>505.8</ele>
        <time>2021-05-28T12:53:15Z</time>
      </trkpt>
      <trkpt lat="45.48824" lon="6.54696">
        <ele>505.6</ele>
        <time>2021-05-28T12:53:16Z</time>
      </trkpt>
      <trkpt lat="45.48831" lon="6.54704">
        <ele>505.8</ele>
        <time>2021-05-28T12:53:17Z</time>
      </trkpt>
      <trkpt lat="45.48838" lon="6.54712">
        <ele>505.8</ele>
        <time>2021-05-28T12:53:18Z</time>
      </trkpt>
      <trkpt lat="45.48846" lon="6.54721">
        <ele>505.8</ele>
        <time>2021-05-28T12:53:19Z</time>
      </trkpt>
      <trkpt lat="45.48852" lon="6.5473">
        <ele>505.6</ele>
        <time>2021-05-28T12:53:20Z</time>
      </trkpt>
      <trkpt lat="45.48859" lon="6.54739">
        <ele>505.6</ele>
        <time>2021-05-28T12:53:21Z</time>
      </trkpt>
      <trkpt lat="45.48866" lon="6.54747">
        <ele>505.4</ele>
        <time>2021-05-28T12:53:22Z</time>
      </trkpt>
      <trkpt lat="45.48873" lon="6.54756">
        <ele>505.2</ele>
        <time>2021-05-28T12:53:23Z</time>
      </trkpt>
      <trkpt lat="45.4888" lon="6.54765">
        <ele>504.8</ele>
        <time>2021-05-28T12:53:24Z</time>
      </trkpt>
      <trkpt lat="45.48886" lon="6.54774">
        <ele>505</ele>
        <time>2021-05-28T12:53:25Z</time>
      </trkpt>
      <trkpt lat="45.48892" lon="6.54783">
        <ele>505</ele>
        <time>2021-05-28T12:53:26Z</time>
      </trkpt>
      <trkpt lat="45.48898" lon="6.54792">
        <ele>505</ele>
        <time>2021-05-28T12:53:27Z</time>
      </trkpt>
      <trkpt lat="45.48904" lon="6.54801">
        <ele>505</ele>
        <time>2021-05-28T12:53:28Z</time>
      </trkpt>
      <trkpt lat="45.4891" lon="6.54809">
        <ele>505.2</ele>
        <time>2021-05-28T12:53:29Z</time>
      </trkpt>
      <trkpt lat="45.48918" lon="6.54817">
        <ele>505.4</ele>
        <time>2021-05-28T12:53:30Z</time>
      </trkpt>
      <trkpt lat="45.48924" lon="6.54824">
        <ele>505.6</ele>
        <time>2021-05-28T12:53:31Z</time>
      </trkpt>
      <trkpt lat="45.48931" lon="6.54831">
        <ele>505.8</ele>
        <time>2021-05-28T12:53:32Z</time>
      </trkpt>
      <trkpt lat="45.48937" lon="6.54839">
        <ele>505.8</ele>
        <time>2021-05-28T12:53:33Z</time>
      </trkpt>
      <trkpt lat="45.48943" lon="6.54846">
        <ele>506</ele>
        <time>2021-05-28T12:53:34Z</time>
      </trkpt>
      <trkpt lat="45.48948" lon="6.54854">
        <ele>506.2</ele>
        <time>2021-05-28T12:53:35Z</time>
      </trkpt>
      <trkpt lat="45.48954" lon="6.54862">
        <ele>506.2</ele>
        <time>2021-05-28T12:53:36Z</time>
      </trkpt>
      <trkpt lat="45.48959" lon="6.5487">
        <ele>506.2</ele>
        <time>2021-05-28T12:53:37Z</time>
      </trkpt>
      <trkpt lat="45.48964" lon="6.54877">
        <ele>506</ele>
        <time>2021-05-28T12:53:38Z</time>
      </trkpt>
      <trkpt lat="45.4897" lon="6.54884">
        <ele>506.2</ele>
        <time>2021-05-28T12:53:39Z</time>
      </trkpt>
      <trkpt lat="45.48976" lon="6.54892">
        <ele>506.2</ele>
        <time>2021-05-28T12:53:40Z</time>
      </trkpt>
      <trkpt lat="45.48981" lon="6.54899">
        <ele>506.2</ele>
        <time>2021-05-28T12:53:41Z</time>
      </trkpt>
      <trkpt lat="45.48987" lon="6.54907">
        <ele>506.6</ele>
        <time>2021-05-28T12:53:42Z</time>
      </trkpt>
      <trkpt lat="45.48992" lon="6.54914">
        <ele>506.8</ele>
        <time>2021-05-28T12:53:43Z</time>
      </trkpt>
      <trkpt lat="45.48997" lon="6.54921">
        <ele>506.8</ele>
        <time>2021-05-28T12:53:44Z</time>
      </trkpt>
      <trkpt lat="45.49003" lon="6.54929">
        <ele>507</ele>
        <time>2021-05-28T12:53:45Z</time>
      </trkpt>
      <trkpt lat="45.49009" lon="6.54936">
        <ele>507</ele>
        <time>2021-05-28T12:53:46Z</time>
      </trkpt>
      <trkpt lat="45.49014" lon="6.54944">
        <ele>507</ele>
        <time>2021-05-28T12:53:47Z</time>
      </trkpt>
      <trkpt lat="45.4902" lon="6.54951">
        <ele>507.4</ele>
        <time>2021-05-28T12:53:48Z</time>
      </trkpt>
      <trkpt lat="45.49027" lon="6.54958">
        <ele>507.6</ele>
        <time>2021-05-28T12:53:49Z</time>
      </trkpt>
      <trkpt lat="45.49033" lon="6.54966">
        <ele>507.6</ele>
        <time>2021-05-28T12:53:50Z</time>
      </trkpt>
      <trkpt lat="45.4904" lon="6.54973">
        <ele>507.8</ele>
        <time>2021-05-28T12:53:51Z</time>
      </trkpt>
      <trkpt lat="45.49046" lon="6.54981">
        <ele>507.8</ele>
        <time>2021-05-28T12:53:52Z</time>
      </trkpt>
      <trkpt lat="45.49053" lon="6.54988">
        <ele>507.8</ele>
        <time>2021-05-28T12:53:53Z</time>
      </trkpt>
      <trkpt lat="45.49059" lon="6.54995">
        <ele>508</ele>
        <time>2021-05-28T12:53:54Z</time>
      </trkpt>
      <trkpt lat="45.49067" lon="6.55002">
        <ele>508.2</ele>
        <time>2021-05-28T12:53:55Z</time>
      </trkpt>
      <trkpt lat="45.49075" lon="6.55009">
        <ele>508.2</ele>
        <time>2021-05-28T12:53:56Z</time>
      </trkpt>
      <trkpt lat="45.49082" lon="6.55016">
        <ele>508.4</ele>
        <time>2021-05-28T12:53:57Z</time>
      </trkpt>
      <trkpt lat="45.4909" lon="6.55022">
        <ele>508.8</ele>
        <time>2021-05-28T12:53:58Z</time>
      </trkpt>
      <trkpt lat="45.49098" lon="6.55028">
        <ele>508.8</ele>
        <time>2021-05-28T12:53:59Z</time>
      </trkpt>
      <trkpt lat="45.49106" lon="6.55034">
        <ele>508.8</ele>
        <time>2021-05-28T12:54:00Z</time>
      </trkpt>
      <trkpt lat="45.49114" lon="6.55039">
        <ele>508.8</ele>
        <time>2021-05-28T12:54:01Z</time>
      </trkpt>
      <trkpt lat="45.49123" lon="6.55044">
        <ele>509</ele>
        <time>2021-05-28T12:54:02Z</time>
      </trkpt>
      <trkpt lat="45.49132" lon="6.55049">
        <ele>509</ele>
        <time>2021-05-28T12:54:03Z</time>
      </trkpt>
      <trkpt lat="45.4914" lon="6.55053">
        <ele>508.8</ele>
        <time>2021-05-28T12:54:04Z</time>
      </trkpt>
      <trkpt lat="45.4915" lon="6.55058">
        <ele>508.8</ele>
        <time>2021-05-28T12:54:05Z</time>
      </trkpt>
      <trkpt lat="45.49159" lon="6.55062">
        <ele>508.6</ele>
        <time>2021-05-28T12:54:06Z</time>
      </trkpt>
      <trkpt lat="45.49168" lon="6.55067">
        <ele>508.2</ele>
        <time>2021-05-28T12:54:07Z</time>
      </trkpt>
      <trkpt lat="45.49177" lon="6.55072">
        <ele>508</ele>
        <time>2021-05-28T12:54:08Z</time>
      </trkpt>
      <trkpt lat="45.49186" lon="6.55077">
        <ele>507.8</ele>
        <time>2021-05-28T12:54:09Z</time>
      </trkpt>
      <trkpt lat="45.49196" lon="6.55082">
        <ele>507.4</ele>
        <time>2021-05-28T12:54:10Z</time>
      </trkpt>
      <trkpt lat="45.49206" lon="6.55087">
        <ele>507.4</ele>
        <time>2021-05-28T12:54:11Z</time>
      </trkpt>
      <trkpt lat="45.49216" lon="6.55093">
        <ele>507.2</ele>
        <time>2021-05-28T12:54:12Z</time>
      </trkpt>
      <trkpt lat="45.49226" lon="6.55099">
        <ele>507.2</ele>
        <time>2021-05-28T12:54:13Z</time>
      </trkpt>
      <trkpt lat="45.49237" lon="6.55105">
        <ele>507.2</ele>
        <time>2021-05-28T12:54:14Z</time>
      </trkpt>
      <trkpt lat="45.49247" lon="6.55112">
        <ele>507.2</ele>
        <time>2021-05-28T12:54:15Z</time>
      </trkpt>
      <trkpt lat="45.49257" lon="6.55118">
        <ele>506.4</ele>
        <time>2021-05-28T12:54:16Z</time>
      </trkpt>
      <trkpt lat="45.49267" lon="6.55125">
        <ele>506</ele>
        <time>2021-05-28T12:54:17Z</time>
      </trkpt>
      <trkpt lat="45.49275" lon="6.55133">
        <ele>505.4</ele>
        <time>2021-05-28T12:54:18Z</time>
      </trkpt>
      <trkpt lat="45.49284" lon="6.5514">
        <ele>505</ele>
        <time>2021-05-28T12:54:19Z</time>
      </trkpt>
      <trkpt lat="45.49293" lon="6.55148">
        <ele>504.6</ele>
        <time>2021-05-28T12:54:20Z</time>
      </trkpt>
      <trkpt lat="45.49303" lon="6.55156">
        <ele>504.6</ele>
        <time>2021-05-28T12:54:21Z</time>
      </trkpt>
      <trkpt lat="45.49311" lon="6.55164">
        <ele>504.8</ele>
        <time>2021-05-28T12:54:22Z</time>
      </trkpt>
      <trkpt lat="45.49319" lon="6.55172">
        <ele>505</ele>
        <time>2021-05-28T12:54:23Z</time>
      </trkpt>
      <trkpt lat="45.49328" lon="6.5518">
        <ele>504.8</ele>
        <time>2021-05-28T12:54:24Z</time>
      </trkpt>
      <trkpt lat="45.49336" lon="6.55188">
        <ele>504.8</ele>
        <time>2021-05-28T12:54:25Z</time>
      </trkpt>
      <trkpt lat="45.49344" lon="6.55196">
        <ele>504.8</ele>
        <time>2021-05-28T12:54:26Z</time>
      </trkpt>
      <trkpt lat="45.49352" lon="6.55203">
        <ele>504.8</ele>
        <time>2021-05-28T12:54:27Z</time>
      </trkpt>
      <trkpt lat="45.4936" lon="6.55211">
        <ele>504.8</ele>
        <time>2021-05-28T12:54:28Z</time>
      </trkpt>
      <trkpt lat="45.49369" lon="6.55219">
        <ele>504.8</ele>
        <time>2021-05-28T12:54:29Z</time>
      </trkpt>
      <trkpt lat="45.49377" lon="6.55226">
        <ele>505</ele>
        <time>2021-05-28T12:54:30Z</time>
      </trkpt>
      <trkpt lat="45.49385" lon="6.55234">
        <ele>505.4</ele>
        <time>2021-05-28T12:54:31Z</time>
      </trkpt>
      <trkpt lat="45.49393" lon="6.55241">
        <ele>505.8</ele>
        <time>2021-05-28T12:54:32Z</time>
      </trkpt>
      <trkpt lat="45.49401" lon="6.55249">
        <ele>506</ele>
        <time>2021-05-28T12:54:33Z</time>
      </trkpt>
      <trkpt lat="45.49408" lon="6.55256">
        <ele>506.4</ele>
        <time>2021-05-28T12:54:34Z</time>
      </trkpt>
      <trkpt lat="45.49416" lon="6.55264">
        <ele>506.6</ele>
        <time>2021-05-28T12:54:35Z</time>
      </trkpt>
      <trkpt lat="45.49424" lon="6.55271">
        <ele>506.6</ele>
        <time>2021-05-28T12:54:36Z</time>
      </trkpt>
      <trkpt lat="45.49432" lon="6.55278">
        <ele>507</ele>
        <time>2021-05-28T12:54:37Z</time>
      </trkpt>
      <trkpt lat="45.49439" lon="6.55286">
        <ele>507.2</ele>
        <time>2021-05-28T12:54:38Z</time>
      </trkpt>
      <trkpt lat="45.49446" lon="6.55292">
        <ele>507.4</ele>
        <time>2021-05-28T12:54:39Z</time>
      </trkpt>
      <trkpt lat="45.49454" lon="6.55299">
        <ele>507.8</ele>
        <time>2021-05-28T12:54:40Z</time>
      </trkpt>
      <trkpt lat="45.49462" lon="6.55306">
        <ele>508</ele>
        <time>2021-05-28T12:54:41Z</time>
      </trkpt>
      <trkpt lat="45.4947" lon="6.55313">
        <ele>508</ele>
        <time>2021-05-28T12:54:42Z</time>
      </trkpt>
      <trkpt lat="45.49477" lon="6.5532">
        <ele>508.2</ele>
        <time>2021-05-28T12:54:43Z</time>
      </trkpt>
      <trkpt lat="45.49484" lon="6.55327">
        <ele>508.4</ele>
        <time>2021-05-28T12:54:44Z</time>
      </trkpt>
      <trkpt lat="45.49491" lon="6.55334">
        <ele>508.6</ele>
        <time>2021-05-28T12:54:45Z</time>
      </trkpt>
      <trkpt lat="45.49497" lon="6.55341">
        <ele>508.8</ele>
        <time>2021-05-28T12:54:46Z</time>
      </trkpt>
      <trkpt lat="45.49503" lon="6.55349">
        <ele>509.4</ele>
        <time>2021-05-28T12:54:47Z</time>
      </trkpt>
      <trkpt lat="45.49508" lon="6.55357">
        <ele>509.8</ele>
        <time>2021-05-28T12:54:48Z</time>
      </trkpt>
      <trkpt lat="45.49513" lon="6.55366">
        <ele>510</ele>
        <time>2021-05-28T12:54:49Z</time>
      </trkpt>
      <trkpt lat="45.49518" lon="6.55375">
        <ele>510.2</ele>
        <time>2021-05-28T12:54:50Z</time>
      </trkpt>
      <trkpt lat="45.49523" lon="6.55385">
        <ele>510.4</ele>
        <time>2021-05-28T12:54:51Z</time>
      </trkpt>
      <trkpt lat="45.49528" lon="6.55396">
        <ele>510.4</ele>
        <time>2021-05-28T12:54:52Z</time>
      </trkpt>
      <trkpt lat="45.49532" lon="6.55406">
        <ele>510.6</ele>
        <time>2021-05-28T12:54:53Z</time>
      </trkpt>
      <trkpt lat="45.49536" lon="6.55418">
        <ele>510.6</ele>
        <time>2021-05-28T12:54:54Z</time>
      </trkpt>
      <trkpt lat="45.49539" lon="6.5543">
        <ele>510.2</ele>
        <time>2021-05-28T12:54:55Z</time>
      </trkpt>
      <trkpt lat="45.49542" lon="6.55443">
        <ele>509.8</ele>
        <time>2021-05-28T12:54:56Z</time>
      </trkpt>
      <trkpt lat="45.49545" lon="6.55454">
        <ele>509.6</ele>
        <time>2021-05-28T12:54:57Z</time>
      </trkpt>
      <trkpt lat="45.49547" lon="6.55466">
        <ele>509.4</ele>
        <time>2021-05-28T12:54:58Z</time>
      </trkpt>
      <trkpt lat="45.49547" lon="6.55478">
        <ele>509.6</ele>
        <time>2021-05-28T12:54:59Z</time>
      </trkpt>
      <trkpt lat="45.49548" lon="6.55489">
        <ele>509.2</ele>
        <time>2021-05-28T12:55:00Z</time>
      </trkpt>
      <trkpt lat="45.49548" lon="6.55501">
        <ele>509.2</ele>
        <time>2021-05-28T12:55:01Z</time>
      </trkpt>
      <trkpt lat="45.49549" lon="6.55513">
        <ele>509.2</ele>
        <time>2021-05-28T12:55:02Z</time>
      </trkpt>
      <trkpt lat="45.49549" lon="6.55525">
        <ele>509.2</ele>
        <time>2021-05-28T12:55:03Z</time>
      </trkpt>
      <trkpt lat="45.4955" lon="6.55536">
        <ele>509.4</ele>
        <time>2021-05-28T12:55:04Z</time>
      </trkpt>
      <trkpt lat="45.4955" lon="6.55548">
        <ele>509.6</ele>
        <time>2021-05-28T12:55:05Z</time>
      </trkpt>
      <trkpt lat="45.49551" lon="6.5556">
        <ele>509.4</ele>
        <time>2021-05-28T12:55:06Z</time>
      </trkpt>
      <trkpt lat="45.49551" lon="6.55572">
        <ele>509.4</ele>
        <time>2021-05-28T12:55:07Z</time>
      </trkpt>
      <trkpt lat="45.49551" lon="6.55583">
        <ele>509.4</ele>
        <time>2021-05-28T12:55:08Z</time>
      </trkpt>
      <trkpt lat="45.49549" lon="6.55594">
        <ele>509.8</ele>
        <time>2021-05-28T12:55:09Z</time>
      </trkpt>
      <trkpt lat="45.49548" lon="6.55606">
        <ele>510.8</ele>
        <time>2021-05-28T12:55:10Z</time>
      </trkpt>
      <trkpt lat="45.49546" lon="6.55616">
        <ele>510.6</ele>
        <time>2021-05-28T12:55:11Z</time>
      </trkpt>
      <trkpt lat="45.49543" lon="6.55627">
        <ele>510.4</ele>
        <time>2021-05-28T12:55:12Z</time>
      </trkpt>
      <trkpt lat="45.4954" lon="6.55637">
        <ele>510.6</ele>
        <time>2021-05-28T12:55:13Z</time>
      </trkpt>
      <trkpt lat="45.49537" lon="6.55646">
        <ele>510.6</ele>
        <time>2021-05-28T12:55:14Z</time>
      </trkpt>
      <trkpt lat="45.49535" lon="6.55655">
        <ele>511</ele>
        <time>2021-05-28T12:55:15Z</time>
      </trkpt>
      <trkpt lat="45.49532" lon="6.55663">
        <ele>511</ele>
        <time>2021-05-28T12:55:16Z</time>
      </trkpt>
      <trkpt lat="45.49529" lon="6.55673">
        <ele>511.2</ele>
        <time>2021-05-28T12:55:17Z</time>
      </trkpt>
      <trkpt lat="45.49525" lon="6.55682">
        <ele>511.4</ele>
        <time>2021-05-28T12:55:18Z</time>
      </trkpt>
      <trkpt lat="45.49521" lon="6.55691">
        <ele>511.6</ele>
        <time>2021-05-28T12:55:19Z</time>
      </trkpt>
      <trkpt lat="45.49518" lon="6.557">
        <ele>511.2</ele>
        <time>2021-05-28T12:55:20Z</time>
      </trkpt>
      <trkpt lat="45.49515" lon="6.55709">
        <ele>511</ele>
        <time>2021-05-28T12:55:21Z</time>
      </trkpt>
      <trkpt lat="45.49511" lon="6.55718">
        <ele>511.2</ele>
        <time>2021-05-28T12:55:22Z</time>
      </trkpt>
      <trkpt lat="45.49508" lon="6.55727">
        <ele>511.2</ele>
        <time>2021-05-28T12:55:23Z</time>
      </trkpt>
      <trkpt lat="45.49504" lon="6.55736">
        <ele>510.4</ele>
        <time>2021-05-28T12:55:24Z</time>
      </trkpt>
      <trkpt lat="45.49501" lon="6.55745">
        <ele>510.4</ele>
        <time>2021-05-28T12:55:25Z</time>
      </trkpt>
      <trkpt lat="45.49498" lon="6.55754">
        <ele>510.4</ele>
        <time>2021-05-28T12:55:26Z</time>
      </trkpt>
      <trkpt lat="45.49496" lon="6.55763">
        <ele>510.2</ele>
        <time>2021-05-28T12:55:27Z</time>
      </trkpt>
      <trkpt lat="45.49494" lon="6.55772">
        <ele>510</ele>
        <time>2021-05-28T12:55:28Z</time>
      </trkpt>
      <trkpt lat="45.49492" lon="6.55781">
        <ele>510</ele>
        <time>2021-05-28T12:55:29Z</time>
      </trkpt>
      <trkpt lat="45.4949" lon="6.5579">
        <ele>510.4</ele>
        <time>2021-05-28T12:55:30Z</time>
      </trkpt>
      <trkpt lat="45.49489" lon="6.55799">
        <ele>510.6</ele>
        <time>2021-05-28T12:55:31Z</time>
      </trkpt>
      <trkpt lat="45.49488" lon="6.55809">
        <ele>511</ele>
        <time>2021-05-28T12:55:32Z</time>
      </trkpt>
      <trkpt lat="45.49488" lon="6.55819">
        <ele>511.2</ele>
        <time>2021-05-28T12:55:33Z</time>
      </trkpt>
      <trkpt lat="45.49488" lon="6.55828">
        <ele>511.2</ele>
        <time>2021-05-28T12:55:34Z</time>
      </trkpt>
      <trkpt lat="45.49488" lon="6.55837">
        <ele>511.4</ele>
        <time>2021-05-28T12:55:35Z</time>
      </trkpt>
      <trkpt lat="45.49488" lon="6.55847">
        <ele>511.8</ele>
        <time>2021-05-28T12:55:36Z</time>
      </trkpt>
      <trkpt lat="45.49488" lon="6.55856">
        <ele>512</ele>
        <time>2021-05-28T12:55:37Z</time>
      </trkpt>
      <trkpt lat="45.49488" lon="6.55865">
        <ele>512.2</ele>
        <time>2021-05-28T12:55:38Z</time>
      </trkpt>
      <trkpt lat="45.49488" lon="6.55874">
        <ele>512.4</ele>
        <time>2021-05-28T12:55:39Z</time>
      </trkpt>
      <trkpt lat="45.49488" lon="6.55884">
        <ele>512.6</ele>
        <time>2021-05-28T12:55:40Z</time>
      </trkpt>
      <trkpt lat="45.49488" lon="6.55893">
        <ele>513</ele>
        <time>2021-05-28T12:55:41Z</time>
      </trkpt>
      <trkpt lat="45.49489" lon="6.55901">
        <ele>513.6</ele>
        <time>2021-05-28T12:55:42Z</time>
      </trkpt>
      <trkpt lat="45.49489" lon="6.55909">
        <ele>514.2</ele>
        <time>2021-05-28T12:55:43Z</time>
      </trkpt>
      <trkpt lat="45.4949" lon="6.55916">
        <ele>514.8</ele>
        <time>2021-05-28T12:55:44Z</time>
      </trkpt>
      <trkpt lat="45.49491" lon="6.55922">
        <ele>515</ele>
        <time>2021-05-28T12:55:45Z</time>
      </trkpt>
      <trkpt lat="45.49491" lon="6.55928">
        <ele>515</ele>
        <time>2021-05-28T12:55:46Z</time>
      </trkpt>
      <trkpt lat="45.49492" lon="6.55931">
        <ele>515.6</ele>
        <time>2021-05-28T12:55:47Z</time>
      </trkpt>
      <trkpt lat="45.49492" lon="6.55925">
        <ele>515.4</ele>
        <time>2021-05-28T12:55:50Z</time>
      </trkpt>
      <trkpt lat="45.49491" lon="6.55921">
        <ele>515.4</ele>
        <time>2021-05-28T12:55:51Z</time>
      </trkpt>
      <trkpt lat="45.49491" lon="6.55916">
        <ele>515.4</ele>
        <time>2021-05-28T12:55:52Z</time>
      </trkpt>
      <trkpt lat="45.4949" lon="6.55909">
        <ele>515.4</ele>
        <time>2021-05-28T12:55:53Z</time>
      </trkpt>
      <trkpt lat="45.49488" lon="6.55902">
        <ele>515.4</ele>
        <time>2021-05-28T12:55:54Z</time>
      </trkpt>
      <trkpt lat="45.49487" lon="6.55895">
        <ele>515.2</ele>
        <time>2021-05-28T12:55:55Z</time>
      </trkpt>
      <trkpt lat="45.49487" lon="6.55887">
        <ele>515.2</ele>
        <time>2021-05-28T12:55:56Z</time>
      </trkpt>
      <trkpt lat="45.4949" lon="6.55881">
        <ele>515.2</ele>
        <time>2021-05-28T12:55:57Z</time>
      </trkpt>
      <trkpt lat="45.49494" lon="6.55877">
        <ele>514.8</ele>
        <time>2021-05-28T12:55:58Z</time>
      </trkpt>
      <trkpt lat="45.49499" lon="6.55875">
        <ele>514.8</ele>
        <time>2021-05-28T12:55:59Z</time>
      </trkpt>
      <trkpt lat="45.49503" lon="6.55874">
        <ele>514.8</ele>
        <time>2021-05-28T12:56:00Z</time>
      </trkpt>
      <trkpt lat="45.49509" lon="6.55873">
        <ele>514.8</ele>
        <time>2021-05-28T12:56:01Z</time>
      </trkpt>
      <trkpt lat="45.49514" lon="6.55873">
        <ele>514.6</ele>
        <time>2021-05-28T12:56:02Z</time>
      </trkpt>
      <trkpt lat="45.49519" lon="6.55873">
        <ele>514.8</ele>
        <time>2021-05-28T12:56:03Z</time>
      </trkpt>
      <trkpt lat="45.49525" lon="6.55872">
        <ele>514.8</ele>
        <time>2021-05-28T12:56:04Z</time>
      </trkpt>
      <trkpt lat="45.4953" lon="6.55872">
        <ele>514.8</ele>
        <time>2021-05-28T12:56:05Z</time>
      </trkpt>
      <trkpt lat="45.49536" lon="6.55871">
        <ele>514.6</ele>
        <time>2021-05-28T12:56:06Z</time>
      </trkpt>
      <trkpt lat="45.49541" lon="6.55871">
        <ele>514.4</ele>
        <time>2021-05-28T12:56:07Z</time>
      </trkpt>
      <trkpt lat="45.49547" lon="6.5587">
        <ele>514.2</ele>
        <time>2021-05-28T12:56:08Z</time>
      </trkpt>
      <trkpt lat="45.49552" lon="6.55868">
        <ele>514</ele>
        <time>2021-05-28T12:56:09Z</time>
      </trkpt>
      <trkpt lat="45.49558" lon="6.55867">
        <ele>513.8</ele>
        <time>2021-05-28T12:56:10Z</time>
      </trkpt>
      <trkpt lat="45.49564" lon="6.55866">
        <ele>513.8</ele>
        <time>2021-05-28T12:56:11Z</time>
      </trkpt>
      <trkpt lat="45.49571" lon="6.55867">
        <ele>513.8</ele>
        <time>2021-05-28T12:56:12Z</time>
      </trkpt>
      <trkpt lat="45.49577" lon="6.5587">
        <ele>513.8</ele>
        <time>2021-05-28T12:56:13Z</time>
      </trkpt>
      <trkpt lat="45.49583" lon="6.55874">
        <ele>514</ele>
        <time>2021-05-28T12:56:14Z</time>
      </trkpt>
      <trkpt lat="45.49588" lon="6.55878">
        <ele>513.8</ele>
        <time>2021-05-28T12:56:15Z</time>
      </trkpt>
      <trkpt lat="45.49593" lon="6.55882">
        <ele>513.8</ele>
        <time>2021-05-28T12:56:16Z</time>
      </trkpt>
      <trkpt lat="45.49598" lon="6.55886">
        <ele>514</ele>
        <time>2021-05-28T12:56:17Z</time>
      </trkpt>
      <trkpt lat="45.49603" lon="6.55891">
        <ele>514.2</ele>
        <time>2021-05-28T12:56:18Z</time>
      </trkpt>
      <trkpt lat="45.49609" lon="6.55895">
        <ele>514.2</ele>
        <time>2021-05-28T12:56:19Z</time>
      </trkpt>
      <trkpt lat="45.49613" lon="6.559">
        <ele>514.4</ele>
        <time>2021-05-28T12:56:20Z</time>
      </trkpt>
      <trkpt lat="45.49618" lon="6.55905">
        <ele>514.2</ele>
        <time>2021-05-28T12:56:21Z</time>
      </trkpt>
      <trkpt lat="45.49623" lon="6.5591">
        <ele>514.4</ele>
        <time>2021-05-28T12:56:22Z</time>
      </trkpt>
      <trkpt lat="45.49628" lon="6.55914">
        <ele>514.4</ele>
        <time>2021-05-28T12:56:23Z</time>
      </trkpt>
      <trkpt lat="45.49633" lon="6.55918">
        <ele>514.2</ele>
        <time>2021-05-28T12:56:24Z</time>
      </trkpt>
      <trkpt lat="45.49638" lon="6.55922">
        <ele>514.2</ele>
        <time>2021-05-28T12:56:25Z</time>
      </trkpt>
      <trkpt lat="45.49643" lon="6.55925">
        <ele>514.4</ele>
        <time>2021-05-28T12:56:26Z</time>
      </trkpt>
      <trkpt lat="45.49648" lon="6.55929">
        <ele>514.6</ele>
        <time>2021-05-28T12:56:27Z</time>
      </trkpt>
      <trkpt lat="45.49652" lon="6.55933">
        <ele>514.6</ele>
        <time>2021-05-28T12:56:28Z</time>
      </trkpt>
      <trkpt lat="45.49658" lon="6.55936">
        <ele>514.8</ele>
        <time>2021-05-28T12:56:29Z</time>
      </trkpt>
      <trkpt lat="45.49663" lon="6.5594">
        <ele>515</ele>
        <time>2021-05-28T12:56:30Z</time>
      </trkpt>
      <trkpt lat="45.49667" lon="6.55944">
        <ele>515.4</ele>
        <time>2021-05-28T12:56:31Z</time>
      </trkpt>
      <trkpt lat="45.49672" lon="6.55947">
        <ele>515.4</ele>
        <time>2021-05-28T12:56:32Z</time>
      </trkpt>
      <trkpt lat="45.49677" lon="6.55951">
        <ele>515.8</ele>
        <time>2021-05-28T12:56:33Z</time>
      </trkpt>
      <trkpt lat="45.49682" lon="6.55955">
        <ele>516</ele>
        <time>2021-05-28T12:56:34Z</time>
      </trkpt>
      <trkpt lat="45.49686" lon="6.5596">
        <ele>516.2</ele>
        <time>2021-05-28T12:56:35Z</time>
      </trkpt>
      <trkpt lat="45.4969" lon="6.55965">
        <ele>516.4</ele>
        <time>2021-05-28T12:56:36Z</time>
      </trkpt>
      <trkpt lat="45.49693" lon="6.55972">
        <ele>516.8</ele>
        <time>2021-05-28T12:56:37Z</time>
      </trkpt>
      <trkpt lat="45.49696" lon="6.55978">
        <ele>517</ele>
        <time>2021-05-28T12:56:38Z</time>
      </trkpt>
      <trkpt lat="45.497" lon="6.55984">
        <ele>517</ele>
        <time>2021-05-28T12:56:39Z</time>
      </trkpt>
      <trkpt lat="45.49703" lon="6.5599">
        <ele>517.2</ele>
        <time>2021-05-28T12:56:40Z</time>
      </trkpt>
      <trkpt lat="45.49707" lon="6.55996">
        <ele>517</ele>
        <time>2021-05-28T12:56:41Z</time>
      </trkpt>
      <trkpt lat="45.4971" lon="6.56001">
        <ele>517.2</ele>
        <time>2021-05-28T12:56:42Z</time>
      </trkpt>
      <trkpt lat="45.49714" lon="6.56007">
        <ele>517.6</ele>
        <time>2021-05-28T12:56:43Z</time>
      </trkpt>
      <trkpt lat="45.49717" lon="6.56014">
        <ele>517.8</ele>
        <time>2021-05-28T12:56:44Z</time>
      </trkpt>
      <trkpt lat="45.49718" lon="6.56022">
        <ele>518.4</ele>
        <time>2021-05-28T12:56:45Z</time>
      </trkpt>
      <trkpt lat="45.49718" lon="6.5603">
        <ele>518.8</ele>
        <time>2021-05-28T12:56:46Z</time>
      </trkpt>
      <trkpt lat="45.49718" lon="6.56038">
        <ele>518.8</ele>
        <time>2021-05-28T12:56:47Z</time>
      </trkpt>
      <trkpt lat="45.49719" lon="6.56046">
        <ele>519</ele>
        <time>2021-05-28T12:56:48Z</time>
      </trkpt>
      <trkpt lat="45.4972" lon="6.56054">
        <ele>518.8</ele>
        <time>2021-05-28T12:56:49Z</time>
      </trkpt>
      <trkpt lat="45.49723" lon="6.56062">
        <ele>519</ele>
        <time>2021-05-28T12:56:50Z</time>
      </trkpt>
      <trkpt lat="45.49726" lon="6.56068">
        <ele>519.2</ele>
        <time>2021-05-28T12:56:51Z</time>
      </trkpt>
      <trkpt lat="45.49731" lon="6.56073">
        <ele>519.4</ele>
        <time>2021-05-28T12:56:52Z</time>
      </trkpt>
      <trkpt lat="45.49735" lon="6.56078">
        <ele>519.8</ele>
        <time>2021-05-28T12:56:53Z</time>
      </trkpt>
      <trkpt lat="45.4974" lon="6.56083">
        <ele>519.8</ele>
        <time>2021-05-28T12:56:54Z</time>
      </trkpt>
      <trkpt lat="45.49744" lon="6.56088">
        <ele>520</ele>
        <time>2021-05-28T12:56:55Z</time>
      </trkpt>
      <trkpt lat="45.49748" lon="6.56093">
        <ele>520</ele>
        <time>2021-05-28T12:56:56Z</time>
      </trkpt>
      <trkpt lat="45.49753" lon="6.56097">
        <ele>520</ele>
        <time>2021-05-28T12:56:57Z</time>
      </trkpt>
      <trkpt lat="45.49758" lon="6.56102">
        <ele>520.2</ele>
        <time>2021-05-28T12:56:58Z</time>
      </trkpt>
      <trkpt lat="45.49763" lon="6.56105">
        <ele>520.2</ele>
        <time>2021-05-28T12:56:59Z</time>
      </trkpt>
      <trkpt lat="45.49767" lon="6.56109">
        <ele>520.4</ele>
        <time>2021-05-28T12:57:00Z</time>
      </trkpt>
      <trkpt lat="45.49772" lon="6.56111">
        <ele>520.4</ele>
        <time>2021-05-28T12:57:01Z</time>
      </trkpt>
      <trkpt lat="45.49777" lon="6.56113">
        <ele>520.6</ele>
        <time>2021-05-28T12:57:02Z</time>
      </trkpt>
      <trkpt lat="45.49783" lon="6.56114">
        <ele>521</ele>
        <time>2021-05-28T12:57:03Z</time>
      </trkpt>
      <trkpt lat="45.49788" lon="6.56115">
        <ele>521.2</ele>
        <time>2021-05-28T12:57:04Z</time>
      </trkpt>
      <trkpt lat="45.49793" lon="6.56117">
        <ele>521.2</ele>
        <time>2021-05-28T12:57:05Z</time>
      </trkpt>
      <trkpt lat="45.49799" lon="6.56118">
        <ele>521</ele>
        <time>2021-05-28T12:57:06Z</time>
      </trkpt>
      <trkpt lat="45.49804" lon="6.56119">
        <ele>521</ele>
        <time>2021-05-28T12:57:07Z</time>
      </trkpt>
      <trkpt lat="45.49809" lon="6.56122">
        <ele>520.8</ele>
        <time>2021-05-28T12:57:08Z</time>
      </trkpt>
      <trkpt lat="45.49813" lon="6.56127">
        <ele>521</ele>
        <time>2021-05-28T12:57:09Z</time>
      </trkpt>
      <trkpt lat="45.49816" lon="6.56133">
        <ele>521</ele>
        <time>2021-05-28T12:57:10Z</time>
      </trkpt>
      <trkpt lat="45.49819" lon="6.56138">
        <ele>521</ele>
        <time>2021-05-28T12:57:11Z</time>
      </trkpt>
      <trkpt lat="45.49823" lon="6.56143">
        <ele>521</ele>
        <time>2021-05-28T12:57:12Z</time>
      </trkpt>
      <trkpt lat="45.49826" lon="6.56149">
        <ele>521</ele>
        <time>2021-05-28T12:57:13Z</time>
      </trkpt>
      <trkpt lat="45.49829" lon="6.56154">
        <ele>520.8</ele>
        <time>2021-05-28T12:57:14Z</time>
      </trkpt>
      <trkpt lat="45.49833" lon="6.5616">
        <ele>520.4</ele>
        <time>2021-05-28T12:57:15Z</time>
      </trkpt>
      <trkpt lat="45.49836" lon="6.56166">
        <ele>520.4</ele>
        <time>2021-05-28T12:57:16Z</time>
      </trkpt>
      <trkpt lat="45.49839" lon="6.56173">
        <ele>520.4</ele>
        <time>2021-05-28T12:57:17Z</time>
      </trkpt>
      <trkpt lat="45.49841" lon="6.56179">
        <ele>520.4</ele>
        <time>2021-05-28T12:57:18Z</time>
      </trkpt>
      <trkpt lat="45.49843" lon="6.56185">
        <ele>520.2</ele>
        <time>2021-05-28T12:57:19Z</time>
      </trkpt>
      <trkpt lat="45.49845" lon="6.56191">
        <ele>520.6</ele>
        <time>2021-05-28T12:57:20Z</time>
      </trkpt>
      <trkpt lat="45.49847" lon="6.56198">
        <ele>520.8</ele>
        <time>2021-05-28T12:57:21Z</time>
      </trkpt>
      <trkpt lat="45.49849" lon="6.56204">
        <ele>520.4</ele>
        <time>2021-05-28T12:57:22Z</time>
      </trkpt>
      <trkpt lat="45.4985" lon="6.5621">
        <ele>520.2</ele>
        <time>2021-05-28T12:57:23Z</time>
      </trkpt>
      <trkpt lat="45.49852" lon="6.56215">
        <ele>520.2</ele>
        <time>2021-05-28T12:57:24Z</time>
      </trkpt>
      <trkpt lat="45.49853" lon="6.5622">
        <ele>520.4</ele>
        <time>2021-05-28T12:57:25Z</time>
      </trkpt>
      <trkpt lat="45.49855" lon="6.56226">
        <ele>520.4</ele>
        <time>2021-05-28T12:57:26Z</time>
      </trkpt>
      <trkpt lat="45.49858" lon="6.5623">
        <ele>520.6</ele>
        <time>2021-05-28T12:57:27Z</time>
      </trkpt>
      <trkpt lat="45.4986" lon="6.56235">
        <ele>520.8</ele>
        <time>2021-05-28T12:57:28Z</time>
      </trkpt>
      <trkpt lat="45.49863" lon="6.5624">
        <ele>521</ele>
        <time>2021-05-28T12:57:29Z</time>
      </trkpt>
      <trkpt lat="45.49865" lon="6.56245">
        <ele>520.8</ele>
        <time>2021-05-28T12:57:30Z</time>
      </trkpt>
      <trkpt lat="45.49868" lon="6.5625">
        <ele>520.6</ele>
        <time>2021-05-28T12:57:31Z</time>
      </trkpt>
      <trkpt lat="45.49871" lon="6.56256">
        <ele>521.2</ele>
        <time>2021-05-28T12:57:32Z</time>
      </trkpt>
      <trkpt lat="45.49873" lon="6.56261">
        <ele>521.6</ele>
        <time>2021-05-28T12:57:33Z</time>
      </trkpt>
      <trkpt lat="45.49875" lon="6.56266">
        <ele>522</ele>
        <time>2021-05-28T12:57:34Z</time>
      </trkpt>
      <trkpt lat="45.49877" lon="6.56271">
        <ele>522.4</ele>
        <time>2021-05-28T12:57:35Z</time>
      </trkpt>
      <trkpt lat="45.4988" lon="6.56275">
        <ele>522.6</ele>
        <time>2021-05-28T12:57:36Z</time>
      </trkpt>
      <trkpt lat="45.49883" lon="6.56279">
        <ele>522.6</ele>
        <time>2021-05-28T12:57:37Z</time>
      </trkpt>
      <trkpt lat="45.49886" lon="6.56283">
        <ele>523.2</ele>
        <time>2021-05-28T12:57:38Z</time>
      </trkpt>
      <trkpt lat="45.4989" lon="6.56286">
        <ele>523.4</ele>
        <time>2021-05-28T12:57:39Z</time>
      </trkpt>
      <trkpt lat="45.49893" lon="6.56288">
        <ele>523.4</ele>
        <time>2021-05-28T12:57:40Z</time>
      </trkpt>
      <trkpt lat="45.49897" lon="6.56288">
        <ele>523.8</ele>
        <time>2021-05-28T12:57:41Z</time>
      </trkpt>
      <trkpt lat="45.499" lon="6.56288">
        <ele>524</ele>
        <time>2021-05-28T12:57:42Z</time>
      </trkpt>
      <trkpt lat="45.49903" lon="6.56287">
        <ele>524</ele>
        <time>2021-05-28T12:57:43Z</time>
      </trkpt>
      <trkpt lat="45.49907" lon="6.56285">
        <ele>524</ele>
        <time>2021-05-28T12:57:44Z</time>
      </trkpt>
      <trkpt lat="45.4991" lon="6.56283">
        <ele>523.8</ele>
        <time>2021-05-28T12:57:45Z</time>
      </trkpt>
      <trkpt lat="45.49914" lon="6.56281">
        <ele>524</ele>
        <time>2021-05-28T12:57:46Z</time>
      </trkpt>
      <trkpt lat="45.49918" lon="6.56279">
        <ele>524</ele>
        <time>2021-05-28T12:57:47Z</time>
      </trkpt>
      <trkpt lat="45.49921" lon="6.56277">
        <ele>524.2</ele>
        <time>2021-05-28T12:57:48Z</time>
      </trkpt>
      <trkpt lat="45.49926" lon="6.56275">
        <ele>524.4</ele>
        <time>2021-05-28T12:57:49Z</time>
      </trkpt>
      <trkpt lat="45.49929" lon="6.56274">
        <ele>524.8</ele>
        <time>2021-05-28T12:57:50Z</time>
      </trkpt>
      <trkpt lat="45.49934" lon="6.56272">
        <ele>525</ele>
        <time>2021-05-28T12:57:51Z</time>
      </trkpt>
      <trkpt lat="45.49938" lon="6.5627">
        <ele>525.4</ele>
        <time>2021-05-28T12:57:52Z</time>
      </trkpt>
      <trkpt lat="45.49942" lon="6.5627">
        <ele>525.4</ele>
        <time>2021-05-28T12:57:53Z</time>
      </trkpt>
      <trkpt lat="45.49946" lon="6.56269">
        <ele>525.4</ele>
        <time>2021-05-28T12:57:54Z</time>
      </trkpt>
      <trkpt lat="45.49951" lon="6.56267">
        <ele>525.6</ele>
        <time>2021-05-28T12:57:55Z</time>
      </trkpt>
      <trkpt lat="45.49955" lon="6.56265">
        <ele>525.4</ele>
        <time>2021-05-28T12:57:56Z</time>
      </trkpt>
      <trkpt lat="45.49959" lon="6.56263">
        <ele>525.4</ele>
        <time>2021-05-28T12:57:57Z</time>
      </trkpt>
      <trkpt lat="45.49963" lon="6.56261">
        <ele>525.6</ele>
        <time>2021-05-28T12:57:58Z</time>
      </trkpt>
      <trkpt lat="45.49966" lon="6.56258">
        <ele>525.6</ele>
        <time>2021-05-28T12:57:59Z</time>
      </trkpt>
      <trkpt lat="45.4997" lon="6.56255">
        <ele>525.8</ele>
        <time>2021-05-28T12:58:00Z</time>
      </trkpt>
      <trkpt lat="45.49972" lon="6.56251">
        <ele>525.6</ele>
        <time>2021-05-28T12:58:01Z</time>
      </trkpt>
      <trkpt lat="45.49976" lon="6.56247">
        <ele>525.8</ele>
        <time>2021-05-28T12:58:02Z</time>
      </trkpt>
      <trkpt lat="45.4998" lon="6.56244">
        <ele>525.8</ele>
        <time>2021-05-28T12:58:03Z</time>
      </trkpt>
      <trkpt lat="45.49983" lon="6.5624">
        <ele>526.2</ele>
        <time>2021-05-28T12:58:04Z</time>
      </trkpt>
      <trkpt lat="45.49986" lon="6.56236">
        <ele>526.4</ele>
        <time>2021-05-28T12:58:05Z</time>
      </trkpt>
      <trkpt lat="45.49989" lon="6.56232">
        <ele>526.4</ele>
        <time>2021-05-28T12:58:06Z</time>
      </trkpt>
      <trkpt lat="45.49992" lon="6.56228">
        <ele>526.4</ele>
        <time>2021-05-28T12:58:07Z</time>
      </trkpt>
      <trkpt lat="45.49996" lon="6.56225">
        <ele>526.4</ele>
        <time>2021-05-28T12:58:08Z</time>
      </trkpt>
      <trkpt lat="45.49998" lon="6.56221">
        <ele>526.6</ele>
        <time>2021-05-28T12:58:09Z</time>
      </trkpt>
      <trkpt lat="45.50002" lon="6.56218">
        <ele>526.6</ele>
        <time>2021-05-28T12:58:10Z</time>
      </trkpt>
      <trkpt lat="45.50005" lon="6.56215">
        <ele>526.6</ele>
        <time>2021-05-28T12:58:11Z</time>
      </trkpt>
      <trkpt lat="45.50009" lon="6.56213">
        <ele>526.8</ele>
        <time>2021-05-28T12:58:12Z</time>
      </trkpt>
      <trkpt lat="45.50012" lon="6.56211">
        <ele>527.2</ele>
        <time>2021-05-28T12:58:13Z</time>
      </trkpt>
      <trkpt lat="45.50016" lon="6.56209">
        <ele>527.6</ele>
        <time>2021-05-28T12:58:14Z</time>
      </trkpt>
      <trkpt lat="45.5002" lon="6.56208">
        <ele>527.8</ele>
        <time>2021-05-28T12:58:15Z</time>
      </trkpt>
      <trkpt lat="45.50024" lon="6.56209">
        <ele>527.6</ele>
        <time>2021-05-28T12:58:16Z</time>
      </trkpt>
      <trkpt lat="45.50028" lon="6.56211">
        <ele>527.8</ele>
        <time>2021-05-28T12:58:17Z</time>
      </trkpt>
      <trkpt lat="45.50031" lon="6.56213">
        <ele>528.2</ele>
        <time>2021-05-28T12:58:18Z</time>
      </trkpt>
      <trkpt lat="45.50034" lon="6.56215">
        <ele>528.6</ele>
        <time>2021-05-28T12:58:19Z</time>
      </trkpt>
      <trkpt lat="45.50038" lon="6.56218">
        <ele>529.4</ele>
        <time>2021-05-28T12:58:20Z</time>
      </trkpt>
      <trkpt lat="45.50041" lon="6.5622">
        <ele>530</ele>
        <time>2021-05-28T12:58:21Z</time>
      </trkpt>
      <trkpt lat="45.50044" lon="6.56223">
        <ele>530.6</ele>
        <time>2021-05-28T12:58:22Z</time>
      </trkpt>
      <trkpt lat="45.50048" lon="6.56225">
        <ele>530.8</ele>
        <time>2021-05-28T12:58:23Z</time>
      </trkpt>
      <trkpt lat="45.50051" lon="6.56227">
        <ele>531.2</ele>
        <time>2021-05-28T12:58:24Z</time>
      </trkpt>
      <trkpt lat="45.50054" lon="6.5623">
        <ele>531.2</ele>
        <time>2021-05-28T12:58:25Z</time>
      </trkpt>
      <trkpt lat="45.50058" lon="6.56233">
        <ele>531</ele>
        <time>2021-05-28T12:58:26Z</time>
      </trkpt>
      <trkpt lat="45.50061" lon="6.56235">
        <ele>530.8</ele>
        <time>2021-05-28T12:58:27Z</time>
      </trkpt>
      <trkpt lat="45.50064" lon="6.56238">
        <ele>530.6</ele>
        <time>2021-05-28T12:58:28Z</time>
      </trkpt>
      <trkpt lat="45.50067" lon="6.56241">
        <ele>530.4</ele>
        <time>2021-05-28T12:58:29Z</time>
      </trkpt>
      <trkpt lat="45.5007" lon="6.56244">
        <ele>530.2</ele>
        <time>2021-05-28T12:58:30Z</time>
      </trkpt>
      <trkpt lat="45.50073" lon="6.56246">
        <ele>530</ele>
        <time>2021-05-28T12:58:31Z</time>
      </trkpt>
      <trkpt lat="45.50076" lon="6.56249">
        <ele>529.8</ele>
        <time>2021-05-28T12:58:32Z</time>
      </trkpt>
      <trkpt lat="45.50079" lon="6.5625">
        <ele>529.8</ele>
        <time>2021-05-28T12:58:33Z</time>
      </trkpt>
      <trkpt lat="45.50082" lon="6.56251">
        <ele>529.6</ele>
        <time>2021-05-28T12:58:34Z</time>
      </trkpt>
      <trkpt lat="45.50085" lon="6.56252">
        <ele>529.4</ele>
        <time>2021-05-28T12:58:35Z</time>
      </trkpt>
      <trkpt lat="45.50089" lon="6.56251">
        <ele>529.4</ele>
        <time>2021-05-28T12:58:36Z</time>
      </trkpt>
      <trkpt lat="45.50092" lon="6.56251">
        <ele>529.8</ele>
        <time>2021-05-28T12:58:37Z</time>
      </trkpt>
      <trkpt lat="45.50095" lon="6.56252">
        <ele>530.4</ele>
        <time>2021-05-28T12:58:38Z</time>
      </trkpt>
      <trkpt lat="45.50098" lon="6.56251">
        <ele>531</ele>
        <time>2021-05-28T12:58:39Z</time>
      </trkpt>
      <trkpt lat="45.50101" lon="6.5625">
        <ele>531.2</ele>
        <time>2021-05-28T12:58:40Z</time>
      </trkpt>
      <trkpt lat="45.50105" lon="6.56248">
        <ele>531.4</ele>
        <time>2021-05-28T12:58:41Z</time>
      </trkpt>
      <trkpt lat="45.50107" lon="6.56245">
        <ele>531.4</ele>
        <time>2021-05-28T12:58:42Z</time>
      </trkpt>
      <trkpt lat="45.5011" lon="6.56242">
        <ele>531.2</ele>
        <time>2021-05-28T12:58:43Z</time>
      </trkpt>
      <trkpt lat="45.50113" lon="6.56239">
        <ele>531.2</ele>
        <time>2021-05-28T12:58:44Z</time>
      </trkpt>
      <trkpt lat="45.50116" lon="6.56235">
        <ele>531</ele>
        <time>2021-05-28T12:58:45Z</time>
      </trkpt>
      <trkpt lat="45.50117" lon="6.56231">
        <ele>530.8</ele>
        <time>2021-05-28T12:58:46Z</time>
      </trkpt>
      <trkpt lat="45.50119" lon="6.56227">
        <ele>531.2</ele>
        <time>2021-05-28T12:58:47Z</time>
      </trkpt>
      <trkpt lat="45.50121" lon="6.56223">
        <ele>531.6</ele>
        <time>2021-05-28T12:58:48Z</time>
      </trkpt>
      <trkpt lat="45.50123" lon="6.56219">
        <ele>532.2</ele>
        <time>2021-05-28T12:58:49Z</time>
      </trkpt>
      <trkpt lat="45.50125" lon="6.56215">
        <ele>532.8</ele>
        <time>2021-05-28T12:58:50Z</time>
      </trkpt>
      <trkpt lat="45.50128" lon="6.56211">
        <ele>533.2</ele>
        <time>2021-05-28T12:58:51Z</time>
      </trkpt>
      <trkpt lat="45.5013" lon="6.56207">
        <ele>533.6</ele>
        <time>2021-05-28T12:58:52Z</time>
      </trkpt>
      <trkpt lat="45.50132" lon="6.56203">
        <ele>533.6</ele>
        <time>2021-05-28T12:58:53Z</time>
      </trkpt>
      <trkpt lat="45.50134" lon="6.56199">
        <ele>534</ele>
        <time>2021-05-28T12:58:54Z</time>
      </trkpt>
      <trkpt lat="45.50137" lon="6.56196">
        <ele>534.4</ele>
        <time>2021-05-28T12:58:55Z</time>
      </trkpt>
      <trkpt lat="45.50141" lon="6.56195">
        <ele>534.6</ele>
        <time>2021-05-28T12:58:56Z</time>
      </trkpt>
      <trkpt lat="45.50145" lon="6.56195">
        <ele>535.2</ele>
        <time>2021-05-28T12:58:57Z</time>
      </trkpt>
      <trkpt lat="45.50148" lon="6.56195">
        <ele>535.8</ele>
        <time>2021-05-28T12:58:58Z</time>
      </trkpt>
      <trkpt lat="45.50151" lon="6.56196">
        <ele>536.2</ele>
        <time>2021-05-28T12:58:59Z</time>
      </trkpt>
      <trkpt lat="45.50154" lon="6.56198">
        <ele>536.4</ele>
        <time>2021-05-28T12:59:00Z</time>
      </trkpt>
      <trkpt lat="45.50157" lon="6.562">
        <ele>536.6</ele>
        <time>2021-05-28T12:59:01Z</time>
      </trkpt>
      <trkpt lat="45.50161" lon="6.56203">
        <ele>536.6</ele>
        <time>2021-05-28T12:59:02Z</time>
      </trkpt>
      <trkpt lat="45.50164" lon="6.56206">
        <ele>536.8</ele>
        <time>2021-05-28T12:59:03Z</time>
      </trkpt>
      <trkpt lat="45.50167" lon="6.56209">
        <ele>537.2</ele>
        <time>2021-05-28T12:59:04Z</time>
      </trkpt>
      <trkpt lat="45.5017" lon="6.56213">
        <ele>537.2</ele>
        <time>2021-05-28T12:59:05Z</time>
      </trkpt>
      <trkpt lat="45.50172" lon="6.56215">
        <ele>537.8</ele>
        <time>2021-05-28T12:59:06Z</time>
      </trkpt>
      <trkpt lat="45.50175" lon="6.56219">
        <ele>538</ele>
        <time>2021-05-28T12:59:07Z</time>
      </trkpt>
      <trkpt lat="45.50178" lon="6.56222">
        <ele>538.4</ele>
        <time>2021-05-28T12:59:08Z</time>
      </trkpt>
      <trkpt lat="45.50181" lon="6.56225">
        <ele>538.4</ele>
        <time>2021-05-28T12:59:09Z</time>
      </trkpt>
      <trkpt lat="45.50184" lon="6.56228">
        <ele>538.8</ele>
        <time>2021-05-28T12:59:10Z</time>
      </trkpt>
      <trkpt lat="45.50188" lon="6.56231">
        <ele>539</ele>
        <time>2021-05-28T12:59:11Z</time>
      </trkpt>
      <trkpt lat="45.50191" lon="6.56235">
        <ele>539.2</ele>
        <time>2021-05-28T12:59:12Z</time>
      </trkpt>
      <trkpt lat="45.50194" lon="6.56238">
        <ele>539.4</ele>
        <time>2021-05-28T12:59:13Z</time>
      </trkpt>
      <trkpt lat="45.50196" lon="6.56241">
        <ele>539.4</ele>
        <time>2021-05-28T12:59:14Z</time>
      </trkpt>
      <trkpt lat="45.50199" lon="6.56244">
        <ele>539.6</ele>
        <time>2021-05-28T12:59:15Z</time>
      </trkpt>
      <trkpt lat="45.50201" lon="6.56248">
        <ele>539.8</ele>
        <time>2021-05-28T12:59:16Z</time>
      </trkpt>
      <trkpt lat="45.50203" lon="6.56252">
        <ele>540.2</ele>
        <time>2021-05-28T12:59:17Z</time>
      </trkpt>
      <trkpt lat="45.50206" lon="6.56255">
        <ele>540.8</ele>
        <time>2021-05-28T12:59:18Z</time>
      </trkpt>
      <trkpt lat="45.50207" lon="6.56259">
        <ele>541.2</ele>
        <time>2021-05-28T12:59:19Z</time>
      </trkpt>
      <trkpt lat="45.5021" lon="6.56263">
        <ele>541.8</ele>
        <time>2021-05-28T12:59:20Z</time>
      </trkpt>
      <trkpt lat="45.50212" lon="6.56267">
        <ele>542.2</ele>
        <time>2021-05-28T12:59:21Z</time>
      </trkpt>
      <trkpt lat="45.50214" lon="6.56271">
        <ele>542.6</ele>
        <time>2021-05-28T12:59:22Z</time>
      </trkpt>
      <trkpt lat="45.50216" lon="6.56275">
        <ele>543</ele>
        <time>2021-05-28T12:59:23Z</time>
      </trkpt>
      <trkpt lat="45.50217" lon="6.56279">
        <ele>543.8</ele>
        <time>2021-05-28T12:59:24Z</time>
      </trkpt>
      <trkpt lat="45.50219" lon="6.56283">
        <ele>544.4</ele>
        <time>2021-05-28T12:59:25Z</time>
      </trkpt>
      <trkpt lat="45.5022" lon="6.56288">
        <ele>544.6</ele>
        <time>2021-05-28T12:59:26Z</time>
      </trkpt>
      <trkpt lat="45.50221" lon="6.56292">
        <ele>544.8</ele>
        <time>2021-05-28T12:59:27Z</time>
      </trkpt>
      <trkpt lat="45.50222" lon="6.56297">
        <ele>545.2</ele>
        <time>2021-05-28T12:59:28Z</time>
      </trkpt>
      <trkpt lat="45.50225" lon="6.56301">
        <ele>545.4</ele>
        <time>2021-05-28T12:59:29Z</time>
      </trkpt>
      <trkpt lat="45.50226" lon="6.56305">
        <ele>545.6</ele>
        <time>2021-05-28T12:59:30Z</time>
      </trkpt>
      <trkpt lat="45.50228" lon="6.5631">
        <ele>545.8</ele>
        <time>2021-05-28T12:59:31Z</time>
      </trkpt>
      <trkpt lat="45.5023" lon="6.56314">
        <ele>546.2</ele>
        <time>2021-05-28T12:59:32Z</time>
      </trkpt>
      <trkpt lat="45.50231" lon="6.56318">
        <ele>546.4</ele>
        <time>2021-05-28T12:59:33Z</time>
      </trkpt>
      <trkpt lat="45.50233" lon="6.56322">
        <ele>546.8</ele>
        <time>2021-05-28T12:59:34Z</time>
      </trkpt>
      <trkpt lat="45.50236" lon="6.56326">
        <ele>547.2</ele>
        <time>2021-05-28T12:59:35Z</time>
      </trkpt>
      <trkpt lat="45.50238" lon="6.5633">
        <ele>547.6</ele>
        <time>2021-05-28T12:59:36Z</time>
      </trkpt>
      <trkpt lat="45.5024" lon="6.56333">
        <ele>547.8</ele>
        <time>2021-05-28T12:59:37Z</time>
      </trkpt>
      <trkpt lat="45.50242" lon="6.56336">
        <ele>548</ele>
        <time>2021-05-28T12:59:38Z</time>
      </trkpt>
      <trkpt lat="45.50244" lon="6.56339">
        <ele>548.4</ele>
        <time>2021-05-28T12:59:39Z</time>
      </trkpt>
      <trkpt lat="45.50247" lon="6.56341">
        <ele>548.6</ele>
        <time>2021-05-28T12:59:40Z</time>
      </trkpt>
      <trkpt lat="45.5025" lon="6.56343">
        <ele>548.8</ele>
        <time>2021-05-28T12:59:41Z</time>
      </trkpt>
      <trkpt lat="45.50254" lon="6.56343">
        <ele>549</ele>
        <time>2021-05-28T12:59:42Z</time>
      </trkpt>
      <trkpt lat="45.50258" lon="6.56342">
        <ele>549.4</ele>
        <time>2021-05-28T12:59:43Z</time>
      </trkpt>
      <trkpt lat="45.50261" lon="6.56341">
        <ele>549.8</ele>
        <time>2021-05-28T12:59:44Z</time>
      </trkpt>
      <trkpt lat="45.50265" lon="6.56339">
        <ele>550.4</ele>
        <time>2021-05-28T12:59:45Z</time>
      </trkpt>
      <trkpt lat="45.50269" lon="6.56338">
        <ele>550.8</ele>
        <time>2021-05-28T12:59:46Z</time>
      </trkpt>
      <trkpt lat="45.50274" lon="6.56336">
        <ele>551.4</ele>
        <time>2021-05-28T12:59:47Z</time>
      </trkpt>
      <trkpt lat="45.50278" lon="6.56334">
        <ele>551.8</ele>
        <time>2021-05-28T12:59:48Z</time>
      </trkpt>
      <trkpt lat="45.50282" lon="6.56331">
        <ele>552.4</ele>
        <time>2021-05-28T12:59:49Z</time>
      </trkpt>
      <trkpt lat="45.50286" lon="6.56328">
        <ele>552.4</ele>
        <time>2021-05-28T12:59:50Z</time>
      </trkpt>
      <trkpt lat="45.50291" lon="6.56326">
        <ele>552.4</ele>
        <time>2021-05-28T12:59:51Z</time>
      </trkpt>
      <trkpt lat="45.50295" lon="6.56325">
        <ele>552.4</ele>
        <time>2021-05-28T12:59:52Z</time>
      </trkpt>
      <trkpt lat="45.503" lon="6.56325">
        <ele>552.4</ele>
        <time>2021-05-28T12:59:53Z</time>
      </trkpt>
      <trkpt lat="45.50304" lon="6.56326">
        <ele>552.6</ele>
        <time>2021-05-28T12:59:54Z</time>
      </trkpt>
      <trkpt lat="45.50308" lon="6.56328">
        <ele>552.6</ele>
        <time>2021-05-28T12:59:55Z</time>
      </trkpt>
      <trkpt lat="45.50313" lon="6.56329">
        <ele>552.6</ele>
        <time>2021-05-28T12:59:56Z</time>
      </trkpt>
      <trkpt lat="45.50318" lon="6.5633">
        <ele>552.6</ele>
        <time>2021-05-28T12:59:57Z</time>
      </trkpt>
      <trkpt lat="45.50323" lon="6.56331">
        <ele>552.6</ele>
        <time>2021-05-28T12:59:58Z</time>
      </trkpt>
      <trkpt lat="45.50327" lon="6.56332">
        <ele>552.4</ele>
        <time>2021-05-28T12:59:59Z</time>
      </trkpt>
      <trkpt lat="45.50333" lon="6.56333">
        <ele>552.4</ele>
        <time>2021-05-28T13:00:00Z</time>
      </trkpt>
      <trkpt lat="45.50338" lon="6.56333">
        <ele>552</ele>
        <time>2021-05-28T13:00:01Z</time>
      </trkpt>
      <trkpt lat="45.50343" lon="6.56334">
        <ele>551.8</ele>
        <time>2021-05-28T13:00:02Z</time>
      </trkpt>
      <trkpt lat="45.50349" lon="6.56333">
        <ele>552</ele>
        <time>2021-05-28T13:00:03Z</time>
      </trkpt>
      <trkpt lat="45.50353" lon="6.56334">
        <ele>552</ele>
        <time>2021-05-28T13:00:04Z</time>
      </trkpt>
      <trkpt lat="45.50358" lon="6.56334">
        <ele>552.4</ele>
        <time>2021-05-28T13:00:05Z</time>
      </trkpt>
      <trkpt lat="45.50362" lon="6.56335">
        <ele>552.6</ele>
        <time>2021-05-28T13:00:06Z</time>
      </trkpt>
      <trkpt lat="45.50367" lon="6.56335">
        <ele>552.8</ele>
        <time>2021-05-28T13:00:07Z</time>
      </trkpt>
      <trkpt lat="45.50371" lon="6.56336">
        <ele>552.8</ele>
        <time>2021-05-28T13:00:08Z</time>
      </trkpt>
      <trkpt lat="45.50376" lon="6.56336">
        <ele>553</ele>
        <time>2021-05-28T13:00:09Z</time>
      </trkpt>
      <trkpt lat="45.50381" lon="6.56337">
        <ele>553</ele>
        <time>2021-05-28T13:00:10Z</time>
      </trkpt>
      <trkpt lat="45.50385" lon="6.56337">
        <ele>553.4</ele>
        <time>2021-05-28T13:00:11Z</time>
      </trkpt>
      <trkpt lat="45.5039" lon="6.56337">
        <ele>553.6</ele>
        <time>2021-05-28T13:00:12Z</time>
      </trkpt>
      <trkpt lat="45.50395" lon="6.56338">
        <ele>553.8</ele>
        <time>2021-05-28T13:00:13Z</time>
      </trkpt>
      <trkpt lat="45.50399" lon="6.56338">
        <ele>554.4</ele>
        <time>2021-05-28T13:00:14Z</time>
      </trkpt>
      <trkpt lat="45.50404" lon="6.56339">
        <ele>554.6</ele>
        <time>2021-05-28T13:00:15Z</time>
      </trkpt>
      <trkpt lat="45.50408" lon="6.56339">
        <ele>555.2</ele>
        <time>2021-05-28T13:00:16Z</time>
      </trkpt>
      <trkpt lat="45.50413" lon="6.56339">
        <ele>555.4</ele>
        <time>2021-05-28T13:00:17Z</time>
      </trkpt>
      <trkpt lat="45.50417" lon="6.56339">
        <ele>555.6</ele>
        <time>2021-05-28T13:00:18Z</time>
      </trkpt>
      <trkpt lat="45.50422" lon="6.56339">
        <ele>555.6</ele>
        <time>2021-05-28T13:00:19Z</time>
      </trkpt>
      <trkpt lat="45.50427" lon="6.5634">
        <ele>555.6</ele>
        <time>2021-05-28T13:00:20Z</time>
      </trkpt>
      <trkpt lat="45.50431" lon="6.5634">
        <ele>555.6</ele>
        <time>2021-05-28T13:00:21Z</time>
      </trkpt>
      <trkpt lat="45.50436" lon="6.5634">
        <ele>555.6</ele>
        <time>2021-05-28T13:00:22Z</time>
      </trkpt>
      <trkpt lat="45.50441" lon="6.5634">
        <ele>555.8</ele>
        <time>2021-05-28T13:00:23Z</time>
      </trkpt>
      <trkpt lat="45.50446" lon="6.5634">
        <ele>556.2</ele>
        <time>2021-05-28T13:00:24Z</time>
      </trkpt>
      <trkpt lat="45.50451" lon="6.5634">
        <ele>556.4</ele>
        <time>2021-05-28T13:00:25Z</time>
      </trkpt>
      <trkpt lat="45.50456" lon="6.5634">
        <ele>556.8</ele>
        <time>2021-05-28T13:00:26Z</time>
      </trkpt>
      <trkpt lat="45.5046" lon="6.56341">
        <ele>557.2</ele>
        <time>2021-05-28T13:00:27Z</time>
      </trkpt>
      <trkpt lat="45.50466" lon="6.56341">
        <ele>557.6</ele>
        <time>2021-05-28T13:00:28Z</time>
      </trkpt>
      <trkpt lat="45.50471" lon="6.56342">
        <ele>557.8</ele>
        <time>2021-05-28T13:00:29Z</time>
      </trkpt>
      <trkpt lat="45.50476" lon="6.56342">
        <ele>558</ele>
        <time>2021-05-28T13:00:30Z</time>
      </trkpt>
      <trkpt lat="45.50481" lon="6.56342">
        <ele>558</ele>
        <time>2021-05-28T13:00:31Z</time>
      </trkpt>
      <trkpt lat="45.50486" lon="6.56343">
        <ele>558</ele>
        <time>2021-05-28T13:00:32Z</time>
      </trkpt>
      <trkpt lat="45.50492" lon="6.56345">
        <ele>558.2</ele>
        <time>2021-05-28T13:00:33Z</time>
      </trkpt>
      <trkpt lat="45.50497" lon="6.56346">
        <ele>558.6</ele>
        <time>2021-05-28T13:00:34Z</time>
      </trkpt>
      <trkpt lat="45.50503" lon="6.56347">
        <ele>558.6</ele>
        <time>2021-05-28T13:00:35Z</time>
      </trkpt>
      <trkpt lat="45.50508" lon="6.56347">
        <ele>559</ele>
        <time>2021-05-28T13:00:36Z</time>
      </trkpt>
      <trkpt lat="45.50512" lon="6.56346">
        <ele>559.4</ele>
        <time>2021-05-28T13:00:37Z</time>
      </trkpt>
      <trkpt lat="45.50517" lon="6.56346">
        <ele>559.6</ele>
        <time>2021-05-28T13:00:38Z</time>
      </trkpt>
      <trkpt lat="45.50522" lon="6.56345">
        <ele>560</ele>
        <time>2021-05-28T13:00:39Z</time>
      </trkpt>
      <trkpt lat="45.50528" lon="6.56344">
        <ele>560</ele>
        <time>2021-05-28T13:00:40Z</time>
      </trkpt>
      <trkpt lat="45.50532" lon="6.56343">
        <ele>560.2</ele>
        <time>2021-05-28T13:00:41Z</time>
      </trkpt>
      <trkpt lat="45.50537" lon="6.56343">
        <ele>560.6</ele>
        <time>2021-05-28T13:00:42Z</time>
      </trkpt>
      <trkpt lat="45.50542" lon="6.56343">
        <ele>560.8</ele>
        <time>2021-05-28T13:00:43Z</time>
      </trkpt>
      <trkpt lat="45.50548" lon="6.56343">
        <ele>561.2</ele>
        <time>2021-05-28T13:00:44Z</time>
      </trkpt>
      <trkpt lat="45.50554" lon="6.56344">
        <ele>561.2</ele>
        <time>2021-05-28T13:00:45Z</time>
      </trkpt>
      <trkpt lat="45.5056" lon="6.56345">
        <ele>561.4</ele>
        <time>2021-05-28T13:00:46Z</time>
      </trkpt>
      <trkpt lat="45.50566" lon="6.56346">
        <ele>561.6</ele>
        <time>2021-05-28T13:00:47Z</time>
      </trkpt>
      <trkpt lat="45.50572" lon="6.56347">
        <ele>561.8</ele>
        <time>2021-05-28T13:00:48Z</time>
      </trkpt>
      <trkpt lat="45.50578" lon="6.56348">
        <ele>562.2</ele>
        <time>2021-05-28T13:00:49Z</time>
      </trkpt>
      <trkpt lat="45.50584" lon="6.56349">
        <ele>562.2</ele>
        <time>2021-05-28T13:00:50Z</time>
      </trkpt>
      <trkpt lat="45.5059" lon="6.5635">
        <ele>562.4</ele>
        <time>2021-05-28T13:00:51Z</time>
      </trkpt>
      <trkpt lat="45.50596" lon="6.56351">
        <ele>562.6</ele>
        <time>2021-05-28T13:00:52Z</time>
      </trkpt>
      <trkpt lat="45.50602" lon="6.56353">
        <ele>562.8</ele>
        <time>2021-05-28T13:00:53Z</time>
      </trkpt>
      <trkpt lat="45.50608" lon="6.56354">
        <ele>562.8</ele>
        <time>2021-05-28T13:00:54Z</time>
      </trkpt>
      <trkpt lat="45.50613" lon="6.56356">
        <ele>563</ele>
        <time>2021-05-28T13:00:55Z</time>
      </trkpt>
      <trkpt lat="45.5062" lon="6.56359">
        <ele>563.2</ele>
        <time>2021-05-28T13:00:56Z</time>
      </trkpt>
      <trkpt lat="45.50625" lon="6.56361">
        <ele>563.2</ele>
        <time>2021-05-28T13:00:57Z</time>
      </trkpt>
      <trkpt lat="45.50631" lon="6.56364">
        <ele>563.2</ele>
        <time>2021-05-28T13:00:58Z</time>
      </trkpt>
      <trkpt lat="45.50637" lon="6.56367">
        <ele>563.4</ele>
        <time>2021-05-28T13:00:59Z</time>
      </trkpt>
      <trkpt lat="45.50644" lon="6.56371">
        <ele>563.6</ele>
        <time>2021-05-28T13:01:00Z</time>
      </trkpt>
      <trkpt lat="45.50649" lon="6.56375">
        <ele>563.4</ele>
        <time>2021-05-28T13:01:01Z</time>
      </trkpt>
      <trkpt lat="45.50655" lon="6.56379">
        <ele>563.4</ele>
        <time>2021-05-28T13:01:02Z</time>
      </trkpt>
      <trkpt lat="45.5066" lon="6.56383">
        <ele>563.6</ele>
        <time>2021-05-28T13:01:03Z</time>
      </trkpt>
      <trkpt lat="45.50665" lon="6.56386">
        <ele>563.4</ele>
        <time>2021-05-28T13:01:04Z</time>
      </trkpt>
      <trkpt lat="45.50669" lon="6.5639">
        <ele>563.8</ele>
        <time>2021-05-28T13:01:05Z</time>
      </trkpt>
      <trkpt lat="45.50675" lon="6.56394">
        <ele>563.8</ele>
        <time>2021-05-28T13:01:06Z</time>
      </trkpt>
      <trkpt lat="45.50679" lon="6.56398">
        <ele>563.4</ele>
        <time>2021-05-28T13:01:07Z</time>
      </trkpt>
      <trkpt lat="45.50683" lon="6.56403">
        <ele>563</ele>
        <time>2021-05-28T13:01:08Z</time>
      </trkpt>
      <trkpt lat="45.50687" lon="6.56407">
        <ele>562.8</ele>
        <time>2021-05-28T13:01:09Z</time>
      </trkpt>
      <trkpt lat="45.50691" lon="6.56411">
        <ele>562.4</ele>
        <time>2021-05-28T13:01:10Z</time>
      </trkpt>
      <trkpt lat="45.50695" lon="6.56415">
        <ele>562.2</ele>
        <time>2021-05-28T13:01:11Z</time>
      </trkpt>
      <trkpt lat="45.50699" lon="6.56418">
        <ele>562</ele>
        <time>2021-05-28T13:01:12Z</time>
      </trkpt>
      <trkpt lat="45.50702" lon="6.56422">
        <ele>561.6</ele>
        <time>2021-05-28T13:01:13Z</time>
      </trkpt>
      <trkpt lat="45.50705" lon="6.56425">
        <ele>561.2</ele>
        <time>2021-05-28T13:01:14Z</time>
      </trkpt>
      <trkpt lat="45.50708" lon="6.56428">
        <ele>561</ele>
        <time>2021-05-28T13:01:15Z</time>
      </trkpt>
      <trkpt lat="45.5071" lon="6.56431">
        <ele>560.8</ele>
        <time>2021-05-28T13:01:16Z</time>
      </trkpt>
      <trkpt lat="45.50712" lon="6.56433">
        <ele>560.6</ele>
        <time>2021-05-28T13:01:17Z</time>
      </trkpt>
      <trkpt lat="45.50715" lon="6.56435">
        <ele>560.4</ele>
        <time>2021-05-28T13:01:18Z</time>
      </trkpt>
      <trkpt lat="45.50716" lon="6.56437">
        <ele>560</ele>
        <time>2021-05-28T13:01:19Z</time>
      </trkpt>
      <trkpt lat="45.50717" lon="6.56439">
        <ele>559.6</ele>
        <time>2021-05-28T13:01:20Z</time>
      </trkpt>
      <trkpt lat="45.50719" lon="6.5644">
        <ele>559.4</ele>
        <time>2021-05-28T13:01:21Z</time>
      </trkpt>
      <trkpt lat="45.50721" lon="6.56441">
        <ele>559.2</ele>
        <time>2021-05-28T13:01:22Z</time>
      </trkpt>
      <trkpt lat="45.50722" lon="6.56445">
        <ele>558.4</ele>
        <time>2021-05-28T13:01:25Z</time>
      </trkpt>
      <trkpt lat="45.50723" lon="6.56447">
        <ele>557.8</ele>
        <time>2021-05-28T13:01:27Z</time>
      </trkpt>
      <trkpt lat="45.50724" lon="6.56448">
        <ele>557.4</ele>
        <time>2021-05-28T13:01:28Z</time>
      </trkpt>
      <trkpt lat="45.50726" lon="6.5645">
        <ele>557.2</ele>
        <time>2021-05-28T13:01:29Z</time>
      </trkpt>
      <trkpt lat="45.50729" lon="6.56453">
        <ele>557</ele>
        <time>2021-05-28T13:01:30Z</time>
      </trkpt>
      <trkpt lat="45.50731" lon="6.56456">
        <ele>556.8</ele>
        <time>2021-05-28T13:01:31Z</time>
      </trkpt>
      <trkpt lat="45.50733" lon="6.56458">
        <ele>556.6</ele>
        <time>2021-05-28T13:01:32Z</time>
      </trkpt>
      <trkpt lat="45.50735" lon="6.56461">
        <ele>556.4</ele>
        <time>2021-05-28T13:01:33Z</time>
      </trkpt>
      <trkpt lat="45.50739" lon="6.56464">
        <ele>556.2</ele>
        <time>2021-05-28T13:01:34Z</time>
      </trkpt>
      <trkpt lat="45.50742" lon="6.56468">
        <ele>555.8</ele>
        <time>2021-05-28T13:01:35Z</time>
      </trkpt>
      <trkpt lat="45.50745" lon="6.56472">
        <ele>555.6</ele>
        <time>2021-05-28T13:01:36Z</time>
      </trkpt>
      <trkpt lat="45.50749" lon="6.56476">
        <ele>555.6</ele>
        <time>2021-05-28T13:01:37Z</time>
      </trkpt>
      <trkpt lat="45.50753" lon="6.5648">
        <ele>555.8</ele>
        <time>2021-05-28T13:01:38Z</time>
      </trkpt>
      <trkpt lat="45.50756" lon="6.56484">
        <ele>555.8</ele>
        <time>2021-05-28T13:01:39Z</time>
      </trkpt>
      <trkpt lat="45.5076" lon="6.56489">
        <ele>555.8</ele>
        <time>2021-05-28T13:01:40Z</time>
      </trkpt>
      <trkpt lat="45.50763" lon="6.56494">
        <ele>556.2</ele>
        <time>2021-05-28T13:01:41Z</time>
      </trkpt>
      <trkpt lat="45.50767" lon="6.56498">
        <ele>557</ele>
        <time>2021-05-28T13:01:42Z</time>
      </trkpt>
      <trkpt lat="45.50771" lon="6.56503">
        <ele>557.4</ele>
        <time>2021-05-28T13:01:43Z</time>
      </trkpt>
      <trkpt lat="45.50775" lon="6.56506">
        <ele>557.6</ele>
        <time>2021-05-28T13:01:44Z</time>
      </trkpt>
      <trkpt lat="45.50777" lon="6.56507">
        <ele>557.8</ele>
        <time>2021-05-28T13:01:45Z</time>
      </trkpt>
      <trkpt lat="45.5078" lon="6.56508">
        <ele>557.6</ele>
        <time>2021-05-28T13:01:46Z</time>
      </trkpt>
      <trkpt lat="45.50782" lon="6.5651">
        <ele>557.6</ele>
        <time>2021-05-28T13:01:47Z</time>
      </trkpt>
      <trkpt lat="45.50785" lon="6.56511">
        <ele>557.2</ele>
        <time>2021-05-28T13:01:48Z</time>
      </trkpt>
      <trkpt lat="45.50787" lon="6.56511">
        <ele>557</ele>
        <time>2021-05-28T13:01:49Z</time>
      </trkpt>
      <trkpt lat="45.5079" lon="6.56514">
        <ele>556.6</ele>
        <time>2021-05-28T13:01:50Z</time>
      </trkpt>
      <trkpt lat="45.50794" lon="6.56518">
        <ele>556.4</ele>
        <time>2021-05-28T13:01:51Z</time>
      </trkpt>
      <trkpt lat="45.50797" lon="6.56521">
        <ele>556.6</ele>
        <time>2021-05-28T13:01:52Z</time>
      </trkpt>
      <trkpt lat="45.508" lon="6.56525">
        <ele>556.4</ele>
        <time>2021-05-28T13:01:53Z</time>
      </trkpt>
      <trkpt lat="45.50804" lon="6.56528">
        <ele>556.6</ele>
        <time>2021-05-28T13:01:54Z</time>
      </trkpt>
      <trkpt lat="45.50807" lon="6.56531">
        <ele>557</ele>
        <time>2021-05-28T13:01:55Z</time>
      </trkpt>
      <trkpt lat="45.5081" lon="6.56533">
        <ele>557</ele>
        <time>2021-05-28T13:01:56Z</time>
      </trkpt>
      <trkpt lat="45.50812" lon="6.56534">
        <ele>557.2</ele>
        <time>2021-05-28T13:01:57Z</time>
      </trkpt>
      <trkpt lat="45.50815" lon="6.56537">
        <ele>557.2</ele>
        <time>2021-05-28T13:01:58Z</time>
      </trkpt>
      <trkpt lat="45.50818" lon="6.56539">
        <ele>557.6</ele>
        <time>2021-05-28T13:01:59Z</time>
      </trkpt>
      <trkpt lat="45.50821" lon="6.5654">
        <ele>558.2</ele>
        <time>2021-05-28T13:02:00Z</time>
      </trkpt>
      <trkpt lat="45.50825" lon="6.56542">
        <ele>558.6</ele>
        <time>2021-05-28T13:02:01Z</time>
      </trkpt>
      <trkpt lat="45.50829" lon="6.56544">
        <ele>559.2</ele>
        <time>2021-05-28T13:02:02Z</time>
      </trkpt>
      <trkpt lat="45.50834" lon="6.56545">
        <ele>560</ele>
        <time>2021-05-28T13:02:03Z</time>
      </trkpt>
      <trkpt lat="45.50838" lon="6.56546">
        <ele>560.6</ele>
        <time>2021-05-28T13:02:04Z</time>
      </trkpt>
      <trkpt lat="45.50842" lon="6.56547">
        <ele>561.2</ele>
        <time>2021-05-28T13:02:05Z</time>
      </trkpt>
      <trkpt lat="45.50846" lon="6.56547">
        <ele>561.8</ele>
        <time>2021-05-28T13:02:06Z</time>
      </trkpt>
      <trkpt lat="45.50851" lon="6.56547">
        <ele>562.4</ele>
        <time>2021-05-28T13:02:07Z</time>
      </trkpt>
      <trkpt lat="45.50856" lon="6.56548">
        <ele>563.2</ele>
        <time>2021-05-28T13:02:08Z</time>
      </trkpt>
      <trkpt lat="45.50861" lon="6.5655">
        <ele>564</ele>
        <time>2021-05-28T13:02:09Z</time>
      </trkpt>
      <trkpt lat="45.50865" lon="6.56549">
        <ele>564.6</ele>
        <time>2021-05-28T13:02:10Z</time>
      </trkpt>
      <trkpt lat="45.50868" lon="6.56549">
        <ele>565.4</ele>
        <time>2021-05-28T13:02:11Z</time>
      </trkpt>
      <trkpt lat="45.50873" lon="6.56548">
        <ele>566</ele>
        <time>2021-05-28T13:02:12Z</time>
      </trkpt>
      <trkpt lat="45.50878" lon="6.56549">
        <ele>566.8</ele>
        <time>2021-05-28T13:02:13Z</time>
      </trkpt>
      <trkpt lat="45.50882" lon="6.56548">
        <ele>567.2</ele>
        <time>2021-05-28T13:02:14Z</time>
      </trkpt>
      <trkpt lat="45.50885" lon="6.56547">
        <ele>567.6</ele>
        <time>2021-05-28T13:02:15Z</time>
      </trkpt>
      <trkpt lat="45.50889" lon="6.56546">
        <ele>568.2</ele>
        <time>2021-05-28T13:02:16Z</time>
      </trkpt>
      <trkpt lat="45.50893" lon="6.56546">
        <ele>568.4</ele>
        <time>2021-05-28T13:02:17Z</time>
      </trkpt>
      <trkpt lat="45.50896" lon="6.56546">
        <ele>568.8</ele>
        <time>2021-05-28T13:02:18Z</time>
      </trkpt>
      <trkpt lat="45.50901" lon="6.56546">
        <ele>569</ele>
        <time>2021-05-28T13:02:19Z</time>
      </trkpt>
      <trkpt lat="45.50905" lon="6.56546">
        <ele>569.2</ele>
        <time>2021-05-28T13:02:20Z</time>
      </trkpt>
      <trkpt lat="45.50908" lon="6.56545">
        <ele>569.4</ele>
        <time>2021-05-28T13:02:21Z</time>
      </trkpt>
      <trkpt lat="45.50911" lon="6.56543">
        <ele>569.6</ele>
        <time>2021-05-28T13:02:22Z</time>
      </trkpt>
      <trkpt lat="45.50915" lon="6.56544">
        <ele>569.6</ele>
        <time>2021-05-28T13:02:23Z</time>
      </trkpt>
      <trkpt lat="45.50919" lon="6.56545">
        <ele>569.8</ele>
        <time>2021-05-28T13:02:24Z</time>
      </trkpt>
      <trkpt lat="45.50923" lon="6.56544">
        <ele>569.8</ele>
        <time>2021-05-28T13:02:25Z</time>
      </trkpt>
      <trkpt lat="45.50927" lon="6.56544">
        <ele>570</ele>
        <time>2021-05-28T13:02:26Z</time>
      </trkpt>
      <trkpt lat="45.5093" lon="6.56542">
        <ele>570.2</ele>
        <time>2021-05-28T13:02:27Z</time>
      </trkpt>
      <trkpt lat="45.50933" lon="6.5654">
        <ele>570.2</ele>
        <time>2021-05-28T13:02:28Z</time>
      </trkpt>
      <trkpt lat="45.50937" lon="6.56539">
        <ele>570.4</ele>
        <time>2021-05-28T13:02:29Z</time>
      </trkpt>
      <trkpt lat="45.50941" lon="6.56538">
        <ele>570.4</ele>
        <time>2021-05-28T13:02:30Z</time>
      </trkpt>
      <trkpt lat="45.50945" lon="6.56537">
        <ele>570.6</ele>
        <time>2021-05-28T13:02:31Z</time>
      </trkpt>
      <trkpt lat="45.50948" lon="6.56536">
        <ele>570.6</ele>
        <time>2021-05-28T13:02:32Z</time>
      </trkpt>
      <trkpt lat="45.50951" lon="6.56535">
        <ele>570.6</ele>
        <time>2021-05-28T13:02:33Z</time>
      </trkpt>
      <trkpt lat="45.50955" lon="6.56534">
        <ele>570.8</ele>
        <time>2021-05-28T13:02:34Z</time>
      </trkpt>
      <trkpt lat="45.50959" lon="6.56533">
        <ele>571.2</ele>
        <time>2021-05-28T13:02:35Z</time>
      </trkpt>
      <trkpt lat="45.50963" lon="6.56532">
        <ele>571.6</ele>
        <time>2021-05-28T13:02:36Z</time>
      </trkpt>
      <trkpt lat="45.50966" lon="6.56531">
        <ele>571.8</ele>
        <time>2021-05-28T13:02:37Z</time>
      </trkpt>
      <trkpt lat="45.50971" lon="6.5653">
        <ele>572.2</ele>
        <time>2021-05-28T13:02:38Z</time>
      </trkpt>
      <trkpt lat="45.50975" lon="6.5653">
        <ele>572.6</ele>
        <time>2021-05-28T13:02:39Z</time>
      </trkpt>
      <trkpt lat="45.50979" lon="6.56529">
        <ele>573</ele>
        <time>2021-05-28T13:02:40Z</time>
      </trkpt>
      <trkpt lat="45.50984" lon="6.56529">
        <ele>573.6</ele>
        <time>2021-05-28T13:02:41Z</time>
      </trkpt>
      <trkpt lat="45.50988" lon="6.56529">
        <ele>574</ele>
        <time>2021-05-28T13:02:42Z</time>
      </trkpt>
      <trkpt lat="45.50993" lon="6.56529">
        <ele>574.6</ele>
        <time>2021-05-28T13:02:43Z</time>
      </trkpt>
      <trkpt lat="45.50997" lon="6.56528">
        <ele>575</ele>
        <time>2021-05-28T13:02:44Z</time>
      </trkpt>
      <trkpt lat="45.51001" lon="6.56528">
        <ele>575.2</ele>
        <time>2021-05-28T13:02:45Z</time>
      </trkpt>
      <trkpt lat="45.51005" lon="6.56527">
        <ele>575.6</ele>
        <time>2021-05-28T13:02:46Z</time>
      </trkpt>
      <trkpt lat="45.51009" lon="6.56527">
        <ele>576</ele>
        <time>2021-05-28T13:02:47Z</time>
      </trkpt>
      <trkpt lat="45.51014" lon="6.56527">
        <ele>576.6</ele>
        <time>2021-05-28T13:02:48Z</time>
      </trkpt>
      <trkpt lat="45.51019" lon="6.56526">
        <ele>577.2</ele>
        <time>2021-05-28T13:02:49Z</time>
      </trkpt>
      <trkpt lat="45.51023" lon="6.56525">
        <ele>577.6</ele>
        <time>2021-05-28T13:02:50Z</time>
      </trkpt>
      <trkpt lat="45.51028" lon="6.56526">
        <ele>577.8</ele>
        <time>2021-05-28T13:02:51Z</time>
      </trkpt>
      <trkpt lat="45.51032" lon="6.56527">
        <ele>578.4</ele>
        <time>2021-05-28T13:02:52Z</time>
      </trkpt>
      <trkpt lat="45.51037" lon="6.56528">
        <ele>578.8</ele>
        <time>2021-05-28T13:02:53Z</time>
      </trkpt>
      <trkpt lat="45.51042" lon="6.5653">
        <ele>579.2</ele>
        <time>2021-05-28T13:02:54Z</time>
      </trkpt>
      <trkpt lat="45.51046" lon="6.5653">
        <ele>579.6</ele>
        <time>2021-05-28T13:02:55Z</time>
      </trkpt>
      <trkpt lat="45.51051" lon="6.56531">
        <ele>580.2</ele>
        <time>2021-05-28T13:02:56Z</time>
      </trkpt>
      <trkpt lat="45.51055" lon="6.56531">
        <ele>580.8</ele>
        <time>2021-05-28T13:02:57Z</time>
      </trkpt>
      <trkpt lat="45.51059" lon="6.56531">
        <ele>581.2</ele>
        <time>2021-05-28T13:02:58Z</time>
      </trkpt>
      <trkpt lat="45.51064" lon="6.56532">
        <ele>581.6</ele>
        <time>2021-05-28T13:02:59Z</time>
      </trkpt>
      <trkpt lat="45.51066" lon="6.56528">
        <ele>581.8</ele>
        <time>2021-05-28T13:03:00Z</time>
      </trkpt>
      <trkpt lat="45.5107" lon="6.56526">
        <ele>582.2</ele>
        <time>2021-05-28T13:03:01Z</time>
      </trkpt>
      <trkpt lat="45.51074" lon="6.56526">
        <ele>582.6</ele>
        <time>2021-05-28T13:03:02Z</time>
      </trkpt>
      <trkpt lat="45.51078" lon="6.56526">
        <ele>582.6</ele>
        <time>2021-05-28T13:03:03Z</time>
      </trkpt>
      <trkpt lat="45.51082" lon="6.56527">
        <ele>582.8</ele>
        <time>2021-05-28T13:03:04Z</time>
      </trkpt>
      <trkpt lat="45.51087" lon="6.56529">
        <ele>583</ele>
        <time>2021-05-28T13:03:05Z</time>
      </trkpt>
      <trkpt lat="45.51091" lon="6.5653">
        <ele>583.4</ele>
        <time>2021-05-28T13:03:06Z</time>
      </trkpt>
      <trkpt lat="45.51095" lon="6.56532">
        <ele>583.6</ele>
        <time>2021-05-28T13:03:07Z</time>
      </trkpt>
      <trkpt lat="45.51099" lon="6.56533">
        <ele>583.8</ele>
        <time>2021-05-28T13:03:08Z</time>
      </trkpt>
      <trkpt lat="45.51102" lon="6.56535">
        <ele>583.8</ele>
        <time>2021-05-28T13:03:09Z</time>
      </trkpt>
      <trkpt lat="45.51106" lon="6.56536">
        <ele>584</ele>
        <time>2021-05-28T13:03:10Z</time>
      </trkpt>
      <trkpt lat="45.5111" lon="6.56538">
        <ele>584.2</ele>
        <time>2021-05-28T13:03:11Z</time>
      </trkpt>
      <trkpt lat="45.51114" lon="6.56539">
        <ele>584.2</ele>
        <time>2021-05-28T13:03:12Z</time>
      </trkpt>
      <trkpt lat="45.51118" lon="6.5654">
        <ele>584.2</ele>
        <time>2021-05-28T13:03:13Z</time>
      </trkpt>
      <trkpt lat="45.51122" lon="6.56541">
        <ele>584.4</ele>
        <time>2021-05-28T13:03:14Z</time>
      </trkpt>
      <trkpt lat="45.51126" lon="6.56543">
        <ele>584.6</ele>
        <time>2021-05-28T13:03:15Z</time>
      </trkpt>
      <trkpt lat="45.5113" lon="6.56545">
        <ele>584.6</ele>
        <time>2021-05-28T13:03:16Z</time>
      </trkpt>
      <trkpt lat="45.51134" lon="6.56546">
        <ele>584.8</ele>
        <time>2021-05-28T13:03:17Z</time>
      </trkpt>
      <trkpt lat="45.51138" lon="6.56548">
        <ele>585</ele>
        <time>2021-05-28T13:03:18Z</time>
      </trkpt>
      <trkpt lat="45.51142" lon="6.56549">
        <ele>585</ele>
        <time>2021-05-28T13:03:19Z</time>
      </trkpt>
      <trkpt lat="45.51147" lon="6.56552">
        <ele>585</ele>
        <time>2021-05-28T13:03:20Z</time>
      </trkpt>
      <trkpt lat="45.51151" lon="6.56553">
        <ele>584.8</ele>
        <time>2021-05-28T13:03:21Z</time>
      </trkpt>
      <trkpt lat="45.51155" lon="6.56556">
        <ele>584.6</ele>
        <time>2021-05-28T13:03:22Z</time>
      </trkpt>
      <trkpt lat="45.51158" lon="6.56558">
        <ele>584.4</ele>
        <time>2021-05-28T13:03:23Z</time>
      </trkpt>
      <trkpt lat="45.51162" lon="6.5656">
        <ele>584</ele>
        <time>2021-05-28T13:03:24Z</time>
      </trkpt>
      <trkpt lat="45.51166" lon="6.56562">
        <ele>583.8</ele>
        <time>2021-05-28T13:03:25Z</time>
      </trkpt>
      <trkpt lat="45.5117" lon="6.56564">
        <ele>583.2</ele>
        <time>2021-05-28T13:03:26Z</time>
      </trkpt>
      <trkpt lat="45.51174" lon="6.56567">
        <ele>582.6</ele>
        <time>2021-05-28T13:03:27Z</time>
      </trkpt>
      <trkpt lat="45.51178" lon="6.56569">
        <ele>582.2</ele>
        <time>2021-05-28T13:03:28Z</time>
      </trkpt>
      <trkpt lat="45.51182" lon="6.56572">
        <ele>581.8</ele>
        <time>2021-05-28T13:03:29Z</time>
      </trkpt>
      <trkpt lat="45.51186" lon="6.56574">
        <ele>581.4</ele>
        <time>2021-05-28T13:03:30Z</time>
      </trkpt>
      <trkpt lat="45.5119" lon="6.56577">
        <ele>581</ele>
        <time>2021-05-28T13:03:31Z</time>
      </trkpt>
      <trkpt lat="45.51194" lon="6.56579">
        <ele>580.8</ele>
        <time>2021-05-28T13:03:32Z</time>
      </trkpt>
      <trkpt lat="45.51198" lon="6.56582">
        <ele>580.8</ele>
        <time>2021-05-28T13:03:33Z</time>
      </trkpt>
      <trkpt lat="45.51202" lon="6.56584">
        <ele>580.6</ele>
        <time>2021-05-28T13:03:34Z</time>
      </trkpt>
      <trkpt lat="45.51206" lon="6.56587">
        <ele>580.4</ele>
        <time>2021-05-28T13:03:35Z</time>
      </trkpt>
      <trkpt lat="45.5121" lon="6.5659">
        <ele>580.2</ele>
        <time>2021-05-28T13:03:36Z</time>
      </trkpt>
      <trkpt lat="45.51214" lon="6.56592">
        <ele>580</ele>
        <time>2021-05-28T13:03:37Z</time>
      </trkpt>
      <trkpt lat="45.51218" lon="6.56595">
        <ele>580</ele>
        <time>2021-05-28T13:03:38Z</time>
      </trkpt>
      <trkpt lat="45.51221" lon="6.56598">
        <ele>579.8</ele>
        <time>2021-05-28T13:03:39Z</time>
      </trkpt>
      <trkpt lat="45.51225" lon="6.566">
        <ele>579.6</ele>
        <time>2021-05-28T13:03:40Z</time>
      </trkpt>
      <trkpt lat="45.51229" lon="6.56603">
        <ele>579.6</ele>
        <time>2021-05-28T13:03:41Z</time>
      </trkpt>
      <trkpt lat="45.51233" lon="6.56605">
        <ele>579.4</ele>
        <time>2021-05-28T13:03:42Z</time>
      </trkpt>
      <trkpt lat="45.51237" lon="6.56609">
        <ele>579.4</ele>
        <time>2021-05-28T13:03:43Z</time>
      </trkpt>
      <trkpt lat="45.51241" lon="6.56611">
        <ele>579.6</ele>
        <time>2021-05-28T13:03:44Z</time>
      </trkpt>
      <trkpt lat="45.51245" lon="6.56613">
        <ele>580</ele>
        <time>2021-05-28T13:03:45Z</time>
      </trkpt>
      <trkpt lat="45.51248" lon="6.56616">
        <ele>580.2</ele>
        <time>2021-05-28T13:03:46Z</time>
      </trkpt>
      <trkpt lat="45.51252" lon="6.56619">
        <ele>580.2</ele>
        <time>2021-05-28T13:03:47Z</time>
      </trkpt>
      <trkpt lat="45.51256" lon="6.56622">
        <ele>580.4</ele>
        <time>2021-05-28T13:03:48Z</time>
      </trkpt>
      <trkpt lat="45.5126" lon="6.56624">
        <ele>580.2</ele>
        <time>2021-05-28T13:03:49Z</time>
      </trkpt>
      <trkpt lat="45.51265" lon="6.56626">
        <ele>580.4</ele>
        <time>2021-05-28T13:03:50Z</time>
      </trkpt>
      <trkpt lat="45.51268" lon="6.56629">
        <ele>580.2</ele>
        <time>2021-05-28T13:03:51Z</time>
      </trkpt>
      <trkpt lat="45.51272" lon="6.56632">
        <ele>580.4</ele>
        <time>2021-05-28T13:03:52Z</time>
      </trkpt>
      <trkpt lat="45.51276" lon="6.56635">
        <ele>580.2</ele>
        <time>2021-05-28T13:03:53Z</time>
      </trkpt>
      <trkpt lat="45.5128" lon="6.56638">
        <ele>580.2</ele>
        <time>2021-05-28T13:03:54Z</time>
      </trkpt>
      <trkpt lat="45.51284" lon="6.56641">
        <ele>580.2</ele>
        <time>2021-05-28T13:03:55Z</time>
      </trkpt>
      <trkpt lat="45.51289" lon="6.56643">
        <ele>580.2</ele>
        <time>2021-05-28T13:03:56Z</time>
      </trkpt>
      <trkpt lat="45.51293" lon="6.56646">
        <ele>580.6</ele>
        <time>2021-05-28T13:03:57Z</time>
      </trkpt>
      <trkpt lat="45.51297" lon="6.5665">
        <ele>580.6</ele>
        <time>2021-05-28T13:03:58Z</time>
      </trkpt>
      <trkpt lat="45.51301" lon="6.56653">
        <ele>580.4</ele>
        <time>2021-05-28T13:03:59Z</time>
      </trkpt>
      <trkpt lat="45.51305" lon="6.56656">
        <ele>580.4</ele>
        <time>2021-05-28T13:04:00Z</time>
      </trkpt>
      <trkpt lat="45.51309" lon="6.56659">
        <ele>580.6</ele>
        <time>2021-05-28T13:04:01Z</time>
      </trkpt>
      <trkpt lat="45.51313" lon="6.56662">
        <ele>580.8</ele>
        <time>2021-05-28T13:04:02Z</time>
      </trkpt>
      <trkpt lat="45.51317" lon="6.56665">
        <ele>581</ele>
        <time>2021-05-28T13:04:03Z</time>
      </trkpt>
      <trkpt lat="45.51321" lon="6.56668">
        <ele>581.2</ele>
        <time>2021-05-28T13:04:04Z</time>
      </trkpt>
      <trkpt lat="45.51325" lon="6.56671">
        <ele>581.6</ele>
        <time>2021-05-28T13:04:05Z</time>
      </trkpt>
      <trkpt lat="45.5133" lon="6.56674">
        <ele>582</ele>
        <time>2021-05-28T13:04:06Z</time>
      </trkpt>
      <trkpt lat="45.51335" lon="6.56677">
        <ele>582.8</ele>
        <time>2021-05-28T13:04:07Z</time>
      </trkpt>
      <trkpt lat="45.5134" lon="6.56681">
        <ele>583.4</ele>
        <time>2021-05-28T13:04:08Z</time>
      </trkpt>
      <trkpt lat="45.51344" lon="6.56685">
        <ele>583.8</ele>
        <time>2021-05-28T13:04:09Z</time>
      </trkpt>
      <trkpt lat="45.51348" lon="6.56688">
        <ele>584.2</ele>
        <time>2021-05-28T13:04:10Z</time>
      </trkpt>
      <trkpt lat="45.51354" lon="6.56693">
        <ele>584.6</ele>
        <time>2021-05-28T13:04:11Z</time>
      </trkpt>
      <trkpt lat="45.51359" lon="6.56697">
        <ele>585</ele>
        <time>2021-05-28T13:04:12Z</time>
      </trkpt>
      <trkpt lat="45.51364" lon="6.56701">
        <ele>585.6</ele>
        <time>2021-05-28T13:04:13Z</time>
      </trkpt>
      <trkpt lat="45.51368" lon="6.56705">
        <ele>586.2</ele>
        <time>2021-05-28T13:04:14Z</time>
      </trkpt>
      <trkpt lat="45.51373" lon="6.56708">
        <ele>587</ele>
        <time>2021-05-28T13:04:15Z</time>
      </trkpt>
      <trkpt lat="45.51378" lon="6.56712">
        <ele>587.6</ele>
        <time>2021-05-28T13:04:16Z</time>
      </trkpt>
      <trkpt lat="45.51383" lon="6.56717">
        <ele>588</ele>
        <time>2021-05-28T13:04:17Z</time>
      </trkpt>
      <trkpt lat="45.51388" lon="6.56721">
        <ele>588.4</ele>
        <time>2021-05-28T13:04:18Z</time>
      </trkpt>
      <trkpt lat="45.51392" lon="6.56726">
        <ele>588.6</ele>
        <time>2021-05-28T13:04:19Z</time>
      </trkpt>
      <trkpt lat="45.51398" lon="6.5673">
        <ele>588.8</ele>
        <time>2021-05-28T13:04:20Z</time>
      </trkpt>
      <trkpt lat="45.51404" lon="6.56734">
        <ele>589</ele>
        <time>2021-05-28T13:04:21Z</time>
      </trkpt>
      <trkpt lat="45.5141" lon="6.56739">
        <ele>589</ele>
        <time>2021-05-28T13:04:22Z</time>
      </trkpt>
      <trkpt lat="45.51415" lon="6.56744">
        <ele>589.4</ele>
        <time>2021-05-28T13:04:23Z</time>
      </trkpt>
      <trkpt lat="45.51421" lon="6.56749">
        <ele>589.6</ele>
        <time>2021-05-28T13:04:24Z</time>
      </trkpt>
      <trkpt lat="45.51427" lon="6.56754">
        <ele>589.8</ele>
        <time>2021-05-28T13:04:25Z</time>
      </trkpt>
      <trkpt lat="45.51433" lon="6.56761">
        <ele>589.8</ele>
        <time>2021-05-28T13:04:26Z</time>
      </trkpt>
      <trkpt lat="45.51437" lon="6.56769">
        <ele>590</ele>
        <time>2021-05-28T13:04:27Z</time>
      </trkpt>
      <trkpt lat="45.51439" lon="6.56779">
        <ele>590.2</ele>
        <time>2021-05-28T13:04:28Z</time>
      </trkpt>
      <trkpt lat="45.51438" lon="6.56788">
        <ele>590.2</ele>
        <time>2021-05-28T13:04:29Z</time>
      </trkpt>
      <trkpt lat="45.51438" lon="6.56797">
        <ele>590.2</ele>
        <time>2021-05-28T13:04:30Z</time>
      </trkpt>
      <trkpt lat="45.51438" lon="6.56803">
        <ele>590.2</ele>
        <time>2021-05-28T13:04:31Z</time>
      </trkpt>
      <trkpt lat="45.51438" lon="6.56809">
        <ele>590.2</ele>
        <time>2021-05-28T13:04:32Z</time>
      </trkpt>
      <trkpt lat="45.51438" lon="6.56812">
        <ele>590.4</ele>
        <time>2021-05-28T13:04:33Z</time>
      </trkpt>
      <trkpt lat="45.5144" lon="6.56814">
        <ele>590.4</ele>
        <time>2021-05-28T13:04:34Z</time>
      </trkpt>
      <trkpt lat="45.51442" lon="6.56815">
        <ele>590.6</ele>
        <time>2021-05-28T13:04:35Z</time>
      </trkpt>
      <trkpt lat="45.51444" lon="6.56815">
        <ele>590.6</ele>
        <time>2021-05-28T13:04:36Z</time>
      </trkpt>
      <trkpt lat="45.51446" lon="6.56814">
        <ele>590.6</ele>
        <time>2021-05-28T13:04:37Z</time>
      </trkpt>
      <trkpt lat="45.51448" lon="6.56814">
        <ele>590.6</ele>
        <time>2021-05-28T13:04:38Z</time>
      </trkpt>
      <trkpt lat="45.51452" lon="6.56812">
        <ele>591</ele>
        <time>2021-05-28T13:04:40Z</time>
      </trkpt>
      <trkpt lat="45.51455" lon="6.5681">
        <ele>591.4</ele>
        <time>2021-05-28T13:04:42Z</time>
      </trkpt>
      <trkpt lat="45.51458" lon="6.5681">
        <ele>591.4</ele>
        <time>2021-05-28T13:04:43Z</time>
      </trkpt>
      <trkpt lat="45.51461" lon="6.5681">
        <ele>591.6</ele>
        <time>2021-05-28T13:04:44Z</time>
      </trkpt>
      <trkpt lat="45.51464" lon="6.5681">
        <ele>591.6</ele>
        <time>2021-05-28T13:04:45Z</time>
      </trkpt>
      <trkpt lat="45.51468" lon="6.56813">
        <ele>591.6</ele>
        <time>2021-05-28T13:04:46Z</time>
      </trkpt>
      <trkpt lat="45.51473" lon="6.56816">
        <ele>591.2</ele>
        <time>2021-05-28T13:04:47Z</time>
      </trkpt>
      <trkpt lat="45.51479" lon="6.56821">
        <ele>590.6</ele>
        <time>2021-05-28T13:04:48Z</time>
      </trkpt>
      <trkpt lat="45.51487" lon="6.56826">
        <ele>590</ele>
        <time>2021-05-28T13:04:49Z</time>
      </trkpt>
      <trkpt lat="45.51495" lon="6.56832">
        <ele>589.6</ele>
        <time>2021-05-28T13:04:50Z</time>
      </trkpt>
      <trkpt lat="45.51502" lon="6.56837">
        <ele>588.8</ele>
        <time>2021-05-28T13:04:51Z</time>
      </trkpt>
      <trkpt lat="45.51509" lon="6.56841">
        <ele>588.4</ele>
        <time>2021-05-28T13:04:52Z</time>
      </trkpt>
      <trkpt lat="45.51516" lon="6.56844">
        <ele>588.4</ele>
        <time>2021-05-28T13:04:53Z</time>
      </trkpt>
      <trkpt lat="45.51523" lon="6.56847">
        <ele>588.4</ele>
        <time>2021-05-28T13:04:54Z</time>
      </trkpt>
      <trkpt lat="45.51529" lon="6.56849">
        <ele>588.6</ele>
        <time>2021-05-28T13:04:55Z</time>
      </trkpt>
      <trkpt lat="45.51535" lon="6.5685">
        <ele>588.8</ele>
        <time>2021-05-28T13:04:56Z</time>
      </trkpt>
      <trkpt lat="45.51541" lon="6.56852">
        <ele>589.4</ele>
        <time>2021-05-28T13:04:57Z</time>
      </trkpt>
      <trkpt lat="45.51547" lon="6.56854">
        <ele>589.8</ele>
        <time>2021-05-28T13:04:58Z</time>
      </trkpt>
      <trkpt lat="45.51553" lon="6.56856">
        <ele>590.2</ele>
        <time>2021-05-28T13:04:59Z</time>
      </trkpt>
      <trkpt lat="45.51559" lon="6.56858">
        <ele>590.2</ele>
        <time>2021-05-28T13:05:00Z</time>
      </trkpt>
      <trkpt lat="45.51565" lon="6.56859">
        <ele>590.4</ele>
        <time>2021-05-28T13:05:01Z</time>
      </trkpt>
      <trkpt lat="45.51571" lon="6.56861">
        <ele>590.6</ele>
        <time>2021-05-28T13:05:02Z</time>
      </trkpt>
      <trkpt lat="45.51577" lon="6.56863">
        <ele>590.6</ele>
        <time>2021-05-28T13:05:03Z</time>
      </trkpt>
      <trkpt lat="45.51582" lon="6.56865">
        <ele>590.8</ele>
        <time>2021-05-28T13:05:04Z</time>
      </trkpt>
      <trkpt lat="45.51588" lon="6.56867">
        <ele>590.8</ele>
        <time>2021-05-28T13:05:05Z</time>
      </trkpt>
      <trkpt lat="45.51593" lon="6.56869">
        <ele>591</ele>
        <time>2021-05-28T13:05:06Z</time>
      </trkpt>
      <trkpt lat="45.51598" lon="6.56871">
        <ele>591.2</ele>
        <time>2021-05-28T13:05:07Z</time>
      </trkpt>
      <trkpt lat="45.51604" lon="6.56873">
        <ele>591.4</ele>
        <time>2021-05-28T13:05:08Z</time>
      </trkpt>
      <trkpt lat="45.51609" lon="6.56876">
        <ele>591.6</ele>
        <time>2021-05-28T13:05:09Z</time>
      </trkpt>
      <trkpt lat="45.51615" lon="6.56878">
        <ele>591.6</ele>
        <time>2021-05-28T13:05:10Z</time>
      </trkpt>
      <trkpt lat="45.51621" lon="6.56881">
        <ele>592</ele>
        <time>2021-05-28T13:05:11Z</time>
      </trkpt>
      <trkpt lat="45.51626" lon="6.56884">
        <ele>592.2</ele>
        <time>2021-05-28T13:05:12Z</time>
      </trkpt>
      <trkpt lat="45.51632" lon="6.56887">
        <ele>592.6</ele>
        <time>2021-05-28T13:05:13Z</time>
      </trkpt>
      <trkpt lat="45.51637" lon="6.5689">
        <ele>592.8</ele>
        <time>2021-05-28T13:05:14Z</time>
      </trkpt>
      <trkpt lat="45.51643" lon="6.56894">
        <ele>593</ele>
        <time>2021-05-28T13:05:15Z</time>
      </trkpt>
      <trkpt lat="45.51648" lon="6.56897">
        <ele>593.4</ele>
        <time>2021-05-28T13:05:16Z</time>
      </trkpt>
      <trkpt lat="45.51654" lon="6.569">
        <ele>594</ele>
        <time>2021-05-28T13:05:17Z</time>
      </trkpt>
      <trkpt lat="45.51659" lon="6.56903">
        <ele>594.4</ele>
        <time>2021-05-28T13:05:18Z</time>
      </trkpt>
      <trkpt lat="45.51664" lon="6.56906">
        <ele>595</ele>
        <time>2021-05-28T13:05:19Z</time>
      </trkpt>
      <trkpt lat="45.5167" lon="6.56909">
        <ele>595.4</ele>
        <time>2021-05-28T13:05:20Z</time>
      </trkpt>
      <trkpt lat="45.51675" lon="6.56913">
        <ele>595.8</ele>
        <time>2021-05-28T13:05:21Z</time>
      </trkpt>
      <trkpt lat="45.5168" lon="6.56916">
        <ele>596</ele>
        <time>2021-05-28T13:05:22Z</time>
      </trkpt>
      <trkpt lat="45.51686" lon="6.56919">
        <ele>596.4</ele>
        <time>2021-05-28T13:05:23Z</time>
      </trkpt>
      <trkpt lat="45.51692" lon="6.56921">
        <ele>596.8</ele>
        <time>2021-05-28T13:05:24Z</time>
      </trkpt>
      <trkpt lat="45.51697" lon="6.56924">
        <ele>597.2</ele>
        <time>2021-05-28T13:05:25Z</time>
      </trkpt>
      <trkpt lat="45.51702" lon="6.56927">
        <ele>597.6</ele>
        <time>2021-05-28T13:05:26Z</time>
      </trkpt>
      <trkpt lat="45.51708" lon="6.5693">
        <ele>598</ele>
        <time>2021-05-28T13:05:27Z</time>
      </trkpt>
      <trkpt lat="45.51713" lon="6.56932">
        <ele>598.2</ele>
        <time>2021-05-28T13:05:28Z</time>
      </trkpt>
      <trkpt lat="45.51718" lon="6.56935">
        <ele>598.6</ele>
        <time>2021-05-28T13:05:29Z</time>
      </trkpt>
      <trkpt lat="45.51724" lon="6.56937">
        <ele>598.8</ele>
        <time>2021-05-28T13:05:30Z</time>
      </trkpt>
      <trkpt lat="45.5173" lon="6.56939">
        <ele>599.2</ele>
        <time>2021-05-28T13:05:31Z</time>
      </trkpt>
      <trkpt lat="45.51735" lon="6.56941">
        <ele>599.4</ele>
        <time>2021-05-28T13:05:32Z</time>
      </trkpt>
      <trkpt lat="45.51741" lon="6.56942">
        <ele>599.8</ele>
        <time>2021-05-28T13:05:33Z</time>
      </trkpt>
      <trkpt lat="45.51746" lon="6.56944">
        <ele>600</ele>
        <time>2021-05-28T13:05:34Z</time>
      </trkpt>
      <trkpt lat="45.51751" lon="6.56945">
        <ele>600.2</ele>
        <time>2021-05-28T13:05:35Z</time>
      </trkpt>
      <trkpt lat="45.51757" lon="6.56947">
        <ele>600.6</ele>
        <time>2021-05-28T13:05:36Z</time>
      </trkpt>
      <trkpt lat="45.51762" lon="6.56948">
        <ele>601</ele>
        <time>2021-05-28T13:05:37Z</time>
      </trkpt>
      <trkpt lat="45.51767" lon="6.56949">
        <ele>601.4</ele>
        <time>2021-05-28T13:05:38Z</time>
      </trkpt>
      <trkpt lat="45.51773" lon="6.5695">
        <ele>601.6</ele>
        <time>2021-05-28T13:05:39Z</time>
      </trkpt>
      <trkpt lat="45.51779" lon="6.5695">
        <ele>601.8</ele>
        <time>2021-05-28T13:05:40Z</time>
      </trkpt>
      <trkpt lat="45.51784" lon="6.56951">
        <ele>602.2</ele>
        <time>2021-05-28T13:05:41Z</time>
      </trkpt>
      <trkpt lat="45.5179" lon="6.56953">
        <ele>602.2</ele>
        <time>2021-05-28T13:05:42Z</time>
      </trkpt>
      <trkpt lat="45.51795" lon="6.56955">
        <ele>602.2</ele>
        <time>2021-05-28T13:05:43Z</time>
      </trkpt>
      <trkpt lat="45.51801" lon="6.56957">
        <ele>602.6</ele>
        <time>2021-05-28T13:05:44Z</time>
      </trkpt>
      <trkpt lat="45.51807" lon="6.5696">
        <ele>602.6</ele>
        <time>2021-05-28T13:05:45Z</time>
      </trkpt>
      <trkpt lat="45.51812" lon="6.56963">
        <ele>602.8</ele>
        <time>2021-05-28T13:05:46Z</time>
      </trkpt>
      <trkpt lat="45.51818" lon="6.56966">
        <ele>603.2</ele>
        <time>2021-05-28T13:05:47Z</time>
      </trkpt>
      <trkpt lat="45.51823" lon="6.56969">
        <ele>603.4</ele>
        <time>2021-05-28T13:05:48Z</time>
      </trkpt>
      <trkpt lat="45.51828" lon="6.56973">
        <ele>603.6</ele>
        <time>2021-05-28T13:05:49Z</time>
      </trkpt>
      <trkpt lat="45.51834" lon="6.56977">
        <ele>603.8</ele>
        <time>2021-05-28T13:05:50Z</time>
      </trkpt>
      <trkpt lat="45.51839" lon="6.56981">
        <ele>604</ele>
        <time>2021-05-28T13:05:51Z</time>
      </trkpt>
      <trkpt lat="45.51844" lon="6.56985">
        <ele>604.2</ele>
        <time>2021-05-28T13:05:52Z</time>
      </trkpt>
      <trkpt lat="45.51848" lon="6.56989">
        <ele>604.6</ele>
        <time>2021-05-28T13:05:53Z</time>
      </trkpt>
      <trkpt lat="45.51853" lon="6.56994">
        <ele>604.8</ele>
        <time>2021-05-28T13:05:54Z</time>
      </trkpt>
      <trkpt lat="45.51858" lon="6.56998">
        <ele>605</ele>
        <time>2021-05-28T13:05:55Z</time>
      </trkpt>
      <trkpt lat="45.51862" lon="6.57003">
        <ele>605</ele>
        <time>2021-05-28T13:05:56Z</time>
      </trkpt>
      <trkpt lat="45.51867" lon="6.57008">
        <ele>605.6</ele>
        <time>2021-05-28T13:05:57Z</time>
      </trkpt>
      <trkpt lat="45.51871" lon="6.57013">
        <ele>605.8</ele>
        <time>2021-05-28T13:05:58Z</time>
      </trkpt>
      <trkpt lat="45.51876" lon="6.57017">
        <ele>606</ele>
        <time>2021-05-28T13:05:59Z</time>
      </trkpt>
      <trkpt lat="45.5188" lon="6.57022">
        <ele>606.4</ele>
        <time>2021-05-28T13:06:00Z</time>
      </trkpt>
      <trkpt lat="45.51885" lon="6.57027">
        <ele>606.8</ele>
        <time>2021-05-28T13:06:01Z</time>
      </trkpt>
      <trkpt lat="45.51889" lon="6.57031">
        <ele>607</ele>
        <time>2021-05-28T13:06:02Z</time>
      </trkpt>
      <trkpt lat="45.51893" lon="6.57036">
        <ele>607.2</ele>
        <time>2021-05-28T13:06:03Z</time>
      </trkpt>
      <trkpt lat="45.51897" lon="6.5704">
        <ele>607.4</ele>
        <time>2021-05-28T13:06:04Z</time>
      </trkpt>
      <trkpt lat="45.519" lon="6.57045">
        <ele>607.8</ele>
        <time>2021-05-28T13:06:05Z</time>
      </trkpt>
      <trkpt lat="45.51905" lon="6.57049">
        <ele>608</ele>
        <time>2021-05-28T13:06:06Z</time>
      </trkpt>
      <trkpt lat="45.51909" lon="6.57054">
        <ele>608.6</ele>
        <time>2021-05-28T13:06:07Z</time>
      </trkpt>
      <trkpt lat="45.51913" lon="6.57058">
        <ele>608.8</ele>
        <time>2021-05-28T13:06:08Z</time>
      </trkpt>
      <trkpt lat="45.51917" lon="6.57062">
        <ele>608.8</ele>
        <time>2021-05-28T13:06:09Z</time>
      </trkpt>
      <trkpt lat="45.51921" lon="6.57066">
        <ele>609</ele>
        <time>2021-05-28T13:06:10Z</time>
      </trkpt>
      <trkpt lat="45.51925" lon="6.5707">
        <ele>609.4</ele>
        <time>2021-05-28T13:06:11Z</time>
      </trkpt>
      <trkpt lat="45.51929" lon="6.57076">
        <ele>609.6</ele>
        <time>2021-05-28T13:06:12Z</time>
      </trkpt>
      <trkpt lat="45.51932" lon="6.57082">
        <ele>609.8</ele>
        <time>2021-05-28T13:06:13Z</time>
      </trkpt>
      <trkpt lat="45.51934" lon="6.57089">
        <ele>609.8</ele>
        <time>2021-05-28T13:06:14Z</time>
      </trkpt>
      <trkpt lat="45.51935" lon="6.57097">
        <ele>609.8</ele>
        <time>2021-05-28T13:06:15Z</time>
      </trkpt>
      <trkpt lat="45.51935" lon="6.57105">
        <ele>609.8</ele>
        <time>2021-05-28T13:06:16Z</time>
      </trkpt>
      <trkpt lat="45.51936" lon="6.57113">
        <ele>609.8</ele>
        <time>2021-05-28T13:06:17Z</time>
      </trkpt>
      <trkpt lat="45.51937" lon="6.57121">
        <ele>610</ele>
        <time>2021-05-28T13:06:18Z</time>
      </trkpt>
      <trkpt lat="45.51939" lon="6.57128">
        <ele>610</ele>
        <time>2021-05-28T13:06:19Z</time>
      </trkpt>
      <trkpt lat="45.51941" lon="6.57134">
        <ele>610.2</ele>
        <time>2021-05-28T13:06:20Z</time>
      </trkpt>
      <trkpt lat="45.51944" lon="6.5714">
        <ele>610.4</ele>
        <time>2021-05-28T13:06:21Z</time>
      </trkpt>
      <trkpt lat="45.51947" lon="6.57145">
        <ele>610.6</ele>
        <time>2021-05-28T13:06:22Z</time>
      </trkpt>
      <trkpt lat="45.52783" lon="6.58433">
        <ele>663.2</ele>
        <time>2021-05-28T13:09:46Z</time>
      </trkpt>
      <trkpt lat="45.52781" lon="6.58435">
        <ele>663.2</ele>
        <time>2021-05-28T13:09:47Z</time>
      </trkpt>
      <trkpt lat="45.52776" lon="6.58426">
        <ele>662.8</ele>
        <time>2021-05-28T13:09:48Z</time>
      </trkpt>
      <trkpt lat="45.52774" lon="6.58419">
        <ele>662.6</ele>
        <time>2021-05-28T13:09:49Z</time>
      </trkpt>
      <trkpt lat="45.5277" lon="6.58411">
        <ele>662</ele>
        <time>2021-05-28T13:09:50Z</time>
      </trkpt>
      <trkpt lat="45.52766" lon="6.58403">
        <ele>661.8</ele>
        <time>2021-05-28T13:09:51Z</time>
      </trkpt>
      <trkpt lat="45.52762" lon="6.58395">
        <ele>661.4</ele>
        <time>2021-05-28T13:09:52Z</time>
      </trkpt>
      <trkpt lat="45.52757" lon="6.58387">
        <ele>661.2</ele>
        <time>2021-05-28T13:09:53Z</time>
      </trkpt>
      <trkpt lat="45.52752" lon="6.5838">
        <ele>661.2</ele>
        <time>2021-05-28T13:09:54Z</time>
      </trkpt>
      <trkpt lat="45.52747" lon="6.58373">
        <ele>661</ele>
        <time>2021-05-28T13:09:55Z</time>
      </trkpt>
      <trkpt lat="45.52742" lon="6.58366">
        <ele>660.8</ele>
        <time>2021-05-28T13:09:56Z</time>
      </trkpt>
      <trkpt lat="45.52738" lon="6.5836">
        <ele>660.8</ele>
        <time>2021-05-28T13:09:57Z</time>
      </trkpt>
      <trkpt lat="45.52732" lon="6.58354">
        <ele>660.6</ele>
        <time>2021-05-28T13:09:58Z</time>
      </trkpt>
      <trkpt lat="45.52727" lon="6.58347">
        <ele>660.6</ele>
        <time>2021-05-28T13:09:59Z</time>
      </trkpt>
      <trkpt lat="45.52723" lon="6.58341">
        <ele>660.6</ele>
        <time>2021-05-28T13:10:00Z</time>
      </trkpt>
      <trkpt lat="45.52717" lon="6.58335">
        <ele>660.2</ele>
        <time>2021-05-28T13:10:01Z</time>
      </trkpt>
      <trkpt lat="45.52712" lon="6.58329">
        <ele>660</ele>
        <time>2021-05-28T13:10:02Z</time>
      </trkpt>
      <trkpt lat="45.52706" lon="6.58324">
        <ele>659.8</ele>
        <time>2021-05-28T13:10:03Z</time>
      </trkpt>
      <trkpt lat="45.52701" lon="6.58318">
        <ele>659.4</ele>
        <time>2021-05-28T13:10:04Z</time>
      </trkpt>
      <trkpt lat="45.52695" lon="6.58313">
        <ele>659.2</ele>
        <time>2021-05-28T13:10:05Z</time>
      </trkpt>
      <trkpt lat="45.5269" lon="6.58307">
        <ele>659</ele>
        <time>2021-05-28T13:10:06Z</time>
      </trkpt>
      <trkpt lat="45.52685" lon="6.58301">
        <ele>658.6</ele>
        <time>2021-05-28T13:10:07Z</time>
      </trkpt>
      <trkpt lat="45.52679" lon="6.58295">
        <ele>658.4</ele>
        <time>2021-05-28T13:10:08Z</time>
      </trkpt>
      <trkpt lat="45.52675" lon="6.58289">
        <ele>658.4</ele>
        <time>2021-05-28T13:10:09Z</time>
      </trkpt>
      <trkpt lat="45.5267" lon="6.58283">
        <ele>658.4</ele>
        <time>2021-05-28T13:10:10Z</time>
      </trkpt>
      <trkpt lat="45.52665" lon="6.58277">
        <ele>658</ele>
        <time>2021-05-28T13:10:11Z</time>
      </trkpt>
      <trkpt lat="45.5266" lon="6.58271">
        <ele>657.6</ele>
        <time>2021-05-28T13:10:12Z</time>
      </trkpt>
      <trkpt lat="45.52655" lon="6.58266">
        <ele>657.4</ele>
        <time>2021-05-28T13:10:13Z</time>
      </trkpt>
      <trkpt lat="45.52651" lon="6.5826">
        <ele>657.2</ele>
        <time>2021-05-28T13:10:14Z</time>
      </trkpt>
      <trkpt lat="45.52647" lon="6.58253">
        <ele>656.8</ele>
        <time>2021-05-28T13:10:15Z</time>
      </trkpt>
      <trkpt lat="45.52642" lon="6.58247">
        <ele>656.6</ele>
        <time>2021-05-28T13:10:16Z</time>
      </trkpt>
      <trkpt lat="45.52637" lon="6.58243">
        <ele>656.4</ele>
        <time>2021-05-28T13:10:17Z</time>
      </trkpt>
      <trkpt lat="45.52635" lon="6.58245">
        <ele>656</ele>
        <time>2021-05-28T13:10:18Z</time>
      </trkpt>
      <trkpt lat="45.52634" lon="6.58249">
        <ele>655.4</ele>
        <time>2021-05-28T13:10:19Z</time>
      </trkpt>
      <trkpt lat="45.52636" lon="6.58256">
        <ele>655</ele>
        <time>2021-05-28T13:10:20Z</time>
      </trkpt>
      <trkpt lat="45.52639" lon="6.58261">
        <ele>654.4</ele>
        <time>2021-05-28T13:10:21Z</time>
      </trkpt>
      <trkpt lat="45.52645" lon="6.58267">
        <ele>654</ele>
        <time>2021-05-28T13:10:22Z</time>
      </trkpt>
      <trkpt lat="45.5265" lon="6.58274">
        <ele>653.6</ele>
        <time>2021-05-28T13:10:23Z</time>
      </trkpt>
      <trkpt lat="45.52656" lon="6.5828">
        <ele>653.2</ele>
        <time>2021-05-28T13:10:24Z</time>
      </trkpt>
      <trkpt lat="45.52662" lon="6.58287">
        <ele>652.8</ele>
        <time>2021-05-28T13:10:25Z</time>
      </trkpt>
      <trkpt lat="45.52668" lon="6.58295">
        <ele>652.2</ele>
        <time>2021-05-28T13:10:26Z</time>
      </trkpt>
      <trkpt lat="45.52674" lon="6.58303">
        <ele>651.6</ele>
        <time>2021-05-28T13:10:27Z</time>
      </trkpt>
      <trkpt lat="45.52681" lon="6.58311">
        <ele>651.2</ele>
        <time>2021-05-28T13:10:28Z</time>
      </trkpt>
      <trkpt lat="45.52688" lon="6.58319">
        <ele>650.4</ele>
        <time>2021-05-28T13:10:29Z</time>
      </trkpt>
      <trkpt lat="45.52695" lon="6.58326">
        <ele>650.2</ele>
        <time>2021-05-28T13:10:30Z</time>
      </trkpt>
      <trkpt lat="45.52702" lon="6.58335">
        <ele>649.6</ele>
        <time>2021-05-28T13:10:31Z</time>
      </trkpt>
      <trkpt lat="45.52709" lon="6.58344">
        <ele>649.2</ele>
        <time>2021-05-28T13:10:32Z</time>
      </trkpt>
      <trkpt lat="45.52715" lon="6.58354">
        <ele>648.4</ele>
        <time>2021-05-28T13:10:33Z</time>
      </trkpt>
      <trkpt lat="45.52719" lon="6.58364">
        <ele>647.6</ele>
        <time>2021-05-28T13:10:34Z</time>
      </trkpt>
      <trkpt lat="45.52724" lon="6.58375">
        <ele>646.8</ele>
        <time>2021-05-28T13:10:35Z</time>
      </trkpt>
      <trkpt lat="45.52729" lon="6.58383">
        <ele>646</ele>
        <time>2021-05-28T13:10:36Z</time>
      </trkpt>
      <trkpt lat="45.52734" lon="6.5839">
        <ele>644.8</ele>
        <time>2021-05-28T13:10:37Z</time>
      </trkpt>
      <trkpt lat="45.52739" lon="6.58397">
        <ele>643.8</ele>
        <time>2021-05-28T13:10:38Z</time>
      </trkpt>
      <trkpt lat="45.52744" lon="6.58404">
        <ele>643</ele>
        <time>2021-05-28T13:10:39Z</time>
      </trkpt>
      <trkpt lat="45.52747" lon="6.58411">
        <ele>642</ele>
        <time>2021-05-28T13:10:40Z</time>
      </trkpt>
      <trkpt lat="45.52746" lon="6.58416">
        <ele>641</ele>
        <time>2021-05-28T13:10:41Z</time>
      </trkpt>
      <trkpt lat="45.52742" lon="6.58417">
        <ele>639.8</ele>
        <time>2021-05-28T13:10:42Z</time>
      </trkpt>
      <trkpt lat="45.52737" lon="6.58414">
        <ele>639</ele>
        <time>2021-05-28T13:10:43Z</time>
      </trkpt>
      <trkpt lat="45.52729" lon="6.58408">
        <ele>638.4</ele>
        <time>2021-05-28T13:10:44Z</time>
      </trkpt>
      <trkpt lat="45.52723" lon="6.58402">
        <ele>637.2</ele>
        <time>2021-05-28T13:10:45Z</time>
      </trkpt>
      <trkpt lat="45.52716" lon="6.58395">
        <ele>636.4</ele>
        <time>2021-05-28T13:10:46Z</time>
      </trkpt>
      <trkpt lat="45.52708" lon="6.58387">
        <ele>635.6</ele>
        <time>2021-05-28T13:10:47Z</time>
      </trkpt>
      <trkpt lat="45.52701" lon="6.58378">
        <ele>635</ele>
        <time>2021-05-28T13:10:48Z</time>
      </trkpt>
      <trkpt lat="45.52693" lon="6.58368">
        <ele>634.2</ele>
        <time>2021-05-28T13:10:49Z</time>
      </trkpt>
      <trkpt lat="45.52685" lon="6.58361">
        <ele>633.6</ele>
        <time>2021-05-28T13:10:50Z</time>
      </trkpt>
      <trkpt lat="45.52675" lon="6.58354">
        <ele>632.8</ele>
        <time>2021-05-28T13:10:51Z</time>
      </trkpt>
      <trkpt lat="45.52665" lon="6.5835">
        <ele>631.8</ele>
        <time>2021-05-28T13:10:52Z</time>
      </trkpt>
      <trkpt lat="45.52655" lon="6.58345">
        <ele>631.2</ele>
        <time>2021-05-28T13:10:53Z</time>
      </trkpt>
      <trkpt lat="45.52645" lon="6.58338">
        <ele>630.4</ele>
        <time>2021-05-28T13:10:54Z</time>
      </trkpt>
      <trkpt lat="45.52636" lon="6.5833">
        <ele>629.6</ele>
        <time>2021-05-28T13:10:55Z</time>
      </trkpt>
      <trkpt lat="45.52625" lon="6.58324">
        <ele>629.2</ele>
        <time>2021-05-28T13:10:56Z</time>
      </trkpt>
      <trkpt lat="45.52615" lon="6.58319">
        <ele>628.4</ele>
        <time>2021-05-28T13:10:57Z</time>
      </trkpt>
      <trkpt lat="45.52605" lon="6.58315">
        <ele>627.8</ele>
        <time>2021-05-28T13:10:58Z</time>
      </trkpt>
      <trkpt lat="45.52595" lon="6.58311">
        <ele>626.6</ele>
        <time>2021-05-28T13:10:59Z</time>
      </trkpt>
      <trkpt lat="45.52586" lon="6.58307">
        <ele>625.8</ele>
        <time>2021-05-28T13:11:00Z</time>
      </trkpt>
      <trkpt lat="45.52577" lon="6.58301">
        <ele>624.6</ele>
        <time>2021-05-28T13:11:01Z</time>
      </trkpt>
      <trkpt lat="45.52568" lon="6.58295">
        <ele>623.2</ele>
        <time>2021-05-28T13:11:02Z</time>
      </trkpt>
      <trkpt lat="45.52561" lon="6.58288">
        <ele>621.8</ele>
        <time>2021-05-28T13:11:03Z</time>
      </trkpt>
      <trkpt lat="45.52556" lon="6.5828">
        <ele>620.6</ele>
        <time>2021-05-28T13:11:04Z</time>
      </trkpt>
      <trkpt lat="45.5255" lon="6.58271">
        <ele>619.4</ele>
        <time>2021-05-28T13:11:05Z</time>
      </trkpt>
      <trkpt lat="45.52545" lon="6.58261">
        <ele>617.8</ele>
        <time>2021-05-28T13:11:06Z</time>
      </trkpt>
      <trkpt lat="45.5254" lon="6.5825">
        <ele>616.8</ele>
        <time>2021-05-28T13:11:07Z</time>
      </trkpt>
      <trkpt lat="45.52535" lon="6.58238">
        <ele>615.6</ele>
        <time>2021-05-28T13:11:08Z</time>
      </trkpt>
      <trkpt lat="45.5253" lon="6.58228">
        <ele>614.6</ele>
        <time>2021-05-28T13:11:09Z</time>
      </trkpt>
      <trkpt lat="45.52524" lon="6.58219">
        <ele>614</ele>
        <time>2021-05-28T13:11:10Z</time>
      </trkpt>
      <trkpt lat="45.52519" lon="6.58213">
        <ele>612.8</ele>
        <time>2021-05-28T13:11:11Z</time>
      </trkpt>
      <trkpt lat="45.52514" lon="6.5821">
        <ele>611.6</ele>
        <time>2021-05-28T13:11:12Z</time>
      </trkpt>
      <trkpt lat="45.52508" lon="6.58212">
        <ele>610.4</ele>
        <time>2021-05-28T13:11:13Z</time>
      </trkpt>
      <trkpt lat="45.52505" lon="6.58217">
        <ele>609.4</ele>
        <time>2021-05-28T13:11:14Z</time>
      </trkpt>
      <trkpt lat="45.52502" lon="6.58224">
        <ele>608.4</ele>
        <time>2021-05-28T13:11:15Z</time>
      </trkpt>
      <trkpt lat="45.52501" lon="6.58232">
        <ele>607.4</ele>
        <time>2021-05-28T13:11:16Z</time>
      </trkpt>
      <trkpt lat="45.52504" lon="6.58244">
        <ele>606.8</ele>
        <time>2021-05-28T13:11:17Z</time>
      </trkpt>
      <trkpt lat="45.52507" lon="6.58255">
        <ele>606.4</ele>
        <time>2021-05-28T13:11:18Z</time>
      </trkpt>
      <trkpt lat="45.5251" lon="6.58266">
        <ele>605.6</ele>
        <time>2021-05-28T13:11:19Z</time>
      </trkpt>
      <trkpt lat="45.52514" lon="6.58277">
        <ele>605.2</ele>
        <time>2021-05-28T13:11:20Z</time>
      </trkpt>
      <trkpt lat="45.52518" lon="6.58286">
        <ele>604.6</ele>
        <time>2021-05-28T13:11:21Z</time>
      </trkpt>
      <trkpt lat="45.52524" lon="6.58295">
        <ele>604.4</ele>
        <time>2021-05-28T13:11:22Z</time>
      </trkpt>
      <trkpt lat="45.5253" lon="6.58304">
        <ele>603.8</ele>
        <time>2021-05-28T13:11:23Z</time>
      </trkpt>
      <trkpt lat="45.52536" lon="6.58312">
        <ele>603.6</ele>
        <time>2021-05-28T13:11:24Z</time>
      </trkpt>
      <trkpt lat="45.52543" lon="6.58319">
        <ele>603.4</ele>
        <time>2021-05-28T13:11:25Z</time>
      </trkpt>
      <trkpt lat="45.5255" lon="6.58326">
        <ele>603.2</ele>
        <time>2021-05-28T13:11:26Z</time>
      </trkpt>
      <trkpt lat="45.52557" lon="6.58334">
        <ele>603.2</ele>
        <time>2021-05-28T13:11:27Z</time>
      </trkpt>
      <trkpt lat="45.52564" lon="6.58342">
        <ele>603.4</ele>
        <time>2021-05-28T13:11:28Z</time>
      </trkpt>
      <trkpt lat="45.52573" lon="6.58349">
        <ele>603.4</ele>
        <time>2021-05-28T13:11:29Z</time>
      </trkpt>
      <trkpt lat="45.5258" lon="6.58356">
        <ele>603.6</ele>
        <time>2021-05-28T13:11:30Z</time>
      </trkpt>
      <trkpt lat="45.52587" lon="6.58363">
        <ele>603.4</ele>
        <time>2021-05-28T13:11:31Z</time>
      </trkpt>
      <trkpt lat="45.52594" lon="6.58369">
        <ele>603.2</ele>
        <time>2021-05-28T13:11:32Z</time>
      </trkpt>
      <trkpt lat="45.526" lon="6.58376">
        <ele>603</ele>
        <time>2021-05-28T13:11:33Z</time>
      </trkpt>
      <trkpt lat="45.52607" lon="6.58383">
        <ele>602.8</ele>
        <time>2021-05-28T13:11:34Z</time>
      </trkpt>
      <trkpt lat="45.52614" lon="6.5839">
        <ele>602.4</ele>
        <time>2021-05-28T13:11:35Z</time>
      </trkpt>
      <trkpt lat="45.5262" lon="6.58397">
        <ele>602.2</ele>
        <time>2021-05-28T13:11:36Z</time>
      </trkpt>
      <trkpt lat="45.52628" lon="6.58404">
        <ele>602.2</ele>
        <time>2021-05-28T13:11:37Z</time>
      </trkpt>
      <trkpt lat="45.52635" lon="6.58413">
        <ele>602.4</ele>
        <time>2021-05-28T13:11:38Z</time>
      </trkpt>
      <trkpt lat="45.52642" lon="6.5842">
        <ele>602.2</ele>
        <time>2021-05-28T13:11:39Z</time>
      </trkpt>
      <trkpt lat="45.52649" lon="6.58428">
        <ele>602.2</ele>
        <time>2021-05-28T13:11:40Z</time>
      </trkpt>
      <trkpt lat="45.52655" lon="6.58436">
        <ele>602.2</ele>
        <time>2021-05-28T13:11:41Z</time>
      </trkpt>
      <trkpt lat="45.52661" lon="6.58444">
        <ele>602.4</ele>
        <time>2021-05-28T13:11:42Z</time>
      </trkpt>
      <trkpt lat="45.52667" lon="6.58452">
        <ele>602.4</ele>
        <time>2021-05-28T13:11:43Z</time>
      </trkpt>
      <trkpt lat="45.52671" lon="6.5846">
        <ele>602.4</ele>
        <time>2021-05-28T13:11:44Z</time>
      </trkpt>
      <trkpt lat="45.52676" lon="6.58468">
        <ele>602</ele>
        <time>2021-05-28T13:11:45Z</time>
      </trkpt>
      <trkpt lat="45.52681" lon="6.58476">
        <ele>601.8</ele>
        <time>2021-05-28T13:11:46Z</time>
      </trkpt>
      <trkpt lat="45.52685" lon="6.58485">
        <ele>601.6</ele>
        <time>2021-05-28T13:11:47Z</time>
      </trkpt>
      <trkpt lat="45.52689" lon="6.58494">
        <ele>601.2</ele>
        <time>2021-05-28T13:11:48Z</time>
      </trkpt>
      <trkpt lat="45.52693" lon="6.58502">
        <ele>601</ele>
        <time>2021-05-28T13:11:49Z</time>
      </trkpt>
      <trkpt lat="45.52697" lon="6.58511">
        <ele>600.4</ele>
        <time>2021-05-28T13:11:50Z</time>
      </trkpt>
      <trkpt lat="45.527" lon="6.58519">
        <ele>600</ele>
        <time>2021-05-28T13:11:51Z</time>
      </trkpt>
      <trkpt lat="45.52703" lon="6.58528">
        <ele>599.6</ele>
        <time>2021-05-28T13:11:52Z</time>
      </trkpt>
      <trkpt lat="45.52707" lon="6.58536">
        <ele>599.6</ele>
        <time>2021-05-28T13:11:53Z</time>
      </trkpt>
      <trkpt lat="45.5271" lon="6.58544">
        <ele>599.4</ele>
        <time>2021-05-28T13:11:54Z</time>
      </trkpt>
      <trkpt lat="45.52713" lon="6.58552">
        <ele>599.6</ele>
        <time>2021-05-28T13:11:55Z</time>
      </trkpt>
      <trkpt lat="45.52716" lon="6.58559">
        <ele>599.4</ele>
        <time>2021-05-28T13:11:56Z</time>
      </trkpt>
      <trkpt lat="45.52719" lon="6.58567">
        <ele>599.2</ele>
        <time>2021-05-28T13:11:57Z</time>
      </trkpt>
      <trkpt lat="45.52723" lon="6.58576">
        <ele>599.2</ele>
        <time>2021-05-28T13:11:58Z</time>
      </trkpt>
      <trkpt lat="45.52726" lon="6.58584">
        <ele>599.2</ele>
        <time>2021-05-28T13:11:59Z</time>
      </trkpt>
      <trkpt lat="45.52729" lon="6.58593">
        <ele>599</ele>
        <time>2021-05-28T13:12:00Z</time>
      </trkpt>
      <trkpt lat="45.52732" lon="6.58601">
        <ele>599</ele>
        <time>2021-05-28T13:12:01Z</time>
      </trkpt>
      <trkpt lat="45.52735" lon="6.58609">
        <ele>599.2</ele>
        <time>2021-05-28T13:12:02Z</time>
      </trkpt>
      <trkpt lat="45.52739" lon="6.58618">
        <ele>599.4</ele>
        <time>2021-05-28T13:12:03Z</time>
      </trkpt>
      <trkpt lat="45.52742" lon="6.58627">
        <ele>599.2</ele>
        <time>2021-05-28T13:12:04Z</time>
      </trkpt>
      <trkpt lat="45.52746" lon="6.58635">
        <ele>599.4</ele>
        <time>2021-05-28T13:12:05Z</time>
      </trkpt>
      <trkpt lat="45.5275" lon="6.58642">
        <ele>599.4</ele>
        <time>2021-05-28T13:12:06Z</time>
      </trkpt>
      <trkpt lat="45.52754" lon="6.58649">
        <ele>599.4</ele>
        <time>2021-05-28T13:12:07Z</time>
      </trkpt>
      <trkpt lat="45.52759" lon="6.58654">
        <ele>599.2</ele>
        <time>2021-05-28T13:12:08Z</time>
      </trkpt>
      <trkpt lat="45.52764" lon="6.5866">
        <ele>599</ele>
        <time>2021-05-28T13:12:09Z</time>
      </trkpt>
      <trkpt lat="45.52769" lon="6.58665">
        <ele>599</ele>
        <time>2021-05-28T13:12:10Z</time>
      </trkpt>
      <trkpt lat="45.52774" lon="6.5867">
        <ele>598.8</ele>
        <time>2021-05-28T13:12:11Z</time>
      </trkpt>
      <trkpt lat="45.5278" lon="6.58674">
        <ele>598.8</ele>
        <time>2021-05-28T13:12:12Z</time>
      </trkpt>
      <trkpt lat="45.52786" lon="6.58678">
        <ele>598.8</ele>
        <time>2021-05-28T13:12:13Z</time>
      </trkpt>
      <trkpt lat="45.52791" lon="6.58682">
        <ele>598.6</ele>
        <time>2021-05-28T13:12:14Z</time>
      </trkpt>
      <trkpt lat="45.52796" lon="6.58686">
        <ele>598.6</ele>
        <time>2021-05-28T13:12:15Z</time>
      </trkpt>
      <trkpt lat="45.52802" lon="6.5869">
        <ele>598.8</ele>
        <time>2021-05-28T13:12:16Z</time>
      </trkpt>
      <trkpt lat="45.52807" lon="6.58694">
        <ele>598.6</ele>
        <time>2021-05-28T13:12:17Z</time>
      </trkpt>
      <trkpt lat="45.52813" lon="6.58698">
        <ele>598.8</ele>
        <time>2021-05-28T13:12:18Z</time>
      </trkpt>
      <trkpt lat="45.52819" lon="6.58701">
        <ele>599</ele>
        <time>2021-05-28T13:12:19Z</time>
      </trkpt>
      <trkpt lat="45.52824" lon="6.58705">
        <ele>599.2</ele>
        <time>2021-05-28T13:12:20Z</time>
      </trkpt>
      <trkpt lat="45.5283" lon="6.58708">
        <ele>599.2</ele>
        <time>2021-05-28T13:12:21Z</time>
      </trkpt>
      <trkpt lat="45.52835" lon="6.58712">
        <ele>599.4</ele>
        <time>2021-05-28T13:12:22Z</time>
      </trkpt>
      <trkpt lat="45.5284" lon="6.58716">
        <ele>599.6</ele>
        <time>2021-05-28T13:12:23Z</time>
      </trkpt>
      <trkpt lat="45.52845" lon="6.5872">
        <ele>600</ele>
        <time>2021-05-28T13:12:24Z</time>
      </trkpt>
      <trkpt lat="45.52851" lon="6.58724">
        <ele>600.2</ele>
        <time>2021-05-28T13:12:25Z</time>
      </trkpt>
      <trkpt lat="45.52855" lon="6.58728">
        <ele>600.4</ele>
        <time>2021-05-28T13:12:26Z</time>
      </trkpt>
      <trkpt lat="45.5286" lon="6.58733">
        <ele>600.6</ele>
        <time>2021-05-28T13:12:27Z</time>
      </trkpt>
      <trkpt lat="45.52864" lon="6.58739">
        <ele>600.6</ele>
        <time>2021-05-28T13:12:28Z</time>
      </trkpt>
      <trkpt lat="45.52869" lon="6.58744">
        <ele>600.8</ele>
        <time>2021-05-28T13:12:29Z</time>
      </trkpt>
      <trkpt lat="45.52873" lon="6.58749">
        <ele>601</ele>
        <time>2021-05-28T13:12:30Z</time>
      </trkpt>
      <trkpt lat="45.52878" lon="6.58754">
        <ele>601.2</ele>
        <time>2021-05-28T13:12:31Z</time>
      </trkpt>
      <trkpt lat="45.52884" lon="6.58758">
        <ele>601.4</ele>
        <time>2021-05-28T13:12:32Z</time>
      </trkpt>
      <trkpt lat="45.52889" lon="6.58764">
        <ele>601.4</ele>
        <time>2021-05-28T13:12:33Z</time>
      </trkpt>
      <trkpt lat="45.52894" lon="6.5877">
        <ele>601.6</ele>
        <time>2021-05-28T13:12:34Z</time>
      </trkpt>
      <trkpt lat="45.52899" lon="6.58776">
        <ele>601.8</ele>
        <time>2021-05-28T13:12:35Z</time>
      </trkpt>
      <trkpt lat="45.52904" lon="6.58783">
        <ele>602</ele>
        <time>2021-05-28T13:12:36Z</time>
      </trkpt>
      <trkpt lat="45.52909" lon="6.58789">
        <ele>602</ele>
        <time>2021-05-28T13:12:37Z</time>
      </trkpt>
      <trkpt lat="45.52915" lon="6.58796">
        <ele>602</ele>
        <time>2021-05-28T13:12:38Z</time>
      </trkpt>
      <trkpt lat="45.52919" lon="6.58802">
        <ele>602</ele>
        <time>2021-05-28T13:12:39Z</time>
      </trkpt>
      <trkpt lat="45.52924" lon="6.5881">
        <ele>602</ele>
        <time>2021-05-28T13:12:40Z</time>
      </trkpt>
      <trkpt lat="45.52928" lon="6.58817">
        <ele>601.8</ele>
        <time>2021-05-28T13:12:41Z</time>
      </trkpt>
      <trkpt lat="45.52932" lon="6.58826">
        <ele>601.6</ele>
        <time>2021-05-28T13:12:42Z</time>
      </trkpt>
      <trkpt lat="45.52935" lon="6.58836">
        <ele>601.6</ele>
        <time>2021-05-28T13:12:43Z</time>
      </trkpt>
      <trkpt lat="45.52937" lon="6.58846">
        <ele>601.4</ele>
        <time>2021-05-28T13:12:44Z</time>
      </trkpt>
      <trkpt lat="45.5294" lon="6.58855">
        <ele>601</ele>
        <time>2021-05-28T13:12:45Z</time>
      </trkpt>
      <trkpt lat="45.52942" lon="6.58865">
        <ele>600.8</ele>
        <time>2021-05-28T13:12:46Z</time>
      </trkpt>
      <trkpt lat="45.52945" lon="6.58875">
        <ele>600.4</ele>
        <time>2021-05-28T13:12:47Z</time>
      </trkpt>
      <trkpt lat="45.52947" lon="6.58885">
        <ele>600.2</ele>
        <time>2021-05-28T13:12:48Z</time>
      </trkpt>
      <trkpt lat="45.52949" lon="6.58894">
        <ele>600.2</ele>
        <time>2021-05-28T13:12:49Z</time>
      </trkpt>
      <trkpt lat="45.52952" lon="6.58903">
        <ele>600.2</ele>
        <time>2021-05-28T13:12:50Z</time>
      </trkpt>
      <trkpt lat="45.52955" lon="6.58912">
        <ele>600.2</ele>
        <time>2021-05-28T13:12:51Z</time>
      </trkpt>
      <trkpt lat="45.52959" lon="6.58921">
        <ele>600.4</ele>
        <time>2021-05-28T13:12:52Z</time>
      </trkpt>
      <trkpt lat="45.52963" lon="6.58929">
        <ele>600.6</ele>
        <time>2021-05-28T13:12:53Z</time>
      </trkpt>
      <trkpt lat="45.52966" lon="6.58937">
        <ele>600.6</ele>
        <time>2021-05-28T13:12:54Z</time>
      </trkpt>
      <trkpt lat="45.52971" lon="6.58945">
        <ele>600.8</ele>
        <time>2021-05-28T13:12:55Z</time>
      </trkpt>
      <trkpt lat="45.52976" lon="6.58951">
        <ele>601</ele>
        <time>2021-05-28T13:12:56Z</time>
      </trkpt>
      <trkpt lat="45.52981" lon="6.58958">
        <ele>601</ele>
        <time>2021-05-28T13:12:57Z</time>
      </trkpt>
      <trkpt lat="45.52987" lon="6.58963">
        <ele>601.4</ele>
        <time>2021-05-28T13:12:58Z</time>
      </trkpt>
      <trkpt lat="45.52992" lon="6.58968">
        <ele>601.4</ele>
        <time>2021-05-28T13:12:59Z</time>
      </trkpt>
      <trkpt lat="45.52998" lon="6.58973">
        <ele>601.2</ele>
        <time>2021-05-28T13:13:00Z</time>
      </trkpt>
      <trkpt lat="45.53004" lon="6.58976">
        <ele>601.4</ele>
        <time>2021-05-28T13:13:01Z</time>
      </trkpt>
      <trkpt lat="45.5301" lon="6.58979">
        <ele>601.6</ele>
        <time>2021-05-28T13:13:02Z</time>
      </trkpt>
      <trkpt lat="45.53015" lon="6.58982">
        <ele>601.6</ele>
        <time>2021-05-28T13:13:03Z</time>
      </trkpt>
      <trkpt lat="45.53022" lon="6.58984">
        <ele>601.8</ele>
        <time>2021-05-28T13:13:04Z</time>
      </trkpt>
      <trkpt lat="45.53027" lon="6.58986">
        <ele>602</ele>
        <time>2021-05-28T13:13:05Z</time>
      </trkpt>
      <trkpt lat="45.53033" lon="6.58988">
        <ele>602.2</ele>
        <time>2021-05-28T13:13:06Z</time>
      </trkpt>
      <trkpt lat="45.53039" lon="6.5899">
        <ele>602.4</ele>
        <time>2021-05-28T13:13:07Z</time>
      </trkpt>
      <trkpt lat="45.53044" lon="6.58992">
        <ele>602.6</ele>
        <time>2021-05-28T13:13:08Z</time>
      </trkpt>
      <trkpt lat="45.5305" lon="6.58994">
        <ele>603</ele>
        <time>2021-05-28T13:13:09Z</time>
      </trkpt>
      <trkpt lat="45.53055" lon="6.58996">
        <ele>603.2</ele>
        <time>2021-05-28T13:13:10Z</time>
      </trkpt>
      <trkpt lat="45.5306" lon="6.58999">
        <ele>603.4</ele>
        <time>2021-05-28T13:13:11Z</time>
      </trkpt>
      <trkpt lat="45.53066" lon="6.59001">
        <ele>603.4</ele>
        <time>2021-05-28T13:13:12Z</time>
      </trkpt>
      <trkpt lat="45.53071" lon="6.59004">
        <ele>603.4</ele>
        <time>2021-05-28T13:13:13Z</time>
      </trkpt>
      <trkpt lat="45.53076" lon="6.59008">
        <ele>603.4</ele>
        <time>2021-05-28T13:13:14Z</time>
      </trkpt>
      <trkpt lat="45.5308" lon="6.59011">
        <ele>603.2</ele>
        <time>2021-05-28T13:13:15Z</time>
      </trkpt>
      <trkpt lat="45.53085" lon="6.59014">
        <ele>603.2</ele>
        <time>2021-05-28T13:13:16Z</time>
      </trkpt>
      <trkpt lat="45.5309" lon="6.59018">
        <ele>603</ele>
        <time>2021-05-28T13:13:17Z</time>
      </trkpt>
      <trkpt lat="45.53095" lon="6.59022">
        <ele>603.2</ele>
        <time>2021-05-28T13:13:18Z</time>
      </trkpt>
      <trkpt lat="45.531" lon="6.59026">
        <ele>603.2</ele>
        <time>2021-05-28T13:13:19Z</time>
      </trkpt>
      <trkpt lat="45.53104" lon="6.59031">
        <ele>603.2</ele>
        <time>2021-05-28T13:13:20Z</time>
      </trkpt>
      <trkpt lat="45.53108" lon="6.59036">
        <ele>603.2</ele>
        <time>2021-05-28T13:13:21Z</time>
      </trkpt>
      <trkpt lat="45.53113" lon="6.59041">
        <ele>603</ele>
        <time>2021-05-28T13:13:22Z</time>
      </trkpt>
      <trkpt lat="45.53117" lon="6.59046">
        <ele>603</ele>
        <time>2021-05-28T13:13:23Z</time>
      </trkpt>
      <trkpt lat="45.53122" lon="6.59052">
        <ele>602.6</ele>
        <time>2021-05-28T13:13:24Z</time>
      </trkpt>
      <trkpt lat="45.53126" lon="6.59057">
        <ele>602.8</ele>
        <time>2021-05-28T13:13:25Z</time>
      </trkpt>
      <trkpt lat="45.5313" lon="6.59062">
        <ele>603</ele>
        <time>2021-05-28T13:13:26Z</time>
      </trkpt>
      <trkpt lat="45.53134" lon="6.59067">
        <ele>603</ele>
        <time>2021-05-28T13:13:27Z</time>
      </trkpt>
      <trkpt lat="45.53138" lon="6.59072">
        <ele>603.2</ele>
        <time>2021-05-28T13:13:28Z</time>
      </trkpt>
      <trkpt lat="45.53142" lon="6.59078">
        <ele>603.4</ele>
        <time>2021-05-28T13:13:29Z</time>
      </trkpt>
      <trkpt lat="45.53146" lon="6.59083">
        <ele>603.4</ele>
        <time>2021-05-28T13:13:30Z</time>
      </trkpt>
      <trkpt lat="45.5315" lon="6.59089">
        <ele>603.6</ele>
        <time>2021-05-28T13:13:31Z</time>
      </trkpt>
      <trkpt lat="45.53155" lon="6.59095">
        <ele>603.4</ele>
        <time>2021-05-28T13:13:32Z</time>
      </trkpt>
      <trkpt lat="45.53159" lon="6.59101">
        <ele>603</ele>
        <time>2021-05-28T13:13:33Z</time>
      </trkpt>
      <trkpt lat="45.53164" lon="6.59107">
        <ele>602.8</ele>
        <time>2021-05-28T13:13:34Z</time>
      </trkpt>
      <trkpt lat="45.53169" lon="6.59113">
        <ele>602.8</ele>
        <time>2021-05-28T13:13:35Z</time>
      </trkpt>
      <trkpt lat="45.53174" lon="6.59119">
        <ele>602.8</ele>
        <time>2021-05-28T13:13:36Z</time>
      </trkpt>
      <trkpt lat="45.53179" lon="6.59126">
        <ele>602.4</ele>
        <time>2021-05-28T13:13:37Z</time>
      </trkpt>
      <trkpt lat="45.53185" lon="6.59132">
        <ele>602.2</ele>
        <time>2021-05-28T13:13:38Z</time>
      </trkpt>
      <trkpt lat="45.53189" lon="6.59139">
        <ele>602</ele>
        <time>2021-05-28T13:13:39Z</time>
      </trkpt>
      <trkpt lat="45.53195" lon="6.59145">
        <ele>601.8</ele>
        <time>2021-05-28T13:13:40Z</time>
      </trkpt>
      <trkpt lat="45.532" lon="6.5915">
        <ele>601.4</ele>
        <time>2021-05-28T13:13:41Z</time>
      </trkpt>
      <trkpt lat="45.53205" lon="6.59156">
        <ele>601.2</ele>
        <time>2021-05-28T13:13:42Z</time>
      </trkpt>
      <trkpt lat="45.5321" lon="6.59161">
        <ele>601</ele>
        <time>2021-05-28T13:13:43Z</time>
      </trkpt>
      <trkpt lat="45.53215" lon="6.59166">
        <ele>600.8</ele>
        <time>2021-05-28T13:13:44Z</time>
      </trkpt>
      <trkpt lat="45.53221" lon="6.5917">
        <ele>600.8</ele>
        <time>2021-05-28T13:13:45Z</time>
      </trkpt>
      <trkpt lat="45.53227" lon="6.59175">
        <ele>601</ele>
        <time>2021-05-28T13:13:46Z</time>
      </trkpt>
      <trkpt lat="45.53232" lon="6.59179">
        <ele>601</ele>
        <time>2021-05-28T13:13:47Z</time>
      </trkpt>
      <trkpt lat="45.53237" lon="6.59184">
        <ele>601.2</ele>
        <time>2021-05-28T13:13:48Z</time>
      </trkpt>
      <trkpt lat="45.53243" lon="6.59187">
        <ele>601.6</ele>
        <time>2021-05-28T13:13:49Z</time>
      </trkpt>
      <trkpt lat="45.53248" lon="6.59191">
        <ele>601.8</ele>
        <time>2021-05-28T13:13:50Z</time>
      </trkpt>
      <trkpt lat="45.53253" lon="6.59195">
        <ele>602.2</ele>
        <time>2021-05-28T13:13:51Z</time>
      </trkpt>
      <trkpt lat="45.53258" lon="6.59198">
        <ele>602.2</ele>
        <time>2021-05-28T13:13:52Z</time>
      </trkpt>
      <trkpt lat="45.53262" lon="6.59201">
        <ele>602.4</ele>
        <time>2021-05-28T13:13:53Z</time>
      </trkpt>
      <trkpt lat="45.53267" lon="6.59204">
        <ele>602.8</ele>
        <time>2021-05-28T13:13:54Z</time>
      </trkpt>
      <trkpt lat="45.53271" lon="6.59207">
        <ele>603.2</ele>
        <time>2021-05-28T13:13:55Z</time>
      </trkpt>
      <trkpt lat="45.53275" lon="6.5921">
        <ele>603.6</ele>
        <time>2021-05-28T13:13:56Z</time>
      </trkpt>
      <trkpt lat="45.53279" lon="6.59213">
        <ele>603.8</ele>
        <time>2021-05-28T13:13:57Z</time>
      </trkpt>
      <trkpt lat="45.53282" lon="6.59215">
        <ele>604.2</ele>
        <time>2021-05-28T13:13:58Z</time>
      </trkpt>
      <trkpt lat="45.53285" lon="6.59218">
        <ele>604.4</ele>
        <time>2021-05-28T13:13:59Z</time>
      </trkpt>
      <trkpt lat="45.53288" lon="6.5922">
        <ele>604.8</ele>
        <time>2021-05-28T13:14:00Z</time>
      </trkpt>
      <trkpt lat="45.53291" lon="6.59222">
        <ele>605</ele>
        <time>2021-05-28T13:14:01Z</time>
      </trkpt>
      <trkpt lat="45.53294" lon="6.59224">
        <ele>604.8</ele>
        <time>2021-05-28T13:14:02Z</time>
      </trkpt>
      <trkpt lat="45.53298" lon="6.59226">
        <ele>604.6</ele>
        <time>2021-05-28T13:14:03Z</time>
      </trkpt>
      <trkpt lat="45.53301" lon="6.59228">
        <ele>604.4</ele>
        <time>2021-05-28T13:14:04Z</time>
      </trkpt>
      <trkpt lat="45.53304" lon="6.5923">
        <ele>604.2</ele>
        <time>2021-05-28T13:14:05Z</time>
      </trkpt>
      <trkpt lat="45.53307" lon="6.59233">
        <ele>603.8</ele>
        <time>2021-05-28T13:14:06Z</time>
      </trkpt>
      <trkpt lat="45.5331" lon="6.59235">
        <ele>603.4</ele>
        <time>2021-05-28T13:14:07Z</time>
      </trkpt>
      <trkpt lat="45.53313" lon="6.59237">
        <ele>603.4</ele>
        <time>2021-05-28T13:14:08Z</time>
      </trkpt>
      <trkpt lat="45.53316" lon="6.5924">
        <ele>603.6</ele>
        <time>2021-05-28T13:14:09Z</time>
      </trkpt>
      <trkpt lat="45.5332" lon="6.59242">
        <ele>603.4</ele>
        <time>2021-05-28T13:14:10Z</time>
      </trkpt>
      <trkpt lat="45.53323" lon="6.59243">
        <ele>603.4</ele>
        <time>2021-05-28T13:14:11Z</time>
      </trkpt>
      <trkpt lat="45.53326" lon="6.59244">
        <ele>603.4</ele>
        <time>2021-05-28T13:14:12Z</time>
      </trkpt>
      <trkpt lat="45.5333" lon="6.59246">
        <ele>603.4</ele>
        <time>2021-05-28T13:14:13Z</time>
      </trkpt>
      <trkpt lat="45.53333" lon="6.59249">
        <ele>603.2</ele>
        <time>2021-05-28T13:14:14Z</time>
      </trkpt>
      <trkpt lat="45.53337" lon="6.59253">
        <ele>603.2</ele>
        <time>2021-05-28T13:14:15Z</time>
      </trkpt>
      <trkpt lat="45.5334" lon="6.59257">
        <ele>603.4</ele>
        <time>2021-05-28T13:14:16Z</time>
      </trkpt>
      <trkpt lat="45.53344" lon="6.59261">
        <ele>603.6</ele>
        <time>2021-05-28T13:14:17Z</time>
      </trkpt>
      <trkpt lat="45.53348" lon="6.59266">
        <ele>604</ele>
        <time>2021-05-28T13:14:18Z</time>
      </trkpt>
      <trkpt lat="45.53352" lon="6.5927">
        <ele>604.4</ele>
        <time>2021-05-28T13:14:19Z</time>
      </trkpt>
      <trkpt lat="45.53355" lon="6.59275">
        <ele>604.8</ele>
        <time>2021-05-28T13:14:20Z</time>
      </trkpt>
      <trkpt lat="45.53358" lon="6.5928">
        <ele>605.2</ele>
        <time>2021-05-28T13:14:21Z</time>
      </trkpt>
      <trkpt lat="45.53361" lon="6.59286">
        <ele>605.4</ele>
        <time>2021-05-28T13:14:22Z</time>
      </trkpt>
      <trkpt lat="45.53364" lon="6.59291">
        <ele>605.4</ele>
        <time>2021-05-28T13:14:23Z</time>
      </trkpt>
      <trkpt lat="45.53368" lon="6.59296">
        <ele>605.6</ele>
        <time>2021-05-28T13:14:24Z</time>
      </trkpt>
      <trkpt lat="45.53372" lon="6.59301">
        <ele>605.6</ele>
        <time>2021-05-28T13:14:25Z</time>
      </trkpt>
      <trkpt lat="45.53374" lon="6.59306">
        <ele>605.8</ele>
        <time>2021-05-28T13:14:26Z</time>
      </trkpt>
      <trkpt lat="45.53377" lon="6.59311">
        <ele>606</ele>
        <time>2021-05-28T13:14:27Z</time>
      </trkpt>
      <trkpt lat="45.5338" lon="6.59316">
        <ele>606.2</ele>
        <time>2021-05-28T13:14:28Z</time>
      </trkpt>
      <trkpt lat="45.53382" lon="6.59321">
        <ele>606.6</ele>
        <time>2021-05-28T13:14:29Z</time>
      </trkpt>
      <trkpt lat="45.53386" lon="6.59326">
        <ele>606.8</ele>
        <time>2021-05-28T13:14:30Z</time>
      </trkpt>
      <trkpt lat="45.5339" lon="6.59331">
        <ele>607</ele>
        <time>2021-05-28T13:14:31Z</time>
      </trkpt>
      <trkpt lat="45.53394" lon="6.59335">
        <ele>607.4</ele>
        <time>2021-05-28T13:14:32Z</time>
      </trkpt>
      <trkpt lat="45.53397" lon="6.5934">
        <ele>607.8</ele>
        <time>2021-05-28T13:14:33Z</time>
      </trkpt>
      <trkpt lat="45.53401" lon="6.59345">
        <ele>608</ele>
        <time>2021-05-28T13:14:34Z</time>
      </trkpt>
      <trkpt lat="45.53404" lon="6.59351">
        <ele>608.2</ele>
        <time>2021-05-28T13:14:35Z</time>
      </trkpt>
      <trkpt lat="45.53408" lon="6.59357">
        <ele>608.2</ele>
        <time>2021-05-28T13:14:36Z</time>
      </trkpt>
      <trkpt lat="45.53411" lon="6.59363">
        <ele>608.4</ele>
        <time>2021-05-28T13:14:37Z</time>
      </trkpt>
      <trkpt lat="45.53414" lon="6.5937">
        <ele>608.4</ele>
        <time>2021-05-28T13:14:38Z</time>
      </trkpt>
      <trkpt lat="45.53417" lon="6.59376">
        <ele>608.4</ele>
        <time>2021-05-28T13:14:39Z</time>
      </trkpt>
      <trkpt lat="45.5342" lon="6.59383">
        <ele>608.4</ele>
        <time>2021-05-28T13:14:40Z</time>
      </trkpt>
      <trkpt lat="45.53421" lon="6.59391">
        <ele>608.4</ele>
        <time>2021-05-28T13:14:41Z</time>
      </trkpt>
      <trkpt lat="45.53423" lon="6.59399">
        <ele>608.2</ele>
        <time>2021-05-28T13:14:42Z</time>
      </trkpt>
      <trkpt lat="45.53425" lon="6.59406">
        <ele>607.8</ele>
        <time>2021-05-28T13:14:43Z</time>
      </trkpt>
      <trkpt lat="45.53426" lon="6.59414">
        <ele>607.6</ele>
        <time>2021-05-28T13:14:44Z</time>
      </trkpt>
      <trkpt lat="45.53428" lon="6.59421">
        <ele>607.2</ele>
        <time>2021-05-28T13:14:45Z</time>
      </trkpt>
      <trkpt lat="45.5343" lon="6.59429">
        <ele>607</ele>
        <time>2021-05-28T13:14:46Z</time>
      </trkpt>
      <trkpt lat="45.53432" lon="6.59436">
        <ele>606.6</ele>
        <time>2021-05-28T13:14:47Z</time>
      </trkpt>
      <trkpt lat="45.53434" lon="6.59443">
        <ele>606.4</ele>
        <time>2021-05-28T13:14:48Z</time>
      </trkpt>
      <trkpt lat="45.53437" lon="6.5945">
        <ele>606.6</ele>
        <time>2021-05-28T13:14:49Z</time>
      </trkpt>
      <trkpt lat="45.53439" lon="6.59458">
        <ele>606.6</ele>
        <time>2021-05-28T13:14:50Z</time>
      </trkpt>
      <trkpt lat="45.53442" lon="6.59465">
        <ele>606.8</ele>
        <time>2021-05-28T13:14:51Z</time>
      </trkpt>
      <trkpt lat="45.53444" lon="6.59472">
        <ele>607</ele>
        <time>2021-05-28T13:14:52Z</time>
      </trkpt>
      <trkpt lat="45.53446" lon="6.5948">
        <ele>607</ele>
        <time>2021-05-28T13:14:53Z</time>
      </trkpt>
      <trkpt lat="45.53449" lon="6.59486">
        <ele>607</ele>
        <time>2021-05-28T13:14:54Z</time>
      </trkpt>
      <trkpt lat="45.53452" lon="6.5949">
        <ele>606.8</ele>
        <time>2021-05-28T13:14:55Z</time>
      </trkpt>
      <trkpt lat="45.53455" lon="6.59492">
        <ele>607</ele>
        <time>2021-05-28T13:14:56Z</time>
      </trkpt>
      <trkpt lat="45.53457" lon="6.59494">
        <ele>606.8</ele>
        <time>2021-05-28T13:14:57Z</time>
      </trkpt>
      <trkpt lat="45.5346" lon="6.59496">
        <ele>606.8</ele>
        <time>2021-05-28T13:14:58Z</time>
      </trkpt>
      <trkpt lat="45.53463" lon="6.59499">
        <ele>606.8</ele>
        <time>2021-05-28T13:14:59Z</time>
      </trkpt>
      <trkpt lat="45.53465" lon="6.595">
        <ele>607</ele>
        <time>2021-05-28T13:15:00Z</time>
      </trkpt>
      <trkpt lat="45.53467" lon="6.595">
        <ele>606.8</ele>
        <time>2021-05-28T13:15:01Z</time>
      </trkpt>
      <trkpt lat="45.53471" lon="6.59497">
        <ele>606.8</ele>
        <time>2021-05-28T13:15:03Z</time>
      </trkpt>
      <trkpt lat="45.53474" lon="6.59495">
        <ele>606.8</ele>
        <time>2021-05-28T13:15:04Z</time>
      </trkpt>
      <trkpt lat="45.53476" lon="6.59494">
        <ele>606.8</ele>
        <time>2021-05-28T13:15:05Z</time>
      </trkpt>
      <trkpt lat="45.53481" lon="6.59494">
        <ele>606.8</ele>
        <time>2021-05-28T13:15:06Z</time>
      </trkpt>
      <trkpt lat="45.53484" lon="6.59496">
        <ele>606.8</ele>
        <time>2021-05-28T13:15:07Z</time>
      </trkpt>
      <trkpt lat="45.53488" lon="6.59498">
        <ele>606.6</ele>
        <time>2021-05-28T13:15:08Z</time>
      </trkpt>
      <trkpt lat="45.5349" lon="6.59501">
        <ele>606.4</ele>
        <time>2021-05-28T13:15:09Z</time>
      </trkpt>
      <trkpt lat="45.53492" lon="6.59505">
        <ele>606.2</ele>
        <time>2021-05-28T13:15:10Z</time>
      </trkpt>
      <trkpt lat="45.53493" lon="6.59509">
        <ele>606.4</ele>
        <time>2021-05-28T13:15:11Z</time>
      </trkpt>
      <trkpt lat="45.53493" lon="6.59514">
        <ele>606.4</ele>
        <time>2021-05-28T13:15:12Z</time>
      </trkpt>
      <trkpt lat="45.53494" lon="6.59519">
        <ele>606.4</ele>
        <time>2021-05-28T13:15:13Z</time>
      </trkpt>
      <trkpt lat="45.53495" lon="6.59524">
        <ele>607</ele>
        <time>2021-05-28T13:15:14Z</time>
      </trkpt>
      <trkpt lat="45.53497" lon="6.59529">
        <ele>607.4</ele>
        <time>2021-05-28T13:15:15Z</time>
      </trkpt>
      <trkpt lat="45.53498" lon="6.59535">
        <ele>607.6</ele>
        <time>2021-05-28T13:15:16Z</time>
      </trkpt>
      <trkpt lat="45.53499" lon="6.59541">
        <ele>607.8</ele>
        <time>2021-05-28T13:15:17Z</time>
      </trkpt>
      <trkpt lat="45.535" lon="6.59547">
        <ele>608.2</ele>
        <time>2021-05-28T13:15:18Z</time>
      </trkpt>
      <trkpt lat="45.53501" lon="6.59553">
        <ele>608.4</ele>
        <time>2021-05-28T13:15:19Z</time>
      </trkpt>
      <trkpt lat="45.53502" lon="6.59559">
        <ele>609</ele>
        <time>2021-05-28T13:15:20Z</time>
      </trkpt>
      <trkpt lat="45.53503" lon="6.59564">
        <ele>609.4</ele>
        <time>2021-05-28T13:15:21Z</time>
      </trkpt>
      <trkpt lat="45.53505" lon="6.59571">
        <ele>609.6</ele>
        <time>2021-05-28T13:15:22Z</time>
      </trkpt>
      <trkpt lat="45.53507" lon="6.59577">
        <ele>610</ele>
        <time>2021-05-28T13:15:23Z</time>
      </trkpt>
      <trkpt lat="45.53509" lon="6.59583">
        <ele>610.2</ele>
        <time>2021-05-28T13:15:24Z</time>
      </trkpt>
      <trkpt lat="45.5351" lon="6.59588">
        <ele>610.6</ele>
        <time>2021-05-28T13:15:25Z</time>
      </trkpt>
      <trkpt lat="45.53511" lon="6.59594">
        <ele>610.8</ele>
        <time>2021-05-28T13:15:26Z</time>
      </trkpt>
      <trkpt lat="45.53512" lon="6.596">
        <ele>611</ele>
        <time>2021-05-28T13:15:27Z</time>
      </trkpt>
      <trkpt lat="45.53513" lon="6.59605">
        <ele>611</ele>
        <time>2021-05-28T13:15:28Z</time>
      </trkpt>
      <trkpt lat="45.53515" lon="6.59611">
        <ele>611</ele>
        <time>2021-05-28T13:15:29Z</time>
      </trkpt>
      <trkpt lat="45.53517" lon="6.59616">
        <ele>611.2</ele>
        <time>2021-05-28T13:15:30Z</time>
      </trkpt>
      <trkpt lat="45.53519" lon="6.59622">
        <ele>611.4</ele>
        <time>2021-05-28T13:15:31Z</time>
      </trkpt>
      <trkpt lat="45.53521" lon="6.59627">
        <ele>611.4</ele>
        <time>2021-05-28T13:15:32Z</time>
      </trkpt>
      <trkpt lat="45.53523" lon="6.59632">
        <ele>611.2</ele>
        <time>2021-05-28T13:15:33Z</time>
      </trkpt>
      <trkpt lat="45.53525" lon="6.59638">
        <ele>611</ele>
        <time>2021-05-28T13:15:34Z</time>
      </trkpt>
      <trkpt lat="45.53528" lon="6.59643">
        <ele>611.2</ele>
        <time>2021-05-28T13:15:35Z</time>
      </trkpt>
      <trkpt lat="45.53531" lon="6.59648">
        <ele>611.4</ele>
        <time>2021-05-28T13:15:36Z</time>
      </trkpt>
      <trkpt lat="45.53533" lon="6.59653">
        <ele>611.4</ele>
        <time>2021-05-28T13:15:37Z</time>
      </trkpt>
      <trkpt lat="45.53535" lon="6.59658">
        <ele>611.4</ele>
        <time>2021-05-28T13:15:38Z</time>
      </trkpt>
      <trkpt lat="45.53539" lon="6.59663">
        <ele>611.4</ele>
        <time>2021-05-28T13:15:39Z</time>
      </trkpt>
      <trkpt lat="45.53541" lon="6.59668">
        <ele>611.8</ele>
        <time>2021-05-28T13:15:40Z</time>
      </trkpt>
      <trkpt lat="45.53543" lon="6.59673">
        <ele>612</ele>
        <time>2021-05-28T13:15:41Z</time>
      </trkpt>
      <trkpt lat="45.53545" lon="6.59677">
        <ele>612.2</ele>
        <time>2021-05-28T13:15:42Z</time>
      </trkpt>
      <trkpt lat="45.53547" lon="6.59681">
        <ele>612.2</ele>
        <time>2021-05-28T13:15:43Z</time>
      </trkpt>
      <trkpt lat="45.53549" lon="6.59686">
        <ele>612.2</ele>
        <time>2021-05-28T13:15:44Z</time>
      </trkpt>
      <trkpt lat="45.53552" lon="6.5969">
        <ele>612.2</ele>
        <time>2021-05-28T13:15:45Z</time>
      </trkpt>
      <trkpt lat="45.53555" lon="6.59694">
        <ele>612.2</ele>
        <time>2021-05-28T13:15:46Z</time>
      </trkpt>
      <trkpt lat="45.53557" lon="6.59698">
        <ele>612.4</ele>
        <time>2021-05-28T13:15:47Z</time>
      </trkpt>
      <trkpt lat="45.53559" lon="6.59701">
        <ele>613</ele>
        <time>2021-05-28T13:15:48Z</time>
      </trkpt>
      <trkpt lat="45.53562" lon="6.59706">
        <ele>613.4</ele>
        <time>2021-05-28T13:15:49Z</time>
      </trkpt>
      <trkpt lat="45.53565" lon="6.59711">
        <ele>613.6</ele>
        <time>2021-05-28T13:15:50Z</time>
      </trkpt>
      <trkpt lat="45.53568" lon="6.59716">
        <ele>614</ele>
        <time>2021-05-28T13:15:51Z</time>
      </trkpt>
      <trkpt lat="45.53571" lon="6.59719">
        <ele>614.2</ele>
        <time>2021-05-28T13:15:52Z</time>
      </trkpt>
      <trkpt lat="45.53574" lon="6.59722">
        <ele>614.6</ele>
        <time>2021-05-28T13:15:53Z</time>
      </trkpt>
      <trkpt lat="45.53577" lon="6.59726">
        <ele>614.8</ele>
        <time>2021-05-28T13:15:54Z</time>
      </trkpt>
      <trkpt lat="45.53579" lon="6.5973">
        <ele>615.4</ele>
        <time>2021-05-28T13:15:55Z</time>
      </trkpt>
      <trkpt lat="45.53582" lon="6.59733">
        <ele>615.8</ele>
        <time>2021-05-28T13:15:56Z</time>
      </trkpt>
      <trkpt lat="45.53584" lon="6.59737">
        <ele>616.4</ele>
        <time>2021-05-28T13:15:57Z</time>
      </trkpt>
      <trkpt lat="45.53587" lon="6.59741">
        <ele>617</ele>
        <time>2021-05-28T13:15:58Z</time>
      </trkpt>
      <trkpt lat="45.5359" lon="6.59746">
        <ele>617.4</ele>
        <time>2021-05-28T13:15:59Z</time>
      </trkpt>
      <trkpt lat="45.53593" lon="6.5975">
        <ele>618</ele>
        <time>2021-05-28T13:16:00Z</time>
      </trkpt>
      <trkpt lat="45.53595" lon="6.59754">
        <ele>618.4</ele>
        <time>2021-05-28T13:16:01Z</time>
      </trkpt>
      <trkpt lat="45.53598" lon="6.59758">
        <ele>618.8</ele>
        <time>2021-05-28T13:16:02Z</time>
      </trkpt>
      <trkpt lat="45.53601" lon="6.59762">
        <ele>619.2</ele>
        <time>2021-05-28T13:16:03Z</time>
      </trkpt>
      <trkpt lat="45.53604" lon="6.59765">
        <ele>619.6</ele>
        <time>2021-05-28T13:16:04Z</time>
      </trkpt>
      <trkpt lat="45.53606" lon="6.59769">
        <ele>619.8</ele>
        <time>2021-05-28T13:16:05Z</time>
      </trkpt>
      <trkpt lat="45.53608" lon="6.59773">
        <ele>620.2</ele>
        <time>2021-05-28T13:16:06Z</time>
      </trkpt>
      <trkpt lat="45.53611" lon="6.59776">
        <ele>620.6</ele>
        <time>2021-05-28T13:16:07Z</time>
      </trkpt>
      <trkpt lat="45.53613" lon="6.59781">
        <ele>620.8</ele>
        <time>2021-05-28T13:16:08Z</time>
      </trkpt>
      <trkpt lat="45.53615" lon="6.59785">
        <ele>620.8</ele>
        <time>2021-05-28T13:16:09Z</time>
      </trkpt>
      <trkpt lat="45.53617" lon="6.5979">
        <ele>621</ele>
        <time>2021-05-28T13:16:10Z</time>
      </trkpt>
      <trkpt lat="45.5362" lon="6.59795">
        <ele>621.2</ele>
        <time>2021-05-28T13:16:11Z</time>
      </trkpt>
      <trkpt lat="45.53622" lon="6.59799">
        <ele>621</ele>
        <time>2021-05-28T13:16:12Z</time>
      </trkpt>
      <trkpt lat="45.53624" lon="6.59804">
        <ele>621</ele>
        <time>2021-05-28T13:16:13Z</time>
      </trkpt>
      <trkpt lat="45.53626" lon="6.59809">
        <ele>621</ele>
        <time>2021-05-28T13:16:14Z</time>
      </trkpt>
      <trkpt lat="45.53628" lon="6.59813">
        <ele>620.8</ele>
        <time>2021-05-28T13:16:15Z</time>
      </trkpt>
      <trkpt lat="45.53631" lon="6.59818">
        <ele>620.8</ele>
        <time>2021-05-28T13:16:16Z</time>
      </trkpt>
      <trkpt lat="45.53634" lon="6.59822">
        <ele>620.8</ele>
        <time>2021-05-28T13:16:17Z</time>
      </trkpt>
      <trkpt lat="45.53636" lon="6.59827">
        <ele>621</ele>
        <time>2021-05-28T13:16:18Z</time>
      </trkpt>
      <trkpt lat="45.53637" lon="6.59831">
        <ele>621.2</ele>
        <time>2021-05-28T13:16:19Z</time>
      </trkpt>
      <trkpt lat="45.53639" lon="6.59836">
        <ele>621.6</ele>
        <time>2021-05-28T13:16:20Z</time>
      </trkpt>
      <trkpt lat="45.53642" lon="6.5984">
        <ele>622</ele>
        <time>2021-05-28T13:16:21Z</time>
      </trkpt>
      <trkpt lat="45.53644" lon="6.59844">
        <ele>622.4</ele>
        <time>2021-05-28T13:16:22Z</time>
      </trkpt>
      <trkpt lat="45.53645" lon="6.59849">
        <ele>622.6</ele>
        <time>2021-05-28T13:16:23Z</time>
      </trkpt>
      <trkpt lat="45.53647" lon="6.59854">
        <ele>623</ele>
        <time>2021-05-28T13:16:24Z</time>
      </trkpt>
      <trkpt lat="45.53649" lon="6.59859">
        <ele>623.2</ele>
        <time>2021-05-28T13:16:25Z</time>
      </trkpt>
      <trkpt lat="45.53651" lon="6.59864">
        <ele>623.6</ele>
        <time>2021-05-28T13:16:26Z</time>
      </trkpt>
      <trkpt lat="45.53652" lon="6.59868">
        <ele>623.8</ele>
        <time>2021-05-28T13:16:27Z</time>
      </trkpt>
      <trkpt lat="45.53654" lon="6.59873">
        <ele>624</ele>
        <time>2021-05-28T13:16:28Z</time>
      </trkpt>
      <trkpt lat="45.53656" lon="6.59877">
        <ele>624</ele>
        <time>2021-05-28T13:16:29Z</time>
      </trkpt>
      <trkpt lat="45.53658" lon="6.59882">
        <ele>624.2</ele>
        <time>2021-05-28T13:16:30Z</time>
      </trkpt>
      <trkpt lat="45.5366" lon="6.59886">
        <ele>624.4</ele>
        <time>2021-05-28T13:16:31Z</time>
      </trkpt>
      <trkpt lat="45.53662" lon="6.59891">
        <ele>624.6</ele>
        <time>2021-05-28T13:16:32Z</time>
      </trkpt>
      <trkpt lat="45.53665" lon="6.59896">
        <ele>624.6</ele>
        <time>2021-05-28T13:16:33Z</time>
      </trkpt>
      <trkpt lat="45.53667" lon="6.599">
        <ele>624.6</ele>
        <time>2021-05-28T13:16:34Z</time>
      </trkpt>
      <trkpt lat="45.53669" lon="6.59905">
        <ele>624.8</ele>
        <time>2021-05-28T13:16:35Z</time>
      </trkpt>
      <trkpt lat="45.53671" lon="6.5991">
        <ele>625</ele>
        <time>2021-05-28T13:16:36Z</time>
      </trkpt>
      <trkpt lat="45.53673" lon="6.59915">
        <ele>625.2</ele>
        <time>2021-05-28T13:16:37Z</time>
      </trkpt>
      <trkpt lat="45.53676" lon="6.5992">
        <ele>625.4</ele>
        <time>2021-05-28T13:16:38Z</time>
      </trkpt>
      <trkpt lat="45.53677" lon="6.59925">
        <ele>625.4</ele>
        <time>2021-05-28T13:16:39Z</time>
      </trkpt>
      <trkpt lat="45.5368" lon="6.59929">
        <ele>625.8</ele>
        <time>2021-05-28T13:16:40Z</time>
      </trkpt>
      <trkpt lat="45.53681" lon="6.59933">
        <ele>626</ele>
        <time>2021-05-28T13:16:41Z</time>
      </trkpt>
      <trkpt lat="45.53684" lon="6.59937">
        <ele>626.4</ele>
        <time>2021-05-28T13:16:42Z</time>
      </trkpt>
      <trkpt lat="45.53686" lon="6.59941">
        <ele>626.8</ele>
        <time>2021-05-28T13:16:43Z</time>
      </trkpt>
      <trkpt lat="45.53687" lon="6.59945">
        <ele>627.4</ele>
        <time>2021-05-28T13:16:44Z</time>
      </trkpt>
      <trkpt lat="45.53689" lon="6.5995">
        <ele>627.8</ele>
        <time>2021-05-28T13:16:45Z</time>
      </trkpt>
      <trkpt lat="45.53691" lon="6.59954">
        <ele>628.2</ele>
        <time>2021-05-28T13:16:46Z</time>
      </trkpt>
      <trkpt lat="45.53693" lon="6.59959">
        <ele>628.6</ele>
        <time>2021-05-28T13:16:47Z</time>
      </trkpt>
      <trkpt lat="45.53695" lon="6.59963">
        <ele>628.8</ele>
        <time>2021-05-28T13:16:48Z</time>
      </trkpt>
      <trkpt lat="45.53697" lon="6.59967">
        <ele>629.4</ele>
        <time>2021-05-28T13:16:49Z</time>
      </trkpt>
      <trkpt lat="45.53699" lon="6.59972">
        <ele>629.4</ele>
        <time>2021-05-28T13:16:50Z</time>
      </trkpt>
      <trkpt lat="45.53701" lon="6.59976">
        <ele>629.8</ele>
        <time>2021-05-28T13:16:51Z</time>
      </trkpt>
      <trkpt lat="45.53702" lon="6.5998">
        <ele>630.2</ele>
        <time>2021-05-28T13:16:52Z</time>
      </trkpt>
      <trkpt lat="45.53705" lon="6.59985">
        <ele>630.6</ele>
        <time>2021-05-28T13:16:53Z</time>
      </trkpt>
      <trkpt lat="45.53707" lon="6.5999">
        <ele>630.8</ele>
        <time>2021-05-28T13:16:54Z</time>
      </trkpt>
      <trkpt lat="45.53709" lon="6.59994">
        <ele>631.4</ele>
        <time>2021-05-28T13:16:55Z</time>
      </trkpt>
      <trkpt lat="45.53712" lon="6.59998">
        <ele>631.8</ele>
        <time>2021-05-28T13:16:56Z</time>
      </trkpt>
      <trkpt lat="45.53714" lon="6.60003">
        <ele>632.4</ele>
        <time>2021-05-28T13:16:57Z</time>
      </trkpt>
      <trkpt lat="45.53716" lon="6.60008">
        <ele>632.6</ele>
        <time>2021-05-28T13:16:58Z</time>
      </trkpt>
      <trkpt lat="45.53717" lon="6.60012">
        <ele>633</ele>
        <time>2021-05-28T13:16:59Z</time>
      </trkpt>
      <trkpt lat="45.53719" lon="6.60017">
        <ele>633.2</ele>
        <time>2021-05-28T13:17:00Z</time>
      </trkpt>
      <trkpt lat="45.53721" lon="6.60021">
        <ele>633.4</ele>
        <time>2021-05-28T13:17:01Z</time>
      </trkpt>
      <trkpt lat="45.53724" lon="6.60026">
        <ele>633.4</ele>
        <time>2021-05-28T13:17:02Z</time>
      </trkpt>
      <trkpt lat="45.53726" lon="6.60029">
        <ele>633.6</ele>
        <time>2021-05-28T13:17:03Z</time>
      </trkpt>
      <trkpt lat="45.53729" lon="6.60033">
        <ele>633.8</ele>
        <time>2021-05-28T13:17:04Z</time>
      </trkpt>
      <trkpt lat="45.53733" lon="6.60035">
        <ele>633.8</ele>
        <time>2021-05-28T13:17:05Z</time>
      </trkpt>
      <trkpt lat="45.53736" lon="6.60036">
        <ele>633.8</ele>
        <time>2021-05-28T13:17:06Z</time>
      </trkpt>
      <trkpt lat="45.5374" lon="6.60037">
        <ele>633.8</ele>
        <time>2021-05-28T13:17:07Z</time>
      </trkpt>
      <trkpt lat="45.53743" lon="6.60037">
        <ele>633.6</ele>
        <time>2021-05-28T13:17:08Z</time>
      </trkpt>
      <trkpt lat="45.53747" lon="6.60036">
        <ele>633.6</ele>
        <time>2021-05-28T13:17:09Z</time>
      </trkpt>
      <trkpt lat="45.53751" lon="6.60035">
        <ele>633.6</ele>
        <time>2021-05-28T13:17:10Z</time>
      </trkpt>
      <trkpt lat="45.53755" lon="6.60033">
        <ele>633.8</ele>
        <time>2021-05-28T13:17:11Z</time>
      </trkpt>
      <trkpt lat="45.53758" lon="6.60031">
        <ele>634</ele>
        <time>2021-05-28T13:17:12Z</time>
      </trkpt>
      <trkpt lat="45.53761" lon="6.60027">
        <ele>634.6</ele>
        <time>2021-05-28T13:17:13Z</time>
      </trkpt>
      <trkpt lat="45.53764" lon="6.60024">
        <ele>635.2</ele>
        <time>2021-05-28T13:17:14Z</time>
      </trkpt>
      <trkpt lat="45.53767" lon="6.6002">
        <ele>635.6</ele>
        <time>2021-05-28T13:17:15Z</time>
      </trkpt>
      <trkpt lat="45.5377" lon="6.60016">
        <ele>636</ele>
        <time>2021-05-28T13:17:16Z</time>
      </trkpt>
      <trkpt lat="45.53772" lon="6.60011">
        <ele>636.4</ele>
        <time>2021-05-28T13:17:17Z</time>
      </trkpt>
      <trkpt lat="45.53773" lon="6.60007">
        <ele>637</ele>
        <time>2021-05-28T13:17:18Z</time>
      </trkpt>
      <trkpt lat="45.53774" lon="6.60001">
        <ele>637.6</ele>
        <time>2021-05-28T13:17:19Z</time>
      </trkpt>
      <trkpt lat="45.53775" lon="6.59995">
        <ele>638</ele>
        <time>2021-05-28T13:17:20Z</time>
      </trkpt>
      <trkpt lat="45.53775" lon="6.5999">
        <ele>638.6</ele>
        <time>2021-05-28T13:17:21Z</time>
      </trkpt>
      <trkpt lat="45.53775" lon="6.59983">
        <ele>639.2</ele>
        <time>2021-05-28T13:17:22Z</time>
      </trkpt>
      <trkpt lat="45.53776" lon="6.59978">
        <ele>639.6</ele>
        <time>2021-05-28T13:17:23Z</time>
      </trkpt>
      <trkpt lat="45.53776" lon="6.59972">
        <ele>639.8</ele>
        <time>2021-05-28T13:17:24Z</time>
      </trkpt>
      <trkpt lat="45.53776" lon="6.59966">
        <ele>640</ele>
        <time>2021-05-28T13:17:25Z</time>
      </trkpt>
      <trkpt lat="45.53777" lon="6.59961">
        <ele>640.2</ele>
        <time>2021-05-28T13:17:26Z</time>
      </trkpt>
      <trkpt lat="45.53777" lon="6.59956">
        <ele>640.4</ele>
        <time>2021-05-28T13:17:27Z</time>
      </trkpt>
      <trkpt lat="45.53777" lon="6.59951">
        <ele>640.6</ele>
        <time>2021-05-28T13:17:28Z</time>
      </trkpt>
      <trkpt lat="45.53779" lon="6.59946">
        <ele>641</ele>
        <time>2021-05-28T13:17:29Z</time>
      </trkpt>
      <trkpt lat="45.53779" lon="6.5994">
        <ele>641</ele>
        <time>2021-05-28T13:17:30Z</time>
      </trkpt>
      <trkpt lat="45.5378" lon="6.59935">
        <ele>641.2</ele>
        <time>2021-05-28T13:17:31Z</time>
      </trkpt>
      <trkpt lat="45.53781" lon="6.5993">
        <ele>641.4</ele>
        <time>2021-05-28T13:17:32Z</time>
      </trkpt>
      <trkpt lat="45.53781" lon="6.59924">
        <ele>641.6</ele>
        <time>2021-05-28T13:17:33Z</time>
      </trkpt>
      <trkpt lat="45.53782" lon="6.59918">
        <ele>641.8</ele>
        <time>2021-05-28T13:17:34Z</time>
      </trkpt>
      <trkpt lat="45.53783" lon="6.59913">
        <ele>641.8</ele>
        <time>2021-05-28T13:17:35Z</time>
      </trkpt>
      <trkpt lat="45.53783" lon="6.59908">
        <ele>642</ele>
        <time>2021-05-28T13:17:36Z</time>
      </trkpt>
      <trkpt lat="45.53784" lon="6.59902">
        <ele>642.2</ele>
        <time>2021-05-28T13:17:37Z</time>
      </trkpt>
      <trkpt lat="45.53785" lon="6.59897">
        <ele>642.4</ele>
        <time>2021-05-28T13:17:38Z</time>
      </trkpt>
      <trkpt lat="45.53787" lon="6.59892">
        <ele>642.8</ele>
        <time>2021-05-28T13:17:39Z</time>
      </trkpt>
      <trkpt lat="45.5379" lon="6.59889">
        <ele>642.8</ele>
        <time>2021-05-28T13:17:40Z</time>
      </trkpt>
      <trkpt lat="45.53792" lon="6.59886">
        <ele>643.2</ele>
        <time>2021-05-28T13:17:41Z</time>
      </trkpt>
      <trkpt lat="45.53795" lon="6.59882">
        <ele>643.4</ele>
        <time>2021-05-28T13:17:42Z</time>
      </trkpt>
      <trkpt lat="45.53797" lon="6.59878">
        <ele>643.8</ele>
        <time>2021-05-28T13:17:43Z</time>
      </trkpt>
      <trkpt lat="45.538" lon="6.59875">
        <ele>644.2</ele>
        <time>2021-05-28T13:17:44Z</time>
      </trkpt>
      <trkpt lat="45.53803" lon="6.59872">
        <ele>644.6</ele>
        <time>2021-05-28T13:17:45Z</time>
      </trkpt>
      <trkpt lat="45.53807" lon="6.5987">
        <ele>644.8</ele>
        <time>2021-05-28T13:17:46Z</time>
      </trkpt>
      <trkpt lat="45.53811" lon="6.59868">
        <ele>645</ele>
        <time>2021-05-28T13:17:47Z</time>
      </trkpt>
      <trkpt lat="45.53814" lon="6.59865">
        <ele>645</ele>
        <time>2021-05-28T13:17:48Z</time>
      </trkpt>
      <trkpt lat="45.53818" lon="6.59864">
        <ele>645.2</ele>
        <time>2021-05-28T13:17:49Z</time>
      </trkpt>
      <trkpt lat="45.53821" lon="6.59863">
        <ele>645.4</ele>
        <time>2021-05-28T13:17:50Z</time>
      </trkpt>
      <trkpt lat="45.53825" lon="6.59864">
        <ele>645.6</ele>
        <time>2021-05-28T13:17:51Z</time>
      </trkpt>
      <trkpt lat="45.53827" lon="6.59865">
        <ele>646.2</ele>
        <time>2021-05-28T13:17:52Z</time>
      </trkpt>
      <trkpt lat="45.53829" lon="6.59868">
        <ele>646.4</ele>
        <time>2021-05-28T13:17:53Z</time>
      </trkpt>
      <trkpt lat="45.53831" lon="6.59871">
        <ele>646.4</ele>
        <time>2021-05-28T13:17:54Z</time>
      </trkpt>
      <trkpt lat="45.53832" lon="6.59874">
        <ele>646.2</ele>
        <time>2021-05-28T13:17:55Z</time>
      </trkpt>
      <trkpt lat="45.53834" lon="6.59878">
        <ele>646.2</ele>
        <time>2021-05-28T13:17:56Z</time>
      </trkpt>
      <trkpt lat="45.53835" lon="6.59882">
        <ele>646.2</ele>
        <time>2021-05-28T13:17:57Z</time>
      </trkpt>
      <trkpt lat="45.53835" lon="6.59887">
        <ele>646.2</ele>
        <time>2021-05-28T13:17:58Z</time>
      </trkpt>
      <trkpt lat="45.53835" lon="6.59892">
        <ele>646</ele>
        <time>2021-05-28T13:17:59Z</time>
      </trkpt>
      <trkpt lat="45.53835" lon="6.59897">
        <ele>645.8</ele>
        <time>2021-05-28T13:18:00Z</time>
      </trkpt>
      <trkpt lat="45.53835" lon="6.59901">
        <ele>645.4</ele>
        <time>2021-05-28T13:18:01Z</time>
      </trkpt>
      <trkpt lat="45.53835" lon="6.59906">
        <ele>645.2</ele>
        <time>2021-05-28T13:18:02Z</time>
      </trkpt>
      <trkpt lat="45.53835" lon="6.59911">
        <ele>645.2</ele>
        <time>2021-05-28T13:18:03Z</time>
      </trkpt>
      <trkpt lat="45.53835" lon="6.59916">
        <ele>644.8</ele>
        <time>2021-05-28T13:18:04Z</time>
      </trkpt>
      <trkpt lat="45.53835" lon="6.5992">
        <ele>644.6</ele>
        <time>2021-05-28T13:18:05Z</time>
      </trkpt>
      <trkpt lat="45.53835" lon="6.59925">
        <ele>644.4</ele>
        <time>2021-05-28T13:18:06Z</time>
      </trkpt>
      <trkpt lat="45.53836" lon="6.59931">
        <ele>644</ele>
        <time>2021-05-28T13:18:07Z</time>
      </trkpt>
      <trkpt lat="45.53836" lon="6.59936">
        <ele>643.8</ele>
        <time>2021-05-28T13:18:08Z</time>
      </trkpt>
      <trkpt lat="45.53836" lon="6.59941">
        <ele>643.6</ele>
        <time>2021-05-28T13:18:09Z</time>
      </trkpt>
      <trkpt lat="45.53836" lon="6.59947">
        <ele>643.4</ele>
        <time>2021-05-28T13:18:10Z</time>
      </trkpt>
      <trkpt lat="45.53837" lon="6.59952">
        <ele>643.4</ele>
        <time>2021-05-28T13:18:11Z</time>
      </trkpt>
      <trkpt lat="45.53837" lon="6.59958">
        <ele>643.4</ele>
        <time>2021-05-28T13:18:12Z</time>
      </trkpt>
      <trkpt lat="45.53837" lon="6.59963">
        <ele>643.4</ele>
        <time>2021-05-28T13:18:13Z</time>
      </trkpt>
      <trkpt lat="45.53837" lon="6.59968">
        <ele>643.6</ele>
        <time>2021-05-28T13:18:14Z</time>
      </trkpt>
      <trkpt lat="45.53838" lon="6.59973">
        <ele>643.6</ele>
        <time>2021-05-28T13:18:15Z</time>
      </trkpt>
      <trkpt lat="45.53838" lon="6.59979">
        <ele>643.6</ele>
        <time>2021-05-28T13:18:16Z</time>
      </trkpt>
      <trkpt lat="45.53839" lon="6.59984">
        <ele>643.8</ele>
        <time>2021-05-28T13:18:17Z</time>
      </trkpt>
      <trkpt lat="45.53839" lon="6.5999">
        <ele>644</ele>
        <time>2021-05-28T13:18:18Z</time>
      </trkpt>
      <trkpt lat="45.53841" lon="6.59995">
        <ele>644</ele>
        <time>2021-05-28T13:18:19Z</time>
      </trkpt>
      <trkpt lat="45.53841" lon="6.6">
        <ele>644.2</ele>
        <time>2021-05-28T13:18:20Z</time>
      </trkpt>
      <trkpt lat="45.53842" lon="6.60006">
        <ele>644.4</ele>
        <time>2021-05-28T13:18:21Z</time>
      </trkpt>
      <trkpt lat="45.53842" lon="6.60011">
        <ele>644.2</ele>
        <time>2021-05-28T13:18:22Z</time>
      </trkpt>
      <trkpt lat="45.53843" lon="6.60017">
        <ele>644.4</ele>
        <time>2021-05-28T13:18:23Z</time>
      </trkpt>
      <trkpt lat="45.53844" lon="6.60022">
        <ele>644.6</ele>
        <time>2021-05-28T13:18:24Z</time>
      </trkpt>
      <trkpt lat="45.53844" lon="6.60028">
        <ele>644.8</ele>
        <time>2021-05-28T13:18:25Z</time>
      </trkpt>
      <trkpt lat="45.53845" lon="6.60033">
        <ele>645</ele>
        <time>2021-05-28T13:18:26Z</time>
      </trkpt>
      <trkpt lat="45.53846" lon="6.60038">
        <ele>645.2</ele>
        <time>2021-05-28T13:18:27Z</time>
      </trkpt>
      <trkpt lat="45.53846" lon="6.60044">
        <ele>645.8</ele>
        <time>2021-05-28T13:18:28Z</time>
      </trkpt>
      <trkpt lat="45.53847" lon="6.6005">
        <ele>646</ele>
        <time>2021-05-28T13:18:29Z</time>
      </trkpt>
      <trkpt lat="45.53848" lon="6.60055">
        <ele>646.2</ele>
        <time>2021-05-28T13:18:30Z</time>
      </trkpt>
      <trkpt lat="45.53849" lon="6.60061">
        <ele>646.6</ele>
        <time>2021-05-28T13:18:31Z</time>
      </trkpt>
      <trkpt lat="45.5385" lon="6.60067">
        <ele>646.6</ele>
        <time>2021-05-28T13:18:32Z</time>
      </trkpt>
      <trkpt lat="45.53851" lon="6.60073">
        <ele>647</ele>
        <time>2021-05-28T13:18:33Z</time>
      </trkpt>
      <trkpt lat="45.53851" lon="6.60079">
        <ele>647</ele>
        <time>2021-05-28T13:18:34Z</time>
      </trkpt>
      <trkpt lat="45.53852" lon="6.60084">
        <ele>647.2</ele>
        <time>2021-05-28T13:18:35Z</time>
      </trkpt>
      <trkpt lat="45.53853" lon="6.6009">
        <ele>647.4</ele>
        <time>2021-05-28T13:18:36Z</time>
      </trkpt>
      <trkpt lat="45.53854" lon="6.60096">
        <ele>647.6</ele>
        <time>2021-05-28T13:18:37Z</time>
      </trkpt>
      <trkpt lat="45.53855" lon="6.60101">
        <ele>647.8</ele>
        <time>2021-05-28T13:18:38Z</time>
      </trkpt>
      <trkpt lat="45.53855" lon="6.60107">
        <ele>648.2</ele>
        <time>2021-05-28T13:18:39Z</time>
      </trkpt>
      <trkpt lat="45.53855" lon="6.60112">
        <ele>648.6</ele>
        <time>2021-05-28T13:18:40Z</time>
      </trkpt>
      <trkpt lat="45.53854" lon="6.60118">
        <ele>648.8</ele>
        <time>2021-05-28T13:18:41Z</time>
      </trkpt>
      <trkpt lat="45.53852" lon="6.60123">
        <ele>649.4</ele>
        <time>2021-05-28T13:18:42Z</time>
      </trkpt>
      <trkpt lat="45.5385" lon="6.60128">
        <ele>649.4</ele>
        <time>2021-05-28T13:18:43Z</time>
      </trkpt>
      <trkpt lat="45.53847" lon="6.60133">
        <ele>649.8</ele>
        <time>2021-05-28T13:18:44Z</time>
      </trkpt>
      <trkpt lat="45.53844" lon="6.60139">
        <ele>650</ele>
        <time>2021-05-28T13:18:45Z</time>
      </trkpt>
      <trkpt lat="45.53841" lon="6.60145">
        <ele>650.2</ele>
        <time>2021-05-28T13:18:46Z</time>
      </trkpt>
      <trkpt lat="45.53839" lon="6.60152">
        <ele>650.4</ele>
        <time>2021-05-28T13:18:47Z</time>
      </trkpt>
      <trkpt lat="45.53839" lon="6.60159">
        <ele>650.4</ele>
        <time>2021-05-28T13:18:48Z</time>
      </trkpt>
      <trkpt lat="45.53841" lon="6.60167">
        <ele>650.2</ele>
        <time>2021-05-28T13:18:49Z</time>
      </trkpt>
      <trkpt lat="45.53843" lon="6.60176">
        <ele>650</ele>
        <time>2021-05-28T13:18:50Z</time>
      </trkpt>
      <trkpt lat="45.53847" lon="6.60184">
        <ele>649.8</ele>
        <time>2021-05-28T13:18:51Z</time>
      </trkpt>
      <trkpt lat="45.53851" lon="6.60193">
        <ele>649.8</ele>
        <time>2021-05-28T13:18:52Z</time>
      </trkpt>
      <trkpt lat="45.53857" lon="6.60201">
        <ele>649.8</ele>
        <time>2021-05-28T13:18:53Z</time>
      </trkpt>
      <trkpt lat="45.53862" lon="6.6021">
        <ele>649.6</ele>
        <time>2021-05-28T13:18:54Z</time>
      </trkpt>
      <trkpt lat="45.53867" lon="6.60219">
        <ele>649.6</ele>
        <time>2021-05-28T13:18:55Z</time>
      </trkpt>
      <trkpt lat="45.53873" lon="6.60229">
        <ele>649.4</ele>
        <time>2021-05-28T13:18:56Z</time>
      </trkpt>
      <trkpt lat="45.53878" lon="6.6024">
        <ele>649.2</ele>
        <time>2021-05-28T13:18:57Z</time>
      </trkpt>
      <trkpt lat="45.53884" lon="6.60251">
        <ele>649.2</ele>
        <time>2021-05-28T13:18:58Z</time>
      </trkpt>
      <trkpt lat="45.53889" lon="6.60261">
        <ele>648.8</ele>
        <time>2021-05-28T13:18:59Z</time>
      </trkpt>
      <trkpt lat="45.53894" lon="6.60273">
        <ele>648.6</ele>
        <time>2021-05-28T13:19:00Z</time>
      </trkpt>
      <trkpt lat="45.53899" lon="6.60285">
        <ele>648.4</ele>
        <time>2021-05-28T13:19:01Z</time>
      </trkpt>
      <trkpt lat="45.53904" lon="6.60297">
        <ele>648</ele>
        <time>2021-05-28T13:19:02Z</time>
      </trkpt>
      <trkpt lat="45.5391" lon="6.6031">
        <ele>647.8</ele>
        <time>2021-05-28T13:19:03Z</time>
      </trkpt>
      <trkpt lat="45.53915" lon="6.60323">
        <ele>647.4</ele>
        <time>2021-05-28T13:19:04Z</time>
      </trkpt>
      <trkpt lat="45.53921" lon="6.60336">
        <ele>647</ele>
        <time>2021-05-28T13:19:05Z</time>
      </trkpt>
      <trkpt lat="45.53926" lon="6.6035">
        <ele>646.8</ele>
        <time>2021-05-28T13:19:06Z</time>
      </trkpt>
      <trkpt lat="45.5393" lon="6.60364">
        <ele>646.4</ele>
        <time>2021-05-28T13:19:07Z</time>
      </trkpt>
      <trkpt lat="45.53934" lon="6.60379">
        <ele>646.2</ele>
        <time>2021-05-28T13:19:08Z</time>
      </trkpt>
      <trkpt lat="45.53927" lon="6.60417">
        <ele>644.8</ele>
        <time>2021-05-28T13:19:11Z</time>
      </trkpt>
      <trkpt lat="45.53923" lon="6.60428">
        <ele>644.8</ele>
        <time>2021-05-28T13:19:12Z</time>
      </trkpt>
      <trkpt lat="45.53918" lon="6.60439">
        <ele>645</ele>
        <time>2021-05-28T13:19:13Z</time>
      </trkpt>
      <trkpt lat="45.53916" lon="6.6045">
        <ele>645</ele>
        <time>2021-05-28T13:19:14Z</time>
      </trkpt>
      <trkpt lat="45.53916" lon="6.60461">
        <ele>644.8</ele>
        <time>2021-05-28T13:19:15Z</time>
      </trkpt>
      <trkpt lat="45.53918" lon="6.60469">
        <ele>644.6</ele>
        <time>2021-05-28T13:19:16Z</time>
      </trkpt>
      <trkpt lat="45.53921" lon="6.60477">
        <ele>644.6</ele>
        <time>2021-05-28T13:19:17Z</time>
      </trkpt>
      <trkpt lat="45.53925" lon="6.60484">
        <ele>644.8</ele>
        <time>2021-05-28T13:19:18Z</time>
      </trkpt>
      <trkpt lat="45.5393" lon="6.60489">
        <ele>644.8</ele>
        <time>2021-05-28T13:19:19Z</time>
      </trkpt>
      <trkpt lat="45.53934" lon="6.60493">
        <ele>644.8</ele>
        <time>2021-05-28T13:19:20Z</time>
      </trkpt>
      <trkpt lat="45.5394" lon="6.60495">
        <ele>645.2</ele>
        <time>2021-05-28T13:19:21Z</time>
      </trkpt>
      <trkpt lat="45.53945" lon="6.60496">
        <ele>645.4</ele>
        <time>2021-05-28T13:19:22Z</time>
      </trkpt>
      <trkpt lat="45.5395" lon="6.60495">
        <ele>645.6</ele>
        <time>2021-05-28T13:19:23Z</time>
      </trkpt>
      <trkpt lat="45.53955" lon="6.60492">
        <ele>646</ele>
        <time>2021-05-28T13:19:24Z</time>
      </trkpt>
      <trkpt lat="45.5396" lon="6.6049">
        <ele>646.4</ele>
        <time>2021-05-28T13:19:25Z</time>
      </trkpt>
      <trkpt lat="45.53964" lon="6.60487">
        <ele>647</ele>
        <time>2021-05-28T13:19:26Z</time>
      </trkpt>
      <trkpt lat="45.53969" lon="6.60484">
        <ele>647.4</ele>
        <time>2021-05-28T13:19:27Z</time>
      </trkpt>
      <trkpt lat="45.53973" lon="6.60481">
        <ele>647.8</ele>
        <time>2021-05-28T13:19:28Z</time>
      </trkpt>
      <trkpt lat="45.53978" lon="6.60478">
        <ele>648</ele>
        <time>2021-05-28T13:19:29Z</time>
      </trkpt>
      <trkpt lat="45.53982" lon="6.60476">
        <ele>648.4</ele>
        <time>2021-05-28T13:19:30Z</time>
      </trkpt>
      <trkpt lat="45.53986" lon="6.60473">
        <ele>648.6</ele>
        <time>2021-05-28T13:19:31Z</time>
      </trkpt>
      <trkpt lat="45.5399" lon="6.6047">
        <ele>649</ele>
        <time>2021-05-28T13:19:32Z</time>
      </trkpt>
      <trkpt lat="45.53994" lon="6.60467">
        <ele>649.2</ele>
        <time>2021-05-28T13:19:33Z</time>
      </trkpt>
      <trkpt lat="45.53999" lon="6.60464">
        <ele>649.4</ele>
        <time>2021-05-28T13:19:34Z</time>
      </trkpt>
      <trkpt lat="45.54003" lon="6.60462">
        <ele>649.2</ele>
        <time>2021-05-28T13:19:35Z</time>
      </trkpt>
      <trkpt lat="45.54008" lon="6.6046">
        <ele>649</ele>
        <time>2021-05-28T13:19:36Z</time>
      </trkpt>
      <trkpt lat="45.54012" lon="6.60458">
        <ele>649.2</ele>
        <time>2021-05-28T13:19:37Z</time>
      </trkpt>
      <trkpt lat="45.54016" lon="6.60458">
        <ele>649.4</ele>
        <time>2021-05-28T13:19:38Z</time>
      </trkpt>
      <trkpt lat="45.54021" lon="6.60457">
        <ele>649.6</ele>
        <time>2021-05-28T13:19:39Z</time>
      </trkpt>
      <trkpt lat="45.54025" lon="6.60458">
        <ele>650</ele>
        <time>2021-05-28T13:19:40Z</time>
      </trkpt>
      <trkpt lat="45.54029" lon="6.60458">
        <ele>650.2</ele>
        <time>2021-05-28T13:19:41Z</time>
      </trkpt>
      <trkpt lat="45.54034" lon="6.6046">
        <ele>650.4</ele>
        <time>2021-05-28T13:19:42Z</time>
      </trkpt>
      <trkpt lat="45.54038" lon="6.60462">
        <ele>650.4</ele>
        <time>2021-05-28T13:19:43Z</time>
      </trkpt>
      <trkpt lat="45.54043" lon="6.60464">
        <ele>650.4</ele>
        <time>2021-05-28T13:19:44Z</time>
      </trkpt>
      <trkpt lat="45.54046" lon="6.60468">
        <ele>650.4</ele>
        <time>2021-05-28T13:19:45Z</time>
      </trkpt>
      <trkpt lat="45.5405" lon="6.60472">
        <ele>650.6</ele>
        <time>2021-05-28T13:19:46Z</time>
      </trkpt>
      <trkpt lat="45.54054" lon="6.60476">
        <ele>650.4</ele>
        <time>2021-05-28T13:19:47Z</time>
      </trkpt>
      <trkpt lat="45.54058" lon="6.60481">
        <ele>650.6</ele>
        <time>2021-05-28T13:19:48Z</time>
      </trkpt>
      <trkpt lat="45.54061" lon="6.60486">
        <ele>650.4</ele>
        <time>2021-05-28T13:19:49Z</time>
      </trkpt>
      <trkpt lat="45.54065" lon="6.60491">
        <ele>650.6</ele>
        <time>2021-05-28T13:19:50Z</time>
      </trkpt>
      <trkpt lat="45.54069" lon="6.60496">
        <ele>650.8</ele>
        <time>2021-05-28T13:19:51Z</time>
      </trkpt>
      <trkpt lat="45.54072" lon="6.60502">
        <ele>650.8</ele>
        <time>2021-05-28T13:19:52Z</time>
      </trkpt>
      <trkpt lat="45.54076" lon="6.60508">
        <ele>650.8</ele>
        <time>2021-05-28T13:19:53Z</time>
      </trkpt>
      <trkpt lat="45.54079" lon="6.60514">
        <ele>650.6</ele>
        <time>2021-05-28T13:19:54Z</time>
      </trkpt>
      <trkpt lat="45.54082" lon="6.60521">
        <ele>650.6</ele>
        <time>2021-05-28T13:19:55Z</time>
      </trkpt>
      <trkpt lat="45.54085" lon="6.60527">
        <ele>650.6</ele>
        <time>2021-05-28T13:19:56Z</time>
      </trkpt>
      <trkpt lat="45.54089" lon="6.60534">
        <ele>650.6</ele>
        <time>2021-05-28T13:19:57Z</time>
      </trkpt>
      <trkpt lat="45.54092" lon="6.6054">
        <ele>650.6</ele>
        <time>2021-05-28T13:19:58Z</time>
      </trkpt>
      <trkpt lat="45.54095" lon="6.60547">
        <ele>650.6</ele>
        <time>2021-05-28T13:19:59Z</time>
      </trkpt>
      <trkpt lat="45.54098" lon="6.60554">
        <ele>650.6</ele>
        <time>2021-05-28T13:20:00Z</time>
      </trkpt>
      <trkpt lat="45.54101" lon="6.60561">
        <ele>650.2</ele>
        <time>2021-05-28T13:20:01Z</time>
      </trkpt>
      <trkpt lat="45.54104" lon="6.60569">
        <ele>649.8</ele>
        <time>2021-05-28T13:20:02Z</time>
      </trkpt>
      <trkpt lat="45.54107" lon="6.60576">
        <ele>649.6</ele>
        <time>2021-05-28T13:20:03Z</time>
      </trkpt>
      <trkpt lat="45.5411" lon="6.60584">
        <ele>649.4</ele>
        <time>2021-05-28T13:20:04Z</time>
      </trkpt>
      <trkpt lat="45.54113" lon="6.60592">
        <ele>649.4</ele>
        <time>2021-05-28T13:20:05Z</time>
      </trkpt>
      <trkpt lat="45.54116" lon="6.606">
        <ele>649.6</ele>
        <time>2021-05-28T13:20:06Z</time>
      </trkpt>
      <trkpt lat="45.54119" lon="6.60608">
        <ele>649.4</ele>
        <time>2021-05-28T13:20:07Z</time>
      </trkpt>
      <trkpt lat="45.54122" lon="6.60616">
        <ele>649.6</ele>
        <time>2021-05-28T13:20:08Z</time>
      </trkpt>
      <trkpt lat="45.54124" lon="6.60625">
        <ele>649.8</ele>
        <time>2021-05-28T13:20:09Z</time>
      </trkpt>
      <trkpt lat="45.54126" lon="6.60634">
        <ele>650</ele>
        <time>2021-05-28T13:20:10Z</time>
      </trkpt>
      <trkpt lat="45.54129" lon="6.60644">
        <ele>650.2</ele>
        <time>2021-05-28T13:20:11Z</time>
      </trkpt>
      <trkpt lat="45.54131" lon="6.60653">
        <ele>650.6</ele>
        <time>2021-05-28T13:20:12Z</time>
      </trkpt>
      <trkpt lat="45.54134" lon="6.60662">
        <ele>651</ele>
        <time>2021-05-28T13:20:13Z</time>
      </trkpt>
      <trkpt lat="45.54136" lon="6.60672">
        <ele>651.4</ele>
        <time>2021-05-28T13:20:14Z</time>
      </trkpt>
      <trkpt lat="45.54138" lon="6.60681">
        <ele>651.4</ele>
        <time>2021-05-28T13:20:15Z</time>
      </trkpt>
      <trkpt lat="45.54141" lon="6.6069">
        <ele>651.2</ele>
        <time>2021-05-28T13:20:16Z</time>
      </trkpt>
      <trkpt lat="45.54143" lon="6.60699">
        <ele>651.2</ele>
        <time>2021-05-28T13:20:17Z</time>
      </trkpt>
      <trkpt lat="45.54145" lon="6.60709">
        <ele>651.6</ele>
        <time>2021-05-28T13:20:18Z</time>
      </trkpt>
      <trkpt lat="45.54147" lon="6.60717">
        <ele>651.8</ele>
        <time>2021-05-28T13:20:19Z</time>
      </trkpt>
      <trkpt lat="45.5415" lon="6.60726">
        <ele>652</ele>
        <time>2021-05-28T13:20:20Z</time>
      </trkpt>
      <trkpt lat="45.54153" lon="6.60734">
        <ele>652</ele>
        <time>2021-05-28T13:20:21Z</time>
      </trkpt>
      <trkpt lat="45.54156" lon="6.60742">
        <ele>652.4</ele>
        <time>2021-05-28T13:20:22Z</time>
      </trkpt>
      <trkpt lat="45.54159" lon="6.60751">
        <ele>652.6</ele>
        <time>2021-05-28T13:20:23Z</time>
      </trkpt>
      <trkpt lat="45.54162" lon="6.60759">
        <ele>652.4</ele>
        <time>2021-05-28T13:20:24Z</time>
      </trkpt>
      <trkpt lat="45.54166" lon="6.6077">
        <ele>652.6</ele>
        <time>2021-05-28T13:20:25Z</time>
      </trkpt>
      <trkpt lat="45.54169" lon="6.60781">
        <ele>652.8</ele>
        <time>2021-05-28T13:20:26Z</time>
      </trkpt>
      <trkpt lat="45.54172" lon="6.60792">
        <ele>653</ele>
        <time>2021-05-28T13:20:27Z</time>
      </trkpt>
      <trkpt lat="45.54175" lon="6.60802">
        <ele>652.8</ele>
        <time>2021-05-28T13:20:28Z</time>
      </trkpt>
      <trkpt lat="45.54179" lon="6.60812">
        <ele>652.6</ele>
        <time>2021-05-28T13:20:29Z</time>
      </trkpt>
      <trkpt lat="45.54182" lon="6.60823">
        <ele>652.6</ele>
        <time>2021-05-28T13:20:30Z</time>
      </trkpt>
      <trkpt lat="45.54186" lon="6.60833">
        <ele>652.2</ele>
        <time>2021-05-28T13:20:31Z</time>
      </trkpt>
      <trkpt lat="45.5419" lon="6.60843">
        <ele>652.2</ele>
        <time>2021-05-28T13:20:32Z</time>
      </trkpt>
      <trkpt lat="45.54194" lon="6.60853">
        <ele>652.2</ele>
        <time>2021-05-28T13:20:33Z</time>
      </trkpt>
      <trkpt lat="45.54198" lon="6.60863">
        <ele>652.2</ele>
        <time>2021-05-28T13:20:34Z</time>
      </trkpt>
      <trkpt lat="45.54202" lon="6.60873">
        <ele>652.4</ele>
        <time>2021-05-28T13:20:35Z</time>
      </trkpt>
      <trkpt lat="45.54207" lon="6.60883">
        <ele>652.4</ele>
        <time>2021-05-28T13:20:36Z</time>
      </trkpt>
      <trkpt lat="45.54212" lon="6.60891">
        <ele>652.4</ele>
        <time>2021-05-28T13:20:37Z</time>
      </trkpt>
      <trkpt lat="45.54217" lon="6.609">
        <ele>652.4</ele>
        <time>2021-05-28T13:20:38Z</time>
      </trkpt>
      <trkpt lat="45.54222" lon="6.60909">
        <ele>652.6</ele>
        <time>2021-05-28T13:20:39Z</time>
      </trkpt>
      <trkpt lat="45.54228" lon="6.60917">
        <ele>652.6</ele>
        <time>2021-05-28T13:20:40Z</time>
      </trkpt>
      <trkpt lat="45.54233" lon="6.60926">
        <ele>652.8</ele>
        <time>2021-05-28T13:20:41Z</time>
      </trkpt>
      <trkpt lat="45.54238" lon="6.60934">
        <ele>652.8</ele>
        <time>2021-05-28T13:20:42Z</time>
      </trkpt>
      <trkpt lat="45.54244" lon="6.60944">
        <ele>653.2</ele>
        <time>2021-05-28T13:20:43Z</time>
      </trkpt>
      <trkpt lat="45.54249" lon="6.60954">
        <ele>653.4</ele>
        <time>2021-05-28T13:20:44Z</time>
      </trkpt>
      <trkpt lat="45.54254" lon="6.60964">
        <ele>653.6</ele>
        <time>2021-05-28T13:20:45Z</time>
      </trkpt>
      <trkpt lat="45.54258" lon="6.60975">
        <ele>653.6</ele>
        <time>2021-05-28T13:20:46Z</time>
      </trkpt>
      <trkpt lat="45.54262" lon="6.60985">
        <ele>654</ele>
        <time>2021-05-28T13:20:47Z</time>
      </trkpt>
      <trkpt lat="45.54266" lon="6.60996">
        <ele>654</ele>
        <time>2021-05-28T13:20:48Z</time>
      </trkpt>
      <trkpt lat="45.54269" lon="6.61007">
        <ele>654.2</ele>
        <time>2021-05-28T13:20:49Z</time>
      </trkpt>
      <trkpt lat="45.54271" lon="6.61019">
        <ele>654.6</ele>
        <time>2021-05-28T13:20:50Z</time>
      </trkpt>
      <trkpt lat="45.54272" lon="6.6103">
        <ele>655.2</ele>
        <time>2021-05-28T13:20:51Z</time>
      </trkpt>
      <trkpt lat="45.54273" lon="6.61042">
        <ele>655.2</ele>
        <time>2021-05-28T13:20:52Z</time>
      </trkpt>
      <trkpt lat="45.54273" lon="6.61054">
        <ele>655.4</ele>
        <time>2021-05-28T13:20:53Z</time>
      </trkpt>
      <trkpt lat="45.54272" lon="6.61066">
        <ele>655.6</ele>
        <time>2021-05-28T13:20:54Z</time>
      </trkpt>
      <trkpt lat="45.54271" lon="6.61077">
        <ele>655.8</ele>
        <time>2021-05-28T13:20:55Z</time>
      </trkpt>
      <trkpt lat="45.54269" lon="6.61089">
        <ele>656</ele>
        <time>2021-05-28T13:20:56Z</time>
      </trkpt>
      <trkpt lat="45.54267" lon="6.611">
        <ele>656</ele>
        <time>2021-05-28T13:20:57Z</time>
      </trkpt>
      <trkpt lat="45.54264" lon="6.61111">
        <ele>656</ele>
        <time>2021-05-28T13:20:58Z</time>
      </trkpt>
      <trkpt lat="45.54261" lon="6.61121">
        <ele>656</ele>
        <time>2021-05-28T13:20:59Z</time>
      </trkpt>
      <trkpt lat="45.54258" lon="6.61131">
        <ele>656.2</ele>
        <time>2021-05-28T13:21:00Z</time>
      </trkpt>
      <trkpt lat="45.54255" lon="6.61142">
        <ele>656.8</ele>
        <time>2021-05-28T13:21:01Z</time>
      </trkpt>
      <trkpt lat="45.54252" lon="6.61152">
        <ele>657</ele>
        <time>2021-05-28T13:21:02Z</time>
      </trkpt>
      <trkpt lat="45.5425" lon="6.61163">
        <ele>657.4</ele>
        <time>2021-05-28T13:21:03Z</time>
      </trkpt>
      <trkpt lat="45.54247" lon="6.61174">
        <ele>657.6</ele>
        <time>2021-05-28T13:21:04Z</time>
      </trkpt>
      <trkpt lat="45.54244" lon="6.61185">
        <ele>658</ele>
        <time>2021-05-28T13:21:05Z</time>
      </trkpt>
      <trkpt lat="45.54242" lon="6.61196">
        <ele>658.2</ele>
        <time>2021-05-28T13:21:06Z</time>
      </trkpt>
      <trkpt lat="45.5424" lon="6.61208">
        <ele>658.6</ele>
        <time>2021-05-28T13:21:07Z</time>
      </trkpt>
      <trkpt lat="45.54239" lon="6.6122">
        <ele>659</ele>
        <time>2021-05-28T13:21:08Z</time>
      </trkpt>
      <trkpt lat="45.54238" lon="6.61232">
        <ele>659.6</ele>
        <time>2021-05-28T13:21:09Z</time>
      </trkpt>
      <trkpt lat="45.54239" lon="6.61243">
        <ele>660</ele>
        <time>2021-05-28T13:21:10Z</time>
      </trkpt>
      <trkpt lat="45.54238" lon="6.61255">
        <ele>660.6</ele>
        <time>2021-05-28T13:21:11Z</time>
      </trkpt>
      <trkpt lat="45.54238" lon="6.61267">
        <ele>660.8</ele>
        <time>2021-05-28T13:21:12Z</time>
      </trkpt>
      <trkpt lat="45.54238" lon="6.61278">
        <ele>661.2</ele>
        <time>2021-05-28T13:21:13Z</time>
      </trkpt>
      <trkpt lat="45.54238" lon="6.6129">
        <ele>661.6</ele>
        <time>2021-05-28T13:21:14Z</time>
      </trkpt>
      <trkpt lat="45.54237" lon="6.61302">
        <ele>661.6</ele>
        <time>2021-05-28T13:21:15Z</time>
      </trkpt>
      <trkpt lat="45.54237" lon="6.61314">
        <ele>662</ele>
        <time>2021-05-28T13:21:16Z</time>
      </trkpt>
      <trkpt lat="45.54237" lon="6.61326">
        <ele>662.4</ele>
        <time>2021-05-28T13:21:17Z</time>
      </trkpt>
      <trkpt lat="45.54237" lon="6.61338">
        <ele>662.8</ele>
        <time>2021-05-28T13:21:18Z</time>
      </trkpt>
      <trkpt lat="45.54237" lon="6.61351">
        <ele>663.2</ele>
        <time>2021-05-28T13:21:19Z</time>
      </trkpt>
      <trkpt lat="45.54238" lon="6.61363">
        <ele>663.6</ele>
        <time>2021-05-28T13:21:20Z</time>
      </trkpt>
      <trkpt lat="45.5424" lon="6.61374">
        <ele>663.8</ele>
        <time>2021-05-28T13:21:21Z</time>
      </trkpt>
      <trkpt lat="45.54242" lon="6.61385">
        <ele>664.4</ele>
        <time>2021-05-28T13:21:22Z</time>
      </trkpt>
      <trkpt lat="45.54245" lon="6.61396">
        <ele>664.6</ele>
        <time>2021-05-28T13:21:23Z</time>
      </trkpt>
      <trkpt lat="45.54249" lon="6.61407">
        <ele>664.8</ele>
        <time>2021-05-28T13:21:24Z</time>
      </trkpt>
      <trkpt lat="45.54254" lon="6.61416">
        <ele>665.2</ele>
        <time>2021-05-28T13:21:25Z</time>
      </trkpt>
      <trkpt lat="45.5426" lon="6.61426">
        <ele>665.2</ele>
        <time>2021-05-28T13:21:26Z</time>
      </trkpt>
      <trkpt lat="45.54266" lon="6.61435">
        <ele>665.4</ele>
        <time>2021-05-28T13:21:27Z</time>
      </trkpt>
      <trkpt lat="45.54273" lon="6.61443">
        <ele>665.8</ele>
        <time>2021-05-28T13:21:28Z</time>
      </trkpt>
      <trkpt lat="45.54281" lon="6.61451">
        <ele>665.8</ele>
        <time>2021-05-28T13:21:29Z</time>
      </trkpt>
      <trkpt lat="45.54287" lon="6.61458">
        <ele>666.2</ele>
        <time>2021-05-28T13:21:30Z</time>
      </trkpt>
      <trkpt lat="45.54295" lon="6.61466">
        <ele>666.4</ele>
        <time>2021-05-28T13:21:31Z</time>
      </trkpt>
      <trkpt lat="45.54302" lon="6.61474">
        <ele>666.8</ele>
        <time>2021-05-28T13:21:32Z</time>
      </trkpt>
      <trkpt lat="45.54309" lon="6.61481">
        <ele>667</ele>
        <time>2021-05-28T13:21:33Z</time>
      </trkpt>
      <trkpt lat="45.54316" lon="6.61488">
        <ele>667.2</ele>
        <time>2021-05-28T13:21:34Z</time>
      </trkpt>
      <trkpt lat="45.54324" lon="6.61494">
        <ele>667.6</ele>
        <time>2021-05-28T13:21:35Z</time>
      </trkpt>
      <trkpt lat="45.54332" lon="6.615">
        <ele>667.8</ele>
        <time>2021-05-28T13:21:36Z</time>
      </trkpt>
      <trkpt lat="45.5434" lon="6.61505">
        <ele>668.4</ele>
        <time>2021-05-28T13:21:37Z</time>
      </trkpt>
      <trkpt lat="45.54348" lon="6.61509">
        <ele>668.6</ele>
        <time>2021-05-28T13:21:38Z</time>
      </trkpt>
      <trkpt lat="45.54356" lon="6.61513">
        <ele>668.8</ele>
        <time>2021-05-28T13:21:39Z</time>
      </trkpt>
      <trkpt lat="45.54365" lon="6.61516">
        <ele>668.8</ele>
        <time>2021-05-28T13:21:40Z</time>
      </trkpt>
      <trkpt lat="45.54373" lon="6.61518">
        <ele>669</ele>
        <time>2021-05-28T13:21:41Z</time>
      </trkpt>
      <trkpt lat="45.54381" lon="6.61519">
        <ele>668.8</ele>
        <time>2021-05-28T13:21:42Z</time>
      </trkpt>
      <trkpt lat="45.54389" lon="6.61522">
        <ele>668.8</ele>
        <time>2021-05-28T13:21:43Z</time>
      </trkpt>
      <trkpt lat="45.54398" lon="6.61524">
        <ele>668.8</ele>
        <time>2021-05-28T13:21:44Z</time>
      </trkpt>
      <trkpt lat="45.54406" lon="6.61526">
        <ele>668.8</ele>
        <time>2021-05-28T13:21:45Z</time>
      </trkpt>
      <trkpt lat="45.54415" lon="6.61527">
        <ele>669</ele>
        <time>2021-05-28T13:21:46Z</time>
      </trkpt>
      <trkpt lat="45.54423" lon="6.61529">
        <ele>669</ele>
        <time>2021-05-28T13:21:47Z</time>
      </trkpt>
      <trkpt lat="45.54431" lon="6.6153">
        <ele>669</ele>
        <time>2021-05-28T13:21:48Z</time>
      </trkpt>
      <trkpt lat="45.54439" lon="6.61532">
        <ele>669</ele>
        <time>2021-05-28T13:21:49Z</time>
      </trkpt>
      <trkpt lat="45.54447" lon="6.61534">
        <ele>669</ele>
        <time>2021-05-28T13:21:50Z</time>
      </trkpt>
      <trkpt lat="45.54455" lon="6.61535">
        <ele>668.8</ele>
        <time>2021-05-28T13:21:51Z</time>
      </trkpt>
      <trkpt lat="45.54463" lon="6.61538">
        <ele>668.8</ele>
        <time>2021-05-28T13:21:52Z</time>
      </trkpt>
      <trkpt lat="45.54471" lon="6.6154">
        <ele>668.6</ele>
        <time>2021-05-28T13:21:53Z</time>
      </trkpt>
      <trkpt lat="45.54478" lon="6.61542">
        <ele>668.4</ele>
        <time>2021-05-28T13:21:54Z</time>
      </trkpt>
      <trkpt lat="45.54486" lon="6.61545">
        <ele>668.2</ele>
        <time>2021-05-28T13:21:55Z</time>
      </trkpt>
      <trkpt lat="45.54494" lon="6.61547">
        <ele>668.2</ele>
        <time>2021-05-28T13:21:56Z</time>
      </trkpt>
      <trkpt lat="45.54501" lon="6.6155">
        <ele>667.8</ele>
        <time>2021-05-28T13:21:57Z</time>
      </trkpt>
      <trkpt lat="45.54509" lon="6.61554">
        <ele>667.6</ele>
        <time>2021-05-28T13:21:58Z</time>
      </trkpt>
      <trkpt lat="45.54517" lon="6.61558">
        <ele>667.4</ele>
        <time>2021-05-28T13:21:59Z</time>
      </trkpt>
      <trkpt lat="45.54524" lon="6.61561">
        <ele>667.2</ele>
        <time>2021-05-28T13:22:00Z</time>
      </trkpt>
      <trkpt lat="45.54532" lon="6.61565">
        <ele>666.8</ele>
        <time>2021-05-28T13:22:01Z</time>
      </trkpt>
      <trkpt lat="45.5454" lon="6.61568">
        <ele>666.6</ele>
        <time>2021-05-28T13:22:02Z</time>
      </trkpt>
      <trkpt lat="45.54547" lon="6.61572">
        <ele>666.4</ele>
        <time>2021-05-28T13:22:03Z</time>
      </trkpt>
      <trkpt lat="45.54555" lon="6.61575">
        <ele>666.4</ele>
        <time>2021-05-28T13:22:04Z</time>
      </trkpt>
      <trkpt lat="45.54562" lon="6.61579">
        <ele>666.4</ele>
        <time>2021-05-28T13:22:05Z</time>
      </trkpt>
      <trkpt lat="45.5457" lon="6.61582">
        <ele>666.4</ele>
        <time>2021-05-28T13:22:06Z</time>
      </trkpt>
      <trkpt lat="45.54578" lon="6.61585">
        <ele>666</ele>
        <time>2021-05-28T13:22:07Z</time>
      </trkpt>
      <trkpt lat="45.54585" lon="6.61587">
        <ele>665.8</ele>
        <time>2021-05-28T13:22:08Z</time>
      </trkpt>
      <trkpt lat="45.54593" lon="6.61588">
        <ele>665.8</ele>
        <time>2021-05-28T13:22:09Z</time>
      </trkpt>
      <trkpt lat="45.546" lon="6.61589">
        <ele>665.2</ele>
        <time>2021-05-28T13:22:10Z</time>
      </trkpt>
      <trkpt lat="45.54608" lon="6.61589">
        <ele>664.8</ele>
        <time>2021-05-28T13:22:11Z</time>
      </trkpt>
      <trkpt lat="45.54616" lon="6.61588">
        <ele>664.2</ele>
        <time>2021-05-28T13:22:12Z</time>
      </trkpt>
      <trkpt lat="45.54623" lon="6.61586">
        <ele>664</ele>
        <time>2021-05-28T13:22:13Z</time>
      </trkpt>
      <trkpt lat="45.54631" lon="6.61582">
        <ele>664.2</ele>
        <time>2021-05-28T13:22:14Z</time>
      </trkpt>
      <trkpt lat="45.54638" lon="6.61577">
        <ele>664.6</ele>
        <time>2021-05-28T13:22:15Z</time>
      </trkpt>
      <trkpt lat="45.54645" lon="6.61572">
        <ele>664.8</ele>
        <time>2021-05-28T13:22:16Z</time>
      </trkpt>
      <trkpt lat="45.54653" lon="6.61566">
        <ele>665</ele>
        <time>2021-05-28T13:22:17Z</time>
      </trkpt>
      <trkpt lat="45.5466" lon="6.61561">
        <ele>664.8</ele>
        <time>2021-05-28T13:22:18Z</time>
      </trkpt>
      <trkpt lat="45.54667" lon="6.61556">
        <ele>665</ele>
        <time>2021-05-28T13:22:19Z</time>
      </trkpt>
      <trkpt lat="45.54675" lon="6.61552">
        <ele>665</ele>
        <time>2021-05-28T13:22:20Z</time>
      </trkpt>
      <trkpt lat="45.54682" lon="6.61548">
        <ele>665</ele>
        <time>2021-05-28T13:22:21Z</time>
      </trkpt>
      <trkpt lat="45.5469" lon="6.61545">
        <ele>664.6</ele>
        <time>2021-05-28T13:22:22Z</time>
      </trkpt>
      <trkpt lat="45.54697" lon="6.61543">
        <ele>664.2</ele>
        <time>2021-05-28T13:22:23Z</time>
      </trkpt>
      <trkpt lat="45.54705" lon="6.61542">
        <ele>664</ele>
        <time>2021-05-28T13:22:24Z</time>
      </trkpt>
      <trkpt lat="45.54713" lon="6.61542">
        <ele>663.8</ele>
        <time>2021-05-28T13:22:25Z</time>
      </trkpt>
      <trkpt lat="45.54721" lon="6.61543">
        <ele>663.6</ele>
        <time>2021-05-28T13:22:26Z</time>
      </trkpt>
      <trkpt lat="45.54729" lon="6.61545">
        <ele>663.6</ele>
        <time>2021-05-28T13:22:27Z</time>
      </trkpt>
      <trkpt lat="45.54736" lon="6.61547">
        <ele>663.4</ele>
        <time>2021-05-28T13:22:28Z</time>
      </trkpt>
      <trkpt lat="45.54743" lon="6.61551">
        <ele>663.8</ele>
        <time>2021-05-28T13:22:29Z</time>
      </trkpt>
      <trkpt lat="45.5475" lon="6.61555">
        <ele>664</ele>
        <time>2021-05-28T13:22:30Z</time>
      </trkpt>
      <trkpt lat="45.54756" lon="6.61559">
        <ele>664.4</ele>
        <time>2021-05-28T13:22:31Z</time>
      </trkpt>
      <trkpt lat="45.54763" lon="6.61564">
        <ele>665</ele>
        <time>2021-05-28T13:22:32Z</time>
      </trkpt>
      <trkpt lat="45.5477" lon="6.61569">
        <ele>665.6</ele>
        <time>2021-05-28T13:22:33Z</time>
      </trkpt>
      <trkpt lat="45.54776" lon="6.61574">
        <ele>665.8</ele>
        <time>2021-05-28T13:22:34Z</time>
      </trkpt>
      <trkpt lat="45.54783" lon="6.61579">
        <ele>666.2</ele>
        <time>2021-05-28T13:22:35Z</time>
      </trkpt>
      <trkpt lat="45.5479" lon="6.61584">
        <ele>666.2</ele>
        <time>2021-05-28T13:22:36Z</time>
      </trkpt>
      <trkpt lat="45.54797" lon="6.61588">
        <ele>666.2</ele>
        <time>2021-05-28T13:22:37Z</time>
      </trkpt>
      <trkpt lat="45.54804" lon="6.61593">
        <ele>666.4</ele>
        <time>2021-05-28T13:22:38Z</time>
      </trkpt>
      <trkpt lat="45.5481" lon="6.61598">
        <ele>666.4</ele>
        <time>2021-05-28T13:22:39Z</time>
      </trkpt>
      <trkpt lat="45.54816" lon="6.61603">
        <ele>666.2</ele>
        <time>2021-05-28T13:22:40Z</time>
      </trkpt>
      <trkpt lat="45.54822" lon="6.61608">
        <ele>666.4</ele>
        <time>2021-05-28T13:22:41Z</time>
      </trkpt>
      <trkpt lat="45.54829" lon="6.61613">
        <ele>666.4</ele>
        <time>2021-05-28T13:22:42Z</time>
      </trkpt>
      <trkpt lat="45.54836" lon="6.61618">
        <ele>666.6</ele>
        <time>2021-05-28T13:22:43Z</time>
      </trkpt>
      <trkpt lat="45.54842" lon="6.61623">
        <ele>666.6</ele>
        <time>2021-05-28T13:22:44Z</time>
      </trkpt>
      <trkpt lat="45.54849" lon="6.61628">
        <ele>667</ele>
        <time>2021-05-28T13:22:45Z</time>
      </trkpt>
      <trkpt lat="45.54855" lon="6.61633">
        <ele>667.2</ele>
        <time>2021-05-28T13:22:46Z</time>
      </trkpt>
      <trkpt lat="45.54861" lon="6.61638">
        <ele>667.6</ele>
        <time>2021-05-28T13:22:47Z</time>
      </trkpt>
      <trkpt lat="45.54868" lon="6.61643">
        <ele>668</ele>
        <time>2021-05-28T13:22:48Z</time>
      </trkpt>
      <trkpt lat="45.54874" lon="6.61649">
        <ele>668</ele>
        <time>2021-05-28T13:22:49Z</time>
      </trkpt>
      <trkpt lat="45.5488" lon="6.61654">
        <ele>668.2</ele>
        <time>2021-05-28T13:22:50Z</time>
      </trkpt>
      <trkpt lat="45.54887" lon="6.61659">
        <ele>668</ele>
        <time>2021-05-28T13:22:51Z</time>
      </trkpt>
      <trkpt lat="45.54892" lon="6.61666">
        <ele>668</ele>
        <time>2021-05-28T13:22:52Z</time>
      </trkpt>
      <trkpt lat="45.54899" lon="6.61672">
        <ele>668</ele>
        <time>2021-05-28T13:22:53Z</time>
      </trkpt>
      <trkpt lat="45.54904" lon="6.61679">
        <ele>667.8</ele>
        <time>2021-05-28T13:22:54Z</time>
      </trkpt>
      <trkpt lat="45.54909" lon="6.61687">
        <ele>667.4</ele>
        <time>2021-05-28T13:22:55Z</time>
      </trkpt>
      <trkpt lat="45.54915" lon="6.61695">
        <ele>667.2</ele>
        <time>2021-05-28T13:22:56Z</time>
      </trkpt>
      <trkpt lat="45.54918" lon="6.61703">
        <ele>666.8</ele>
        <time>2021-05-28T13:22:57Z</time>
      </trkpt>
      <trkpt lat="45.54922" lon="6.61711">
        <ele>666.8</ele>
        <time>2021-05-28T13:22:58Z</time>
      </trkpt>
      <trkpt lat="45.54925" lon="6.61721">
        <ele>666.8</ele>
        <time>2021-05-28T13:22:59Z</time>
      </trkpt>
      <trkpt lat="45.54929" lon="6.61731">
        <ele>666.6</ele>
        <time>2021-05-28T13:23:00Z</time>
      </trkpt>
      <trkpt lat="45.54933" lon="6.61741">
        <ele>666.2</ele>
        <time>2021-05-28T13:23:01Z</time>
      </trkpt>
      <trkpt lat="45.54936" lon="6.61752">
        <ele>666.2</ele>
        <time>2021-05-28T13:23:02Z</time>
      </trkpt>
      <trkpt lat="45.5494" lon="6.61761">
        <ele>666.2</ele>
        <time>2021-05-28T13:23:03Z</time>
      </trkpt>
      <trkpt lat="45.54943" lon="6.6177">
        <ele>666.4</ele>
        <time>2021-05-28T13:23:04Z</time>
      </trkpt>
      <trkpt lat="45.54947" lon="6.61779">
        <ele>666.6</ele>
        <time>2021-05-28T13:23:05Z</time>
      </trkpt>
      <trkpt lat="45.5495" lon="6.61788">
        <ele>666.8</ele>
        <time>2021-05-28T13:23:06Z</time>
      </trkpt>
      <trkpt lat="45.54953" lon="6.61797">
        <ele>666.6</ele>
        <time>2021-05-28T13:23:07Z</time>
      </trkpt>
      <trkpt lat="45.54957" lon="6.61806">
        <ele>666.4</ele>
        <time>2021-05-28T13:23:08Z</time>
      </trkpt>
      <trkpt lat="45.54961" lon="6.61815">
        <ele>666.2</ele>
        <time>2021-05-28T13:23:09Z</time>
      </trkpt>
      <trkpt lat="45.54965" lon="6.61823">
        <ele>666</ele>
        <time>2021-05-28T13:23:10Z</time>
      </trkpt>
      <trkpt lat="45.54969" lon="6.61832">
        <ele>666</ele>
        <time>2021-05-28T13:23:11Z</time>
      </trkpt>
      <trkpt lat="45.54973" lon="6.6184">
        <ele>666</ele>
        <time>2021-05-28T13:23:12Z</time>
      </trkpt>
      <trkpt lat="45.54978" lon="6.61848">
        <ele>666.2</ele>
        <time>2021-05-28T13:23:13Z</time>
      </trkpt>
      <trkpt lat="45.54982" lon="6.61856">
        <ele>666.4</ele>
        <time>2021-05-28T13:23:14Z</time>
      </trkpt>
      <trkpt lat="45.54987" lon="6.61863">
        <ele>666.4</ele>
        <time>2021-05-28T13:23:15Z</time>
      </trkpt>
      <trkpt lat="45.54991" lon="6.61871">
        <ele>666.4</ele>
        <time>2021-05-28T13:23:16Z</time>
      </trkpt>
      <trkpt lat="45.54996" lon="6.61878">
        <ele>666.8</ele>
        <time>2021-05-28T13:23:17Z</time>
      </trkpt>
      <trkpt lat="45.55001" lon="6.61885">
        <ele>667.8</ele>
        <time>2021-05-28T13:23:18Z</time>
      </trkpt>
      <trkpt lat="45.55006" lon="6.61892">
        <ele>667.8</ele>
        <time>2021-05-28T13:23:19Z</time>
      </trkpt>
      <trkpt lat="45.55011" lon="6.61899">
        <ele>667.6</ele>
        <time>2021-05-28T13:23:20Z</time>
      </trkpt>
      <trkpt lat="45.55016" lon="6.61905">
        <ele>667.6</ele>
        <time>2021-05-28T13:23:21Z</time>
      </trkpt>
      <trkpt lat="45.55021" lon="6.61912">
        <ele>667.4</ele>
        <time>2021-05-28T13:23:22Z</time>
      </trkpt>
      <trkpt lat="45.55027" lon="6.61919">
        <ele>667.2</ele>
        <time>2021-05-28T13:23:23Z</time>
      </trkpt>
      <trkpt lat="45.55032" lon="6.61927">
        <ele>667</ele>
        <time>2021-05-28T13:23:24Z</time>
      </trkpt>
      <trkpt lat="45.55037" lon="6.61935">
        <ele>666.4</ele>
        <time>2021-05-28T13:23:25Z</time>
      </trkpt>
      <trkpt lat="45.55041" lon="6.61944">
        <ele>666</ele>
        <time>2021-05-28T13:23:26Z</time>
      </trkpt>
      <trkpt lat="45.55044" lon="6.61953">
        <ele>666</ele>
        <time>2021-05-28T13:23:27Z</time>
      </trkpt>
      <trkpt lat="45.55046" lon="6.61964">
        <ele>666.6</ele>
        <time>2021-05-28T13:23:28Z</time>
      </trkpt>
      <trkpt lat="45.55048" lon="6.61974">
        <ele>667</ele>
        <time>2021-05-28T13:23:29Z</time>
      </trkpt>
      <trkpt lat="45.55048" lon="6.61985">
        <ele>667</ele>
        <time>2021-05-28T13:23:30Z</time>
      </trkpt>
      <trkpt lat="45.55048" lon="6.61996">
        <ele>667.4</ele>
        <time>2021-05-28T13:23:31Z</time>
      </trkpt>
      <trkpt lat="45.55047" lon="6.62006">
        <ele>668</ele>
        <time>2021-05-28T13:23:32Z</time>
      </trkpt>
      <trkpt lat="45.55045" lon="6.62017">
        <ele>668.4</ele>
        <time>2021-05-28T13:23:33Z</time>
      </trkpt>
      <trkpt lat="45.55043" lon="6.62029">
        <ele>669</ele>
        <time>2021-05-28T13:23:34Z</time>
      </trkpt>
      <trkpt lat="45.55041" lon="6.6204">
        <ele>669.6</ele>
        <time>2021-05-28T13:23:35Z</time>
      </trkpt>
      <trkpt lat="45.55038" lon="6.6205">
        <ele>670.2</ele>
        <time>2021-05-28T13:23:36Z</time>
      </trkpt>
      <trkpt lat="45.55036" lon="6.6206">
        <ele>671.2</ele>
        <time>2021-05-28T13:23:37Z</time>
      </trkpt>
      <trkpt lat="45.55033" lon="6.6207">
        <ele>671.6</ele>
        <time>2021-05-28T13:23:38Z</time>
      </trkpt>
      <trkpt lat="45.55029" lon="6.6208">
        <ele>672</ele>
        <time>2021-05-28T13:23:39Z</time>
      </trkpt>
      <trkpt lat="45.55025" lon="6.6209">
        <ele>672.2</ele>
        <time>2021-05-28T13:23:40Z</time>
      </trkpt>
      <trkpt lat="45.55021" lon="6.62099">
        <ele>672.4</ele>
        <time>2021-05-28T13:23:41Z</time>
      </trkpt>
      <trkpt lat="45.55016" lon="6.62108">
        <ele>672.8</ele>
        <time>2021-05-28T13:23:42Z</time>
      </trkpt>
      <trkpt lat="45.55012" lon="6.62117">
        <ele>673.2</ele>
        <time>2021-05-28T13:23:43Z</time>
      </trkpt>
      <trkpt lat="45.55006" lon="6.62126">
        <ele>673.2</ele>
        <time>2021-05-28T13:23:44Z</time>
      </trkpt>
      <trkpt lat="45.55001" lon="6.62134">
        <ele>673.6</ele>
        <time>2021-05-28T13:23:45Z</time>
      </trkpt>
      <trkpt lat="45.54996" lon="6.62143">
        <ele>674.2</ele>
        <time>2021-05-28T13:23:46Z</time>
      </trkpt>
      <trkpt lat="45.54992" lon="6.62151">
        <ele>674.8</ele>
        <time>2021-05-28T13:23:47Z</time>
      </trkpt>
      <trkpt lat="45.54987" lon="6.62159">
        <ele>675</ele>
        <time>2021-05-28T13:23:48Z</time>
      </trkpt>
      <trkpt lat="45.54982" lon="6.62168">
        <ele>675</ele>
        <time>2021-05-28T13:23:49Z</time>
      </trkpt>
      <trkpt lat="45.54977" lon="6.62176">
        <ele>675</ele>
        <time>2021-05-28T13:23:50Z</time>
      </trkpt>
      <trkpt lat="45.54972" lon="6.62184">
        <ele>674.8</ele>
        <time>2021-05-28T13:23:51Z</time>
      </trkpt>
      <trkpt lat="45.54968" lon="6.62193">
        <ele>675</ele>
        <time>2021-05-28T13:23:52Z</time>
      </trkpt>
      <trkpt lat="45.54964" lon="6.62203">
        <ele>675</ele>
        <time>2021-05-28T13:23:53Z</time>
      </trkpt>
      <trkpt lat="45.54961" lon="6.62213">
        <ele>675.2</ele>
        <time>2021-05-28T13:23:54Z</time>
      </trkpt>
      <trkpt lat="45.54959" lon="6.62223">
        <ele>675.6</ele>
        <time>2021-05-28T13:23:55Z</time>
      </trkpt>
      <trkpt lat="45.54957" lon="6.62234">
        <ele>675.8</ele>
        <time>2021-05-28T13:23:56Z</time>
      </trkpt>
      <trkpt lat="45.54957" lon="6.62245">
        <ele>676</ele>
        <time>2021-05-28T13:23:57Z</time>
      </trkpt>
      <trkpt lat="45.54957" lon="6.62257">
        <ele>676.2</ele>
        <time>2021-05-28T13:23:58Z</time>
      </trkpt>
      <trkpt lat="45.54957" lon="6.62269">
        <ele>676.4</ele>
        <time>2021-05-28T13:23:59Z</time>
      </trkpt>
      <trkpt lat="45.54959" lon="6.62282">
        <ele>676.6</ele>
        <time>2021-05-28T13:24:00Z</time>
      </trkpt>
      <trkpt lat="45.54961" lon="6.62294">
        <ele>677</ele>
        <time>2021-05-28T13:24:01Z</time>
      </trkpt>
      <trkpt lat="45.54963" lon="6.62306">
        <ele>677.4</ele>
        <time>2021-05-28T13:24:02Z</time>
      </trkpt>
      <trkpt lat="45.54965" lon="6.62317">
        <ele>677.6</ele>
        <time>2021-05-28T13:24:03Z</time>
      </trkpt>
      <trkpt lat="45.54967" lon="6.62329">
        <ele>677.8</ele>
        <time>2021-05-28T13:24:04Z</time>
      </trkpt>
      <trkpt lat="45.54967" lon="6.62341">
        <ele>678</ele>
        <time>2021-05-28T13:24:05Z</time>
      </trkpt>
      <trkpt lat="45.54968" lon="6.62353">
        <ele>678.2</ele>
        <time>2021-05-28T13:24:06Z</time>
      </trkpt>
      <trkpt lat="45.54968" lon="6.62365">
        <ele>678.4</ele>
        <time>2021-05-28T13:24:07Z</time>
      </trkpt>
      <trkpt lat="45.54968" lon="6.62377">
        <ele>678.8</ele>
        <time>2021-05-28T13:24:08Z</time>
      </trkpt>
      <trkpt lat="45.54968" lon="6.62389">
        <ele>679</ele>
        <time>2021-05-28T13:24:09Z</time>
      </trkpt>
      <trkpt lat="45.54969" lon="6.62402">
        <ele>679.4</ele>
        <time>2021-05-28T13:24:10Z</time>
      </trkpt>
      <trkpt lat="45.5497" lon="6.62414">
        <ele>679.6</ele>
        <time>2021-05-28T13:24:11Z</time>
      </trkpt>
      <trkpt lat="45.54972" lon="6.62425">
        <ele>679.8</ele>
        <time>2021-05-28T13:24:12Z</time>
      </trkpt>
      <trkpt lat="45.54975" lon="6.62437">
        <ele>680</ele>
        <time>2021-05-28T13:24:13Z</time>
      </trkpt>
      <trkpt lat="45.54978" lon="6.62448">
        <ele>680.4</ele>
        <time>2021-05-28T13:24:14Z</time>
      </trkpt>
      <trkpt lat="45.54982" lon="6.62459">
        <ele>680.8</ele>
        <time>2021-05-28T13:24:15Z</time>
      </trkpt>
      <trkpt lat="45.54985" lon="6.6247">
        <ele>680.8</ele>
        <time>2021-05-28T13:24:16Z</time>
      </trkpt>
      <trkpt lat="45.54989" lon="6.62481">
        <ele>681.2</ele>
        <time>2021-05-28T13:24:17Z</time>
      </trkpt>
      <trkpt lat="45.54993" lon="6.62492">
        <ele>681.6</ele>
        <time>2021-05-28T13:24:18Z</time>
      </trkpt>
      <trkpt lat="45.54997" lon="6.62502">
        <ele>681.6</ele>
        <time>2021-05-28T13:24:19Z</time>
      </trkpt>
      <trkpt lat="45.55001" lon="6.62513">
        <ele>681.6</ele>
        <time>2021-05-28T13:24:20Z</time>
      </trkpt>
      <trkpt lat="45.55004" lon="6.62523">
        <ele>681.6</ele>
        <time>2021-05-28T13:24:21Z</time>
      </trkpt>
      <trkpt lat="45.55007" lon="6.62534">
        <ele>681.8</ele>
        <time>2021-05-28T13:24:22Z</time>
      </trkpt>
      <trkpt lat="45.55009" lon="6.62545">
        <ele>681.8</ele>
        <time>2021-05-28T13:24:23Z</time>
      </trkpt>
      <trkpt lat="45.55011" lon="6.62556">
        <ele>682</ele>
        <time>2021-05-28T13:24:24Z</time>
      </trkpt>
      <trkpt lat="45.55012" lon="6.62568">
        <ele>682</ele>
        <time>2021-05-28T13:24:25Z</time>
      </trkpt>
      <trkpt lat="45.55014" lon="6.62578">
        <ele>682.2</ele>
        <time>2021-05-28T13:24:26Z</time>
      </trkpt>
      <trkpt lat="45.55016" lon="6.6259">
        <ele>682.4</ele>
        <time>2021-05-28T13:24:27Z</time>
      </trkpt>
      <trkpt lat="45.55018" lon="6.626">
        <ele>682.6</ele>
        <time>2021-05-28T13:24:28Z</time>
      </trkpt>
      <trkpt lat="45.5502" lon="6.62611">
        <ele>682.6</ele>
        <time>2021-05-28T13:24:29Z</time>
      </trkpt>
      <trkpt lat="45.55022" lon="6.62621">
        <ele>682.6</ele>
        <time>2021-05-28T13:24:30Z</time>
      </trkpt>
      <trkpt lat="45.55025" lon="6.62631">
        <ele>682.8</ele>
        <time>2021-05-28T13:24:31Z</time>
      </trkpt>
      <trkpt lat="45.55028" lon="6.62641">
        <ele>683.4</ele>
        <time>2021-05-28T13:24:32Z</time>
      </trkpt>
      <trkpt lat="45.55032" lon="6.62651">
        <ele>683.4</ele>
        <time>2021-05-28T13:24:33Z</time>
      </trkpt>
      <trkpt lat="45.55036" lon="6.6266">
        <ele>684</ele>
        <time>2021-05-28T13:24:34Z</time>
      </trkpt>
      <trkpt lat="45.5504" lon="6.6267">
        <ele>684.2</ele>
        <time>2021-05-28T13:24:35Z</time>
      </trkpt>
      <trkpt lat="45.55044" lon="6.62679">
        <ele>684.2</ele>
        <time>2021-05-28T13:24:36Z</time>
      </trkpt>
      <trkpt lat="45.55048" lon="6.62688">
        <ele>684</ele>
        <time>2021-05-28T13:24:37Z</time>
      </trkpt>
      <trkpt lat="45.55052" lon="6.62698">
        <ele>684</ele>
        <time>2021-05-28T13:24:38Z</time>
      </trkpt>
      <trkpt lat="45.55056" lon="6.62707">
        <ele>684</ele>
        <time>2021-05-28T13:24:39Z</time>
      </trkpt>
      <trkpt lat="45.5506" lon="6.62715">
        <ele>684.2</ele>
        <time>2021-05-28T13:24:40Z</time>
      </trkpt>
      <trkpt lat="45.55064" lon="6.62724">
        <ele>684.2</ele>
        <time>2021-05-28T13:24:41Z</time>
      </trkpt>
      <trkpt lat="45.55068" lon="6.62734">
        <ele>684.8</ele>
        <time>2021-05-28T13:24:42Z</time>
      </trkpt>
      <trkpt lat="45.55072" lon="6.62743">
        <ele>685</ele>
        <time>2021-05-28T13:24:43Z</time>
      </trkpt>
      <trkpt lat="45.55076" lon="6.62751">
        <ele>685</ele>
        <time>2021-05-28T13:24:44Z</time>
      </trkpt>
      <trkpt lat="45.5508" lon="6.62761">
        <ele>685</ele>
        <time>2021-05-28T13:24:45Z</time>
      </trkpt>
      <trkpt lat="45.55084" lon="6.6277">
        <ele>685.4</ele>
        <time>2021-05-28T13:24:46Z</time>
      </trkpt>
      <trkpt lat="45.55087" lon="6.62779">
        <ele>685.6</ele>
        <time>2021-05-28T13:24:47Z</time>
      </trkpt>
      <trkpt lat="45.55092" lon="6.62788">
        <ele>686</ele>
        <time>2021-05-28T13:24:48Z</time>
      </trkpt>
      <trkpt lat="45.55096" lon="6.62797">
        <ele>686</ele>
        <time>2021-05-28T13:24:49Z</time>
      </trkpt>
      <trkpt lat="45.551" lon="6.62806">
        <ele>686.2</ele>
        <time>2021-05-28T13:24:50Z</time>
      </trkpt>
      <trkpt lat="45.55104" lon="6.62816">
        <ele>686.4</ele>
        <time>2021-05-28T13:24:51Z</time>
      </trkpt>
      <trkpt lat="45.55108" lon="6.62825">
        <ele>686.4</ele>
        <time>2021-05-28T13:24:52Z</time>
      </trkpt>
      <trkpt lat="45.55112" lon="6.62835">
        <ele>686.6</ele>
        <time>2021-05-28T13:24:53Z</time>
      </trkpt>
      <trkpt lat="45.55117" lon="6.62845">
        <ele>686.8</ele>
        <time>2021-05-28T13:24:54Z</time>
      </trkpt>
      <trkpt lat="45.55121" lon="6.62855">
        <ele>687</ele>
        <time>2021-05-28T13:24:55Z</time>
      </trkpt>
      <trkpt lat="45.55125" lon="6.62865">
        <ele>687.4</ele>
        <time>2021-05-28T13:24:56Z</time>
      </trkpt>
      <trkpt lat="45.55129" lon="6.62877">
        <ele>687.4</ele>
        <time>2021-05-28T13:24:57Z</time>
      </trkpt>
      <trkpt lat="45.55134" lon="6.62887">
        <ele>687.6</ele>
        <time>2021-05-28T13:24:58Z</time>
      </trkpt>
      <trkpt lat="45.55138" lon="6.62899">
        <ele>687.6</ele>
        <time>2021-05-28T13:24:59Z</time>
      </trkpt>
      <trkpt lat="45.55141" lon="6.62911">
        <ele>687.4</ele>
        <time>2021-05-28T13:25:00Z</time>
      </trkpt>
      <trkpt lat="45.55145" lon="6.62923">
        <ele>687.2</ele>
        <time>2021-05-28T13:25:01Z</time>
      </trkpt>
      <trkpt lat="45.55148" lon="6.62934">
        <ele>687</ele>
        <time>2021-05-28T13:25:02Z</time>
      </trkpt>
      <trkpt lat="45.55151" lon="6.62947">
        <ele>687</ele>
        <time>2021-05-28T13:25:03Z</time>
      </trkpt>
      <trkpt lat="45.55153" lon="6.62959">
        <ele>687.2</ele>
        <time>2021-05-28T13:25:04Z</time>
      </trkpt>
      <trkpt lat="45.55155" lon="6.62973">
        <ele>687.4</ele>
        <time>2021-05-28T13:25:05Z</time>
      </trkpt>
      <trkpt lat="45.55157" lon="6.62987">
        <ele>687.6</ele>
        <time>2021-05-28T13:25:06Z</time>
      </trkpt>
      <trkpt lat="45.55159" lon="6.63">
        <ele>687.8</ele>
        <time>2021-05-28T13:25:07Z</time>
      </trkpt>
      <trkpt lat="45.55161" lon="6.63014">
        <ele>687.8</ele>
        <time>2021-05-28T13:25:08Z</time>
      </trkpt>
      <trkpt lat="45.55162" lon="6.63028">
        <ele>687.8</ele>
        <time>2021-05-28T13:25:09Z</time>
      </trkpt>
      <trkpt lat="45.55162" lon="6.63042">
        <ele>687.8</ele>
        <time>2021-05-28T13:25:10Z</time>
      </trkpt>
      <trkpt lat="45.55162" lon="6.63056">
        <ele>687.4</ele>
        <time>2021-05-28T13:25:11Z</time>
      </trkpt>
      <trkpt lat="45.55162" lon="6.6307">
        <ele>687.2</ele>
        <time>2021-05-28T13:25:12Z</time>
      </trkpt>
      <trkpt lat="45.55162" lon="6.63084">
        <ele>686.6</ele>
        <time>2021-05-28T13:25:13Z</time>
      </trkpt>
      <trkpt lat="45.55161" lon="6.63098">
        <ele>686.6</ele>
        <time>2021-05-28T13:25:14Z</time>
      </trkpt>
      <trkpt lat="45.5516" lon="6.63112">
        <ele>686.2</ele>
        <time>2021-05-28T13:25:15Z</time>
      </trkpt>
      <trkpt lat="45.55159" lon="6.63126">
        <ele>686.2</ele>
        <time>2021-05-28T13:25:16Z</time>
      </trkpt>
      <trkpt lat="45.55157" lon="6.6314">
        <ele>685.8</ele>
        <time>2021-05-28T13:25:17Z</time>
      </trkpt>
      <trkpt lat="45.55156" lon="6.63153">
        <ele>685.4</ele>
        <time>2021-05-28T13:25:18Z</time>
      </trkpt>
      <trkpt lat="45.55155" lon="6.63167">
        <ele>685.4</ele>
        <time>2021-05-28T13:25:19Z</time>
      </trkpt>
      <trkpt lat="45.55154" lon="6.63181">
        <ele>685</ele>
        <time>2021-05-28T13:25:20Z</time>
      </trkpt>
      <trkpt lat="45.55152" lon="6.63195">
        <ele>685.4</ele>
        <time>2021-05-28T13:25:21Z</time>
      </trkpt>
      <trkpt lat="45.55151" lon="6.63208">
        <ele>684.8</ele>
        <time>2021-05-28T13:25:22Z</time>
      </trkpt>
      <trkpt lat="45.55149" lon="6.63221">
        <ele>684.8</ele>
        <time>2021-05-28T13:25:23Z</time>
      </trkpt>
      <trkpt lat="45.55148" lon="6.63234">
        <ele>684.6</ele>
        <time>2021-05-28T13:25:24Z</time>
      </trkpt>
      <trkpt lat="45.55147" lon="6.63248">
        <ele>684.8</ele>
        <time>2021-05-28T13:25:25Z</time>
      </trkpt>
      <trkpt lat="45.55146" lon="6.63261">
        <ele>684.8</ele>
        <time>2021-05-28T13:25:26Z</time>
      </trkpt>
      <trkpt lat="45.55145" lon="6.63274">
        <ele>684.4</ele>
        <time>2021-05-28T13:25:27Z</time>
      </trkpt>
      <trkpt lat="45.55144" lon="6.63287">
        <ele>684.2</ele>
        <time>2021-05-28T13:25:28Z</time>
      </trkpt>
      <trkpt lat="45.55144" lon="6.63301">
        <ele>684.2</ele>
        <time>2021-05-28T13:25:29Z</time>
      </trkpt>
      <trkpt lat="45.55144" lon="6.63313">
        <ele>684.2</ele>
        <time>2021-05-28T13:25:30Z</time>
      </trkpt>
      <trkpt lat="45.55145" lon="6.63327">
        <ele>684.2</ele>
        <time>2021-05-28T13:25:31Z</time>
      </trkpt>
      <trkpt lat="45.55145" lon="6.6334">
        <ele>684.2</ele>
        <time>2021-05-28T13:25:32Z</time>
      </trkpt>
      <trkpt lat="45.55147" lon="6.63354">
        <ele>684.4</ele>
        <time>2021-05-28T13:25:33Z</time>
      </trkpt>
      <trkpt lat="45.55148" lon="6.63367">
        <ele>684.2</ele>
        <time>2021-05-28T13:25:34Z</time>
      </trkpt>
      <trkpt lat="45.5515" lon="6.6338">
        <ele>684.2</ele>
        <time>2021-05-28T13:25:35Z</time>
      </trkpt>
      <trkpt lat="45.55152" lon="6.63393">
        <ele>684</ele>
        <time>2021-05-28T13:25:36Z</time>
      </trkpt>
      <trkpt lat="45.55155" lon="6.63405">
        <ele>684.2</ele>
        <time>2021-05-28T13:25:37Z</time>
      </trkpt>
      <trkpt lat="45.55157" lon="6.63418">
        <ele>684.2</ele>
        <time>2021-05-28T13:25:38Z</time>
      </trkpt>
      <trkpt lat="45.5516" lon="6.63431">
        <ele>684.2</ele>
        <time>2021-05-28T13:25:39Z</time>
      </trkpt>
      <trkpt lat="45.55163" lon="6.63443">
        <ele>684.6</ele>
        <time>2021-05-28T13:25:40Z</time>
      </trkpt>
      <trkpt lat="45.55165" lon="6.63456">
        <ele>684.8</ele>
        <time>2021-05-28T13:25:41Z</time>
      </trkpt>
      <trkpt lat="45.55169" lon="6.63469">
        <ele>684.8</ele>
        <time>2021-05-28T13:25:42Z</time>
      </trkpt>
      <trkpt lat="45.55172" lon="6.63481">
        <ele>685.2</ele>
        <time>2021-05-28T13:25:43Z</time>
      </trkpt>
      <trkpt lat="45.55174" lon="6.63493">
        <ele>685.2</ele>
        <time>2021-05-28T13:25:44Z</time>
      </trkpt>
      <trkpt lat="45.55178" lon="6.63506">
        <ele>685.4</ele>
        <time>2021-05-28T13:25:45Z</time>
      </trkpt>
      <trkpt lat="45.55181" lon="6.63518">
        <ele>685.4</ele>
        <time>2021-05-28T13:25:46Z</time>
      </trkpt>
      <trkpt lat="45.55184" lon="6.6353">
        <ele>685.4</ele>
        <time>2021-05-28T13:25:47Z</time>
      </trkpt>
      <trkpt lat="45.55187" lon="6.63542">
        <ele>685.4</ele>
        <time>2021-05-28T13:25:48Z</time>
      </trkpt>
      <trkpt lat="45.55191" lon="6.63554">
        <ele>685.2</ele>
        <time>2021-05-28T13:25:49Z</time>
      </trkpt>
      <trkpt lat="45.55194" lon="6.63567">
        <ele>685.4</ele>
        <time>2021-05-28T13:25:50Z</time>
      </trkpt>
      <trkpt lat="45.55198" lon="6.63579">
        <ele>685.2</ele>
        <time>2021-05-28T13:25:51Z</time>
      </trkpt>
      <trkpt lat="45.55203" lon="6.63592">
        <ele>685.2</ele>
        <time>2021-05-28T13:25:52Z</time>
      </trkpt>
      <trkpt lat="45.55207" lon="6.63604">
        <ele>685.4</ele>
        <time>2021-05-28T13:25:53Z</time>
      </trkpt>
      <trkpt lat="45.55211" lon="6.63617">
        <ele>685.4</ele>
        <time>2021-05-28T13:25:54Z</time>
      </trkpt>
      <trkpt lat="45.55215" lon="6.6363">
        <ele>685.6</ele>
        <time>2021-05-28T13:25:55Z</time>
      </trkpt>
      <trkpt lat="45.5522" lon="6.63642">
        <ele>685.2</ele>
        <time>2021-05-28T13:25:56Z</time>
      </trkpt>
      <trkpt lat="45.55225" lon="6.63655">
        <ele>685</ele>
        <time>2021-05-28T13:25:57Z</time>
      </trkpt>
      <trkpt lat="45.55229" lon="6.63668">
        <ele>684.8</ele>
        <time>2021-05-28T13:25:58Z</time>
      </trkpt>
      <trkpt lat="45.55235" lon="6.6368">
        <ele>684.6</ele>
        <time>2021-05-28T13:25:59Z</time>
      </trkpt>
      <trkpt lat="45.55239" lon="6.63693">
        <ele>684.8</ele>
        <time>2021-05-28T13:26:00Z</time>
      </trkpt>
      <trkpt lat="45.55245" lon="6.63706">
        <ele>684.8</ele>
        <time>2021-05-28T13:26:01Z</time>
      </trkpt>
      <trkpt lat="45.5525" lon="6.63718">
        <ele>685</ele>
        <time>2021-05-28T13:26:02Z</time>
      </trkpt>
      <trkpt lat="45.55256" lon="6.6373">
        <ele>684.8</ele>
        <time>2021-05-28T13:26:03Z</time>
      </trkpt>
      <trkpt lat="45.55262" lon="6.63742">
        <ele>684.8</ele>
        <time>2021-05-28T13:26:04Z</time>
      </trkpt>
      <trkpt lat="45.55267" lon="6.63754">
        <ele>684.4</ele>
        <time>2021-05-28T13:26:05Z</time>
      </trkpt>
      <trkpt lat="45.55273" lon="6.63766">
        <ele>684.4</ele>
        <time>2021-05-28T13:26:06Z</time>
      </trkpt>
      <trkpt lat="45.55279" lon="6.63778">
        <ele>684.4</ele>
        <time>2021-05-28T13:26:07Z</time>
      </trkpt>
      <trkpt lat="45.55285" lon="6.6379">
        <ele>684.2</ele>
        <time>2021-05-28T13:26:08Z</time>
      </trkpt>
      <trkpt lat="45.55292" lon="6.63801">
        <ele>684</ele>
        <time>2021-05-28T13:26:09Z</time>
      </trkpt>
      <trkpt lat="45.55298" lon="6.63813">
        <ele>683.8</ele>
        <time>2021-05-28T13:26:10Z</time>
      </trkpt>
      <trkpt lat="45.55304" lon="6.63825">
        <ele>683.4</ele>
        <time>2021-05-28T13:26:11Z</time>
      </trkpt>
      <trkpt lat="45.5531" lon="6.63836">
        <ele>683.4</ele>
        <time>2021-05-28T13:26:12Z</time>
      </trkpt>
      <trkpt lat="45.55316" lon="6.63848">
        <ele>683</ele>
        <time>2021-05-28T13:26:13Z</time>
      </trkpt>
      <trkpt lat="45.55322" lon="6.63859">
        <ele>682.8</ele>
        <time>2021-05-28T13:26:14Z</time>
      </trkpt>
      <trkpt lat="45.55328" lon="6.63871">
        <ele>682.6</ele>
        <time>2021-05-28T13:26:15Z</time>
      </trkpt>
      <trkpt lat="45.55333" lon="6.63882">
        <ele>682.4</ele>
        <time>2021-05-28T13:26:16Z</time>
      </trkpt>
      <trkpt lat="45.5534" lon="6.63895">
        <ele>682</ele>
        <time>2021-05-28T13:26:17Z</time>
      </trkpt>
      <trkpt lat="45.55345" lon="6.63907">
        <ele>682</ele>
        <time>2021-05-28T13:26:18Z</time>
      </trkpt>
      <trkpt lat="45.55351" lon="6.6392">
        <ele>682</ele>
        <time>2021-05-28T13:26:19Z</time>
      </trkpt>
      <trkpt lat="45.55357" lon="6.63932">
        <ele>682</ele>
        <time>2021-05-28T13:26:20Z</time>
      </trkpt>
      <trkpt lat="45.55363" lon="6.63945">
        <ele>681.8</ele>
        <time>2021-05-28T13:26:21Z</time>
      </trkpt>
      <trkpt lat="45.55369" lon="6.63957">
        <ele>681.4</ele>
        <time>2021-05-28T13:26:22Z</time>
      </trkpt>
      <trkpt lat="45.55375" lon="6.6397">
        <ele>681.4</ele>
        <time>2021-05-28T13:26:23Z</time>
      </trkpt>
      <trkpt lat="45.55381" lon="6.63982">
        <ele>681.4</ele>
        <time>2021-05-28T13:26:24Z</time>
      </trkpt>
      <trkpt lat="45.55388" lon="6.63995">
        <ele>681.4</ele>
        <time>2021-05-28T13:26:25Z</time>
      </trkpt>
      <trkpt lat="45.55393" lon="6.64008">
        <ele>681.4</ele>
        <time>2021-05-28T13:26:26Z</time>
      </trkpt>
      <trkpt lat="45.55399" lon="6.64021">
        <ele>681.4</ele>
        <time>2021-05-28T13:26:27Z</time>
      </trkpt>
      <trkpt lat="45.55406" lon="6.64033">
        <ele>681.6</ele>
        <time>2021-05-28T13:26:28Z</time>
      </trkpt>
      <trkpt lat="45.55412" lon="6.64046">
        <ele>681</ele>
        <time>2021-05-28T13:26:29Z</time>
      </trkpt>
      <trkpt lat="45.55418" lon="6.64059">
        <ele>681</ele>
        <time>2021-05-28T13:26:30Z</time>
      </trkpt>
      <trkpt lat="45.55425" lon="6.64071">
        <ele>680.8</ele>
        <time>2021-05-28T13:26:31Z</time>
      </trkpt>
      <trkpt lat="45.55431" lon="6.64084">
        <ele>680.4</ele>
        <time>2021-05-28T13:26:32Z</time>
      </trkpt>
      <trkpt lat="45.55437" lon="6.64097">
        <ele>680.2</ele>
        <time>2021-05-28T13:26:33Z</time>
      </trkpt>
      <trkpt lat="45.55443" lon="6.64111">
        <ele>680.2</ele>
        <time>2021-05-28T13:26:34Z</time>
      </trkpt>
      <trkpt lat="45.55449" lon="6.64125">
        <ele>680</ele>
        <time>2021-05-28T13:26:35Z</time>
      </trkpt>
      <trkpt lat="45.55455" lon="6.64139">
        <ele>679.8</ele>
        <time>2021-05-28T13:26:36Z</time>
      </trkpt>
      <trkpt lat="45.55461" lon="6.64153">
        <ele>679</ele>
        <time>2021-05-28T13:26:37Z</time>
      </trkpt>
      <trkpt lat="45.55467" lon="6.64167">
        <ele>678.4</ele>
        <time>2021-05-28T13:26:38Z</time>
      </trkpt>
      <trkpt lat="45.55472" lon="6.64181">
        <ele>678</ele>
        <time>2021-05-28T13:26:39Z</time>
      </trkpt>
      <trkpt lat="45.55477" lon="6.64196">
        <ele>677.6</ele>
        <time>2021-05-28T13:26:40Z</time>
      </trkpt>
      <trkpt lat="45.55481" lon="6.64211">
        <ele>677.2</ele>
        <time>2021-05-28T13:26:41Z</time>
      </trkpt>
      <trkpt lat="45.55485" lon="6.64227">
        <ele>677.2</ele>
        <time>2021-05-28T13:26:42Z</time>
      </trkpt>
      <trkpt lat="45.55488" lon="6.64243">
        <ele>677.2</ele>
        <time>2021-05-28T13:26:43Z</time>
      </trkpt>
      <trkpt lat="45.55491" lon="6.64258">
        <ele>677.2</ele>
        <time>2021-05-28T13:26:44Z</time>
      </trkpt>
      <trkpt lat="45.55493" lon="6.64275">
        <ele>676.6</ele>
        <time>2021-05-28T13:26:45Z</time>
      </trkpt>
      <trkpt lat="45.55494" lon="6.64291">
        <ele>676</ele>
        <time>2021-05-28T13:26:46Z</time>
      </trkpt>
      <trkpt lat="45.55495" lon="6.64306">
        <ele>675.6</ele>
        <time>2021-05-28T13:26:47Z</time>
      </trkpt>
      <trkpt lat="45.55497" lon="6.64322">
        <ele>675.4</ele>
        <time>2021-05-28T13:26:48Z</time>
      </trkpt>
      <trkpt lat="45.55499" lon="6.64337">
        <ele>675</ele>
        <time>2021-05-28T13:26:49Z</time>
      </trkpt>
      <trkpt lat="45.555" lon="6.64353">
        <ele>674.2</ele>
        <time>2021-05-28T13:26:50Z</time>
      </trkpt>
      <trkpt lat="45.55501" lon="6.64367">
        <ele>673.6</ele>
        <time>2021-05-28T13:26:51Z</time>
      </trkpt>
      <trkpt lat="45.55503" lon="6.64382">
        <ele>673.4</ele>
        <time>2021-05-28T13:26:52Z</time>
      </trkpt>
      <trkpt lat="45.55504" lon="6.64397">
        <ele>673</ele>
        <time>2021-05-28T13:26:53Z</time>
      </trkpt>
      <trkpt lat="45.55505" lon="6.64411">
        <ele>672.8</ele>
        <time>2021-05-28T13:26:54Z</time>
      </trkpt>
      <trkpt lat="45.55506" lon="6.64425">
        <ele>672.8</ele>
        <time>2021-05-28T13:26:55Z</time>
      </trkpt>
      <trkpt lat="45.55508" lon="6.64438">
        <ele>672.2</ele>
        <time>2021-05-28T13:26:56Z</time>
      </trkpt>
      <trkpt lat="45.5551" lon="6.64452">
        <ele>672</ele>
        <time>2021-05-28T13:26:57Z</time>
      </trkpt>
      <trkpt lat="45.55513" lon="6.64464">
        <ele>671.6</ele>
        <time>2021-05-28T13:26:58Z</time>
      </trkpt>
      <trkpt lat="45.55515" lon="6.64477">
        <ele>672</ele>
        <time>2021-05-28T13:26:59Z</time>
      </trkpt>
      <trkpt lat="45.55516" lon="6.6449">
        <ele>672.4</ele>
        <time>2021-05-28T13:27:00Z</time>
      </trkpt>
      <trkpt lat="45.55517" lon="6.64502">
        <ele>672.4</ele>
        <time>2021-05-28T13:27:01Z</time>
      </trkpt>
      <trkpt lat="45.55518" lon="6.64514">
        <ele>672.6</ele>
        <time>2021-05-28T13:27:02Z</time>
      </trkpt>
      <trkpt lat="45.55519" lon="6.64526">
        <ele>672.8</ele>
        <time>2021-05-28T13:27:03Z</time>
      </trkpt>
      <trkpt lat="45.55521" lon="6.64538">
        <ele>671.8</ele>
        <time>2021-05-28T13:27:04Z</time>
      </trkpt>
      <trkpt lat="45.55521" lon="6.64549">
        <ele>671.6</ele>
        <time>2021-05-28T13:27:05Z</time>
      </trkpt>
      <trkpt lat="45.55522" lon="6.6456">
        <ele>671.4</ele>
        <time>2021-05-28T13:27:06Z</time>
      </trkpt>
      <trkpt lat="45.55523" lon="6.64571">
        <ele>671.6</ele>
        <time>2021-05-28T13:27:07Z</time>
      </trkpt>
      <trkpt lat="45.55524" lon="6.64581">
        <ele>671.8</ele>
        <time>2021-05-28T13:27:08Z</time>
      </trkpt>
      <trkpt lat="45.55525" lon="6.64591">
        <ele>672</ele>
        <time>2021-05-28T13:27:09Z</time>
      </trkpt>
      <trkpt lat="45.55527" lon="6.64601">
        <ele>672</ele>
        <time>2021-05-28T13:27:10Z</time>
      </trkpt>
      <trkpt lat="45.55527" lon="6.64611">
        <ele>672.4</ele>
        <time>2021-05-28T13:27:11Z</time>
      </trkpt>
      <trkpt lat="45.55529" lon="6.64621">
        <ele>672.4</ele>
        <time>2021-05-28T13:27:12Z</time>
      </trkpt>
      <trkpt lat="45.55529" lon="6.64631">
        <ele>672.6</ele>
        <time>2021-05-28T13:27:13Z</time>
      </trkpt>
      <trkpt lat="45.5553" lon="6.64641">
        <ele>672.8</ele>
        <time>2021-05-28T13:27:14Z</time>
      </trkpt>
      <trkpt lat="45.55531" lon="6.6465">
        <ele>673</ele>
        <time>2021-05-28T13:27:15Z</time>
      </trkpt>
      <trkpt lat="45.55532" lon="6.64659">
        <ele>673.2</ele>
        <time>2021-05-28T13:27:16Z</time>
      </trkpt>
      <trkpt lat="45.55533" lon="6.64668">
        <ele>673.8</ele>
        <time>2021-05-28T13:27:17Z</time>
      </trkpt>
      <trkpt lat="45.55534" lon="6.64676">
        <ele>674</ele>
        <time>2021-05-28T13:27:18Z</time>
      </trkpt>
      <trkpt lat="45.55535" lon="6.64685">
        <ele>674.4</ele>
        <time>2021-05-28T13:27:19Z</time>
      </trkpt>
      <trkpt lat="45.55536" lon="6.64694">
        <ele>674.6</ele>
        <time>2021-05-28T13:27:20Z</time>
      </trkpt>
      <trkpt lat="45.55537" lon="6.64702">
        <ele>675</ele>
        <time>2021-05-28T13:27:21Z</time>
      </trkpt>
      <trkpt lat="45.55538" lon="6.6471">
        <ele>675</ele>
        <time>2021-05-28T13:27:22Z</time>
      </trkpt>
      <trkpt lat="45.55539" lon="6.64719">
        <ele>675.4</ele>
        <time>2021-05-28T13:27:23Z</time>
      </trkpt>
      <trkpt lat="45.5554" lon="6.64727">
        <ele>675.8</ele>
        <time>2021-05-28T13:27:24Z</time>
      </trkpt>
      <trkpt lat="45.5554" lon="6.64736">
        <ele>676</ele>
        <time>2021-05-28T13:27:25Z</time>
      </trkpt>
      <trkpt lat="45.5554" lon="6.64744">
        <ele>676.2</ele>
        <time>2021-05-28T13:27:26Z</time>
      </trkpt>
      <trkpt lat="45.55541" lon="6.64752">
        <ele>676.6</ele>
        <time>2021-05-28T13:27:27Z</time>
      </trkpt>
      <trkpt lat="45.55541" lon="6.6476">
        <ele>676.8</ele>
        <time>2021-05-28T13:27:28Z</time>
      </trkpt>
      <trkpt lat="45.55542" lon="6.64769">
        <ele>677</ele>
        <time>2021-05-28T13:27:29Z</time>
      </trkpt>
      <trkpt lat="45.55543" lon="6.64777">
        <ele>677.2</ele>
        <time>2021-05-28T13:27:30Z</time>
      </trkpt>
      <trkpt lat="45.55543" lon="6.64785">
        <ele>677.4</ele>
        <time>2021-05-28T13:27:31Z</time>
      </trkpt>
      <trkpt lat="45.55545" lon="6.64794">
        <ele>677.6</ele>
        <time>2021-05-28T13:27:32Z</time>
      </trkpt>
      <trkpt lat="45.55546" lon="6.64802">
        <ele>678</ele>
        <time>2021-05-28T13:27:33Z</time>
      </trkpt>
      <trkpt lat="45.55547" lon="6.6481">
        <ele>678.2</ele>
        <time>2021-05-28T13:27:34Z</time>
      </trkpt>
      <trkpt lat="45.55549" lon="6.64818">
        <ele>678.4</ele>
        <time>2021-05-28T13:27:35Z</time>
      </trkpt>
      <trkpt lat="45.5555" lon="6.64826">
        <ele>678.6</ele>
        <time>2021-05-28T13:27:36Z</time>
      </trkpt>
      <trkpt lat="45.55551" lon="6.64834">
        <ele>679</ele>
        <time>2021-05-28T13:27:37Z</time>
      </trkpt>
      <trkpt lat="45.55552" lon="6.64841">
        <ele>679.2</ele>
        <time>2021-05-28T13:27:38Z</time>
      </trkpt>
      <trkpt lat="45.55553" lon="6.6485">
        <ele>679.4</ele>
        <time>2021-05-28T13:27:39Z</time>
      </trkpt>
      <trkpt lat="45.55553" lon="6.64857">
        <ele>679.6</ele>
        <time>2021-05-28T13:27:40Z</time>
      </trkpt>
      <trkpt lat="45.55555" lon="6.64866">
        <ele>679.8</ele>
        <time>2021-05-28T13:27:41Z</time>
      </trkpt>
      <trkpt lat="45.55555" lon="6.64874">
        <ele>680</ele>
        <time>2021-05-28T13:27:42Z</time>
      </trkpt>
      <trkpt lat="45.55556" lon="6.64882">
        <ele>680.4</ele>
        <time>2021-05-28T13:27:43Z</time>
      </trkpt>
      <trkpt lat="45.55558" lon="6.64889">
        <ele>680.6</ele>
        <time>2021-05-28T13:27:44Z</time>
      </trkpt>
      <trkpt lat="45.55558" lon="6.64896">
        <ele>680.8</ele>
        <time>2021-05-28T13:27:45Z</time>
      </trkpt>
      <trkpt lat="45.55559" lon="6.64903">
        <ele>681</ele>
        <time>2021-05-28T13:27:46Z</time>
      </trkpt>
      <trkpt lat="45.5556" lon="6.64909">
        <ele>680.8</ele>
        <time>2021-05-28T13:27:47Z</time>
      </trkpt>
      <trkpt lat="45.5556" lon="6.64915">
        <ele>680.8</ele>
        <time>2021-05-28T13:27:48Z</time>
      </trkpt>
      <trkpt lat="45.5556" lon="6.64921">
        <ele>681</ele>
        <time>2021-05-28T13:27:49Z</time>
      </trkpt>
      <trkpt lat="45.55561" lon="6.64926">
        <ele>681</ele>
        <time>2021-05-28T13:27:50Z</time>
      </trkpt>
      <trkpt lat="45.55561" lon="6.64931">
        <ele>680.6</ele>
        <time>2021-05-28T13:27:51Z</time>
      </trkpt>
      <trkpt lat="45.55561" lon="6.64936">
        <ele>680</ele>
        <time>2021-05-28T13:27:52Z</time>
      </trkpt>
      <trkpt lat="45.55562" lon="6.64942">
        <ele>679.4</ele>
        <time>2021-05-28T13:27:53Z</time>
      </trkpt>
      <trkpt lat="45.55562" lon="6.64948">
        <ele>678.8</ele>
        <time>2021-05-28T13:27:54Z</time>
      </trkpt>
      <trkpt lat="45.55563" lon="6.64954">
        <ele>678.2</ele>
        <time>2021-05-28T13:27:55Z</time>
      </trkpt>
      <trkpt lat="45.55563" lon="6.6496">
        <ele>677.4</ele>
        <time>2021-05-28T13:27:56Z</time>
      </trkpt>
      <trkpt lat="45.55564" lon="6.64966">
        <ele>677</ele>
        <time>2021-05-28T13:27:57Z</time>
      </trkpt>
      <trkpt lat="45.55564" lon="6.64972">
        <ele>676.4</ele>
        <time>2021-05-28T13:27:58Z</time>
      </trkpt>
      <trkpt lat="45.55565" lon="6.64978">
        <ele>676</ele>
        <time>2021-05-28T13:27:59Z</time>
      </trkpt>
      <trkpt lat="45.55566" lon="6.64984">
        <ele>675.8</ele>
        <time>2021-05-28T13:28:00Z</time>
      </trkpt>
      <trkpt lat="45.55566" lon="6.6499">
        <ele>675.4</ele>
        <time>2021-05-28T13:28:01Z</time>
      </trkpt>
      <trkpt lat="45.55568" lon="6.64996">
        <ele>675.2</ele>
        <time>2021-05-28T13:28:02Z</time>
      </trkpt>
      <trkpt lat="45.55569" lon="6.65003">
        <ele>675</ele>
        <time>2021-05-28T13:28:03Z</time>
      </trkpt>
      <trkpt lat="45.5557" lon="6.65009">
        <ele>675</ele>
        <time>2021-05-28T13:28:04Z</time>
      </trkpt>
      <trkpt lat="45.55571" lon="6.65016">
        <ele>675.2</ele>
        <time>2021-05-28T13:28:05Z</time>
      </trkpt>
      <trkpt lat="45.55572" lon="6.65023">
        <ele>675.2</ele>
        <time>2021-05-28T13:28:06Z</time>
      </trkpt>
      <trkpt lat="45.55573" lon="6.6503">
        <ele>675.2</ele>
        <time>2021-05-28T13:28:07Z</time>
      </trkpt>
      <trkpt lat="45.55574" lon="6.65036">
        <ele>675</ele>
        <time>2021-05-28T13:28:08Z</time>
      </trkpt>
      <trkpt lat="45.55575" lon="6.65044">
        <ele>675.2</ele>
        <time>2021-05-28T13:28:09Z</time>
      </trkpt>
      <trkpt lat="45.55576" lon="6.65051">
        <ele>675.4</ele>
        <time>2021-05-28T13:28:10Z</time>
      </trkpt>
      <trkpt lat="45.55576" lon="6.65059">
        <ele>675.6</ele>
        <time>2021-05-28T13:28:11Z</time>
      </trkpt>
      <trkpt lat="45.55577" lon="6.65066">
        <ele>676</ele>
        <time>2021-05-28T13:28:12Z</time>
      </trkpt>
      <trkpt lat="45.55578" lon="6.65073">
        <ele>676.2</ele>
        <time>2021-05-28T13:28:13Z</time>
      </trkpt>
      <trkpt lat="45.55578" lon="6.65081">
        <ele>676.4</ele>
        <time>2021-05-28T13:28:14Z</time>
      </trkpt>
      <trkpt lat="45.55579" lon="6.65088">
        <ele>676.6</ele>
        <time>2021-05-28T13:28:15Z</time>
      </trkpt>
      <trkpt lat="45.5558" lon="6.65096">
        <ele>676.8</ele>
        <time>2021-05-28T13:28:16Z</time>
      </trkpt>
      <trkpt lat="45.55581" lon="6.65103">
        <ele>677</ele>
        <time>2021-05-28T13:28:17Z</time>
      </trkpt>
      <trkpt lat="45.55582" lon="6.6511">
        <ele>677</ele>
        <time>2021-05-28T13:28:18Z</time>
      </trkpt>
      <trkpt lat="45.55584" lon="6.65118">
        <ele>677.2</ele>
        <time>2021-05-28T13:28:19Z</time>
      </trkpt>
      <trkpt lat="45.55586" lon="6.65125">
        <ele>677.4</ele>
        <time>2021-05-28T13:28:20Z</time>
      </trkpt>
      <trkpt lat="45.55587" lon="6.65133">
        <ele>677.8</ele>
        <time>2021-05-28T13:28:21Z</time>
      </trkpt>
      <trkpt lat="45.55588" lon="6.6514">
        <ele>678</ele>
        <time>2021-05-28T13:28:22Z</time>
      </trkpt>
      <trkpt lat="45.5559" lon="6.65147">
        <ele>678.2</ele>
        <time>2021-05-28T13:28:23Z</time>
      </trkpt>
      <trkpt lat="45.55592" lon="6.65155">
        <ele>678.4</ele>
        <time>2021-05-28T13:28:24Z</time>
      </trkpt>
      <trkpt lat="45.55594" lon="6.65162">
        <ele>678.4</ele>
        <time>2021-05-28T13:28:25Z</time>
      </trkpt>
      <trkpt lat="45.55596" lon="6.65169">
        <ele>678.6</ele>
        <time>2021-05-28T13:28:26Z</time>
      </trkpt>
      <trkpt lat="45.55599" lon="6.65176">
        <ele>678.8</ele>
        <time>2021-05-28T13:28:27Z</time>
      </trkpt>
      <trkpt lat="45.55602" lon="6.65183">
        <ele>679</ele>
        <time>2021-05-28T13:28:28Z</time>
      </trkpt>
      <trkpt lat="45.55605" lon="6.6519">
        <ele>679</ele>
        <time>2021-05-28T13:28:29Z</time>
      </trkpt>
      <trkpt lat="45.55608" lon="6.65196">
        <ele>679.2</ele>
        <time>2021-05-28T13:28:30Z</time>
      </trkpt>
      <trkpt lat="45.55611" lon="6.65203">
        <ele>679.2</ele>
        <time>2021-05-28T13:28:31Z</time>
      </trkpt>
      <trkpt lat="45.55614" lon="6.65209">
        <ele>679.6</ele>
        <time>2021-05-28T13:28:32Z</time>
      </trkpt>
      <trkpt lat="45.55617" lon="6.65216">
        <ele>680</ele>
        <time>2021-05-28T13:28:33Z</time>
      </trkpt>
      <trkpt lat="45.5562" lon="6.65222">
        <ele>680.2</ele>
        <time>2021-05-28T13:28:34Z</time>
      </trkpt>
      <trkpt lat="45.55624" lon="6.65229">
        <ele>680.6</ele>
        <time>2021-05-28T13:28:35Z</time>
      </trkpt>
      <trkpt lat="45.55628" lon="6.65236">
        <ele>681</ele>
        <time>2021-05-28T13:28:36Z</time>
      </trkpt>
      <trkpt lat="45.55632" lon="6.65242">
        <ele>681.2</ele>
        <time>2021-05-28T13:28:37Z</time>
      </trkpt>
      <trkpt lat="45.55636" lon="6.65248">
        <ele>681.4</ele>
        <time>2021-05-28T13:28:38Z</time>
      </trkpt>
      <trkpt lat="45.5564" lon="6.65254">
        <ele>681.6</ele>
        <time>2021-05-28T13:28:39Z</time>
      </trkpt>
      <trkpt lat="45.55644" lon="6.65261">
        <ele>682</ele>
        <time>2021-05-28T13:28:40Z</time>
      </trkpt>
      <trkpt lat="45.55648" lon="6.65267">
        <ele>682.2</ele>
        <time>2021-05-28T13:28:41Z</time>
      </trkpt>
      <trkpt lat="45.55652" lon="6.65273">
        <ele>682.4</ele>
        <time>2021-05-28T13:28:42Z</time>
      </trkpt>
      <trkpt lat="45.55657" lon="6.65279">
        <ele>682.8</ele>
        <time>2021-05-28T13:28:43Z</time>
      </trkpt>
      <trkpt lat="45.55661" lon="6.65286">
        <ele>683.2</ele>
        <time>2021-05-28T13:28:44Z</time>
      </trkpt>
      <trkpt lat="45.55666" lon="6.65292">
        <ele>683.4</ele>
        <time>2021-05-28T13:28:45Z</time>
      </trkpt>
      <trkpt lat="45.5567" lon="6.65298">
        <ele>683.6</ele>
        <time>2021-05-28T13:28:46Z</time>
      </trkpt>
      <trkpt lat="45.55675" lon="6.65303">
        <ele>683.4</ele>
        <time>2021-05-28T13:28:47Z</time>
      </trkpt>
      <trkpt lat="45.5568" lon="6.65308">
        <ele>683</ele>
        <time>2021-05-28T13:28:48Z</time>
      </trkpt>
      <trkpt lat="45.55684" lon="6.65314">
        <ele>682.6</ele>
        <time>2021-05-28T13:28:49Z</time>
      </trkpt>
      <trkpt lat="45.55688" lon="6.6532">
        <ele>682.4</ele>
        <time>2021-05-28T13:28:50Z</time>
      </trkpt>
      <trkpt lat="45.55691" lon="6.65327">
        <ele>682.2</ele>
        <time>2021-05-28T13:28:51Z</time>
      </trkpt>
      <trkpt lat="45.55695" lon="6.65334">
        <ele>682</ele>
        <time>2021-05-28T13:28:52Z</time>
      </trkpt>
      <trkpt lat="45.557" lon="6.6534">
        <ele>682</ele>
        <time>2021-05-28T13:28:53Z</time>
      </trkpt>
      <trkpt lat="45.55703" lon="6.65346">
        <ele>681.8</ele>
        <time>2021-05-28T13:28:54Z</time>
      </trkpt>
      <trkpt lat="45.55707" lon="6.65352">
        <ele>681.8</ele>
        <time>2021-05-28T13:28:55Z</time>
      </trkpt>
      <trkpt lat="45.55711" lon="6.65358">
        <ele>681.8</ele>
        <time>2021-05-28T13:28:56Z</time>
      </trkpt>
      <trkpt lat="45.55714" lon="6.65366">
        <ele>681.8</ele>
        <time>2021-05-28T13:28:57Z</time>
      </trkpt>
      <trkpt lat="45.55717" lon="6.65373">
        <ele>682</ele>
        <time>2021-05-28T13:28:58Z</time>
      </trkpt>
      <trkpt lat="45.5572" lon="6.6538">
        <ele>682</ele>
        <time>2021-05-28T13:28:59Z</time>
      </trkpt>
      <trkpt lat="45.55723" lon="6.65389">
        <ele>682.4</ele>
        <time>2021-05-28T13:29:00Z</time>
      </trkpt>
      <trkpt lat="45.55725" lon="6.65397">
        <ele>682.2</ele>
        <time>2021-05-28T13:29:01Z</time>
      </trkpt>
      <trkpt lat="45.55728" lon="6.65405">
        <ele>682.4</ele>
        <time>2021-05-28T13:29:02Z</time>
      </trkpt>
      <trkpt lat="45.55731" lon="6.65413">
        <ele>682.8</ele>
        <time>2021-05-28T13:29:03Z</time>
      </trkpt>
      <trkpt lat="45.55733" lon="6.65422">
        <ele>683.2</ele>
        <time>2021-05-28T13:29:04Z</time>
      </trkpt>
      <trkpt lat="45.55736" lon="6.65432">
        <ele>683.8</ele>
        <time>2021-05-28T13:29:05Z</time>
      </trkpt>
      <trkpt lat="45.55738" lon="6.65442">
        <ele>684.2</ele>
        <time>2021-05-28T13:29:06Z</time>
      </trkpt>
      <trkpt lat="45.5574" lon="6.65451">
        <ele>684.6</ele>
        <time>2021-05-28T13:29:07Z</time>
      </trkpt>
      <trkpt lat="45.55743" lon="6.6546">
        <ele>684.8</ele>
        <time>2021-05-28T13:29:08Z</time>
      </trkpt>
      <trkpt lat="45.55744" lon="6.65471">
        <ele>685.4</ele>
        <time>2021-05-28T13:29:09Z</time>
      </trkpt>
      <trkpt lat="45.55745" lon="6.65481">
        <ele>685.4</ele>
        <time>2021-05-28T13:29:10Z</time>
      </trkpt>
      <trkpt lat="45.55745" lon="6.65492">
        <ele>685.6</ele>
        <time>2021-05-28T13:29:11Z</time>
      </trkpt>
      <trkpt lat="45.55745" lon="6.65504">
        <ele>685.6</ele>
        <time>2021-05-28T13:29:12Z</time>
      </trkpt>
      <trkpt lat="45.55745" lon="6.65515">
        <ele>686</ele>
        <time>2021-05-28T13:29:13Z</time>
      </trkpt>
      <trkpt lat="45.55745" lon="6.65526">
        <ele>686.2</ele>
        <time>2021-05-28T13:29:14Z</time>
      </trkpt>
      <trkpt lat="45.55743" lon="6.65537">
        <ele>686</ele>
        <time>2021-05-28T13:29:15Z</time>
      </trkpt>
      <trkpt lat="45.55741" lon="6.65548">
        <ele>686.2</ele>
        <time>2021-05-28T13:29:16Z</time>
      </trkpt>
      <trkpt lat="45.55739" lon="6.65559">
        <ele>686.2</ele>
        <time>2021-05-28T13:29:17Z</time>
      </trkpt>
      <trkpt lat="45.55737" lon="6.65571">
        <ele>686.2</ele>
        <time>2021-05-28T13:29:18Z</time>
      </trkpt>
      <trkpt lat="45.55735" lon="6.65582">
        <ele>686.2</ele>
        <time>2021-05-28T13:29:19Z</time>
      </trkpt>
      <trkpt lat="45.55733" lon="6.65592">
        <ele>686.4</ele>
        <time>2021-05-28T13:29:20Z</time>
      </trkpt>
      <trkpt lat="45.5573" lon="6.65601">
        <ele>687</ele>
        <time>2021-05-28T13:29:21Z</time>
      </trkpt>
      <trkpt lat="45.55727" lon="6.65611">
        <ele>687.2</ele>
        <time>2021-05-28T13:29:22Z</time>
      </trkpt>
      <trkpt lat="45.55724" lon="6.6562">
        <ele>687.4</ele>
        <time>2021-05-28T13:29:23Z</time>
      </trkpt>
      <trkpt lat="45.5572" lon="6.65629">
        <ele>687.6</ele>
        <time>2021-05-28T13:29:24Z</time>
      </trkpt>
      <trkpt lat="45.55715" lon="6.65638">
        <ele>687.4</ele>
        <time>2021-05-28T13:29:25Z</time>
      </trkpt>
      <trkpt lat="45.55709" lon="6.65646">
        <ele>687.4</ele>
        <time>2021-05-28T13:29:26Z</time>
      </trkpt>
      <trkpt lat="45.55703" lon="6.65653">
        <ele>687.4</ele>
        <time>2021-05-28T13:29:27Z</time>
      </trkpt>
      <trkpt lat="45.55697" lon="6.65657">
        <ele>687.4</ele>
        <time>2021-05-28T13:29:28Z</time>
      </trkpt>
      <trkpt lat="45.55689" lon="6.6566">
        <ele>687.2</ele>
        <time>2021-05-28T13:29:29Z</time>
      </trkpt>
      <trkpt lat="45.55682" lon="6.65666">
        <ele>687.4</ele>
        <time>2021-05-28T13:29:30Z</time>
      </trkpt>
      <trkpt lat="45.55677" lon="6.65674">
        <ele>687.2</ele>
        <time>2021-05-28T13:29:31Z</time>
      </trkpt>
      <trkpt lat="45.55673" lon="6.65685">
        <ele>687</ele>
        <time>2021-05-28T13:29:32Z</time>
      </trkpt>
      <trkpt lat="45.5567" lon="6.65698">
        <ele>686.6</ele>
        <time>2021-05-28T13:29:33Z</time>
      </trkpt>
      <trkpt lat="45.55668" lon="6.65711">
        <ele>686.2</ele>
        <time>2021-05-28T13:29:34Z</time>
      </trkpt>
      <trkpt lat="45.55666" lon="6.65726">
        <ele>685.8</ele>
        <time>2021-05-28T13:29:35Z</time>
      </trkpt>
      <trkpt lat="45.55664" lon="6.65741">
        <ele>685.6</ele>
        <time>2021-05-28T13:29:36Z</time>
      </trkpt>
      <trkpt lat="45.55663" lon="6.65756">
        <ele>685.2</ele>
        <time>2021-05-28T13:29:37Z</time>
      </trkpt>
      <trkpt lat="45.5566" lon="6.65773">
        <ele>684.8</ele>
        <time>2021-05-28T13:29:38Z</time>
      </trkpt>
      <trkpt lat="45.55658" lon="6.65791">
        <ele>684.2</ele>
        <time>2021-05-28T13:29:39Z</time>
      </trkpt>
      <trkpt lat="45.55656" lon="6.65807">
        <ele>684</ele>
        <time>2021-05-28T13:29:40Z</time>
      </trkpt>
      <trkpt lat="45.55655" lon="6.65824">
        <ele>683.6</ele>
        <time>2021-05-28T13:29:41Z</time>
      </trkpt>
      <trkpt lat="45.55654" lon="6.6584">
        <ele>683</ele>
        <time>2021-05-28T13:29:42Z</time>
      </trkpt>
      <trkpt lat="45.55653" lon="6.65856">
        <ele>682.4</ele>
        <time>2021-05-28T13:29:43Z</time>
      </trkpt>
      <trkpt lat="45.55653" lon="6.65872">
        <ele>681.4</ele>
        <time>2021-05-28T13:29:44Z</time>
      </trkpt>
      <trkpt lat="45.55654" lon="6.65887">
        <ele>681</ele>
        <time>2021-05-28T13:29:45Z</time>
      </trkpt>
      <trkpt lat="45.55654" lon="6.65903">
        <ele>680.4</ele>
        <time>2021-05-28T13:29:46Z</time>
      </trkpt>
      <trkpt lat="45.55654" lon="6.65919">
        <ele>679.8</ele>
        <time>2021-05-28T13:29:47Z</time>
      </trkpt>
      <trkpt lat="45.55655" lon="6.65935">
        <ele>679.6</ele>
        <time>2021-05-28T13:29:48Z</time>
      </trkpt>
      <trkpt lat="45.55656" lon="6.6595">
        <ele>679</ele>
        <time>2021-05-28T13:29:49Z</time>
      </trkpt>
      <trkpt lat="45.55656" lon="6.65966">
        <ele>678.4</ele>
        <time>2021-05-28T13:29:50Z</time>
      </trkpt>
      <trkpt lat="45.55654" lon="6.65983">
        <ele>678</ele>
        <time>2021-05-28T13:29:51Z</time>
      </trkpt>
      <trkpt lat="45.5565" lon="6.65998">
        <ele>677.6</ele>
        <time>2021-05-28T13:29:52Z</time>
      </trkpt>
      <trkpt lat="45.55643" lon="6.6601">
        <ele>676.8</ele>
        <time>2021-05-28T13:29:53Z</time>
      </trkpt>
      <trkpt lat="45.55633" lon="6.66018">
        <ele>676.8</ele>
        <time>2021-05-28T13:29:54Z</time>
      </trkpt>
      <trkpt lat="45.55623" lon="6.66024">
        <ele>677.2</ele>
        <time>2021-05-28T13:29:55Z</time>
      </trkpt>
      <trkpt lat="45.55613" lon="6.6603">
        <ele>676.8</ele>
        <time>2021-05-28T13:29:56Z</time>
      </trkpt>
      <trkpt lat="45.55604" lon="6.66037">
        <ele>676</ele>
        <time>2021-05-28T13:29:57Z</time>
      </trkpt>
      <trkpt lat="45.55596" lon="6.66047">
        <ele>675.6</ele>
        <time>2021-05-28T13:29:58Z</time>
      </trkpt>
      <trkpt lat="45.55588" lon="6.66057">
        <ele>675.4</ele>
        <time>2021-05-28T13:29:59Z</time>
      </trkpt>
      <trkpt lat="45.55585" lon="6.6607">
        <ele>675.4</ele>
        <time>2021-05-28T13:30:00Z</time>
      </trkpt>
      <trkpt lat="45.55584" lon="6.66082">
        <ele>674.8</ele>
        <time>2021-05-28T13:30:01Z</time>
      </trkpt>
      <trkpt lat="45.55588" lon="6.66094">
        <ele>673.8</ele>
        <time>2021-05-28T13:30:02Z</time>
      </trkpt>
      <trkpt lat="45.55594" lon="6.66104">
        <ele>673.2</ele>
        <time>2021-05-28T13:30:03Z</time>
      </trkpt>
      <trkpt lat="45.55602" lon="6.66112">
        <ele>672.4</ele>
        <time>2021-05-28T13:30:04Z</time>
      </trkpt>
      <trkpt lat="45.55611" lon="6.66121">
        <ele>671.8</ele>
        <time>2021-05-28T13:30:05Z</time>
      </trkpt>
      <trkpt lat="45.55617" lon="6.66132">
        <ele>671.4</ele>
        <time>2021-05-28T13:30:06Z</time>
      </trkpt>
      <trkpt lat="45.55622" lon="6.66143">
        <ele>671</ele>
        <time>2021-05-28T13:30:07Z</time>
      </trkpt>
      <trkpt lat="45.55628" lon="6.66153">
        <ele>670.8</ele>
        <time>2021-05-28T13:30:08Z</time>
      </trkpt>
      <trkpt lat="45.55634" lon="6.66164">
        <ele>670.8</ele>
        <time>2021-05-28T13:30:09Z</time>
      </trkpt>
      <trkpt lat="45.55639" lon="6.66174">
        <ele>670.4</ele>
        <time>2021-05-28T13:30:10Z</time>
      </trkpt>
      <trkpt lat="45.55644" lon="6.66184">
        <ele>670.2</ele>
        <time>2021-05-28T13:30:11Z</time>
      </trkpt>
      <trkpt lat="45.5565" lon="6.66193">
        <ele>670.2</ele>
        <time>2021-05-28T13:30:12Z</time>
      </trkpt>
      <trkpt lat="45.55655" lon="6.66203">
        <ele>670.2</ele>
        <time>2021-05-28T13:30:13Z</time>
      </trkpt>
      <trkpt lat="45.5566" lon="6.66213">
        <ele>670.2</ele>
        <time>2021-05-28T13:30:14Z</time>
      </trkpt>
      <trkpt lat="45.55664" lon="6.66224">
        <ele>669.8</ele>
        <time>2021-05-28T13:30:15Z</time>
      </trkpt>
      <trkpt lat="45.55667" lon="6.66235">
        <ele>669.4</ele>
        <time>2021-05-28T13:30:16Z</time>
      </trkpt>
      <trkpt lat="45.5567" lon="6.66246">
        <ele>669.6</ele>
        <time>2021-05-28T13:30:17Z</time>
      </trkpt>
      <trkpt lat="45.55673" lon="6.66257">
        <ele>669.4</ele>
        <time>2021-05-28T13:30:18Z</time>
      </trkpt>
      <trkpt lat="45.55676" lon="6.66268">
        <ele>668.8</ele>
        <time>2021-05-28T13:30:19Z</time>
      </trkpt>
      <trkpt lat="45.55677" lon="6.66279">
        <ele>668.6</ele>
        <time>2021-05-28T13:30:20Z</time>
      </trkpt>
      <trkpt lat="45.5568" lon="6.6629">
        <ele>668.2</ele>
        <time>2021-05-28T13:30:21Z</time>
      </trkpt>
      <trkpt lat="45.55682" lon="6.66301">
        <ele>667.8</ele>
        <time>2021-05-28T13:30:22Z</time>
      </trkpt>
      <trkpt lat="45.55684" lon="6.66313">
        <ele>668</ele>
        <time>2021-05-28T13:30:23Z</time>
      </trkpt>
      <trkpt lat="45.55686" lon="6.66324">
        <ele>667.8</ele>
        <time>2021-05-28T13:30:24Z</time>
      </trkpt>
      <trkpt lat="45.55688" lon="6.66334">
        <ele>667.6</ele>
        <time>2021-05-28T13:30:25Z</time>
      </trkpt>
      <trkpt lat="45.5569" lon="6.66345">
        <ele>667.6</ele>
        <time>2021-05-28T13:30:26Z</time>
      </trkpt>
      <trkpt lat="45.55692" lon="6.66356">
        <ele>667.6</ele>
        <time>2021-05-28T13:30:27Z</time>
      </trkpt>
      <trkpt lat="45.55694" lon="6.66366">
        <ele>667.6</ele>
        <time>2021-05-28T13:30:28Z</time>
      </trkpt>
      <trkpt lat="45.55696" lon="6.66376">
        <ele>667.8</ele>
        <time>2021-05-28T13:30:29Z</time>
      </trkpt>
      <trkpt lat="45.55698" lon="6.66385">
        <ele>667.6</ele>
        <time>2021-05-28T13:30:30Z</time>
      </trkpt>
      <trkpt lat="45.55701" lon="6.66393">
        <ele>667.2</ele>
        <time>2021-05-28T13:30:31Z</time>
      </trkpt>
      <trkpt lat="45.55704" lon="6.664">
        <ele>667.4</ele>
        <time>2021-05-28T13:30:32Z</time>
      </trkpt>
      <trkpt lat="45.55708" lon="6.66408">
        <ele>667.8</ele>
        <time>2021-05-28T13:30:33Z</time>
      </trkpt>
      <trkpt lat="45.55711" lon="6.66415">
        <ele>668.2</ele>
        <time>2021-05-28T13:30:34Z</time>
      </trkpt>
      <trkpt lat="45.55715" lon="6.66423">
        <ele>668.4</ele>
        <time>2021-05-28T13:30:35Z</time>
      </trkpt>
      <trkpt lat="45.55719" lon="6.66431">
        <ele>668.4</ele>
        <time>2021-05-28T13:30:36Z</time>
      </trkpt>
      <trkpt lat="45.55723" lon="6.66439">
        <ele>668.4</ele>
        <time>2021-05-28T13:30:37Z</time>
      </trkpt>
      <trkpt lat="45.55727" lon="6.66446">
        <ele>668.4</ele>
        <time>2021-05-28T13:30:38Z</time>
      </trkpt>
      <trkpt lat="45.55732" lon="6.66453">
        <ele>668.6</ele>
        <time>2021-05-28T13:30:39Z</time>
      </trkpt>
      <trkpt lat="45.55736" lon="6.6646">
        <ele>668.6</ele>
        <time>2021-05-28T13:30:40Z</time>
      </trkpt>
      <trkpt lat="45.55741" lon="6.66468">
        <ele>668.6</ele>
        <time>2021-05-28T13:30:41Z</time>
      </trkpt>
      <trkpt lat="45.55747" lon="6.66475">
        <ele>668.6</ele>
        <time>2021-05-28T13:30:42Z</time>
      </trkpt>
      <trkpt lat="45.55751" lon="6.66482">
        <ele>668.6</ele>
        <time>2021-05-28T13:30:43Z</time>
      </trkpt>
      <trkpt lat="45.55756" lon="6.66489">
        <ele>668.8</ele>
        <time>2021-05-28T13:30:44Z</time>
      </trkpt>
      <trkpt lat="45.55761" lon="6.66497">
        <ele>669</ele>
        <time>2021-05-28T13:30:45Z</time>
      </trkpt>
      <trkpt lat="45.55765" lon="6.66503">
        <ele>669.2</ele>
        <time>2021-05-28T13:30:46Z</time>
      </trkpt>
      <trkpt lat="45.55769" lon="6.6651">
        <ele>669.4</ele>
        <time>2021-05-28T13:30:47Z</time>
      </trkpt>
      <trkpt lat="45.55773" lon="6.66517">
        <ele>669.4</ele>
        <time>2021-05-28T13:30:48Z</time>
      </trkpt>
      <trkpt lat="45.55776" lon="6.66524">
        <ele>669.6</ele>
        <time>2021-05-28T13:30:49Z</time>
      </trkpt>
      <trkpt lat="45.5578" lon="6.66531">
        <ele>669.8</ele>
        <time>2021-05-28T13:30:50Z</time>
      </trkpt>
      <trkpt lat="45.55783" lon="6.66538">
        <ele>670.2</ele>
        <time>2021-05-28T13:30:51Z</time>
      </trkpt>
      <trkpt lat="45.55787" lon="6.66544">
        <ele>670.4</ele>
        <time>2021-05-28T13:30:52Z</time>
      </trkpt>
      <trkpt lat="45.5579" lon="6.6655">
        <ele>670.4</ele>
        <time>2021-05-28T13:30:53Z</time>
      </trkpt>
      <trkpt lat="45.55793" lon="6.66555">
        <ele>670.6</ele>
        <time>2021-05-28T13:30:54Z</time>
      </trkpt>
      <trkpt lat="45.55796" lon="6.66561">
        <ele>670.6</ele>
        <time>2021-05-28T13:30:55Z</time>
      </trkpt>
      <trkpt lat="45.55799" lon="6.66566">
        <ele>670.6</ele>
        <time>2021-05-28T13:30:56Z</time>
      </trkpt>
      <trkpt lat="45.55804" lon="6.66574">
        <ele>670.6</ele>
        <time>2021-05-28T13:30:57Z</time>
      </trkpt>
      <trkpt lat="45.55808" lon="6.6658">
        <ele>670.6</ele>
        <time>2021-05-28T13:30:58Z</time>
      </trkpt>
      <trkpt lat="45.55812" lon="6.66586">
        <ele>670.8</ele>
        <time>2021-05-28T13:30:59Z</time>
      </trkpt>
      <trkpt lat="45.55817" lon="6.66592">
        <ele>671</ele>
        <time>2021-05-28T13:31:00Z</time>
      </trkpt>
      <trkpt lat="45.55822" lon="6.66597">
        <ele>671</ele>
        <time>2021-05-28T13:31:01Z</time>
      </trkpt>
      <trkpt lat="45.55827" lon="6.66601">
        <ele>671</ele>
        <time>2021-05-28T13:31:02Z</time>
      </trkpt>
      <trkpt lat="45.55832" lon="6.66605">
        <ele>671</ele>
        <time>2021-05-28T13:31:03Z</time>
      </trkpt>
      <trkpt lat="45.55837" lon="6.66611">
        <ele>671</ele>
        <time>2021-05-28T13:31:04Z</time>
      </trkpt>
      <trkpt lat="45.55843" lon="6.66617">
        <ele>671.2</ele>
        <time>2021-05-28T13:31:05Z</time>
      </trkpt>
      <trkpt lat="45.55848" lon="6.66623">
        <ele>671.2</ele>
        <time>2021-05-28T13:31:06Z</time>
      </trkpt>
      <trkpt lat="45.55854" lon="6.6663">
        <ele>671.4</ele>
        <time>2021-05-28T13:31:07Z</time>
      </trkpt>
      <trkpt lat="45.5586" lon="6.66635">
        <ele>671.6</ele>
        <time>2021-05-28T13:31:08Z</time>
      </trkpt>
      <trkpt lat="45.55866" lon="6.66641">
        <ele>671.8</ele>
        <time>2021-05-28T13:31:09Z</time>
      </trkpt>
      <trkpt lat="45.55871" lon="6.66647">
        <ele>672</ele>
        <time>2021-05-28T13:31:10Z</time>
      </trkpt>
      <trkpt lat="45.55877" lon="6.66652">
        <ele>672</ele>
        <time>2021-05-28T13:31:11Z</time>
      </trkpt>
      <trkpt lat="45.55883" lon="6.66659">
        <ele>672.2</ele>
        <time>2021-05-28T13:31:12Z</time>
      </trkpt>
      <trkpt lat="45.55889" lon="6.66666">
        <ele>672.2</ele>
        <time>2021-05-28T13:31:13Z</time>
      </trkpt>
      <trkpt lat="45.55894" lon="6.66673">
        <ele>672.2</ele>
        <time>2021-05-28T13:31:14Z</time>
      </trkpt>
      <trkpt lat="45.55898" lon="6.66681">
        <ele>672</ele>
        <time>2021-05-28T13:31:15Z</time>
      </trkpt>
      <trkpt lat="45.559" lon="6.6669">
        <ele>672</ele>
        <time>2021-05-28T13:31:16Z</time>
      </trkpt>
      <trkpt lat="45.55903" lon="6.66698">
        <ele>671.8</ele>
        <time>2021-05-28T13:31:17Z</time>
      </trkpt>
      <trkpt lat="45.55906" lon="6.66708">
        <ele>671.8</ele>
        <time>2021-05-28T13:31:18Z</time>
      </trkpt>
      <trkpt lat="45.55908" lon="6.66718">
        <ele>671.8</ele>
        <time>2021-05-28T13:31:19Z</time>
      </trkpt>
      <trkpt lat="45.55908" lon="6.66728">
        <ele>671.8</ele>
        <time>2021-05-28T13:31:20Z</time>
      </trkpt>
      <trkpt lat="45.5591" lon="6.66738">
        <ele>671.8</ele>
        <time>2021-05-28T13:31:21Z</time>
      </trkpt>
      <trkpt lat="45.55911" lon="6.66748">
        <ele>672</ele>
        <time>2021-05-28T13:31:22Z</time>
      </trkpt>
      <trkpt lat="45.55913" lon="6.66757">
        <ele>672.4</ele>
        <time>2021-05-28T13:31:23Z</time>
      </trkpt>
      <trkpt lat="45.55914" lon="6.66767">
        <ele>672.4</ele>
        <time>2021-05-28T13:31:24Z</time>
      </trkpt>
      <trkpt lat="45.55916" lon="6.66776">
        <ele>672.6</ele>
        <time>2021-05-28T13:31:25Z</time>
      </trkpt>
      <trkpt lat="45.55918" lon="6.66785">
        <ele>673</ele>
        <time>2021-05-28T13:31:26Z</time>
      </trkpt>
      <trkpt lat="45.55919" lon="6.66795">
        <ele>673.4</ele>
        <time>2021-05-28T13:31:27Z</time>
      </trkpt>
      <trkpt lat="45.55921" lon="6.66804">
        <ele>674</ele>
        <time>2021-05-28T13:31:28Z</time>
      </trkpt>
      <trkpt lat="45.55922" lon="6.66813">
        <ele>674.2</ele>
        <time>2021-05-28T13:31:29Z</time>
      </trkpt>
      <trkpt lat="45.55924" lon="6.66822">
        <ele>674.4</ele>
        <time>2021-05-28T13:31:30Z</time>
      </trkpt>
      <trkpt lat="45.55926" lon="6.66831">
        <ele>674.6</ele>
        <time>2021-05-28T13:31:31Z</time>
      </trkpt>
      <trkpt lat="45.55928" lon="6.6684">
        <ele>675.2</ele>
        <time>2021-05-28T13:31:32Z</time>
      </trkpt>
      <trkpt lat="45.55932" lon="6.66849">
        <ele>675.4</ele>
        <time>2021-05-28T13:31:33Z</time>
      </trkpt>
      <trkpt lat="45.55935" lon="6.66858">
        <ele>675.6</ele>
        <time>2021-05-28T13:31:34Z</time>
      </trkpt>
      <trkpt lat="45.55938" lon="6.66866">
        <ele>675.6</ele>
        <time>2021-05-28T13:31:35Z</time>
      </trkpt>
      <trkpt lat="45.55942" lon="6.66875">
        <ele>675.6</ele>
        <time>2021-05-28T13:31:36Z</time>
      </trkpt>
      <trkpt lat="45.55946" lon="6.66883">
        <ele>675.6</ele>
        <time>2021-05-28T13:31:37Z</time>
      </trkpt>
      <trkpt lat="45.55949" lon="6.66891">
        <ele>675.8</ele>
        <time>2021-05-28T13:31:38Z</time>
      </trkpt>
      <trkpt lat="45.55953" lon="6.66899">
        <ele>676</ele>
        <time>2021-05-28T13:31:39Z</time>
      </trkpt>
      <trkpt lat="45.55957" lon="6.66907">
        <ele>676.4</ele>
        <time>2021-05-28T13:31:40Z</time>
      </trkpt>
      <trkpt lat="45.5596" lon="6.66915">
        <ele>676.8</ele>
        <time>2021-05-28T13:31:41Z</time>
      </trkpt>
      <trkpt lat="45.55964" lon="6.66923">
        <ele>677.2</ele>
        <time>2021-05-28T13:31:42Z</time>
      </trkpt>
      <trkpt lat="45.55968" lon="6.6693">
        <ele>677.6</ele>
        <time>2021-05-28T13:31:43Z</time>
      </trkpt>
      <trkpt lat="45.55972" lon="6.66938">
        <ele>678</ele>
        <time>2021-05-28T13:31:44Z</time>
      </trkpt>
      <trkpt lat="45.55975" lon="6.66946">
        <ele>678.4</ele>
        <time>2021-05-28T13:31:45Z</time>
      </trkpt>
      <trkpt lat="45.55979" lon="6.66953">
        <ele>678.6</ele>
        <time>2021-05-28T13:31:46Z</time>
      </trkpt>
      <trkpt lat="45.55982" lon="6.66961">
        <ele>679.2</ele>
        <time>2021-05-28T13:31:47Z</time>
      </trkpt>
      <trkpt lat="45.55985" lon="6.66969">
        <ele>679.6</ele>
        <time>2021-05-28T13:31:48Z</time>
      </trkpt>
      <trkpt lat="45.55988" lon="6.66978">
        <ele>680</ele>
        <time>2021-05-28T13:31:49Z</time>
      </trkpt>
      <trkpt lat="45.55991" lon="6.66986">
        <ele>680.2</ele>
        <time>2021-05-28T13:31:50Z</time>
      </trkpt>
      <trkpt lat="45.55994" lon="6.66995">
        <ele>680.4</ele>
        <time>2021-05-28T13:31:51Z</time>
      </trkpt>
      <trkpt lat="45.55996" lon="6.67003">
        <ele>680.4</ele>
        <time>2021-05-28T13:31:52Z</time>
      </trkpt>
      <trkpt lat="45.55998" lon="6.6701">
        <ele>680.4</ele>
        <time>2021-05-28T13:31:53Z</time>
      </trkpt>
      <trkpt lat="45.56001" lon="6.67018">
        <ele>680.6</ele>
        <time>2021-05-28T13:31:54Z</time>
      </trkpt>
      <trkpt lat="45.56003" lon="6.67025">
        <ele>680.8</ele>
        <time>2021-05-28T13:31:55Z</time>
      </trkpt>
      <trkpt lat="45.56005" lon="6.67032">
        <ele>681.2</ele>
        <time>2021-05-28T13:31:56Z</time>
      </trkpt>
      <trkpt lat="45.56008" lon="6.67039">
        <ele>681.4</ele>
        <time>2021-05-28T13:31:57Z</time>
      </trkpt>
      <trkpt lat="45.56011" lon="6.67046">
        <ele>681.4</ele>
        <time>2021-05-28T13:31:58Z</time>
      </trkpt>
      <trkpt lat="45.56014" lon="6.67054">
        <ele>681.6</ele>
        <time>2021-05-28T13:31:59Z</time>
      </trkpt>
      <trkpt lat="45.56018" lon="6.67062">
        <ele>681.8</ele>
        <time>2021-05-28T13:32:00Z</time>
      </trkpt>
      <trkpt lat="45.56021" lon="6.6707">
        <ele>682</ele>
        <time>2021-05-28T13:32:01Z</time>
      </trkpt>
      <trkpt lat="45.56025" lon="6.67079">
        <ele>682.2</ele>
        <time>2021-05-28T13:32:02Z</time>
      </trkpt>
      <trkpt lat="45.56029" lon="6.67087">
        <ele>682</ele>
        <time>2021-05-28T13:32:03Z</time>
      </trkpt>
      <trkpt lat="45.56033" lon="6.67097">
        <ele>682</ele>
        <time>2021-05-28T13:32:04Z</time>
      </trkpt>
      <trkpt lat="45.56036" lon="6.67107">
        <ele>681.8</ele>
        <time>2021-05-28T13:32:05Z</time>
      </trkpt>
      <trkpt lat="45.56039" lon="6.67117">
        <ele>681.6</ele>
        <time>2021-05-28T13:32:06Z</time>
      </trkpt>
      <trkpt lat="45.56042" lon="6.67126">
        <ele>681.6</ele>
        <time>2021-05-28T13:32:07Z</time>
      </trkpt>
      <trkpt lat="45.56045" lon="6.67136">
        <ele>681.8</ele>
        <time>2021-05-28T13:32:08Z</time>
      </trkpt>
      <trkpt lat="45.56047" lon="6.67146">
        <ele>682</ele>
        <time>2021-05-28T13:32:09Z</time>
      </trkpt>
      <trkpt lat="45.56047" lon="6.67156">
        <ele>682</ele>
        <time>2021-05-28T13:32:10Z</time>
      </trkpt>
      <trkpt lat="45.56045" lon="6.67166">
        <ele>681.8</ele>
        <time>2021-05-28T13:32:11Z</time>
      </trkpt>
      <trkpt lat="45.56043" lon="6.67175">
        <ele>682</ele>
        <time>2021-05-28T13:32:12Z</time>
      </trkpt>
      <trkpt lat="45.5604" lon="6.67184">
        <ele>681.8</ele>
        <time>2021-05-28T13:32:13Z</time>
      </trkpt>
      <trkpt lat="45.56036" lon="6.67193">
        <ele>682.2</ele>
        <time>2021-05-28T13:32:14Z</time>
      </trkpt>
      <trkpt lat="45.56034" lon="6.67202">
        <ele>682.4</ele>
        <time>2021-05-28T13:32:15Z</time>
      </trkpt>
      <trkpt lat="45.56033" lon="6.67211">
        <ele>682.6</ele>
        <time>2021-05-28T13:32:16Z</time>
      </trkpt>
      <trkpt lat="45.56031" lon="6.67221">
        <ele>682.8</ele>
        <time>2021-05-28T13:32:17Z</time>
      </trkpt>
      <trkpt lat="45.56031" lon="6.6723">
        <ele>683</ele>
        <time>2021-05-28T13:32:18Z</time>
      </trkpt>
      <trkpt lat="45.56032" lon="6.6724">
        <ele>683</ele>
        <time>2021-05-28T13:32:19Z</time>
      </trkpt>
      <trkpt lat="45.56032" lon="6.6725">
        <ele>683.4</ele>
        <time>2021-05-28T13:32:20Z</time>
      </trkpt>
      <trkpt lat="45.56033" lon="6.67259">
        <ele>684</ele>
        <time>2021-05-28T13:32:21Z</time>
      </trkpt>
      <trkpt lat="45.56034" lon="6.67268">
        <ele>684.4</ele>
        <time>2021-05-28T13:32:22Z</time>
      </trkpt>
      <trkpt lat="45.56035" lon="6.67277">
        <ele>684.6</ele>
        <time>2021-05-28T13:32:23Z</time>
      </trkpt>
      <trkpt lat="45.56036" lon="6.67286">
        <ele>685</ele>
        <time>2021-05-28T13:32:24Z</time>
      </trkpt>
      <trkpt lat="45.56038" lon="6.67295">
        <ele>685.2</ele>
        <time>2021-05-28T13:32:25Z</time>
      </trkpt>
      <trkpt lat="45.56039" lon="6.67303">
        <ele>685.4</ele>
        <time>2021-05-28T13:32:26Z</time>
      </trkpt>
      <trkpt lat="45.5604" lon="6.67312">
        <ele>685.4</ele>
        <time>2021-05-28T13:32:27Z</time>
      </trkpt>
      <trkpt lat="45.56041" lon="6.6732">
        <ele>685.6</ele>
        <time>2021-05-28T13:32:28Z</time>
      </trkpt>
      <trkpt lat="45.56043" lon="6.67329">
        <ele>686</ele>
        <time>2021-05-28T13:32:29Z</time>
      </trkpt>
      <trkpt lat="45.56044" lon="6.67337">
        <ele>686.2</ele>
        <time>2021-05-28T13:32:30Z</time>
      </trkpt>
      <trkpt lat="45.56045" lon="6.67346">
        <ele>686.4</ele>
        <time>2021-05-28T13:32:31Z</time>
      </trkpt>
      <trkpt lat="45.56047" lon="6.67354">
        <ele>686.6</ele>
        <time>2021-05-28T13:32:32Z</time>
      </trkpt>
      <trkpt lat="45.56049" lon="6.67362">
        <ele>686.8</ele>
        <time>2021-05-28T13:32:33Z</time>
      </trkpt>
      <trkpt lat="45.56051" lon="6.67371">
        <ele>687</ele>
        <time>2021-05-28T13:32:34Z</time>
      </trkpt>
      <trkpt lat="45.56053" lon="6.67379">
        <ele>687.2</ele>
        <time>2021-05-28T13:32:35Z</time>
      </trkpt>
      <trkpt lat="45.56056" lon="6.67386">
        <ele>687.4</ele>
        <time>2021-05-28T13:32:36Z</time>
      </trkpt>
      <trkpt lat="45.56059" lon="6.67394">
        <ele>687.4</ele>
        <time>2021-05-28T13:32:37Z</time>
      </trkpt>
      <trkpt lat="45.56061" lon="6.67402">
        <ele>687.4</ele>
        <time>2021-05-28T13:32:38Z</time>
      </trkpt>
      <trkpt lat="45.56064" lon="6.6741">
        <ele>687.4</ele>
        <time>2021-05-28T13:32:39Z</time>
      </trkpt>
      <trkpt lat="45.56066" lon="6.67418">
        <ele>687.4</ele>
        <time>2021-05-28T13:32:40Z</time>
      </trkpt>
      <trkpt lat="45.56069" lon="6.67425">
        <ele>687.6</ele>
        <time>2021-05-28T13:32:41Z</time>
      </trkpt>
      <trkpt lat="45.56071" lon="6.67433">
        <ele>687.6</ele>
        <time>2021-05-28T13:32:42Z</time>
      </trkpt>
      <trkpt lat="45.56074" lon="6.6744">
        <ele>687.6</ele>
        <time>2021-05-28T13:32:43Z</time>
      </trkpt>
      <trkpt lat="45.56077" lon="6.67448">
        <ele>687.8</ele>
        <time>2021-05-28T13:32:44Z</time>
      </trkpt>
      <trkpt lat="45.56079" lon="6.67455">
        <ele>688.2</ele>
        <time>2021-05-28T13:32:45Z</time>
      </trkpt>
      <trkpt lat="45.56083" lon="6.67463">
        <ele>688.4</ele>
        <time>2021-05-28T13:32:46Z</time>
      </trkpt>
      <trkpt lat="45.56085" lon="6.67471">
        <ele>688.6</ele>
        <time>2021-05-28T13:32:47Z</time>
      </trkpt>
      <trkpt lat="45.56088" lon="6.67479">
        <ele>688.8</ele>
        <time>2021-05-28T13:32:48Z</time>
      </trkpt>
      <trkpt lat="45.56091" lon="6.67488">
        <ele>688.8</ele>
        <time>2021-05-28T13:32:49Z</time>
      </trkpt>
      <trkpt lat="45.56093" lon="6.67496">
        <ele>688.8</ele>
        <time>2021-05-28T13:32:50Z</time>
      </trkpt>
      <trkpt lat="45.56095" lon="6.67504">
        <ele>688.6</ele>
        <time>2021-05-28T13:32:51Z</time>
      </trkpt>
      <trkpt lat="45.56098" lon="6.67512">
        <ele>688.8</ele>
        <time>2021-05-28T13:32:52Z</time>
      </trkpt>
      <trkpt lat="45.56101" lon="6.67519">
        <ele>688.8</ele>
        <time>2021-05-28T13:32:53Z</time>
      </trkpt>
      <trkpt lat="45.56104" lon="6.67527">
        <ele>688.8</ele>
        <time>2021-05-28T13:32:54Z</time>
      </trkpt>
      <trkpt lat="45.56108" lon="6.67534">
        <ele>688.8</ele>
        <time>2021-05-28T13:32:55Z</time>
      </trkpt>
      <trkpt lat="45.56112" lon="6.67541">
        <ele>689</ele>
        <time>2021-05-28T13:32:56Z</time>
      </trkpt>
      <trkpt lat="45.56115" lon="6.67548">
        <ele>689.2</ele>
        <time>2021-05-28T13:32:57Z</time>
      </trkpt>
      <trkpt lat="45.56118" lon="6.67555">
        <ele>689.4</ele>
        <time>2021-05-28T13:32:58Z</time>
      </trkpt>
      <trkpt lat="45.56122" lon="6.67562">
        <ele>689.4</ele>
        <time>2021-05-28T13:32:59Z</time>
      </trkpt>
      <trkpt lat="45.56126" lon="6.67568">
        <ele>689.4</ele>
        <time>2021-05-28T13:33:00Z</time>
      </trkpt>
      <trkpt lat="45.5613" lon="6.67575">
        <ele>689.4</ele>
        <time>2021-05-28T13:33:01Z</time>
      </trkpt>
      <trkpt lat="45.56134" lon="6.67582">
        <ele>689.4</ele>
        <time>2021-05-28T13:33:02Z</time>
      </trkpt>
      <trkpt lat="45.56138" lon="6.67589">
        <ele>689.4</ele>
        <time>2021-05-28T13:33:03Z</time>
      </trkpt>
      <trkpt lat="45.56142" lon="6.67595">
        <ele>689.2</ele>
        <time>2021-05-28T13:33:04Z</time>
      </trkpt>
      <trkpt lat="45.56147" lon="6.676">
        <ele>689.4</ele>
        <time>2021-05-28T13:33:05Z</time>
      </trkpt>
      <trkpt lat="45.56151" lon="6.67606">
        <ele>689.4</ele>
        <time>2021-05-28T13:33:06Z</time>
      </trkpt>
      <trkpt lat="45.56156" lon="6.67611">
        <ele>689.4</ele>
        <time>2021-05-28T13:33:07Z</time>
      </trkpt>
      <trkpt lat="45.56161" lon="6.67616">
        <ele>689.8</ele>
        <time>2021-05-28T13:33:08Z</time>
      </trkpt>
      <trkpt lat="45.56165" lon="6.67621">
        <ele>689.8</ele>
        <time>2021-05-28T13:33:09Z</time>
      </trkpt>
      <trkpt lat="45.56171" lon="6.67627">
        <ele>690</ele>
        <time>2021-05-28T13:33:10Z</time>
      </trkpt>
      <trkpt lat="45.56176" lon="6.67633">
        <ele>690.2</ele>
        <time>2021-05-28T13:33:11Z</time>
      </trkpt>
      <trkpt lat="45.56181" lon="6.67638">
        <ele>690.4</ele>
        <time>2021-05-28T13:33:12Z</time>
      </trkpt>
      <trkpt lat="45.56187" lon="6.67643">
        <ele>690.6</ele>
        <time>2021-05-28T13:33:13Z</time>
      </trkpt>
      <trkpt lat="45.56192" lon="6.67649">
        <ele>690.6</ele>
        <time>2021-05-28T13:33:14Z</time>
      </trkpt>
      <trkpt lat="45.56197" lon="6.67654">
        <ele>691</ele>
        <time>2021-05-28T13:33:15Z</time>
      </trkpt>
      <trkpt lat="45.56202" lon="6.67659">
        <ele>691</ele>
        <time>2021-05-28T13:33:16Z</time>
      </trkpt>
      <trkpt lat="45.56206" lon="6.67665">
        <ele>691.2</ele>
        <time>2021-05-28T13:33:17Z</time>
      </trkpt>
      <trkpt lat="45.56212" lon="6.67671">
        <ele>691.4</ele>
        <time>2021-05-28T13:33:18Z</time>
      </trkpt>
      <trkpt lat="45.56217" lon="6.67676">
        <ele>691.4</ele>
        <time>2021-05-28T13:33:19Z</time>
      </trkpt>
      <trkpt lat="45.56221" lon="6.67681">
        <ele>691.6</ele>
        <time>2021-05-28T13:33:20Z</time>
      </trkpt>
      <trkpt lat="45.56226" lon="6.67686">
        <ele>691.6</ele>
        <time>2021-05-28T13:33:21Z</time>
      </trkpt>
      <trkpt lat="45.5623" lon="6.67692">
        <ele>691.6</ele>
        <time>2021-05-28T13:33:22Z</time>
      </trkpt>
      <trkpt lat="45.56235" lon="6.67698">
        <ele>691.6</ele>
        <time>2021-05-28T13:33:23Z</time>
      </trkpt>
      <trkpt lat="45.56238" lon="6.67706">
        <ele>691.6</ele>
        <time>2021-05-28T13:33:24Z</time>
      </trkpt>
      <trkpt lat="45.56241" lon="6.67713">
        <ele>691.8</ele>
        <time>2021-05-28T13:33:25Z</time>
      </trkpt>
      <trkpt lat="45.56244" lon="6.6772">
        <ele>692</ele>
        <time>2021-05-28T13:33:26Z</time>
      </trkpt>
      <trkpt lat="45.56247" lon="6.67728">
        <ele>692.2</ele>
        <time>2021-05-28T13:33:27Z</time>
      </trkpt>
      <trkpt lat="45.5625" lon="6.67736">
        <ele>692.2</ele>
        <time>2021-05-28T13:33:28Z</time>
      </trkpt>
      <trkpt lat="45.56253" lon="6.67744">
        <ele>692.4</ele>
        <time>2021-05-28T13:33:29Z</time>
      </trkpt>
      <trkpt lat="45.56257" lon="6.67751">
        <ele>692.6</ele>
        <time>2021-05-28T13:33:30Z</time>
      </trkpt>
      <trkpt lat="45.56259" lon="6.67759">
        <ele>692.8</ele>
        <time>2021-05-28T13:33:31Z</time>
      </trkpt>
      <trkpt lat="45.56262" lon="6.67767">
        <ele>693.2</ele>
        <time>2021-05-28T13:33:32Z</time>
      </trkpt>
      <trkpt lat="45.56265" lon="6.67775">
        <ele>693.4</ele>
        <time>2021-05-28T13:33:33Z</time>
      </trkpt>
      <trkpt lat="45.56268" lon="6.67783">
        <ele>693.6</ele>
        <time>2021-05-28T13:33:34Z</time>
      </trkpt>
      <trkpt lat="45.56271" lon="6.67791">
        <ele>694</ele>
        <time>2021-05-28T13:33:35Z</time>
      </trkpt>
      <trkpt lat="45.56274" lon="6.67799">
        <ele>694</ele>
        <time>2021-05-28T13:33:36Z</time>
      </trkpt>
      <trkpt lat="45.56276" lon="6.67806">
        <ele>694.2</ele>
        <time>2021-05-28T13:33:37Z</time>
      </trkpt>
      <trkpt lat="45.56279" lon="6.67815">
        <ele>694.2</ele>
        <time>2021-05-28T13:33:38Z</time>
      </trkpt>
      <trkpt lat="45.56282" lon="6.67823">
        <ele>694.2</ele>
        <time>2021-05-28T13:33:39Z</time>
      </trkpt>
      <trkpt lat="45.56284" lon="6.6783">
        <ele>694.4</ele>
        <time>2021-05-28T13:33:40Z</time>
      </trkpt>
      <trkpt lat="45.56287" lon="6.67838">
        <ele>694.6</ele>
        <time>2021-05-28T13:33:41Z</time>
      </trkpt>
      <trkpt lat="45.56289" lon="6.67847">
        <ele>695</ele>
        <time>2021-05-28T13:33:42Z</time>
      </trkpt>
      <trkpt lat="45.5629" lon="6.67856">
        <ele>695</ele>
        <time>2021-05-28T13:33:43Z</time>
      </trkpt>
      <trkpt lat="45.56292" lon="6.67865">
        <ele>695.2</ele>
        <time>2021-05-28T13:33:44Z</time>
      </trkpt>
      <trkpt lat="45.56292" lon="6.67873">
        <ele>695.2</ele>
        <time>2021-05-28T13:33:45Z</time>
      </trkpt>
      <trkpt lat="45.56293" lon="6.67881">
        <ele>695.4</ele>
        <time>2021-05-28T13:33:46Z</time>
      </trkpt>
      <trkpt lat="45.56293" lon="6.67889">
        <ele>695.8</ele>
        <time>2021-05-28T13:33:47Z</time>
      </trkpt>
      <trkpt lat="45.56294" lon="6.67896">
        <ele>696</ele>
        <time>2021-05-28T13:33:48Z</time>
      </trkpt>
      <trkpt lat="45.56296" lon="6.67903">
        <ele>696.6</ele>
        <time>2021-05-28T13:33:49Z</time>
      </trkpt>
      <trkpt lat="45.56297" lon="6.6791">
        <ele>696.6</ele>
        <time>2021-05-28T13:33:50Z</time>
      </trkpt>
      <trkpt lat="45.56299" lon="6.67918">
        <ele>697</ele>
        <time>2021-05-28T13:33:51Z</time>
      </trkpt>
      <trkpt lat="45.56301" lon="6.67925">
        <ele>697.2</ele>
        <time>2021-05-28T13:33:52Z</time>
      </trkpt>
      <trkpt lat="45.56305" lon="6.67932">
        <ele>697.4</ele>
        <time>2021-05-28T13:33:53Z</time>
      </trkpt>
      <trkpt lat="45.56308" lon="6.6794">
        <ele>697.4</ele>
        <time>2021-05-28T13:33:54Z</time>
      </trkpt>
      <trkpt lat="45.56311" lon="6.67949">
        <ele>697.4</ele>
        <time>2021-05-28T13:33:55Z</time>
      </trkpt>
      <trkpt lat="45.56315" lon="6.67957">
        <ele>697.6</ele>
        <time>2021-05-28T13:33:56Z</time>
      </trkpt>
      <trkpt lat="45.56317" lon="6.67965">
        <ele>697.6</ele>
        <time>2021-05-28T13:33:57Z</time>
      </trkpt>
      <trkpt lat="45.5632" lon="6.67973">
        <ele>697.6</ele>
        <time>2021-05-28T13:33:58Z</time>
      </trkpt>
      <trkpt lat="45.56323" lon="6.67982">
        <ele>697.4</ele>
        <time>2021-05-28T13:33:59Z</time>
      </trkpt>
      <trkpt lat="45.56325" lon="6.67991">
        <ele>697.6</ele>
        <time>2021-05-28T13:34:00Z</time>
      </trkpt>
      <trkpt lat="45.56328" lon="6.68001">
        <ele>697.8</ele>
        <time>2021-05-28T13:34:01Z</time>
      </trkpt>
      <trkpt lat="45.56331" lon="6.68011">
        <ele>698</ele>
        <time>2021-05-28T13:34:02Z</time>
      </trkpt>
      <trkpt lat="45.56333" lon="6.68021">
        <ele>698.2</ele>
        <time>2021-05-28T13:34:03Z</time>
      </trkpt>
      <trkpt lat="45.56335" lon="6.68032">
        <ele>698.2</ele>
        <time>2021-05-28T13:34:04Z</time>
      </trkpt>
      <trkpt lat="45.56338" lon="6.68043">
        <ele>698</ele>
        <time>2021-05-28T13:34:05Z</time>
      </trkpt>
      <trkpt lat="45.56341" lon="6.68053">
        <ele>698</ele>
        <time>2021-05-28T13:34:06Z</time>
      </trkpt>
      <trkpt lat="45.56344" lon="6.68063">
        <ele>698</ele>
        <time>2021-05-28T13:34:07Z</time>
      </trkpt>
      <trkpt lat="45.56347" lon="6.68073">
        <ele>698</ele>
        <time>2021-05-28T13:34:08Z</time>
      </trkpt>
      <trkpt lat="45.56348" lon="6.68083">
        <ele>698.2</ele>
        <time>2021-05-28T13:34:09Z</time>
      </trkpt>
      <trkpt lat="45.56351" lon="6.68093">
        <ele>698.2</ele>
        <time>2021-05-28T13:34:10Z</time>
      </trkpt>
      <trkpt lat="45.56353" lon="6.68103">
        <ele>698.2</ele>
        <time>2021-05-28T13:34:11Z</time>
      </trkpt>
      <trkpt lat="45.56355" lon="6.68113">
        <ele>698.2</ele>
        <time>2021-05-28T13:34:12Z</time>
      </trkpt>
      <trkpt lat="45.56357" lon="6.68123">
        <ele>698.2</ele>
        <time>2021-05-28T13:34:13Z</time>
      </trkpt>
      <trkpt lat="45.56359" lon="6.68132">
        <ele>698.4</ele>
        <time>2021-05-28T13:34:14Z</time>
      </trkpt>
      <trkpt lat="45.56361" lon="6.68141">
        <ele>698.6</ele>
        <time>2021-05-28T13:34:15Z</time>
      </trkpt>
      <trkpt lat="45.56363" lon="6.6815">
        <ele>698.8</ele>
        <time>2021-05-28T13:34:16Z</time>
      </trkpt>
      <trkpt lat="45.56365" lon="6.68159">
        <ele>699</ele>
        <time>2021-05-28T13:34:17Z</time>
      </trkpt>
      <trkpt lat="45.56367" lon="6.68168">
        <ele>699.2</ele>
        <time>2021-05-28T13:34:18Z</time>
      </trkpt>
      <trkpt lat="45.56369" lon="6.68176">
        <ele>699.6</ele>
        <time>2021-05-28T13:34:19Z</time>
      </trkpt>
      <trkpt lat="45.5637" lon="6.68185">
        <ele>699.6</ele>
        <time>2021-05-28T13:34:20Z</time>
      </trkpt>
      <trkpt lat="45.56371" lon="6.68194">
        <ele>699.8</ele>
        <time>2021-05-28T13:34:21Z</time>
      </trkpt>
      <trkpt lat="45.56373" lon="6.68203">
        <ele>699.6</ele>
        <time>2021-05-28T13:34:22Z</time>
      </trkpt>
      <trkpt lat="45.56374" lon="6.68212">
        <ele>699.8</ele>
        <time>2021-05-28T13:34:23Z</time>
      </trkpt>
      <trkpt lat="45.56376" lon="6.68221">
        <ele>699.8</ele>
        <time>2021-05-28T13:34:24Z</time>
      </trkpt>
      <trkpt lat="45.56378" lon="6.68229">
        <ele>700</ele>
        <time>2021-05-28T13:34:25Z</time>
      </trkpt>
      <trkpt lat="45.56378" lon="6.68239">
        <ele>699.8</ele>
        <time>2021-05-28T13:34:26Z</time>
      </trkpt>
      <trkpt lat="45.56377" lon="6.68248">
        <ele>699.8</ele>
        <time>2021-05-28T13:34:27Z</time>
      </trkpt>
      <trkpt lat="45.56375" lon="6.68257">
        <ele>699.8</ele>
        <time>2021-05-28T13:34:28Z</time>
      </trkpt>
      <trkpt lat="45.56371" lon="6.68266">
        <ele>699.8</ele>
        <time>2021-05-28T13:34:29Z</time>
      </trkpt>
      <trkpt lat="45.56369" lon="6.68273">
        <ele>700</ele>
        <time>2021-05-28T13:34:30Z</time>
      </trkpt>
      <trkpt lat="45.56366" lon="6.6828">
        <ele>700</ele>
        <time>2021-05-28T13:34:31Z</time>
      </trkpt>
      <trkpt lat="45.56364" lon="6.68288">
        <ele>700.2</ele>
        <time>2021-05-28T13:34:32Z</time>
      </trkpt>
      <trkpt lat="45.56362" lon="6.68295">
        <ele>700.4</ele>
        <time>2021-05-28T13:34:33Z</time>
      </trkpt>
      <trkpt lat="45.56361" lon="6.68301">
        <ele>700.8</ele>
        <time>2021-05-28T13:34:34Z</time>
      </trkpt>
      <trkpt lat="45.56359" lon="6.68308">
        <ele>701</ele>
        <time>2021-05-28T13:34:35Z</time>
      </trkpt>
      <trkpt lat="45.56357" lon="6.68314">
        <ele>701.4</ele>
        <time>2021-05-28T13:34:36Z</time>
      </trkpt>
      <trkpt lat="45.56355" lon="6.68321">
        <ele>701.6</ele>
        <time>2021-05-28T13:34:37Z</time>
      </trkpt>
      <trkpt lat="45.56353" lon="6.68327">
        <ele>701.8</ele>
        <time>2021-05-28T13:34:38Z</time>
      </trkpt>
      <trkpt lat="45.56351" lon="6.68334">
        <ele>701.8</ele>
        <time>2021-05-28T13:34:39Z</time>
      </trkpt>
      <trkpt lat="45.56349" lon="6.68342">
        <ele>701.8</ele>
        <time>2021-05-28T13:34:40Z</time>
      </trkpt>
      <trkpt lat="45.56348" lon="6.68349">
        <ele>701.8</ele>
        <time>2021-05-28T13:34:41Z</time>
      </trkpt>
      <trkpt lat="45.56347" lon="6.68356">
        <ele>701.8</ele>
        <time>2021-05-28T13:34:42Z</time>
      </trkpt>
      <trkpt lat="45.56345" lon="6.68364">
        <ele>702</ele>
        <time>2021-05-28T13:34:43Z</time>
      </trkpt>
      <trkpt lat="45.56345" lon="6.68372">
        <ele>702</ele>
        <time>2021-05-28T13:34:44Z</time>
      </trkpt>
      <trkpt lat="45.56345" lon="6.6838">
        <ele>702</ele>
        <time>2021-05-28T13:34:45Z</time>
      </trkpt>
      <trkpt lat="45.56344" lon="6.68389">
        <ele>702</ele>
        <time>2021-05-28T13:34:46Z</time>
      </trkpt>
      <trkpt lat="45.56344" lon="6.68397">
        <ele>702</ele>
        <time>2021-05-28T13:34:47Z</time>
      </trkpt>
      <trkpt lat="45.56344" lon="6.68405">
        <ele>701.8</ele>
        <time>2021-05-28T13:34:48Z</time>
      </trkpt>
      <trkpt lat="45.56345" lon="6.68414">
        <ele>701.6</ele>
        <time>2021-05-28T13:34:49Z</time>
      </trkpt>
      <trkpt lat="45.56347" lon="6.68423">
        <ele>701.6</ele>
        <time>2021-05-28T13:34:50Z</time>
      </trkpt>
      <trkpt lat="45.56347" lon="6.68433">
        <ele>701.6</ele>
        <time>2021-05-28T13:34:51Z</time>
      </trkpt>
      <trkpt lat="45.56347" lon="6.68442">
        <ele>701.4</ele>
        <time>2021-05-28T13:34:52Z</time>
      </trkpt>
      <trkpt lat="45.56344" lon="6.6845">
        <ele>701.2</ele>
        <time>2021-05-28T13:34:53Z</time>
      </trkpt>
      <trkpt lat="45.5634" lon="6.68458">
        <ele>701</ele>
        <time>2021-05-28T13:34:54Z</time>
      </trkpt>
      <trkpt lat="45.56335" lon="6.68465">
        <ele>700.8</ele>
        <time>2021-05-28T13:34:55Z</time>
      </trkpt>
      <trkpt lat="45.56331" lon="6.68471">
        <ele>700.8</ele>
        <time>2021-05-28T13:34:56Z</time>
      </trkpt>
      <trkpt lat="45.56326" lon="6.68476">
        <ele>700.6</ele>
        <time>2021-05-28T13:34:57Z</time>
      </trkpt>
      <trkpt lat="45.56322" lon="6.6848">
        <ele>700.6</ele>
        <time>2021-05-28T13:34:58Z</time>
      </trkpt>
      <trkpt lat="45.56317" lon="6.68484">
        <ele>700.6</ele>
        <time>2021-05-28T13:34:59Z</time>
      </trkpt>
      <trkpt lat="45.56313" lon="6.68487">
        <ele>700.6</ele>
        <time>2021-05-28T13:35:00Z</time>
      </trkpt>
      <trkpt lat="45.56309" lon="6.68491">
        <ele>700.6</ele>
        <time>2021-05-28T13:35:01Z</time>
      </trkpt>
      <trkpt lat="45.56305" lon="6.68495">
        <ele>700.8</ele>
        <time>2021-05-28T13:35:02Z</time>
      </trkpt>
      <trkpt lat="45.56301" lon="6.68499">
        <ele>701</ele>
        <time>2021-05-28T13:35:03Z</time>
      </trkpt>
      <trkpt lat="45.56298" lon="6.68503">
        <ele>701</ele>
        <time>2021-05-28T13:35:04Z</time>
      </trkpt>
      <trkpt lat="45.56294" lon="6.68506">
        <ele>701.2</ele>
        <time>2021-05-28T13:35:05Z</time>
      </trkpt>
      <trkpt lat="45.56291" lon="6.68511">
        <ele>701</ele>
        <time>2021-05-28T13:35:06Z</time>
      </trkpt>
      <trkpt lat="45.56288" lon="6.68517">
        <ele>701</ele>
        <time>2021-05-28T13:35:07Z</time>
      </trkpt>
      <trkpt lat="45.56285" lon="6.68523">
        <ele>701</ele>
        <time>2021-05-28T13:35:08Z</time>
      </trkpt>
      <trkpt lat="45.56282" lon="6.68528">
        <ele>700.8</ele>
        <time>2021-05-28T13:35:09Z</time>
      </trkpt>
      <trkpt lat="45.5628" lon="6.68533">
        <ele>700.4</ele>
        <time>2021-05-28T13:35:10Z</time>
      </trkpt>
      <trkpt lat="45.56278" lon="6.68539">
        <ele>700.2</ele>
        <time>2021-05-28T13:35:11Z</time>
      </trkpt>
      <trkpt lat="45.56278" lon="6.68546">
        <ele>700.2</ele>
        <time>2021-05-28T13:35:12Z</time>
      </trkpt>
      <trkpt lat="45.56277" lon="6.68552">
        <ele>700.2</ele>
        <time>2021-05-28T13:35:13Z</time>
      </trkpt>
      <trkpt lat="45.56277" lon="6.68557">
        <ele>700</ele>
        <time>2021-05-28T13:35:14Z</time>
      </trkpt>
      <trkpt lat="45.56277" lon="6.68561">
        <ele>700</ele>
        <time>2021-05-28T13:35:15Z</time>
      </trkpt>
      <trkpt lat="45.56274" lon="6.68564">
        <ele>699.8</ele>
        <time>2021-05-28T13:35:16Z</time>
      </trkpt>
      <trkpt lat="45.56272" lon="6.68568">
        <ele>699.8</ele>
        <time>2021-05-28T13:35:17Z</time>
      </trkpt>
      <trkpt lat="45.56269" lon="6.68571">
        <ele>699.8</ele>
        <time>2021-05-28T13:35:18Z</time>
      </trkpt>
      <trkpt lat="45.56269" lon="6.68575">
        <ele>699.4</ele>
        <time>2021-05-28T13:35:20Z</time>
      </trkpt>
      <trkpt lat="45.56268" lon="6.68578">
        <ele>699.2</ele>
        <time>2021-05-28T13:35:21Z</time>
      </trkpt>
      <trkpt lat="45.56267" lon="6.68582">
        <ele>699</ele>
        <time>2021-05-28T13:35:22Z</time>
      </trkpt>
      <trkpt lat="45.56265" lon="6.68586">
        <ele>698.8</ele>
        <time>2021-05-28T13:35:23Z</time>
      </trkpt>
      <trkpt lat="45.56264" lon="6.6859">
        <ele>698.8</ele>
        <time>2021-05-28T13:35:24Z</time>
      </trkpt>
      <trkpt lat="45.56263" lon="6.68594">
        <ele>698.6</ele>
        <time>2021-05-28T13:35:25Z</time>
      </trkpt>
      <trkpt lat="45.56262" lon="6.68598">
        <ele>698.4</ele>
        <time>2021-05-28T13:35:26Z</time>
      </trkpt>
      <trkpt lat="45.56261" lon="6.68603">
        <ele>698.4</ele>
        <time>2021-05-28T13:35:27Z</time>
      </trkpt>
      <trkpt lat="45.56258" lon="6.68608">
        <ele>698.2</ele>
        <time>2021-05-28T13:35:28Z</time>
      </trkpt>
      <trkpt lat="45.56257" lon="6.68614">
        <ele>698</ele>
        <time>2021-05-28T13:35:29Z</time>
      </trkpt>
      <trkpt lat="45.56254" lon="6.6862">
        <ele>698</ele>
        <time>2021-05-28T13:35:30Z</time>
      </trkpt>
      <trkpt lat="45.56251" lon="6.68626">
        <ele>698.4</ele>
        <time>2021-05-28T13:35:31Z</time>
      </trkpt>
      <trkpt lat="45.56248" lon="6.68634">
        <ele>698.6</ele>
        <time>2021-05-28T13:35:32Z</time>
      </trkpt>
      <trkpt lat="45.56245" lon="6.68642">
        <ele>698.6</ele>
        <time>2021-05-28T13:35:33Z</time>
      </trkpt>
      <trkpt lat="45.56242" lon="6.68649">
        <ele>699</ele>
        <time>2021-05-28T13:35:34Z</time>
      </trkpt>
      <trkpt lat="45.56238" lon="6.68657">
        <ele>699</ele>
        <time>2021-05-28T13:35:35Z</time>
      </trkpt>
      <trkpt lat="45.56233" lon="6.68666">
        <ele>699</ele>
        <time>2021-05-28T13:35:36Z</time>
      </trkpt>
      <trkpt lat="45.56228" lon="6.68675">
        <ele>699</ele>
        <time>2021-05-28T13:35:37Z</time>
      </trkpt>
      <trkpt lat="45.56224" lon="6.68683">
        <ele>698.8</ele>
        <time>2021-05-28T13:35:38Z</time>
      </trkpt>
      <trkpt lat="45.5622" lon="6.68691">
        <ele>698.8</ele>
        <time>2021-05-28T13:35:39Z</time>
      </trkpt>
      <trkpt lat="45.56216" lon="6.68699">
        <ele>698.8</ele>
        <time>2021-05-28T13:35:40Z</time>
      </trkpt>
      <trkpt lat="45.56212" lon="6.68708">
        <ele>699</ele>
        <time>2021-05-28T13:35:41Z</time>
      </trkpt>
      <trkpt lat="45.5621" lon="6.68716">
        <ele>699</ele>
        <time>2021-05-28T13:35:42Z</time>
      </trkpt>
      <trkpt lat="45.56207" lon="6.68725">
        <ele>699.2</ele>
        <time>2021-05-28T13:35:43Z</time>
      </trkpt>
      <trkpt lat="45.56204" lon="6.68734">
        <ele>699.4</ele>
        <time>2021-05-28T13:35:44Z</time>
      </trkpt>
      <trkpt lat="45.56201" lon="6.68742">
        <ele>699.8</ele>
        <time>2021-05-28T13:35:45Z</time>
      </trkpt>
      <trkpt lat="45.56198" lon="6.68751">
        <ele>700</ele>
        <time>2021-05-28T13:35:46Z</time>
      </trkpt>
      <trkpt lat="45.56197" lon="6.6876">
        <ele>700.4</ele>
        <time>2021-05-28T13:35:47Z</time>
      </trkpt>
      <trkpt lat="45.56196" lon="6.6877">
        <ele>700.6</ele>
        <time>2021-05-28T13:35:48Z</time>
      </trkpt>
      <trkpt lat="45.56196" lon="6.6878">
        <ele>700.6</ele>
        <time>2021-05-28T13:35:49Z</time>
      </trkpt>
      <trkpt lat="45.56195" lon="6.6879">
        <ele>700.8</ele>
        <time>2021-05-28T13:35:50Z</time>
      </trkpt>
      <trkpt lat="45.56194" lon="6.68799">
        <ele>701</ele>
        <time>2021-05-28T13:35:51Z</time>
      </trkpt>
      <trkpt lat="45.56192" lon="6.68808">
        <ele>701</ele>
        <time>2021-05-28T13:35:52Z</time>
      </trkpt>
      <trkpt lat="45.5619" lon="6.68816">
        <ele>701.2</ele>
        <time>2021-05-28T13:35:53Z</time>
      </trkpt>
      <trkpt lat="45.56188" lon="6.68824">
        <ele>701</ele>
        <time>2021-05-28T13:35:54Z</time>
      </trkpt>
      <trkpt lat="45.56186" lon="6.68833">
        <ele>701.2</ele>
        <time>2021-05-28T13:35:55Z</time>
      </trkpt>
      <trkpt lat="45.56185" lon="6.68843">
        <ele>701.6</ele>
        <time>2021-05-28T13:35:56Z</time>
      </trkpt>
      <trkpt lat="45.56185" lon="6.68852">
        <ele>701.8</ele>
        <time>2021-05-28T13:35:57Z</time>
      </trkpt>
      <trkpt lat="45.56185" lon="6.6886">
        <ele>702.2</ele>
        <time>2021-05-28T13:35:58Z</time>
      </trkpt>
      <trkpt lat="45.56186" lon="6.68869">
        <ele>702.4</ele>
        <time>2021-05-28T13:35:59Z</time>
      </trkpt>
      <trkpt lat="45.56186" lon="6.68878">
        <ele>703</ele>
        <time>2021-05-28T13:36:00Z</time>
      </trkpt>
      <trkpt lat="45.56187" lon="6.68888">
        <ele>703.4</ele>
        <time>2021-05-28T13:36:01Z</time>
      </trkpt>
      <trkpt lat="45.56188" lon="6.68897">
        <ele>703.6</ele>
        <time>2021-05-28T13:36:02Z</time>
      </trkpt>
      <trkpt lat="45.56188" lon="6.68906">
        <ele>704</ele>
        <time>2021-05-28T13:36:03Z</time>
      </trkpt>
      <trkpt lat="45.5619" lon="6.68916">
        <ele>704.4</ele>
        <time>2021-05-28T13:36:04Z</time>
      </trkpt>
      <trkpt lat="45.56191" lon="6.68925">
        <ele>704.6</ele>
        <time>2021-05-28T13:36:05Z</time>
      </trkpt>
      <trkpt lat="45.56192" lon="6.68935">
        <ele>705</ele>
        <time>2021-05-28T13:36:06Z</time>
      </trkpt>
      <trkpt lat="45.56194" lon="6.68943">
        <ele>705.6</ele>
        <time>2021-05-28T13:36:07Z</time>
      </trkpt>
      <trkpt lat="45.56196" lon="6.68952">
        <ele>706.2</ele>
        <time>2021-05-28T13:36:08Z</time>
      </trkpt>
      <trkpt lat="45.56198" lon="6.6896">
        <ele>706.4</ele>
        <time>2021-05-28T13:36:09Z</time>
      </trkpt>
      <trkpt lat="45.562" lon="6.68968">
        <ele>706.8</ele>
        <time>2021-05-28T13:36:10Z</time>
      </trkpt>
      <trkpt lat="45.56201" lon="6.68976">
        <ele>707.4</ele>
        <time>2021-05-28T13:36:11Z</time>
      </trkpt>
      <trkpt lat="45.56202" lon="6.68985">
        <ele>707.6</ele>
        <time>2021-05-28T13:36:12Z</time>
      </trkpt>
      <trkpt lat="45.56204" lon="6.68994">
        <ele>708</ele>
        <time>2021-05-28T13:36:13Z</time>
      </trkpt>
      <trkpt lat="45.56205" lon="6.69003">
        <ele>708.4</ele>
        <time>2021-05-28T13:36:14Z</time>
      </trkpt>
      <trkpt lat="45.56206" lon="6.69013">
        <ele>708.6</ele>
        <time>2021-05-28T13:36:15Z</time>
      </trkpt>
      <trkpt lat="45.56208" lon="6.69023">
        <ele>708.8</ele>
        <time>2021-05-28T13:36:16Z</time>
      </trkpt>
      <trkpt lat="45.5621" lon="6.69032">
        <ele>708.8</ele>
        <time>2021-05-28T13:36:17Z</time>
      </trkpt>
      <trkpt lat="45.56213" lon="6.69041">
        <ele>709.2</ele>
        <time>2021-05-28T13:36:18Z</time>
      </trkpt>
      <trkpt lat="45.56215" lon="6.6905">
        <ele>709.4</ele>
        <time>2021-05-28T13:36:19Z</time>
      </trkpt>
      <trkpt lat="45.56218" lon="6.69059">
        <ele>709.6</ele>
        <time>2021-05-28T13:36:20Z</time>
      </trkpt>
      <trkpt lat="45.5622" lon="6.69068">
        <ele>709.6</ele>
        <time>2021-05-28T13:36:21Z</time>
      </trkpt>
      <trkpt lat="45.56223" lon="6.69078">
        <ele>709.8</ele>
        <time>2021-05-28T13:36:22Z</time>
      </trkpt>
      <trkpt lat="45.56226" lon="6.69087">
        <ele>710</ele>
        <time>2021-05-28T13:36:23Z</time>
      </trkpt>
      <trkpt lat="45.5623" lon="6.69095">
        <ele>710.2</ele>
        <time>2021-05-28T13:36:24Z</time>
      </trkpt>
      <trkpt lat="45.56234" lon="6.69102">
        <ele>710.4</ele>
        <time>2021-05-28T13:36:25Z</time>
      </trkpt>
      <trkpt lat="45.56237" lon="6.6911">
        <ele>710.4</ele>
        <time>2021-05-28T13:36:26Z</time>
      </trkpt>
      <trkpt lat="45.56242" lon="6.69117">
        <ele>710.2</ele>
        <time>2021-05-28T13:36:27Z</time>
      </trkpt>
      <trkpt lat="45.56247" lon="6.69125">
        <ele>710.2</ele>
        <time>2021-05-28T13:36:28Z</time>
      </trkpt>
      <trkpt lat="45.56252" lon="6.69133">
        <ele>710.2</ele>
        <time>2021-05-28T13:36:29Z</time>
      </trkpt>
      <trkpt lat="45.56257" lon="6.6914">
        <ele>710.2</ele>
        <time>2021-05-28T13:36:30Z</time>
      </trkpt>
      <trkpt lat="45.56262" lon="6.69147">
        <ele>710.2</ele>
        <time>2021-05-28T13:36:31Z</time>
      </trkpt>
      <trkpt lat="45.56267" lon="6.69154">
        <ele>710.2</ele>
        <time>2021-05-28T13:36:32Z</time>
      </trkpt>
      <trkpt lat="45.56271" lon="6.69161">
        <ele>710</ele>
        <time>2021-05-28T13:36:33Z</time>
      </trkpt>
      <trkpt lat="45.56275" lon="6.69168">
        <ele>710</ele>
        <time>2021-05-28T13:36:34Z</time>
      </trkpt>
      <trkpt lat="45.56278" lon="6.69175">
        <ele>710</ele>
        <time>2021-05-28T13:36:35Z</time>
      </trkpt>
      <trkpt lat="45.56282" lon="6.69184">
        <ele>710</ele>
        <time>2021-05-28T13:36:36Z</time>
      </trkpt>
      <trkpt lat="45.56285" lon="6.69192">
        <ele>709.6</ele>
        <time>2021-05-28T13:36:37Z</time>
      </trkpt>
      <trkpt lat="45.56289" lon="6.692">
        <ele>709.4</ele>
        <time>2021-05-28T13:36:38Z</time>
      </trkpt>
      <trkpt lat="45.56291" lon="6.69209">
        <ele>709.2</ele>
        <time>2021-05-28T13:36:39Z</time>
      </trkpt>
      <trkpt lat="45.56293" lon="6.69216">
        <ele>709.2</ele>
        <time>2021-05-28T13:36:40Z</time>
      </trkpt>
      <trkpt lat="45.56295" lon="6.69224">
        <ele>709.2</ele>
        <time>2021-05-28T13:36:41Z</time>
      </trkpt>
      <trkpt lat="45.56295" lon="6.69233">
        <ele>709.2</ele>
        <time>2021-05-28T13:36:42Z</time>
      </trkpt>
      <trkpt lat="45.56297" lon="6.6924">
        <ele>709.2</ele>
        <time>2021-05-28T13:36:43Z</time>
      </trkpt>
      <trkpt lat="45.56298" lon="6.69248">
        <ele>709.4</ele>
        <time>2021-05-28T13:36:44Z</time>
      </trkpt>
      <trkpt lat="45.56301" lon="6.69257">
        <ele>709.4</ele>
        <time>2021-05-28T13:36:45Z</time>
      </trkpt>
      <trkpt lat="45.56304" lon="6.69266">
        <ele>709.2</ele>
        <time>2021-05-28T13:36:46Z</time>
      </trkpt>
      <trkpt lat="45.56306" lon="6.69274">
        <ele>709.4</ele>
        <time>2021-05-28T13:36:47Z</time>
      </trkpt>
      <trkpt lat="45.56308" lon="6.69283">
        <ele>709.6</ele>
        <time>2021-05-28T13:36:48Z</time>
      </trkpt>
      <trkpt lat="45.5631" lon="6.69293">
        <ele>709.8</ele>
        <time>2021-05-28T13:36:49Z</time>
      </trkpt>
      <trkpt lat="45.56309" lon="6.69302">
        <ele>710</ele>
        <time>2021-05-28T13:36:50Z</time>
      </trkpt>
      <trkpt lat="45.56309" lon="6.69311">
        <ele>710.2</ele>
        <time>2021-05-28T13:36:51Z</time>
      </trkpt>
      <trkpt lat="45.56309" lon="6.69322">
        <ele>710.4</ele>
        <time>2021-05-28T13:36:52Z</time>
      </trkpt>
      <trkpt lat="45.56308" lon="6.69333">
        <ele>710.4</ele>
        <time>2021-05-28T13:36:53Z</time>
      </trkpt>
      <trkpt lat="45.56308" lon="6.69343">
        <ele>710.8</ele>
        <time>2021-05-28T13:36:54Z</time>
      </trkpt>
      <trkpt lat="45.56308" lon="6.69353">
        <ele>711</ele>
        <time>2021-05-28T13:36:55Z</time>
      </trkpt>
      <trkpt lat="45.56309" lon="6.69363">
        <ele>711.2</ele>
        <time>2021-05-28T13:36:56Z</time>
      </trkpt>
      <trkpt lat="45.56309" lon="6.69374">
        <ele>711.4</ele>
        <time>2021-05-28T13:36:57Z</time>
      </trkpt>
      <trkpt lat="45.56309" lon="6.69384">
        <ele>711.4</ele>
        <time>2021-05-28T13:36:58Z</time>
      </trkpt>
      <trkpt lat="45.56309" lon="6.69394">
        <ele>711.8</ele>
        <time>2021-05-28T13:36:59Z</time>
      </trkpt>
      <trkpt lat="45.56311" lon="6.69403">
        <ele>712</ele>
        <time>2021-05-28T13:37:00Z</time>
      </trkpt>
      <trkpt lat="45.56312" lon="6.69412">
        <ele>712.2</ele>
        <time>2021-05-28T13:37:01Z</time>
      </trkpt>
      <trkpt lat="45.56315" lon="6.69421">
        <ele>712.4</ele>
        <time>2021-05-28T13:37:02Z</time>
      </trkpt>
      <trkpt lat="45.56317" lon="6.69429">
        <ele>712.4</ele>
        <time>2021-05-28T13:37:03Z</time>
      </trkpt>
      <trkpt lat="45.56321" lon="6.69438">
        <ele>712.6</ele>
        <time>2021-05-28T13:37:04Z</time>
      </trkpt>
      <trkpt lat="45.56324" lon="6.69446">
        <ele>712.6</ele>
        <time>2021-05-28T13:37:05Z</time>
      </trkpt>
      <trkpt lat="45.56327" lon="6.69455">
        <ele>712.8</ele>
        <time>2021-05-28T13:37:06Z</time>
      </trkpt>
      <trkpt lat="45.56329" lon="6.69464">
        <ele>713</ele>
        <time>2021-05-28T13:37:07Z</time>
      </trkpt>
      <trkpt lat="45.56331" lon="6.69474">
        <ele>713</ele>
        <time>2021-05-28T13:37:08Z</time>
      </trkpt>
      <trkpt lat="45.56332" lon="6.69484">
        <ele>713.2</ele>
        <time>2021-05-28T13:37:09Z</time>
      </trkpt>
      <trkpt lat="45.56334" lon="6.69494">
        <ele>713.2</ele>
        <time>2021-05-28T13:37:10Z</time>
      </trkpt>
      <trkpt lat="45.56336" lon="6.69504">
        <ele>713.4</ele>
        <time>2021-05-28T13:37:11Z</time>
      </trkpt>
      <trkpt lat="45.56337" lon="6.69514">
        <ele>713.4</ele>
        <time>2021-05-28T13:37:12Z</time>
      </trkpt>
      <trkpt lat="45.56339" lon="6.69523">
        <ele>713.2</ele>
        <time>2021-05-28T13:37:13Z</time>
      </trkpt>
      <trkpt lat="45.5634" lon="6.69532">
        <ele>713.2</ele>
        <time>2021-05-28T13:37:14Z</time>
      </trkpt>
      <trkpt lat="45.56341" lon="6.69542">
        <ele>713.2</ele>
        <time>2021-05-28T13:37:15Z</time>
      </trkpt>
      <trkpt lat="45.56343" lon="6.69551">
        <ele>713.4</ele>
        <time>2021-05-28T13:37:16Z</time>
      </trkpt>
      <trkpt lat="45.56345" lon="6.69561">
        <ele>713.6</ele>
        <time>2021-05-28T13:37:17Z</time>
      </trkpt>
      <trkpt lat="45.56347" lon="6.6957">
        <ele>713.6</ele>
        <time>2021-05-28T13:37:18Z</time>
      </trkpt>
      <trkpt lat="45.56349" lon="6.6958">
        <ele>713.6</ele>
        <time>2021-05-28T13:37:19Z</time>
      </trkpt>
      <trkpt lat="45.5635" lon="6.69589">
        <ele>713.6</ele>
        <time>2021-05-28T13:37:20Z</time>
      </trkpt>
      <trkpt lat="45.56351" lon="6.69598">
        <ele>713.8</ele>
        <time>2021-05-28T13:37:21Z</time>
      </trkpt>
      <trkpt lat="45.5635" lon="6.69608">
        <ele>713.8</ele>
        <time>2021-05-28T13:37:22Z</time>
      </trkpt>
      <trkpt lat="45.56348" lon="6.69618">
        <ele>713.8</ele>
        <time>2021-05-28T13:37:23Z</time>
      </trkpt>
      <trkpt lat="45.56347" lon="6.69627">
        <ele>714</ele>
        <time>2021-05-28T13:37:24Z</time>
      </trkpt>
      <trkpt lat="45.56345" lon="6.69637">
        <ele>714</ele>
        <time>2021-05-28T13:37:25Z</time>
      </trkpt>
      <trkpt lat="45.56343" lon="6.69647">
        <ele>714</ele>
        <time>2021-05-28T13:37:26Z</time>
      </trkpt>
      <trkpt lat="45.5634" lon="6.69656">
        <ele>714.2</ele>
        <time>2021-05-28T13:37:27Z</time>
      </trkpt>
      <trkpt lat="45.56339" lon="6.69664">
        <ele>714.2</ele>
        <time>2021-05-28T13:37:28Z</time>
      </trkpt>
      <trkpt lat="45.56336" lon="6.69674">
        <ele>713.8</ele>
        <time>2021-05-28T13:37:29Z</time>
      </trkpt>
      <trkpt lat="45.56334" lon="6.69684">
        <ele>713.8</ele>
        <time>2021-05-28T13:37:30Z</time>
      </trkpt>
      <trkpt lat="45.56332" lon="6.69694">
        <ele>713.6</ele>
        <time>2021-05-28T13:37:31Z</time>
      </trkpt>
      <trkpt lat="45.56331" lon="6.69703">
        <ele>713.4</ele>
        <time>2021-05-28T13:37:32Z</time>
      </trkpt>
      <trkpt lat="45.56329" lon="6.69712">
        <ele>713.2</ele>
        <time>2021-05-28T13:37:33Z</time>
      </trkpt>
      <trkpt lat="45.56328" lon="6.69721">
        <ele>713.2</ele>
        <time>2021-05-28T13:37:34Z</time>
      </trkpt>
      <trkpt lat="45.56328" lon="6.69731">
        <ele>712.8</ele>
        <time>2021-05-28T13:37:35Z</time>
      </trkpt>
      <trkpt lat="45.56328" lon="6.69741">
        <ele>712.8</ele>
        <time>2021-05-28T13:37:36Z</time>
      </trkpt>
      <trkpt lat="45.56328" lon="6.69752">
        <ele>712.8</ele>
        <time>2021-05-28T13:37:37Z</time>
      </trkpt>
      <trkpt lat="45.56328" lon="6.69762">
        <ele>712.6</ele>
        <time>2021-05-28T13:37:38Z</time>
      </trkpt>
      <trkpt lat="45.56328" lon="6.69774">
        <ele>712.6</ele>
        <time>2021-05-28T13:37:39Z</time>
      </trkpt>
      <trkpt lat="45.56328" lon="6.69785">
        <ele>712.6</ele>
        <time>2021-05-28T13:37:40Z</time>
      </trkpt>
      <trkpt lat="45.56329" lon="6.69796">
        <ele>712.6</ele>
        <time>2021-05-28T13:37:41Z</time>
      </trkpt>
      <trkpt lat="45.56329" lon="6.69807">
        <ele>712.4</ele>
        <time>2021-05-28T13:37:42Z</time>
      </trkpt>
      <trkpt lat="45.56331" lon="6.69819">
        <ele>712.4</ele>
        <time>2021-05-28T13:37:43Z</time>
      </trkpt>
      <trkpt lat="45.56332" lon="6.69833">
        <ele>712.2</ele>
        <time>2021-05-28T13:37:44Z</time>
      </trkpt>
      <trkpt lat="45.56334" lon="6.69847">
        <ele>712.2</ele>
        <time>2021-05-28T13:37:45Z</time>
      </trkpt>
      <trkpt lat="45.56335" lon="6.69859">
        <ele>712.2</ele>
        <time>2021-05-28T13:37:46Z</time>
      </trkpt>
      <trkpt lat="45.56337" lon="6.6987">
        <ele>712</ele>
        <time>2021-05-28T13:37:47Z</time>
      </trkpt>
      <trkpt lat="45.56338" lon="6.6988">
        <ele>712.2</ele>
        <time>2021-05-28T13:37:48Z</time>
      </trkpt>
      <trkpt lat="45.56338" lon="6.6989">
        <ele>712.4</ele>
        <time>2021-05-28T13:37:49Z</time>
      </trkpt>
      <trkpt lat="45.56339" lon="6.69901">
        <ele>712.6</ele>
        <time>2021-05-28T13:37:50Z</time>
      </trkpt>
      <trkpt lat="45.5634" lon="6.69912">
        <ele>712.4</ele>
        <time>2021-05-28T13:37:51Z</time>
      </trkpt>
      <trkpt lat="45.56341" lon="6.69923">
        <ele>712.6</ele>
        <time>2021-05-28T13:37:52Z</time>
      </trkpt>
      <trkpt lat="45.56343" lon="6.69934">
        <ele>712.8</ele>
        <time>2021-05-28T13:37:53Z</time>
      </trkpt>
      <trkpt lat="45.56344" lon="6.69946">
        <ele>712.8</ele>
        <time>2021-05-28T13:37:54Z</time>
      </trkpt>
      <trkpt lat="45.56346" lon="6.69957">
        <ele>712.8</ele>
        <time>2021-05-28T13:37:55Z</time>
      </trkpt>
      <trkpt lat="45.56348" lon="6.69968">
        <ele>712.6</ele>
        <time>2021-05-28T13:37:56Z</time>
      </trkpt>
      <trkpt lat="45.56349" lon="6.69978">
        <ele>712.8</ele>
        <time>2021-05-28T13:37:57Z</time>
      </trkpt>
      <trkpt lat="45.56351" lon="6.69988">
        <ele>712.8</ele>
        <time>2021-05-28T13:37:58Z</time>
      </trkpt>
      <trkpt lat="45.56353" lon="6.69999">
        <ele>712.6</ele>
        <time>2021-05-28T13:37:59Z</time>
      </trkpt>
      <trkpt lat="45.56354" lon="6.70009">
        <ele>712.8</ele>
        <time>2021-05-28T13:38:00Z</time>
      </trkpt>
      <trkpt lat="45.56355" lon="6.70019">
        <ele>713</ele>
        <time>2021-05-28T13:38:01Z</time>
      </trkpt>
      <trkpt lat="45.56356" lon="6.70029">
        <ele>713</ele>
        <time>2021-05-28T13:38:02Z</time>
      </trkpt>
      <trkpt lat="45.56358" lon="6.7004">
        <ele>713.2</ele>
        <time>2021-05-28T13:38:03Z</time>
      </trkpt>
      <trkpt lat="45.56359" lon="6.7005">
        <ele>713</ele>
        <time>2021-05-28T13:38:04Z</time>
      </trkpt>
      <trkpt lat="45.56361" lon="6.7006">
        <ele>713.2</ele>
        <time>2021-05-28T13:38:05Z</time>
      </trkpt>
      <trkpt lat="45.56363" lon="6.70071">
        <ele>713.4</ele>
        <time>2021-05-28T13:38:06Z</time>
      </trkpt>
      <trkpt lat="45.56365" lon="6.70082">
        <ele>713.6</ele>
        <time>2021-05-28T13:38:07Z</time>
      </trkpt>
      <trkpt lat="45.56369" lon="6.70092">
        <ele>713.8</ele>
        <time>2021-05-28T13:38:08Z</time>
      </trkpt>
      <trkpt lat="45.56371" lon="6.70102">
        <ele>714</ele>
        <time>2021-05-28T13:38:09Z</time>
      </trkpt>
      <trkpt lat="45.56374" lon="6.70112">
        <ele>714.2</ele>
        <time>2021-05-28T13:38:10Z</time>
      </trkpt>
      <trkpt lat="45.56378" lon="6.70122">
        <ele>714.4</ele>
        <time>2021-05-28T13:38:11Z</time>
      </trkpt>
      <trkpt lat="45.56382" lon="6.70132">
        <ele>714.4</ele>
        <time>2021-05-28T13:38:12Z</time>
      </trkpt>
      <trkpt lat="45.56384" lon="6.70143">
        <ele>714.4</ele>
        <time>2021-05-28T13:38:13Z</time>
      </trkpt>
      <trkpt lat="45.56386" lon="6.70153">
        <ele>714.6</ele>
        <time>2021-05-28T13:38:14Z</time>
      </trkpt>
      <trkpt lat="45.56388" lon="6.70164">
        <ele>714</ele>
        <time>2021-05-28T13:38:15Z</time>
      </trkpt>
      <trkpt lat="45.5639" lon="6.70174">
        <ele>714.2</ele>
        <time>2021-05-28T13:38:16Z</time>
      </trkpt>
      <trkpt lat="45.5639" lon="6.70185">
        <ele>714.4</ele>
        <time>2021-05-28T13:38:17Z</time>
      </trkpt>
      <trkpt lat="45.56391" lon="6.70196">
        <ele>714</ele>
        <time>2021-05-28T13:38:18Z</time>
      </trkpt>
      <trkpt lat="45.56392" lon="6.70206">
        <ele>714.2</ele>
        <time>2021-05-28T13:38:19Z</time>
      </trkpt>
      <trkpt lat="45.56393" lon="6.70216">
        <ele>714.2</ele>
        <time>2021-05-28T13:38:20Z</time>
      </trkpt>
      <trkpt lat="45.56393" lon="6.70226">
        <ele>714.4</ele>
        <time>2021-05-28T13:38:21Z</time>
      </trkpt>
      <trkpt lat="45.56394" lon="6.70236">
        <ele>714.6</ele>
        <time>2021-05-28T13:38:22Z</time>
      </trkpt>
      <trkpt lat="45.56395" lon="6.70246">
        <ele>715.2</ele>
        <time>2021-05-28T13:38:23Z</time>
      </trkpt>
      <trkpt lat="45.56396" lon="6.70255">
        <ele>715.2</ele>
        <time>2021-05-28T13:38:24Z</time>
      </trkpt>
      <trkpt lat="45.56399" lon="6.70262">
        <ele>715.2</ele>
        <time>2021-05-28T13:38:25Z</time>
      </trkpt>
      <trkpt lat="45.56401" lon="6.7027">
        <ele>715</ele>
        <time>2021-05-28T13:38:26Z</time>
      </trkpt>
      <trkpt lat="45.56404" lon="6.70276">
        <ele>715.2</ele>
        <time>2021-05-28T13:38:27Z</time>
      </trkpt>
      <trkpt lat="45.56408" lon="6.70281">
        <ele>715.2</ele>
        <time>2021-05-28T13:38:28Z</time>
      </trkpt>
      <trkpt lat="45.56411" lon="6.70287">
        <ele>715.6</ele>
        <time>2021-05-28T13:38:29Z</time>
      </trkpt>
      <trkpt lat="45.56415" lon="6.70292">
        <ele>715.8</ele>
        <time>2021-05-28T13:38:30Z</time>
      </trkpt>
      <trkpt lat="45.56419" lon="6.70298">
        <ele>716</ele>
        <time>2021-05-28T13:38:31Z</time>
      </trkpt>
      <trkpt lat="45.56425" lon="6.70303">
        <ele>716</ele>
        <time>2021-05-28T13:38:32Z</time>
      </trkpt>
      <trkpt lat="45.56433" lon="6.70309">
        <ele>716</ele>
        <time>2021-05-28T13:38:33Z</time>
      </trkpt>
      <trkpt lat="45.56439" lon="6.70318">
        <ele>716.2</ele>
        <time>2021-05-28T13:38:34Z</time>
      </trkpt>
      <trkpt lat="45.56445" lon="6.70326">
        <ele>716.2</ele>
        <time>2021-05-28T13:38:35Z</time>
      </trkpt>
      <trkpt lat="45.56451" lon="6.70333">
        <ele>716</ele>
        <time>2021-05-28T13:38:36Z</time>
      </trkpt>
      <trkpt lat="45.56456" lon="6.70339">
        <ele>715.8</ele>
        <time>2021-05-28T13:38:37Z</time>
      </trkpt>
      <trkpt lat="45.5646" lon="6.70345">
        <ele>716</ele>
        <time>2021-05-28T13:38:38Z</time>
      </trkpt>
      <trkpt lat="45.56465" lon="6.7035">
        <ele>715.8</ele>
        <time>2021-05-28T13:38:39Z</time>
      </trkpt>
      <trkpt lat="45.5647" lon="6.70357">
        <ele>715.8</ele>
        <time>2021-05-28T13:38:40Z</time>
      </trkpt>
      <trkpt lat="45.56474" lon="6.70363">
        <ele>715.8</ele>
        <time>2021-05-28T13:38:41Z</time>
      </trkpt>
      <trkpt lat="45.56478" lon="6.70369">
        <ele>716</ele>
        <time>2021-05-28T13:38:42Z</time>
      </trkpt>
      <trkpt lat="45.56483" lon="6.70375">
        <ele>716</ele>
        <time>2021-05-28T13:38:43Z</time>
      </trkpt>
      <trkpt lat="45.56488" lon="6.70381">
        <ele>716</ele>
        <time>2021-05-28T13:38:44Z</time>
      </trkpt>
      <trkpt lat="45.56491" lon="6.70388">
        <ele>716</ele>
        <time>2021-05-28T13:38:45Z</time>
      </trkpt>
      <trkpt lat="45.56495" lon="6.70395">
        <ele>715.8</ele>
        <time>2021-05-28T13:38:46Z</time>
      </trkpt>
      <trkpt lat="45.56498" lon="6.70403">
        <ele>715.6</ele>
        <time>2021-05-28T13:38:47Z</time>
      </trkpt>
      <trkpt lat="45.56503" lon="6.70409">
        <ele>715.2</ele>
        <time>2021-05-28T13:38:48Z</time>
      </trkpt>
      <trkpt lat="45.56508" lon="6.70416">
        <ele>715</ele>
        <time>2021-05-28T13:38:49Z</time>
      </trkpt>
      <trkpt lat="45.56513" lon="6.70423">
        <ele>714.8</ele>
        <time>2021-05-28T13:38:50Z</time>
      </trkpt>
      <trkpt lat="45.56519" lon="6.7043">
        <ele>714.8</ele>
        <time>2021-05-28T13:38:51Z</time>
      </trkpt>
      <trkpt lat="45.56523" lon="6.70436">
        <ele>714.8</ele>
        <time>2021-05-28T13:38:52Z</time>
      </trkpt>
      <trkpt lat="45.56527" lon="6.70441">
        <ele>715</ele>
        <time>2021-05-28T13:38:53Z</time>
      </trkpt>
      <trkpt lat="45.56532" lon="6.70447">
        <ele>714.8</ele>
        <time>2021-05-28T13:38:54Z</time>
      </trkpt>
      <trkpt lat="45.56536" lon="6.70452">
        <ele>714.8</ele>
        <time>2021-05-28T13:38:55Z</time>
      </trkpt>
      <trkpt lat="45.56541" lon="6.70458">
        <ele>714.4</ele>
        <time>2021-05-28T13:38:56Z</time>
      </trkpt>
      <trkpt lat="45.56547" lon="6.70463">
        <ele>714.2</ele>
        <time>2021-05-28T13:38:57Z</time>
      </trkpt>
      <trkpt lat="45.56553" lon="6.70467">
        <ele>713.8</ele>
        <time>2021-05-28T13:38:58Z</time>
      </trkpt>
      <trkpt lat="45.56559" lon="6.70471">
        <ele>714</ele>
        <time>2021-05-28T13:38:59Z</time>
      </trkpt>
      <trkpt lat="45.56567" lon="6.70475">
        <ele>713.8</ele>
        <time>2021-05-28T13:39:00Z</time>
      </trkpt>
      <trkpt lat="45.56573" lon="6.70479">
        <ele>713.8</ele>
        <time>2021-05-28T13:39:01Z</time>
      </trkpt>
      <trkpt lat="45.5658" lon="6.70482">
        <ele>713.6</ele>
        <time>2021-05-28T13:39:02Z</time>
      </trkpt>
      <trkpt lat="45.56586" lon="6.70486">
        <ele>713.6</ele>
        <time>2021-05-28T13:39:03Z</time>
      </trkpt>
      <trkpt lat="45.56592" lon="6.7049">
        <ele>713.6</ele>
        <time>2021-05-28T13:39:04Z</time>
      </trkpt>
      <trkpt lat="45.56598" lon="6.70493">
        <ele>713.8</ele>
        <time>2021-05-28T13:39:05Z</time>
      </trkpt>
      <trkpt lat="45.56604" lon="6.70497">
        <ele>713.6</ele>
        <time>2021-05-28T13:39:06Z</time>
      </trkpt>
      <trkpt lat="45.56609" lon="6.70501">
        <ele>713.6</ele>
        <time>2021-05-28T13:39:07Z</time>
      </trkpt>
      <trkpt lat="45.56615" lon="6.70505">
        <ele>713.4</ele>
        <time>2021-05-28T13:39:08Z</time>
      </trkpt>
      <trkpt lat="45.56622" lon="6.7051">
        <ele>713.4</ele>
        <time>2021-05-28T13:39:09Z</time>
      </trkpt>
      <trkpt lat="45.56629" lon="6.70515">
        <ele>713.4</ele>
        <time>2021-05-28T13:39:10Z</time>
      </trkpt>
      <trkpt lat="45.56636" lon="6.7052">
        <ele>713.6</ele>
        <time>2021-05-28T13:39:11Z</time>
      </trkpt>
      <trkpt lat="45.56642" lon="6.70526">
        <ele>713.2</ele>
        <time>2021-05-28T13:39:12Z</time>
      </trkpt>
      <trkpt lat="45.56647" lon="6.70531">
        <ele>712.6</ele>
        <time>2021-05-28T13:39:13Z</time>
      </trkpt>
      <trkpt lat="45.56653" lon="6.70537">
        <ele>712.2</ele>
        <time>2021-05-28T13:39:14Z</time>
      </trkpt>
      <trkpt lat="45.56658" lon="6.70543">
        <ele>712.2</ele>
        <time>2021-05-28T13:39:15Z</time>
      </trkpt>
      <trkpt lat="45.56663" lon="6.7055">
        <ele>712</ele>
        <time>2021-05-28T13:39:16Z</time>
      </trkpt>
      <trkpt lat="45.56669" lon="6.70557">
        <ele>712.2</ele>
        <time>2021-05-28T13:39:17Z</time>
      </trkpt>
      <trkpt lat="45.56674" lon="6.70566">
        <ele>712.2</ele>
        <time>2021-05-28T13:39:18Z</time>
      </trkpt>
      <trkpt lat="45.56678" lon="6.70575">
        <ele>712.2</ele>
        <time>2021-05-28T13:39:19Z</time>
      </trkpt>
      <trkpt lat="45.56682" lon="6.70584">
        <ele>712.4</ele>
        <time>2021-05-28T13:39:20Z</time>
      </trkpt>
      <trkpt lat="45.56685" lon="6.70594">
        <ele>712.8</ele>
        <time>2021-05-28T13:39:21Z</time>
      </trkpt>
      <trkpt lat="45.56688" lon="6.70604">
        <ele>712.8</ele>
        <time>2021-05-28T13:39:22Z</time>
      </trkpt>
      <trkpt lat="45.5669" lon="6.70614">
        <ele>712.8</ele>
        <time>2021-05-28T13:39:23Z</time>
      </trkpt>
      <trkpt lat="45.5669" lon="6.70623">
        <ele>712.8</ele>
        <time>2021-05-28T13:39:24Z</time>
      </trkpt>
      <trkpt lat="45.56689" lon="6.70634">
        <ele>712.8</ele>
        <time>2021-05-28T13:39:25Z</time>
      </trkpt>
      <trkpt lat="45.56687" lon="6.70643">
        <ele>712.6</ele>
        <time>2021-05-28T13:39:26Z</time>
      </trkpt>
      <trkpt lat="45.56685" lon="6.70653">
        <ele>712.4</ele>
        <time>2021-05-28T13:39:27Z</time>
      </trkpt>
      <trkpt lat="45.56684" lon="6.70662">
        <ele>712.6</ele>
        <time>2021-05-28T13:39:28Z</time>
      </trkpt>
      <trkpt lat="45.56682" lon="6.70673">
        <ele>712.8</ele>
        <time>2021-05-28T13:39:29Z</time>
      </trkpt>
      <trkpt lat="45.5668" lon="6.70682">
        <ele>713.2</ele>
        <time>2021-05-28T13:39:30Z</time>
      </trkpt>
      <trkpt lat="45.56678" lon="6.70691">
        <ele>713.6</ele>
        <time>2021-05-28T13:39:31Z</time>
      </trkpt>
      <trkpt lat="45.56675" lon="6.70701">
        <ele>713.8</ele>
        <time>2021-05-28T13:39:32Z</time>
      </trkpt>
      <trkpt lat="45.56668" lon="6.7071">
        <ele>714.2</ele>
        <time>2021-05-28T13:39:33Z</time>
      </trkpt>
      <trkpt lat="45.56664" lon="6.70717">
        <ele>714.6</ele>
        <time>2021-05-28T13:39:34Z</time>
      </trkpt>
      <trkpt lat="45.56659" lon="6.70723">
        <ele>714.6</ele>
        <time>2021-05-28T13:39:35Z</time>
      </trkpt>
      <trkpt lat="45.56653" lon="6.7073">
        <ele>714.8</ele>
        <time>2021-05-28T13:39:36Z</time>
      </trkpt>
      <trkpt lat="45.56648" lon="6.70736">
        <ele>714.8</ele>
        <time>2021-05-28T13:39:37Z</time>
      </trkpt>
      <trkpt lat="45.56641" lon="6.70741">
        <ele>715</ele>
        <time>2021-05-28T13:39:38Z</time>
      </trkpt>
      <trkpt lat="45.56636" lon="6.70746">
        <ele>715.4</ele>
        <time>2021-05-28T13:39:39Z</time>
      </trkpt>
      <trkpt lat="45.56629" lon="6.7075">
        <ele>715.4</ele>
        <time>2021-05-28T13:39:40Z</time>
      </trkpt>
      <trkpt lat="45.56622" lon="6.70755">
        <ele>715.6</ele>
        <time>2021-05-28T13:39:41Z</time>
      </trkpt>
      <trkpt lat="45.56616" lon="6.70759">
        <ele>716</ele>
        <time>2021-05-28T13:39:42Z</time>
      </trkpt>
      <trkpt lat="45.5661" lon="6.70763">
        <ele>716.2</ele>
        <time>2021-05-28T13:39:43Z</time>
      </trkpt>
      <trkpt lat="45.56604" lon="6.70767">
        <ele>716.6</ele>
        <time>2021-05-28T13:39:44Z</time>
      </trkpt>
      <trkpt lat="45.56598" lon="6.70772">
        <ele>717</ele>
        <time>2021-05-28T13:39:45Z</time>
      </trkpt>
      <trkpt lat="45.56593" lon="6.70777">
        <ele>717.2</ele>
        <time>2021-05-28T13:39:46Z</time>
      </trkpt>
      <trkpt lat="45.56588" lon="6.70783">
        <ele>717.6</ele>
        <time>2021-05-28T13:39:47Z</time>
      </trkpt>
      <trkpt lat="45.56583" lon="6.70789">
        <ele>717.8</ele>
        <time>2021-05-28T13:39:48Z</time>
      </trkpt>
      <trkpt lat="45.56578" lon="6.70796">
        <ele>717.8</ele>
        <time>2021-05-28T13:39:49Z</time>
      </trkpt>
      <trkpt lat="45.56573" lon="6.70804">
        <ele>717.8</ele>
        <time>2021-05-28T13:39:50Z</time>
      </trkpt>
      <trkpt lat="45.56569" lon="6.70812">
        <ele>718</ele>
        <time>2021-05-28T13:39:51Z</time>
      </trkpt>
      <trkpt lat="45.56564" lon="6.7082">
        <ele>718.2</ele>
        <time>2021-05-28T13:39:52Z</time>
      </trkpt>
      <trkpt lat="45.5656" lon="6.70829">
        <ele>718.4</ele>
        <time>2021-05-28T13:39:53Z</time>
      </trkpt>
      <trkpt lat="45.56556" lon="6.70837">
        <ele>718.2</ele>
        <time>2021-05-28T13:39:54Z</time>
      </trkpt>
      <trkpt lat="45.56553" lon="6.70846">
        <ele>718.2</ele>
        <time>2021-05-28T13:39:55Z</time>
      </trkpt>
      <trkpt lat="45.5655" lon="6.70856">
        <ele>717.8</ele>
        <time>2021-05-28T13:39:56Z</time>
      </trkpt>
      <trkpt lat="45.56548" lon="6.70867">
        <ele>717.6</ele>
        <time>2021-05-28T13:39:57Z</time>
      </trkpt>
      <trkpt lat="45.56548" lon="6.70877">
        <ele>717.8</ele>
        <time>2021-05-28T13:39:58Z</time>
      </trkpt>
      <trkpt lat="45.56548" lon="6.70888">
        <ele>717.8</ele>
        <time>2021-05-28T13:39:59Z</time>
      </trkpt>
      <trkpt lat="45.56549" lon="6.70899">
        <ele>717.8</ele>
        <time>2021-05-28T13:40:00Z</time>
      </trkpt>
      <trkpt lat="45.5655" lon="6.7091">
        <ele>718.2</ele>
        <time>2021-05-28T13:40:01Z</time>
      </trkpt>
      <trkpt lat="45.5655" lon="6.70921">
        <ele>718.8</ele>
        <time>2021-05-28T13:40:02Z</time>
      </trkpt>
      <trkpt lat="45.56551" lon="6.70932">
        <ele>719.4</ele>
        <time>2021-05-28T13:40:03Z</time>
      </trkpt>
      <trkpt lat="45.56552" lon="6.70943">
        <ele>719.8</ele>
        <time>2021-05-28T13:40:04Z</time>
      </trkpt>
      <trkpt lat="45.56551" lon="6.70953">
        <ele>720</ele>
        <time>2021-05-28T13:40:05Z</time>
      </trkpt>
      <trkpt lat="45.56551" lon="6.70964">
        <ele>720</ele>
        <time>2021-05-28T13:40:06Z</time>
      </trkpt>
      <trkpt lat="45.56553" lon="6.70975">
        <ele>720.6</ele>
        <time>2021-05-28T13:40:07Z</time>
      </trkpt>
      <trkpt lat="45.56554" lon="6.70985">
        <ele>720.8</ele>
        <time>2021-05-28T13:40:08Z</time>
      </trkpt>
      <trkpt lat="45.56555" lon="6.70996">
        <ele>721</ele>
        <time>2021-05-28T13:40:09Z</time>
      </trkpt>
      <trkpt lat="45.56557" lon="6.71006">
        <ele>721.2</ele>
        <time>2021-05-28T13:40:10Z</time>
      </trkpt>
      <trkpt lat="45.56558" lon="6.71015">
        <ele>721.4</ele>
        <time>2021-05-28T13:40:11Z</time>
      </trkpt>
      <trkpt lat="45.56561" lon="6.71025">
        <ele>721.8</ele>
        <time>2021-05-28T13:40:12Z</time>
      </trkpt>
      <trkpt lat="45.56563" lon="6.71035">
        <ele>722</ele>
        <time>2021-05-28T13:40:13Z</time>
      </trkpt>
      <trkpt lat="45.56564" lon="6.71045">
        <ele>722.2</ele>
        <time>2021-05-28T13:40:14Z</time>
      </trkpt>
      <trkpt lat="45.56566" lon="6.71054">
        <ele>722.4</ele>
        <time>2021-05-28T13:40:15Z</time>
      </trkpt>
      <trkpt lat="45.56567" lon="6.71063">
        <ele>722.4</ele>
        <time>2021-05-28T13:40:16Z</time>
      </trkpt>
      <trkpt lat="45.56568" lon="6.71073">
        <ele>722.4</ele>
        <time>2021-05-28T13:40:17Z</time>
      </trkpt>
      <trkpt lat="45.56569" lon="6.71082">
        <ele>722.6</ele>
        <time>2021-05-28T13:40:18Z</time>
      </trkpt>
      <trkpt lat="45.56569" lon="6.71092">
        <ele>722.6</ele>
        <time>2021-05-28T13:40:19Z</time>
      </trkpt>
      <trkpt lat="45.5657" lon="6.71101">
        <ele>722.6</ele>
        <time>2021-05-28T13:40:20Z</time>
      </trkpt>
      <trkpt lat="45.5657" lon="6.71112">
        <ele>722.6</ele>
        <time>2021-05-28T13:40:21Z</time>
      </trkpt>
      <trkpt lat="45.56572" lon="6.71121">
        <ele>722.6</ele>
        <time>2021-05-28T13:40:22Z</time>
      </trkpt>
      <trkpt lat="45.56574" lon="6.71131">
        <ele>722.6</ele>
        <time>2021-05-28T13:40:23Z</time>
      </trkpt>
      <trkpt lat="45.56577" lon="6.71141">
        <ele>722.6</ele>
        <time>2021-05-28T13:40:24Z</time>
      </trkpt>
      <trkpt lat="45.56579" lon="6.71151">
        <ele>722.6</ele>
        <time>2021-05-28T13:40:25Z</time>
      </trkpt>
      <trkpt lat="45.56581" lon="6.7116">
        <ele>722.8</ele>
        <time>2021-05-28T13:40:26Z</time>
      </trkpt>
      <trkpt lat="45.56584" lon="6.7117">
        <ele>723</ele>
        <time>2021-05-28T13:40:27Z</time>
      </trkpt>
      <trkpt lat="45.56587" lon="6.7118">
        <ele>723</ele>
        <time>2021-05-28T13:40:28Z</time>
      </trkpt>
      <trkpt lat="45.5659" lon="6.7119">
        <ele>723</ele>
        <time>2021-05-28T13:40:29Z</time>
      </trkpt>
      <trkpt lat="45.56593" lon="6.71199">
        <ele>723</ele>
        <time>2021-05-28T13:40:30Z</time>
      </trkpt>
      <trkpt lat="45.56596" lon="6.71208">
        <ele>723.2</ele>
        <time>2021-05-28T13:40:31Z</time>
      </trkpt>
      <trkpt lat="45.566" lon="6.71217">
        <ele>722.8</ele>
        <time>2021-05-28T13:40:32Z</time>
      </trkpt>
      <trkpt lat="45.56605" lon="6.71226">
        <ele>722.8</ele>
        <time>2021-05-28T13:40:33Z</time>
      </trkpt>
      <trkpt lat="45.56609" lon="6.71234">
        <ele>723</ele>
        <time>2021-05-28T13:40:34Z</time>
      </trkpt>
      <trkpt lat="45.56613" lon="6.71243">
        <ele>722.6</ele>
        <time>2021-05-28T13:40:35Z</time>
      </trkpt>
      <trkpt lat="45.56617" lon="6.71251">
        <ele>721.6</ele>
        <time>2021-05-28T13:40:36Z</time>
      </trkpt>
      <trkpt lat="45.56622" lon="6.71259">
        <ele>721.6</ele>
        <time>2021-05-28T13:40:37Z</time>
      </trkpt>
      <trkpt lat="45.56628" lon="6.71265">
        <ele>721.4</ele>
        <time>2021-05-28T13:40:38Z</time>
      </trkpt>
      <trkpt lat="45.56635" lon="6.7127">
        <ele>721.4</ele>
        <time>2021-05-28T13:40:39Z</time>
      </trkpt>
      <trkpt lat="45.56641" lon="6.71275">
        <ele>721.6</ele>
        <time>2021-05-28T13:40:40Z</time>
      </trkpt>
      <trkpt lat="45.56647" lon="6.71281">
        <ele>721.8</ele>
        <time>2021-05-28T13:40:41Z</time>
      </trkpt>
      <trkpt lat="45.56652" lon="6.71289">
        <ele>721.8</ele>
        <time>2021-05-28T13:40:42Z</time>
      </trkpt>
      <trkpt lat="45.56656" lon="6.71297">
        <ele>721.6</ele>
        <time>2021-05-28T13:40:43Z</time>
      </trkpt>
      <trkpt lat="45.56659" lon="6.71306">
        <ele>721.8</ele>
        <time>2021-05-28T13:40:44Z</time>
      </trkpt>
      <trkpt lat="45.5666" lon="6.71315">
        <ele>722</ele>
        <time>2021-05-28T13:40:45Z</time>
      </trkpt>
      <trkpt lat="45.56659" lon="6.71323">
        <ele>722</ele>
        <time>2021-05-28T13:40:46Z</time>
      </trkpt>
      <trkpt lat="45.56656" lon="6.71331">
        <ele>722.2</ele>
        <time>2021-05-28T13:40:47Z</time>
      </trkpt>
      <trkpt lat="45.56654" lon="6.71339">
        <ele>722.2</ele>
        <time>2021-05-28T13:40:48Z</time>
      </trkpt>
      <trkpt lat="45.56652" lon="6.71347">
        <ele>722.4</ele>
        <time>2021-05-28T13:40:49Z</time>
      </trkpt>
      <trkpt lat="45.5665" lon="6.71355">
        <ele>722.2</ele>
        <time>2021-05-28T13:40:50Z</time>
      </trkpt>
      <trkpt lat="45.5665" lon="6.71362">
        <ele>722.4</ele>
        <time>2021-05-28T13:40:51Z</time>
      </trkpt>
      <trkpt lat="45.56651" lon="6.71369">
        <ele>722.6</ele>
        <time>2021-05-28T13:40:52Z</time>
      </trkpt>
      <trkpt lat="45.56651" lon="6.71376">
        <ele>722.6</ele>
        <time>2021-05-28T13:40:53Z</time>
      </trkpt>
      <trkpt lat="45.56651" lon="6.71384">
        <ele>722.6</ele>
        <time>2021-05-28T13:40:54Z</time>
      </trkpt>
      <trkpt lat="45.56649" lon="6.71392">
        <ele>722.8</ele>
        <time>2021-05-28T13:40:55Z</time>
      </trkpt>
      <trkpt lat="45.56647" lon="6.714">
        <ele>722.8</ele>
        <time>2021-05-28T13:40:56Z</time>
      </trkpt>
      <trkpt lat="45.56645" lon="6.71408">
        <ele>722.6</ele>
        <time>2021-05-28T13:40:57Z</time>
      </trkpt>
      <trkpt lat="45.56644" lon="6.71418">
        <ele>722</ele>
        <time>2021-05-28T13:40:58Z</time>
      </trkpt>
      <trkpt lat="45.56644" lon="6.71428">
        <ele>722</ele>
        <time>2021-05-28T13:40:59Z</time>
      </trkpt>
      <trkpt lat="45.56645" lon="6.71436">
        <ele>721.8</ele>
        <time>2021-05-28T13:41:00Z</time>
      </trkpt>
      <trkpt lat="45.56646" lon="6.71444">
        <ele>721.8</ele>
        <time>2021-05-28T13:41:01Z</time>
      </trkpt>
      <trkpt lat="45.56648" lon="6.71453">
        <ele>722</ele>
        <time>2021-05-28T13:41:02Z</time>
      </trkpt>
      <trkpt lat="45.56649" lon="6.7146">
        <ele>722.2</ele>
        <time>2021-05-28T13:41:03Z</time>
      </trkpt>
      <trkpt lat="45.56651" lon="6.71467">
        <ele>722.2</ele>
        <time>2021-05-28T13:41:04Z</time>
      </trkpt>
      <trkpt lat="45.56653" lon="6.71474">
        <ele>722.2</ele>
        <time>2021-05-28T13:41:05Z</time>
      </trkpt>
      <trkpt lat="45.56654" lon="6.7148">
        <ele>722.2</ele>
        <time>2021-05-28T13:41:06Z</time>
      </trkpt>
      <trkpt lat="45.56655" lon="6.71486">
        <ele>722.6</ele>
        <time>2021-05-28T13:41:07Z</time>
      </trkpt>
      <trkpt lat="45.56657" lon="6.71492">
        <ele>723</ele>
        <time>2021-05-28T13:41:08Z</time>
      </trkpt>
      <trkpt lat="45.56659" lon="6.71497">
        <ele>723.2</ele>
        <time>2021-05-28T13:41:09Z</time>
      </trkpt>
      <trkpt lat="45.56661" lon="6.71502">
        <ele>723.4</ele>
        <time>2021-05-28T13:41:10Z</time>
      </trkpt>
      <trkpt lat="45.56662" lon="6.71506">
        <ele>723.4</ele>
        <time>2021-05-28T13:41:11Z</time>
      </trkpt>
      <trkpt lat="45.56663" lon="6.71511">
        <ele>723.8</ele>
        <time>2021-05-28T13:41:12Z</time>
      </trkpt>
      <trkpt lat="45.56665" lon="6.71516">
        <ele>723.6</ele>
        <time>2021-05-28T13:41:13Z</time>
      </trkpt>
      <trkpt lat="45.56665" lon="6.71521">
        <ele>723.6</ele>
        <time>2021-05-28T13:41:14Z</time>
      </trkpt>
      <trkpt lat="45.56666" lon="6.71526">
        <ele>723.4</ele>
        <time>2021-05-28T13:41:15Z</time>
      </trkpt>
      <trkpt lat="45.56667" lon="6.71532">
        <ele>723</ele>
        <time>2021-05-28T13:41:16Z</time>
      </trkpt>
      <trkpt lat="45.56668" lon="6.71537">
        <ele>723</ele>
        <time>2021-05-28T13:41:17Z</time>
      </trkpt>
      <trkpt lat="45.5667" lon="6.71543">
        <ele>722.8</ele>
        <time>2021-05-28T13:41:18Z</time>
      </trkpt>
      <trkpt lat="45.56671" lon="6.71549">
        <ele>723</ele>
        <time>2021-05-28T13:41:19Z</time>
      </trkpt>
      <trkpt lat="45.56673" lon="6.71555">
        <ele>723</ele>
        <time>2021-05-28T13:41:20Z</time>
      </trkpt>
      <trkpt lat="45.56674" lon="6.71561">
        <ele>722.8</ele>
        <time>2021-05-28T13:41:21Z</time>
      </trkpt>
      <trkpt lat="45.56676" lon="6.71568">
        <ele>723.2</ele>
        <time>2021-05-28T13:41:22Z</time>
      </trkpt>
      <trkpt lat="45.56678" lon="6.71574">
        <ele>723.4</ele>
        <time>2021-05-28T13:41:23Z</time>
      </trkpt>
      <trkpt lat="45.5668" lon="6.71582">
        <ele>723.4</ele>
        <time>2021-05-28T13:41:24Z</time>
      </trkpt>
      <trkpt lat="45.56682" lon="6.71591">
        <ele>723.6</ele>
        <time>2021-05-28T13:41:25Z</time>
      </trkpt>
      <trkpt lat="45.56682" lon="6.71602">
        <ele>723.8</ele>
        <time>2021-05-28T13:41:26Z</time>
      </trkpt>
      <trkpt lat="45.56683" lon="6.71614">
        <ele>724</ele>
        <time>2021-05-28T13:41:27Z</time>
      </trkpt>
      <trkpt lat="45.56684" lon="6.71626">
        <ele>724.2</ele>
        <time>2021-05-28T13:41:28Z</time>
      </trkpt>
      <trkpt lat="45.56688" lon="6.71636">
        <ele>724.2</ele>
        <time>2021-05-28T13:41:29Z</time>
      </trkpt>
      <trkpt lat="45.56693" lon="6.71645">
        <ele>723.8</ele>
        <time>2021-05-28T13:41:30Z</time>
      </trkpt>
      <trkpt lat="45.56699" lon="6.71654">
        <ele>723.8</ele>
        <time>2021-05-28T13:41:31Z</time>
      </trkpt>
      <trkpt lat="45.56704" lon="6.71662">
        <ele>723.4</ele>
        <time>2021-05-28T13:41:32Z</time>
      </trkpt>
      <trkpt lat="45.56711" lon="6.7167">
        <ele>723.4</ele>
        <time>2021-05-28T13:41:33Z</time>
      </trkpt>
      <trkpt lat="45.56716" lon="6.71678">
        <ele>723.2</ele>
        <time>2021-05-28T13:41:34Z</time>
      </trkpt>
      <trkpt lat="45.56722" lon="6.71686">
        <ele>723</ele>
        <time>2021-05-28T13:41:35Z</time>
      </trkpt>
      <trkpt lat="45.56727" lon="6.71694">
        <ele>722.8</ele>
        <time>2021-05-28T13:41:36Z</time>
      </trkpt>
      <trkpt lat="45.56732" lon="6.71702">
        <ele>722.6</ele>
        <time>2021-05-28T13:41:37Z</time>
      </trkpt>
      <trkpt lat="45.56737" lon="6.71709">
        <ele>722.6</ele>
        <time>2021-05-28T13:41:38Z</time>
      </trkpt>
      <trkpt lat="45.56743" lon="6.71718">
        <ele>723.2</ele>
        <time>2021-05-28T13:41:39Z</time>
      </trkpt>
      <trkpt lat="45.56749" lon="6.71727">
        <ele>723.6</ele>
        <time>2021-05-28T13:41:40Z</time>
      </trkpt>
      <trkpt lat="45.56754" lon="6.71734">
        <ele>723.6</ele>
        <time>2021-05-28T13:41:41Z</time>
      </trkpt>
      <trkpt lat="45.56759" lon="6.71741">
        <ele>723.8</ele>
        <time>2021-05-28T13:41:42Z</time>
      </trkpt>
      <trkpt lat="45.56764" lon="6.71748">
        <ele>724</ele>
        <time>2021-05-28T13:41:43Z</time>
      </trkpt>
      <trkpt lat="45.56768" lon="6.71755">
        <ele>723.8</ele>
        <time>2021-05-28T13:41:44Z</time>
      </trkpt>
      <trkpt lat="45.56773" lon="6.71762">
        <ele>723.8</ele>
        <time>2021-05-28T13:41:45Z</time>
      </trkpt>
      <trkpt lat="45.56778" lon="6.71769">
        <ele>723.8</ele>
        <time>2021-05-28T13:41:46Z</time>
      </trkpt>
      <trkpt lat="45.56782" lon="6.71776">
        <ele>724</ele>
        <time>2021-05-28T13:41:47Z</time>
      </trkpt>
      <trkpt lat="45.56787" lon="6.71784">
        <ele>724</ele>
        <time>2021-05-28T13:41:48Z</time>
      </trkpt>
      <trkpt lat="45.56792" lon="6.71793">
        <ele>724.2</ele>
        <time>2021-05-28T13:41:49Z</time>
      </trkpt>
      <trkpt lat="45.56796" lon="6.71802">
        <ele>724.2</ele>
        <time>2021-05-28T13:41:50Z</time>
      </trkpt>
      <trkpt lat="45.56797" lon="6.7181">
        <ele>724</ele>
        <time>2021-05-28T13:41:51Z</time>
      </trkpt>
      <trkpt lat="45.56799" lon="6.71819">
        <ele>724.2</ele>
        <time>2021-05-28T13:41:52Z</time>
      </trkpt>
      <trkpt lat="45.56801" lon="6.71831">
        <ele>724.2</ele>
        <time>2021-05-28T13:41:53Z</time>
      </trkpt>
      <trkpt lat="45.56802" lon="6.71841">
        <ele>724.4</ele>
        <time>2021-05-28T13:41:54Z</time>
      </trkpt>
      <trkpt lat="45.56803" lon="6.71852">
        <ele>724</ele>
        <time>2021-05-28T13:41:55Z</time>
      </trkpt>
      <trkpt lat="45.56805" lon="6.71862">
        <ele>724</ele>
        <time>2021-05-28T13:41:56Z</time>
      </trkpt>
      <trkpt lat="45.56806" lon="6.71872">
        <ele>724</ele>
        <time>2021-05-28T13:41:57Z</time>
      </trkpt>
      <trkpt lat="45.56809" lon="6.71882">
        <ele>723.6</ele>
        <time>2021-05-28T13:41:58Z</time>
      </trkpt>
      <trkpt lat="45.56812" lon="6.71892">
        <ele>723.4</ele>
        <time>2021-05-28T13:41:59Z</time>
      </trkpt>
      <trkpt lat="45.56813" lon="6.719">
        <ele>723.2</ele>
        <time>2021-05-28T13:42:00Z</time>
      </trkpt>
      <trkpt lat="45.56816" lon="6.71912">
        <ele>723.2</ele>
        <time>2021-05-28T13:42:01Z</time>
      </trkpt>
      <trkpt lat="45.56817" lon="6.71922">
        <ele>723</ele>
        <time>2021-05-28T13:42:02Z</time>
      </trkpt>
      <trkpt lat="45.56818" lon="6.7193">
        <ele>723.2</ele>
        <time>2021-05-28T13:42:03Z</time>
      </trkpt>
      <trkpt lat="45.56818" lon="6.71943">
        <ele>723.4</ele>
        <time>2021-05-28T13:42:04Z</time>
      </trkpt>
      <trkpt lat="45.56817" lon="6.71952">
        <ele>723.8</ele>
        <time>2021-05-28T13:42:05Z</time>
      </trkpt>
      <trkpt lat="45.56817" lon="6.71962">
        <ele>723.8</ele>
        <time>2021-05-28T13:42:06Z</time>
      </trkpt>
      <trkpt lat="45.56817" lon="6.71972">
        <ele>724</ele>
        <time>2021-05-28T13:42:07Z</time>
      </trkpt>
      <trkpt lat="45.56816" lon="6.71982">
        <ele>724.2</ele>
        <time>2021-05-28T13:42:08Z</time>
      </trkpt>
      <trkpt lat="45.56817" lon="6.71993">
        <ele>724.2</ele>
        <time>2021-05-28T13:42:09Z</time>
      </trkpt>
      <trkpt lat="45.56816" lon="6.72002">
        <ele>724.4</ele>
        <time>2021-05-28T13:42:10Z</time>
      </trkpt>
      <trkpt lat="45.56816" lon="6.72016">
        <ele>724.4</ele>
        <time>2021-05-28T13:42:11Z</time>
      </trkpt>
      <trkpt lat="45.56815" lon="6.72027">
        <ele>724.4</ele>
        <time>2021-05-28T13:42:12Z</time>
      </trkpt>
      <trkpt lat="45.56814" lon="6.72038">
        <ele>724.4</ele>
        <time>2021-05-28T13:42:13Z</time>
      </trkpt>
      <trkpt lat="45.56812" lon="6.72048">
        <ele>724.4</ele>
        <time>2021-05-28T13:42:14Z</time>
      </trkpt>
      <trkpt lat="45.56811" lon="6.72058">
        <ele>724.8</ele>
        <time>2021-05-28T13:42:15Z</time>
      </trkpt>
      <trkpt lat="45.56809" lon="6.72068">
        <ele>725</ele>
        <time>2021-05-28T13:42:16Z</time>
      </trkpt>
      <trkpt lat="45.56807" lon="6.72079">
        <ele>725.2</ele>
        <time>2021-05-28T13:42:17Z</time>
      </trkpt>
      <trkpt lat="45.56806" lon="6.72091">
        <ele>725.2</ele>
        <time>2021-05-28T13:42:18Z</time>
      </trkpt>
      <trkpt lat="45.56805" lon="6.72102">
        <ele>725.2</ele>
        <time>2021-05-28T13:42:19Z</time>
      </trkpt>
      <trkpt lat="45.56805" lon="6.72113">
        <ele>725.2</ele>
        <time>2021-05-28T13:42:20Z</time>
      </trkpt>
      <trkpt lat="45.56805" lon="6.72124">
        <ele>725.2</ele>
        <time>2021-05-28T13:42:21Z</time>
      </trkpt>
      <trkpt lat="45.56806" lon="6.72136">
        <ele>725.4</ele>
        <time>2021-05-28T13:42:22Z</time>
      </trkpt>
      <trkpt lat="45.56807" lon="6.72148">
        <ele>725.6</ele>
        <time>2021-05-28T13:42:23Z</time>
      </trkpt>
      <trkpt lat="45.56808" lon="6.72159">
        <ele>725.6</ele>
        <time>2021-05-28T13:42:24Z</time>
      </trkpt>
      <trkpt lat="45.5681" lon="6.7217">
        <ele>725.6</ele>
        <time>2021-05-28T13:42:25Z</time>
      </trkpt>
      <trkpt lat="45.56811" lon="6.72181">
        <ele>725.4</ele>
        <time>2021-05-28T13:42:26Z</time>
      </trkpt>
      <trkpt lat="45.56812" lon="6.7219">
        <ele>725.6</ele>
        <time>2021-05-28T13:42:27Z</time>
      </trkpt>
      <trkpt lat="45.56814" lon="6.72202">
        <ele>725.6</ele>
        <time>2021-05-28T13:42:28Z</time>
      </trkpt>
      <trkpt lat="45.56815" lon="6.72213">
        <ele>725.8</ele>
        <time>2021-05-28T13:42:29Z</time>
      </trkpt>
      <trkpt lat="45.56817" lon="6.72223">
        <ele>726</ele>
        <time>2021-05-28T13:42:30Z</time>
      </trkpt>
      <trkpt lat="45.56819" lon="6.72231">
        <ele>726.2</ele>
        <time>2021-05-28T13:42:31Z</time>
      </trkpt>
      <trkpt lat="45.56822" lon="6.72244">
        <ele>726.6</ele>
        <time>2021-05-28T13:42:32Z</time>
      </trkpt>
      <trkpt lat="45.56824" lon="6.72252">
        <ele>726.6</ele>
        <time>2021-05-28T13:42:33Z</time>
      </trkpt>
      <trkpt lat="45.56828" lon="6.72263">
        <ele>726.8</ele>
        <time>2021-05-28T13:42:34Z</time>
      </trkpt>
      <trkpt lat="45.5683" lon="6.72272">
        <ele>727</ele>
        <time>2021-05-28T13:42:35Z</time>
      </trkpt>
      <trkpt lat="45.56834" lon="6.72282">
        <ele>727.4</ele>
        <time>2021-05-28T13:42:36Z</time>
      </trkpt>
      <trkpt lat="45.56837" lon="6.72292">
        <ele>727.4</ele>
        <time>2021-05-28T13:42:37Z</time>
      </trkpt>
      <trkpt lat="45.56841" lon="6.72301">
        <ele>727.4</ele>
        <time>2021-05-28T13:42:38Z</time>
      </trkpt>
      <trkpt lat="45.56844" lon="6.72307">
        <ele>727.2</ele>
        <time>2021-05-28T13:42:39Z</time>
      </trkpt>
      <trkpt lat="45.56849" lon="6.72317">
        <ele>727.4</ele>
        <time>2021-05-28T13:42:40Z</time>
      </trkpt>
      <trkpt lat="45.56853" lon="6.72324">
        <ele>727.8</ele>
        <time>2021-05-28T13:42:41Z</time>
      </trkpt>
      <trkpt lat="45.56857" lon="6.72331">
        <ele>727.8</ele>
        <time>2021-05-28T13:42:42Z</time>
      </trkpt>
      <trkpt lat="45.56861" lon="6.72335">
        <ele>728</ele>
        <time>2021-05-28T13:42:43Z</time>
      </trkpt>
      <trkpt lat="45.56868" lon="6.72339">
        <ele>728.2</ele>
        <time>2021-05-28T13:42:44Z</time>
      </trkpt>
      <trkpt lat="45.56873" lon="6.72341">
        <ele>728.4</ele>
        <time>2021-05-28T13:42:45Z</time>
      </trkpt>
      <trkpt lat="45.5688" lon="6.72345">
        <ele>728.6</ele>
        <time>2021-05-28T13:42:46Z</time>
      </trkpt>
      <trkpt lat="45.56889" lon="6.72348">
        <ele>729</ele>
        <time>2021-05-28T13:42:47Z</time>
      </trkpt>
      <trkpt lat="45.56896" lon="6.72352">
        <ele>729.2</ele>
        <time>2021-05-28T13:42:48Z</time>
      </trkpt>
      <trkpt lat="45.56903" lon="6.72356">
        <ele>729.6</ele>
        <time>2021-05-28T13:42:49Z</time>
      </trkpt>
      <trkpt lat="45.56909" lon="6.72358">
        <ele>729.8</ele>
        <time>2021-05-28T13:42:50Z</time>
      </trkpt>
      <trkpt lat="45.56915" lon="6.72361">
        <ele>730.4</ele>
        <time>2021-05-28T13:42:51Z</time>
      </trkpt>
      <trkpt lat="45.56921" lon="6.72364">
        <ele>730.6</ele>
        <time>2021-05-28T13:42:52Z</time>
      </trkpt>
      <trkpt lat="45.56926" lon="6.72366">
        <ele>730.6</ele>
        <time>2021-05-28T13:42:53Z</time>
      </trkpt>
      <trkpt lat="45.56934" lon="6.7237">
        <ele>730.4</ele>
        <time>2021-05-28T13:42:54Z</time>
      </trkpt>
      <trkpt lat="45.5694" lon="6.72375">
        <ele>730.2</ele>
        <time>2021-05-28T13:42:55Z</time>
      </trkpt>
      <trkpt lat="45.56947" lon="6.72379">
        <ele>729.8</ele>
        <time>2021-05-28T13:42:56Z</time>
      </trkpt>
      <trkpt lat="45.56954" lon="6.72385">
        <ele>729.8</ele>
        <time>2021-05-28T13:42:57Z</time>
      </trkpt>
      <trkpt lat="45.5696" lon="6.72391">
        <ele>729.2</ele>
        <time>2021-05-28T13:42:58Z</time>
      </trkpt>
      <trkpt lat="45.56966" lon="6.72395">
        <ele>729.4</ele>
        <time>2021-05-28T13:42:59Z</time>
      </trkpt>
      <trkpt lat="45.56972" lon="6.724">
        <ele>728.8</ele>
        <time>2021-05-28T13:43:00Z</time>
      </trkpt>
      <trkpt lat="45.56976" lon="6.72404">
        <ele>728.4</ele>
        <time>2021-05-28T13:43:01Z</time>
      </trkpt>
      <trkpt lat="45.56983" lon="6.72408">
        <ele>728.2</ele>
        <time>2021-05-28T13:43:02Z</time>
      </trkpt>
      <trkpt lat="45.5699" lon="6.72414">
        <ele>728.2</ele>
        <time>2021-05-28T13:43:03Z</time>
      </trkpt>
      <trkpt lat="45.56996" lon="6.7242">
        <ele>728.2</ele>
        <time>2021-05-28T13:43:04Z</time>
      </trkpt>
      <trkpt lat="45.57002" lon="6.72427">
        <ele>728.2</ele>
        <time>2021-05-28T13:43:05Z</time>
      </trkpt>
      <trkpt lat="45.57009" lon="6.72433">
        <ele>728.2</ele>
        <time>2021-05-28T13:43:06Z</time>
      </trkpt>
      <trkpt lat="45.57016" lon="6.72439">
        <ele>727.6</ele>
        <time>2021-05-28T13:43:07Z</time>
      </trkpt>
      <trkpt lat="45.57023" lon="6.72446">
        <ele>727.2</ele>
        <time>2021-05-28T13:43:08Z</time>
      </trkpt>
      <trkpt lat="45.5703" lon="6.72452">
        <ele>727.2</ele>
        <time>2021-05-28T13:43:09Z</time>
      </trkpt>
      <trkpt lat="45.57037" lon="6.72458">
        <ele>727.2</ele>
        <time>2021-05-28T13:43:10Z</time>
      </trkpt>
      <trkpt lat="45.57044" lon="6.72463">
        <ele>726.8</ele>
        <time>2021-05-28T13:43:11Z</time>
      </trkpt>
      <trkpt lat="45.5705" lon="6.72469">
        <ele>726.6</ele>
        <time>2021-05-28T13:43:12Z</time>
      </trkpt>
      <trkpt lat="45.57056" lon="6.72474">
        <ele>726.4</ele>
        <time>2021-05-28T13:43:13Z</time>
      </trkpt>
      <trkpt lat="45.57062" lon="6.7248">
        <ele>726.2</ele>
        <time>2021-05-28T13:43:14Z</time>
      </trkpt>
      <trkpt lat="45.57068" lon="6.72486">
        <ele>726.2</ele>
        <time>2021-05-28T13:43:15Z</time>
      </trkpt>
      <trkpt lat="45.57072" lon="6.72492">
        <ele>726.4</ele>
        <time>2021-05-28T13:43:16Z</time>
      </trkpt>
      <trkpt lat="45.57076" lon="6.72501">
        <ele>726.2</ele>
        <time>2021-05-28T13:43:17Z</time>
      </trkpt>
      <trkpt lat="45.57079" lon="6.7251">
        <ele>726.2</ele>
        <time>2021-05-28T13:43:18Z</time>
      </trkpt>
      <trkpt lat="45.57083" lon="6.72518">
        <ele>726.2</ele>
        <time>2021-05-28T13:43:19Z</time>
      </trkpt>
      <trkpt lat="45.57087" lon="6.72525">
        <ele>726.2</ele>
        <time>2021-05-28T13:43:20Z</time>
      </trkpt>
      <trkpt lat="45.57092" lon="6.72532">
        <ele>726</ele>
        <time>2021-05-28T13:43:21Z</time>
      </trkpt>
      <trkpt lat="45.57097" lon="6.72539">
        <ele>726.2</ele>
        <time>2021-05-28T13:43:22Z</time>
      </trkpt>
      <trkpt lat="45.57102" lon="6.72546">
        <ele>726.2</ele>
        <time>2021-05-28T13:43:23Z</time>
      </trkpt>
      <trkpt lat="45.57107" lon="6.72552">
        <ele>726.6</ele>
        <time>2021-05-28T13:43:24Z</time>
      </trkpt>
      <trkpt lat="45.57113" lon="6.72558">
        <ele>726.8</ele>
        <time>2021-05-28T13:43:25Z</time>
      </trkpt>
      <trkpt lat="45.57118" lon="6.72563">
        <ele>726.8</ele>
        <time>2021-05-28T13:43:26Z</time>
      </trkpt>
      <trkpt lat="45.57124" lon="6.72568">
        <ele>727.2</ele>
        <time>2021-05-28T13:43:27Z</time>
      </trkpt>
      <trkpt lat="45.5713" lon="6.72571">
        <ele>727</ele>
        <time>2021-05-28T13:43:28Z</time>
      </trkpt>
      <trkpt lat="45.57136" lon="6.72575">
        <ele>727.2</ele>
        <time>2021-05-28T13:43:29Z</time>
      </trkpt>
      <trkpt lat="45.57143" lon="6.72578">
        <ele>727</ele>
        <time>2021-05-28T13:43:30Z</time>
      </trkpt>
      <trkpt lat="45.57149" lon="6.72583">
        <ele>727.4</ele>
        <time>2021-05-28T13:43:31Z</time>
      </trkpt>
      <trkpt lat="45.57155" lon="6.72588">
        <ele>727.2</ele>
        <time>2021-05-28T13:43:32Z</time>
      </trkpt>
      <trkpt lat="45.5716" lon="6.72595">
        <ele>727.4</ele>
        <time>2021-05-28T13:43:33Z</time>
      </trkpt>
      <trkpt lat="45.57164" lon="6.72605">
        <ele>727.6</ele>
        <time>2021-05-28T13:43:34Z</time>
      </trkpt>
      <trkpt lat="45.57167" lon="6.72614">
        <ele>727.8</ele>
        <time>2021-05-28T13:43:35Z</time>
      </trkpt>
      <trkpt lat="45.5717" lon="6.72623">
        <ele>728</ele>
        <time>2021-05-28T13:43:36Z</time>
      </trkpt>
      <trkpt lat="45.57173" lon="6.72632">
        <ele>728.2</ele>
        <time>2021-05-28T13:43:37Z</time>
      </trkpt>
      <trkpt lat="45.57176" lon="6.72641">
        <ele>728.6</ele>
        <time>2021-05-28T13:43:38Z</time>
      </trkpt>
      <trkpt lat="45.5718" lon="6.72649">
        <ele>728.8</ele>
        <time>2021-05-28T13:43:39Z</time>
      </trkpt>
      <trkpt lat="45.57184" lon="6.72658">
        <ele>729.2</ele>
        <time>2021-05-28T13:43:40Z</time>
      </trkpt>
      <trkpt lat="45.57188" lon="6.72665">
        <ele>729.4</ele>
        <time>2021-05-28T13:43:41Z</time>
      </trkpt>
      <trkpt lat="45.57193" lon="6.72672">
        <ele>729.8</ele>
        <time>2021-05-28T13:43:42Z</time>
      </trkpt>
      <trkpt lat="45.57198" lon="6.72679">
        <ele>730.2</ele>
        <time>2021-05-28T13:43:43Z</time>
      </trkpt>
      <trkpt lat="45.57204" lon="6.72686">
        <ele>730.2</ele>
        <time>2021-05-28T13:43:44Z</time>
      </trkpt>
      <trkpt lat="45.57209" lon="6.72692">
        <ele>730.4</ele>
        <time>2021-05-28T13:43:45Z</time>
      </trkpt>
      <trkpt lat="45.57214" lon="6.727">
        <ele>730.6</ele>
        <time>2021-05-28T13:43:46Z</time>
      </trkpt>
      <trkpt lat="45.57219" lon="6.72708">
        <ele>730.8</ele>
        <time>2021-05-28T13:43:47Z</time>
      </trkpt>
      <trkpt lat="45.57223" lon="6.72716">
        <ele>731</ele>
        <time>2021-05-28T13:43:48Z</time>
      </trkpt>
      <trkpt lat="45.57228" lon="6.72725">
        <ele>731</ele>
        <time>2021-05-28T13:43:49Z</time>
      </trkpt>
      <trkpt lat="45.57232" lon="6.72734">
        <ele>731</ele>
        <time>2021-05-28T13:43:50Z</time>
      </trkpt>
      <trkpt lat="45.57236" lon="6.72742">
        <ele>730.8</ele>
        <time>2021-05-28T13:43:51Z</time>
      </trkpt>
      <trkpt lat="45.57241" lon="6.7275">
        <ele>731</ele>
        <time>2021-05-28T13:43:52Z</time>
      </trkpt>
      <trkpt lat="45.57246" lon="6.72758">
        <ele>730.8</ele>
        <time>2021-05-28T13:43:53Z</time>
      </trkpt>
      <trkpt lat="45.57251" lon="6.72765">
        <ele>731.2</ele>
        <time>2021-05-28T13:43:54Z</time>
      </trkpt>
      <trkpt lat="45.57256" lon="6.72772">
        <ele>731.4</ele>
        <time>2021-05-28T13:43:55Z</time>
      </trkpt>
      <trkpt lat="45.57262" lon="6.72779">
        <ele>731.2</ele>
        <time>2021-05-28T13:43:56Z</time>
      </trkpt>
      <trkpt lat="45.57268" lon="6.72785">
        <ele>731.6</ele>
        <time>2021-05-28T13:43:57Z</time>
      </trkpt>
      <trkpt lat="45.57274" lon="6.72791">
        <ele>731.8</ele>
        <time>2021-05-28T13:43:58Z</time>
      </trkpt>
      <trkpt lat="45.5728" lon="6.72796">
        <ele>732</ele>
        <time>2021-05-28T13:43:59Z</time>
      </trkpt>
      <trkpt lat="45.57287" lon="6.728">
        <ele>732.4</ele>
        <time>2021-05-28T13:44:00Z</time>
      </trkpt>
      <trkpt lat="45.57294" lon="6.72804">
        <ele>732.6</ele>
        <time>2021-05-28T13:44:01Z</time>
      </trkpt>
      <trkpt lat="45.573" lon="6.72808">
        <ele>733</ele>
        <time>2021-05-28T13:44:02Z</time>
      </trkpt>
      <trkpt lat="45.57308" lon="6.72811">
        <ele>733.2</ele>
        <time>2021-05-28T13:44:03Z</time>
      </trkpt>
      <trkpt lat="45.57315" lon="6.72814">
        <ele>733.6</ele>
        <time>2021-05-28T13:44:04Z</time>
      </trkpt>
      <trkpt lat="45.57322" lon="6.72817">
        <ele>734.2</ele>
        <time>2021-05-28T13:44:05Z</time>
      </trkpt>
      <trkpt lat="45.57329" lon="6.72821">
        <ele>734.8</ele>
        <time>2021-05-28T13:44:06Z</time>
      </trkpt>
      <trkpt lat="45.57336" lon="6.72824">
        <ele>735.2</ele>
        <time>2021-05-28T13:44:07Z</time>
      </trkpt>
      <trkpt lat="45.57343" lon="6.72827">
        <ele>735.2</ele>
        <time>2021-05-28T13:44:08Z</time>
      </trkpt>
      <trkpt lat="45.5735" lon="6.7283">
        <ele>735</ele>
        <time>2021-05-28T13:44:09Z</time>
      </trkpt>
      <trkpt lat="45.57357" lon="6.72834">
        <ele>735.2</ele>
        <time>2021-05-28T13:44:10Z</time>
      </trkpt>
      <trkpt lat="45.57365" lon="6.72837">
        <ele>735.2</ele>
        <time>2021-05-28T13:44:11Z</time>
      </trkpt>
      <trkpt lat="45.57372" lon="6.72841">
        <ele>735.4</ele>
        <time>2021-05-28T13:44:12Z</time>
      </trkpt>
      <trkpt lat="45.57379" lon="6.72844">
        <ele>735.4</ele>
        <time>2021-05-28T13:44:13Z</time>
      </trkpt>
      <trkpt lat="45.57386" lon="6.72848">
        <ele>735.6</ele>
        <time>2021-05-28T13:44:14Z</time>
      </trkpt>
      <trkpt lat="45.57393" lon="6.72853">
        <ele>735.2</ele>
        <time>2021-05-28T13:44:15Z</time>
      </trkpt>
      <trkpt lat="45.57399" lon="6.72858">
        <ele>735.2</ele>
        <time>2021-05-28T13:44:16Z</time>
      </trkpt>
      <trkpt lat="45.57406" lon="6.72864">
        <ele>735.2</ele>
        <time>2021-05-28T13:44:17Z</time>
      </trkpt>
      <trkpt lat="45.57411" lon="6.72872">
        <ele>735</ele>
        <time>2021-05-28T13:44:18Z</time>
      </trkpt>
      <trkpt lat="45.57415" lon="6.72881">
        <ele>734.6</ele>
        <time>2021-05-28T13:44:19Z</time>
      </trkpt>
      <trkpt lat="45.57418" lon="6.7289">
        <ele>734.6</ele>
        <time>2021-05-28T13:44:20Z</time>
      </trkpt>
      <trkpt lat="45.5742" lon="6.729">
        <ele>734.4</ele>
        <time>2021-05-28T13:44:21Z</time>
      </trkpt>
      <trkpt lat="45.5742" lon="6.7291">
        <ele>734.4</ele>
        <time>2021-05-28T13:44:22Z</time>
      </trkpt>
      <trkpt lat="45.5742" lon="6.72921">
        <ele>734.2</ele>
        <time>2021-05-28T13:44:23Z</time>
      </trkpt>
      <trkpt lat="45.5742" lon="6.72931">
        <ele>734</ele>
        <time>2021-05-28T13:44:24Z</time>
      </trkpt>
      <trkpt lat="45.57419" lon="6.72941">
        <ele>734</ele>
        <time>2021-05-28T13:44:25Z</time>
      </trkpt>
      <trkpt lat="45.57418" lon="6.7295">
        <ele>734</ele>
        <time>2021-05-28T13:44:26Z</time>
      </trkpt>
      <trkpt lat="45.57417" lon="6.72959">
        <ele>734.2</ele>
        <time>2021-05-28T13:44:27Z</time>
      </trkpt>
      <trkpt lat="45.57415" lon="6.72968">
        <ele>734.4</ele>
        <time>2021-05-28T13:44:28Z</time>
      </trkpt>
      <trkpt lat="45.57413" lon="6.72977">
        <ele>734.6</ele>
        <time>2021-05-28T13:44:29Z</time>
      </trkpt>
      <trkpt lat="45.57413" lon="6.72987">
        <ele>734.6</ele>
        <time>2021-05-28T13:44:30Z</time>
      </trkpt>
      <trkpt lat="45.57413" lon="6.72997">
        <ele>735</ele>
        <time>2021-05-28T13:44:31Z</time>
      </trkpt>
      <trkpt lat="45.57414" lon="6.73007">
        <ele>735.2</ele>
        <time>2021-05-28T13:44:32Z</time>
      </trkpt>
      <trkpt lat="45.57415" lon="6.73017">
        <ele>735</ele>
        <time>2021-05-28T13:44:33Z</time>
      </trkpt>
      <trkpt lat="45.57417" lon="6.73028">
        <ele>735</ele>
        <time>2021-05-28T13:44:34Z</time>
      </trkpt>
      <trkpt lat="45.57419" lon="6.73038">
        <ele>734.8</ele>
        <time>2021-05-28T13:44:35Z</time>
      </trkpt>
      <trkpt lat="45.5742" lon="6.73048">
        <ele>734.6</ele>
        <time>2021-05-28T13:44:36Z</time>
      </trkpt>
      <trkpt lat="45.57423" lon="6.73058">
        <ele>734.6</ele>
        <time>2021-05-28T13:44:37Z</time>
      </trkpt>
      <trkpt lat="45.57425" lon="6.73068">
        <ele>734.8</ele>
        <time>2021-05-28T13:44:38Z</time>
      </trkpt>
      <trkpt lat="45.57428" lon="6.73078">
        <ele>735</ele>
        <time>2021-05-28T13:44:39Z</time>
      </trkpt>
      <trkpt lat="45.57431" lon="6.73088">
        <ele>735.4</ele>
        <time>2021-05-28T13:44:40Z</time>
      </trkpt>
      <trkpt lat="45.57434" lon="6.73098">
        <ele>735.6</ele>
        <time>2021-05-28T13:44:41Z</time>
      </trkpt>
      <trkpt lat="45.57437" lon="6.73108">
        <ele>736</ele>
        <time>2021-05-28T13:44:42Z</time>
      </trkpt>
      <trkpt lat="45.5744" lon="6.73118">
        <ele>736</ele>
        <time>2021-05-28T13:44:43Z</time>
      </trkpt>
      <trkpt lat="45.57443" lon="6.73128">
        <ele>736.2</ele>
        <time>2021-05-28T13:44:44Z</time>
      </trkpt>
      <trkpt lat="45.57446" lon="6.73137">
        <ele>736</ele>
        <time>2021-05-28T13:44:45Z</time>
      </trkpt>
      <trkpt lat="45.5745" lon="6.73146">
        <ele>735.8</ele>
        <time>2021-05-28T13:44:46Z</time>
      </trkpt>
      <trkpt lat="45.57454" lon="6.73155">
        <ele>735.6</ele>
        <time>2021-05-28T13:44:47Z</time>
      </trkpt>
      <trkpt lat="45.57459" lon="6.73163">
        <ele>735.4</ele>
        <time>2021-05-28T13:44:48Z</time>
      </trkpt>
      <trkpt lat="45.57464" lon="6.73171">
        <ele>735.6</ele>
        <time>2021-05-28T13:44:49Z</time>
      </trkpt>
      <trkpt lat="45.57469" lon="6.73178">
        <ele>735.8</ele>
        <time>2021-05-28T13:44:50Z</time>
      </trkpt>
      <trkpt lat="45.57475" lon="6.73185">
        <ele>736</ele>
        <time>2021-05-28T13:44:51Z</time>
      </trkpt>
      <trkpt lat="45.5748" lon="6.73192">
        <ele>736.2</ele>
        <time>2021-05-28T13:44:52Z</time>
      </trkpt>
      <trkpt lat="45.57486" lon="6.73198">
        <ele>736.6</ele>
        <time>2021-05-28T13:44:53Z</time>
      </trkpt>
      <trkpt lat="45.57492" lon="6.73203">
        <ele>736.6</ele>
        <time>2021-05-28T13:44:54Z</time>
      </trkpt>
      <trkpt lat="45.57499" lon="6.73207">
        <ele>736.6</ele>
        <time>2021-05-28T13:44:55Z</time>
      </trkpt>
      <trkpt lat="45.57505" lon="6.73212">
        <ele>736.8</ele>
        <time>2021-05-28T13:44:56Z</time>
      </trkpt>
      <trkpt lat="45.57512" lon="6.73217">
        <ele>736.8</ele>
        <time>2021-05-28T13:44:57Z</time>
      </trkpt>
      <trkpt lat="45.57518" lon="6.73222">
        <ele>737.2</ele>
        <time>2021-05-28T13:44:58Z</time>
      </trkpt>
      <trkpt lat="45.57524" lon="6.73227">
        <ele>737.6</ele>
        <time>2021-05-28T13:44:59Z</time>
      </trkpt>
      <trkpt lat="45.57531" lon="6.73232">
        <ele>737.4</ele>
        <time>2021-05-28T13:45:00Z</time>
      </trkpt>
      <trkpt lat="45.57538" lon="6.73238">
        <ele>737.6</ele>
        <time>2021-05-28T13:45:01Z</time>
      </trkpt>
      <trkpt lat="45.57545" lon="6.73242">
        <ele>738</ele>
        <time>2021-05-28T13:45:02Z</time>
      </trkpt>
      <trkpt lat="45.57551" lon="6.73247">
        <ele>738.2</ele>
        <time>2021-05-28T13:45:03Z</time>
      </trkpt>
      <trkpt lat="45.57557" lon="6.73252">
        <ele>738.4</ele>
        <time>2021-05-28T13:45:04Z</time>
      </trkpt>
      <trkpt lat="45.57564" lon="6.73256">
        <ele>738.4</ele>
        <time>2021-05-28T13:45:05Z</time>
      </trkpt>
      <trkpt lat="45.57571" lon="6.73262">
        <ele>738.4</ele>
        <time>2021-05-28T13:45:06Z</time>
      </trkpt>
      <trkpt lat="45.57578" lon="6.73267">
        <ele>738.4</ele>
        <time>2021-05-28T13:45:07Z</time>
      </trkpt>
      <trkpt lat="45.57583" lon="6.73273">
        <ele>738.6</ele>
        <time>2021-05-28T13:45:08Z</time>
      </trkpt>
      <trkpt lat="45.57589" lon="6.7328">
        <ele>738.8</ele>
        <time>2021-05-28T13:45:09Z</time>
      </trkpt>
      <trkpt lat="45.57595" lon="6.73287">
        <ele>738.8</ele>
        <time>2021-05-28T13:45:10Z</time>
      </trkpt>
      <trkpt lat="45.576" lon="6.73294">
        <ele>739</ele>
        <time>2021-05-28T13:45:11Z</time>
      </trkpt>
      <trkpt lat="45.57606" lon="6.73301">
        <ele>739</ele>
        <time>2021-05-28T13:45:12Z</time>
      </trkpt>
      <trkpt lat="45.57612" lon="6.73308">
        <ele>739.2</ele>
        <time>2021-05-28T13:45:13Z</time>
      </trkpt>
      <trkpt lat="45.57618" lon="6.73315">
        <ele>739.6</ele>
        <time>2021-05-28T13:45:14Z</time>
      </trkpt>
      <trkpt lat="45.57624" lon="6.73322">
        <ele>739.6</ele>
        <time>2021-05-28T13:45:15Z</time>
      </trkpt>
      <trkpt lat="45.57629" lon="6.73329">
        <ele>739.4</ele>
        <time>2021-05-28T13:45:16Z</time>
      </trkpt>
      <trkpt lat="45.57634" lon="6.73338">
        <ele>739.6</ele>
        <time>2021-05-28T13:45:17Z</time>
      </trkpt>
      <trkpt lat="45.57639" lon="6.73346">
        <ele>739.6</ele>
        <time>2021-05-28T13:45:18Z</time>
      </trkpt>
      <trkpt lat="45.57643" lon="6.73354">
        <ele>739.6</ele>
        <time>2021-05-28T13:45:19Z</time>
      </trkpt>
      <trkpt lat="45.57647" lon="6.73364">
        <ele>739.8</ele>
        <time>2021-05-28T13:45:20Z</time>
      </trkpt>
      <trkpt lat="45.57651" lon="6.73372">
        <ele>739.8</ele>
        <time>2021-05-28T13:45:21Z</time>
      </trkpt>
      <trkpt lat="45.57655" lon="6.7338">
        <ele>739.8</ele>
        <time>2021-05-28T13:45:22Z</time>
      </trkpt>
      <trkpt lat="45.5766" lon="6.73388">
        <ele>740</ele>
        <time>2021-05-28T13:45:23Z</time>
      </trkpt>
      <trkpt lat="45.57664" lon="6.73396">
        <ele>740</ele>
        <time>2021-05-28T13:45:24Z</time>
      </trkpt>
      <trkpt lat="45.57666" lon="6.73406">
        <ele>740</ele>
        <time>2021-05-28T13:45:25Z</time>
      </trkpt>
      <trkpt lat="45.57667" lon="6.73416">
        <ele>740.2</ele>
        <time>2021-05-28T13:45:26Z</time>
      </trkpt>
      <trkpt lat="45.57667" lon="6.73426">
        <ele>740.6</ele>
        <time>2021-05-28T13:45:27Z</time>
      </trkpt>
      <trkpt lat="45.57666" lon="6.73436">
        <ele>740.6</ele>
        <time>2021-05-28T13:45:28Z</time>
      </trkpt>
      <trkpt lat="45.57665" lon="6.73446">
        <ele>740.8</ele>
        <time>2021-05-28T13:45:29Z</time>
      </trkpt>
      <trkpt lat="45.57665" lon="6.73456">
        <ele>741.2</ele>
        <time>2021-05-28T13:45:30Z</time>
      </trkpt>
      <trkpt lat="45.57665" lon="6.73466">
        <ele>741.4</ele>
        <time>2021-05-28T13:45:31Z</time>
      </trkpt>
      <trkpt lat="45.57666" lon="6.73476">
        <ele>741.4</ele>
        <time>2021-05-28T13:45:32Z</time>
      </trkpt>
      <trkpt lat="45.57668" lon="6.73486">
        <ele>741.8</ele>
        <time>2021-05-28T13:45:33Z</time>
      </trkpt>
      <trkpt lat="45.5767" lon="6.73495">
        <ele>741.8</ele>
        <time>2021-05-28T13:45:34Z</time>
      </trkpt>
      <trkpt lat="45.57673" lon="6.73504">
        <ele>742.2</ele>
        <time>2021-05-28T13:45:35Z</time>
      </trkpt>
      <trkpt lat="45.57676" lon="6.73512">
        <ele>742.2</ele>
        <time>2021-05-28T13:45:36Z</time>
      </trkpt>
      <trkpt lat="45.57681" lon="6.7352">
        <ele>742</ele>
        <time>2021-05-28T13:45:37Z</time>
      </trkpt>
      <trkpt lat="45.57684" lon="6.7353">
        <ele>741.8</ele>
        <time>2021-05-28T13:45:38Z</time>
      </trkpt>
      <trkpt lat="45.57688" lon="6.73538">
        <ele>741.8</ele>
        <time>2021-05-28T13:45:39Z</time>
      </trkpt>
      <trkpt lat="45.57692" lon="6.73547">
        <ele>741.8</ele>
        <time>2021-05-28T13:45:40Z</time>
      </trkpt>
      <trkpt lat="45.57695" lon="6.73556">
        <ele>742</ele>
        <time>2021-05-28T13:45:41Z</time>
      </trkpt>
      <trkpt lat="45.57697" lon="6.73566">
        <ele>742</ele>
        <time>2021-05-28T13:45:42Z</time>
      </trkpt>
      <trkpt lat="45.577" lon="6.73575">
        <ele>741.6</ele>
        <time>2021-05-28T13:45:43Z</time>
      </trkpt>
      <trkpt lat="45.57703" lon="6.73585">
        <ele>741.8</ele>
        <time>2021-05-28T13:45:44Z</time>
      </trkpt>
      <trkpt lat="45.57704" lon="6.73595">
        <ele>742</ele>
        <time>2021-05-28T13:45:45Z</time>
      </trkpt>
      <trkpt lat="45.57705" lon="6.73605">
        <ele>742</ele>
        <time>2021-05-28T13:45:46Z</time>
      </trkpt>
      <trkpt lat="45.57704" lon="6.73615">
        <ele>741.8</ele>
        <time>2021-05-28T13:45:47Z</time>
      </trkpt>
      <trkpt lat="45.57704" lon="6.73625">
        <ele>741.8</ele>
        <time>2021-05-28T13:45:48Z</time>
      </trkpt>
      <trkpt lat="45.57703" lon="6.73635">
        <ele>741.8</ele>
        <time>2021-05-28T13:45:49Z</time>
      </trkpt>
      <trkpt lat="45.57701" lon="6.73646">
        <ele>741.8</ele>
        <time>2021-05-28T13:45:50Z</time>
      </trkpt>
      <trkpt lat="45.577" lon="6.73656">
        <ele>741.8</ele>
        <time>2021-05-28T13:45:51Z</time>
      </trkpt>
      <trkpt lat="45.57699" lon="6.73666">
        <ele>742</ele>
        <time>2021-05-28T13:45:52Z</time>
      </trkpt>
      <trkpt lat="45.57697" lon="6.73676">
        <ele>741.8</ele>
        <time>2021-05-28T13:45:53Z</time>
      </trkpt>
      <trkpt lat="45.57695" lon="6.73686">
        <ele>741.8</ele>
        <time>2021-05-28T13:45:54Z</time>
      </trkpt>
      <trkpt lat="45.57692" lon="6.73695">
        <ele>742</ele>
        <time>2021-05-28T13:45:55Z</time>
      </trkpt>
      <trkpt lat="45.57689" lon="6.73703">
        <ele>742</ele>
        <time>2021-05-28T13:45:56Z</time>
      </trkpt>
      <trkpt lat="45.57685" lon="6.73711">
        <ele>742.2</ele>
        <time>2021-05-28T13:45:57Z</time>
      </trkpt>
      <trkpt lat="45.5768" lon="6.73717">
        <ele>742.4</ele>
        <time>2021-05-28T13:45:58Z</time>
      </trkpt>
      <trkpt lat="45.57676" lon="6.73722">
        <ele>742.6</ele>
        <time>2021-05-28T13:45:59Z</time>
      </trkpt>
      <trkpt lat="45.57673" lon="6.73728">
        <ele>742.8</ele>
        <time>2021-05-28T13:46:00Z</time>
      </trkpt>
      <trkpt lat="45.57672" lon="6.73734">
        <ele>743.4</ele>
        <time>2021-05-28T13:46:01Z</time>
      </trkpt>
      <trkpt lat="45.57673" lon="6.7374">
        <ele>743.8</ele>
        <time>2021-05-28T13:46:02Z</time>
      </trkpt>
      <trkpt lat="45.57673" lon="6.73747">
        <ele>744.2</ele>
        <time>2021-05-28T13:46:03Z</time>
      </trkpt>
      <trkpt lat="45.57673" lon="6.73753">
        <ele>744.4</ele>
        <time>2021-05-28T13:46:04Z</time>
      </trkpt>
      <trkpt lat="45.57673" lon="6.7376">
        <ele>744.6</ele>
        <time>2021-05-28T13:46:05Z</time>
      </trkpt>
      <trkpt lat="45.57671" lon="6.73766">
        <ele>744.4</ele>
        <time>2021-05-28T13:46:06Z</time>
      </trkpt>
      <trkpt lat="45.57668" lon="6.73773">
        <ele>744.4</ele>
        <time>2021-05-28T13:46:07Z</time>
      </trkpt>
      <trkpt lat="45.57665" lon="6.73778">
        <ele>744.4</ele>
        <time>2021-05-28T13:46:08Z</time>
      </trkpt>
      <trkpt lat="45.57662" lon="6.73784">
        <ele>744.2</ele>
        <time>2021-05-28T13:46:09Z</time>
      </trkpt>
      <trkpt lat="45.57661" lon="6.73791">
        <ele>744</ele>
        <time>2021-05-28T13:46:10Z</time>
      </trkpt>
      <trkpt lat="45.57658" lon="6.738">
        <ele>743.8</ele>
        <time>2021-05-28T13:46:11Z</time>
      </trkpt>
      <trkpt lat="45.57655" lon="6.73807">
        <ele>743.6</ele>
        <time>2021-05-28T13:46:12Z</time>
      </trkpt>
      <trkpt lat="45.57653" lon="6.73815">
        <ele>743.4</ele>
        <time>2021-05-28T13:46:13Z</time>
      </trkpt>
      <trkpt lat="45.57651" lon="6.73824">
        <ele>743.6</ele>
        <time>2021-05-28T13:46:14Z</time>
      </trkpt>
      <trkpt lat="45.57648" lon="6.73832">
        <ele>743.8</ele>
        <time>2021-05-28T13:46:15Z</time>
      </trkpt>
      <trkpt lat="45.57646" lon="6.73838">
        <ele>743.8</ele>
        <time>2021-05-28T13:46:16Z</time>
      </trkpt>
      <trkpt lat="45.57644" lon="6.73845">
        <ele>743.8</ele>
        <time>2021-05-28T13:46:17Z</time>
      </trkpt>
      <trkpt lat="45.57644" lon="6.7385">
        <ele>743.8</ele>
        <time>2021-05-28T13:46:18Z</time>
      </trkpt>
      <trkpt lat="45.57643" lon="6.73856">
        <ele>743.8</ele>
        <time>2021-05-28T13:46:19Z</time>
      </trkpt>
      <trkpt lat="45.57644" lon="6.73863">
        <ele>743.6</ele>
        <time>2021-05-28T13:46:20Z</time>
      </trkpt>
      <trkpt lat="45.57644" lon="6.73869">
        <ele>743.6</ele>
        <time>2021-05-28T13:46:21Z</time>
      </trkpt>
      <trkpt lat="45.57645" lon="6.73876">
        <ele>743.4</ele>
        <time>2021-05-28T13:46:22Z</time>
      </trkpt>
      <trkpt lat="45.57647" lon="6.73882">
        <ele>743.4</ele>
        <time>2021-05-28T13:46:23Z</time>
      </trkpt>
      <trkpt lat="45.57647" lon="6.73887">
        <ele>743.2</ele>
        <time>2021-05-28T13:46:24Z</time>
      </trkpt>
      <trkpt lat="45.57646" lon="6.73894">
        <ele>743.2</ele>
        <time>2021-05-28T13:46:25Z</time>
      </trkpt>
      <trkpt lat="45.57647" lon="6.73901">
        <ele>743.2</ele>
        <time>2021-05-28T13:46:26Z</time>
      </trkpt>
      <trkpt lat="45.57648" lon="6.73908">
        <ele>743.2</ele>
        <time>2021-05-28T13:46:27Z</time>
      </trkpt>
      <trkpt lat="45.57649" lon="6.73915">
        <ele>743</ele>
        <time>2021-05-28T13:46:28Z</time>
      </trkpt>
      <trkpt lat="45.57649" lon="6.73922">
        <ele>743</ele>
        <time>2021-05-28T13:46:29Z</time>
      </trkpt>
      <trkpt lat="45.57648" lon="6.73928">
        <ele>743</ele>
        <time>2021-05-28T13:46:30Z</time>
      </trkpt>
      <trkpt lat="45.57648" lon="6.73934">
        <ele>743</ele>
        <time>2021-05-28T13:46:31Z</time>
      </trkpt>
      <trkpt lat="45.57649" lon="6.73939">
        <ele>743</ele>
        <time>2021-05-28T13:46:32Z</time>
      </trkpt>
      <trkpt lat="45.5765" lon="6.73944">
        <ele>743</ele>
        <time>2021-05-28T13:46:33Z</time>
      </trkpt>
      <trkpt lat="45.5765" lon="6.73949">
        <ele>743.2</ele>
        <time>2021-05-28T13:46:34Z</time>
      </trkpt>
      <trkpt lat="45.57651" lon="6.73954">
        <ele>743.2</ele>
        <time>2021-05-28T13:46:35Z</time>
      </trkpt>
      <trkpt lat="45.57652" lon="6.73958">
        <ele>743.2</ele>
        <time>2021-05-28T13:46:36Z</time>
      </trkpt>
      <trkpt lat="45.57652" lon="6.73964">
        <ele>743.2</ele>
        <time>2021-05-28T13:46:37Z</time>
      </trkpt>
      <trkpt lat="45.57654" lon="6.73969">
        <ele>743</ele>
        <time>2021-05-28T13:46:38Z</time>
      </trkpt>
      <trkpt lat="45.57655" lon="6.73975">
        <ele>742.6</ele>
        <time>2021-05-28T13:46:39Z</time>
      </trkpt>
      <trkpt lat="45.57658" lon="6.73981">
        <ele>742.2</ele>
        <time>2021-05-28T13:46:40Z</time>
      </trkpt>
      <trkpt lat="45.57662" lon="6.73988">
        <ele>742</ele>
        <time>2021-05-28T13:46:41Z</time>
      </trkpt>
      <trkpt lat="45.57665" lon="6.73995">
        <ele>741.6</ele>
        <time>2021-05-28T13:46:42Z</time>
      </trkpt>
      <trkpt lat="45.57668" lon="6.74002">
        <ele>741.4</ele>
        <time>2021-05-28T13:46:43Z</time>
      </trkpt>
      <trkpt lat="45.5767" lon="6.7401">
        <ele>741.2</ele>
        <time>2021-05-28T13:46:44Z</time>
      </trkpt>
      <trkpt lat="45.57672" lon="6.74017">
        <ele>741</ele>
        <time>2021-05-28T13:46:45Z</time>
      </trkpt>
      <trkpt lat="45.57675" lon="6.74024">
        <ele>740.8</ele>
        <time>2021-05-28T13:46:46Z</time>
      </trkpt>
      <trkpt lat="45.57676" lon="6.74031">
        <ele>740.8</ele>
        <time>2021-05-28T13:46:47Z</time>
      </trkpt>
      <trkpt lat="45.57677" lon="6.74038">
        <ele>740.8</ele>
        <time>2021-05-28T13:46:48Z</time>
      </trkpt>
      <trkpt lat="45.57679" lon="6.74045">
        <ele>740.6</ele>
        <time>2021-05-28T13:46:49Z</time>
      </trkpt>
      <trkpt lat="45.57681" lon="6.74052">
        <ele>740.6</ele>
        <time>2021-05-28T13:46:50Z</time>
      </trkpt>
      <trkpt lat="45.57683" lon="6.74058">
        <ele>740.6</ele>
        <time>2021-05-28T13:46:51Z</time>
      </trkpt>
      <trkpt lat="45.57685" lon="6.74064">
        <ele>740.6</ele>
        <time>2021-05-28T13:46:52Z</time>
      </trkpt>
      <trkpt lat="45.57688" lon="6.74071">
        <ele>741</ele>
        <time>2021-05-28T13:46:53Z</time>
      </trkpt>
      <trkpt lat="45.57692" lon="6.74078">
        <ele>741</ele>
        <time>2021-05-28T13:46:54Z</time>
      </trkpt>
      <trkpt lat="45.57695" lon="6.74084">
        <ele>741</ele>
        <time>2021-05-28T13:46:55Z</time>
      </trkpt>
      <trkpt lat="45.577" lon="6.74091">
        <ele>741.2</ele>
        <time>2021-05-28T13:46:56Z</time>
      </trkpt>
      <trkpt lat="45.57705" lon="6.74096">
        <ele>741.2</ele>
        <time>2021-05-28T13:46:57Z</time>
      </trkpt>
      <trkpt lat="45.5771" lon="6.74101">
        <ele>741.4</ele>
        <time>2021-05-28T13:46:58Z</time>
      </trkpt>
      <trkpt lat="45.57715" lon="6.74106">
        <ele>741.6</ele>
        <time>2021-05-28T13:46:59Z</time>
      </trkpt>
      <trkpt lat="45.57721" lon="6.7411">
        <ele>741.8</ele>
        <time>2021-05-28T13:47:00Z</time>
      </trkpt>
      <trkpt lat="45.57727" lon="6.74112">
        <ele>742</ele>
        <time>2021-05-28T13:47:01Z</time>
      </trkpt>
      <trkpt lat="45.57733" lon="6.74114">
        <ele>742.2</ele>
        <time>2021-05-28T13:47:02Z</time>
      </trkpt>
      <trkpt lat="45.57739" lon="6.74116">
        <ele>742.8</ele>
        <time>2021-05-28T13:47:03Z</time>
      </trkpt>
      <trkpt lat="45.57744" lon="6.74118">
        <ele>743.2</ele>
        <time>2021-05-28T13:47:04Z</time>
      </trkpt>
      <trkpt lat="45.57749" lon="6.74119">
        <ele>743.8</ele>
        <time>2021-05-28T13:47:05Z</time>
      </trkpt>
      <trkpt lat="45.57755" lon="6.74121">
        <ele>744</ele>
        <time>2021-05-28T13:47:06Z</time>
      </trkpt>
      <trkpt lat="45.5776" lon="6.74123">
        <ele>744.2</ele>
        <time>2021-05-28T13:47:07Z</time>
      </trkpt>
      <trkpt lat="45.57766" lon="6.74126">
        <ele>744.4</ele>
        <time>2021-05-28T13:47:08Z</time>
      </trkpt>
      <trkpt lat="45.57771" lon="6.74128">
        <ele>744.6</ele>
        <time>2021-05-28T13:47:09Z</time>
      </trkpt>
      <trkpt lat="45.57776" lon="6.74131">
        <ele>744.8</ele>
        <time>2021-05-28T13:47:10Z</time>
      </trkpt>
      <trkpt lat="45.57782" lon="6.74134">
        <ele>744.8</ele>
        <time>2021-05-28T13:47:11Z</time>
      </trkpt>
      <trkpt lat="45.57788" lon="6.74136">
        <ele>744.6</ele>
        <time>2021-05-28T13:47:12Z</time>
      </trkpt>
      <trkpt lat="45.57793" lon="6.74139">
        <ele>744.4</ele>
        <time>2021-05-28T13:47:13Z</time>
      </trkpt>
      <trkpt lat="45.57799" lon="6.74142">
        <ele>744.6</ele>
        <time>2021-05-28T13:47:14Z</time>
      </trkpt>
      <trkpt lat="45.57807" lon="6.74144">
        <ele>744.6</ele>
        <time>2021-05-28T13:47:15Z</time>
      </trkpt>
      <trkpt lat="45.57816" lon="6.74145">
        <ele>744.6</ele>
        <time>2021-05-28T13:47:16Z</time>
      </trkpt>
      <trkpt lat="45.57826" lon="6.74143">
        <ele>744.6</ele>
        <time>2021-05-28T13:47:17Z</time>
      </trkpt>
      <trkpt lat="45.57836" lon="6.74142">
        <ele>744.4</ele>
        <time>2021-05-28T13:47:18Z</time>
      </trkpt>
      <trkpt lat="45.57845" lon="6.7414">
        <ele>744</ele>
        <time>2021-05-28T13:47:19Z</time>
      </trkpt>
      <trkpt lat="45.57855" lon="6.74136">
        <ele>743.8</ele>
        <time>2021-05-28T13:47:20Z</time>
      </trkpt>
      <trkpt lat="45.57864" lon="6.74134">
        <ele>743.6</ele>
        <time>2021-05-28T13:47:21Z</time>
      </trkpt>
      <trkpt lat="45.57874" lon="6.7413">
        <ele>743.6</ele>
        <time>2021-05-28T13:47:22Z</time>
      </trkpt>
      <trkpt lat="45.57884" lon="6.74129">
        <ele>743.4</ele>
        <time>2021-05-28T13:47:23Z</time>
      </trkpt>
      <trkpt lat="45.57892" lon="6.74126">
        <ele>743.6</ele>
        <time>2021-05-28T13:47:24Z</time>
      </trkpt>
      <trkpt lat="45.579" lon="6.74123">
        <ele>743.4</ele>
        <time>2021-05-28T13:47:25Z</time>
      </trkpt>
      <trkpt lat="45.57906" lon="6.74118">
        <ele>743</ele>
        <time>2021-05-28T13:47:26Z</time>
      </trkpt>
      <trkpt lat="45.57912" lon="6.74112">
        <ele>742.8</ele>
        <time>2021-05-28T13:47:27Z</time>
      </trkpt>
      <trkpt lat="45.57918" lon="6.74107">
        <ele>742.4</ele>
        <time>2021-05-28T13:47:28Z</time>
      </trkpt>
      <trkpt lat="45.57924" lon="6.74102">
        <ele>742.2</ele>
        <time>2021-05-28T13:47:29Z</time>
      </trkpt>
      <trkpt lat="45.57932" lon="6.74099">
        <ele>742.2</ele>
        <time>2021-05-28T13:47:30Z</time>
      </trkpt>
      <trkpt lat="45.5794" lon="6.74098">
        <ele>742.4</ele>
        <time>2021-05-28T13:47:31Z</time>
      </trkpt>
      <trkpt lat="45.57948" lon="6.74097">
        <ele>742.6</ele>
        <time>2021-05-28T13:47:32Z</time>
      </trkpt>
      <trkpt lat="45.57955" lon="6.74096">
        <ele>742.8</ele>
        <time>2021-05-28T13:47:33Z</time>
      </trkpt>
      <trkpt lat="45.57963" lon="6.74096">
        <ele>742.6</ele>
        <time>2021-05-28T13:47:34Z</time>
      </trkpt>
      <trkpt lat="45.57971" lon="6.74097">
        <ele>742.2</ele>
        <time>2021-05-28T13:47:35Z</time>
      </trkpt>
      <trkpt lat="45.57978" lon="6.74097">
        <ele>742.2</ele>
        <time>2021-05-28T13:47:36Z</time>
      </trkpt>
      <trkpt lat="45.57985" lon="6.74098">
        <ele>742.4</ele>
        <time>2021-05-28T13:47:37Z</time>
      </trkpt>
      <trkpt lat="45.57992" lon="6.74099">
        <ele>742.4</ele>
        <time>2021-05-28T13:47:38Z</time>
      </trkpt>
      <trkpt lat="45.57999" lon="6.741">
        <ele>742.6</ele>
        <time>2021-05-28T13:47:39Z</time>
      </trkpt>
      <trkpt lat="45.58005" lon="6.74102">
        <ele>742.8</ele>
        <time>2021-05-28T13:47:40Z</time>
      </trkpt>
      <trkpt lat="45.58012" lon="6.74104">
        <ele>743</ele>
        <time>2021-05-28T13:47:41Z</time>
      </trkpt>
      <trkpt lat="45.58019" lon="6.74107">
        <ele>743.4</ele>
        <time>2021-05-28T13:47:42Z</time>
      </trkpt>
      <trkpt lat="45.58026" lon="6.74111">
        <ele>743.6</ele>
        <time>2021-05-28T13:47:43Z</time>
      </trkpt>
      <trkpt lat="45.58033" lon="6.74115">
        <ele>743.6</ele>
        <time>2021-05-28T13:47:44Z</time>
      </trkpt>
      <trkpt lat="45.58039" lon="6.74118">
        <ele>743.8</ele>
        <time>2021-05-28T13:47:45Z</time>
      </trkpt>
      <trkpt lat="45.58046" lon="6.74121">
        <ele>743.6</ele>
        <time>2021-05-28T13:47:46Z</time>
      </trkpt>
      <trkpt lat="45.58053" lon="6.74124">
        <ele>743.4</ele>
        <time>2021-05-28T13:47:47Z</time>
      </trkpt>
      <trkpt lat="45.5806" lon="6.74127">
        <ele>743.4</ele>
        <time>2021-05-28T13:47:48Z</time>
      </trkpt>
      <trkpt lat="45.58067" lon="6.74131">
        <ele>743.6</ele>
        <time>2021-05-28T13:47:49Z</time>
      </trkpt>
      <trkpt lat="45.58072" lon="6.74136">
        <ele>744</ele>
        <time>2021-05-28T13:47:50Z</time>
      </trkpt>
      <trkpt lat="45.58077" lon="6.74142">
        <ele>744.2</ele>
        <time>2021-05-28T13:47:51Z</time>
      </trkpt>
      <trkpt lat="45.58082" lon="6.74149">
        <ele>744.6</ele>
        <time>2021-05-28T13:47:52Z</time>
      </trkpt>
      <trkpt lat="45.58086" lon="6.74157">
        <ele>744.8</ele>
        <time>2021-05-28T13:47:53Z</time>
      </trkpt>
      <trkpt lat="45.58089" lon="6.74166">
        <ele>745</ele>
        <time>2021-05-28T13:47:54Z</time>
      </trkpt>
      <trkpt lat="45.58092" lon="6.74176">
        <ele>745.4</ele>
        <time>2021-05-28T13:47:55Z</time>
      </trkpt>
      <trkpt lat="45.58096" lon="6.74185">
        <ele>745.6</ele>
        <time>2021-05-28T13:47:56Z</time>
      </trkpt>
      <trkpt lat="45.58098" lon="6.74195">
        <ele>746</ele>
        <time>2021-05-28T13:47:57Z</time>
      </trkpt>
      <trkpt lat="45.58102" lon="6.74204">
        <ele>746.4</ele>
        <time>2021-05-28T13:47:58Z</time>
      </trkpt>
      <trkpt lat="45.58105" lon="6.74214">
        <ele>746.4</ele>
        <time>2021-05-28T13:47:59Z</time>
      </trkpt>
      <trkpt lat="45.58108" lon="6.74223">
        <ele>746.6</ele>
        <time>2021-05-28T13:48:00Z</time>
      </trkpt>
      <trkpt lat="45.58111" lon="6.74232">
        <ele>746.8</ele>
        <time>2021-05-28T13:48:01Z</time>
      </trkpt>
      <trkpt lat="45.58114" lon="6.74241">
        <ele>746.8</ele>
        <time>2021-05-28T13:48:02Z</time>
      </trkpt>
      <trkpt lat="45.58116" lon="6.7425">
        <ele>746.6</ele>
        <time>2021-05-28T13:48:03Z</time>
      </trkpt>
      <trkpt lat="45.58118" lon="6.74259">
        <ele>746.6</ele>
        <time>2021-05-28T13:48:04Z</time>
      </trkpt>
      <trkpt lat="45.58119" lon="6.74268">
        <ele>746.4</ele>
        <time>2021-05-28T13:48:05Z</time>
      </trkpt>
      <trkpt lat="45.58119" lon="6.74277">
        <ele>746.2</ele>
        <time>2021-05-28T13:48:06Z</time>
      </trkpt>
      <trkpt lat="45.58119" lon="6.74286">
        <ele>746.4</ele>
        <time>2021-05-28T13:48:07Z</time>
      </trkpt>
      <trkpt lat="45.5812" lon="6.74295">
        <ele>746.4</ele>
        <time>2021-05-28T13:48:08Z</time>
      </trkpt>
      <trkpt lat="45.5812" lon="6.74305">
        <ele>746.4</ele>
        <time>2021-05-28T13:48:09Z</time>
      </trkpt>
      <trkpt lat="45.58123" lon="6.74315">
        <ele>746.6</ele>
        <time>2021-05-28T13:48:10Z</time>
      </trkpt>
      <trkpt lat="45.58126" lon="6.74324">
        <ele>746.6</ele>
        <time>2021-05-28T13:48:11Z</time>
      </trkpt>
      <trkpt lat="45.5813" lon="6.74333">
        <ele>746.6</ele>
        <time>2021-05-28T13:48:12Z</time>
      </trkpt>
      <trkpt lat="45.58134" lon="6.74342">
        <ele>746.4</ele>
        <time>2021-05-28T13:48:13Z</time>
      </trkpt>
      <trkpt lat="45.58138" lon="6.7435">
        <ele>746.4</ele>
        <time>2021-05-28T13:48:14Z</time>
      </trkpt>
      <trkpt lat="45.58142" lon="6.74359">
        <ele>746.4</ele>
        <time>2021-05-28T13:48:15Z</time>
      </trkpt>
      <trkpt lat="45.58146" lon="6.74368">
        <ele>746.4</ele>
        <time>2021-05-28T13:48:16Z</time>
      </trkpt>
      <trkpt lat="45.58149" lon="6.74377">
        <ele>746.6</ele>
        <time>2021-05-28T13:48:17Z</time>
      </trkpt>
      <trkpt lat="45.58153" lon="6.74386">
        <ele>746.6</ele>
        <time>2021-05-28T13:48:18Z</time>
      </trkpt>
      <trkpt lat="45.58157" lon="6.74395">
        <ele>746.4</ele>
        <time>2021-05-28T13:48:19Z</time>
      </trkpt>
      <trkpt lat="45.58161" lon="6.74404">
        <ele>746.2</ele>
        <time>2021-05-28T13:48:20Z</time>
      </trkpt>
      <trkpt lat="45.58165" lon="6.74413">
        <ele>746.2</ele>
        <time>2021-05-28T13:48:21Z</time>
      </trkpt>
      <trkpt lat="45.58169" lon="6.74421">
        <ele>746.2</ele>
        <time>2021-05-28T13:48:22Z</time>
      </trkpt>
      <trkpt lat="45.58173" lon="6.7443">
        <ele>746.2</ele>
        <time>2021-05-28T13:48:23Z</time>
      </trkpt>
      <trkpt lat="45.58178" lon="6.74438">
        <ele>746.6</ele>
        <time>2021-05-28T13:48:24Z</time>
      </trkpt>
      <trkpt lat="45.58182" lon="6.74447">
        <ele>747</ele>
        <time>2021-05-28T13:48:25Z</time>
      </trkpt>
      <trkpt lat="45.58186" lon="6.74456">
        <ele>747</ele>
        <time>2021-05-28T13:48:26Z</time>
      </trkpt>
      <trkpt lat="45.58188" lon="6.74465">
        <ele>747.4</ele>
        <time>2021-05-28T13:48:27Z</time>
      </trkpt>
      <trkpt lat="45.5819" lon="6.74475">
        <ele>747.8</ele>
        <time>2021-05-28T13:48:28Z</time>
      </trkpt>
      <trkpt lat="45.58192" lon="6.74485">
        <ele>748.2</ele>
        <time>2021-05-28T13:48:29Z</time>
      </trkpt>
      <trkpt lat="45.58193" lon="6.74496">
        <ele>748.2</ele>
        <time>2021-05-28T13:48:30Z</time>
      </trkpt>
      <trkpt lat="45.58194" lon="6.74506">
        <ele>748</ele>
        <time>2021-05-28T13:48:31Z</time>
      </trkpt>
      <trkpt lat="45.58195" lon="6.74517">
        <ele>748.2</ele>
        <time>2021-05-28T13:48:32Z</time>
      </trkpt>
      <trkpt lat="45.58196" lon="6.74527">
        <ele>748.4</ele>
        <time>2021-05-28T13:48:33Z</time>
      </trkpt>
      <trkpt lat="45.58198" lon="6.74538">
        <ele>748.4</ele>
        <time>2021-05-28T13:48:34Z</time>
      </trkpt>
      <trkpt lat="45.58199" lon="6.74548">
        <ele>748.6</ele>
        <time>2021-05-28T13:48:35Z</time>
      </trkpt>
      <trkpt lat="45.58201" lon="6.74558">
        <ele>748.6</ele>
        <time>2021-05-28T13:48:36Z</time>
      </trkpt>
      <trkpt lat="45.58203" lon="6.74568">
        <ele>749</ele>
        <time>2021-05-28T13:48:37Z</time>
      </trkpt>
      <trkpt lat="45.58206" lon="6.74577">
        <ele>749.2</ele>
        <time>2021-05-28T13:48:38Z</time>
      </trkpt>
      <trkpt lat="45.5821" lon="6.74586">
        <ele>749.6</ele>
        <time>2021-05-28T13:48:39Z</time>
      </trkpt>
      <trkpt lat="45.58214" lon="6.74595">
        <ele>749.8</ele>
        <time>2021-05-28T13:48:40Z</time>
      </trkpt>
      <trkpt lat="45.58218" lon="6.74604">
        <ele>749.8</ele>
        <time>2021-05-28T13:48:41Z</time>
      </trkpt>
      <trkpt lat="45.5822" lon="6.74614">
        <ele>750</ele>
        <time>2021-05-28T13:48:42Z</time>
      </trkpt>
      <trkpt lat="45.58223" lon="6.74624">
        <ele>750.2</ele>
        <time>2021-05-28T13:48:43Z</time>
      </trkpt>
      <trkpt lat="45.58224" lon="6.74634">
        <ele>750.4</ele>
        <time>2021-05-28T13:48:44Z</time>
      </trkpt>
      <trkpt lat="45.58226" lon="6.74643">
        <ele>750.8</ele>
        <time>2021-05-28T13:48:45Z</time>
      </trkpt>
      <trkpt lat="45.58229" lon="6.74651">
        <ele>750.8</ele>
        <time>2021-05-28T13:48:46Z</time>
      </trkpt>
      <trkpt lat="45.58234" lon="6.74659">
        <ele>750.8</ele>
        <time>2021-05-28T13:48:47Z</time>
      </trkpt>
      <trkpt lat="45.58238" lon="6.74666">
        <ele>751.2</ele>
        <time>2021-05-28T13:48:48Z</time>
      </trkpt>
      <trkpt lat="45.58243" lon="6.74672">
        <ele>751.6</ele>
        <time>2021-05-28T13:48:49Z</time>
      </trkpt>
      <trkpt lat="45.58249" lon="6.74678">
        <ele>752</ele>
        <time>2021-05-28T13:48:50Z</time>
      </trkpt>
      <trkpt lat="45.58255" lon="6.74683">
        <ele>752</ele>
        <time>2021-05-28T13:48:51Z</time>
      </trkpt>
      <trkpt lat="45.58261" lon="6.74688">
        <ele>752.2</ele>
        <time>2021-05-28T13:48:52Z</time>
      </trkpt>
      <trkpt lat="45.58267" lon="6.74694">
        <ele>752.6</ele>
        <time>2021-05-28T13:48:53Z</time>
      </trkpt>
      <trkpt lat="45.58272" lon="6.747">
        <ele>752.4</ele>
        <time>2021-05-28T13:48:54Z</time>
      </trkpt>
      <trkpt lat="45.58277" lon="6.74706">
        <ele>752.4</ele>
        <time>2021-05-28T13:48:55Z</time>
      </trkpt>
      <trkpt lat="45.58283" lon="6.74712">
        <ele>752.2</ele>
        <time>2021-05-28T13:48:56Z</time>
      </trkpt>
      <trkpt lat="45.58288" lon="6.74719">
        <ele>752.4</ele>
        <time>2021-05-28T13:48:57Z</time>
      </trkpt>
      <trkpt lat="45.58294" lon="6.74725">
        <ele>752.6</ele>
        <time>2021-05-28T13:48:58Z</time>
      </trkpt>
      <trkpt lat="45.583" lon="6.74731">
        <ele>752.8</ele>
        <time>2021-05-28T13:48:59Z</time>
      </trkpt>
      <trkpt lat="45.58305" lon="6.74737">
        <ele>752.4</ele>
        <time>2021-05-28T13:49:00Z</time>
      </trkpt>
      <trkpt lat="45.58311" lon="6.74742">
        <ele>753.2</ele>
        <time>2021-05-28T13:49:01Z</time>
      </trkpt>
      <trkpt lat="45.58316" lon="6.74746">
        <ele>753.2</ele>
        <time>2021-05-28T13:49:02Z</time>
      </trkpt>
      <trkpt lat="45.58321" lon="6.74751">
        <ele>753</ele>
        <time>2021-05-28T13:49:03Z</time>
      </trkpt>
      <trkpt lat="45.58325" lon="6.74754">
        <ele>753.2</ele>
        <time>2021-05-28T13:49:04Z</time>
      </trkpt>
      <trkpt lat="45.58332" lon="6.74758">
        <ele>752.8</ele>
        <time>2021-05-28T13:49:05Z</time>
      </trkpt>
      <trkpt lat="45.58338" lon="6.74762">
        <ele>753</ele>
        <time>2021-05-28T13:49:06Z</time>
      </trkpt>
      <trkpt lat="45.58345" lon="6.74766">
        <ele>753</ele>
        <time>2021-05-28T13:49:07Z</time>
      </trkpt>
      <trkpt lat="45.58353" lon="6.7477">
        <ele>753</ele>
        <time>2021-05-28T13:49:08Z</time>
      </trkpt>
      <trkpt lat="45.58359" lon="6.74774">
        <ele>752.6</ele>
        <time>2021-05-28T13:49:09Z</time>
      </trkpt>
      <trkpt lat="45.58367" lon="6.74778">
        <ele>752</ele>
        <time>2021-05-28T13:49:10Z</time>
      </trkpt>
      <trkpt lat="45.58375" lon="6.74781">
        <ele>751.4</ele>
        <time>2021-05-28T13:49:11Z</time>
      </trkpt>
      <trkpt lat="45.58383" lon="6.74784">
        <ele>750.6</ele>
        <time>2021-05-28T13:49:12Z</time>
      </trkpt>
      <trkpt lat="45.58392" lon="6.74785">
        <ele>751.2</ele>
        <time>2021-05-28T13:49:13Z</time>
      </trkpt>
      <trkpt lat="45.584" lon="6.74786">
        <ele>751</ele>
        <time>2021-05-28T13:49:14Z</time>
      </trkpt>
      <trkpt lat="45.58409" lon="6.74787">
        <ele>750.6</ele>
        <time>2021-05-28T13:49:15Z</time>
      </trkpt>
      <trkpt lat="45.58418" lon="6.74788">
        <ele>750.4</ele>
        <time>2021-05-28T13:49:16Z</time>
      </trkpt>
      <trkpt lat="45.58426" lon="6.7479">
        <ele>750.2</ele>
        <time>2021-05-28T13:49:17Z</time>
      </trkpt>
      <trkpt lat="45.58434" lon="6.74792">
        <ele>750</ele>
        <time>2021-05-28T13:49:18Z</time>
      </trkpt>
      <trkpt lat="45.58442" lon="6.74794">
        <ele>750.2</ele>
        <time>2021-05-28T13:49:19Z</time>
      </trkpt>
      <trkpt lat="45.5845" lon="6.74795">
        <ele>750.4</ele>
        <time>2021-05-28T13:49:20Z</time>
      </trkpt>
      <trkpt lat="45.58457" lon="6.74797">
        <ele>750.4</ele>
        <time>2021-05-28T13:49:21Z</time>
      </trkpt>
      <trkpt lat="45.58465" lon="6.74799">
        <ele>750.2</ele>
        <time>2021-05-28T13:49:22Z</time>
      </trkpt>
      <trkpt lat="45.58473" lon="6.748">
        <ele>750.2</ele>
        <time>2021-05-28T13:49:23Z</time>
      </trkpt>
      <trkpt lat="45.58481" lon="6.74802">
        <ele>750.2</ele>
        <time>2021-05-28T13:49:24Z</time>
      </trkpt>
      <trkpt lat="45.58488" lon="6.74804">
        <ele>750.4</ele>
        <time>2021-05-28T13:49:25Z</time>
      </trkpt>
      <trkpt lat="45.58495" lon="6.74808">
        <ele>750.4</ele>
        <time>2021-05-28T13:49:26Z</time>
      </trkpt>
      <trkpt lat="45.58502" lon="6.74812">
        <ele>750.6</ele>
        <time>2021-05-28T13:49:27Z</time>
      </trkpt>
      <trkpt lat="45.58508" lon="6.74818">
        <ele>750.8</ele>
        <time>2021-05-28T13:49:28Z</time>
      </trkpt>
      <trkpt lat="45.58512" lon="6.74825">
        <ele>750.8</ele>
        <time>2021-05-28T13:49:29Z</time>
      </trkpt>
      <trkpt lat="45.58517" lon="6.74832">
        <ele>750.4</ele>
        <time>2021-05-28T13:49:30Z</time>
      </trkpt>
      <trkpt lat="45.58523" lon="6.74838">
        <ele>750</ele>
        <time>2021-05-28T13:49:31Z</time>
      </trkpt>
      <trkpt lat="45.58529" lon="6.74843">
        <ele>750</ele>
        <time>2021-05-28T13:49:32Z</time>
      </trkpt>
      <trkpt lat="45.58535" lon="6.74847">
        <ele>750</ele>
        <time>2021-05-28T13:49:33Z</time>
      </trkpt>
      <trkpt lat="45.58542" lon="6.7485">
        <ele>750</ele>
        <time>2021-05-28T13:49:34Z</time>
      </trkpt>
      <trkpt lat="45.58549" lon="6.74852">
        <ele>750.2</ele>
        <time>2021-05-28T13:49:35Z</time>
      </trkpt>
      <trkpt lat="45.58556" lon="6.74855">
        <ele>750.6</ele>
        <time>2021-05-28T13:49:36Z</time>
      </trkpt>
      <trkpt lat="45.58563" lon="6.74858">
        <ele>750.8</ele>
        <time>2021-05-28T13:49:37Z</time>
      </trkpt>
      <trkpt lat="45.5857" lon="6.7486">
        <ele>750.6</ele>
        <time>2021-05-28T13:49:38Z</time>
      </trkpt>
      <trkpt lat="45.58576" lon="6.74864">
        <ele>750.8</ele>
        <time>2021-05-28T13:49:39Z</time>
      </trkpt>
      <trkpt lat="45.58583" lon="6.74868">
        <ele>750.6</ele>
        <time>2021-05-28T13:49:40Z</time>
      </trkpt>
      <trkpt lat="45.58588" lon="6.74873">
        <ele>750.6</ele>
        <time>2021-05-28T13:49:41Z</time>
      </trkpt>
      <trkpt lat="45.58595" lon="6.74879">
        <ele>750.8</ele>
        <time>2021-05-28T13:49:42Z</time>
      </trkpt>
      <trkpt lat="45.58601" lon="6.74885">
        <ele>750.8</ele>
        <time>2021-05-28T13:49:43Z</time>
      </trkpt>
      <trkpt lat="45.58608" lon="6.74889">
        <ele>750.6</ele>
        <time>2021-05-28T13:49:44Z</time>
      </trkpt>
      <trkpt lat="45.58615" lon="6.74892">
        <ele>750.6</ele>
        <time>2021-05-28T13:49:45Z</time>
      </trkpt>
      <trkpt lat="45.58623" lon="6.74895">
        <ele>750.6</ele>
        <time>2021-05-28T13:49:46Z</time>
      </trkpt>
      <trkpt lat="45.5863" lon="6.74897">
        <ele>750.4</ele>
        <time>2021-05-28T13:49:47Z</time>
      </trkpt>
      <trkpt lat="45.58638" lon="6.74898">
        <ele>750.2</ele>
        <time>2021-05-28T13:49:48Z</time>
      </trkpt>
      <trkpt lat="45.58646" lon="6.74898">
        <ele>750.4</ele>
        <time>2021-05-28T13:49:49Z</time>
      </trkpt>
      <trkpt lat="45.58653" lon="6.74899">
        <ele>750.6</ele>
        <time>2021-05-28T13:49:50Z</time>
      </trkpt>
      <trkpt lat="45.5866" lon="6.74899">
        <ele>750.6</ele>
        <time>2021-05-28T13:49:51Z</time>
      </trkpt>
      <trkpt lat="45.58668" lon="6.74899">
        <ele>750.4</ele>
        <time>2021-05-28T13:49:52Z</time>
      </trkpt>
      <trkpt lat="45.58676" lon="6.74899">
        <ele>750.4</ele>
        <time>2021-05-28T13:49:53Z</time>
      </trkpt>
      <trkpt lat="45.58684" lon="6.74898">
        <ele>750.2</ele>
        <time>2021-05-28T13:49:54Z</time>
      </trkpt>
      <trkpt lat="45.58693" lon="6.74899">
        <ele>750.4</ele>
        <time>2021-05-28T13:49:55Z</time>
      </trkpt>
      <trkpt lat="45.587" lon="6.74899">
        <ele>750.2</ele>
        <time>2021-05-28T13:49:56Z</time>
      </trkpt>
      <trkpt lat="45.58708" lon="6.749">
        <ele>750</ele>
        <time>2021-05-28T13:49:57Z</time>
      </trkpt>
      <trkpt lat="45.58716" lon="6.74899">
        <ele>750.2</ele>
        <time>2021-05-28T13:49:58Z</time>
      </trkpt>
      <trkpt lat="45.58724" lon="6.74899">
        <ele>750.2</ele>
        <time>2021-05-28T13:49:59Z</time>
      </trkpt>
      <trkpt lat="45.58733" lon="6.74899">
        <ele>750.2</ele>
        <time>2021-05-28T13:50:00Z</time>
      </trkpt>
      <trkpt lat="45.58741" lon="6.74898">
        <ele>750.4</ele>
        <time>2021-05-28T13:50:01Z</time>
      </trkpt>
      <trkpt lat="45.58748" lon="6.74898">
        <ele>750.4</ele>
        <time>2021-05-28T13:50:02Z</time>
      </trkpt>
      <trkpt lat="45.58756" lon="6.74901">
        <ele>750.4</ele>
        <time>2021-05-28T13:50:03Z</time>
      </trkpt>
      <trkpt lat="45.58763" lon="6.74903">
        <ele>750</ele>
        <time>2021-05-28T13:50:04Z</time>
      </trkpt>
      <trkpt lat="45.5877" lon="6.74905">
        <ele>750</ele>
        <time>2021-05-28T13:50:05Z</time>
      </trkpt>
      <trkpt lat="45.58778" lon="6.74907">
        <ele>749.4</ele>
        <time>2021-05-28T13:50:06Z</time>
      </trkpt>
      <trkpt lat="45.58785" lon="6.74908">
        <ele>749.2</ele>
        <time>2021-05-28T13:50:07Z</time>
      </trkpt>
      <trkpt lat="45.58793" lon="6.74908">
        <ele>749.2</ele>
        <time>2021-05-28T13:50:08Z</time>
      </trkpt>
      <trkpt lat="45.588" lon="6.74908">
        <ele>749.2</ele>
        <time>2021-05-28T13:50:09Z</time>
      </trkpt>
      <trkpt lat="45.58807" lon="6.74908">
        <ele>749.2</ele>
        <time>2021-05-28T13:50:10Z</time>
      </trkpt>
      <trkpt lat="45.58815" lon="6.74908">
        <ele>749</ele>
        <time>2021-05-28T13:50:11Z</time>
      </trkpt>
      <trkpt lat="45.58823" lon="6.74907">
        <ele>749.2</ele>
        <time>2021-05-28T13:50:12Z</time>
      </trkpt>
      <trkpt lat="45.58831" lon="6.74907">
        <ele>749.4</ele>
        <time>2021-05-28T13:50:13Z</time>
      </trkpt>
      <trkpt lat="45.58839" lon="6.74906">
        <ele>749.6</ele>
        <time>2021-05-28T13:50:14Z</time>
      </trkpt>
      <trkpt lat="45.58846" lon="6.74906">
        <ele>749.6</ele>
        <time>2021-05-28T13:50:15Z</time>
      </trkpt>
      <trkpt lat="45.58854" lon="6.74906">
        <ele>749.4</ele>
        <time>2021-05-28T13:50:16Z</time>
      </trkpt>
      <trkpt lat="45.58862" lon="6.74906">
        <ele>749.4</ele>
        <time>2021-05-28T13:50:17Z</time>
      </trkpt>
      <trkpt lat="45.58869" lon="6.74907">
        <ele>749.4</ele>
        <time>2021-05-28T13:50:18Z</time>
      </trkpt>
      <trkpt lat="45.58876" lon="6.74908">
        <ele>749.6</ele>
        <time>2021-05-28T13:50:19Z</time>
      </trkpt>
      <trkpt lat="45.58883" lon="6.74907">
        <ele>749.6</ele>
        <time>2021-05-28T13:50:20Z</time>
      </trkpt>
      <trkpt lat="45.58889" lon="6.74905">
        <ele>749.8</ele>
        <time>2021-05-28T13:50:21Z</time>
      </trkpt>
      <trkpt lat="45.58896" lon="6.74904">
        <ele>749.8</ele>
        <time>2021-05-28T13:50:22Z</time>
      </trkpt>
      <trkpt lat="45.58902" lon="6.74905">
        <ele>749.8</ele>
        <time>2021-05-28T13:50:23Z</time>
      </trkpt>
      <trkpt lat="45.58909" lon="6.74906">
        <ele>750</ele>
        <time>2021-05-28T13:50:24Z</time>
      </trkpt>
      <trkpt lat="45.58915" lon="6.74908">
        <ele>749.6</ele>
        <time>2021-05-28T13:50:25Z</time>
      </trkpt>
      <trkpt lat="45.58922" lon="6.74909">
        <ele>749.6</ele>
        <time>2021-05-28T13:50:26Z</time>
      </trkpt>
      <trkpt lat="45.58928" lon="6.7491">
        <ele>749.6</ele>
        <time>2021-05-28T13:50:27Z</time>
      </trkpt>
      <trkpt lat="45.58935" lon="6.74911">
        <ele>749.4</ele>
        <time>2021-05-28T13:50:28Z</time>
      </trkpt>
      <trkpt lat="45.58942" lon="6.74914">
        <ele>749.6</ele>
        <time>2021-05-28T13:50:29Z</time>
      </trkpt>
      <trkpt lat="45.58949" lon="6.74917">
        <ele>749.4</ele>
        <time>2021-05-28T13:50:30Z</time>
      </trkpt>
      <trkpt lat="45.58955" lon="6.74921">
        <ele>749.6</ele>
        <time>2021-05-28T13:50:31Z</time>
      </trkpt>
      <trkpt lat="45.58962" lon="6.74925">
        <ele>749.6</ele>
        <time>2021-05-28T13:50:32Z</time>
      </trkpt>
      <trkpt lat="45.58968" lon="6.7493">
        <ele>750.2</ele>
        <time>2021-05-28T13:50:33Z</time>
      </trkpt>
      <trkpt lat="45.58974" lon="6.74934">
        <ele>750.2</ele>
        <time>2021-05-28T13:50:34Z</time>
      </trkpt>
      <trkpt lat="45.58979" lon="6.74938">
        <ele>750.4</ele>
        <time>2021-05-28T13:50:35Z</time>
      </trkpt>
      <trkpt lat="45.58984" lon="6.74942">
        <ele>750.8</ele>
        <time>2021-05-28T13:50:36Z</time>
      </trkpt>
      <trkpt lat="45.5899" lon="6.74946">
        <ele>751.2</ele>
        <time>2021-05-28T13:50:37Z</time>
      </trkpt>
      <trkpt lat="45.58996" lon="6.74948">
        <ele>751.4</ele>
        <time>2021-05-28T13:50:38Z</time>
      </trkpt>
      <trkpt lat="45.59002" lon="6.74952">
        <ele>751.6</ele>
        <time>2021-05-28T13:50:39Z</time>
      </trkpt>
      <trkpt lat="45.59008" lon="6.74954">
        <ele>752</ele>
        <time>2021-05-28T13:50:40Z</time>
      </trkpt>
      <trkpt lat="45.59015" lon="6.74955">
        <ele>752.2</ele>
        <time>2021-05-28T13:50:41Z</time>
      </trkpt>
      <trkpt lat="45.59022" lon="6.74958">
        <ele>752.4</ele>
        <time>2021-05-28T13:50:42Z</time>
      </trkpt>
      <trkpt lat="45.59029" lon="6.7496">
        <ele>752.8</ele>
        <time>2021-05-28T13:50:43Z</time>
      </trkpt>
      <trkpt lat="45.59036" lon="6.74963">
        <ele>752.8</ele>
        <time>2021-05-28T13:50:44Z</time>
      </trkpt>
      <trkpt lat="45.59043" lon="6.74967">
        <ele>753.2</ele>
        <time>2021-05-28T13:50:45Z</time>
      </trkpt>
      <trkpt lat="45.59049" lon="6.74973">
        <ele>753</ele>
        <time>2021-05-28T13:50:46Z</time>
      </trkpt>
      <trkpt lat="45.59054" lon="6.7498">
        <ele>753</ele>
        <time>2021-05-28T13:50:47Z</time>
      </trkpt>
      <trkpt lat="45.59059" lon="6.74987">
        <ele>752.6</ele>
        <time>2021-05-28T13:50:48Z</time>
      </trkpt>
      <trkpt lat="45.59065" lon="6.74994">
        <ele>752.6</ele>
        <time>2021-05-28T13:50:49Z</time>
      </trkpt>
      <trkpt lat="45.5907" lon="6.74999">
        <ele>752.8</ele>
        <time>2021-05-28T13:50:50Z</time>
      </trkpt>
      <trkpt lat="45.59077" lon="6.75002">
        <ele>752.6</ele>
        <time>2021-05-28T13:50:51Z</time>
      </trkpt>
      <trkpt lat="45.59084" lon="6.75003">
        <ele>752.8</ele>
        <time>2021-05-28T13:50:52Z</time>
      </trkpt>
      <trkpt lat="45.59091" lon="6.75004">
        <ele>752.8</ele>
        <time>2021-05-28T13:50:53Z</time>
      </trkpt>
      <trkpt lat="45.59098" lon="6.75004">
        <ele>752.8</ele>
        <time>2021-05-28T13:50:54Z</time>
      </trkpt>
      <trkpt lat="45.59105" lon="6.75005">
        <ele>752.8</ele>
        <time>2021-05-28T13:50:55Z</time>
      </trkpt>
      <trkpt lat="45.59112" lon="6.75006">
        <ele>752.8</ele>
        <time>2021-05-28T13:50:56Z</time>
      </trkpt>
      <trkpt lat="45.59119" lon="6.75007">
        <ele>753</ele>
        <time>2021-05-28T13:50:57Z</time>
      </trkpt>
      <trkpt lat="45.59125" lon="6.75008">
        <ele>753</ele>
        <time>2021-05-28T13:50:58Z</time>
      </trkpt>
      <trkpt lat="45.59132" lon="6.75008">
        <ele>753.4</ele>
        <time>2021-05-28T13:50:59Z</time>
      </trkpt>
      <trkpt lat="45.59139" lon="6.7501">
        <ele>753.6</ele>
        <time>2021-05-28T13:51:00Z</time>
      </trkpt>
      <trkpt lat="45.59146" lon="6.7501">
        <ele>753.8</ele>
        <time>2021-05-28T13:51:01Z</time>
      </trkpt>
      <trkpt lat="45.59153" lon="6.75011">
        <ele>754.2</ele>
        <time>2021-05-28T13:51:02Z</time>
      </trkpt>
      <trkpt lat="45.59159" lon="6.75012">
        <ele>754.2</ele>
        <time>2021-05-28T13:51:03Z</time>
      </trkpt>
      <trkpt lat="45.59165" lon="6.75015">
        <ele>754.4</ele>
        <time>2021-05-28T13:51:04Z</time>
      </trkpt>
      <trkpt lat="45.59171" lon="6.75018">
        <ele>754.6</ele>
        <time>2021-05-28T13:51:05Z</time>
      </trkpt>
      <trkpt lat="45.59177" lon="6.75023">
        <ele>754.8</ele>
        <time>2021-05-28T13:51:06Z</time>
      </trkpt>
      <trkpt lat="45.59182" lon="6.75028">
        <ele>755</ele>
        <time>2021-05-28T13:51:07Z</time>
      </trkpt>
      <trkpt lat="45.59188" lon="6.75034">
        <ele>755</ele>
        <time>2021-05-28T13:51:08Z</time>
      </trkpt>
      <trkpt lat="45.59193" lon="6.7504">
        <ele>755</ele>
        <time>2021-05-28T13:51:09Z</time>
      </trkpt>
      <trkpt lat="45.59198" lon="6.75047">
        <ele>754.8</ele>
        <time>2021-05-28T13:51:10Z</time>
      </trkpt>
      <trkpt lat="45.59203" lon="6.75053">
        <ele>754.6</ele>
        <time>2021-05-28T13:51:11Z</time>
      </trkpt>
      <trkpt lat="45.59208" lon="6.75059">
        <ele>754.4</ele>
        <time>2021-05-28T13:51:12Z</time>
      </trkpt>
      <trkpt lat="45.59214" lon="6.75065">
        <ele>754.4</ele>
        <time>2021-05-28T13:51:13Z</time>
      </trkpt>
      <trkpt lat="45.59219" lon="6.75071">
        <ele>754.4</ele>
        <time>2021-05-28T13:51:14Z</time>
      </trkpt>
      <trkpt lat="45.59224" lon="6.75077">
        <ele>754.4</ele>
        <time>2021-05-28T13:51:15Z</time>
      </trkpt>
      <trkpt lat="45.5923" lon="6.75083">
        <ele>754.2</ele>
        <time>2021-05-28T13:51:16Z</time>
      </trkpt>
      <trkpt lat="45.59235" lon="6.75088">
        <ele>754.4</ele>
        <time>2021-05-28T13:51:17Z</time>
      </trkpt>
      <trkpt lat="45.5924" lon="6.75095">
        <ele>754.4</ele>
        <time>2021-05-28T13:51:18Z</time>
      </trkpt>
      <trkpt lat="45.59245" lon="6.75102">
        <ele>754.2</ele>
        <time>2021-05-28T13:51:19Z</time>
      </trkpt>
      <trkpt lat="45.5925" lon="6.75108">
        <ele>754.2</ele>
        <time>2021-05-28T13:51:20Z</time>
      </trkpt>
      <trkpt lat="45.59253" lon="6.75115">
        <ele>753.8</ele>
        <time>2021-05-28T13:51:21Z</time>
      </trkpt>
      <trkpt lat="45.59257" lon="6.75122">
        <ele>753.6</ele>
        <time>2021-05-28T13:51:22Z</time>
      </trkpt>
      <trkpt lat="45.59261" lon="6.7513">
        <ele>753.6</ele>
        <time>2021-05-28T13:51:23Z</time>
      </trkpt>
      <trkpt lat="45.59265" lon="6.75137">
        <ele>753.8</ele>
        <time>2021-05-28T13:51:24Z</time>
      </trkpt>
      <trkpt lat="45.5927" lon="6.75143">
        <ele>754.2</ele>
        <time>2021-05-28T13:51:25Z</time>
      </trkpt>
      <trkpt lat="45.59275" lon="6.75148">
        <ele>754.4</ele>
        <time>2021-05-28T13:51:26Z</time>
      </trkpt>
      <trkpt lat="45.59281" lon="6.75152">
        <ele>755</ele>
        <time>2021-05-28T13:51:27Z</time>
      </trkpt>
      <trkpt lat="45.59287" lon="6.75155">
        <ele>755.2</ele>
        <time>2021-05-28T13:51:28Z</time>
      </trkpt>
      <trkpt lat="45.59294" lon="6.75158">
        <ele>755.8</ele>
        <time>2021-05-28T13:51:29Z</time>
      </trkpt>
      <trkpt lat="45.593" lon="6.75159">
        <ele>756</ele>
        <time>2021-05-28T13:51:30Z</time>
      </trkpt>
      <trkpt lat="45.59307" lon="6.7516">
        <ele>756.2</ele>
        <time>2021-05-28T13:51:31Z</time>
      </trkpt>
      <trkpt lat="45.59314" lon="6.75162">
        <ele>756.6</ele>
        <time>2021-05-28T13:51:32Z</time>
      </trkpt>
      <trkpt lat="45.59321" lon="6.75164">
        <ele>756.6</ele>
        <time>2021-05-28T13:51:33Z</time>
      </trkpt>
      <trkpt lat="45.59328" lon="6.75167">
        <ele>756.8</ele>
        <time>2021-05-28T13:51:34Z</time>
      </trkpt>
      <trkpt lat="45.59334" lon="6.7517">
        <ele>757</ele>
        <time>2021-05-28T13:51:35Z</time>
      </trkpt>
      <trkpt lat="45.59341" lon="6.75174">
        <ele>756.8</ele>
        <time>2021-05-28T13:51:36Z</time>
      </trkpt>
      <trkpt lat="45.59347" lon="6.75178">
        <ele>756.8</ele>
        <time>2021-05-28T13:51:37Z</time>
      </trkpt>
      <trkpt lat="45.59354" lon="6.75182">
        <ele>756.6</ele>
        <time>2021-05-28T13:51:38Z</time>
      </trkpt>
      <trkpt lat="45.59361" lon="6.75186">
        <ele>756.6</ele>
        <time>2021-05-28T13:51:39Z</time>
      </trkpt>
      <trkpt lat="45.59368" lon="6.7519">
        <ele>756.6</ele>
        <time>2021-05-28T13:51:40Z</time>
      </trkpt>
      <trkpt lat="45.59375" lon="6.75192">
        <ele>756.4</ele>
        <time>2021-05-28T13:51:41Z</time>
      </trkpt>
      <trkpt lat="45.59382" lon="6.75194">
        <ele>756.2</ele>
        <time>2021-05-28T13:51:42Z</time>
      </trkpt>
      <trkpt lat="45.59389" lon="6.75195">
        <ele>756.2</ele>
        <time>2021-05-28T13:51:43Z</time>
      </trkpt>
      <trkpt lat="45.59396" lon="6.75196">
        <ele>756.2</ele>
        <time>2021-05-28T13:51:44Z</time>
      </trkpt>
      <trkpt lat="45.59404" lon="6.75199">
        <ele>756.4</ele>
        <time>2021-05-28T13:51:45Z</time>
      </trkpt>
      <trkpt lat="45.5941" lon="6.75203">
        <ele>756.2</ele>
        <time>2021-05-28T13:51:46Z</time>
      </trkpt>
      <trkpt lat="45.59417" lon="6.75208">
        <ele>756</ele>
        <time>2021-05-28T13:51:47Z</time>
      </trkpt>
      <trkpt lat="45.59422" lon="6.75214">
        <ele>755.6</ele>
        <time>2021-05-28T13:51:48Z</time>
      </trkpt>
      <trkpt lat="45.59427" lon="6.75221">
        <ele>755.2</ele>
        <time>2021-05-28T13:51:49Z</time>
      </trkpt>
      <trkpt lat="45.59432" lon="6.75229">
        <ele>755</ele>
        <time>2021-05-28T13:51:50Z</time>
      </trkpt>
      <trkpt lat="45.59436" lon="6.75238">
        <ele>754.8</ele>
        <time>2021-05-28T13:51:51Z</time>
      </trkpt>
      <trkpt lat="45.59441" lon="6.75246">
        <ele>754.6</ele>
        <time>2021-05-28T13:51:52Z</time>
      </trkpt>
      <trkpt lat="45.59445" lon="6.75254">
        <ele>754.2</ele>
        <time>2021-05-28T13:51:53Z</time>
      </trkpt>
      <trkpt lat="45.59451" lon="6.75262">
        <ele>754</ele>
        <time>2021-05-28T13:51:54Z</time>
      </trkpt>
      <trkpt lat="45.59455" lon="6.7527">
        <ele>753.6</ele>
        <time>2021-05-28T13:51:55Z</time>
      </trkpt>
      <trkpt lat="45.59461" lon="6.75277">
        <ele>753.6</ele>
        <time>2021-05-28T13:51:56Z</time>
      </trkpt>
      <trkpt lat="45.59466" lon="6.75284">
        <ele>754</ele>
        <time>2021-05-28T13:51:57Z</time>
      </trkpt>
      <trkpt lat="45.59472" lon="6.75291">
        <ele>754.2</ele>
        <time>2021-05-28T13:51:58Z</time>
      </trkpt>
      <trkpt lat="45.59478" lon="6.75297">
        <ele>754.2</ele>
        <time>2021-05-28T13:51:59Z</time>
      </trkpt>
      <trkpt lat="45.59484" lon="6.75303">
        <ele>754.4</ele>
        <time>2021-05-28T13:52:00Z</time>
      </trkpt>
      <trkpt lat="45.59489" lon="6.75309">
        <ele>754.6</ele>
        <time>2021-05-28T13:52:01Z</time>
      </trkpt>
      <trkpt lat="45.59495" lon="6.75315">
        <ele>755</ele>
        <time>2021-05-28T13:52:02Z</time>
      </trkpt>
      <trkpt lat="45.595" lon="6.7532">
        <ele>755.4</ele>
        <time>2021-05-28T13:52:03Z</time>
      </trkpt>
      <trkpt lat="45.59506" lon="6.75326">
        <ele>755.8</ele>
        <time>2021-05-28T13:52:04Z</time>
      </trkpt>
      <trkpt lat="45.5951" lon="6.75332">
        <ele>756.2</ele>
        <time>2021-05-28T13:52:05Z</time>
      </trkpt>
      <trkpt lat="45.59515" lon="6.75338">
        <ele>757</ele>
        <time>2021-05-28T13:52:06Z</time>
      </trkpt>
      <trkpt lat="45.59519" lon="6.75343">
        <ele>758</ele>
        <time>2021-05-28T13:52:07Z</time>
      </trkpt>
      <trkpt lat="45.59524" lon="6.75348">
        <ele>758.4</ele>
        <time>2021-05-28T13:52:08Z</time>
      </trkpt>
      <trkpt lat="45.5953" lon="6.75352">
        <ele>758.6</ele>
        <time>2021-05-28T13:52:09Z</time>
      </trkpt>
      <trkpt lat="45.59535" lon="6.75358">
        <ele>759</ele>
        <time>2021-05-28T13:52:10Z</time>
      </trkpt>
      <trkpt lat="45.59539" lon="6.75364">
        <ele>759.2</ele>
        <time>2021-05-28T13:52:11Z</time>
      </trkpt>
      <trkpt lat="45.59544" lon="6.75369">
        <ele>759.6</ele>
        <time>2021-05-28T13:52:12Z</time>
      </trkpt>
      <trkpt lat="45.59548" lon="6.75375">
        <ele>760</ele>
        <time>2021-05-28T13:52:13Z</time>
      </trkpt>
      <trkpt lat="45.59554" lon="6.7538">
        <ele>760.4</ele>
        <time>2021-05-28T13:52:14Z</time>
      </trkpt>
      <trkpt lat="45.5956" lon="6.75385">
        <ele>760.6</ele>
        <time>2021-05-28T13:52:15Z</time>
      </trkpt>
      <trkpt lat="45.59566" lon="6.7539">
        <ele>760.4</ele>
        <time>2021-05-28T13:52:16Z</time>
      </trkpt>
      <trkpt lat="45.5957" lon="6.75396">
        <ele>760</ele>
        <time>2021-05-28T13:52:17Z</time>
      </trkpt>
      <trkpt lat="45.59575" lon="6.75403">
        <ele>759.8</ele>
        <time>2021-05-28T13:52:18Z</time>
      </trkpt>
      <trkpt lat="45.5958" lon="6.7541">
        <ele>759.4</ele>
        <time>2021-05-28T13:52:19Z</time>
      </trkpt>
      <trkpt lat="45.59586" lon="6.75415">
        <ele>759.4</ele>
        <time>2021-05-28T13:52:20Z</time>
      </trkpt>
      <trkpt lat="45.59592" lon="6.75418">
        <ele>759.4</ele>
        <time>2021-05-28T13:52:21Z</time>
      </trkpt>
      <trkpt lat="45.59598" lon="6.7542">
        <ele>759.4</ele>
        <time>2021-05-28T13:52:22Z</time>
      </trkpt>
      <trkpt lat="45.59604" lon="6.75423">
        <ele>759.4</ele>
        <time>2021-05-28T13:52:23Z</time>
      </trkpt>
      <trkpt lat="45.59611" lon="6.75426">
        <ele>759.4</ele>
        <time>2021-05-28T13:52:24Z</time>
      </trkpt>
      <trkpt lat="45.59618" lon="6.75429">
        <ele>759.4</ele>
        <time>2021-05-28T13:52:25Z</time>
      </trkpt>
      <trkpt lat="45.59624" lon="6.75432">
        <ele>759.2</ele>
        <time>2021-05-28T13:52:26Z</time>
      </trkpt>
      <trkpt lat="45.5963" lon="6.75435">
        <ele>759</ele>
        <time>2021-05-28T13:52:27Z</time>
      </trkpt>
      <trkpt lat="45.59637" lon="6.75438">
        <ele>759</ele>
        <time>2021-05-28T13:52:28Z</time>
      </trkpt>
      <trkpt lat="45.59644" lon="6.75442">
        <ele>758.6</ele>
        <time>2021-05-28T13:52:29Z</time>
      </trkpt>
      <trkpt lat="45.59651" lon="6.75445">
        <ele>759</ele>
        <time>2021-05-28T13:52:30Z</time>
      </trkpt>
      <trkpt lat="45.59658" lon="6.75449">
        <ele>758.8</ele>
        <time>2021-05-28T13:52:31Z</time>
      </trkpt>
      <trkpt lat="45.59665" lon="6.75453">
        <ele>759.2</ele>
        <time>2021-05-28T13:52:32Z</time>
      </trkpt>
      <trkpt lat="45.59671" lon="6.75457">
        <ele>759.6</ele>
        <time>2021-05-28T13:52:33Z</time>
      </trkpt>
      <trkpt lat="45.59677" lon="6.7546">
        <ele>760</ele>
        <time>2021-05-28T13:52:34Z</time>
      </trkpt>
      <trkpt lat="45.59683" lon="6.75467">
        <ele>760</ele>
        <time>2021-05-28T13:52:35Z</time>
      </trkpt>
      <trkpt lat="45.59687" lon="6.75474">
        <ele>760.4</ele>
        <time>2021-05-28T13:52:36Z</time>
      </trkpt>
      <trkpt lat="45.59692" lon="6.7548">
        <ele>760.6</ele>
        <time>2021-05-28T13:52:37Z</time>
      </trkpt>
      <trkpt lat="45.59698" lon="6.75483">
        <ele>760.4</ele>
        <time>2021-05-28T13:52:38Z</time>
      </trkpt>
      <trkpt lat="45.59704" lon="6.75484">
        <ele>760.8</ele>
        <time>2021-05-28T13:52:39Z</time>
      </trkpt>
      <trkpt lat="45.5971" lon="6.75485">
        <ele>761.2</ele>
        <time>2021-05-28T13:52:40Z</time>
      </trkpt>
      <trkpt lat="45.59716" lon="6.75486">
        <ele>761.4</ele>
        <time>2021-05-28T13:52:41Z</time>
      </trkpt>
      <trkpt lat="45.59722" lon="6.75486">
        <ele>761.6</ele>
        <time>2021-05-28T13:52:42Z</time>
      </trkpt>
      <trkpt lat="45.59728" lon="6.75488">
        <ele>761.8</ele>
        <time>2021-05-28T13:52:43Z</time>
      </trkpt>
      <trkpt lat="45.59734" lon="6.7549">
        <ele>762</ele>
        <time>2021-05-28T13:52:44Z</time>
      </trkpt>
      <trkpt lat="45.5974" lon="6.75494">
        <ele>762.2</ele>
        <time>2021-05-28T13:52:45Z</time>
      </trkpt>
      <trkpt lat="45.59743" lon="6.755">
        <ele>762.8</ele>
        <time>2021-05-28T13:52:46Z</time>
      </trkpt>
      <trkpt lat="45.59745" lon="6.75508">
        <ele>763</ele>
        <time>2021-05-28T13:52:47Z</time>
      </trkpt>
      <trkpt lat="45.59747" lon="6.75516">
        <ele>763.6</ele>
        <time>2021-05-28T13:52:48Z</time>
      </trkpt>
      <trkpt lat="45.5975" lon="6.75524">
        <ele>763.4</ele>
        <time>2021-05-28T13:52:49Z</time>
      </trkpt>
      <trkpt lat="45.59754" lon="6.7553">
        <ele>763.4</ele>
        <time>2021-05-28T13:52:50Z</time>
      </trkpt>
      <trkpt lat="45.59758" lon="6.75536">
        <ele>763.4</ele>
        <time>2021-05-28T13:52:51Z</time>
      </trkpt>
      <trkpt lat="45.59762" lon="6.75543">
        <ele>763.6</ele>
        <time>2021-05-28T13:52:52Z</time>
      </trkpt>
      <trkpt lat="45.59766" lon="6.7555">
        <ele>763.8</ele>
        <time>2021-05-28T13:52:53Z</time>
      </trkpt>
      <trkpt lat="45.5977" lon="6.75557">
        <ele>764</ele>
        <time>2021-05-28T13:52:54Z</time>
      </trkpt>
      <trkpt lat="45.59774" lon="6.75564">
        <ele>764.4</ele>
        <time>2021-05-28T13:52:55Z</time>
      </trkpt>
      <trkpt lat="45.59777" lon="6.7557">
        <ele>764.6</ele>
        <time>2021-05-28T13:52:56Z</time>
      </trkpt>
      <trkpt lat="45.59779" lon="6.75576">
        <ele>764.4</ele>
        <time>2021-05-28T13:52:57Z</time>
      </trkpt>
      <trkpt lat="45.5978" lon="6.75582">
        <ele>764.2</ele>
        <time>2021-05-28T13:52:58Z</time>
      </trkpt>
      <trkpt lat="45.59782" lon="6.75586">
        <ele>764.4</ele>
        <time>2021-05-28T13:52:59Z</time>
      </trkpt>
      <trkpt lat="45.59784" lon="6.7559">
        <ele>764.4</ele>
        <time>2021-05-28T13:53:00Z</time>
      </trkpt>
      <trkpt lat="45.59786" lon="6.75594">
        <ele>764.4</ele>
        <time>2021-05-28T13:53:01Z</time>
      </trkpt>
      <trkpt lat="45.59787" lon="6.75598">
        <ele>764.4</ele>
        <time>2021-05-28T13:53:02Z</time>
      </trkpt>
      <trkpt lat="45.59787" lon="6.75602">
        <ele>764.2</ele>
        <time>2021-05-28T13:53:03Z</time>
      </trkpt>
      <trkpt lat="45.59788" lon="6.75604">
        <ele>764.2</ele>
        <time>2021-05-28T13:53:04Z</time>
      </trkpt>
      <trkpt lat="45.5979" lon="6.75606">
        <ele>764</ele>
        <time>2021-05-28T13:53:05Z</time>
      </trkpt>
      <trkpt lat="45.59792" lon="6.75609">
        <ele>763.8</ele>
        <time>2021-05-28T13:53:06Z</time>
      </trkpt>
      <trkpt lat="45.59795" lon="6.75611">
        <ele>763.4</ele>
        <time>2021-05-28T13:53:07Z</time>
      </trkpt>
      <trkpt lat="45.59797" lon="6.75614">
        <ele>763.2</ele>
        <time>2021-05-28T13:53:08Z</time>
      </trkpt>
      <trkpt lat="45.598" lon="6.75616">
        <ele>762.6</ele>
        <time>2021-05-28T13:53:09Z</time>
      </trkpt>
      <trkpt lat="45.59801" lon="6.75619">
        <ele>762.2</ele>
        <time>2021-05-28T13:53:10Z</time>
      </trkpt>
      <trkpt lat="45.59803" lon="6.75621">
        <ele>762</ele>
        <time>2021-05-28T13:53:11Z</time>
      </trkpt>
      <trkpt lat="45.59806" lon="6.75624">
        <ele>761.6</ele>
        <time>2021-05-28T13:53:12Z</time>
      </trkpt>
      <trkpt lat="45.59807" lon="6.75629">
        <ele>761.2</ele>
        <time>2021-05-28T13:53:13Z</time>
      </trkpt>
      <trkpt lat="45.59809" lon="6.75634">
        <ele>760.8</ele>
        <time>2021-05-28T13:53:14Z</time>
      </trkpt>
      <trkpt lat="45.59809" lon="6.75641">
        <ele>760.8</ele>
        <time>2021-05-28T13:53:15Z</time>
      </trkpt>
      <trkpt lat="45.59808" lon="6.75648">
        <ele>760.6</ele>
        <time>2021-05-28T13:53:16Z</time>
      </trkpt>
      <trkpt lat="45.59808" lon="6.75655">
        <ele>760.8</ele>
        <time>2021-05-28T13:53:17Z</time>
      </trkpt>
      <trkpt lat="45.59808" lon="6.75663">
        <ele>761</ele>
        <time>2021-05-28T13:53:18Z</time>
      </trkpt>
      <trkpt lat="45.59808" lon="6.75672">
        <ele>761.2</ele>
        <time>2021-05-28T13:53:19Z</time>
      </trkpt>
      <trkpt lat="45.59807" lon="6.7568">
        <ele>761.2</ele>
        <time>2021-05-28T13:53:20Z</time>
      </trkpt>
      <trkpt lat="45.59806" lon="6.75688">
        <ele>761.4</ele>
        <time>2021-05-28T13:53:21Z</time>
      </trkpt>
      <trkpt lat="45.59805" lon="6.75696">
        <ele>761.6</ele>
        <time>2021-05-28T13:53:22Z</time>
      </trkpt>
      <trkpt lat="45.59806" lon="6.75703">
        <ele>761.6</ele>
        <time>2021-05-28T13:53:23Z</time>
      </trkpt>
      <trkpt lat="45.59807" lon="6.75712">
        <ele>761.6</ele>
        <time>2021-05-28T13:53:24Z</time>
      </trkpt>
      <trkpt lat="45.59808" lon="6.7572">
        <ele>761.6</ele>
        <time>2021-05-28T13:53:25Z</time>
      </trkpt>
      <trkpt lat="45.59809" lon="6.75726">
        <ele>761.6</ele>
        <time>2021-05-28T13:53:26Z</time>
      </trkpt>
      <trkpt lat="45.59811" lon="6.75732">
        <ele>761.8</ele>
        <time>2021-05-28T13:53:27Z</time>
      </trkpt>
      <trkpt lat="45.59813" lon="6.75739">
        <ele>761.8</ele>
        <time>2021-05-28T13:53:28Z</time>
      </trkpt>
      <trkpt lat="45.59818" lon="6.75743">
        <ele>762</ele>
        <time>2021-05-28T13:53:29Z</time>
      </trkpt>
      <trkpt lat="45.59822" lon="6.75748">
        <ele>762.4</ele>
        <time>2021-05-28T13:53:30Z</time>
      </trkpt>
      <trkpt lat="45.59826" lon="6.75753">
        <ele>763</ele>
        <time>2021-05-28T13:53:31Z</time>
      </trkpt>
      <trkpt lat="45.5983" lon="6.75759">
        <ele>763.6</ele>
        <time>2021-05-28T13:53:32Z</time>
      </trkpt>
      <trkpt lat="45.59833" lon="6.75766">
        <ele>764</ele>
        <time>2021-05-28T13:53:33Z</time>
      </trkpt>
      <trkpt lat="45.59835" lon="6.75773">
        <ele>764.4</ele>
        <time>2021-05-28T13:53:34Z</time>
      </trkpt>
      <trkpt lat="45.59836" lon="6.75779">
        <ele>764.6</ele>
        <time>2021-05-28T13:53:35Z</time>
      </trkpt>
      <trkpt lat="45.59838" lon="6.75784">
        <ele>765</ele>
        <time>2021-05-28T13:53:36Z</time>
      </trkpt>
      <trkpt lat="45.5984" lon="6.7579">
        <ele>765.2</ele>
        <time>2021-05-28T13:53:37Z</time>
      </trkpt>
      <trkpt lat="45.59843" lon="6.75796">
        <ele>765.4</ele>
        <time>2021-05-28T13:53:38Z</time>
      </trkpt>
      <trkpt lat="45.59846" lon="6.75801">
        <ele>765.8</ele>
        <time>2021-05-28T13:53:39Z</time>
      </trkpt>
      <trkpt lat="45.5985" lon="6.75805">
        <ele>765.8</ele>
        <time>2021-05-28T13:53:40Z</time>
      </trkpt>
      <trkpt lat="45.59854" lon="6.75809">
        <ele>766</ele>
        <time>2021-05-28T13:53:41Z</time>
      </trkpt>
      <trkpt lat="45.59858" lon="6.75813">
        <ele>766.4</ele>
        <time>2021-05-28T13:53:42Z</time>
      </trkpt>
      <trkpt lat="45.59862" lon="6.75818">
        <ele>766.4</ele>
        <time>2021-05-28T13:53:43Z</time>
      </trkpt>
      <trkpt lat="45.59866" lon="6.75822">
        <ele>766.6</ele>
        <time>2021-05-28T13:53:44Z</time>
      </trkpt>
      <trkpt lat="45.59869" lon="6.75828">
        <ele>767</ele>
        <time>2021-05-28T13:53:45Z</time>
      </trkpt>
      <trkpt lat="45.59873" lon="6.75833">
        <ele>767.2</ele>
        <time>2021-05-28T13:53:46Z</time>
      </trkpt>
      <trkpt lat="45.59876" lon="6.75838">
        <ele>767.4</ele>
        <time>2021-05-28T13:53:47Z</time>
      </trkpt>
      <trkpt lat="45.59879" lon="6.75844">
        <ele>767.4</ele>
        <time>2021-05-28T13:53:48Z</time>
      </trkpt>
      <trkpt lat="45.59882" lon="6.7585">
        <ele>767.4</ele>
        <time>2021-05-28T13:53:49Z</time>
      </trkpt>
      <trkpt lat="45.59885" lon="6.75857">
        <ele>767.8</ele>
        <time>2021-05-28T13:53:50Z</time>
      </trkpt>
      <trkpt lat="45.59887" lon="6.75864">
        <ele>767.8</ele>
        <time>2021-05-28T13:53:51Z</time>
      </trkpt>
      <trkpt lat="45.59889" lon="6.7587">
        <ele>768</ele>
        <time>2021-05-28T13:53:52Z</time>
      </trkpt>
      <trkpt lat="45.5989" lon="6.75877">
        <ele>768.4</ele>
        <time>2021-05-28T13:53:53Z</time>
      </trkpt>
      <trkpt lat="45.59893" lon="6.75883">
        <ele>768.4</ele>
        <time>2021-05-28T13:53:54Z</time>
      </trkpt>
      <trkpt lat="45.59895" lon="6.75888">
        <ele>768.6</ele>
        <time>2021-05-28T13:53:55Z</time>
      </trkpt>
      <trkpt lat="45.59899" lon="6.7589">
        <ele>768.6</ele>
        <time>2021-05-28T13:53:56Z</time>
      </trkpt>
      <trkpt lat="45.59903" lon="6.75891">
        <ele>768.6</ele>
        <time>2021-05-28T13:53:57Z</time>
      </trkpt>
      <trkpt lat="45.59906" lon="6.75892">
        <ele>768.6</ele>
        <time>2021-05-28T13:53:58Z</time>
      </trkpt>
      <trkpt lat="45.5991" lon="6.75891">
        <ele>768.4</ele>
        <time>2021-05-28T13:53:59Z</time>
      </trkpt>
      <trkpt lat="45.59914" lon="6.75889">
        <ele>768.4</ele>
        <time>2021-05-28T13:54:00Z</time>
      </trkpt>
      <trkpt lat="45.59918" lon="6.75887">
        <ele>768.2</ele>
        <time>2021-05-28T13:54:01Z</time>
      </trkpt>
      <trkpt lat="45.59923" lon="6.75888">
        <ele>767.8</ele>
        <time>2021-05-28T13:54:02Z</time>
      </trkpt>
      <trkpt lat="45.59929" lon="6.7589">
        <ele>767.6</ele>
        <time>2021-05-28T13:54:03Z</time>
      </trkpt>
      <trkpt lat="45.59934" lon="6.75894">
        <ele>767.4</ele>
        <time>2021-05-28T13:54:04Z</time>
      </trkpt>
      <trkpt lat="45.5994" lon="6.759">
        <ele>767.6</ele>
        <time>2021-05-28T13:54:05Z</time>
      </trkpt>
      <trkpt lat="45.59946" lon="6.75907">
        <ele>767.4</ele>
        <time>2021-05-28T13:54:06Z</time>
      </trkpt>
      <trkpt lat="45.59949" lon="6.75913">
        <ele>767.2</ele>
        <time>2021-05-28T13:54:07Z</time>
      </trkpt>
      <trkpt lat="45.59952" lon="6.7592">
        <ele>767.2</ele>
        <time>2021-05-28T13:54:08Z</time>
      </trkpt>
      <trkpt lat="45.59954" lon="6.75926">
        <ele>767.4</ele>
        <time>2021-05-28T13:54:09Z</time>
      </trkpt>
      <trkpt lat="45.59956" lon="6.75931">
        <ele>767.8</ele>
        <time>2021-05-28T13:54:10Z</time>
      </trkpt>
      <trkpt lat="45.59959" lon="6.75935">
        <ele>768.2</ele>
        <time>2021-05-28T13:54:11Z</time>
      </trkpt>
      <trkpt lat="45.59963" lon="6.75939">
        <ele>768.4</ele>
        <time>2021-05-28T13:54:12Z</time>
      </trkpt>
      <trkpt lat="45.59966" lon="6.75943">
        <ele>768.8</ele>
        <time>2021-05-28T13:54:13Z</time>
      </trkpt>
      <trkpt lat="45.59971" lon="6.75947">
        <ele>769</ele>
        <time>2021-05-28T13:54:14Z</time>
      </trkpt>
      <trkpt lat="45.59975" lon="6.75949">
        <ele>769.2</ele>
        <time>2021-05-28T13:54:15Z</time>
      </trkpt>
      <trkpt lat="45.5998" lon="6.75952">
        <ele>768.8</ele>
        <time>2021-05-28T13:54:16Z</time>
      </trkpt>
      <trkpt lat="45.59985" lon="6.75956">
        <ele>769</ele>
        <time>2021-05-28T13:54:17Z</time>
      </trkpt>
      <trkpt lat="45.5999" lon="6.7596">
        <ele>769</ele>
        <time>2021-05-28T13:54:18Z</time>
      </trkpt>
      <trkpt lat="45.59995" lon="6.75967">
        <ele>769.4</ele>
        <time>2021-05-28T13:54:19Z</time>
      </trkpt>
      <trkpt lat="45.59999" lon="6.75974">
        <ele>769.6</ele>
        <time>2021-05-28T13:54:20Z</time>
      </trkpt>
      <trkpt lat="45.60004" lon="6.75981">
        <ele>769.6</ele>
        <time>2021-05-28T13:54:21Z</time>
      </trkpt>
      <trkpt lat="45.60009" lon="6.75988">
        <ele>769.6</ele>
        <time>2021-05-28T13:54:22Z</time>
      </trkpt>
      <trkpt lat="45.60014" lon="6.75993">
        <ele>769.6</ele>
        <time>2021-05-28T13:54:23Z</time>
      </trkpt>
      <trkpt lat="45.6002" lon="6.75998">
        <ele>769.6</ele>
        <time>2021-05-28T13:54:24Z</time>
      </trkpt>
      <trkpt lat="45.60025" lon="6.76004">
        <ele>769.4</ele>
        <time>2021-05-28T13:54:25Z</time>
      </trkpt>
      <trkpt lat="45.60031" lon="6.7601">
        <ele>769</ele>
        <time>2021-05-28T13:54:26Z</time>
      </trkpt>
      <trkpt lat="45.60036" lon="6.76015">
        <ele>768.8</ele>
        <time>2021-05-28T13:54:27Z</time>
      </trkpt>
      <trkpt lat="45.60042" lon="6.76022">
        <ele>768.8</ele>
        <time>2021-05-28T13:54:28Z</time>
      </trkpt>
      <trkpt lat="45.60047" lon="6.76029">
        <ele>768.8</ele>
        <time>2021-05-28T13:54:29Z</time>
      </trkpt>
      <trkpt lat="45.60051" lon="6.76036">
        <ele>768.8</ele>
        <time>2021-05-28T13:54:30Z</time>
      </trkpt>
      <trkpt lat="45.60055" lon="6.76044">
        <ele>769</ele>
        <time>2021-05-28T13:54:31Z</time>
      </trkpt>
      <trkpt lat="45.60058" lon="6.76052">
        <ele>769</ele>
        <time>2021-05-28T13:54:32Z</time>
      </trkpt>
      <trkpt lat="45.60062" lon="6.76059">
        <ele>769</ele>
        <time>2021-05-28T13:54:33Z</time>
      </trkpt>
      <trkpt lat="45.60066" lon="6.76066">
        <ele>769</ele>
        <time>2021-05-28T13:54:34Z</time>
      </trkpt>
      <trkpt lat="45.60069" lon="6.76074">
        <ele>769.4</ele>
        <time>2021-05-28T13:54:35Z</time>
      </trkpt>
      <trkpt lat="45.60072" lon="6.76083">
        <ele>769.6</ele>
        <time>2021-05-28T13:54:36Z</time>
      </trkpt>
      <trkpt lat="45.60075" lon="6.76092">
        <ele>769.8</ele>
        <time>2021-05-28T13:54:37Z</time>
      </trkpt>
      <trkpt lat="45.60076" lon="6.76102">
        <ele>770</ele>
        <time>2021-05-28T13:54:38Z</time>
      </trkpt>
      <trkpt lat="45.60076" lon="6.76112">
        <ele>769.8</ele>
        <time>2021-05-28T13:54:39Z</time>
      </trkpt>
      <trkpt lat="45.60075" lon="6.76121">
        <ele>770</ele>
        <time>2021-05-28T13:54:40Z</time>
      </trkpt>
      <trkpt lat="45.60074" lon="6.7613">
        <ele>770.2</ele>
        <time>2021-05-28T13:54:41Z</time>
      </trkpt>
      <trkpt lat="45.60074" lon="6.76139">
        <ele>770.4</ele>
        <time>2021-05-28T13:54:42Z</time>
      </trkpt>
      <trkpt lat="45.60074" lon="6.76147">
        <ele>770.8</ele>
        <time>2021-05-28T13:54:43Z</time>
      </trkpt>
      <trkpt lat="45.60074" lon="6.76156">
        <ele>771</ele>
        <time>2021-05-28T13:54:44Z</time>
      </trkpt>
      <trkpt lat="45.60075" lon="6.76164">
        <ele>771.2</ele>
        <time>2021-05-28T13:54:45Z</time>
      </trkpt>
      <trkpt lat="45.60076" lon="6.76173">
        <ele>771.4</ele>
        <time>2021-05-28T13:54:46Z</time>
      </trkpt>
      <trkpt lat="45.60076" lon="6.76181">
        <ele>771.6</ele>
        <time>2021-05-28T13:54:47Z</time>
      </trkpt>
      <trkpt lat="45.60077" lon="6.7619">
        <ele>771.8</ele>
        <time>2021-05-28T13:54:48Z</time>
      </trkpt>
      <trkpt lat="45.60078" lon="6.76198">
        <ele>772</ele>
        <time>2021-05-28T13:54:49Z</time>
      </trkpt>
      <trkpt lat="45.60079" lon="6.76207">
        <ele>772</ele>
        <time>2021-05-28T13:54:50Z</time>
      </trkpt>
      <trkpt lat="45.60081" lon="6.76216">
        <ele>772</ele>
        <time>2021-05-28T13:54:51Z</time>
      </trkpt>
      <trkpt lat="45.60083" lon="6.76224">
        <ele>772</ele>
        <time>2021-05-28T13:54:52Z</time>
      </trkpt>
      <trkpt lat="45.60084" lon="6.76233">
        <ele>772</ele>
        <time>2021-05-28T13:54:53Z</time>
      </trkpt>
      <trkpt lat="45.60086" lon="6.76242">
        <ele>772</ele>
        <time>2021-05-28T13:54:54Z</time>
      </trkpt>
      <trkpt lat="45.60088" lon="6.7625">
        <ele>771.8</ele>
        <time>2021-05-28T13:54:55Z</time>
      </trkpt>
      <trkpt lat="45.6009" lon="6.76259">
        <ele>771.8</ele>
        <time>2021-05-28T13:54:56Z</time>
      </trkpt>
      <trkpt lat="45.6009" lon="6.76268">
        <ele>771.8</ele>
        <time>2021-05-28T13:54:57Z</time>
      </trkpt>
      <trkpt lat="45.60088" lon="6.76277">
        <ele>771.6</ele>
        <time>2021-05-28T13:54:58Z</time>
      </trkpt>
      <trkpt lat="45.60087" lon="6.76286">
        <ele>772</ele>
        <time>2021-05-28T13:54:59Z</time>
      </trkpt>
      <trkpt lat="45.60086" lon="6.76294">
        <ele>772.2</ele>
        <time>2021-05-28T13:55:00Z</time>
      </trkpt>
      <trkpt lat="45.60084" lon="6.76302">
        <ele>772.2</ele>
        <time>2021-05-28T13:55:01Z</time>
      </trkpt>
      <trkpt lat="45.60084" lon="6.7631">
        <ele>772.4</ele>
        <time>2021-05-28T13:55:02Z</time>
      </trkpt>
      <trkpt lat="45.60084" lon="6.76319">
        <ele>772.4</ele>
        <time>2021-05-28T13:55:03Z</time>
      </trkpt>
      <trkpt lat="45.60085" lon="6.76328">
        <ele>772.6</ele>
        <time>2021-05-28T13:55:04Z</time>
      </trkpt>
      <trkpt lat="45.60086" lon="6.76336">
        <ele>772.8</ele>
        <time>2021-05-28T13:55:05Z</time>
      </trkpt>
      <trkpt lat="45.60087" lon="6.76344">
        <ele>773.2</ele>
        <time>2021-05-28T13:55:06Z</time>
      </trkpt>
      <trkpt lat="45.60088" lon="6.76353">
        <ele>773</ele>
        <time>2021-05-28T13:55:07Z</time>
      </trkpt>
      <trkpt lat="45.60089" lon="6.76361">
        <ele>773.2</ele>
        <time>2021-05-28T13:55:08Z</time>
      </trkpt>
      <trkpt lat="45.60088" lon="6.76369">
        <ele>773.2</ele>
        <time>2021-05-28T13:55:09Z</time>
      </trkpt>
      <trkpt lat="45.60088" lon="6.76378">
        <ele>773.4</ele>
        <time>2021-05-28T13:55:10Z</time>
      </trkpt>
      <trkpt lat="45.60087" lon="6.76386">
        <ele>773.6</ele>
        <time>2021-05-28T13:55:11Z</time>
      </trkpt>
      <trkpt lat="45.60087" lon="6.76395">
        <ele>773.8</ele>
        <time>2021-05-28T13:55:12Z</time>
      </trkpt>
      <trkpt lat="45.60088" lon="6.76404">
        <ele>774</ele>
        <time>2021-05-28T13:55:13Z</time>
      </trkpt>
      <trkpt lat="45.60088" lon="6.76411">
        <ele>774</ele>
        <time>2021-05-28T13:55:14Z</time>
      </trkpt>
      <trkpt lat="45.60089" lon="6.76418">
        <ele>774.2</ele>
        <time>2021-05-28T13:55:15Z</time>
      </trkpt>
      <trkpt lat="45.60091" lon="6.76425">
        <ele>774.6</ele>
        <time>2021-05-28T13:55:16Z</time>
      </trkpt>
      <trkpt lat="45.60092" lon="6.76432">
        <ele>774.8</ele>
        <time>2021-05-28T13:55:17Z</time>
      </trkpt>
      <trkpt lat="45.60094" lon="6.76439">
        <ele>774.6</ele>
        <time>2021-05-28T13:55:18Z</time>
      </trkpt>
      <trkpt lat="45.60094" lon="6.76447">
        <ele>774.6</ele>
        <time>2021-05-28T13:55:19Z</time>
      </trkpt>
      <trkpt lat="45.60094" lon="6.76454">
        <ele>775</ele>
        <time>2021-05-28T13:55:20Z</time>
      </trkpt>
      <trkpt lat="45.60095" lon="6.76461">
        <ele>775.2</ele>
        <time>2021-05-28T13:55:21Z</time>
      </trkpt>
      <trkpt lat="45.60096" lon="6.76467">
        <ele>775.4</ele>
        <time>2021-05-28T13:55:22Z</time>
      </trkpt>
      <trkpt lat="45.60098" lon="6.76474">
        <ele>775.6</ele>
        <time>2021-05-28T13:55:23Z</time>
      </trkpt>
      <trkpt lat="45.60101" lon="6.76479">
        <ele>775.8</ele>
        <time>2021-05-28T13:55:24Z</time>
      </trkpt>
      <trkpt lat="45.60104" lon="6.76484">
        <ele>775.6</ele>
        <time>2021-05-28T13:55:25Z</time>
      </trkpt>
      <trkpt lat="45.60107" lon="6.76488">
        <ele>775.8</ele>
        <time>2021-05-28T13:55:26Z</time>
      </trkpt>
      <trkpt lat="45.6011" lon="6.76494">
        <ele>776.2</ele>
        <time>2021-05-28T13:55:27Z</time>
      </trkpt>
      <trkpt lat="45.60113" lon="6.76499">
        <ele>776.4</ele>
        <time>2021-05-28T13:55:28Z</time>
      </trkpt>
      <trkpt lat="45.60116" lon="6.76504">
        <ele>776.8</ele>
        <time>2021-05-28T13:55:29Z</time>
      </trkpt>
      <trkpt lat="45.60119" lon="6.76509">
        <ele>777.2</ele>
        <time>2021-05-28T13:55:30Z</time>
      </trkpt>
      <trkpt lat="45.60123" lon="6.76514">
        <ele>777.4</ele>
        <time>2021-05-28T13:55:31Z</time>
      </trkpt>
      <trkpt lat="45.60125" lon="6.76518">
        <ele>777.8</ele>
        <time>2021-05-28T13:55:32Z</time>
      </trkpt>
      <trkpt lat="45.60128" lon="6.76524">
        <ele>778</ele>
        <time>2021-05-28T13:55:33Z</time>
      </trkpt>
      <trkpt lat="45.60131" lon="6.76528">
        <ele>778.6</ele>
        <time>2021-05-28T13:55:34Z</time>
      </trkpt>
      <trkpt lat="45.60134" lon="6.76534">
        <ele>779.2</ele>
        <time>2021-05-28T13:55:35Z</time>
      </trkpt>
      <trkpt lat="45.60138" lon="6.76539">
        <ele>779.8</ele>
        <time>2021-05-28T13:55:36Z</time>
      </trkpt>
      <trkpt lat="45.6014" lon="6.76544">
        <ele>779.8</ele>
        <time>2021-05-28T13:55:37Z</time>
      </trkpt>
      <trkpt lat="45.60144" lon="6.76549">
        <ele>779.8</ele>
        <time>2021-05-28T13:55:38Z</time>
      </trkpt>
      <trkpt lat="45.60147" lon="6.76554">
        <ele>780.2</ele>
        <time>2021-05-28T13:55:39Z</time>
      </trkpt>
      <trkpt lat="45.6015" lon="6.76558">
        <ele>780.4</ele>
        <time>2021-05-28T13:55:40Z</time>
      </trkpt>
      <trkpt lat="45.60153" lon="6.76563">
        <ele>780.4</ele>
        <time>2021-05-28T13:55:41Z</time>
      </trkpt>
      <trkpt lat="45.60156" lon="6.76568">
        <ele>780.2</ele>
        <time>2021-05-28T13:55:42Z</time>
      </trkpt>
      <trkpt lat="45.60159" lon="6.76574">
        <ele>780.4</ele>
        <time>2021-05-28T13:55:43Z</time>
      </trkpt>
      <trkpt lat="45.60162" lon="6.76579">
        <ele>780.8</ele>
        <time>2021-05-28T13:55:44Z</time>
      </trkpt>
      <trkpt lat="45.60164" lon="6.76586">
        <ele>781.2</ele>
        <time>2021-05-28T13:55:45Z</time>
      </trkpt>
      <trkpt lat="45.60165" lon="6.76592">
        <ele>781.6</ele>
        <time>2021-05-28T13:55:46Z</time>
      </trkpt>
      <trkpt lat="45.60167" lon="6.76598">
        <ele>782</ele>
        <time>2021-05-28T13:55:47Z</time>
      </trkpt>
      <trkpt lat="45.60169" lon="6.76604">
        <ele>782.2</ele>
        <time>2021-05-28T13:55:48Z</time>
      </trkpt>
      <trkpt lat="45.60172" lon="6.7661">
        <ele>782.6</ele>
        <time>2021-05-28T13:55:49Z</time>
      </trkpt>
      <trkpt lat="45.60175" lon="6.76615">
        <ele>783</ele>
        <time>2021-05-28T13:55:50Z</time>
      </trkpt>
      <trkpt lat="45.6018" lon="6.7662">
        <ele>783.4</ele>
        <time>2021-05-28T13:55:51Z</time>
      </trkpt>
      <trkpt lat="45.60183" lon="6.76625">
        <ele>783.4</ele>
        <time>2021-05-28T13:55:52Z</time>
      </trkpt>
      <trkpt lat="45.60188" lon="6.76629">
        <ele>783.4</ele>
        <time>2021-05-28T13:55:53Z</time>
      </trkpt>
      <trkpt lat="45.60193" lon="6.76634">
        <ele>783.4</ele>
        <time>2021-05-28T13:55:54Z</time>
      </trkpt>
      <trkpt lat="45.60198" lon="6.76638">
        <ele>782.8</ele>
        <time>2021-05-28T13:55:55Z</time>
      </trkpt>
      <trkpt lat="45.60204" lon="6.76641">
        <ele>782.8</ele>
        <time>2021-05-28T13:55:56Z</time>
      </trkpt>
      <trkpt lat="45.60209" lon="6.76644">
        <ele>782.6</ele>
        <time>2021-05-28T13:55:57Z</time>
      </trkpt>
      <trkpt lat="45.60214" lon="6.76647">
        <ele>782.4</ele>
        <time>2021-05-28T13:55:58Z</time>
      </trkpt>
      <trkpt lat="45.6022" lon="6.76649">
        <ele>782</ele>
        <time>2021-05-28T13:55:59Z</time>
      </trkpt>
      <trkpt lat="45.60225" lon="6.76652">
        <ele>782</ele>
        <time>2021-05-28T13:56:00Z</time>
      </trkpt>
      <trkpt lat="45.6023" lon="6.76655">
        <ele>782</ele>
        <time>2021-05-28T13:56:01Z</time>
      </trkpt>
      <trkpt lat="45.60236" lon="6.76658">
        <ele>782.2</ele>
        <time>2021-05-28T13:56:02Z</time>
      </trkpt>
      <trkpt lat="45.6024" lon="6.76661">
        <ele>782.4</ele>
        <time>2021-05-28T13:56:03Z</time>
      </trkpt>
      <trkpt lat="45.60245" lon="6.76665">
        <ele>782.4</ele>
        <time>2021-05-28T13:56:04Z</time>
      </trkpt>
      <trkpt lat="45.60251" lon="6.76669">
        <ele>782.4</ele>
        <time>2021-05-28T13:56:05Z</time>
      </trkpt>
      <trkpt lat="45.60255" lon="6.76673">
        <ele>782</ele>
        <time>2021-05-28T13:56:06Z</time>
      </trkpt>
      <trkpt lat="45.60259" lon="6.76677">
        <ele>781.8</ele>
        <time>2021-05-28T13:56:07Z</time>
      </trkpt>
      <trkpt lat="45.60264" lon="6.7668">
        <ele>782</ele>
        <time>2021-05-28T13:56:08Z</time>
      </trkpt>
      <trkpt lat="45.60268" lon="6.76684">
        <ele>782</ele>
        <time>2021-05-28T13:56:09Z</time>
      </trkpt>
      <trkpt lat="45.60271" lon="6.76686">
        <ele>782.2</ele>
        <time>2021-05-28T13:56:10Z</time>
      </trkpt>
      <trkpt lat="45.60273" lon="6.76688">
        <ele>782.2</ele>
        <time>2021-05-28T13:56:11Z</time>
      </trkpt>
      <trkpt lat="45.60276" lon="6.7669">
        <ele>782.6</ele>
        <time>2021-05-28T13:56:12Z</time>
      </trkpt>
      <trkpt lat="45.60278" lon="6.76691">
        <ele>782.4</ele>
        <time>2021-05-28T13:56:13Z</time>
      </trkpt>
      <trkpt lat="45.60281" lon="6.76692">
        <ele>782.4</ele>
        <time>2021-05-28T13:56:14Z</time>
      </trkpt>
      <trkpt lat="45.60283" lon="6.76692">
        <ele>782.2</ele>
        <time>2021-05-28T13:56:15Z</time>
      </trkpt>
      <trkpt lat="45.60286" lon="6.76693">
        <ele>782</ele>
        <time>2021-05-28T13:56:17Z</time>
      </trkpt>
      <trkpt lat="45.60289" lon="6.76694">
        <ele>781.4</ele>
        <time>2021-05-28T13:56:19Z</time>
      </trkpt>
      <trkpt lat="45.60292" lon="6.76693">
        <ele>780.8</ele>
        <time>2021-05-28T13:56:21Z</time>
      </trkpt>
      <trkpt lat="45.60295" lon="6.76695">
        <ele>780</ele>
        <time>2021-05-28T13:56:23Z</time>
      </trkpt>
      <trkpt lat="45.60297" lon="6.76696">
        <ele>779.6</ele>
        <time>2021-05-28T13:56:24Z</time>
      </trkpt>
      <trkpt lat="45.603" lon="6.76696">
        <ele>778.8</ele>
        <time>2021-05-28T13:56:26Z</time>
      </trkpt>
      <trkpt lat="45.60302" lon="6.76695">
        <ele>777.8</ele>
        <time>2021-05-28T13:56:28Z</time>
      </trkpt>
      <trkpt lat="45.603" lon="6.76693">
        <ele>777</ele>
        <time>2021-05-28T13:56:31Z</time>
      </trkpt>
      <trkpt lat="45.60299" lon="6.76692">
        <ele>776.8</ele>
        <time>2021-05-28T13:56:32Z</time>
      </trkpt>
      <trkpt lat="45.60297" lon="6.76691">
        <ele>776.8</ele>
        <time>2021-05-28T13:56:33Z</time>
      </trkpt>
      <trkpt lat="45.60294" lon="6.7669">
        <ele>776.8</ele>
        <time>2021-05-28T13:56:34Z</time>
      </trkpt>
      <trkpt lat="45.60292" lon="6.76689">
        <ele>776.6</ele>
        <time>2021-05-28T13:56:35Z</time>
      </trkpt>
      <trkpt lat="45.60289" lon="6.76688">
        <ele>776.8</ele>
        <time>2021-05-28T13:56:36Z</time>
      </trkpt>
      <trkpt lat="45.60285" lon="6.76686">
        <ele>777</ele>
        <time>2021-05-28T13:56:37Z</time>
      </trkpt>
      <trkpt lat="45.60282" lon="6.76686">
        <ele>777.4</ele>
        <time>2021-05-28T13:56:38Z</time>
      </trkpt>
      <trkpt lat="45.60279" lon="6.76686">
        <ele>777.8</ele>
        <time>2021-05-28T13:56:39Z</time>
      </trkpt>
      <trkpt lat="45.60275" lon="6.76686">
        <ele>778.2</ele>
        <time>2021-05-28T13:56:40Z</time>
      </trkpt>
      <trkpt lat="45.60272" lon="6.76685">
        <ele>778.4</ele>
        <time>2021-05-28T13:56:41Z</time>
      </trkpt>
      <trkpt lat="45.6027" lon="6.76682">
        <ele>778.8</ele>
        <time>2021-05-28T13:56:42Z</time>
      </trkpt>
      <trkpt lat="45.60269" lon="6.76678">
        <ele>779</ele>
        <time>2021-05-28T13:56:43Z</time>
      </trkpt>
      <trkpt lat="45.60271" lon="6.76674">
        <ele>779.6</ele>
        <time>2021-05-28T13:56:44Z</time>
      </trkpt>
      <trkpt lat="45.60273" lon="6.7667">
        <ele>780</ele>
        <time>2021-05-28T13:56:45Z</time>
      </trkpt>
      <trkpt lat="45.60276" lon="6.76665">
        <ele>780.6</ele>
        <time>2021-05-28T13:56:46Z</time>
      </trkpt>
      <trkpt lat="45.6028" lon="6.7666">
        <ele>780.8</ele>
        <time>2021-05-28T13:56:47Z</time>
      </trkpt>
      <trkpt lat="45.60284" lon="6.76654">
        <ele>781</ele>
        <time>2021-05-28T13:56:48Z</time>
      </trkpt>
      <trkpt lat="45.60287" lon="6.76648">
        <ele>781.2</ele>
        <time>2021-05-28T13:56:49Z</time>
      </trkpt>
      <trkpt lat="45.6029" lon="6.76641">
        <ele>781.4</ele>
        <time>2021-05-28T13:56:50Z</time>
      </trkpt>
      <trkpt lat="45.60293" lon="6.76634">
        <ele>781.8</ele>
        <time>2021-05-28T13:56:51Z</time>
      </trkpt>
      <trkpt lat="45.60297" lon="6.76628">
        <ele>782.2</ele>
        <time>2021-05-28T13:56:52Z</time>
      </trkpt>
      <trkpt lat="45.603" lon="6.76623">
        <ele>782.4</ele>
        <time>2021-05-28T13:56:53Z</time>
      </trkpt>
      <trkpt lat="45.60305" lon="6.76619">
        <ele>782.8</ele>
        <time>2021-05-28T13:56:54Z</time>
      </trkpt>
      <trkpt lat="45.6031" lon="6.76617">
        <ele>783.2</ele>
        <time>2021-05-28T13:56:55Z</time>
      </trkpt>
      <trkpt lat="45.60315" lon="6.76619">
        <ele>783.6</ele>
        <time>2021-05-28T13:56:56Z</time>
      </trkpt>
      <trkpt lat="45.6032" lon="6.76623">
        <ele>783.8</ele>
        <time>2021-05-28T13:56:57Z</time>
      </trkpt>
      <trkpt lat="45.60324" lon="6.76629">
        <ele>784</ele>
        <time>2021-05-28T13:56:58Z</time>
      </trkpt>
      <trkpt lat="45.60329" lon="6.76634">
        <ele>784.2</ele>
        <time>2021-05-28T13:56:59Z</time>
      </trkpt>
      <trkpt lat="45.60333" lon="6.7664">
        <ele>784.6</ele>
        <time>2021-05-28T13:57:00Z</time>
      </trkpt>
      <trkpt lat="45.60338" lon="6.76646">
        <ele>785</ele>
        <time>2021-05-28T13:57:01Z</time>
      </trkpt>
      <trkpt lat="45.60343" lon="6.76652">
        <ele>785.2</ele>
        <time>2021-05-28T13:57:02Z</time>
      </trkpt>
      <trkpt lat="45.60348" lon="6.76659">
        <ele>785.8</ele>
        <time>2021-05-28T13:57:03Z</time>
      </trkpt>
      <trkpt lat="45.60354" lon="6.76665">
        <ele>786.4</ele>
        <time>2021-05-28T13:57:04Z</time>
      </trkpt>
      <trkpt lat="45.60358" lon="6.7667">
        <ele>787</ele>
        <time>2021-05-28T13:57:05Z</time>
      </trkpt>
      <trkpt lat="45.60363" lon="6.76676">
        <ele>787.2</ele>
        <time>2021-05-28T13:57:06Z</time>
      </trkpt>
      <trkpt lat="45.60366" lon="6.76681">
        <ele>787.6</ele>
        <time>2021-05-28T13:57:07Z</time>
      </trkpt>
      <trkpt lat="45.6037" lon="6.76687">
        <ele>787.8</ele>
        <time>2021-05-28T13:57:08Z</time>
      </trkpt>
      <trkpt lat="45.60373" lon="6.76693">
        <ele>788.2</ele>
        <time>2021-05-28T13:57:09Z</time>
      </trkpt>
      <trkpt lat="45.60376" lon="6.767">
        <ele>788.6</ele>
        <time>2021-05-28T13:57:10Z</time>
      </trkpt>
      <trkpt lat="45.60379" lon="6.76707">
        <ele>788.8</ele>
        <time>2021-05-28T13:57:11Z</time>
      </trkpt>
      <trkpt lat="45.60382" lon="6.76715">
        <ele>789</ele>
        <time>2021-05-28T13:57:12Z</time>
      </trkpt>
      <trkpt lat="45.60385" lon="6.76725">
        <ele>789</ele>
        <time>2021-05-28T13:57:13Z</time>
      </trkpt>
      <trkpt lat="45.60388" lon="6.76735">
        <ele>788.8</ele>
        <time>2021-05-28T13:57:14Z</time>
      </trkpt>
      <trkpt lat="45.60393" lon="6.76744">
        <ele>788.8</ele>
        <time>2021-05-28T13:57:15Z</time>
      </trkpt>
      <trkpt lat="45.60398" lon="6.76753">
        <ele>788.2</ele>
        <time>2021-05-28T13:57:16Z</time>
      </trkpt>
      <trkpt lat="45.60405" lon="6.7676">
        <ele>788.2</ele>
        <time>2021-05-28T13:57:17Z</time>
      </trkpt>
      <trkpt lat="45.60411" lon="6.76766">
        <ele>788.2</ele>
        <time>2021-05-28T13:57:18Z</time>
      </trkpt>
      <trkpt lat="45.60417" lon="6.76771">
        <ele>788.2</ele>
        <time>2021-05-28T13:57:19Z</time>
      </trkpt>
      <trkpt lat="45.60423" lon="6.76775">
        <ele>788.2</ele>
        <time>2021-05-28T13:57:20Z</time>
      </trkpt>
      <trkpt lat="45.60429" lon="6.7678">
        <ele>788</ele>
        <time>2021-05-28T13:57:21Z</time>
      </trkpt>
      <trkpt lat="45.60435" lon="6.76785">
        <ele>788</ele>
        <time>2021-05-28T13:57:22Z</time>
      </trkpt>
      <trkpt lat="45.60441" lon="6.7679">
        <ele>787.8</ele>
        <time>2021-05-28T13:57:23Z</time>
      </trkpt>
      <trkpt lat="45.60446" lon="6.76796">
        <ele>787.8</ele>
        <time>2021-05-28T13:57:24Z</time>
      </trkpt>
      <trkpt lat="45.60452" lon="6.76801">
        <ele>787.8</ele>
        <time>2021-05-28T13:57:25Z</time>
      </trkpt>
      <trkpt lat="45.60456" lon="6.76807">
        <ele>787.6</ele>
        <time>2021-05-28T13:57:26Z</time>
      </trkpt>
      <trkpt lat="45.60461" lon="6.76813">
        <ele>787.6</ele>
        <time>2021-05-28T13:57:27Z</time>
      </trkpt>
      <trkpt lat="45.60466" lon="6.76819">
        <ele>787.4</ele>
        <time>2021-05-28T13:57:28Z</time>
      </trkpt>
      <trkpt lat="45.60471" lon="6.76825">
        <ele>787.6</ele>
        <time>2021-05-28T13:57:29Z</time>
      </trkpt>
      <trkpt lat="45.60476" lon="6.7683">
        <ele>787.8</ele>
        <time>2021-05-28T13:57:30Z</time>
      </trkpt>
      <trkpt lat="45.60481" lon="6.76836">
        <ele>787.8</ele>
        <time>2021-05-28T13:57:31Z</time>
      </trkpt>
      <trkpt lat="45.60486" lon="6.76842">
        <ele>788</ele>
        <time>2021-05-28T13:57:32Z</time>
      </trkpt>
      <trkpt lat="45.60492" lon="6.76847">
        <ele>788.2</ele>
        <time>2021-05-28T13:57:33Z</time>
      </trkpt>
      <trkpt lat="45.60497" lon="6.76852">
        <ele>788.4</ele>
        <time>2021-05-28T13:57:34Z</time>
      </trkpt>
      <trkpt lat="45.60502" lon="6.76858">
        <ele>788.6</ele>
        <time>2021-05-28T13:57:35Z</time>
      </trkpt>
      <trkpt lat="45.60507" lon="6.76865">
        <ele>788.8</ele>
        <time>2021-05-28T13:57:36Z</time>
      </trkpt>
      <trkpt lat="45.60511" lon="6.76872">
        <ele>788.8</ele>
        <time>2021-05-28T13:57:37Z</time>
      </trkpt>
      <trkpt lat="45.60515" lon="6.7688">
        <ele>789</ele>
        <time>2021-05-28T13:57:38Z</time>
      </trkpt>
      <trkpt lat="45.60519" lon="6.76888">
        <ele>789</ele>
        <time>2021-05-28T13:57:39Z</time>
      </trkpt>
      <trkpt lat="45.60523" lon="6.76895">
        <ele>789</ele>
        <time>2021-05-28T13:57:40Z</time>
      </trkpt>
      <trkpt lat="45.60525" lon="6.76903">
        <ele>789.2</ele>
        <time>2021-05-28T13:57:41Z</time>
      </trkpt>
      <trkpt lat="45.60529" lon="6.76912">
        <ele>789.2</ele>
        <time>2021-05-28T13:57:42Z</time>
      </trkpt>
      <trkpt lat="45.60531" lon="6.76919">
        <ele>789.6</ele>
        <time>2021-05-28T13:57:43Z</time>
      </trkpt>
      <trkpt lat="45.60533" lon="6.76927">
        <ele>789.8</ele>
        <time>2021-05-28T13:57:44Z</time>
      </trkpt>
      <trkpt lat="45.60536" lon="6.76935">
        <ele>790</ele>
        <time>2021-05-28T13:57:45Z</time>
      </trkpt>
      <trkpt lat="45.60539" lon="6.76942">
        <ele>790.2</ele>
        <time>2021-05-28T13:57:46Z</time>
      </trkpt>
      <trkpt lat="45.60542" lon="6.7695">
        <ele>790.4</ele>
        <time>2021-05-28T13:57:47Z</time>
      </trkpt>
      <trkpt lat="45.60546" lon="6.76956">
        <ele>790.2</ele>
        <time>2021-05-28T13:57:48Z</time>
      </trkpt>
      <trkpt lat="45.6055" lon="6.76962">
        <ele>790</ele>
        <time>2021-05-28T13:57:49Z</time>
      </trkpt>
      <trkpt lat="45.60555" lon="6.76968">
        <ele>790</ele>
        <time>2021-05-28T13:57:50Z</time>
      </trkpt>
      <trkpt lat="45.60558" lon="6.76973">
        <ele>790.2</ele>
        <time>2021-05-28T13:57:51Z</time>
      </trkpt>
      <trkpt lat="45.60563" lon="6.76978">
        <ele>790.2</ele>
        <time>2021-05-28T13:57:52Z</time>
      </trkpt>
      <trkpt lat="45.60567" lon="6.76982">
        <ele>790.4</ele>
        <time>2021-05-28T13:57:53Z</time>
      </trkpt>
      <trkpt lat="45.60573" lon="6.76984">
        <ele>790.6</ele>
        <time>2021-05-28T13:57:54Z</time>
      </trkpt>
      <trkpt lat="45.60578" lon="6.76987">
        <ele>790.8</ele>
        <time>2021-05-28T13:57:55Z</time>
      </trkpt>
      <trkpt lat="45.60583" lon="6.76989">
        <ele>791</ele>
        <time>2021-05-28T13:57:56Z</time>
      </trkpt>
      <trkpt lat="45.60589" lon="6.76991">
        <ele>791.2</ele>
        <time>2021-05-28T13:57:57Z</time>
      </trkpt>
      <trkpt lat="45.60596" lon="6.76994">
        <ele>791.4</ele>
        <time>2021-05-28T13:57:58Z</time>
      </trkpt>
      <trkpt lat="45.60602" lon="6.76995">
        <ele>791.6</ele>
        <time>2021-05-28T13:57:59Z</time>
      </trkpt>
      <trkpt lat="45.60606" lon="6.76996">
        <ele>791.8</ele>
        <time>2021-05-28T13:58:00Z</time>
      </trkpt>
      <trkpt lat="45.6061" lon="6.76998">
        <ele>792</ele>
        <time>2021-05-28T13:58:01Z</time>
      </trkpt>
      <trkpt lat="45.60614" lon="6.77001">
        <ele>792.4</ele>
        <time>2021-05-28T13:58:02Z</time>
      </trkpt>
      <trkpt lat="45.60617" lon="6.77004">
        <ele>792.6</ele>
        <time>2021-05-28T13:58:03Z</time>
      </trkpt>
      <trkpt lat="45.6062" lon="6.77008">
        <ele>792.6</ele>
        <time>2021-05-28T13:58:04Z</time>
      </trkpt>
      <trkpt lat="45.60623" lon="6.77012">
        <ele>792.6</ele>
        <time>2021-05-28T13:58:05Z</time>
      </trkpt>
      <trkpt lat="45.60625" lon="6.77016">
        <ele>792.8</ele>
        <time>2021-05-28T13:58:06Z</time>
      </trkpt>
      <trkpt lat="45.60628" lon="6.7702">
        <ele>793</ele>
        <time>2021-05-28T13:58:07Z</time>
      </trkpt>
      <trkpt lat="45.6063" lon="6.77024">
        <ele>793.4</ele>
        <time>2021-05-28T13:58:08Z</time>
      </trkpt>
      <trkpt lat="45.60634" lon="6.77028">
        <ele>793.4</ele>
        <time>2021-05-28T13:58:09Z</time>
      </trkpt>
      <trkpt lat="45.60636" lon="6.77033">
        <ele>793.6</ele>
        <time>2021-05-28T13:58:10Z</time>
      </trkpt>
      <trkpt lat="45.60639" lon="6.77037">
        <ele>793.8</ele>
        <time>2021-05-28T13:58:11Z</time>
      </trkpt>
      <trkpt lat="45.60642" lon="6.7704">
        <ele>793.8</ele>
        <time>2021-05-28T13:58:12Z</time>
      </trkpt>
      <trkpt lat="45.60646" lon="6.77044">
        <ele>793.8</ele>
        <time>2021-05-28T13:58:13Z</time>
      </trkpt>
      <trkpt lat="45.60649" lon="6.77048">
        <ele>794</ele>
        <time>2021-05-28T13:58:14Z</time>
      </trkpt>
      <trkpt lat="45.60654" lon="6.77051">
        <ele>794</ele>
        <time>2021-05-28T13:58:15Z</time>
      </trkpt>
      <trkpt lat="45.60658" lon="6.77054">
        <ele>794.2</ele>
        <time>2021-05-28T13:58:16Z</time>
      </trkpt>
      <trkpt lat="45.60663" lon="6.77056">
        <ele>794.2</ele>
        <time>2021-05-28T13:58:17Z</time>
      </trkpt>
      <trkpt lat="45.60668" lon="6.77058">
        <ele>794.2</ele>
        <time>2021-05-28T13:58:18Z</time>
      </trkpt>
      <trkpt lat="45.60672" lon="6.7706">
        <ele>794.4</ele>
        <time>2021-05-28T13:58:19Z</time>
      </trkpt>
      <trkpt lat="45.60676" lon="6.77061">
        <ele>794.6</ele>
        <time>2021-05-28T13:58:20Z</time>
      </trkpt>
      <trkpt lat="45.6068" lon="6.77063">
        <ele>794.6</ele>
        <time>2021-05-28T13:58:21Z</time>
      </trkpt>
      <trkpt lat="45.60684" lon="6.77064">
        <ele>794.6</ele>
        <time>2021-05-28T13:58:22Z</time>
      </trkpt>
      <trkpt lat="45.60688" lon="6.77066">
        <ele>794.4</ele>
        <time>2021-05-28T13:58:23Z</time>
      </trkpt>
      <trkpt lat="45.60692" lon="6.77068">
        <ele>794.4</ele>
        <time>2021-05-28T13:58:24Z</time>
      </trkpt>
      <trkpt lat="45.60696" lon="6.77069">
        <ele>794.2</ele>
        <time>2021-05-28T13:58:25Z</time>
      </trkpt>
      <trkpt lat="45.607" lon="6.77071">
        <ele>794</ele>
        <time>2021-05-28T13:58:26Z</time>
      </trkpt>
      <trkpt lat="45.60705" lon="6.77073">
        <ele>793.6</ele>
        <time>2021-05-28T13:58:27Z</time>
      </trkpt>
      <trkpt lat="45.6071" lon="6.77075">
        <ele>793.2</ele>
        <time>2021-05-28T13:58:28Z</time>
      </trkpt>
      <trkpt lat="45.60715" lon="6.77077">
        <ele>792.6</ele>
        <time>2021-05-28T13:58:29Z</time>
      </trkpt>
      <trkpt lat="45.6072" lon="6.77078">
        <ele>792.2</ele>
        <time>2021-05-28T13:58:30Z</time>
      </trkpt>
      <trkpt lat="45.60725" lon="6.7708">
        <ele>791.8</ele>
        <time>2021-05-28T13:58:31Z</time>
      </trkpt>
      <trkpt lat="45.6073" lon="6.77083">
        <ele>791.6</ele>
        <time>2021-05-28T13:58:32Z</time>
      </trkpt>
      <trkpt lat="45.60735" lon="6.77086">
        <ele>791.4</ele>
        <time>2021-05-28T13:58:33Z</time>
      </trkpt>
      <trkpt lat="45.6074" lon="6.77089">
        <ele>791.6</ele>
        <time>2021-05-28T13:58:34Z</time>
      </trkpt>
      <trkpt lat="45.60744" lon="6.77093">
        <ele>791.6</ele>
        <time>2021-05-28T13:58:35Z</time>
      </trkpt>
      <trkpt lat="45.60749" lon="6.77096">
        <ele>791.6</ele>
        <time>2021-05-28T13:58:36Z</time>
      </trkpt>
      <trkpt lat="45.60754" lon="6.771">
        <ele>791.6</ele>
        <time>2021-05-28T13:58:37Z</time>
      </trkpt>
      <trkpt lat="45.60759" lon="6.77104">
        <ele>791.6</ele>
        <time>2021-05-28T13:58:38Z</time>
      </trkpt>
      <trkpt lat="45.60764" lon="6.77107">
        <ele>791.6</ele>
        <time>2021-05-28T13:58:39Z</time>
      </trkpt>
      <trkpt lat="45.60769" lon="6.7711">
        <ele>791.4</ele>
        <time>2021-05-28T13:58:40Z</time>
      </trkpt>
      <trkpt lat="45.60773" lon="6.77114">
        <ele>791.4</ele>
        <time>2021-05-28T13:58:41Z</time>
      </trkpt>
      <trkpt lat="45.60778" lon="6.77118">
        <ele>791.4</ele>
        <time>2021-05-28T13:58:42Z</time>
      </trkpt>
      <trkpt lat="45.60782" lon="6.7712">
        <ele>791.2</ele>
        <time>2021-05-28T13:58:43Z</time>
      </trkpt>
      <trkpt lat="45.60787" lon="6.77123">
        <ele>791.2</ele>
        <time>2021-05-28T13:58:44Z</time>
      </trkpt>
      <trkpt lat="45.60791" lon="6.77126">
        <ele>791</ele>
        <time>2021-05-28T13:58:45Z</time>
      </trkpt>
      <trkpt lat="45.60795" lon="6.77129">
        <ele>791.2</ele>
        <time>2021-05-28T13:58:46Z</time>
      </trkpt>
      <trkpt lat="45.608" lon="6.77132">
        <ele>791.2</ele>
        <time>2021-05-28T13:58:47Z</time>
      </trkpt>
      <trkpt lat="45.60804" lon="6.77134">
        <ele>791.2</ele>
        <time>2021-05-28T13:58:48Z</time>
      </trkpt>
      <trkpt lat="45.60809" lon="6.77137">
        <ele>791.2</ele>
        <time>2021-05-28T13:58:49Z</time>
      </trkpt>
      <trkpt lat="45.60814" lon="6.77139">
        <ele>791.2</ele>
        <time>2021-05-28T13:58:50Z</time>
      </trkpt>
      <trkpt lat="45.60819" lon="6.7714">
        <ele>791.4</ele>
        <time>2021-05-28T13:58:51Z</time>
      </trkpt>
      <trkpt lat="45.60823" lon="6.77142">
        <ele>791.6</ele>
        <time>2021-05-28T13:58:52Z</time>
      </trkpt>
      <trkpt lat="45.60828" lon="6.77144">
        <ele>792</ele>
        <time>2021-05-28T13:58:53Z</time>
      </trkpt>
      <trkpt lat="45.60832" lon="6.77145">
        <ele>792.4</ele>
        <time>2021-05-28T13:58:54Z</time>
      </trkpt>
      <trkpt lat="45.60837" lon="6.77147">
        <ele>792.6</ele>
        <time>2021-05-28T13:58:55Z</time>
      </trkpt>
      <trkpt lat="45.60841" lon="6.77148">
        <ele>793</ele>
        <time>2021-05-28T13:58:56Z</time>
      </trkpt>
      <trkpt lat="45.60846" lon="6.7715">
        <ele>793.4</ele>
        <time>2021-05-28T13:58:57Z</time>
      </trkpt>
      <trkpt lat="45.60851" lon="6.77151">
        <ele>793.8</ele>
        <time>2021-05-28T13:58:58Z</time>
      </trkpt>
      <trkpt lat="45.60856" lon="6.77152">
        <ele>794.2</ele>
        <time>2021-05-28T13:58:59Z</time>
      </trkpt>
      <trkpt lat="45.60861" lon="6.77154">
        <ele>794.6</ele>
        <time>2021-05-28T13:59:00Z</time>
      </trkpt>
      <trkpt lat="45.60867" lon="6.77155">
        <ele>795.2</ele>
        <time>2021-05-28T13:59:01Z</time>
      </trkpt>
      <trkpt lat="45.60872" lon="6.77156">
        <ele>795</ele>
        <time>2021-05-28T13:59:02Z</time>
      </trkpt>
      <trkpt lat="45.60877" lon="6.77158">
        <ele>795.2</ele>
        <time>2021-05-28T13:59:03Z</time>
      </trkpt>
      <trkpt lat="45.60882" lon="6.7716">
        <ele>795.2</ele>
        <time>2021-05-28T13:59:04Z</time>
      </trkpt>
      <trkpt lat="45.60888" lon="6.77162">
        <ele>795.4</ele>
        <time>2021-05-28T13:59:05Z</time>
      </trkpt>
      <trkpt lat="45.60893" lon="6.77164">
        <ele>795.6</ele>
        <time>2021-05-28T13:59:06Z</time>
      </trkpt>
      <trkpt lat="45.60898" lon="6.77165">
        <ele>796</ele>
        <time>2021-05-28T13:59:07Z</time>
      </trkpt>
      <trkpt lat="45.60904" lon="6.77168">
        <ele>796.2</ele>
        <time>2021-05-28T13:59:08Z</time>
      </trkpt>
      <trkpt lat="45.60909" lon="6.77169">
        <ele>796.4</ele>
        <time>2021-05-28T13:59:09Z</time>
      </trkpt>
      <trkpt lat="45.60915" lon="6.77171">
        <ele>796.8</ele>
        <time>2021-05-28T13:59:10Z</time>
      </trkpt>
      <trkpt lat="45.6092" lon="6.77172">
        <ele>797.2</ele>
        <time>2021-05-28T13:59:11Z</time>
      </trkpt>
      <trkpt lat="45.60925" lon="6.77174">
        <ele>797.6</ele>
        <time>2021-05-28T13:59:12Z</time>
      </trkpt>
      <trkpt lat="45.6093" lon="6.77176">
        <ele>797.8</ele>
        <time>2021-05-28T13:59:13Z</time>
      </trkpt>
      <trkpt lat="45.60935" lon="6.77177">
        <ele>798.2</ele>
        <time>2021-05-28T13:59:14Z</time>
      </trkpt>
      <trkpt lat="45.6094" lon="6.77179">
        <ele>798.6</ele>
        <time>2021-05-28T13:59:15Z</time>
      </trkpt>
      <trkpt lat="45.60945" lon="6.77181">
        <ele>799</ele>
        <time>2021-05-28T13:59:16Z</time>
      </trkpt>
      <trkpt lat="45.60949" lon="6.77183">
        <ele>799.4</ele>
        <time>2021-05-28T13:59:17Z</time>
      </trkpt>
      <trkpt lat="45.60955" lon="6.77185">
        <ele>799.8</ele>
        <time>2021-05-28T13:59:18Z</time>
      </trkpt>
      <trkpt lat="45.6096" lon="6.77186">
        <ele>800.2</ele>
        <time>2021-05-28T13:59:19Z</time>
      </trkpt>
      <trkpt lat="45.60965" lon="6.77188">
        <ele>800.2</ele>
        <time>2021-05-28T13:59:20Z</time>
      </trkpt>
      <trkpt lat="45.60971" lon="6.7719">
        <ele>800.2</ele>
        <time>2021-05-28T13:59:21Z</time>
      </trkpt>
      <trkpt lat="45.60976" lon="6.77193">
        <ele>800.2</ele>
        <time>2021-05-28T13:59:22Z</time>
      </trkpt>
      <trkpt lat="45.60982" lon="6.77195">
        <ele>800.2</ele>
        <time>2021-05-28T13:59:23Z</time>
      </trkpt>
      <trkpt lat="45.60988" lon="6.77197">
        <ele>800.4</ele>
        <time>2021-05-28T13:59:24Z</time>
      </trkpt>
      <trkpt lat="45.60995" lon="6.77199">
        <ele>800.4</ele>
        <time>2021-05-28T13:59:25Z</time>
      </trkpt>
      <trkpt lat="45.61001" lon="6.772">
        <ele>800.6</ele>
        <time>2021-05-28T13:59:26Z</time>
      </trkpt>
      <trkpt lat="45.61007" lon="6.77201">
        <ele>800.6</ele>
        <time>2021-05-28T13:59:27Z</time>
      </trkpt>
      <trkpt lat="45.61013" lon="6.77201">
        <ele>800.2</ele>
        <time>2021-05-28T13:59:28Z</time>
      </trkpt>
      <trkpt lat="45.6102" lon="6.77203">
        <ele>800.2</ele>
        <time>2021-05-28T13:59:29Z</time>
      </trkpt>
      <trkpt lat="45.61025" lon="6.77205">
        <ele>800.2</ele>
        <time>2021-05-28T13:59:30Z</time>
      </trkpt>
      <trkpt lat="45.61031" lon="6.77207">
        <ele>800.2</ele>
        <time>2021-05-28T13:59:31Z</time>
      </trkpt>
      <trkpt lat="45.61037" lon="6.7721">
        <ele>800.2</ele>
        <time>2021-05-28T13:59:32Z</time>
      </trkpt>
      <trkpt lat="45.61043" lon="6.77213">
        <ele>800.6</ele>
        <time>2021-05-28T13:59:33Z</time>
      </trkpt>
      <trkpt lat="45.61048" lon="6.77216">
        <ele>800.6</ele>
        <time>2021-05-28T13:59:34Z</time>
      </trkpt>
      <trkpt lat="45.61053" lon="6.77219">
        <ele>801</ele>
        <time>2021-05-28T13:59:35Z</time>
      </trkpt>
      <trkpt lat="45.61059" lon="6.77222">
        <ele>801.2</ele>
        <time>2021-05-28T13:59:36Z</time>
      </trkpt>
      <trkpt lat="45.61064" lon="6.77225">
        <ele>801.4</ele>
        <time>2021-05-28T13:59:37Z</time>
      </trkpt>
      <trkpt lat="45.61069" lon="6.77229">
        <ele>801.6</ele>
        <time>2021-05-28T13:59:38Z</time>
      </trkpt>
      <trkpt lat="45.61075" lon="6.77232">
        <ele>802</ele>
        <time>2021-05-28T13:59:39Z</time>
      </trkpt>
      <trkpt lat="45.6108" lon="6.77237">
        <ele>802.2</ele>
        <time>2021-05-28T13:59:40Z</time>
      </trkpt>
      <trkpt lat="45.61085" lon="6.77241">
        <ele>802.2</ele>
        <time>2021-05-28T13:59:41Z</time>
      </trkpt>
      <trkpt lat="45.61091" lon="6.77245">
        <ele>802.2</ele>
        <time>2021-05-28T13:59:42Z</time>
      </trkpt>
      <trkpt lat="45.61101" lon="6.77253">
        <ele>802.6</ele>
        <time>2021-05-28T13:59:44Z</time>
      </trkpt>
      <trkpt lat="45.61106" lon="6.77258">
        <ele>802.8</ele>
        <time>2021-05-28T13:59:45Z</time>
      </trkpt>
      <trkpt lat="45.61111" lon="6.77262">
        <ele>803</ele>
        <time>2021-05-28T13:59:46Z</time>
      </trkpt>
      <trkpt lat="45.61115" lon="6.77267">
        <ele>803.4</ele>
        <time>2021-05-28T13:59:47Z</time>
      </trkpt>
      <trkpt lat="45.61119" lon="6.77272">
        <ele>803.6</ele>
        <time>2021-05-28T13:59:48Z</time>
      </trkpt>
      <trkpt lat="45.61124" lon="6.77277">
        <ele>803.8</ele>
        <time>2021-05-28T13:59:49Z</time>
      </trkpt>
      <trkpt lat="45.61129" lon="6.77283">
        <ele>803.8</ele>
        <time>2021-05-28T13:59:50Z</time>
      </trkpt>
      <trkpt lat="45.61133" lon="6.77288">
        <ele>803.8</ele>
        <time>2021-05-28T13:59:51Z</time>
      </trkpt>
      <trkpt lat="45.61137" lon="6.77293">
        <ele>804</ele>
        <time>2021-05-28T13:59:52Z</time>
      </trkpt>
      <trkpt lat="45.61141" lon="6.77298">
        <ele>804</ele>
        <time>2021-05-28T13:59:53Z</time>
      </trkpt>
      <trkpt lat="45.61146" lon="6.77304">
        <ele>804</ele>
        <time>2021-05-28T13:59:54Z</time>
      </trkpt>
      <trkpt lat="45.61151" lon="6.77309">
        <ele>804</ele>
        <time>2021-05-28T13:59:55Z</time>
      </trkpt>
      <trkpt lat="45.61155" lon="6.77314">
        <ele>804</ele>
        <time>2021-05-28T13:59:56Z</time>
      </trkpt>
      <trkpt lat="45.6116" lon="6.7732">
        <ele>804</ele>
        <time>2021-05-28T13:59:57Z</time>
      </trkpt>
      <trkpt lat="45.61164" lon="6.77327">
        <ele>804.2</ele>
        <time>2021-05-28T13:59:58Z</time>
      </trkpt>
      <trkpt lat="45.61166" lon="6.77334">
        <ele>804.4</ele>
        <time>2021-05-28T13:59:59Z</time>
      </trkpt>
      <trkpt lat="45.61167" lon="6.77342">
        <ele>804.4</ele>
        <time>2021-05-28T14:00:00Z</time>
      </trkpt>
      <trkpt lat="45.61169" lon="6.7735">
        <ele>804.8</ele>
        <time>2021-05-28T14:00:01Z</time>
      </trkpt>
      <trkpt lat="45.61171" lon="6.77356">
        <ele>804.8</ele>
        <time>2021-05-28T14:00:02Z</time>
      </trkpt>
      <trkpt lat="45.61174" lon="6.77358">
        <ele>804.8</ele>
        <time>2021-05-28T14:00:03Z</time>
      </trkpt>
      <trkpt lat="45.61177" lon="6.77358">
        <ele>804.6</ele>
        <time>2021-05-28T14:00:04Z</time>
      </trkpt>
      <trkpt lat="45.6118" lon="6.77356">
        <ele>804.6</ele>
        <time>2021-05-28T14:00:05Z</time>
      </trkpt>
      <trkpt lat="45.61183" lon="6.77354">
        <ele>804.6</ele>
        <time>2021-05-28T14:00:06Z</time>
      </trkpt>
      <trkpt lat="45.61187" lon="6.7735">
        <ele>804.4</ele>
        <time>2021-05-28T14:00:07Z</time>
      </trkpt>
      <trkpt lat="45.61191" lon="6.77345">
        <ele>804.6</ele>
        <time>2021-05-28T14:00:08Z</time>
      </trkpt>
      <trkpt lat="45.61195" lon="6.77341">
        <ele>804.6</ele>
        <time>2021-05-28T14:00:09Z</time>
      </trkpt>
      <trkpt lat="45.61199" lon="6.77336">
        <ele>804.6</ele>
        <time>2021-05-28T14:00:10Z</time>
      </trkpt>
      <trkpt lat="45.61203" lon="6.7733">
        <ele>804.4</ele>
        <time>2021-05-28T14:00:11Z</time>
      </trkpt>
      <trkpt lat="45.61208" lon="6.77327">
        <ele>804.6</ele>
        <time>2021-05-28T14:00:12Z</time>
      </trkpt>
      <trkpt lat="45.61212" lon="6.77324">
        <ele>804.8</ele>
        <time>2021-05-28T14:00:13Z</time>
      </trkpt>
      <trkpt lat="45.61218" lon="6.7732">
        <ele>805</ele>
        <time>2021-05-28T14:00:14Z</time>
      </trkpt>
      <trkpt lat="45.61223" lon="6.77317">
        <ele>805.2</ele>
        <time>2021-05-28T14:00:15Z</time>
      </trkpt>
      <trkpt lat="45.61228" lon="6.77313">
        <ele>805</ele>
        <time>2021-05-28T14:00:16Z</time>
      </trkpt>
      <trkpt lat="45.61234" lon="6.77308">
        <ele>805.2</ele>
        <time>2021-05-28T14:00:17Z</time>
      </trkpt>
      <trkpt lat="45.6124" lon="6.77305">
        <ele>805</ele>
        <time>2021-05-28T14:00:18Z</time>
      </trkpt>
      <trkpt lat="45.61246" lon="6.77303">
        <ele>804.6</ele>
        <time>2021-05-28T14:00:19Z</time>
      </trkpt>
      <trkpt lat="45.61252" lon="6.77304">
        <ele>804.2</ele>
        <time>2021-05-28T14:00:20Z</time>
      </trkpt>
      <trkpt lat="45.61258" lon="6.77305">
        <ele>803.6</ele>
        <time>2021-05-28T14:00:21Z</time>
      </trkpt>
      <trkpt lat="45.61264" lon="6.77305">
        <ele>803.6</ele>
        <time>2021-05-28T14:00:22Z</time>
      </trkpt>
      <trkpt lat="45.61268" lon="6.77305">
        <ele>803.6</ele>
        <time>2021-05-28T14:00:23Z</time>
      </trkpt>
      <trkpt lat="45.61274" lon="6.77304">
        <ele>803.2</ele>
        <time>2021-05-28T14:00:24Z</time>
      </trkpt>
      <trkpt lat="45.61279" lon="6.77302">
        <ele>803.4</ele>
        <time>2021-05-28T14:00:25Z</time>
      </trkpt>
      <trkpt lat="45.61284" lon="6.77299">
        <ele>803.6</ele>
        <time>2021-05-28T14:00:26Z</time>
      </trkpt>
      <trkpt lat="45.61288" lon="6.77296">
        <ele>803.6</ele>
        <time>2021-05-28T14:00:27Z</time>
      </trkpt>
      <trkpt lat="45.61293" lon="6.77295">
        <ele>803.6</ele>
        <time>2021-05-28T14:00:28Z</time>
      </trkpt>
      <trkpt lat="45.61298" lon="6.77294">
        <ele>803.6</ele>
        <time>2021-05-28T14:00:29Z</time>
      </trkpt>
      <trkpt lat="45.61303" lon="6.77294">
        <ele>803.4</ele>
        <time>2021-05-28T14:00:30Z</time>
      </trkpt>
      <trkpt lat="45.61308" lon="6.77294">
        <ele>803.6</ele>
        <time>2021-05-28T14:00:31Z</time>
      </trkpt>
      <trkpt lat="45.61313" lon="6.77294">
        <ele>804</ele>
        <time>2021-05-28T14:00:32Z</time>
      </trkpt>
      <trkpt lat="45.61318" lon="6.77294">
        <ele>804.4</ele>
        <time>2021-05-28T14:00:33Z</time>
      </trkpt>
      <trkpt lat="45.61323" lon="6.77293">
        <ele>804.6</ele>
        <time>2021-05-28T14:00:34Z</time>
      </trkpt>
      <trkpt lat="45.61328" lon="6.77292">
        <ele>804.8</ele>
        <time>2021-05-28T14:00:35Z</time>
      </trkpt>
      <trkpt lat="45.61333" lon="6.77292">
        <ele>804.8</ele>
        <time>2021-05-28T14:00:36Z</time>
      </trkpt>
      <trkpt lat="45.61338" lon="6.77292">
        <ele>804.8</ele>
        <time>2021-05-28T14:00:37Z</time>
      </trkpt>
      <trkpt lat="45.61343" lon="6.77292">
        <ele>804.8</ele>
        <time>2021-05-28T14:00:38Z</time>
      </trkpt>
      <trkpt lat="45.61348" lon="6.77293">
        <ele>804.8</ele>
        <time>2021-05-28T14:00:39Z</time>
      </trkpt>
      <trkpt lat="45.61352" lon="6.77295">
        <ele>804.6</ele>
        <time>2021-05-28T14:00:40Z</time>
      </trkpt>
      <trkpt lat="45.61357" lon="6.77298">
        <ele>804.6</ele>
        <time>2021-05-28T14:00:41Z</time>
      </trkpt>
      <trkpt lat="45.61361" lon="6.77302">
        <ele>804.4</ele>
        <time>2021-05-28T14:00:42Z</time>
      </trkpt>
      <trkpt lat="45.61365" lon="6.77306">
        <ele>804.2</ele>
        <time>2021-05-28T14:00:43Z</time>
      </trkpt>
      <trkpt lat="45.6137" lon="6.7731">
        <ele>803.8</ele>
        <time>2021-05-28T14:00:44Z</time>
      </trkpt>
      <trkpt lat="45.61374" lon="6.77312">
        <ele>803.4</ele>
        <time>2021-05-28T14:00:45Z</time>
      </trkpt>
      <trkpt lat="45.61393" lon="6.77324">
        <ele>803.4</ele>
        <time>2021-05-28T14:00:49Z</time>
      </trkpt>
      <trkpt lat="45.61397" lon="6.77328">
        <ele>803.4</ele>
        <time>2021-05-28T14:00:50Z</time>
      </trkpt>
      <trkpt lat="45.61402" lon="6.7733">
        <ele>801</ele>
        <time>2021-05-28T14:00:51Z</time>
      </trkpt>
      <trkpt lat="45.61407" lon="6.77332">
        <ele>800.8</ele>
        <time>2021-05-28T14:00:52Z</time>
      </trkpt>
      <trkpt lat="45.61413" lon="6.77335">
        <ele>800.4</ele>
        <time>2021-05-28T14:00:53Z</time>
      </trkpt>
      <trkpt lat="45.61418" lon="6.77338">
        <ele>800.4</ele>
        <time>2021-05-28T14:00:54Z</time>
      </trkpt>
      <trkpt lat="45.61423" lon="6.77342">
        <ele>800.6</ele>
        <time>2021-05-28T14:00:55Z</time>
      </trkpt>
      <trkpt lat="45.61427" lon="6.77346">
        <ele>800.6</ele>
        <time>2021-05-28T14:00:56Z</time>
      </trkpt>
      <trkpt lat="45.61432" lon="6.77351">
        <ele>800.4</ele>
        <time>2021-05-28T14:00:57Z</time>
      </trkpt>
      <trkpt lat="45.61437" lon="6.77355">
        <ele>800</ele>
        <time>2021-05-28T14:00:58Z</time>
      </trkpt>
      <trkpt lat="45.61441" lon="6.77359">
        <ele>800.2</ele>
        <time>2021-05-28T14:00:59Z</time>
      </trkpt>
      <trkpt lat="45.61446" lon="6.77363">
        <ele>800</ele>
        <time>2021-05-28T14:01:00Z</time>
      </trkpt>
      <trkpt lat="45.61451" lon="6.77366">
        <ele>799.8</ele>
        <time>2021-05-28T14:01:01Z</time>
      </trkpt>
      <trkpt lat="45.61456" lon="6.77368">
        <ele>799.4</ele>
        <time>2021-05-28T14:01:02Z</time>
      </trkpt>
      <trkpt lat="45.61462" lon="6.77369">
        <ele>799</ele>
        <time>2021-05-28T14:01:03Z</time>
      </trkpt>
      <trkpt lat="45.61468" lon="6.77369">
        <ele>799</ele>
        <time>2021-05-28T14:01:04Z</time>
      </trkpt>
      <trkpt lat="45.61475" lon="6.77368">
        <ele>798.8</ele>
        <time>2021-05-28T14:01:05Z</time>
      </trkpt>
      <trkpt lat="45.61482" lon="6.77368">
        <ele>798.6</ele>
        <time>2021-05-28T14:01:06Z</time>
      </trkpt>
      <trkpt lat="45.61488" lon="6.77367">
        <ele>799</ele>
        <time>2021-05-28T14:01:07Z</time>
      </trkpt>
      <trkpt lat="45.61495" lon="6.77367">
        <ele>798.8</ele>
        <time>2021-05-28T14:01:08Z</time>
      </trkpt>
      <trkpt lat="45.61501" lon="6.77366">
        <ele>798.6</ele>
        <time>2021-05-28T14:01:09Z</time>
      </trkpt>
      <trkpt lat="45.61508" lon="6.77364">
        <ele>798.6</ele>
        <time>2021-05-28T14:01:10Z</time>
      </trkpt>
      <trkpt lat="45.61515" lon="6.77364">
        <ele>798.6</ele>
        <time>2021-05-28T14:01:11Z</time>
      </trkpt>
      <trkpt lat="45.61522" lon="6.77364">
        <ele>798.6</ele>
        <time>2021-05-28T14:01:12Z</time>
      </trkpt>
      <trkpt lat="45.61528" lon="6.77362">
        <ele>799.4</ele>
        <time>2021-05-28T14:01:13Z</time>
      </trkpt>
      <trkpt lat="45.61535" lon="6.7736">
        <ele>799.8</ele>
        <time>2021-05-28T14:01:14Z</time>
      </trkpt>
      <trkpt lat="45.61542" lon="6.77357">
        <ele>800</ele>
        <time>2021-05-28T14:01:15Z</time>
      </trkpt>
      <trkpt lat="45.61548" lon="6.77355">
        <ele>800.2</ele>
        <time>2021-05-28T14:01:16Z</time>
      </trkpt>
      <trkpt lat="45.61555" lon="6.77353">
        <ele>800.4</ele>
        <time>2021-05-28T14:01:17Z</time>
      </trkpt>
      <trkpt lat="45.61561" lon="6.77351">
        <ele>800.6</ele>
        <time>2021-05-28T14:01:18Z</time>
      </trkpt>
      <trkpt lat="45.61568" lon="6.77349">
        <ele>801</ele>
        <time>2021-05-28T14:01:19Z</time>
      </trkpt>
      <trkpt lat="45.61574" lon="6.77347">
        <ele>801</ele>
        <time>2021-05-28T14:01:20Z</time>
      </trkpt>
      <trkpt lat="45.61581" lon="6.77346">
        <ele>801.4</ele>
        <time>2021-05-28T14:01:21Z</time>
      </trkpt>
      <trkpt lat="45.61587" lon="6.77344">
        <ele>801.8</ele>
        <time>2021-05-28T14:01:22Z</time>
      </trkpt>
      <trkpt lat="45.61594" lon="6.77343">
        <ele>802</ele>
        <time>2021-05-28T14:01:23Z</time>
      </trkpt>
      <trkpt lat="45.61601" lon="6.77342">
        <ele>802</ele>
        <time>2021-05-28T14:01:24Z</time>
      </trkpt>
      <trkpt lat="45.61607" lon="6.77341">
        <ele>802</ele>
        <time>2021-05-28T14:01:25Z</time>
      </trkpt>
      <trkpt lat="45.61613" lon="6.7734">
        <ele>802</ele>
        <time>2021-05-28T14:01:26Z</time>
      </trkpt>
      <trkpt lat="45.6162" lon="6.77339">
        <ele>802.2</ele>
        <time>2021-05-28T14:01:27Z</time>
      </trkpt>
      <trkpt lat="45.61626" lon="6.77338">
        <ele>802.2</ele>
        <time>2021-05-28T14:01:28Z</time>
      </trkpt>
      <trkpt lat="45.61633" lon="6.77338">
        <ele>802.8</ele>
        <time>2021-05-28T14:01:29Z</time>
      </trkpt>
      <trkpt lat="45.6164" lon="6.77337">
        <ele>802.6</ele>
        <time>2021-05-28T14:01:30Z</time>
      </trkpt>
      <trkpt lat="45.61647" lon="6.77335">
        <ele>803</ele>
        <time>2021-05-28T14:01:31Z</time>
      </trkpt>
      <trkpt lat="45.61653" lon="6.77334">
        <ele>803.4</ele>
        <time>2021-05-28T14:01:32Z</time>
      </trkpt>
      <trkpt lat="45.6166" lon="6.77332">
        <ele>803.6</ele>
        <time>2021-05-28T14:01:33Z</time>
      </trkpt>
      <trkpt lat="45.61667" lon="6.77331">
        <ele>804.4</ele>
        <time>2021-05-28T14:01:34Z</time>
      </trkpt>
      <trkpt lat="45.61674" lon="6.7733">
        <ele>804.8</ele>
        <time>2021-05-28T14:01:35Z</time>
      </trkpt>
      <trkpt lat="45.61681" lon="6.77329">
        <ele>804.8</ele>
        <time>2021-05-28T14:01:36Z</time>
      </trkpt>
      <trkpt lat="45.61687" lon="6.77328">
        <ele>805</ele>
        <time>2021-05-28T14:01:37Z</time>
      </trkpt>
      <trkpt lat="45.61694" lon="6.77325">
        <ele>805.2</ele>
        <time>2021-05-28T14:01:38Z</time>
      </trkpt>
      <trkpt lat="45.61701" lon="6.77323">
        <ele>805.4</ele>
        <time>2021-05-28T14:01:39Z</time>
      </trkpt>
      <trkpt lat="45.61708" lon="6.7732">
        <ele>805.4</ele>
        <time>2021-05-28T14:01:40Z</time>
      </trkpt>
      <trkpt lat="45.61714" lon="6.77318">
        <ele>805.6</ele>
        <time>2021-05-28T14:01:41Z</time>
      </trkpt>
      <trkpt lat="45.61721" lon="6.77316">
        <ele>805.4</ele>
        <time>2021-05-28T14:01:42Z</time>
      </trkpt>
      <trkpt lat="45.61728" lon="6.77314">
        <ele>805.6</ele>
        <time>2021-05-28T14:01:43Z</time>
      </trkpt>
      <trkpt lat="45.61735" lon="6.77313">
        <ele>806</ele>
        <time>2021-05-28T14:01:44Z</time>
      </trkpt>
      <trkpt lat="45.61741" lon="6.77311">
        <ele>805.8</ele>
        <time>2021-05-28T14:01:45Z</time>
      </trkpt>
      <trkpt lat="45.61748" lon="6.77309">
        <ele>805.8</ele>
        <time>2021-05-28T14:01:46Z</time>
      </trkpt>
      <trkpt lat="45.61754" lon="6.77308">
        <ele>805.8</ele>
        <time>2021-05-28T14:01:47Z</time>
      </trkpt>
      <trkpt lat="45.61761" lon="6.77306">
        <ele>805.8</ele>
        <time>2021-05-28T14:01:48Z</time>
      </trkpt>
      <trkpt lat="45.61767" lon="6.77304">
        <ele>806</ele>
        <time>2021-05-28T14:01:49Z</time>
      </trkpt>
      <trkpt lat="45.61773" lon="6.77303">
        <ele>805.8</ele>
        <time>2021-05-28T14:01:50Z</time>
      </trkpt>
      <trkpt lat="45.6178" lon="6.77302">
        <ele>806</ele>
        <time>2021-05-28T14:01:51Z</time>
      </trkpt>
      <trkpt lat="45.61786" lon="6.77301">
        <ele>805.6</ele>
        <time>2021-05-28T14:01:52Z</time>
      </trkpt>
      <trkpt lat="45.61792" lon="6.773">
        <ele>805.4</ele>
        <time>2021-05-28T14:01:53Z</time>
      </trkpt>
      <trkpt lat="45.61798" lon="6.77299">
        <ele>805.6</ele>
        <time>2021-05-28T14:01:54Z</time>
      </trkpt>
      <trkpt lat="45.61804" lon="6.77298">
        <ele>805.6</ele>
        <time>2021-05-28T14:01:55Z</time>
      </trkpt>
      <trkpt lat="45.6181" lon="6.77296">
        <ele>806</ele>
        <time>2021-05-28T14:01:56Z</time>
      </trkpt>
      <trkpt lat="45.61816" lon="6.77295">
        <ele>806.2</ele>
        <time>2021-05-28T14:01:57Z</time>
      </trkpt>
      <trkpt lat="45.61821" lon="6.77293">
        <ele>806.6</ele>
        <time>2021-05-28T14:01:58Z</time>
      </trkpt>
      <trkpt lat="45.61828" lon="6.77292">
        <ele>806.8</ele>
        <time>2021-05-28T14:01:59Z</time>
      </trkpt>
      <trkpt lat="45.61834" lon="6.7729">
        <ele>807</ele>
        <time>2021-05-28T14:02:00Z</time>
      </trkpt>
      <trkpt lat="45.6184" lon="6.77289">
        <ele>807</ele>
        <time>2021-05-28T14:02:01Z</time>
      </trkpt>
      <trkpt lat="45.61846" lon="6.77287">
        <ele>807.2</ele>
        <time>2021-05-28T14:02:02Z</time>
      </trkpt>
      <trkpt lat="45.61852" lon="6.77286">
        <ele>807.2</ele>
        <time>2021-05-28T14:02:03Z</time>
      </trkpt>
      <trkpt lat="45.61858" lon="6.77284">
        <ele>807</ele>
        <time>2021-05-28T14:02:04Z</time>
      </trkpt>
      <trkpt lat="45.61864" lon="6.77283">
        <ele>807</ele>
        <time>2021-05-28T14:02:05Z</time>
      </trkpt>
      <trkpt lat="45.61871" lon="6.77282">
        <ele>807</ele>
        <time>2021-05-28T14:02:06Z</time>
      </trkpt>
      <trkpt lat="45.61876" lon="6.77282">
        <ele>807</ele>
        <time>2021-05-28T14:02:07Z</time>
      </trkpt>
      <trkpt lat="45.61882" lon="6.77282">
        <ele>807.2</ele>
        <time>2021-05-28T14:02:08Z</time>
      </trkpt>
      <trkpt lat="45.61888" lon="6.77282">
        <ele>807.6</ele>
        <time>2021-05-28T14:02:09Z</time>
      </trkpt>
      <trkpt lat="45.61894" lon="6.77282">
        <ele>807.6</ele>
        <time>2021-05-28T14:02:10Z</time>
      </trkpt>
      <trkpt lat="45.619" lon="6.77281">
        <ele>807.8</ele>
        <time>2021-05-28T14:02:11Z</time>
      </trkpt>
      <trkpt lat="45.6191" lon="6.77274">
        <ele>808.2</ele>
        <time>2021-05-28T14:02:13Z</time>
      </trkpt>
      <trkpt lat="45.61915" lon="6.7727">
        <ele>808.2</ele>
        <time>2021-05-28T14:02:14Z</time>
      </trkpt>
      <trkpt lat="45.61918" lon="6.77264">
        <ele>808.2</ele>
        <time>2021-05-28T14:02:15Z</time>
      </trkpt>
      <trkpt lat="45.61922" lon="6.7726">
        <ele>808.2</ele>
        <time>2021-05-28T14:02:16Z</time>
      </trkpt>
      <trkpt lat="45.61925" lon="6.77255">
        <ele>808.2</ele>
        <time>2021-05-28T14:02:17Z</time>
      </trkpt>
      <trkpt lat="45.61929" lon="6.77251">
        <ele>808.2</ele>
        <time>2021-05-28T14:02:18Z</time>
      </trkpt>
      <trkpt lat="45.61932" lon="6.77246">
        <ele>808.2</ele>
        <time>2021-05-28T14:02:19Z</time>
      </trkpt>
      <trkpt lat="45.61936" lon="6.77242">
        <ele>808.2</ele>
        <time>2021-05-28T14:02:20Z</time>
      </trkpt>
      <trkpt lat="45.61939" lon="6.77239">
        <ele>808.6</ele>
        <time>2021-05-28T14:02:21Z</time>
      </trkpt>
      <trkpt lat="45.61943" lon="6.77236">
        <ele>808.4</ele>
        <time>2021-05-28T14:02:22Z</time>
      </trkpt>
      <trkpt lat="45.61946" lon="6.77233">
        <ele>808.6</ele>
        <time>2021-05-28T14:02:23Z</time>
      </trkpt>
      <trkpt lat="45.61949" lon="6.7723">
        <ele>808.4</ele>
        <time>2021-05-28T14:02:24Z</time>
      </trkpt>
      <trkpt lat="45.61952" lon="6.77227">
        <ele>808.4</ele>
        <time>2021-05-28T14:02:25Z</time>
      </trkpt>
      <trkpt lat="45.61955" lon="6.77225">
        <ele>808.2</ele>
        <time>2021-05-28T14:02:26Z</time>
      </trkpt>
      <trkpt lat="45.61957" lon="6.77225">
        <ele>808</ele>
        <time>2021-05-28T14:02:27Z</time>
      </trkpt>
      <trkpt lat="45.61959" lon="6.77227">
        <ele>807.8</ele>
        <time>2021-05-28T14:02:28Z</time>
      </trkpt>
      <trkpt lat="45.61961" lon="6.7723">
        <ele>808</ele>
        <time>2021-05-28T14:02:29Z</time>
      </trkpt>
      <trkpt lat="45.61963" lon="6.77234">
        <ele>807.6</ele>
        <time>2021-05-28T14:02:30Z</time>
      </trkpt>
      <trkpt lat="45.61965" lon="6.77238">
        <ele>807.2</ele>
        <time>2021-05-28T14:02:31Z</time>
      </trkpt>
      <trkpt lat="45.61968" lon="6.77244">
        <ele>806.6</ele>
        <time>2021-05-28T14:02:33Z</time>
      </trkpt>
      <trkpt lat="45.61968" lon="6.77246">
        <ele>806.4</ele>
        <time>2021-05-28T14:02:34Z</time>
      </trkpt>
      <trkpt lat="45.61969" lon="6.77249">
        <ele>806.2</ele>
        <time>2021-05-28T14:02:35Z</time>
      </trkpt>
      <trkpt lat="45.61971" lon="6.77251">
        <ele>806</ele>
        <time>2021-05-28T14:02:36Z</time>
      </trkpt>
      <trkpt lat="45.61973" lon="6.77252">
        <ele>805.8</ele>
        <time>2021-05-28T14:02:38Z</time>
      </trkpt>
      <trkpt lat="45.61975" lon="6.77251">
        <ele>805.4</ele>
        <time>2021-05-28T14:02:40Z</time>
      </trkpt>
      <trkpt lat="45.61977" lon="6.77255">
        <ele>805.4</ele>
        <time>2021-05-28T14:17:16Z</time>
      </trkpt>
      <trkpt lat="45.61975" lon="6.77254">
        <ele>805.4</ele>
        <time>2021-05-28T14:17:17Z</time>
      </trkpt>
      <trkpt lat="45.61973" lon="6.77252">
        <ele>785.4</ele>
        <time>2021-05-28T14:17:18Z</time>
      </trkpt>
      <trkpt lat="45.61971" lon="6.77249">
        <ele>785.4</ele>
        <time>2021-05-28T14:17:19Z</time>
      </trkpt>
      <trkpt lat="45.61968" lon="6.77247">
        <ele>785.2</ele>
        <time>2021-05-28T14:17:20Z</time>
      </trkpt>
      <trkpt lat="45.61965" lon="6.77244">
        <ele>785.2</ele>
        <time>2021-05-28T14:17:21Z</time>
      </trkpt>
      <trkpt lat="45.61963" lon="6.77241">
        <ele>785.4</ele>
        <time>2021-05-28T14:17:22Z</time>
      </trkpt>
      <trkpt lat="45.6196" lon="6.77238">
        <ele>785.4</ele>
        <time>2021-05-28T14:17:23Z</time>
      </trkpt>
      <trkpt lat="45.61959" lon="6.77234">
        <ele>785.8</ele>
        <time>2021-05-28T14:17:24Z</time>
      </trkpt>
      <trkpt lat="45.61959" lon="6.77229">
        <ele>786.6</ele>
        <time>2021-05-28T14:17:25Z</time>
      </trkpt>
      <trkpt lat="45.6196" lon="6.77225">
        <ele>787.4</ele>
        <time>2021-05-28T14:17:26Z</time>
      </trkpt>
      <trkpt lat="45.61963" lon="6.77221">
        <ele>788.2</ele>
        <time>2021-05-28T14:17:27Z</time>
      </trkpt>
      <trkpt lat="45.61966" lon="6.77218">
        <ele>789.2</ele>
        <time>2021-05-28T14:17:28Z</time>
      </trkpt>
      <trkpt lat="45.6197" lon="6.77214">
        <ele>790</ele>
        <time>2021-05-28T14:17:29Z</time>
      </trkpt>
      <trkpt lat="45.61973" lon="6.77211">
        <ele>790.8</ele>
        <time>2021-05-28T14:17:30Z</time>
      </trkpt>
      <trkpt lat="45.61977" lon="6.77208">
        <ele>791.6</ele>
        <time>2021-05-28T14:17:31Z</time>
      </trkpt>
      <trkpt lat="45.61981" lon="6.77206">
        <ele>792.4</ele>
        <time>2021-05-28T14:17:32Z</time>
      </trkpt>
      <trkpt lat="45.61984" lon="6.77204">
        <ele>793.2</ele>
        <time>2021-05-28T14:17:33Z</time>
      </trkpt>
      <trkpt lat="45.61987" lon="6.77202">
        <ele>793.8</ele>
        <time>2021-05-28T14:17:34Z</time>
      </trkpt>
      <trkpt lat="45.6199" lon="6.77199">
        <ele>794.4</ele>
        <time>2021-05-28T14:17:35Z</time>
      </trkpt>
      <trkpt lat="45.61993" lon="6.77197">
        <ele>794.6</ele>
        <time>2021-05-28T14:17:36Z</time>
      </trkpt>
      <trkpt lat="45.61997" lon="6.77194">
        <ele>795.2</ele>
        <time>2021-05-28T14:17:37Z</time>
      </trkpt>
      <trkpt lat="45.62001" lon="6.7719">
        <ele>795.6</ele>
        <time>2021-05-28T14:17:38Z</time>
      </trkpt>
      <trkpt lat="45.62004" lon="6.77187">
        <ele>795.8</ele>
        <time>2021-05-28T14:17:39Z</time>
      </trkpt>
      <trkpt lat="45.62007" lon="6.77183">
        <ele>796.2</ele>
        <time>2021-05-28T14:17:40Z</time>
      </trkpt>
      <trkpt lat="45.6201" lon="6.77179">
        <ele>796.4</ele>
        <time>2021-05-28T14:17:41Z</time>
      </trkpt>
      <trkpt lat="45.62013" lon="6.77175">
        <ele>796.8</ele>
        <time>2021-05-28T14:17:42Z</time>
      </trkpt>
      <trkpt lat="45.62016" lon="6.77172">
        <ele>797.2</ele>
        <time>2021-05-28T14:17:43Z</time>
      </trkpt>
      <trkpt lat="45.62019" lon="6.77168">
        <ele>797.8</ele>
        <time>2021-05-28T14:17:44Z</time>
      </trkpt>
      <trkpt lat="45.62022" lon="6.77165">
        <ele>798.2</ele>
        <time>2021-05-28T14:17:45Z</time>
      </trkpt>
      <trkpt lat="45.62024" lon="6.77161">
        <ele>798.4</ele>
        <time>2021-05-28T14:17:46Z</time>
      </trkpt>
      <trkpt lat="45.62026" lon="6.77158">
        <ele>798.8</ele>
        <time>2021-05-28T14:17:47Z</time>
      </trkpt>
      <trkpt lat="45.62028" lon="6.77154">
        <ele>799.2</ele>
        <time>2021-05-28T14:17:48Z</time>
      </trkpt>
      <trkpt lat="45.62029" lon="6.7715">
        <ele>799.2</ele>
        <time>2021-05-28T14:17:49Z</time>
      </trkpt>
      <trkpt lat="45.62031" lon="6.77146">
        <ele>799.6</ele>
        <time>2021-05-28T14:17:50Z</time>
      </trkpt>
      <trkpt lat="45.62033" lon="6.77142">
        <ele>799.6</ele>
        <time>2021-05-28T14:17:51Z</time>
      </trkpt>
      <trkpt lat="45.62036" lon="6.77139">
        <ele>799.8</ele>
        <time>2021-05-28T14:17:52Z</time>
      </trkpt>
      <trkpt lat="45.6204" lon="6.77138">
        <ele>800</ele>
        <time>2021-05-28T14:17:53Z</time>
      </trkpt>
      <trkpt lat="45.62044" lon="6.77138">
        <ele>800.4</ele>
        <time>2021-05-28T14:17:54Z</time>
      </trkpt>
      <trkpt lat="45.62048" lon="6.77141">
        <ele>801</ele>
        <time>2021-05-28T14:17:55Z</time>
      </trkpt>
      <trkpt lat="45.62051" lon="6.77146">
        <ele>801.4</ele>
        <time>2021-05-28T14:17:56Z</time>
      </trkpt>
      <trkpt lat="45.62054" lon="6.77152">
        <ele>801.8</ele>
        <time>2021-05-28T14:17:57Z</time>
      </trkpt>
      <trkpt lat="45.62057" lon="6.77159">
        <ele>802.2</ele>
        <time>2021-05-28T14:17:58Z</time>
      </trkpt>
      <trkpt lat="45.6206" lon="6.77166">
        <ele>802.6</ele>
        <time>2021-05-28T14:17:59Z</time>
      </trkpt>
      <trkpt lat="45.62063" lon="6.77173">
        <ele>803.2</ele>
        <time>2021-05-28T14:18:00Z</time>
      </trkpt>
      <trkpt lat="45.62066" lon="6.7718">
        <ele>803.4</ele>
        <time>2021-05-28T14:18:01Z</time>
      </trkpt>
      <trkpt lat="45.62069" lon="6.77187">
        <ele>803.8</ele>
        <time>2021-05-28T14:18:02Z</time>
      </trkpt>
      <trkpt lat="45.62072" lon="6.77195">
        <ele>804</ele>
        <time>2021-05-28T14:18:03Z</time>
      </trkpt>
      <trkpt lat="45.62076" lon="6.77202">
        <ele>804.2</ele>
        <time>2021-05-28T14:18:04Z</time>
      </trkpt>
      <trkpt lat="45.62079" lon="6.7721">
        <ele>804.6</ele>
        <time>2021-05-28T14:18:05Z</time>
      </trkpt>
      <trkpt lat="45.62082" lon="6.77217">
        <ele>804.6</ele>
        <time>2021-05-28T14:18:06Z</time>
      </trkpt>
      <trkpt lat="45.62085" lon="6.77225">
        <ele>804.8</ele>
        <time>2021-05-28T14:18:07Z</time>
      </trkpt>
      <trkpt lat="45.62088" lon="6.77233">
        <ele>804.4</ele>
        <time>2021-05-28T14:18:08Z</time>
      </trkpt>
      <trkpt lat="45.62091" lon="6.7724">
        <ele>804.6</ele>
        <time>2021-05-28T14:18:09Z</time>
      </trkpt>
      <trkpt lat="45.62094" lon="6.77248">
        <ele>804.8</ele>
        <time>2021-05-28T14:18:10Z</time>
      </trkpt>
      <trkpt lat="45.62097" lon="6.77256">
        <ele>804.8</ele>
        <time>2021-05-28T14:18:11Z</time>
      </trkpt>
      <trkpt lat="45.621" lon="6.77263">
        <ele>805.2</ele>
        <time>2021-05-28T14:18:12Z</time>
      </trkpt>
      <trkpt lat="45.62104" lon="6.7727">
        <ele>805.6</ele>
        <time>2021-05-28T14:18:13Z</time>
      </trkpt>
      <trkpt lat="45.62107" lon="6.77278">
        <ele>805.6</ele>
        <time>2021-05-28T14:18:14Z</time>
      </trkpt>
      <trkpt lat="45.62109" lon="6.77286">
        <ele>805.8</ele>
        <time>2021-05-28T14:18:15Z</time>
      </trkpt>
      <trkpt lat="45.62112" lon="6.77294">
        <ele>806</ele>
        <time>2021-05-28T14:18:16Z</time>
      </trkpt>
      <trkpt lat="45.62116" lon="6.77302">
        <ele>806</ele>
        <time>2021-05-28T14:18:17Z</time>
      </trkpt>
      <trkpt lat="45.62118" lon="6.7731">
        <ele>806</ele>
        <time>2021-05-28T14:18:18Z</time>
      </trkpt>
      <trkpt lat="45.62122" lon="6.77319">
        <ele>805.8</ele>
        <time>2021-05-28T14:18:19Z</time>
      </trkpt>
      <trkpt lat="45.62124" lon="6.77327">
        <ele>806</ele>
        <time>2021-05-28T14:18:20Z</time>
      </trkpt>
      <trkpt lat="45.62128" lon="6.77335">
        <ele>806.2</ele>
        <time>2021-05-28T14:18:21Z</time>
      </trkpt>
      <trkpt lat="45.6213" lon="6.77343">
        <ele>806.2</ele>
        <time>2021-05-28T14:18:22Z</time>
      </trkpt>
      <trkpt lat="45.62133" lon="6.77352">
        <ele>806.4</ele>
        <time>2021-05-28T14:18:23Z</time>
      </trkpt>
      <trkpt lat="45.62137" lon="6.7736">
        <ele>806.8</ele>
        <time>2021-05-28T14:18:24Z</time>
      </trkpt>
      <trkpt lat="45.6214" lon="6.77368">
        <ele>807</ele>
        <time>2021-05-28T14:18:25Z</time>
      </trkpt>
      <trkpt lat="45.62144" lon="6.77377">
        <ele>807</ele>
        <time>2021-05-28T14:18:26Z</time>
      </trkpt>
      <trkpt lat="45.62147" lon="6.77386">
        <ele>807.4</ele>
        <time>2021-05-28T14:18:27Z</time>
      </trkpt>
      <trkpt lat="45.6215" lon="6.77395">
        <ele>806.8</ele>
        <time>2021-05-28T14:18:28Z</time>
      </trkpt>
      <trkpt lat="45.62152" lon="6.77405">
        <ele>806.2</ele>
        <time>2021-05-28T14:18:29Z</time>
      </trkpt>
      <trkpt lat="45.62155" lon="6.77414">
        <ele>806.2</ele>
        <time>2021-05-28T14:18:30Z</time>
      </trkpt>
      <trkpt lat="45.62158" lon="6.77424">
        <ele>805.4</ele>
        <time>2021-05-28T14:18:31Z</time>
      </trkpt>
      <trkpt lat="45.62162" lon="6.77432">
        <ele>805.2</ele>
        <time>2021-05-28T14:18:32Z</time>
      </trkpt>
      <trkpt lat="45.62165" lon="6.77441">
        <ele>805</ele>
        <time>2021-05-28T14:18:33Z</time>
      </trkpt>
      <trkpt lat="45.62168" lon="6.7745">
        <ele>805.2</ele>
        <time>2021-05-28T14:18:34Z</time>
      </trkpt>
      <trkpt lat="45.62172" lon="6.77459">
        <ele>805.4</ele>
        <time>2021-05-28T14:18:35Z</time>
      </trkpt>
      <trkpt lat="45.62175" lon="6.77468">
        <ele>805.8</ele>
        <time>2021-05-28T14:18:36Z</time>
      </trkpt>
      <trkpt lat="45.62179" lon="6.77476">
        <ele>806.2</ele>
        <time>2021-05-28T14:18:37Z</time>
      </trkpt>
      <trkpt lat="45.62182" lon="6.77485">
        <ele>806.4</ele>
        <time>2021-05-28T14:18:38Z</time>
      </trkpt>
      <trkpt lat="45.62187" lon="6.77494">
        <ele>807</ele>
        <time>2021-05-28T14:18:39Z</time>
      </trkpt>
      <trkpt lat="45.6219" lon="6.77503">
        <ele>807.4</ele>
        <time>2021-05-28T14:18:40Z</time>
      </trkpt>
      <trkpt lat="45.62194" lon="6.77511">
        <ele>807.8</ele>
        <time>2021-05-28T14:18:41Z</time>
      </trkpt>
      <trkpt lat="45.62197" lon="6.7752">
        <ele>807.8</ele>
        <time>2021-05-28T14:18:42Z</time>
      </trkpt>
      <trkpt lat="45.62202" lon="6.77528">
        <ele>807.8</ele>
        <time>2021-05-28T14:18:43Z</time>
      </trkpt>
      <trkpt lat="45.62205" lon="6.77537">
        <ele>808.2</ele>
        <time>2021-05-28T14:18:44Z</time>
      </trkpt>
      <trkpt lat="45.62209" lon="6.77545">
        <ele>808.8</ele>
        <time>2021-05-28T14:18:45Z</time>
      </trkpt>
      <trkpt lat="45.62213" lon="6.77553">
        <ele>809</ele>
        <time>2021-05-28T14:18:46Z</time>
      </trkpt>
      <trkpt lat="45.62216" lon="6.77562">
        <ele>809.6</ele>
        <time>2021-05-28T14:18:47Z</time>
      </trkpt>
      <trkpt lat="45.6222" lon="6.7757">
        <ele>810</ele>
        <time>2021-05-28T14:18:48Z</time>
      </trkpt>
      <trkpt lat="45.62223" lon="6.77577">
        <ele>810.2</ele>
        <time>2021-05-28T14:18:49Z</time>
      </trkpt>
      <trkpt lat="45.62227" lon="6.77585">
        <ele>810.6</ele>
        <time>2021-05-28T14:18:50Z</time>
      </trkpt>
      <trkpt lat="45.62231" lon="6.77593">
        <ele>811.2</ele>
        <time>2021-05-28T14:18:51Z</time>
      </trkpt>
      <trkpt lat="45.62234" lon="6.77601">
        <ele>811.8</ele>
        <time>2021-05-28T14:18:52Z</time>
      </trkpt>
      <trkpt lat="45.62237" lon="6.77608">
        <ele>812.2</ele>
        <time>2021-05-28T14:18:53Z</time>
      </trkpt>
      <trkpt lat="45.62241" lon="6.77616">
        <ele>812.6</ele>
        <time>2021-05-28T14:18:54Z</time>
      </trkpt>
      <trkpt lat="45.62244" lon="6.77623">
        <ele>813</ele>
        <time>2021-05-28T14:18:55Z</time>
      </trkpt>
      <trkpt lat="45.62248" lon="6.7763">
        <ele>813.6</ele>
        <time>2021-05-28T14:18:56Z</time>
      </trkpt>
      <trkpt lat="45.62252" lon="6.77638">
        <ele>814</ele>
        <time>2021-05-28T14:18:57Z</time>
      </trkpt>
      <trkpt lat="45.62255" lon="6.77646">
        <ele>814.2</ele>
        <time>2021-05-28T14:18:58Z</time>
      </trkpt>
      <trkpt lat="45.62259" lon="6.77653">
        <ele>814.4</ele>
        <time>2021-05-28T14:18:59Z</time>
      </trkpt>
      <trkpt lat="45.62262" lon="6.7766">
        <ele>815</ele>
        <time>2021-05-28T14:19:00Z</time>
      </trkpt>
      <trkpt lat="45.62265" lon="6.77667">
        <ele>815.2</ele>
        <time>2021-05-28T14:19:01Z</time>
      </trkpt>
      <trkpt lat="45.62269" lon="6.77674">
        <ele>815.2</ele>
        <time>2021-05-28T14:19:02Z</time>
      </trkpt>
      <trkpt lat="45.62272" lon="6.77681">
        <ele>814.8</ele>
        <time>2021-05-28T14:19:03Z</time>
      </trkpt>
      <trkpt lat="45.62276" lon="6.77688">
        <ele>814.6</ele>
        <time>2021-05-28T14:19:04Z</time>
      </trkpt>
      <trkpt lat="45.62282" lon="6.77702">
        <ele>817</ele>
        <time>2021-05-28T14:19:06Z</time>
      </trkpt>
      <trkpt lat="45.62285" lon="6.77708">
        <ele>818.2</ele>
        <time>2021-05-28T14:19:07Z</time>
      </trkpt>
      <trkpt lat="45.62288" lon="6.77714">
        <ele>818.8</ele>
        <time>2021-05-28T14:19:08Z</time>
      </trkpt>
      <trkpt lat="45.62292" lon="6.77721">
        <ele>819.6</ele>
        <time>2021-05-28T14:19:09Z</time>
      </trkpt>
      <trkpt lat="45.62295" lon="6.77728">
        <ele>821</ele>
        <time>2021-05-28T14:19:10Z</time>
      </trkpt>
      <trkpt lat="45.62298" lon="6.77734">
        <ele>821.4</ele>
        <time>2021-05-28T14:19:11Z</time>
      </trkpt>
      <trkpt lat="45.623" lon="6.77741">
        <ele>822.2</ele>
        <time>2021-05-28T14:19:12Z</time>
      </trkpt>
      <trkpt lat="45.62303" lon="6.77748">
        <ele>822.2</ele>
        <time>2021-05-28T14:19:13Z</time>
      </trkpt>
      <trkpt lat="45.62306" lon="6.77755">
        <ele>822.4</ele>
        <time>2021-05-28T14:19:14Z</time>
      </trkpt>
      <trkpt lat="45.62308" lon="6.77762">
        <ele>822.4</ele>
        <time>2021-05-28T14:19:15Z</time>
      </trkpt>
      <trkpt lat="45.62311" lon="6.77769">
        <ele>822.6</ele>
        <time>2021-05-28T14:19:16Z</time>
      </trkpt>
      <trkpt lat="45.62314" lon="6.77776">
        <ele>822.8</ele>
        <time>2021-05-28T14:19:17Z</time>
      </trkpt>
      <trkpt lat="45.62316" lon="6.77783">
        <ele>822.8</ele>
        <time>2021-05-28T14:19:18Z</time>
      </trkpt>
      <trkpt lat="45.62319" lon="6.7779">
        <ele>823</ele>
        <time>2021-05-28T14:19:19Z</time>
      </trkpt>
      <trkpt lat="45.62322" lon="6.77798">
        <ele>823.4</ele>
        <time>2021-05-28T14:19:20Z</time>
      </trkpt>
      <trkpt lat="45.62324" lon="6.77805">
        <ele>823.4</ele>
        <time>2021-05-28T14:19:21Z</time>
      </trkpt>
      <trkpt lat="45.62327" lon="6.77812">
        <ele>823.4</ele>
        <time>2021-05-28T14:19:22Z</time>
      </trkpt>
      <trkpt lat="45.62329" lon="6.77819">
        <ele>823.2</ele>
        <time>2021-05-28T14:19:23Z</time>
      </trkpt>
      <trkpt lat="45.62331" lon="6.77827">
        <ele>823.4</ele>
        <time>2021-05-28T14:19:24Z</time>
      </trkpt>
      <trkpt lat="45.62332" lon="6.77834">
        <ele>824</ele>
        <time>2021-05-28T14:19:25Z</time>
      </trkpt>
      <trkpt lat="45.62334" lon="6.77842">
        <ele>823.8</ele>
        <time>2021-05-28T14:19:26Z</time>
      </trkpt>
      <trkpt lat="45.62336" lon="6.7785">
        <ele>823.6</ele>
        <time>2021-05-28T14:19:27Z</time>
      </trkpt>
      <trkpt lat="45.6234" lon="6.77855">
        <ele>823.6</ele>
        <time>2021-05-28T14:19:28Z</time>
      </trkpt>
      <trkpt lat="45.62345" lon="6.77858">
        <ele>823.8</ele>
        <time>2021-05-28T14:19:29Z</time>
      </trkpt>
      <trkpt lat="45.6235" lon="6.77859">
        <ele>823.6</ele>
        <time>2021-05-28T14:19:30Z</time>
      </trkpt>
      <trkpt lat="45.62356" lon="6.7786">
        <ele>823.8</ele>
        <time>2021-05-28T14:19:31Z</time>
      </trkpt>
      <trkpt lat="45.62362" lon="6.7786">
        <ele>823.6</ele>
        <time>2021-05-28T14:19:32Z</time>
      </trkpt>
      <trkpt lat="45.62368" lon="6.77861">
        <ele>823.6</ele>
        <time>2021-05-28T14:19:33Z</time>
      </trkpt>
      <trkpt lat="45.62374" lon="6.77862">
        <ele>823.6</ele>
        <time>2021-05-28T14:19:34Z</time>
      </trkpt>
      <trkpt lat="45.6238" lon="6.77865">
        <ele>824</ele>
        <time>2021-05-28T14:19:35Z</time>
      </trkpt>
      <trkpt lat="45.62385" lon="6.77869">
        <ele>824.6</ele>
        <time>2021-05-28T14:19:36Z</time>
      </trkpt>
      <trkpt lat="45.62389" lon="6.77874">
        <ele>824.6</ele>
        <time>2021-05-28T14:19:37Z</time>
      </trkpt>
      <trkpt lat="45.62394" lon="6.77879">
        <ele>824.8</ele>
        <time>2021-05-28T14:19:38Z</time>
      </trkpt>
      <trkpt lat="45.62399" lon="6.77884">
        <ele>824.6</ele>
        <time>2021-05-28T14:19:39Z</time>
      </trkpt>
      <trkpt lat="45.62404" lon="6.7789">
        <ele>824.6</ele>
        <time>2021-05-28T14:19:40Z</time>
      </trkpt>
      <trkpt lat="45.62408" lon="6.77895">
        <ele>824.8</ele>
        <time>2021-05-28T14:19:41Z</time>
      </trkpt>
      <trkpt lat="45.62412" lon="6.779">
        <ele>824.8</ele>
        <time>2021-05-28T14:19:42Z</time>
      </trkpt>
      <trkpt lat="45.62417" lon="6.77905">
        <ele>825</ele>
        <time>2021-05-28T14:19:43Z</time>
      </trkpt>
      <trkpt lat="45.62421" lon="6.7791">
        <ele>825.2</ele>
        <time>2021-05-28T14:19:44Z</time>
      </trkpt>
      <trkpt lat="45.62426" lon="6.77915">
        <ele>825.2</ele>
        <time>2021-05-28T14:19:45Z</time>
      </trkpt>
      <trkpt lat="45.6243" lon="6.7792">
        <ele>825.6</ele>
        <time>2021-05-28T14:19:46Z</time>
      </trkpt>
      <trkpt lat="45.62434" lon="6.77926">
        <ele>825.8</ele>
        <time>2021-05-28T14:19:47Z</time>
      </trkpt>
      <trkpt lat="45.62438" lon="6.77931">
        <ele>826.2</ele>
        <time>2021-05-28T14:19:48Z</time>
      </trkpt>
      <trkpt lat="45.62442" lon="6.77936">
        <ele>826.2</ele>
        <time>2021-05-28T14:19:49Z</time>
      </trkpt>
      <trkpt lat="45.62446" lon="6.77942">
        <ele>826.4</ele>
        <time>2021-05-28T14:19:50Z</time>
      </trkpt>
      <trkpt lat="45.62451" lon="6.77947">
        <ele>826.6</ele>
        <time>2021-05-28T14:19:51Z</time>
      </trkpt>
      <trkpt lat="45.62454" lon="6.77952">
        <ele>826.4</ele>
        <time>2021-05-28T14:19:52Z</time>
      </trkpt>
      <trkpt lat="45.62459" lon="6.77957">
        <ele>826.2</ele>
        <time>2021-05-28T14:19:53Z</time>
      </trkpt>
      <trkpt lat="45.62463" lon="6.77962">
        <ele>826</ele>
        <time>2021-05-28T14:19:54Z</time>
      </trkpt>
      <trkpt lat="45.62467" lon="6.77966">
        <ele>826</ele>
        <time>2021-05-28T14:19:55Z</time>
      </trkpt>
      <trkpt lat="45.62471" lon="6.77971">
        <ele>826.4</ele>
        <time>2021-05-28T14:19:56Z</time>
      </trkpt>
      <trkpt lat="45.62475" lon="6.77976">
        <ele>826.4</ele>
        <time>2021-05-28T14:19:57Z</time>
      </trkpt>
      <trkpt lat="45.62479" lon="6.77982">
        <ele>826.2</ele>
        <time>2021-05-28T14:19:58Z</time>
      </trkpt>
      <trkpt lat="45.62484" lon="6.77987">
        <ele>826.2</ele>
        <time>2021-05-28T14:19:59Z</time>
      </trkpt>
      <trkpt lat="45.62489" lon="6.77992">
        <ele>826.2</ele>
        <time>2021-05-28T14:20:00Z</time>
      </trkpt>
      <trkpt lat="45.62493" lon="6.77997">
        <ele>826.4</ele>
        <time>2021-05-28T14:20:01Z</time>
      </trkpt>
      <trkpt lat="45.62497" lon="6.78003">
        <ele>826.4</ele>
        <time>2021-05-28T14:20:02Z</time>
      </trkpt>
      <trkpt lat="45.62501" lon="6.78008">
        <ele>826.4</ele>
        <time>2021-05-28T14:20:03Z</time>
      </trkpt>
      <trkpt lat="45.62505" lon="6.78015">
        <ele>826.4</ele>
        <time>2021-05-28T14:20:04Z</time>
      </trkpt>
      <trkpt lat="45.62509" lon="6.78021">
        <ele>826.6</ele>
        <time>2021-05-28T14:20:05Z</time>
      </trkpt>
      <trkpt lat="45.62513" lon="6.78028">
        <ele>826.6</ele>
        <time>2021-05-28T14:20:06Z</time>
      </trkpt>
      <trkpt lat="45.62516" lon="6.78034">
        <ele>827</ele>
        <time>2021-05-28T14:20:07Z</time>
      </trkpt>
      <trkpt lat="45.62519" lon="6.78041">
        <ele>827.2</ele>
        <time>2021-05-28T14:20:08Z</time>
      </trkpt>
      <trkpt lat="45.62523" lon="6.78048">
        <ele>827.4</ele>
        <time>2021-05-28T14:20:09Z</time>
      </trkpt>
      <trkpt lat="45.62525" lon="6.78054">
        <ele>827.6</ele>
        <time>2021-05-28T14:20:10Z</time>
      </trkpt>
      <trkpt lat="45.62528" lon="6.78062">
        <ele>827.6</ele>
        <time>2021-05-28T14:20:11Z</time>
      </trkpt>
      <trkpt lat="45.62531" lon="6.78068">
        <ele>827.8</ele>
        <time>2021-05-28T14:20:12Z</time>
      </trkpt>
      <trkpt lat="45.62534" lon="6.78076">
        <ele>827.8</ele>
        <time>2021-05-28T14:20:13Z</time>
      </trkpt>
      <trkpt lat="45.62537" lon="6.78083">
        <ele>828</ele>
        <time>2021-05-28T14:20:14Z</time>
      </trkpt>
      <trkpt lat="45.62539" lon="6.7809">
        <ele>828.4</ele>
        <time>2021-05-28T14:20:15Z</time>
      </trkpt>
      <trkpt lat="45.62541" lon="6.78097">
        <ele>828.4</ele>
        <time>2021-05-28T14:20:16Z</time>
      </trkpt>
      <trkpt lat="45.62544" lon="6.78104">
        <ele>828.8</ele>
        <time>2021-05-28T14:20:17Z</time>
      </trkpt>
      <trkpt lat="45.62547" lon="6.78112">
        <ele>829.2</ele>
        <time>2021-05-28T14:20:18Z</time>
      </trkpt>
      <trkpt lat="45.62549" lon="6.78119">
        <ele>829.2</ele>
        <time>2021-05-28T14:20:19Z</time>
      </trkpt>
      <trkpt lat="45.62552" lon="6.78126">
        <ele>829.4</ele>
        <time>2021-05-28T14:20:20Z</time>
      </trkpt>
      <trkpt lat="45.62555" lon="6.78133">
        <ele>829.6</ele>
        <time>2021-05-28T14:20:21Z</time>
      </trkpt>
      <trkpt lat="45.62557" lon="6.7814">
        <ele>829.8</ele>
        <time>2021-05-28T14:20:22Z</time>
      </trkpt>
      <trkpt lat="45.62559" lon="6.78148">
        <ele>829.6</ele>
        <time>2021-05-28T14:20:23Z</time>
      </trkpt>
      <trkpt lat="45.62561" lon="6.78156">
        <ele>829.6</ele>
        <time>2021-05-28T14:20:24Z</time>
      </trkpt>
      <trkpt lat="45.62563" lon="6.78165">
        <ele>830</ele>
        <time>2021-05-28T14:20:25Z</time>
      </trkpt>
      <trkpt lat="45.62565" lon="6.78173">
        <ele>830.2</ele>
        <time>2021-05-28T14:20:26Z</time>
      </trkpt>
      <trkpt lat="45.62566" lon="6.78182">
        <ele>830.4</ele>
        <time>2021-05-28T14:20:27Z</time>
      </trkpt>
      <trkpt lat="45.62567" lon="6.7819">
        <ele>830.6</ele>
        <time>2021-05-28T14:20:28Z</time>
      </trkpt>
      <trkpt lat="45.62568" lon="6.78199">
        <ele>831</ele>
        <time>2021-05-28T14:20:29Z</time>
      </trkpt>
      <trkpt lat="45.62568" lon="6.78208">
        <ele>831.4</ele>
        <time>2021-05-28T14:20:30Z</time>
      </trkpt>
      <trkpt lat="45.62568" lon="6.78216">
        <ele>831.8</ele>
        <time>2021-05-28T14:20:31Z</time>
      </trkpt>
      <trkpt lat="45.62568" lon="6.78225">
        <ele>831.8</ele>
        <time>2021-05-28T14:20:32Z</time>
      </trkpt>
      <trkpt lat="45.62568" lon="6.78234">
        <ele>832</ele>
        <time>2021-05-28T14:20:33Z</time>
      </trkpt>
      <trkpt lat="45.62568" lon="6.78242">
        <ele>832.2</ele>
        <time>2021-05-28T14:20:34Z</time>
      </trkpt>
      <trkpt lat="45.62568" lon="6.78251">
        <ele>832.6</ele>
        <time>2021-05-28T14:20:35Z</time>
      </trkpt>
      <trkpt lat="45.62568" lon="6.78259">
        <ele>833</ele>
        <time>2021-05-28T14:20:36Z</time>
      </trkpt>
      <trkpt lat="45.62568" lon="6.78267">
        <ele>833.4</ele>
        <time>2021-05-28T14:20:37Z</time>
      </trkpt>
      <trkpt lat="45.62567" lon="6.78275">
        <ele>833.6</ele>
        <time>2021-05-28T14:20:38Z</time>
      </trkpt>
      <trkpt lat="45.62567" lon="6.78283">
        <ele>834</ele>
        <time>2021-05-28T14:20:39Z</time>
      </trkpt>
      <trkpt lat="45.62566" lon="6.78291">
        <ele>834.4</ele>
        <time>2021-05-28T14:20:40Z</time>
      </trkpt>
      <trkpt lat="45.62566" lon="6.78298">
        <ele>834.8</ele>
        <time>2021-05-28T14:20:41Z</time>
      </trkpt>
      <trkpt lat="45.62567" lon="6.78306">
        <ele>834.8</ele>
        <time>2021-05-28T14:20:42Z</time>
      </trkpt>
      <trkpt lat="45.62568" lon="6.78314">
        <ele>835</ele>
        <time>2021-05-28T14:20:43Z</time>
      </trkpt>
      <trkpt lat="45.62568" lon="6.78321">
        <ele>835.4</ele>
        <time>2021-05-28T14:20:44Z</time>
      </trkpt>
      <trkpt lat="45.62569" lon="6.78328">
        <ele>835.8</ele>
        <time>2021-05-28T14:20:45Z</time>
      </trkpt>
      <trkpt lat="45.62571" lon="6.78336">
        <ele>836.2</ele>
        <time>2021-05-28T14:20:46Z</time>
      </trkpt>
      <trkpt lat="45.62572" lon="6.78343">
        <ele>836.4</ele>
        <time>2021-05-28T14:20:47Z</time>
      </trkpt>
      <trkpt lat="45.62573" lon="6.7835">
        <ele>836.6</ele>
        <time>2021-05-28T14:20:48Z</time>
      </trkpt>
      <trkpt lat="45.62575" lon="6.78357">
        <ele>836.6</ele>
        <time>2021-05-28T14:20:49Z</time>
      </trkpt>
      <trkpt lat="45.62576" lon="6.78364">
        <ele>836.6</ele>
        <time>2021-05-28T14:20:50Z</time>
      </trkpt>
      <trkpt lat="45.62578" lon="6.78371">
        <ele>837</ele>
        <time>2021-05-28T14:20:51Z</time>
      </trkpt>
      <trkpt lat="45.6258" lon="6.78378">
        <ele>837</ele>
        <time>2021-05-28T14:20:52Z</time>
      </trkpt>
      <trkpt lat="45.62582" lon="6.78385">
        <ele>837</ele>
        <time>2021-05-28T14:20:53Z</time>
      </trkpt>
      <trkpt lat="45.62584" lon="6.78392">
        <ele>837.2</ele>
        <time>2021-05-28T14:20:54Z</time>
      </trkpt>
      <trkpt lat="45.62586" lon="6.78399">
        <ele>837.8</ele>
        <time>2021-05-28T14:20:55Z</time>
      </trkpt>
      <trkpt lat="45.62588" lon="6.78406">
        <ele>838.2</ele>
        <time>2021-05-28T14:20:56Z</time>
      </trkpt>
      <trkpt lat="45.6259" lon="6.78412">
        <ele>839.2</ele>
        <time>2021-05-28T14:20:57Z</time>
      </trkpt>
      <trkpt lat="45.62592" lon="6.78419">
        <ele>839.6</ele>
        <time>2021-05-28T14:20:58Z</time>
      </trkpt>
      <trkpt lat="45.62594" lon="6.78425">
        <ele>839.8</ele>
        <time>2021-05-28T14:20:59Z</time>
      </trkpt>
      <trkpt lat="45.62596" lon="6.78432">
        <ele>840</ele>
        <time>2021-05-28T14:21:00Z</time>
      </trkpt>
      <trkpt lat="45.62598" lon="6.78438">
        <ele>840.2</ele>
        <time>2021-05-28T14:21:01Z</time>
      </trkpt>
      <trkpt lat="45.626" lon="6.78445">
        <ele>840.2</ele>
        <time>2021-05-28T14:21:02Z</time>
      </trkpt>
      <trkpt lat="45.62602" lon="6.78452">
        <ele>840.4</ele>
        <time>2021-05-28T14:21:03Z</time>
      </trkpt>
      <trkpt lat="45.62603" lon="6.78458">
        <ele>841</ele>
        <time>2021-05-28T14:21:04Z</time>
      </trkpt>
      <trkpt lat="45.62604" lon="6.78464">
        <ele>841.6</ele>
        <time>2021-05-28T14:21:05Z</time>
      </trkpt>
      <trkpt lat="45.62607" lon="6.78471">
        <ele>842.2</ele>
        <time>2021-05-28T14:21:06Z</time>
      </trkpt>
      <trkpt lat="45.62609" lon="6.78477">
        <ele>842.8</ele>
        <time>2021-05-28T14:21:07Z</time>
      </trkpt>
      <trkpt lat="45.62611" lon="6.78484">
        <ele>843.6</ele>
        <time>2021-05-28T14:21:08Z</time>
      </trkpt>
      <trkpt lat="45.62612" lon="6.78491">
        <ele>844.2</ele>
        <time>2021-05-28T14:21:09Z</time>
      </trkpt>
      <trkpt lat="45.62614" lon="6.78497">
        <ele>844.8</ele>
        <time>2021-05-28T14:21:10Z</time>
      </trkpt>
      <trkpt lat="45.62616" lon="6.78504">
        <ele>845.4</ele>
        <time>2021-05-28T14:21:11Z</time>
      </trkpt>
      <trkpt lat="45.62618" lon="6.78511">
        <ele>845.4</ele>
        <time>2021-05-28T14:21:12Z</time>
      </trkpt>
      <trkpt lat="45.6262" lon="6.78517">
        <ele>846.2</ele>
        <time>2021-05-28T14:21:13Z</time>
      </trkpt>
      <trkpt lat="45.62621" lon="6.78524">
        <ele>846.8</ele>
        <time>2021-05-28T14:21:14Z</time>
      </trkpt>
      <trkpt lat="45.62624" lon="6.7853">
        <ele>847.6</ele>
        <time>2021-05-28T14:21:15Z</time>
      </trkpt>
      <trkpt lat="45.62626" lon="6.78537">
        <ele>848</ele>
        <time>2021-05-28T14:21:16Z</time>
      </trkpt>
      <trkpt lat="45.62629" lon="6.78543">
        <ele>848.6</ele>
        <time>2021-05-28T14:21:17Z</time>
      </trkpt>
      <trkpt lat="45.62632" lon="6.78549">
        <ele>849.2</ele>
        <time>2021-05-28T14:21:18Z</time>
      </trkpt>
      <trkpt lat="45.62636" lon="6.78554">
        <ele>849.6</ele>
        <time>2021-05-28T14:21:19Z</time>
      </trkpt>
      <trkpt lat="45.62641" lon="6.7856">
        <ele>850</ele>
        <time>2021-05-28T14:21:20Z</time>
      </trkpt>
      <trkpt lat="45.62645" lon="6.78564">
        <ele>850.4</ele>
        <time>2021-05-28T14:21:21Z</time>
      </trkpt>
      <trkpt lat="45.6265" lon="6.78569">
        <ele>850.8</ele>
        <time>2021-05-28T14:21:22Z</time>
      </trkpt>
      <trkpt lat="45.62655" lon="6.78574">
        <ele>851.4</ele>
        <time>2021-05-28T14:21:23Z</time>
      </trkpt>
      <trkpt lat="45.6266" lon="6.78579">
        <ele>851.8</ele>
        <time>2021-05-28T14:21:24Z</time>
      </trkpt>
      <trkpt lat="45.62664" lon="6.78584">
        <ele>852.4</ele>
        <time>2021-05-28T14:21:25Z</time>
      </trkpt>
      <trkpt lat="45.62668" lon="6.78589">
        <ele>852.8</ele>
        <time>2021-05-28T14:21:26Z</time>
      </trkpt>
      <trkpt lat="45.62673" lon="6.78593">
        <ele>853</ele>
        <time>2021-05-28T14:21:27Z</time>
      </trkpt>
      <trkpt lat="45.62677" lon="6.78598">
        <ele>854</ele>
        <time>2021-05-28T14:21:28Z</time>
      </trkpt>
      <trkpt lat="45.62681" lon="6.78603">
        <ele>854.4</ele>
        <time>2021-05-28T14:21:29Z</time>
      </trkpt>
      <trkpt lat="45.62685" lon="6.78608">
        <ele>854.6</ele>
        <time>2021-05-28T14:21:30Z</time>
      </trkpt>
      <trkpt lat="45.62689" lon="6.78615">
        <ele>854.6</ele>
        <time>2021-05-28T14:21:31Z</time>
      </trkpt>
      <trkpt lat="45.62692" lon="6.78621">
        <ele>855.4</ele>
        <time>2021-05-28T14:21:32Z</time>
      </trkpt>
      <trkpt lat="45.62695" lon="6.78628">
        <ele>856</ele>
        <time>2021-05-28T14:21:33Z</time>
      </trkpt>
      <trkpt lat="45.62698" lon="6.78635">
        <ele>856.2</ele>
        <time>2021-05-28T14:21:34Z</time>
      </trkpt>
      <trkpt lat="45.627" lon="6.78642">
        <ele>856.4</ele>
        <time>2021-05-28T14:21:35Z</time>
      </trkpt>
      <trkpt lat="45.62703" lon="6.7865">
        <ele>856.8</ele>
        <time>2021-05-28T14:21:36Z</time>
      </trkpt>
      <trkpt lat="45.62705" lon="6.78658">
        <ele>857.2</ele>
        <time>2021-05-28T14:21:37Z</time>
      </trkpt>
      <trkpt lat="45.62707" lon="6.78666">
        <ele>857.6</ele>
        <time>2021-05-28T14:21:38Z</time>
      </trkpt>
      <trkpt lat="45.62709" lon="6.78674">
        <ele>857.8</ele>
        <time>2021-05-28T14:21:39Z</time>
      </trkpt>
      <trkpt lat="45.6271" lon="6.78682">
        <ele>858</ele>
        <time>2021-05-28T14:21:40Z</time>
      </trkpt>
      <trkpt lat="45.62711" lon="6.78691">
        <ele>858.2</ele>
        <time>2021-05-28T14:21:41Z</time>
      </trkpt>
      <trkpt lat="45.62711" lon="6.78699">
        <ele>858.6</ele>
        <time>2021-05-28T14:21:42Z</time>
      </trkpt>
      <trkpt lat="45.62711" lon="6.78708">
        <ele>858.8</ele>
        <time>2021-05-28T14:21:43Z</time>
      </trkpt>
      <trkpt lat="45.62711" lon="6.78716">
        <ele>859</ele>
        <time>2021-05-28T14:21:44Z</time>
      </trkpt>
      <trkpt lat="45.62711" lon="6.78725">
        <ele>859.4</ele>
        <time>2021-05-28T14:21:45Z</time>
      </trkpt>
      <trkpt lat="45.6271" lon="6.78734">
        <ele>859.6</ele>
        <time>2021-05-28T14:21:46Z</time>
      </trkpt>
      <trkpt lat="45.62709" lon="6.78742">
        <ele>859.8</ele>
        <time>2021-05-28T14:21:47Z</time>
      </trkpt>
      <trkpt lat="45.62708" lon="6.7875">
        <ele>860</ele>
        <time>2021-05-28T14:21:48Z</time>
      </trkpt>
      <trkpt lat="45.62707" lon="6.78758">
        <ele>860.6</ele>
        <time>2021-05-28T14:21:49Z</time>
      </trkpt>
      <trkpt lat="45.62707" lon="6.78766">
        <ele>861</ele>
        <time>2021-05-28T14:21:50Z</time>
      </trkpt>
      <trkpt lat="45.62706" lon="6.78774">
        <ele>861.6</ele>
        <time>2021-05-28T14:21:51Z</time>
      </trkpt>
      <trkpt lat="45.62706" lon="6.78781">
        <ele>861.8</ele>
        <time>2021-05-28T14:21:52Z</time>
      </trkpt>
      <trkpt lat="45.62705" lon="6.78788">
        <ele>862.2</ele>
        <time>2021-05-28T14:21:53Z</time>
      </trkpt>
      <trkpt lat="45.62704" lon="6.78796">
        <ele>862.8</ele>
        <time>2021-05-28T14:21:54Z</time>
      </trkpt>
      <trkpt lat="45.62704" lon="6.78804">
        <ele>863</ele>
        <time>2021-05-28T14:21:55Z</time>
      </trkpt>
      <trkpt lat="45.62703" lon="6.78812">
        <ele>863.6</ele>
        <time>2021-05-28T14:21:56Z</time>
      </trkpt>
      <trkpt lat="45.62703" lon="6.78819">
        <ele>864</ele>
        <time>2021-05-28T14:21:57Z</time>
      </trkpt>
      <trkpt lat="45.62702" lon="6.78826">
        <ele>864.4</ele>
        <time>2021-05-28T14:21:58Z</time>
      </trkpt>
      <trkpt lat="45.62702" lon="6.78834">
        <ele>864.8</ele>
        <time>2021-05-28T14:21:59Z</time>
      </trkpt>
      <trkpt lat="45.62701" lon="6.7884">
        <ele>865.2</ele>
        <time>2021-05-28T14:22:00Z</time>
      </trkpt>
      <trkpt lat="45.62701" lon="6.78848">
        <ele>865.6</ele>
        <time>2021-05-28T14:22:01Z</time>
      </trkpt>
      <trkpt lat="45.627" lon="6.78855">
        <ele>865.4</ele>
        <time>2021-05-28T14:22:02Z</time>
      </trkpt>
      <trkpt lat="45.627" lon="6.78862">
        <ele>865.4</ele>
        <time>2021-05-28T14:22:03Z</time>
      </trkpt>
      <trkpt lat="45.62699" lon="6.78869">
        <ele>865.6</ele>
        <time>2021-05-28T14:22:04Z</time>
      </trkpt>
      <trkpt lat="45.62698" lon="6.78876">
        <ele>865.4</ele>
        <time>2021-05-28T14:22:05Z</time>
      </trkpt>
      <trkpt lat="45.62698" lon="6.78884">
        <ele>865.4</ele>
        <time>2021-05-28T14:22:06Z</time>
      </trkpt>
      <trkpt lat="45.62698" lon="6.78891">
        <ele>865.6</ele>
        <time>2021-05-28T14:22:07Z</time>
      </trkpt>
      <trkpt lat="45.62697" lon="6.78899">
        <ele>865.8</ele>
        <time>2021-05-28T14:22:08Z</time>
      </trkpt>
      <trkpt lat="45.62696" lon="6.78906">
        <ele>866</ele>
        <time>2021-05-28T14:22:09Z</time>
      </trkpt>
      <trkpt lat="45.62696" lon="6.78914">
        <ele>866.2</ele>
        <time>2021-05-28T14:22:10Z</time>
      </trkpt>
      <trkpt lat="45.62695" lon="6.78922">
        <ele>866.6</ele>
        <time>2021-05-28T14:22:11Z</time>
      </trkpt>
      <trkpt lat="45.62695" lon="6.78929">
        <ele>866.8</ele>
        <time>2021-05-28T14:22:12Z</time>
      </trkpt>
      <trkpt lat="45.62695" lon="6.78937">
        <ele>867</ele>
        <time>2021-05-28T14:22:13Z</time>
      </trkpt>
      <trkpt lat="45.62694" lon="6.78944">
        <ele>867.2</ele>
        <time>2021-05-28T14:22:14Z</time>
      </trkpt>
      <trkpt lat="45.62694" lon="6.78952">
        <ele>867.4</ele>
        <time>2021-05-28T14:22:15Z</time>
      </trkpt>
      <trkpt lat="45.62694" lon="6.7896">
        <ele>867.8</ele>
        <time>2021-05-28T14:22:16Z</time>
      </trkpt>
      <trkpt lat="45.62693" lon="6.78967">
        <ele>868</ele>
        <time>2021-05-28T14:22:17Z</time>
      </trkpt>
      <trkpt lat="45.62693" lon="6.78974">
        <ele>868.4</ele>
        <time>2021-05-28T14:22:18Z</time>
      </trkpt>
      <trkpt lat="45.62692" lon="6.78982">
        <ele>868.8</ele>
        <time>2021-05-28T14:22:19Z</time>
      </trkpt>
      <trkpt lat="45.62691" lon="6.78989">
        <ele>869</ele>
        <time>2021-05-28T14:22:20Z</time>
      </trkpt>
      <trkpt lat="45.6269" lon="6.78996">
        <ele>869.6</ele>
        <time>2021-05-28T14:22:21Z</time>
      </trkpt>
      <trkpt lat="45.6269" lon="6.79003">
        <ele>869.8</ele>
        <time>2021-05-28T14:22:22Z</time>
      </trkpt>
      <trkpt lat="45.62689" lon="6.7901">
        <ele>870.4</ele>
        <time>2021-05-28T14:22:23Z</time>
      </trkpt>
      <trkpt lat="45.62688" lon="6.79018">
        <ele>870.8</ele>
        <time>2021-05-28T14:22:24Z</time>
      </trkpt>
      <trkpt lat="45.62688" lon="6.79024">
        <ele>871</ele>
        <time>2021-05-28T14:22:25Z</time>
      </trkpt>
      <trkpt lat="45.62687" lon="6.79032">
        <ele>871.4</ele>
        <time>2021-05-28T14:22:26Z</time>
      </trkpt>
      <trkpt lat="45.62686" lon="6.79039">
        <ele>871.6</ele>
        <time>2021-05-28T14:22:27Z</time>
      </trkpt>
      <trkpt lat="45.62685" lon="6.79046">
        <ele>871.8</ele>
        <time>2021-05-28T14:22:28Z</time>
      </trkpt>
      <trkpt lat="45.62684" lon="6.79052">
        <ele>872</ele>
        <time>2021-05-28T14:22:29Z</time>
      </trkpt>
      <trkpt lat="45.62683" lon="6.79059">
        <ele>872</ele>
        <time>2021-05-28T14:22:30Z</time>
      </trkpt>
      <trkpt lat="45.62682" lon="6.79066">
        <ele>872</ele>
        <time>2021-05-28T14:22:31Z</time>
      </trkpt>
      <trkpt lat="45.6268" lon="6.79074">
        <ele>872.2</ele>
        <time>2021-05-28T14:22:32Z</time>
      </trkpt>
      <trkpt lat="45.62679" lon="6.7908">
        <ele>872.4</ele>
        <time>2021-05-28T14:22:33Z</time>
      </trkpt>
      <trkpt lat="45.62678" lon="6.79088">
        <ele>872.4</ele>
        <time>2021-05-28T14:22:34Z</time>
      </trkpt>
      <trkpt lat="45.62677" lon="6.79095">
        <ele>872.8</ele>
        <time>2021-05-28T14:22:35Z</time>
      </trkpt>
      <trkpt lat="45.62676" lon="6.79102">
        <ele>872.8</ele>
        <time>2021-05-28T14:22:36Z</time>
      </trkpt>
      <trkpt lat="45.62674" lon="6.79109">
        <ele>873.4</ele>
        <time>2021-05-28T14:22:37Z</time>
      </trkpt>
      <trkpt lat="45.62673" lon="6.79116">
        <ele>873.2</ele>
        <time>2021-05-28T14:22:38Z</time>
      </trkpt>
      <trkpt lat="45.62672" lon="6.79122">
        <ele>874.4</ele>
        <time>2021-05-28T14:22:39Z</time>
      </trkpt>
      <trkpt lat="45.6267" lon="6.79129">
        <ele>874.4</ele>
        <time>2021-05-28T14:22:40Z</time>
      </trkpt>
      <trkpt lat="45.62668" lon="6.79136">
        <ele>874.6</ele>
        <time>2021-05-28T14:22:41Z</time>
      </trkpt>
      <trkpt lat="45.62666" lon="6.79143">
        <ele>875.2</ele>
        <time>2021-05-28T14:22:42Z</time>
      </trkpt>
      <trkpt lat="45.62665" lon="6.7915">
        <ele>875.4</ele>
        <time>2021-05-28T14:22:43Z</time>
      </trkpt>
      <trkpt lat="45.62662" lon="6.79157">
        <ele>875.6</ele>
        <time>2021-05-28T14:22:44Z</time>
      </trkpt>
      <trkpt lat="45.62661" lon="6.79164">
        <ele>876</ele>
        <time>2021-05-28T14:22:45Z</time>
      </trkpt>
      <trkpt lat="45.62659" lon="6.7917">
        <ele>875.8</ele>
        <time>2021-05-28T14:22:46Z</time>
      </trkpt>
      <trkpt lat="45.62656" lon="6.79176">
        <ele>876.6</ele>
        <time>2021-05-28T14:22:47Z</time>
      </trkpt>
      <trkpt lat="45.62654" lon="6.79183">
        <ele>876.8</ele>
        <time>2021-05-28T14:22:48Z</time>
      </trkpt>
      <trkpt lat="45.62652" lon="6.79189">
        <ele>877.2</ele>
        <time>2021-05-28T14:22:49Z</time>
      </trkpt>
      <trkpt lat="45.62651" lon="6.79195">
        <ele>877.6</ele>
        <time>2021-05-28T14:22:50Z</time>
      </trkpt>
      <trkpt lat="45.62649" lon="6.79202">
        <ele>878.2</ele>
        <time>2021-05-28T14:22:51Z</time>
      </trkpt>
      <trkpt lat="45.62648" lon="6.79209">
        <ele>878.6</ele>
        <time>2021-05-28T14:22:52Z</time>
      </trkpt>
      <trkpt lat="45.62646" lon="6.79216">
        <ele>879</ele>
        <time>2021-05-28T14:22:53Z</time>
      </trkpt>
      <trkpt lat="45.62645" lon="6.79223">
        <ele>879.4</ele>
        <time>2021-05-28T14:22:54Z</time>
      </trkpt>
      <trkpt lat="45.62644" lon="6.7923">
        <ele>879.6</ele>
        <time>2021-05-28T14:22:55Z</time>
      </trkpt>
      <trkpt lat="45.62643" lon="6.79237">
        <ele>879.8</ele>
        <time>2021-05-28T14:22:56Z</time>
      </trkpt>
      <trkpt lat="45.62642" lon="6.79244">
        <ele>880</ele>
        <time>2021-05-28T14:22:57Z</time>
      </trkpt>
      <trkpt lat="45.62641" lon="6.79251">
        <ele>880.4</ele>
        <time>2021-05-28T14:22:58Z</time>
      </trkpt>
      <trkpt lat="45.6264" lon="6.79258">
        <ele>880.6</ele>
        <time>2021-05-28T14:22:59Z</time>
      </trkpt>
      <trkpt lat="45.62638" lon="6.79265">
        <ele>881.2</ele>
        <time>2021-05-28T14:23:00Z</time>
      </trkpt>
      <trkpt lat="45.62637" lon="6.79272">
        <ele>881.4</ele>
        <time>2021-05-28T14:23:01Z</time>
      </trkpt>
      <trkpt lat="45.62636" lon="6.79279">
        <ele>881.8</ele>
        <time>2021-05-28T14:23:02Z</time>
      </trkpt>
      <trkpt lat="45.62634" lon="6.79286">
        <ele>882.2</ele>
        <time>2021-05-28T14:23:03Z</time>
      </trkpt>
      <trkpt lat="45.62632" lon="6.79292">
        <ele>882.8</ele>
        <time>2021-05-28T14:23:04Z</time>
      </trkpt>
      <trkpt lat="45.6263" lon="6.79299">
        <ele>883.2</ele>
        <time>2021-05-28T14:23:05Z</time>
      </trkpt>
      <trkpt lat="45.62628" lon="6.79305">
        <ele>883.4</ele>
        <time>2021-05-28T14:23:06Z</time>
      </trkpt>
      <trkpt lat="45.62627" lon="6.79312">
        <ele>883.6</ele>
        <time>2021-05-28T14:23:07Z</time>
      </trkpt>
      <trkpt lat="45.62624" lon="6.79319">
        <ele>884</ele>
        <time>2021-05-28T14:23:08Z</time>
      </trkpt>
      <trkpt lat="45.62622" lon="6.79326">
        <ele>884</ele>
        <time>2021-05-28T14:23:09Z</time>
      </trkpt>
      <trkpt lat="45.6262" lon="6.79332">
        <ele>884</ele>
        <time>2021-05-28T14:23:10Z</time>
      </trkpt>
      <trkpt lat="45.62617" lon="6.79339">
        <ele>884</ele>
        <time>2021-05-28T14:23:11Z</time>
      </trkpt>
      <trkpt lat="45.62615" lon="6.79345">
        <ele>883.8</ele>
        <time>2021-05-28T14:23:12Z</time>
      </trkpt>
      <trkpt lat="45.62612" lon="6.79351">
        <ele>883.6</ele>
        <time>2021-05-28T14:23:13Z</time>
      </trkpt>
      <trkpt lat="45.6261" lon="6.79358">
        <ele>883.4</ele>
        <time>2021-05-28T14:23:14Z</time>
      </trkpt>
      <trkpt lat="45.62606" lon="6.79364">
        <ele>883.2</ele>
        <time>2021-05-28T14:23:15Z</time>
      </trkpt>
      <trkpt lat="45.62603" lon="6.79369">
        <ele>882.8</ele>
        <time>2021-05-28T14:23:16Z</time>
      </trkpt>
      <trkpt lat="45.626" lon="6.79374">
        <ele>882.8</ele>
        <time>2021-05-28T14:23:17Z</time>
      </trkpt>
      <trkpt lat="45.62596" lon="6.7938">
        <ele>882.4</ele>
        <time>2021-05-28T14:23:18Z</time>
      </trkpt>
      <trkpt lat="45.62592" lon="6.79386">
        <ele>882.2</ele>
        <time>2021-05-28T14:23:19Z</time>
      </trkpt>
      <trkpt lat="45.62588" lon="6.79391">
        <ele>882.6</ele>
        <time>2021-05-28T14:23:20Z</time>
      </trkpt>
      <trkpt lat="45.62585" lon="6.79397">
        <ele>882.8</ele>
        <time>2021-05-28T14:23:21Z</time>
      </trkpt>
      <trkpt lat="45.62582" lon="6.79402">
        <ele>883</ele>
        <time>2021-05-28T14:23:22Z</time>
      </trkpt>
      <trkpt lat="45.62578" lon="6.79407">
        <ele>883</ele>
        <time>2021-05-28T14:23:23Z</time>
      </trkpt>
      <trkpt lat="45.62574" lon="6.79412">
        <ele>883.4</ele>
        <time>2021-05-28T14:23:24Z</time>
      </trkpt>
      <trkpt lat="45.6257" lon="6.79416">
        <ele>883.6</ele>
        <time>2021-05-28T14:23:25Z</time>
      </trkpt>
      <trkpt lat="45.62565" lon="6.79419">
        <ele>883.8</ele>
        <time>2021-05-28T14:23:26Z</time>
      </trkpt>
      <trkpt lat="45.62561" lon="6.79423">
        <ele>883.6</ele>
        <time>2021-05-28T14:23:27Z</time>
      </trkpt>
      <trkpt lat="45.62557" lon="6.79426">
        <ele>884.2</ele>
        <time>2021-05-28T14:23:28Z</time>
      </trkpt>
      <trkpt lat="45.62553" lon="6.7943">
        <ele>884.4</ele>
        <time>2021-05-28T14:23:29Z</time>
      </trkpt>
      <trkpt lat="45.62548" lon="6.79433">
        <ele>884.6</ele>
        <time>2021-05-28T14:23:30Z</time>
      </trkpt>
      <trkpt lat="45.62544" lon="6.79436">
        <ele>884.8</ele>
        <time>2021-05-28T14:23:31Z</time>
      </trkpt>
      <trkpt lat="45.6254" lon="6.79439">
        <ele>885</ele>
        <time>2021-05-28T14:23:32Z</time>
      </trkpt>
      <trkpt lat="45.62535" lon="6.7944">
        <ele>885.4</ele>
        <time>2021-05-28T14:23:33Z</time>
      </trkpt>
      <trkpt lat="45.6253" lon="6.79442">
        <ele>885.8</ele>
        <time>2021-05-28T14:23:34Z</time>
      </trkpt>
      <trkpt lat="45.62525" lon="6.79444">
        <ele>886</ele>
        <time>2021-05-28T14:23:35Z</time>
      </trkpt>
      <trkpt lat="45.6252" lon="6.79446">
        <ele>886.4</ele>
        <time>2021-05-28T14:23:36Z</time>
      </trkpt>
      <trkpt lat="45.62515" lon="6.79448">
        <ele>886.6</ele>
        <time>2021-05-28T14:23:37Z</time>
      </trkpt>
      <trkpt lat="45.62509" lon="6.7945">
        <ele>886.8</ele>
        <time>2021-05-28T14:23:38Z</time>
      </trkpt>
      <trkpt lat="45.62503" lon="6.79451">
        <ele>887.4</ele>
        <time>2021-05-28T14:23:39Z</time>
      </trkpt>
      <trkpt lat="45.62496" lon="6.79453">
        <ele>887.4</ele>
        <time>2021-05-28T14:23:40Z</time>
      </trkpt>
      <trkpt lat="45.62488" lon="6.79454">
        <ele>887.4</ele>
        <time>2021-05-28T14:23:41Z</time>
      </trkpt>
      <trkpt lat="45.62481" lon="6.79456">
        <ele>887.2</ele>
        <time>2021-05-28T14:23:42Z</time>
      </trkpt>
      <trkpt lat="45.62472" lon="6.79458">
        <ele>887</ele>
        <time>2021-05-28T14:23:43Z</time>
      </trkpt>
      <trkpt lat="45.62463" lon="6.79461">
        <ele>886.8</ele>
        <time>2021-05-28T14:23:44Z</time>
      </trkpt>
      <trkpt lat="45.62454" lon="6.79463">
        <ele>886.6</ele>
        <time>2021-05-28T14:23:45Z</time>
      </trkpt>
      <trkpt lat="45.62445" lon="6.79464">
        <ele>886.6</ele>
        <time>2021-05-28T14:23:46Z</time>
      </trkpt>
      <trkpt lat="45.62436" lon="6.79466">
        <ele>886.6</ele>
        <time>2021-05-28T14:23:47Z</time>
      </trkpt>
      <trkpt lat="45.62426" lon="6.79467">
        <ele>886.2</ele>
        <time>2021-05-28T14:23:48Z</time>
      </trkpt>
      <trkpt lat="45.62417" lon="6.79468">
        <ele>886</ele>
        <time>2021-05-28T14:23:49Z</time>
      </trkpt>
      <trkpt lat="45.62406" lon="6.7947">
        <ele>885.8</ele>
        <time>2021-05-28T14:23:50Z</time>
      </trkpt>
      <trkpt lat="45.62396" lon="6.79472">
        <ele>885.6</ele>
        <time>2021-05-28T14:23:51Z</time>
      </trkpt>
      <trkpt lat="45.62385" lon="6.79474">
        <ele>885.6</ele>
        <time>2021-05-28T14:23:52Z</time>
      </trkpt>
      <trkpt lat="45.62374" lon="6.79475">
        <ele>885.4</ele>
        <time>2021-05-28T14:23:53Z</time>
      </trkpt>
      <trkpt lat="45.62364" lon="6.79477">
        <ele>885.4</ele>
        <time>2021-05-28T14:23:54Z</time>
      </trkpt>
      <trkpt lat="45.62352" lon="6.79479">
        <ele>885.4</ele>
        <time>2021-05-28T14:23:55Z</time>
      </trkpt>
      <trkpt lat="45.6234" lon="6.79482">
        <ele>884.6</ele>
        <time>2021-05-28T14:23:56Z</time>
      </trkpt>
      <trkpt lat="45.62329" lon="6.79484">
        <ele>884.2</ele>
        <time>2021-05-28T14:23:57Z</time>
      </trkpt>
      <trkpt lat="45.62316" lon="6.79487">
        <ele>883.2</ele>
        <time>2021-05-28T14:23:58Z</time>
      </trkpt>
      <trkpt lat="45.62305" lon="6.7949">
        <ele>882.2</ele>
        <time>2021-05-28T14:23:59Z</time>
      </trkpt>
      <trkpt lat="45.62292" lon="6.79492">
        <ele>881.6</ele>
        <time>2021-05-28T14:24:00Z</time>
      </trkpt>
      <trkpt lat="45.62279" lon="6.79494">
        <ele>881</ele>
        <time>2021-05-28T14:24:01Z</time>
      </trkpt>
      <trkpt lat="45.62267" lon="6.79497">
        <ele>880.6</ele>
        <time>2021-05-28T14:24:02Z</time>
      </trkpt>
      <trkpt lat="45.62253" lon="6.79499">
        <ele>880.2</ele>
        <time>2021-05-28T14:24:03Z</time>
      </trkpt>
      <trkpt lat="45.6224" lon="6.79501">
        <ele>879.6</ele>
        <time>2021-05-28T14:24:04Z</time>
      </trkpt>
      <trkpt lat="45.62227" lon="6.79504">
        <ele>879</ele>
        <time>2021-05-28T14:24:05Z</time>
      </trkpt>
      <trkpt lat="45.62213" lon="6.79506">
        <ele>878.6</ele>
        <time>2021-05-28T14:24:06Z</time>
      </trkpt>
      <trkpt lat="45.62199" lon="6.79509">
        <ele>878.2</ele>
        <time>2021-05-28T14:24:07Z</time>
      </trkpt>
      <trkpt lat="45.62185" lon="6.79512">
        <ele>877.4</ele>
        <time>2021-05-28T14:24:08Z</time>
      </trkpt>
      <trkpt lat="45.62172" lon="6.79515">
        <ele>877</ele>
        <time>2021-05-28T14:24:09Z</time>
      </trkpt>
      <trkpt lat="45.62158" lon="6.79518">
        <ele>876.6</ele>
        <time>2021-05-28T14:24:10Z</time>
      </trkpt>
      <trkpt lat="45.62144" lon="6.79521">
        <ele>875.4</ele>
        <time>2021-05-28T14:24:11Z</time>
      </trkpt>
      <trkpt lat="45.62131" lon="6.79524">
        <ele>875</ele>
        <time>2021-05-28T14:24:12Z</time>
      </trkpt>
      <trkpt lat="45.62116" lon="6.79526">
        <ele>874.8</ele>
        <time>2021-05-28T14:24:13Z</time>
      </trkpt>
      <trkpt lat="45.62103" lon="6.79528">
        <ele>874.4</ele>
        <time>2021-05-28T14:24:14Z</time>
      </trkpt>
      <trkpt lat="45.6209" lon="6.7953">
        <ele>873.8</ele>
        <time>2021-05-28T14:24:15Z</time>
      </trkpt>
      <trkpt lat="45.62077" lon="6.79532">
        <ele>873.4</ele>
        <time>2021-05-28T14:24:16Z</time>
      </trkpt>
      <trkpt lat="45.62065" lon="6.79533">
        <ele>872.6</ele>
        <time>2021-05-28T14:24:17Z</time>
      </trkpt>
      <trkpt lat="45.62054" lon="6.79532">
        <ele>871.6</ele>
        <time>2021-05-28T14:24:18Z</time>
      </trkpt>
      <trkpt lat="45.62045" lon="6.79529">
        <ele>871.4</ele>
        <time>2021-05-28T14:24:19Z</time>
      </trkpt>
      <trkpt lat="45.62037" lon="6.79522">
        <ele>870.6</ele>
        <time>2021-05-28T14:24:20Z</time>
      </trkpt>
      <trkpt lat="45.62031" lon="6.79513">
        <ele>869</ele>
        <time>2021-05-28T14:24:21Z</time>
      </trkpt>
      <trkpt lat="45.62028" lon="6.79501">
        <ele>867.4</ele>
        <time>2021-05-28T14:24:22Z</time>
      </trkpt>
      <trkpt lat="45.62028" lon="6.79487">
        <ele>866.8</ele>
        <time>2021-05-28T14:24:23Z</time>
      </trkpt>
      <trkpt lat="45.6203" lon="6.79474">
        <ele>866.2</ele>
        <time>2021-05-28T14:24:24Z</time>
      </trkpt>
      <trkpt lat="45.62034" lon="6.79461">
        <ele>866.2</ele>
        <time>2021-05-28T14:24:25Z</time>
      </trkpt>
      <trkpt lat="45.62037" lon="6.79448">
        <ele>866</ele>
        <time>2021-05-28T14:24:26Z</time>
      </trkpt>
      <trkpt lat="45.62041" lon="6.79436">
        <ele>865.8</ele>
        <time>2021-05-28T14:24:27Z</time>
      </trkpt>
      <trkpt lat="45.62044" lon="6.79422">
        <ele>865</ele>
        <time>2021-05-28T14:24:28Z</time>
      </trkpt>
      <trkpt lat="45.62049" lon="6.7941">
        <ele>864.8</ele>
        <time>2021-05-28T14:24:29Z</time>
      </trkpt>
      <trkpt lat="45.62052" lon="6.79397">
        <ele>863.8</ele>
        <time>2021-05-28T14:24:30Z</time>
      </trkpt>
      <trkpt lat="45.62056" lon="6.79384">
        <ele>863.8</ele>
        <time>2021-05-28T14:24:31Z</time>
      </trkpt>
      <trkpt lat="45.6206" lon="6.7937">
        <ele>863.8</ele>
        <time>2021-05-28T14:24:32Z</time>
      </trkpt>
      <trkpt lat="45.62064" lon="6.79356">
        <ele>862.8</ele>
        <time>2021-05-28T14:24:33Z</time>
      </trkpt>
      <trkpt lat="45.62068" lon="6.79343">
        <ele>862</ele>
        <time>2021-05-28T14:24:34Z</time>
      </trkpt>
      <trkpt lat="45.62071" lon="6.79328">
        <ele>860.6</ele>
        <time>2021-05-28T14:24:35Z</time>
      </trkpt>
      <trkpt lat="45.62075" lon="6.79314">
        <ele>860.6</ele>
        <time>2021-05-28T14:24:36Z</time>
      </trkpt>
      <trkpt lat="45.62079" lon="6.793">
        <ele>860.8</ele>
        <time>2021-05-28T14:24:37Z</time>
      </trkpt>
      <trkpt lat="45.62083" lon="6.79286">
        <ele>860</ele>
        <time>2021-05-28T14:24:38Z</time>
      </trkpt>
      <trkpt lat="45.62087" lon="6.79272">
        <ele>859.8</ele>
        <time>2021-05-28T14:24:39Z</time>
      </trkpt>
      <trkpt lat="45.62091" lon="6.79257">
        <ele>858.6</ele>
        <time>2021-05-28T14:24:40Z</time>
      </trkpt>
      <trkpt lat="45.62094" lon="6.79243">
        <ele>858</ele>
        <time>2021-05-28T14:24:41Z</time>
      </trkpt>
      <trkpt lat="45.62098" lon="6.79229">
        <ele>858</ele>
        <time>2021-05-28T14:24:42Z</time>
      </trkpt>
      <trkpt lat="45.62102" lon="6.79215">
        <ele>857.4</ele>
        <time>2021-05-28T14:24:43Z</time>
      </trkpt>
      <trkpt lat="45.62106" lon="6.79202">
        <ele>857.2</ele>
        <time>2021-05-28T14:24:44Z</time>
      </trkpt>
      <trkpt lat="45.62108" lon="6.79188">
        <ele>856.8</ele>
        <time>2021-05-28T14:24:45Z</time>
      </trkpt>
      <trkpt lat="45.6211" lon="6.79174">
        <ele>856.2</ele>
        <time>2021-05-28T14:24:46Z</time>
      </trkpt>
      <trkpt lat="45.62112" lon="6.7916">
        <ele>855.2</ele>
        <time>2021-05-28T14:24:47Z</time>
      </trkpt>
      <trkpt lat="45.62111" lon="6.79145">
        <ele>853.8</ele>
        <time>2021-05-28T14:24:48Z</time>
      </trkpt>
      <trkpt lat="45.6211" lon="6.79131">
        <ele>853.6</ele>
        <time>2021-05-28T14:24:49Z</time>
      </trkpt>
      <trkpt lat="45.62107" lon="6.79117">
        <ele>853.4</ele>
        <time>2021-05-28T14:24:50Z</time>
      </trkpt>
      <trkpt lat="45.62103" lon="6.79103">
        <ele>852.8</ele>
        <time>2021-05-28T14:24:51Z</time>
      </trkpt>
      <trkpt lat="45.62099" lon="6.79089">
        <ele>850.8</ele>
        <time>2021-05-28T14:24:52Z</time>
      </trkpt>
      <trkpt lat="45.62094" lon="6.79075">
        <ele>850.2</ele>
        <time>2021-05-28T14:24:53Z</time>
      </trkpt>
      <trkpt lat="45.62089" lon="6.7906">
        <ele>849.6</ele>
        <time>2021-05-28T14:24:54Z</time>
      </trkpt>
      <trkpt lat="45.62084" lon="6.79046">
        <ele>848.6</ele>
        <time>2021-05-28T14:24:55Z</time>
      </trkpt>
      <trkpt lat="45.62079" lon="6.79032">
        <ele>847.8</ele>
        <time>2021-05-28T14:24:56Z</time>
      </trkpt>
      <trkpt lat="45.62075" lon="6.79018">
        <ele>847.2</ele>
        <time>2021-05-28T14:24:57Z</time>
      </trkpt>
      <trkpt lat="45.6207" lon="6.79004">
        <ele>846.8</ele>
        <time>2021-05-28T14:24:58Z</time>
      </trkpt>
      <trkpt lat="45.62065" lon="6.7899">
        <ele>846.8</ele>
        <time>2021-05-28T14:24:59Z</time>
      </trkpt>
      <trkpt lat="45.6206" lon="6.78976">
        <ele>846.6</ele>
        <time>2021-05-28T14:25:00Z</time>
      </trkpt>
      <trkpt lat="45.62056" lon="6.78963">
        <ele>846.4</ele>
        <time>2021-05-28T14:25:01Z</time>
      </trkpt>
      <trkpt lat="45.62051" lon="6.78949">
        <ele>845</ele>
        <time>2021-05-28T14:25:02Z</time>
      </trkpt>
      <trkpt lat="45.62046" lon="6.78937">
        <ele>844</ele>
        <time>2021-05-28T14:25:03Z</time>
      </trkpt>
      <trkpt lat="45.62042" lon="6.78924">
        <ele>844.4</ele>
        <time>2021-05-28T14:25:04Z</time>
      </trkpt>
      <trkpt lat="45.62038" lon="6.78912">
        <ele>844.6</ele>
        <time>2021-05-28T14:25:05Z</time>
      </trkpt>
      <trkpt lat="45.62035" lon="6.78902">
        <ele>844.4</ele>
        <time>2021-05-28T14:25:06Z</time>
      </trkpt>
      <trkpt lat="45.6203" lon="6.78893">
        <ele>843.4</ele>
        <time>2021-05-28T14:25:07Z</time>
      </trkpt>
      <trkpt lat="45.62025" lon="6.78885">
        <ele>842.6</ele>
        <time>2021-05-28T14:25:08Z</time>
      </trkpt>
      <trkpt lat="45.62019" lon="6.78879">
        <ele>842</ele>
        <time>2021-05-28T14:25:09Z</time>
      </trkpt>
      <trkpt lat="45.62012" lon="6.78876">
        <ele>842</ele>
        <time>2021-05-28T14:25:10Z</time>
      </trkpt>
      <trkpt lat="45.62004" lon="6.78875">
        <ele>841.4</ele>
        <time>2021-05-28T14:25:11Z</time>
      </trkpt>
      <trkpt lat="45.61996" lon="6.78875">
        <ele>840.6</ele>
        <time>2021-05-28T14:25:12Z</time>
      </trkpt>
      <trkpt lat="45.61988" lon="6.78874">
        <ele>839.6</ele>
        <time>2021-05-28T14:25:13Z</time>
      </trkpt>
      <trkpt lat="45.6198" lon="6.78874">
        <ele>838.8</ele>
        <time>2021-05-28T14:25:14Z</time>
      </trkpt>
      <trkpt lat="45.61971" lon="6.78874">
        <ele>838.4</ele>
        <time>2021-05-28T14:25:15Z</time>
      </trkpt>
      <trkpt lat="45.61963" lon="6.78874">
        <ele>838.2</ele>
        <time>2021-05-28T14:25:16Z</time>
      </trkpt>
      <trkpt lat="45.61955" lon="6.78874">
        <ele>838</ele>
        <time>2021-05-28T14:25:17Z</time>
      </trkpt>
      <trkpt lat="45.61947" lon="6.78874">
        <ele>837.6</ele>
        <time>2021-05-28T14:25:18Z</time>
      </trkpt>
      <trkpt lat="45.61939" lon="6.78876">
        <ele>837.4</ele>
        <time>2021-05-28T14:25:19Z</time>
      </trkpt>
      <trkpt lat="45.61931" lon="6.78877">
        <ele>837.4</ele>
        <time>2021-05-28T14:25:20Z</time>
      </trkpt>
      <trkpt lat="45.61922" lon="6.78878">
        <ele>837.6</ele>
        <time>2021-05-28T14:25:21Z</time>
      </trkpt>
      <trkpt lat="45.61914" lon="6.7888">
        <ele>837.4</ele>
        <time>2021-05-28T14:25:22Z</time>
      </trkpt>
      <trkpt lat="45.61906" lon="6.78881">
        <ele>837.4</ele>
        <time>2021-05-28T14:25:23Z</time>
      </trkpt>
      <trkpt lat="45.61899" lon="6.78882">
        <ele>837.6</ele>
        <time>2021-05-28T14:25:24Z</time>
      </trkpt>
      <trkpt lat="45.61892" lon="6.78883">
        <ele>837.6</ele>
        <time>2021-05-28T14:25:25Z</time>
      </trkpt>
      <trkpt lat="45.61885" lon="6.78884">
        <ele>837.6</ele>
        <time>2021-05-28T14:25:26Z</time>
      </trkpt>
      <trkpt lat="45.61878" lon="6.78886">
        <ele>837.2</ele>
        <time>2021-05-28T14:25:27Z</time>
      </trkpt>
      <trkpt lat="45.61871" lon="6.78888">
        <ele>836.8</ele>
        <time>2021-05-28T14:25:28Z</time>
      </trkpt>
      <trkpt lat="45.61863" lon="6.78891">
        <ele>836.4</ele>
        <time>2021-05-28T14:25:29Z</time>
      </trkpt>
      <trkpt lat="45.61857" lon="6.78893">
        <ele>836</ele>
        <time>2021-05-28T14:25:30Z</time>
      </trkpt>
      <trkpt lat="45.6185" lon="6.78896">
        <ele>835.8</ele>
        <time>2021-05-28T14:25:31Z</time>
      </trkpt>
      <trkpt lat="45.61844" lon="6.78899">
        <ele>835.6</ele>
        <time>2021-05-28T14:25:32Z</time>
      </trkpt>
      <trkpt lat="45.61837" lon="6.78901">
        <ele>835.8</ele>
        <time>2021-05-28T14:25:33Z</time>
      </trkpt>
      <trkpt lat="45.6183" lon="6.78901">
        <ele>835.6</ele>
        <time>2021-05-28T14:25:34Z</time>
      </trkpt>
      <trkpt lat="45.61823" lon="6.78899">
        <ele>835</ele>
        <time>2021-05-28T14:25:35Z</time>
      </trkpt>
      <trkpt lat="45.61816" lon="6.78896">
        <ele>835</ele>
        <time>2021-05-28T14:25:36Z</time>
      </trkpt>
      <trkpt lat="45.61809" lon="6.78891">
        <ele>834.8</ele>
        <time>2021-05-28T14:25:37Z</time>
      </trkpt>
      <trkpt lat="45.61804" lon="6.78885">
        <ele>834.8</ele>
        <time>2021-05-28T14:25:38Z</time>
      </trkpt>
      <trkpt lat="45.61798" lon="6.78877">
        <ele>834.6</ele>
        <time>2021-05-28T14:25:39Z</time>
      </trkpt>
      <trkpt lat="45.61792" lon="6.78869">
        <ele>834.4</ele>
        <time>2021-05-28T14:25:40Z</time>
      </trkpt>
      <trkpt lat="45.61788" lon="6.7886">
        <ele>834.2</ele>
        <time>2021-05-28T14:25:41Z</time>
      </trkpt>
      <trkpt lat="45.61784" lon="6.7885">
        <ele>834.4</ele>
        <time>2021-05-28T14:25:42Z</time>
      </trkpt>
      <trkpt lat="45.61782" lon="6.7884">
        <ele>834.2</ele>
        <time>2021-05-28T14:25:43Z</time>
      </trkpt>
      <trkpt lat="45.6178" lon="6.78829">
        <ele>834</ele>
        <time>2021-05-28T14:25:44Z</time>
      </trkpt>
      <trkpt lat="45.61778" lon="6.78818">
        <ele>834.2</ele>
        <time>2021-05-28T14:25:45Z</time>
      </trkpt>
      <trkpt lat="45.61776" lon="6.78807">
        <ele>834.4</ele>
        <time>2021-05-28T14:25:46Z</time>
      </trkpt>
      <trkpt lat="45.61773" lon="6.78796">
        <ele>834.4</ele>
        <time>2021-05-28T14:25:47Z</time>
      </trkpt>
      <trkpt lat="45.6177" lon="6.78786">
        <ele>834.4</ele>
        <time>2021-05-28T14:25:48Z</time>
      </trkpt>
      <trkpt lat="45.61765" lon="6.78776">
        <ele>834.6</ele>
        <time>2021-05-28T14:25:49Z</time>
      </trkpt>
      <trkpt lat="45.6176" lon="6.78768">
        <ele>834.6</ele>
        <time>2021-05-28T14:25:50Z</time>
      </trkpt>
      <trkpt lat="45.61754" lon="6.78759">
        <ele>834.8</ele>
        <time>2021-05-28T14:25:51Z</time>
      </trkpt>
      <trkpt lat="45.61748" lon="6.78751">
        <ele>834.8</ele>
        <time>2021-05-28T14:25:52Z</time>
      </trkpt>
      <trkpt lat="45.61742" lon="6.78743">
        <ele>835</ele>
        <time>2021-05-28T14:25:53Z</time>
      </trkpt>
      <trkpt lat="45.61737" lon="6.78734">
        <ele>834.8</ele>
        <time>2021-05-28T14:25:54Z</time>
      </trkpt>
      <trkpt lat="45.61731" lon="6.78726">
        <ele>835</ele>
        <time>2021-05-28T14:25:55Z</time>
      </trkpt>
      <trkpt lat="45.61725" lon="6.78718">
        <ele>834.8</ele>
        <time>2021-05-28T14:25:56Z</time>
      </trkpt>
      <trkpt lat="45.61719" lon="6.7871">
        <ele>834.6</ele>
        <time>2021-05-28T14:25:57Z</time>
      </trkpt>
      <trkpt lat="45.61714" lon="6.78701">
        <ele>834.8</ele>
        <time>2021-05-28T14:25:58Z</time>
      </trkpt>
      <trkpt lat="45.61709" lon="6.78692">
        <ele>834.6</ele>
        <time>2021-05-28T14:25:59Z</time>
      </trkpt>
      <trkpt lat="45.61703" lon="6.78682">
        <ele>834.4</ele>
        <time>2021-05-28T14:26:00Z</time>
      </trkpt>
      <trkpt lat="45.61699" lon="6.78672">
        <ele>834.2</ele>
        <time>2021-05-28T14:26:01Z</time>
      </trkpt>
      <trkpt lat="45.61694" lon="6.78662">
        <ele>834</ele>
        <time>2021-05-28T14:26:02Z</time>
      </trkpt>
      <trkpt lat="45.61691" lon="6.78652">
        <ele>834</ele>
        <time>2021-05-28T14:26:03Z</time>
      </trkpt>
      <trkpt lat="45.61687" lon="6.78641">
        <ele>834.4</ele>
        <time>2021-05-28T14:26:04Z</time>
      </trkpt>
      <trkpt lat="45.61684" lon="6.78631">
        <ele>834.2</ele>
        <time>2021-05-28T14:26:05Z</time>
      </trkpt>
      <trkpt lat="45.6168" lon="6.7862">
        <ele>833.8</ele>
        <time>2021-05-28T14:26:06Z</time>
      </trkpt>
      <trkpt lat="45.61676" lon="6.7861">
        <ele>833.8</ele>
        <time>2021-05-28T14:26:07Z</time>
      </trkpt>
      <trkpt lat="45.61673" lon="6.78599">
        <ele>833.6</ele>
        <time>2021-05-28T14:26:08Z</time>
      </trkpt>
      <trkpt lat="45.6167" lon="6.78589">
        <ele>833.6</ele>
        <time>2021-05-28T14:26:09Z</time>
      </trkpt>
      <trkpt lat="45.61667" lon="6.78578">
        <ele>833</ele>
        <time>2021-05-28T14:26:10Z</time>
      </trkpt>
      <trkpt lat="45.61663" lon="6.78568">
        <ele>832.4</ele>
        <time>2021-05-28T14:26:11Z</time>
      </trkpt>
      <trkpt lat="45.6166" lon="6.78558">
        <ele>832</ele>
        <time>2021-05-28T14:26:12Z</time>
      </trkpt>
      <trkpt lat="45.61657" lon="6.78547">
        <ele>832</ele>
        <time>2021-05-28T14:26:13Z</time>
      </trkpt>
      <trkpt lat="45.61655" lon="6.78537">
        <ele>832</ele>
        <time>2021-05-28T14:26:14Z</time>
      </trkpt>
      <trkpt lat="45.61652" lon="6.78527">
        <ele>832.4</ele>
        <time>2021-05-28T14:26:15Z</time>
      </trkpt>
      <trkpt lat="45.61649" lon="6.78518">
        <ele>832.4</ele>
        <time>2021-05-28T14:26:16Z</time>
      </trkpt>
      <trkpt lat="45.61645" lon="6.78508">
        <ele>832.4</ele>
        <time>2021-05-28T14:26:17Z</time>
      </trkpt>
      <trkpt lat="45.61643" lon="6.78498">
        <ele>832.4</ele>
        <time>2021-05-28T14:26:18Z</time>
      </trkpt>
      <trkpt lat="45.6164" lon="6.78488">
        <ele>832.6</ele>
        <time>2021-05-28T14:26:19Z</time>
      </trkpt>
      <trkpt lat="45.61637" lon="6.78478">
        <ele>832.6</ele>
        <time>2021-05-28T14:26:20Z</time>
      </trkpt>
      <trkpt lat="45.61634" lon="6.78469">
        <ele>832.8</ele>
        <time>2021-05-28T14:26:21Z</time>
      </trkpt>
      <trkpt lat="45.61631" lon="6.78459">
        <ele>833</ele>
        <time>2021-05-28T14:26:22Z</time>
      </trkpt>
      <trkpt lat="45.61628" lon="6.7845">
        <ele>833.2</ele>
        <time>2021-05-28T14:26:23Z</time>
      </trkpt>
      <trkpt lat="45.61625" lon="6.7844">
        <ele>833.4</ele>
        <time>2021-05-28T14:26:24Z</time>
      </trkpt>
      <trkpt lat="45.61621" lon="6.78432">
        <ele>833.4</ele>
        <time>2021-05-28T14:26:25Z</time>
      </trkpt>
      <trkpt lat="45.61617" lon="6.78422">
        <ele>833.4</ele>
        <time>2021-05-28T14:26:26Z</time>
      </trkpt>
      <trkpt lat="45.61613" lon="6.78413">
        <ele>833.4</ele>
        <time>2021-05-28T14:26:27Z</time>
      </trkpt>
      <trkpt lat="45.61609" lon="6.78403">
        <ele>833.4</ele>
        <time>2021-05-28T14:26:28Z</time>
      </trkpt>
      <trkpt lat="45.61604" lon="6.78392">
        <ele>833.4</ele>
        <time>2021-05-28T14:26:29Z</time>
      </trkpt>
      <trkpt lat="45.616" lon="6.78381">
        <ele>833.4</ele>
        <time>2021-05-28T14:26:30Z</time>
      </trkpt>
      <trkpt lat="45.61596" lon="6.7837">
        <ele>833.2</ele>
        <time>2021-05-28T14:26:31Z</time>
      </trkpt>
      <trkpt lat="45.61592" lon="6.78358">
        <ele>832.6</ele>
        <time>2021-05-28T14:26:32Z</time>
      </trkpt>
      <trkpt lat="45.61589" lon="6.78346">
        <ele>832.2</ele>
        <time>2021-05-28T14:26:33Z</time>
      </trkpt>
      <trkpt lat="45.61586" lon="6.78335">
        <ele>831.8</ele>
        <time>2021-05-28T14:26:34Z</time>
      </trkpt>
      <trkpt lat="45.61583" lon="6.78323">
        <ele>831.6</ele>
        <time>2021-05-28T14:26:35Z</time>
      </trkpt>
      <trkpt lat="45.6158" lon="6.78312">
        <ele>831.4</ele>
        <time>2021-05-28T14:26:36Z</time>
      </trkpt>
      <trkpt lat="45.61576" lon="6.783">
        <ele>831.2</ele>
        <time>2021-05-28T14:26:37Z</time>
      </trkpt>
      <trkpt lat="45.61572" lon="6.7829">
        <ele>830.8</ele>
        <time>2021-05-28T14:26:38Z</time>
      </trkpt>
      <trkpt lat="45.61567" lon="6.78279">
        <ele>830.8</ele>
        <time>2021-05-28T14:26:39Z</time>
      </trkpt>
      <trkpt lat="45.61562" lon="6.78269">
        <ele>830.8</ele>
        <time>2021-05-28T14:26:40Z</time>
      </trkpt>
      <trkpt lat="45.61557" lon="6.78259">
        <ele>830.8</ele>
        <time>2021-05-28T14:26:41Z</time>
      </trkpt>
      <trkpt lat="45.61552" lon="6.78249">
        <ele>830.6</ele>
        <time>2021-05-28T14:26:42Z</time>
      </trkpt>
      <trkpt lat="45.61548" lon="6.78238">
        <ele>830.4</ele>
        <time>2021-05-28T14:26:43Z</time>
      </trkpt>
      <trkpt lat="45.61545" lon="6.78228">
        <ele>830.8</ele>
        <time>2021-05-28T14:26:44Z</time>
      </trkpt>
      <trkpt lat="45.61543" lon="6.78217">
        <ele>830.4</ele>
        <time>2021-05-28T14:26:45Z</time>
      </trkpt>
      <trkpt lat="45.61541" lon="6.78206">
        <ele>830.4</ele>
        <time>2021-05-28T14:26:46Z</time>
      </trkpt>
      <trkpt lat="45.6154" lon="6.78196">
        <ele>830.4</ele>
        <time>2021-05-28T14:26:47Z</time>
      </trkpt>
      <trkpt lat="45.61538" lon="6.78186">
        <ele>830.6</ele>
        <time>2021-05-28T14:26:48Z</time>
      </trkpt>
      <trkpt lat="45.61537" lon="6.78175">
        <ele>830.6</ele>
        <time>2021-05-28T14:26:49Z</time>
      </trkpt>
      <trkpt lat="45.61536" lon="6.78165">
        <ele>830.4</ele>
        <time>2021-05-28T14:26:50Z</time>
      </trkpt>
      <trkpt lat="45.61533" lon="6.78154">
        <ele>830.2</ele>
        <time>2021-05-28T14:26:51Z</time>
      </trkpt>
      <trkpt lat="45.6153" lon="6.78144">
        <ele>830.2</ele>
        <time>2021-05-28T14:26:52Z</time>
      </trkpt>
      <trkpt lat="45.61527" lon="6.78135">
        <ele>830</ele>
        <time>2021-05-28T14:26:53Z</time>
      </trkpt>
      <trkpt lat="45.61523" lon="6.78126">
        <ele>830</ele>
        <time>2021-05-28T14:26:54Z</time>
      </trkpt>
      <trkpt lat="45.61519" lon="6.78118">
        <ele>830</ele>
        <time>2021-05-28T14:26:55Z</time>
      </trkpt>
      <trkpt lat="45.61515" lon="6.78109">
        <ele>829.8</ele>
        <time>2021-05-28T14:26:56Z</time>
      </trkpt>
      <trkpt lat="45.61509" lon="6.78101">
        <ele>829.6</ele>
        <time>2021-05-28T14:26:57Z</time>
      </trkpt>
      <trkpt lat="45.61505" lon="6.78094">
        <ele>829.2</ele>
        <time>2021-05-28T14:26:58Z</time>
      </trkpt>
      <trkpt lat="45.615" lon="6.78088">
        <ele>829.2</ele>
        <time>2021-05-28T14:26:59Z</time>
      </trkpt>
      <trkpt lat="45.61496" lon="6.7808">
        <ele>829.2</ele>
        <time>2021-05-28T14:27:00Z</time>
      </trkpt>
      <trkpt lat="45.61492" lon="6.78072">
        <ele>829.2</ele>
        <time>2021-05-28T14:27:01Z</time>
      </trkpt>
      <trkpt lat="45.61488" lon="6.78064">
        <ele>829</ele>
        <time>2021-05-28T14:27:02Z</time>
      </trkpt>
      <trkpt lat="45.61485" lon="6.78055">
        <ele>829</ele>
        <time>2021-05-28T14:27:03Z</time>
      </trkpt>
      <trkpt lat="45.61483" lon="6.78046">
        <ele>829.2</ele>
        <time>2021-05-28T14:27:04Z</time>
      </trkpt>
      <trkpt lat="45.6148" lon="6.78037">
        <ele>829.4</ele>
        <time>2021-05-28T14:27:05Z</time>
      </trkpt>
      <trkpt lat="45.61479" lon="6.78028">
        <ele>829.6</ele>
        <time>2021-05-28T14:27:06Z</time>
      </trkpt>
      <trkpt lat="45.61477" lon="6.78019">
        <ele>830</ele>
        <time>2021-05-28T14:27:07Z</time>
      </trkpt>
      <trkpt lat="45.61475" lon="6.7801">
        <ele>830</ele>
        <time>2021-05-28T14:27:08Z</time>
      </trkpt>
      <trkpt lat="45.61473" lon="6.78002">
        <ele>830</ele>
        <time>2021-05-28T14:27:09Z</time>
      </trkpt>
      <trkpt lat="45.61471" lon="6.77994">
        <ele>830.2</ele>
        <time>2021-05-28T14:27:10Z</time>
      </trkpt>
      <trkpt lat="45.61468" lon="6.77985">
        <ele>830.6</ele>
        <time>2021-05-28T14:27:11Z</time>
      </trkpt>
      <trkpt lat="45.61465" lon="6.77976">
        <ele>830.6</ele>
        <time>2021-05-28T14:27:12Z</time>
      </trkpt>
      <trkpt lat="45.61461" lon="6.77968">
        <ele>830.4</ele>
        <time>2021-05-28T14:27:13Z</time>
      </trkpt>
      <trkpt lat="45.61457" lon="6.7796">
        <ele>830.8</ele>
        <time>2021-05-28T14:27:14Z</time>
      </trkpt>
      <trkpt lat="45.61453" lon="6.77952">
        <ele>831</ele>
        <time>2021-05-28T14:27:15Z</time>
      </trkpt>
      <trkpt lat="45.61449" lon="6.77944">
        <ele>830.8</ele>
        <time>2021-05-28T14:27:16Z</time>
      </trkpt>
      <trkpt lat="45.61445" lon="6.77936">
        <ele>831</ele>
        <time>2021-05-28T14:27:17Z</time>
      </trkpt>
      <trkpt lat="45.61442" lon="6.77928">
        <ele>831</ele>
        <time>2021-05-28T14:27:18Z</time>
      </trkpt>
      <trkpt lat="45.61439" lon="6.7792">
        <ele>831</ele>
        <time>2021-05-28T14:27:19Z</time>
      </trkpt>
      <trkpt lat="45.61436" lon="6.7791">
        <ele>831</ele>
        <time>2021-05-28T14:27:20Z</time>
      </trkpt>
      <trkpt lat="45.61434" lon="6.77899">
        <ele>830.8</ele>
        <time>2021-05-28T14:27:21Z</time>
      </trkpt>
      <trkpt lat="45.61434" lon="6.77888">
        <ele>830.6</ele>
        <time>2021-05-28T14:27:22Z</time>
      </trkpt>
      <trkpt lat="45.61435" lon="6.77877">
        <ele>830.6</ele>
        <time>2021-05-28T14:27:23Z</time>
      </trkpt>
      <trkpt lat="45.61435" lon="6.77866">
        <ele>830.2</ele>
        <time>2021-05-28T14:27:24Z</time>
      </trkpt>
      <trkpt lat="45.61435" lon="6.77855">
        <ele>830.2</ele>
        <time>2021-05-28T14:27:25Z</time>
      </trkpt>
      <trkpt lat="45.61435" lon="6.77843">
        <ele>830</ele>
        <time>2021-05-28T14:27:26Z</time>
      </trkpt>
      <trkpt lat="45.61433" lon="6.77832">
        <ele>830</ele>
        <time>2021-05-28T14:27:27Z</time>
      </trkpt>
      <trkpt lat="45.61431" lon="6.77822">
        <ele>829.8</ele>
        <time>2021-05-28T14:27:28Z</time>
      </trkpt>
      <trkpt lat="45.61428" lon="6.77812">
        <ele>829.6</ele>
        <time>2021-05-28T14:27:29Z</time>
      </trkpt>
      <trkpt lat="45.61424" lon="6.77802">
        <ele>829.4</ele>
        <time>2021-05-28T14:27:30Z</time>
      </trkpt>
      <trkpt lat="45.61419" lon="6.77793">
        <ele>829.4</ele>
        <time>2021-05-28T14:27:31Z</time>
      </trkpt>
      <trkpt lat="45.61414" lon="6.77784">
        <ele>828.8</ele>
        <time>2021-05-28T14:27:32Z</time>
      </trkpt>
      <trkpt lat="45.61408" lon="6.77775">
        <ele>828.6</ele>
        <time>2021-05-28T14:27:33Z</time>
      </trkpt>
      <trkpt lat="45.61403" lon="6.77767">
        <ele>828.2</ele>
        <time>2021-05-28T14:27:34Z</time>
      </trkpt>
      <trkpt lat="45.61397" lon="6.7776">
        <ele>827.8</ele>
        <time>2021-05-28T14:27:35Z</time>
      </trkpt>
      <trkpt lat="45.61391" lon="6.77753">
        <ele>827.4</ele>
        <time>2021-05-28T14:27:36Z</time>
      </trkpt>
      <trkpt lat="45.61385" lon="6.77747">
        <ele>827.6</ele>
        <time>2021-05-28T14:27:37Z</time>
      </trkpt>
      <trkpt lat="45.61378" lon="6.77741">
        <ele>827.6</ele>
        <time>2021-05-28T14:27:38Z</time>
      </trkpt>
      <trkpt lat="45.61371" lon="6.77735">
        <ele>827.8</ele>
        <time>2021-05-28T14:27:39Z</time>
      </trkpt>
      <trkpt lat="45.61364" lon="6.7773">
        <ele>827.6</ele>
        <time>2021-05-28T14:27:40Z</time>
      </trkpt>
      <trkpt lat="45.61357" lon="6.77725">
        <ele>827.6</ele>
        <time>2021-05-28T14:27:41Z</time>
      </trkpt>
      <trkpt lat="45.6135" lon="6.77721">
        <ele>827.8</ele>
        <time>2021-05-28T14:27:42Z</time>
      </trkpt>
      <trkpt lat="45.61343" lon="6.77717">
        <ele>827.6</ele>
        <time>2021-05-28T14:27:43Z</time>
      </trkpt>
      <trkpt lat="45.61336" lon="6.77714">
        <ele>827.8</ele>
        <time>2021-05-28T14:27:44Z</time>
      </trkpt>
      <trkpt lat="45.61329" lon="6.77711">
        <ele>827.8</ele>
        <time>2021-05-28T14:27:45Z</time>
      </trkpt>
      <trkpt lat="45.61321" lon="6.77708">
        <ele>827.8</ele>
        <time>2021-05-28T14:27:46Z</time>
      </trkpt>
      <trkpt lat="45.61314" lon="6.77706">
        <ele>827.8</ele>
        <time>2021-05-28T14:27:47Z</time>
      </trkpt>
      <trkpt lat="45.61307" lon="6.77704">
        <ele>828</ele>
        <time>2021-05-28T14:27:48Z</time>
      </trkpt>
      <trkpt lat="45.613" lon="6.77702">
        <ele>828</ele>
        <time>2021-05-28T14:27:49Z</time>
      </trkpt>
      <trkpt lat="45.61292" lon="6.777">
        <ele>827.6</ele>
        <time>2021-05-28T14:27:50Z</time>
      </trkpt>
      <trkpt lat="45.61284" lon="6.77698">
        <ele>827.4</ele>
        <time>2021-05-28T14:27:51Z</time>
      </trkpt>
      <trkpt lat="45.61276" lon="6.77696">
        <ele>827.2</ele>
        <time>2021-05-28T14:27:52Z</time>
      </trkpt>
      <trkpt lat="45.61268" lon="6.77694">
        <ele>827.2</ele>
        <time>2021-05-28T14:27:53Z</time>
      </trkpt>
      <trkpt lat="45.6126" lon="6.77692">
        <ele>827</ele>
        <time>2021-05-28T14:27:54Z</time>
      </trkpt>
      <trkpt lat="45.61253" lon="6.77688">
        <ele>826.8</ele>
        <time>2021-05-28T14:27:55Z</time>
      </trkpt>
      <trkpt lat="45.61245" lon="6.77684">
        <ele>826.6</ele>
        <time>2021-05-28T14:27:56Z</time>
      </trkpt>
      <trkpt lat="45.61238" lon="6.7768">
        <ele>826.4</ele>
        <time>2021-05-28T14:27:57Z</time>
      </trkpt>
      <trkpt lat="45.61231" lon="6.77675">
        <ele>826.4</ele>
        <time>2021-05-28T14:27:58Z</time>
      </trkpt>
      <trkpt lat="45.61225" lon="6.77669">
        <ele>826.2</ele>
        <time>2021-05-28T14:27:59Z</time>
      </trkpt>
      <trkpt lat="45.61219" lon="6.77662">
        <ele>826.4</ele>
        <time>2021-05-28T14:28:00Z</time>
      </trkpt>
      <trkpt lat="45.61214" lon="6.77653">
        <ele>826.6</ele>
        <time>2021-05-28T14:28:01Z</time>
      </trkpt>
      <trkpt lat="45.6121" lon="6.77644">
        <ele>826.6</ele>
        <time>2021-05-28T14:28:02Z</time>
      </trkpt>
      <trkpt lat="45.61207" lon="6.77634">
        <ele>826.4</ele>
        <time>2021-05-28T14:28:03Z</time>
      </trkpt>
      <trkpt lat="45.61205" lon="6.77623">
        <ele>826.4</ele>
        <time>2021-05-28T14:28:04Z</time>
      </trkpt>
      <trkpt lat="45.61203" lon="6.77612">
        <ele>826.2</ele>
        <time>2021-05-28T14:28:05Z</time>
      </trkpt>
      <trkpt lat="45.61202" lon="6.77602">
        <ele>826</ele>
        <time>2021-05-28T14:28:06Z</time>
      </trkpt>
      <trkpt lat="45.612" lon="6.77591">
        <ele>825.8</ele>
        <time>2021-05-28T14:28:07Z</time>
      </trkpt>
      <trkpt lat="45.61199" lon="6.77581">
        <ele>825.6</ele>
        <time>2021-05-28T14:28:08Z</time>
      </trkpt>
      <trkpt lat="45.61198" lon="6.7757">
        <ele>825.6</ele>
        <time>2021-05-28T14:28:09Z</time>
      </trkpt>
      <trkpt lat="45.61196" lon="6.7756">
        <ele>825.8</ele>
        <time>2021-05-28T14:28:10Z</time>
      </trkpt>
      <trkpt lat="45.61194" lon="6.77549">
        <ele>825.8</ele>
        <time>2021-05-28T14:28:11Z</time>
      </trkpt>
      <trkpt lat="45.61192" lon="6.77539">
        <ele>825.8</ele>
        <time>2021-05-28T14:28:12Z</time>
      </trkpt>
      <trkpt lat="45.6119" lon="6.77529">
        <ele>825.6</ele>
        <time>2021-05-28T14:28:13Z</time>
      </trkpt>
      <trkpt lat="45.61188" lon="6.7752">
        <ele>826</ele>
        <time>2021-05-28T14:28:14Z</time>
      </trkpt>
      <trkpt lat="45.61185" lon="6.77511">
        <ele>825.8</ele>
        <time>2021-05-28T14:28:15Z</time>
      </trkpt>
      <trkpt lat="45.61182" lon="6.77503">
        <ele>826</ele>
        <time>2021-05-28T14:28:16Z</time>
      </trkpt>
      <trkpt lat="45.61179" lon="6.77495">
        <ele>826.2</ele>
        <time>2021-05-28T14:28:17Z</time>
      </trkpt>
      <trkpt lat="45.61177" lon="6.77487">
        <ele>826.4</ele>
        <time>2021-05-28T14:28:18Z</time>
      </trkpt>
      <trkpt lat="45.61175" lon="6.77479">
        <ele>827</ele>
        <time>2021-05-28T14:28:19Z</time>
      </trkpt>
      <trkpt lat="45.61173" lon="6.77472">
        <ele>827</ele>
        <time>2021-05-28T14:28:20Z</time>
      </trkpt>
      <trkpt lat="45.61172" lon="6.77464">
        <ele>827</ele>
        <time>2021-05-28T14:28:21Z</time>
      </trkpt>
      <trkpt lat="45.61172" lon="6.77457">
        <ele>827.4</ele>
        <time>2021-05-28T14:28:22Z</time>
      </trkpt>
      <trkpt lat="45.61172" lon="6.7745">
        <ele>827.4</ele>
        <time>2021-05-28T14:28:23Z</time>
      </trkpt>
      <trkpt lat="45.61172" lon="6.77443">
        <ele>827.4</ele>
        <time>2021-05-28T14:28:24Z</time>
      </trkpt>
      <trkpt lat="45.61173" lon="6.77436">
        <ele>827</ele>
        <time>2021-05-28T14:28:25Z</time>
      </trkpt>
      <trkpt lat="45.61174" lon="6.7743">
        <ele>827</ele>
        <time>2021-05-28T14:28:26Z</time>
      </trkpt>
      <trkpt lat="45.61175" lon="6.77423">
        <ele>827.2</ele>
        <time>2021-05-28T14:28:27Z</time>
      </trkpt>
      <trkpt lat="45.61175" lon="6.77416">
        <ele>827</ele>
        <time>2021-05-28T14:28:28Z</time>
      </trkpt>
      <trkpt lat="45.61176" lon="6.77409">
        <ele>826.8</ele>
        <time>2021-05-28T14:28:29Z</time>
      </trkpt>
      <trkpt lat="45.61177" lon="6.77402">
        <ele>826.6</ele>
        <time>2021-05-28T14:28:30Z</time>
      </trkpt>
      <trkpt lat="45.61177" lon="6.77395">
        <ele>826.4</ele>
        <time>2021-05-28T14:28:31Z</time>
      </trkpt>
      <trkpt lat="45.61178" lon="6.77388">
        <ele>826.4</ele>
        <time>2021-05-28T14:28:32Z</time>
      </trkpt>
      <trkpt lat="45.61178" lon="6.7738">
        <ele>826</ele>
        <time>2021-05-28T14:28:33Z</time>
      </trkpt>
      <trkpt lat="45.61179" lon="6.77374">
        <ele>825.6</ele>
        <time>2021-05-28T14:28:34Z</time>
      </trkpt>
      <trkpt lat="45.6118" lon="6.77366">
        <ele>825.2</ele>
        <time>2021-05-28T14:28:35Z</time>
      </trkpt>
      <trkpt lat="45.61182" lon="6.77359">
        <ele>824.8</ele>
        <time>2021-05-28T14:28:36Z</time>
      </trkpt>
      <trkpt lat="45.61186" lon="6.77353">
        <ele>824.2</ele>
        <time>2021-05-28T14:28:37Z</time>
      </trkpt>
      <trkpt lat="45.61189" lon="6.77346">
        <ele>824</ele>
        <time>2021-05-28T14:28:38Z</time>
      </trkpt>
      <trkpt lat="45.61193" lon="6.7734">
        <ele>823.8</ele>
        <time>2021-05-28T14:28:39Z</time>
      </trkpt>
      <trkpt lat="45.61197" lon="6.77334">
        <ele>823.4</ele>
        <time>2021-05-28T14:28:40Z</time>
      </trkpt>
      <trkpt lat="45.61202" lon="6.77328">
        <ele>823</ele>
        <time>2021-05-28T14:28:41Z</time>
      </trkpt>
      <trkpt lat="45.61207" lon="6.77324">
        <ele>822.6</ele>
        <time>2021-05-28T14:28:42Z</time>
      </trkpt>
      <trkpt lat="45.61212" lon="6.77321">
        <ele>822.4</ele>
        <time>2021-05-28T14:28:43Z</time>
      </trkpt>
      <trkpt lat="45.61218" lon="6.77318">
        <ele>822.4</ele>
        <time>2021-05-28T14:28:44Z</time>
      </trkpt>
      <trkpt lat="45.61224" lon="6.77315">
        <ele>822.2</ele>
        <time>2021-05-28T14:28:45Z</time>
      </trkpt>
      <trkpt lat="45.61229" lon="6.7731">
        <ele>822</ele>
        <time>2021-05-28T14:28:46Z</time>
      </trkpt>
      <trkpt lat="45.61235" lon="6.77305">
        <ele>821.8</ele>
        <time>2021-05-28T14:28:47Z</time>
      </trkpt>
      <trkpt lat="45.61241" lon="6.77301">
        <ele>821.8</ele>
        <time>2021-05-28T14:28:48Z</time>
      </trkpt>
      <trkpt lat="45.61248" lon="6.773">
        <ele>821.6</ele>
        <time>2021-05-28T14:28:49Z</time>
      </trkpt>
      <trkpt lat="45.61254" lon="6.77301">
        <ele>821.6</ele>
        <time>2021-05-28T14:28:50Z</time>
      </trkpt>
      <trkpt lat="45.6126" lon="6.77302">
        <ele>821.2</ele>
        <time>2021-05-28T14:28:51Z</time>
      </trkpt>
      <trkpt lat="45.61265" lon="6.77302">
        <ele>821</ele>
        <time>2021-05-28T14:28:52Z</time>
      </trkpt>
      <trkpt lat="45.61271" lon="6.77301">
        <ele>821.4</ele>
        <time>2021-05-28T14:28:53Z</time>
      </trkpt>
      <trkpt lat="45.61276" lon="6.77299">
        <ele>821.2</ele>
        <time>2021-05-28T14:28:54Z</time>
      </trkpt>
      <trkpt lat="45.61281" lon="6.77296">
        <ele>821</ele>
        <time>2021-05-28T14:28:55Z</time>
      </trkpt>
      <trkpt lat="45.61286" lon="6.77294">
        <ele>820.8</ele>
        <time>2021-05-28T14:28:56Z</time>
      </trkpt>
      <trkpt lat="45.61291" lon="6.77292">
        <ele>820.8</ele>
        <time>2021-05-28T14:28:57Z</time>
      </trkpt>
      <trkpt lat="45.61296" lon="6.77291">
        <ele>820.6</ele>
        <time>2021-05-28T14:28:58Z</time>
      </trkpt>
      <trkpt lat="45.61301" lon="6.7729">
        <ele>820.2</ele>
        <time>2021-05-28T14:28:59Z</time>
      </trkpt>
      <trkpt lat="45.61306" lon="6.7729">
        <ele>820.2</ele>
        <time>2021-05-28T14:29:00Z</time>
      </trkpt>
      <trkpt lat="45.6131" lon="6.77291">
        <ele>820</ele>
        <time>2021-05-28T14:29:01Z</time>
      </trkpt>
      <trkpt lat="45.61314" lon="6.77291">
        <ele>820</ele>
        <time>2021-05-28T14:29:02Z</time>
      </trkpt>
      <trkpt lat="45.61319" lon="6.7729">
        <ele>820</ele>
        <time>2021-05-28T14:29:03Z</time>
      </trkpt>
      <trkpt lat="45.61323" lon="6.7729">
        <ele>820</ele>
        <time>2021-05-28T14:29:04Z</time>
      </trkpt>
      <trkpt lat="45.61326" lon="6.7729">
        <ele>820</ele>
        <time>2021-05-28T14:29:05Z</time>
      </trkpt>
      <trkpt lat="45.6133" lon="6.77289">
        <ele>820</ele>
        <time>2021-05-28T14:29:06Z</time>
      </trkpt>
      <trkpt lat="45.61335" lon="6.77288">
        <ele>820.2</ele>
        <time>2021-05-28T14:29:07Z</time>
      </trkpt>
      <trkpt lat="45.61339" lon="6.77288">
        <ele>820.2</ele>
        <time>2021-05-28T14:29:08Z</time>
      </trkpt>
      <trkpt lat="45.61343" lon="6.77288">
        <ele>820</ele>
        <time>2021-05-28T14:29:09Z</time>
      </trkpt>
      <trkpt lat="45.61348" lon="6.7729">
        <ele>820</ele>
        <time>2021-05-28T14:29:10Z</time>
      </trkpt>
      <trkpt lat="45.61353" lon="6.77291">
        <ele>819.8</ele>
        <time>2021-05-28T14:29:11Z</time>
      </trkpt>
      <trkpt lat="45.61357" lon="6.77294">
        <ele>819.6</ele>
        <time>2021-05-28T14:29:12Z</time>
      </trkpt>
      <trkpt lat="45.61363" lon="6.77297">
        <ele>819.6</ele>
        <time>2021-05-28T14:29:13Z</time>
      </trkpt>
      <trkpt lat="45.61367" lon="6.77301">
        <ele>819.4</ele>
        <time>2021-05-28T14:29:14Z</time>
      </trkpt>
      <trkpt lat="45.61372" lon="6.77305">
        <ele>819.6</ele>
        <time>2021-05-28T14:29:15Z</time>
      </trkpt>
      <trkpt lat="45.61376" lon="6.77309">
        <ele>820</ele>
        <time>2021-05-28T14:29:16Z</time>
      </trkpt>
      <trkpt lat="45.61381" lon="6.77313">
        <ele>820.4</ele>
        <time>2021-05-28T14:29:17Z</time>
      </trkpt>
      <trkpt lat="45.61387" lon="6.77316">
        <ele>820.4</ele>
        <time>2021-05-28T14:29:18Z</time>
      </trkpt>
      <trkpt lat="45.61392" lon="6.77319">
        <ele>820.6</ele>
        <time>2021-05-28T14:29:19Z</time>
      </trkpt>
      <trkpt lat="45.61397" lon="6.77322">
        <ele>820.6</ele>
        <time>2021-05-28T14:29:20Z</time>
      </trkpt>
      <trkpt lat="45.61404" lon="6.77326">
        <ele>820.8</ele>
        <time>2021-05-28T14:29:21Z</time>
      </trkpt>
      <trkpt lat="45.61409" lon="6.77329">
        <ele>821</ele>
        <time>2021-05-28T14:29:22Z</time>
      </trkpt>
      <trkpt lat="45.61414" lon="6.77334">
        <ele>820.4</ele>
        <time>2021-05-28T14:29:23Z</time>
      </trkpt>
      <trkpt lat="45.6142" lon="6.77338">
        <ele>820.2</ele>
        <time>2021-05-28T14:29:24Z</time>
      </trkpt>
      <trkpt lat="45.61425" lon="6.77342">
        <ele>820</ele>
        <time>2021-05-28T14:29:25Z</time>
      </trkpt>
      <trkpt lat="45.61431" lon="6.77347">
        <ele>820</ele>
        <time>2021-05-28T14:29:26Z</time>
      </trkpt>
      <trkpt lat="45.61436" lon="6.77352">
        <ele>820.2</ele>
        <time>2021-05-28T14:29:27Z</time>
      </trkpt>
      <trkpt lat="45.61441" lon="6.77357">
        <ele>820</ele>
        <time>2021-05-28T14:29:28Z</time>
      </trkpt>
      <trkpt lat="45.61446" lon="6.77361">
        <ele>820.4</ele>
        <time>2021-05-28T14:29:29Z</time>
      </trkpt>
      <trkpt lat="45.61452" lon="6.77364">
        <ele>820.2</ele>
        <time>2021-05-28T14:29:30Z</time>
      </trkpt>
      <trkpt lat="45.61459" lon="6.77367">
        <ele>820.2</ele>
        <time>2021-05-28T14:29:31Z</time>
      </trkpt>
      <trkpt lat="45.61466" lon="6.77367">
        <ele>820.6</ele>
        <time>2021-05-28T14:29:32Z</time>
      </trkpt>
      <trkpt lat="45.61473" lon="6.77366">
        <ele>820.8</ele>
        <time>2021-05-28T14:29:33Z</time>
      </trkpt>
      <trkpt lat="45.6148" lon="6.77366">
        <ele>820.8</ele>
        <time>2021-05-28T14:29:34Z</time>
      </trkpt>
      <trkpt lat="45.61487" lon="6.77366">
        <ele>820.8</ele>
        <time>2021-05-28T14:29:35Z</time>
      </trkpt>
      <trkpt lat="45.61494" lon="6.77365">
        <ele>820.6</ele>
        <time>2021-05-28T14:29:36Z</time>
      </trkpt>
      <trkpt lat="45.61501" lon="6.77364">
        <ele>820.8</ele>
        <time>2021-05-28T14:29:37Z</time>
      </trkpt>
      <trkpt lat="45.61508" lon="6.77363">
        <ele>821</ele>
        <time>2021-05-28T14:29:38Z</time>
      </trkpt>
      <trkpt lat="45.61514" lon="6.77362">
        <ele>821</ele>
        <time>2021-05-28T14:29:39Z</time>
      </trkpt>
      <trkpt lat="45.61521" lon="6.77362">
        <ele>821</ele>
        <time>2021-05-28T14:29:40Z</time>
      </trkpt>
      <trkpt lat="45.61529" lon="6.77361">
        <ele>821</ele>
        <time>2021-05-28T14:29:41Z</time>
      </trkpt>
      <trkpt lat="45.61536" lon="6.77359">
        <ele>821.2</ele>
        <time>2021-05-28T14:29:42Z</time>
      </trkpt>
      <trkpt lat="45.61544" lon="6.77357">
        <ele>821.2</ele>
        <time>2021-05-28T14:29:43Z</time>
      </trkpt>
      <trkpt lat="45.61551" lon="6.77355">
        <ele>821.2</ele>
        <time>2021-05-28T14:29:44Z</time>
      </trkpt>
      <trkpt lat="45.61558" lon="6.77353">
        <ele>821.4</ele>
        <time>2021-05-28T14:29:45Z</time>
      </trkpt>
      <trkpt lat="45.61566" lon="6.77351">
        <ele>821.6</ele>
        <time>2021-05-28T14:29:46Z</time>
      </trkpt>
      <trkpt lat="45.61573" lon="6.77349">
        <ele>821.6</ele>
        <time>2021-05-28T14:29:47Z</time>
      </trkpt>
      <trkpt lat="45.61581" lon="6.77348">
        <ele>822</ele>
        <time>2021-05-28T14:29:48Z</time>
      </trkpt>
      <trkpt lat="45.61588" lon="6.77346">
        <ele>822</ele>
        <time>2021-05-28T14:29:49Z</time>
      </trkpt>
      <trkpt lat="45.61596" lon="6.77344">
        <ele>822.2</ele>
        <time>2021-05-28T14:29:50Z</time>
      </trkpt>
      <trkpt lat="45.61603" lon="6.77342">
        <ele>822.6</ele>
        <time>2021-05-28T14:29:51Z</time>
      </trkpt>
      <trkpt lat="45.61611" lon="6.7734">
        <ele>822.6</ele>
        <time>2021-05-28T14:29:52Z</time>
      </trkpt>
      <trkpt lat="45.61617" lon="6.77339">
        <ele>822.8</ele>
        <time>2021-05-28T14:29:53Z</time>
      </trkpt>
      <trkpt lat="45.61624" lon="6.77338">
        <ele>822.8</ele>
        <time>2021-05-28T14:29:54Z</time>
      </trkpt>
      <trkpt lat="45.61632" lon="6.77337">
        <ele>823</ele>
        <time>2021-05-28T14:29:55Z</time>
      </trkpt>
      <trkpt lat="45.61639" lon="6.77336">
        <ele>823</ele>
        <time>2021-05-28T14:29:56Z</time>
      </trkpt>
      <trkpt lat="45.61647" lon="6.77334">
        <ele>823</ele>
        <time>2021-05-28T14:29:57Z</time>
      </trkpt>
      <trkpt lat="45.61654" lon="6.77332">
        <ele>822.8</ele>
        <time>2021-05-28T14:29:58Z</time>
      </trkpt>
      <trkpt lat="45.61661" lon="6.77331">
        <ele>822.6</ele>
        <time>2021-05-28T14:29:59Z</time>
      </trkpt>
      <trkpt lat="45.61668" lon="6.77329">
        <ele>822.6</ele>
        <time>2021-05-28T14:30:00Z</time>
      </trkpt>
      <trkpt lat="45.61676" lon="6.77327">
        <ele>822.8</ele>
        <time>2021-05-28T14:30:01Z</time>
      </trkpt>
      <trkpt lat="45.61684" lon="6.77325">
        <ele>822.8</ele>
        <time>2021-05-28T14:30:02Z</time>
      </trkpt>
      <trkpt lat="45.61691" lon="6.77322">
        <ele>823.2</ele>
        <time>2021-05-28T14:30:03Z</time>
      </trkpt>
      <trkpt lat="45.61698" lon="6.7732">
        <ele>823.2</ele>
        <time>2021-05-28T14:30:04Z</time>
      </trkpt>
      <trkpt lat="45.61705" lon="6.77318">
        <ele>823.2</ele>
        <time>2021-05-28T14:30:05Z</time>
      </trkpt>
      <trkpt lat="45.61713" lon="6.77316">
        <ele>823.4</ele>
        <time>2021-05-28T14:30:06Z</time>
      </trkpt>
      <trkpt lat="45.61721" lon="6.77314">
        <ele>823.6</ele>
        <time>2021-05-28T14:30:07Z</time>
      </trkpt>
      <trkpt lat="45.61728" lon="6.77312">
        <ele>823.8</ele>
        <time>2021-05-28T14:30:08Z</time>
      </trkpt>
      <trkpt lat="45.61736" lon="6.77311">
        <ele>823.8</ele>
        <time>2021-05-28T14:30:09Z</time>
      </trkpt>
      <trkpt lat="45.61743" lon="6.77309">
        <ele>823.8</ele>
        <time>2021-05-28T14:30:10Z</time>
      </trkpt>
      <trkpt lat="45.6175" lon="6.77308">
        <ele>824</ele>
        <time>2021-05-28T14:30:11Z</time>
      </trkpt>
      <trkpt lat="45.61758" lon="6.77306">
        <ele>823.6</ele>
        <time>2021-05-28T14:30:12Z</time>
      </trkpt>
      <trkpt lat="45.61766" lon="6.77304">
        <ele>823.8</ele>
        <time>2021-05-28T14:30:13Z</time>
      </trkpt>
      <trkpt lat="45.61773" lon="6.77302">
        <ele>824</ele>
        <time>2021-05-28T14:30:14Z</time>
      </trkpt>
      <trkpt lat="45.6178" lon="6.77301">
        <ele>823.8</ele>
        <time>2021-05-28T14:30:15Z</time>
      </trkpt>
      <trkpt lat="45.61788" lon="6.77299">
        <ele>823.8</ele>
        <time>2021-05-28T14:30:16Z</time>
      </trkpt>
      <trkpt lat="45.61795" lon="6.77297">
        <ele>823.8</ele>
        <time>2021-05-28T14:30:17Z</time>
      </trkpt>
      <trkpt lat="45.61802" lon="6.77296">
        <ele>824.2</ele>
        <time>2021-05-28T14:30:18Z</time>
      </trkpt>
      <trkpt lat="45.61809" lon="6.77294">
        <ele>824.4</ele>
        <time>2021-05-28T14:30:19Z</time>
      </trkpt>
      <trkpt lat="45.61816" lon="6.77292">
        <ele>824.4</ele>
        <time>2021-05-28T14:30:20Z</time>
      </trkpt>
      <trkpt lat="45.61824" lon="6.7729">
        <ele>824.4</ele>
        <time>2021-05-28T14:30:21Z</time>
      </trkpt>
      <trkpt lat="45.61831" lon="6.77288">
        <ele>824.2</ele>
        <time>2021-05-28T14:30:22Z</time>
      </trkpt>
      <trkpt lat="45.61838" lon="6.77287">
        <ele>824.2</ele>
        <time>2021-05-28T14:30:23Z</time>
      </trkpt>
      <trkpt lat="45.61845" lon="6.77285">
        <ele>824.4</ele>
        <time>2021-05-28T14:30:24Z</time>
      </trkpt>
      <trkpt lat="45.61853" lon="6.77283">
        <ele>824.6</ele>
        <time>2021-05-28T14:30:25Z</time>
      </trkpt>
      <trkpt lat="45.6186" lon="6.77282">
        <ele>824.6</ele>
        <time>2021-05-28T14:30:26Z</time>
      </trkpt>
      <trkpt lat="45.61868" lon="6.77281">
        <ele>824.6</ele>
        <time>2021-05-28T14:30:27Z</time>
      </trkpt>
      <trkpt lat="45.61875" lon="6.7728">
        <ele>824.6</ele>
        <time>2021-05-28T14:30:28Z</time>
      </trkpt>
      <trkpt lat="45.61883" lon="6.7728">
        <ele>824.8</ele>
        <time>2021-05-28T14:30:29Z</time>
      </trkpt>
      <trkpt lat="45.6189" lon="6.77281">
        <ele>824.6</ele>
        <time>2021-05-28T14:30:30Z</time>
      </trkpt>
      <trkpt lat="45.61897" lon="6.7728">
        <ele>824.4</ele>
        <time>2021-05-28T14:30:31Z</time>
      </trkpt>
      <trkpt lat="45.61904" lon="6.77279">
        <ele>824</ele>
        <time>2021-05-28T14:30:32Z</time>
      </trkpt>
      <trkpt lat="45.6191" lon="6.77276">
        <ele>823.8</ele>
        <time>2021-05-28T14:30:33Z</time>
      </trkpt>
      <trkpt lat="45.61916" lon="6.77271">
        <ele>824</ele>
        <time>2021-05-28T14:30:34Z</time>
      </trkpt>
      <trkpt lat="45.61922" lon="6.77264">
        <ele>824.2</ele>
        <time>2021-05-28T14:30:35Z</time>
      </trkpt>
      <trkpt lat="45.61926" lon="6.77258">
        <ele>824.4</ele>
        <time>2021-05-28T14:30:36Z</time>
      </trkpt>
      <trkpt lat="45.61931" lon="6.7725">
        <ele>824.4</ele>
        <time>2021-05-28T14:30:37Z</time>
      </trkpt>
      <trkpt lat="45.61936" lon="6.77244">
        <ele>824.8</ele>
        <time>2021-05-28T14:30:38Z</time>
      </trkpt>
      <trkpt lat="45.61941" lon="6.77238">
        <ele>825</ele>
        <time>2021-05-28T14:30:39Z</time>
      </trkpt>
      <trkpt lat="45.61947" lon="6.77233">
        <ele>825</ele>
        <time>2021-05-28T14:30:40Z</time>
      </trkpt>
      <trkpt lat="45.61952" lon="6.77228">
        <ele>824.8</ele>
        <time>2021-05-28T14:30:41Z</time>
      </trkpt>
      <trkpt lat="45.61957" lon="6.77224">
        <ele>824.6</ele>
        <time>2021-05-28T14:30:42Z</time>
      </trkpt>
      <trkpt lat="45.61962" lon="6.7722">
        <ele>824.8</ele>
        <time>2021-05-28T14:30:43Z</time>
      </trkpt>
      <trkpt lat="45.61967" lon="6.77216">
        <ele>825</ele>
        <time>2021-05-28T14:30:44Z</time>
      </trkpt>
      <trkpt lat="45.61971" lon="6.77212">
        <ele>825.6</ele>
        <time>2021-05-28T14:30:45Z</time>
      </trkpt>
      <trkpt lat="45.61975" lon="6.77208">
        <ele>826.2</ele>
        <time>2021-05-28T14:30:46Z</time>
      </trkpt>
      <trkpt lat="45.6198" lon="6.77205">
        <ele>826.6</ele>
        <time>2021-05-28T14:30:47Z</time>
      </trkpt>
      <trkpt lat="45.61983" lon="6.77202">
        <ele>826.8</ele>
        <time>2021-05-28T14:30:48Z</time>
      </trkpt>
      <trkpt lat="45.61987" lon="6.772">
        <ele>827.2</ele>
        <time>2021-05-28T14:30:49Z</time>
      </trkpt>
      <trkpt lat="45.6199" lon="6.77198">
        <ele>827.4</ele>
        <time>2021-05-28T14:30:50Z</time>
      </trkpt>
      <trkpt lat="45.61993" lon="6.77196">
        <ele>827.6</ele>
        <time>2021-05-28T14:30:51Z</time>
      </trkpt>
      <trkpt lat="45.61995" lon="6.77195">
        <ele>827.8</ele>
        <time>2021-05-28T14:30:52Z</time>
      </trkpt>
      <trkpt lat="45.61998" lon="6.77194">
        <ele>828</ele>
        <time>2021-05-28T14:30:53Z</time>
      </trkpt>
      <trkpt lat="45.62" lon="6.77195">
        <ele>828</ele>
        <time>2021-05-28T14:30:55Z</time>
      </trkpt>
    </trkseg>
  </trk>
</gpx>